<?xml version="1.0" encoding="UTF-8" standalone="no" ?>
<gpx xmlns="http://www.topografix.com/GPX/1/1" xmlns:xsi="http://www.w3.org/2001/XMLSchema-instance" xsi:schemaLocation="http://www.topografix.com/GPX/1/1 http://www.topografix.com/GPX/1/1/gpx.xsd" version="1.1" creator="VisuGPX - https://www.visugpx.com">
  <metadata>
    <name>Itinéraire prévu Norvège</name>
  </metadata>
  <trk>
    <name><![CDATA[3_Trondheim-Forvik: 460km]]></name>
    <trkseg>
      <trkpt lat="63.43128" lon="10.35499">
        <ele>40.209371</ele>
        <time>2020-07-15T11:10:29.794Z</time>
      </trkpt>
      <trkpt lat="63.43132" lon="10.35448">
        <ele>40.209371</ele>
        <time>2020-07-15T11:10:35.304Z</time>
      </trkpt>
      <trkpt lat="63.43141" lon="10.35287">
        <ele>39.907175</ele>
        <time>2020-07-15T11:10:46.976Z</time>
      </trkpt>
      <trkpt lat="63.43155" lon="10.35223">
        <ele>38.240237</ele>
        <time>2020-07-15T11:10:50.957Z</time>
      </trkpt>
      <trkpt lat="63.43158" lon="10.35213">
        <ele>37.957174</ele>
        <time>2020-07-15T11:10:52.350Z</time>
      </trkpt>
      <trkpt lat="63.43162" lon="10.35204">
        <ele>37.679236</ele>
        <time>2020-07-15T11:10:52.968Z</time>
      </trkpt>
      <trkpt lat="63.4317" lon="10.35186">
        <ele>37.07282</ele>
        <time>2020-07-15T11:10:54.349Z</time>
      </trkpt>
      <trkpt lat="63.43199" lon="10.35136">
        <ele>35.139507</ele>
        <time>2020-07-15T11:10:58.854Z</time>
      </trkpt>
      <trkpt lat="63.43232" lon="10.3508">
        <ele>32.996159</ele>
        <time>2020-07-15T11:11:03.514Z</time>
      </trkpt>
      <trkpt lat="63.43248" lon="10.35056">
        <ele>31.99724</ele>
        <time>2020-07-15T11:11:05.953Z</time>
      </trkpt>
      <trkpt lat="63.43255" lon="10.35047">
        <ele>31.585754</ele>
        <time>2020-07-15T11:11:06.839Z</time>
      </trkpt>
      <trkpt lat="63.43262" lon="10.3504">
        <ele>31.181711</ele>
        <time>2020-07-15T11:11:07.644Z</time>
      </trkpt>
      <trkpt lat="63.43325" lon="10.34999">
        <ele>27.63405</ele>
        <time>2020-07-15T11:11:15.213Z</time>
      </trkpt>
      <trkpt lat="63.43328" lon="10.34997">
        <ele>27.440982</ele>
        <time>2020-07-15T11:11:15.580Z</time>
      </trkpt>
      <trkpt lat="63.43332" lon="10.34996">
        <ele>27.226255</ele>
        <time>2020-07-15T11:11:15.998Z</time>
      </trkpt>
      <trkpt lat="63.43341" lon="10.34995">
        <ele>26.755233</ele>
        <time>2020-07-15T11:11:17.188Z</time>
      </trkpt>
      <trkpt lat="63.43347" lon="10.34994">
        <ele>26.399631</ele>
        <time>2020-07-15T11:11:17.997Z</time>
      </trkpt>
      <trkpt lat="63.4337" lon="10.34991">
        <ele>25.163339</ele>
        <time>2020-07-15T11:11:20.541Z</time>
      </trkpt>
      <trkpt lat="63.43403" lon="10.34978">
        <ele>23.310147</ele>
        <time>2020-07-15T11:11:24.631Z</time>
      </trkpt>
      <trkpt lat="63.43483" lon="10.34915">
        <ele>20.623625</ele>
        <time>2020-07-15T11:11:36.309Z</time>
      </trkpt>
      <trkpt lat="63.4354" lon="10.34895">
        <ele>20.083221</ele>
        <time>2020-07-15T11:11:45.935Z</time>
      </trkpt>
      <trkpt lat="63.43561" lon="10.34894">
        <ele>19.886286</ele>
        <time>2020-07-15T11:11:49.725Z</time>
      </trkpt>
      <trkpt lat="63.43569" lon="10.34894">
        <ele>19.812894</ele>
        <time>2020-07-15T11:11:51.130Z</time>
      </trkpt>
      <trkpt lat="63.43576" lon="10.34895">
        <ele>19.750632</ele>
        <time>2020-07-15T11:11:52.168Z</time>
      </trkpt>
      <trkpt lat="63.43691" lon="10.34912">
        <ele>19.70284</ele>
        <time>2020-07-15T11:12:12.116Z</time>
      </trkpt>
      <trkpt lat="63.4378" lon="10.34888">
        <ele>20.145194</ele>
        <time>2020-07-15T11:12:30.437Z</time>
      </trkpt>
      <trkpt lat="63.43814" lon="10.34865">
        <ele>20.4015</ele>
        <time>2020-07-15T11:12:38.231Z</time>
      </trkpt>
      <trkpt lat="63.43837" lon="10.34839">
        <ele>20.64497</ele>
        <time>2020-07-15T11:12:43.973Z</time>
      </trkpt>
      <trkpt lat="63.43848" lon="10.34821">
        <ele>20.775504</ele>
        <time>2020-07-15T11:12:46.923Z</time>
      </trkpt>
      <trkpt lat="63.43852" lon="10.34815">
        <ele>20.821533</ele>
        <time>2020-07-15T11:12:48.193Z</time>
      </trkpt>
      <trkpt lat="63.43862" lon="10.34801">
        <ele>20.934019</ele>
        <time>2020-07-15T11:12:50.952Z</time>
      </trkpt>
      <trkpt lat="63.43882" lon="10.3478">
        <ele>21.13664</ele>
        <time>2020-07-15T11:12:55.589Z</time>
      </trkpt>
      <trkpt lat="63.43902" lon="10.34772">
        <ele>21.331661</ele>
        <time>2020-07-15T11:13:00.299Z</time>
      </trkpt>
      <trkpt lat="63.43959" lon="10.34789">
        <ele>21.879101</ele>
        <time>2020-07-15T11:13:12.766Z</time>
      </trkpt>
      <trkpt lat="63.43987" lon="10.34786">
        <ele>21.725403</ele>
        <time>2020-07-15T11:13:16.998Z</time>
      </trkpt>
      <trkpt lat="63.44007" lon="10.34771">
        <ele>21.52045</ele>
        <time>2020-07-15T11:13:20.416Z</time>
      </trkpt>
      <trkpt lat="63.44038" lon="10.34729">
        <ele>21.159325</ele>
        <time>2020-07-15T11:13:25.656Z</time>
      </trkpt>
      <trkpt lat="63.44049" lon="10.34714">
        <ele>21.030676</ele>
        <time>2020-07-15T11:13:27.426Z</time>
      </trkpt>
      <trkpt lat="63.44052" lon="10.3471">
        <ele>20.994122</ele>
        <time>2020-07-15T11:13:28.055Z</time>
      </trkpt>
      <trkpt lat="63.44065" lon="10.34698">
        <ele>20.861971</ele>
        <time>2020-07-15T11:13:29.936Z</time>
      </trkpt>
      <trkpt lat="63.44093" lon="10.34683">
        <ele>20.569654</ele>
        <time>2020-07-15T11:13:34.146Z</time>
      </trkpt>
      <trkpt lat="63.44106" lon="10.34683">
        <ele>20.442844</ele>
        <time>2020-07-15T11:13:35.894Z</time>
      </trkpt>
      <trkpt lat="63.44115" lon="10.34684">
        <ele>20.354356</ele>
        <time>2020-07-15T11:13:37.028Z</time>
      </trkpt>
      <trkpt lat="63.44171" lon="10.34727">
        <ele>21.445398</ele>
        <time>2020-07-15T11:13:49.075Z</time>
      </trkpt>
      <trkpt lat="63.44194" lon="10.34731">
        <ele>22.203079</ele>
        <time>2020-07-15T11:13:52.914Z</time>
      </trkpt>
      <trkpt lat="63.44216" lon="10.34712">
        <ele>23.011655</ele>
        <time>2020-07-15T11:13:58.233Z</time>
      </trkpt>
      <trkpt lat="63.44247" lon="10.34658">
        <ele>24.299506</ele>
        <time>2020-07-15T11:14:09.110Z</time>
      </trkpt>
      <trkpt lat="63.44256" lon="10.34636">
        <ele>24.742107</ele>
        <time>2020-07-15T11:14:14.086Z</time>
      </trkpt>
      <trkpt lat="63.44259" lon="10.34629">
        <ele>24.887769</ele>
        <time>2020-07-15T11:14:16.950Z</time>
      </trkpt>
      <trkpt lat="63.44271" lon="10.34585">
        <ele>25.654038</ele>
        <time>2020-07-15T11:14:25.149Z</time>
      </trkpt>
      <trkpt lat="63.4429" lon="10.34473">
        <ele>30.11634</ele>
        <time>2020-07-15T11:14:50.436Z</time>
      </trkpt>
      <trkpt lat="63.44346" lon="10.34333">
        <ele>38.525834</ele>
        <time>2020-07-15T11:15:33.954Z</time>
      </trkpt>
      <trkpt lat="63.44364" lon="10.34269">
        <ele>41.940801</ele>
        <time>2020-07-15T11:15:51.645Z</time>
      </trkpt>
      <trkpt lat="63.44384" lon="10.34174">
        <ele>46.580786</ele>
        <time>2020-07-15T11:16:16.983Z</time>
      </trkpt>
      <trkpt lat="63.44398" lon="10.34037">
        <ele>52.746147</ele>
        <time>2020-07-15T11:16:49.611Z</time>
      </trkpt>
      <trkpt lat="63.44412" lon="10.33979">
        <ele>55.598015</ele>
        <time>2020-07-15T11:17:03.578Z</time>
      </trkpt>
      <trkpt lat="63.44455" lon="10.33875">
        <ele>61.778138</ele>
        <time>2020-07-15T11:17:32.781Z</time>
      </trkpt>
      <trkpt lat="63.44556" lon="10.33687">
        <ele>72.780907</ele>
        <time>2020-07-15T11:18:31.557Z</time>
      </trkpt>
      <trkpt lat="63.44566" lon="10.33666">
        <ele>73.879314</ele>
        <time>2020-07-15T11:18:38.426Z</time>
      </trkpt>
      <trkpt lat="63.44568" lon="10.33672">
        <ele>74.188454</ele>
        <time>2020-07-15T11:18:39.394Z</time>
      </trkpt>
      <trkpt lat="63.44571" lon="10.33674">
        <ele>74.415631</ele>
        <time>2020-07-15T11:18:40.024Z</time>
      </trkpt>
      <trkpt lat="63.44576" lon="10.33665">
        <ele>74.938419</ele>
        <time>2020-07-15T11:18:43.337Z</time>
      </trkpt>
      <trkpt lat="63.44611" lon="10.33577">
        <ele>78.460285</ele>
        <time>2020-07-15T11:19:06.588Z</time>
      </trkpt>
      <trkpt lat="63.44624" lon="10.3351">
        <ele>80.239677</ele>
        <time>2020-07-15T11:19:20.771Z</time>
      </trkpt>
      <trkpt lat="63.44624" lon="10.33448">
        <ele>81.74771</ele>
        <time>2020-07-15T11:19:32.917Z</time>
      </trkpt>
      <trkpt lat="63.44608" lon="10.33264">
        <ele>86.344404</ele>
        <time>2020-07-15T11:20:00.763Z</time>
      </trkpt>
      <trkpt lat="63.44602" lon="10.33112">
        <ele>82.649797</ele>
        <time>2020-07-15T11:20:12.497Z</time>
      </trkpt>
      <trkpt lat="63.44635" lon="10.3279">
        <ele>70.388378</ele>
        <time>2020-07-15T11:20:29.501Z</time>
      </trkpt>
      <trkpt lat="63.44648" lon="10.32741">
        <ele>66.399472</ele>
        <time>2020-07-15T11:20:32.219Z</time>
      </trkpt>
      <trkpt lat="63.44662" lon="10.32707">
        <ele>63.073551</ele>
        <time>2020-07-15T11:20:34.471Z</time>
      </trkpt>
      <trkpt lat="63.44767" lon="10.32585">
        <ele>45.304453</ele>
        <time>2020-07-15T11:20:47.083Z</time>
      </trkpt>
      <trkpt lat="63.44787" lon="10.32546">
        <ele>42.57427</ele>
        <time>2020-07-15T11:20:50.011Z</time>
      </trkpt>
      <trkpt lat="63.4481" lon="10.32481">
        <ele>38.852151</ele>
        <time>2020-07-15T11:20:54.050Z</time>
      </trkpt>
      <trkpt lat="63.4482" lon="10.32455">
        <ele>37.256309</ele>
        <time>2020-07-15T11:20:55.787Z</time>
      </trkpt>
      <trkpt lat="63.44862" lon="10.32347">
        <ele>30.781084</ele>
        <time>2020-07-15T11:21:03.681Z</time>
      </trkpt>
      <trkpt lat="63.44893" lon="10.32257">
        <ele>28.91537</ele>
        <time>2020-07-15T11:21:11.227Z</time>
      </trkpt>
      <trkpt lat="63.44894" lon="10.32246">
        <ele>28.96374</ele>
        <time>2020-07-15T11:21:11.877Z</time>
      </trkpt>
      <trkpt lat="63.44893" lon="10.32238">
        <ele>28.997468</ele>
        <time>2020-07-15T11:21:13.092Z</time>
      </trkpt>
      <trkpt lat="63.44892" lon="10.32228">
        <ele>29.044029</ele>
        <time>2020-07-15T11:21:13.940Z</time>
      </trkpt>
      <trkpt lat="63.44886" lon="10.32192">
        <ele>29.210121</ele>
        <time>2020-07-15T11:21:16.952Z</time>
      </trkpt>
      <trkpt lat="63.44884" lon="10.32177">
        <ele>29.282217</ele>
        <time>2020-07-15T11:21:18.495Z</time>
      </trkpt>
      <trkpt lat="63.44883" lon="10.32168">
        <ele>29.322511</ele>
        <time>2020-07-15T11:21:19.161Z</time>
      </trkpt>
      <trkpt lat="63.4488" lon="10.32158">
        <ele>29.369868</ele>
        <time>2020-07-15T11:21:20.819Z</time>
      </trkpt>
      <trkpt lat="63.44878" lon="10.32152">
        <ele>29.408288</ele>
        <time>2020-07-15T11:21:21.602Z</time>
      </trkpt>
      <trkpt lat="63.44876" lon="10.32148">
        <ele>29.433057</ele>
        <time>2020-07-15T11:21:22.588Z</time>
      </trkpt>
      <trkpt lat="63.44871" lon="10.32137">
        <ele>29.502519</ele>
        <time>2020-07-15T11:21:24.717Z</time>
      </trkpt>
      <trkpt lat="63.44868" lon="10.3213">
        <ele>29.542536</ele>
        <time>2020-07-15T11:21:26.359Z</time>
      </trkpt>
      <trkpt lat="63.44867" lon="10.32095">
        <ele>29.694549</ele>
        <time>2020-07-15T11:21:29.870Z</time>
      </trkpt>
      <trkpt lat="63.44884" lon="10.3204">
        <ele>29.979794</ele>
        <time>2020-07-15T11:21:38.196Z</time>
      </trkpt>
      <trkpt lat="63.44887" lon="10.3203">
        <ele>30.032898</ele>
        <time>2020-07-15T11:21:39.284Z</time>
      </trkpt>
      <trkpt lat="63.44904" lon="10.31992">
        <ele>30.271682</ele>
        <time>2020-07-15T11:21:46.957Z</time>
      </trkpt>
      <trkpt lat="63.4492" lon="10.31892">
        <ele>30.779828</ele>
        <time>2020-07-15T11:21:59.977Z</time>
      </trkpt>
      <trkpt lat="63.44951" lon="10.31771">
        <ele>31.46255</ele>
        <time>2020-07-15T11:22:13.504Z</time>
      </trkpt>
      <trkpt lat="63.44974" lon="10.31714">
        <ele>31.837698</ele>
        <time>2020-07-15T11:22:19.781Z</time>
      </trkpt>
      <trkpt lat="63.45033" lon="10.31598">
        <ele>32.27312</ele>
        <time>2020-07-15T11:22:35.061Z</time>
      </trkpt>
      <trkpt lat="63.45043" lon="10.31562">
        <ele>32.222639</ele>
        <time>2020-07-15T11:22:39.292Z</time>
      </trkpt>
      <trkpt lat="63.45048" lon="10.31512">
        <ele>32.163043</ele>
        <time>2020-07-15T11:22:43.280Z</time>
      </trkpt>
      <trkpt lat="63.45051" lon="10.31491">
        <ele>32.136586</ele>
        <time>2020-07-15T11:22:45.602Z</time>
      </trkpt>
      <trkpt lat="63.45053" lon="10.3148">
        <ele>32.123899</ele>
        <time>2020-07-15T11:22:46.703Z</time>
      </trkpt>
      <trkpt lat="63.45071" lon="10.31401">
        <ele>32.02029</ele>
        <time>2020-07-15T11:22:53.778Z</time>
      </trkpt>
      <trkpt lat="63.45117" lon="10.31296">
        <ele>31.447035</ele>
        <time>2020-07-15T11:23:04.575Z</time>
      </trkpt>
      <trkpt lat="63.45131" lon="10.3125">
        <ele>30.680066</ele>
        <time>2020-07-15T11:23:08.228Z</time>
      </trkpt>
      <trkpt lat="63.4514" lon="10.31164">
        <ele>29.470596</ele>
        <time>2020-07-15T11:23:13.962Z</time>
      </trkpt>
      <trkpt lat="63.45139" lon="10.31062">
        <ele>28.066696</ele>
        <time>2020-07-15T11:23:20.123Z</time>
      </trkpt>
      <trkpt lat="63.45179" lon="10.30931">
        <ele>25.871681</ele>
        <time>2020-07-15T11:23:29.259Z</time>
      </trkpt>
      <trkpt lat="63.4519" lon="10.30803">
        <ele>24.035082</ele>
        <time>2020-07-15T11:23:36.678Z</time>
      </trkpt>
      <trkpt lat="63.45206" lon="10.3074">
        <ele>23.007985</ele>
        <time>2020-07-15T11:23:41.093Z</time>
      </trkpt>
      <trkpt lat="63.45217" lon="10.30717">
        <ele>22.538594</ele>
        <time>2020-07-15T11:23:43.547Z</time>
      </trkpt>
      <trkpt lat="63.45221" lon="10.30719">
        <ele>22.411939</ele>
        <time>2020-07-15T11:23:44.455Z</time>
      </trkpt>
      <trkpt lat="63.45223" lon="10.30725">
        <ele>22.316631</ele>
        <time>2020-07-15T11:23:45.128Z</time>
      </trkpt>
      <trkpt lat="63.45225" lon="10.30721">
        <ele>22.228653</ele>
        <time>2020-07-15T11:23:45.438Z</time>
      </trkpt>
      <trkpt lat="63.45274" lon="10.3068">
        <ele>20.679916</ele>
        <time>2020-07-15T11:23:52.858Z</time>
      </trkpt>
      <trkpt lat="63.45293" lon="10.30651">
        <ele>20.951562</ele>
        <time>2020-07-15T11:23:56.442Z</time>
      </trkpt>
      <trkpt lat="63.453" lon="10.30634">
        <ele>21.075517</ele>
        <time>2020-07-15T11:23:58.009Z</time>
      </trkpt>
      <trkpt lat="63.45305" lon="10.30622">
        <ele>21.165462</ele>
        <time>2020-07-15T11:24:00.281Z</time>
      </trkpt>
      <trkpt lat="63.45373" lon="10.30467">
        <ele>22.306964</ele>
        <time>2020-07-15T11:24:21.067Z</time>
      </trkpt>
      <trkpt lat="63.45395" lon="10.3039">
        <ele>22.83607</ele>
        <time>2020-07-15T11:24:32.713Z</time>
      </trkpt>
      <trkpt lat="63.45414" lon="10.30254">
        <ele>25.643986</ele>
        <time>2020-07-15T11:24:51.956Z</time>
      </trkpt>
      <trkpt lat="63.45421" lon="10.30118">
        <ele>28.353508</ele>
        <time>2020-07-15T11:25:11.716Z</time>
      </trkpt>
      <trkpt lat="63.45417" lon="10.3003">
        <ele>30.092545</ele>
        <time>2020-07-15T11:25:25.216Z</time>
      </trkpt>
      <trkpt lat="63.45404" lon="10.29939">
        <ele>32.289692</ele>
        <time>2020-07-15T11:25:40.566Z</time>
      </trkpt>
      <trkpt lat="63.45342" lon="10.29652">
        <ele>40.10591</ele>
        <time>2020-07-15T11:26:33.665Z</time>
      </trkpt>
      <trkpt lat="63.45302" lon="10.29433">
        <ele>43.575303</ele>
        <time>2020-07-15T11:27:03.657Z</time>
      </trkpt>
      <trkpt lat="63.45301" lon="10.29416">
        <ele>43.810134</ele>
        <time>2020-07-15T11:27:06.661Z</time>
      </trkpt>
      <trkpt lat="63.453" lon="10.294">
        <ele>44.044158</ele>
        <time>2020-07-15T11:27:07.486Z</time>
      </trkpt>
      <trkpt lat="63.45303" lon="10.2927">
        <ele>45.827481</ele>
        <time>2020-07-15T11:27:25.498Z</time>
      </trkpt>
      <trkpt lat="63.453" lon="10.29239">
        <ele>46.272184</ele>
        <time>2020-07-15T11:27:27.280Z</time>
      </trkpt>
      <trkpt lat="63.45298" lon="10.29219">
        <ele>46.561338</ele>
        <time>2020-07-15T11:27:31.525Z</time>
      </trkpt>
      <trkpt lat="63.45264" lon="10.2905">
        <ele>49.239002</ele>
        <time>2020-07-15T11:27:51.323Z</time>
      </trkpt>
      <trkpt lat="63.45187" lon="10.28564">
        <ele>57.901481</ele>
        <time>2020-07-15T11:29:05.634Z</time>
      </trkpt>
      <trkpt lat="63.45146" lon="10.28408">
        <ele>57.907589</ele>
        <time>2020-07-15T11:29:28.597Z</time>
      </trkpt>
      <trkpt lat="63.45133" lon="10.28331">
        <ele>56.871683</ele>
        <time>2020-07-15T11:29:33.784Z</time>
      </trkpt>
      <trkpt lat="63.45132" lon="10.28311">
        <ele>56.607133</ele>
        <time>2020-07-15T11:29:38.641Z</time>
      </trkpt>
      <trkpt lat="63.4513" lon="10.28264">
        <ele>56.015726</ele>
        <time>2020-07-15T11:29:40.868Z</time>
      </trkpt>
      <trkpt lat="63.45131" lon="10.28142">
        <ele>54.452933</ele>
        <time>2020-07-15T11:29:47.496Z</time>
      </trkpt>
      <trkpt lat="63.45134" lon="10.28099">
        <ele>53.331521</ele>
        <time>2020-07-15T11:29:49.508Z</time>
      </trkpt>
      <trkpt lat="63.45146" lon="10.27955">
        <ele>46.873345</ele>
        <time>2020-07-15T11:29:56.773Z</time>
      </trkpt>
      <trkpt lat="63.4515" lon="10.27912">
        <ele>44.942381</ele>
        <time>2020-07-15T11:29:58.851Z</time>
      </trkpt>
      <trkpt lat="63.45161" lon="10.27754">
        <ele>37.942992</ele>
        <time>2020-07-15T11:30:06.429Z</time>
      </trkpt>
      <trkpt lat="63.45147" lon="10.27551">
        <ele>34.714636</ele>
        <time>2020-07-15T11:30:17.634Z</time>
      </trkpt>
      <trkpt lat="63.45152" lon="10.27445">
        <ele>33.618085</ele>
        <time>2020-07-15T11:30:25.943Z</time>
      </trkpt>
      <trkpt lat="63.45191" lon="10.27237">
        <ele>32.991292</ele>
        <time>2020-07-15T11:30:48.319Z</time>
      </trkpt>
      <trkpt lat="63.4522" lon="10.27003">
        <ele>34.539396</ele>
        <time>2020-07-15T11:31:14.658Z</time>
      </trkpt>
      <trkpt lat="63.45285" lon="10.26791">
        <ele>35.461096</ele>
        <time>2020-07-15T11:31:36.300Z</time>
      </trkpt>
      <trkpt lat="63.45298" lon="10.26696">
        <ele>35.735742</ele>
        <time>2020-07-15T11:31:44.550Z</time>
      </trkpt>
      <trkpt lat="63.45309" lon="10.26571">
        <ele>36.193631</ele>
        <time>2020-07-15T11:31:56.240Z</time>
      </trkpt>
      <trkpt lat="63.45307" lon="10.26446">
        <ele>37.103866</ele>
        <time>2020-07-15T11:32:08.485Z</time>
      </trkpt>
      <trkpt lat="63.45288" lon="10.26245">
        <ele>38.604395</ele>
        <time>2020-07-15T11:32:31.206Z</time>
      </trkpt>
      <trkpt lat="63.45302" lon="10.25874">
        <ele>40.576358</ele>
        <time>2020-07-15T11:33:09.398Z</time>
      </trkpt>
      <trkpt lat="63.45298" lon="10.25732">
        <ele>40.666766</ele>
        <time>2020-07-15T11:33:20.426Z</time>
      </trkpt>
      <trkpt lat="63.45272" lon="10.25281">
        <ele>37.024038</ele>
        <time>2020-07-15T11:33:50.766Z</time>
      </trkpt>
      <trkpt lat="63.45261" lon="10.252">
        <ele>35.557059</ele>
        <time>2020-07-15T11:33:55.567Z</time>
      </trkpt>
      <trkpt lat="63.45237" lon="10.25094">
        <ele>33.496649</ele>
        <time>2020-07-15T11:34:02.275Z</time>
      </trkpt>
      <trkpt lat="63.45232" lon="10.2504">
        <ele>32.543984</ele>
        <time>2020-07-15T11:34:05.044Z</time>
      </trkpt>
      <trkpt lat="63.4523" lon="10.25009">
        <ele>31.981797</ele>
        <time>2020-07-15T11:34:07.026Z</time>
      </trkpt>
      <trkpt lat="63.4523" lon="10.24996">
        <ele>31.66368</ele>
        <time>2020-07-15T11:34:07.631Z</time>
      </trkpt>
      <trkpt lat="63.45233" lon="10.24943">
        <ele>30.399762</ele>
        <time>2020-07-15T11:34:10.589Z</time>
      </trkpt>
      <trkpt lat="63.45243" lon="10.24879">
        <ele>28.779045</ele>
        <time>2020-07-15T11:34:14.022Z</time>
      </trkpt>
      <trkpt lat="63.45291" lon="10.24722">
        <ele>24.2248</ele>
        <time>2020-07-15T11:34:24.079Z</time>
      </trkpt>
      <trkpt lat="63.45298" lon="10.24669">
        <ele>22.914206</ele>
        <time>2020-07-15T11:34:26.938Z</time>
      </trkpt>
      <trkpt lat="63.45297" lon="10.2459">
        <ele>23.025337</ele>
        <time>2020-07-15T11:34:32.261Z</time>
      </trkpt>
      <trkpt lat="63.45288" lon="10.24522">
        <ele>23.752604</ele>
        <time>2020-07-15T11:34:38.731Z</time>
      </trkpt>
      <trkpt lat="63.45273" lon="10.24469">
        <ele>24.405689</ele>
        <time>2020-07-15T11:34:46.111Z</time>
      </trkpt>
      <trkpt lat="63.45252" lon="10.24426">
        <ele>25.04275</ele>
        <time>2020-07-15T11:34:54.419Z</time>
      </trkpt>
      <trkpt lat="63.45204" lon="10.24361">
        <ele>26.329479</ele>
        <time>2020-07-15T11:35:13.838Z</time>
      </trkpt>
      <trkpt lat="63.45182" lon="10.24309">
        <ele>27.564656</ele>
        <time>2020-07-15T11:35:25.855Z</time>
      </trkpt>
      <trkpt lat="63.45171" lon="10.24256">
        <ele>28.716267</ele>
        <time>2020-07-15T11:35:35.392Z</time>
      </trkpt>
      <trkpt lat="63.45165" lon="10.24187">
        <ele>30.105468</ele>
        <time>2020-07-15T11:35:46.381Z</time>
      </trkpt>
      <trkpt lat="63.45172" lon="10.24084">
        <ele>32.167475</ele>
        <time>2020-07-15T11:36:01.427Z</time>
      </trkpt>
      <trkpt lat="63.45188" lon="10.23955">
        <ele>34.615198</ele>
        <time>2020-07-15T11:36:17.988Z</time>
      </trkpt>
      <trkpt lat="63.45202" lon="10.23877">
        <ele>35.185467</ele>
        <time>2020-07-15T11:36:27.492Z</time>
      </trkpt>
      <trkpt lat="63.45235" lon="10.23768">
        <ele>36.064445</ele>
        <time>2020-07-15T11:36:41.573Z</time>
      </trkpt>
      <trkpt lat="63.45248" lon="10.23706">
        <ele>36.517473</ele>
        <time>2020-07-15T11:36:48.384Z</time>
      </trkpt>
      <trkpt lat="63.4525" lon="10.23643">
        <ele>36.935348</ele>
        <time>2020-07-15T11:36:54.370Z</time>
      </trkpt>
      <trkpt lat="63.45243" lon="10.23448">
        <ele>35.542424</ele>
        <time>2020-07-15T11:37:07.954Z</time>
      </trkpt>
      <trkpt lat="63.45244" lon="10.23426">
        <ele>35.31185</ele>
        <time>2020-07-15T11:37:10.869Z</time>
      </trkpt>
      <trkpt lat="63.45246" lon="10.23399">
        <ele>35.015647</ele>
        <time>2020-07-15T11:37:12.292Z</time>
      </trkpt>
      <trkpt lat="63.45254" lon="10.23336">
        <ele>34.314101</ele>
        <time>2020-07-15T11:37:16.387Z</time>
      </trkpt>
      <trkpt lat="63.45275" lon="10.23245">
        <ele>33.224941</ele>
        <time>2020-07-15T11:37:22.000Z</time>
      </trkpt>
      <trkpt lat="63.45343" lon="10.23065">
        <ele>30.503081</ele>
        <time>2020-07-15T11:37:35.106Z</time>
      </trkpt>
      <trkpt lat="63.45352" lon="10.22998">
        <ele>29.694844</ele>
        <time>2020-07-15T11:37:39.300Z</time>
      </trkpt>
      <trkpt lat="63.4535" lon="10.22946">
        <ele>29.085928</ele>
        <time>2020-07-15T11:37:42.802Z</time>
      </trkpt>
      <trkpt lat="63.45344" lon="10.22897">
        <ele>28.496125</ele>
        <time>2020-07-15T11:37:46.563Z</time>
      </trkpt>
      <trkpt lat="63.45324" lon="10.22835">
        <ele>28.501461</ele>
        <time>2020-07-15T11:37:53.526Z</time>
      </trkpt>
      <trkpt lat="63.45302" lon="10.22801">
        <ele>28.80325</ele>
        <time>2020-07-15T11:38:00.094Z</time>
      </trkpt>
      <trkpt lat="63.45251" lon="10.2276">
        <ele>29.418688</ele>
        <time>2020-07-15T11:38:14.282Z</time>
      </trkpt>
      <trkpt lat="63.45222" lon="10.22723">
        <ele>29.798994</ele>
        <time>2020-07-15T11:38:22.110Z</time>
      </trkpt>
      <trkpt lat="63.45193" lon="10.22661">
        <ele>30.253387</ele>
        <time>2020-07-15T11:38:30.113Z</time>
      </trkpt>
      <trkpt lat="63.45171" lon="10.2258">
        <ele>29.264621</ele>
        <time>2020-07-15T11:38:37.030Z</time>
      </trkpt>
      <trkpt lat="63.45167" lon="10.22557">
        <ele>28.993667</ele>
        <time>2020-07-15T11:38:38.993Z</time>
      </trkpt>
      <trkpt lat="63.45159" lon="10.22514">
        <ele>28.485754</ele>
        <time>2020-07-15T11:38:41.712Z</time>
      </trkpt>
      <trkpt lat="63.45104" lon="10.22312">
        <ele>25.897411</ele>
        <time>2020-07-15T11:38:55.261Z</time>
      </trkpt>
      <trkpt lat="63.45098" lon="10.22241">
        <ele>25.404583</ele>
        <time>2020-07-15T11:38:59.247Z</time>
      </trkpt>
      <trkpt lat="63.45097" lon="10.22115">
        <ele>24.56762</ele>
        <time>2020-07-15T11:39:06.697Z</time>
      </trkpt>
      <trkpt lat="63.45086" lon="10.22042">
        <ele>24.050109</ele>
        <time>2020-07-15T11:39:11.810Z</time>
      </trkpt>
      <trkpt lat="63.44998" lon="10.21787">
        <ele>24.835928</ele>
        <time>2020-07-15T11:39:44.044Z</time>
      </trkpt>
      <trkpt lat="63.44993" lon="10.21762">
        <ele>25.068595</ele>
        <time>2020-07-15T11:39:48.198Z</time>
      </trkpt>
      <trkpt lat="63.4499" lon="10.21739">
        <ele>25.270454</ele>
        <time>2020-07-15T11:39:50.288Z</time>
      </trkpt>
      <trkpt lat="63.44982" lon="10.21444">
        <ele>27.280053</ele>
        <time>2020-07-15T11:40:23.671Z</time>
      </trkpt>
      <trkpt lat="63.44969" lon="10.21377">
        <ele>27.625827</ele>
        <time>2020-07-15T11:40:29.838Z</time>
      </trkpt>
      <trkpt lat="63.4494" lon="10.21299">
        <ele>28.108725</ele>
        <time>2020-07-15T11:40:38.233Z</time>
      </trkpt>
      <trkpt lat="63.44935" lon="10.2128">
        <ele>28.212744</ele>
        <time>2020-07-15T11:40:40.714Z</time>
      </trkpt>
      <trkpt lat="63.4493" lon="10.21257">
        <ele>28.331624</ele>
        <time>2020-07-15T11:40:42.586Z</time>
      </trkpt>
      <trkpt lat="63.44916" lon="10.2106">
        <ele>28.887937</ele>
        <time>2020-07-15T11:40:59.590Z</time>
      </trkpt>
      <trkpt lat="63.44848" lon="10.20731">
        <ele>30.055889</ele>
        <time>2020-07-15T11:41:31.324Z</time>
      </trkpt>
      <trkpt lat="63.44812" lon="10.20629">
        <ele>30.743653</ele>
        <time>2020-07-15T11:41:44.058Z</time>
      </trkpt>
      <trkpt lat="63.44684" lon="10.2037">
        <ele>33.07553</ele>
        <time>2020-07-15T11:42:24.160Z</time>
      </trkpt>
      <trkpt lat="63.44653" lon="10.20296">
        <ele>33.725466</ele>
        <time>2020-07-15T11:42:33.929Z</time>
      </trkpt>
      <trkpt lat="63.44645" lon="10.20272">
        <ele>33.917586</ele>
        <time>2020-07-15T11:42:37.064Z</time>
      </trkpt>
      <trkpt lat="63.44638" lon="10.20247">
        <ele>34.112018</ele>
        <time>2020-07-15T11:42:39.783Z</time>
      </trkpt>
      <trkpt lat="63.4462" lon="10.20147">
        <ele>34.542465</ele>
        <time>2020-07-15T11:42:50.098Z</time>
      </trkpt>
      <trkpt lat="63.44602" lon="10.20014">
        <ele>35.053618</ele>
        <time>2020-07-15T11:43:02.828Z</time>
      </trkpt>
      <trkpt lat="63.44595" lon="10.20018">
        <ele>35.113131</ele>
        <time>2020-07-15T11:43:04.777Z</time>
      </trkpt>
      <trkpt lat="63.4459" lon="10.19979">
        <ele>35.261003</ele>
        <time>2020-07-15T11:43:08.753Z</time>
      </trkpt>
      <trkpt lat="63.44582" lon="10.19932">
        <ele>35.443756</ele>
        <time>2020-07-15T11:43:13.269Z</time>
      </trkpt>
      <trkpt lat="63.44574" lon="10.19874">
        <ele>35.665492</ele>
        <time>2020-07-15T11:43:18.687Z</time>
      </trkpt>
      <trkpt lat="63.44538" lon="10.19603">
        <ele>35.544253</ele>
        <time>2020-07-15T11:43:43.877Z</time>
      </trkpt>
      <trkpt lat="63.44527" lon="10.19519">
        <ele>35.506675</ele>
        <time>2020-07-15T11:43:50.440Z</time>
      </trkpt>
      <trkpt lat="63.44525" lon="10.19493">
        <ele>35.495674</ele>
        <time>2020-07-15T11:43:52.130Z</time>
      </trkpt>
      <trkpt lat="63.44524" lon="10.19483">
        <ele>35.433575</ele>
        <time>2020-07-15T11:43:52.902Z</time>
      </trkpt>
      <trkpt lat="63.44513" lon="10.19417">
        <ele>34.60891</ele>
        <time>2020-07-15T11:43:57.682Z</time>
      </trkpt>
      <trkpt lat="63.44514" lon="10.19416">
        <ele>34.565287</ele>
        <time>2020-07-15T11:43:57.958Z</time>
      </trkpt>
      <trkpt lat="63.44516" lon="10.19415">
        <ele>34.508801</ele>
        <time>2020-07-15T11:43:59.424Z</time>
      </trkpt>
      <trkpt lat="63.44524" lon="10.1941">
        <ele>34.308948</ele>
        <time>2020-07-15T11:44:04.760Z</time>
      </trkpt>
      <trkpt lat="63.4452" lon="10.19382">
        <ele>33.973579</ele>
        <time>2020-07-15T11:44:06.608Z</time>
      </trkpt>
      <trkpt lat="63.44521" lon="10.19369">
        <ele>33.810297</ele>
        <time>2020-07-15T11:44:07.415Z</time>
      </trkpt>
      <trkpt lat="63.44529" lon="10.19329">
        <ele>33.306011</ele>
        <time>2020-07-15T11:44:10.217Z</time>
      </trkpt>
      <trkpt lat="63.44539" lon="10.19312">
        <ele>32.973046</ele>
        <time>2020-07-15T11:44:11.952Z</time>
      </trkpt>
      <trkpt lat="63.44547" lon="10.19304">
        <ele>32.738484</ele>
        <time>2020-07-15T11:44:13.148Z</time>
      </trkpt>
      <trkpt lat="63.44555" lon="10.19297">
        <ele>32.514605</ele>
        <time>2020-07-15T11:44:14.329Z</time>
      </trkpt>
      <trkpt lat="63.44567" lon="10.19287">
        <ele>32.197669</ele>
        <time>2020-07-15T11:44:15.895Z</time>
      </trkpt>
      <trkpt lat="63.446" lon="10.19265">
        <ele>31.297768</ele>
        <time>2020-07-15T11:44:20.329Z</time>
      </trkpt>
      <trkpt lat="63.44659" lon="10.19241">
        <ele>28.949496</ele>
        <time>2020-07-15T11:44:27.796Z</time>
      </trkpt>
      <trkpt lat="63.4469" lon="10.19239">
        <ele>27.522173</ele>
        <time>2020-07-15T11:44:31.686Z</time>
      </trkpt>
      <trkpt lat="63.4471" lon="10.19242">
        <ele>26.637669</ele>
        <time>2020-07-15T11:44:34.166Z</time>
      </trkpt>
      <trkpt lat="63.44718" lon="10.19244">
        <ele>26.236963</ele>
        <time>2020-07-15T11:44:35.206Z</time>
      </trkpt>
      <trkpt lat="63.44772" lon="10.19273">
        <ele>23.756877</ele>
        <time>2020-07-15T11:44:42.156Z</time>
      </trkpt>
      <trkpt lat="63.44782" lon="10.19281">
        <ele>23.272978</ele>
        <time>2020-07-15T11:44:43.368Z</time>
      </trkpt>
      <trkpt lat="63.44782" lon="10.1928">
        <ele>23.233027</ele>
        <time>2020-07-15T11:44:43.457Z</time>
      </trkpt>
      <trkpt lat="63.44841" lon="10.19352">
        <ele>19.522369</ele>
        <time>2020-07-15T11:44:51.435Z</time>
      </trkpt>
      <trkpt lat="63.44865" lon="10.19394">
        <ele>17.742529</ele>
        <time>2020-07-15T11:44:55.057Z</time>
      </trkpt>
      <trkpt lat="63.44872" lon="10.19411">
        <ele>17.13209</ele>
        <time>2020-07-15T11:44:56.212Z</time>
      </trkpt>
      <trkpt lat="63.44888" lon="10.1944">
        <ele>15.949475</ele>
        <time>2020-07-15T11:44:58.830Z</time>
      </trkpt>
      <trkpt lat="63.44899" lon="10.19456">
        <ele>15.205354</ele>
        <time>2020-07-15T11:45:00.254Z</time>
      </trkpt>
      <trkpt lat="63.44901" lon="10.1946">
        <ele>15.051998</ele>
        <time>2020-07-15T11:45:00.533Z</time>
      </trkpt>
      <trkpt lat="63.44909" lon="10.19475">
        <ele>14.408583</ele>
        <time>2020-07-15T11:45:02.017Z</time>
      </trkpt>
      <trkpt lat="63.44917" lon="10.19488">
        <ele>13.86491</ele>
        <time>2020-07-15T11:45:03.158Z</time>
      </trkpt>
      <trkpt lat="63.4492" lon="10.19501">
        <ele>13.477449</ele>
        <time>2020-07-15T11:45:03.900Z</time>
      </trkpt>
      <trkpt lat="63.44961" lon="10.19576">
        <ele>10.97863</ele>
        <time>2020-07-15T11:45:10.187Z</time>
      </trkpt>
      <trkpt lat="63.44975" lon="10.19597">
        <ele>10.290991</ele>
        <time>2020-07-15T11:45:12.196Z</time>
      </trkpt>
      <trkpt lat="63.44985" lon="10.19625">
        <ele>9.637287</ele>
        <time>2020-07-15T11:45:14.113Z</time>
      </trkpt>
      <trkpt lat="63.45093" lon="10.20079">
        <ele>2.359803</ele>
        <time>2020-07-15T11:45:44.490Z</time>
      </trkpt>
      <trkpt lat="63.45111" lon="10.20098">
        <ele>1.919469</ele>
        <time>2020-07-15T11:45:47.295Z</time>
      </trkpt>
      <trkpt lat="63.45109" lon="10.20108">
        <ele>1.812483</ele>
        <time>2020-07-15T11:45:48.020Z</time>
      </trkpt>
      <trkpt lat="63.45108" lon="10.20126">
        <ele>1.622099</ele>
        <time>2020-07-15T11:45:49.324Z</time>
      </trkpt>
      <trkpt lat="63.45109" lon="10.20145">
        <ele>1.426417</ele>
        <time>2020-07-15T11:45:50.620Z</time>
      </trkpt>
      <trkpt lat="63.4512" lon="10.20171">
        <ele>1.053172</ele>
        <time>2020-07-15T11:45:53.069Z</time>
      </trkpt>
      <trkpt lat="63.4521" lon="10.20315">
        <ele>0.37455</ele>
        <time>2020-07-15T11:46:08.397Z</time>
      </trkpt>
      <trkpt lat="63.4528" lon="10.20374">
        <ele>0.018756</ele>
        <time>2020-07-15T11:46:18.883Z</time>
      </trkpt>
      <trkpt lat="63.45426" lon="10.2042">
        <ele>0.000524</ele>
        <time>2020-07-15T11:46:39.373Z</time>
      </trkpt>
      <trkpt lat="63.45499" lon="10.20413">
        <time>2020-07-15T11:46:49.538Z</time>
      </trkpt>
      <trkpt lat="63.45564" lon="10.20394">
        <time>2020-07-15T11:46:58.700Z</time>
      </trkpt>
      <trkpt lat="63.4561" lon="10.20377">
        <time>2020-07-15T11:47:05.202Z</time>
      </trkpt>
      <trkpt lat="63.45802" lon="10.20273">
        <time>2020-07-15T11:47:32.705Z</time>
      </trkpt>
      <trkpt lat="63.46359" lon="10.19941">
        <time>2020-07-15T11:48:53.051Z</time>
      </trkpt>
      <trkpt lat="63.50712" lon="10.15117">
        <time>2020-07-15T12:00:09.901Z</time>
      </trkpt>
      <trkpt lat="63.5088" lon="10.14774">
        <ele>0.023639</ele>
        <time>2020-07-15T12:00:41.643Z</time>
      </trkpt>
      <trkpt lat="63.50934" lon="10.14568">
        <ele>0.05872</ele>
        <time>2020-07-15T12:00:56.479Z</time>
      </trkpt>
      <trkpt lat="63.50953" lon="10.14217">
        <ele>1.425343</ele>
        <time>2020-07-15T12:01:18.494Z</time>
      </trkpt>
      <trkpt lat="63.50957" lon="10.14028">
        <ele>4.353462</ele>
        <time>2020-07-15T12:01:30.245Z</time>
      </trkpt>
      <trkpt lat="63.50953" lon="10.13933">
        <ele>6.28165</ele>
        <time>2020-07-15T12:01:43.778Z</time>
      </trkpt>
      <trkpt lat="63.50951" lon="10.13896">
        <ele>7.01751</ele>
        <time>2020-07-15T12:01:49.304Z</time>
      </trkpt>
      <trkpt lat="63.50957" lon="10.13876">
        <ele>7.487271</ele>
        <time>2020-07-15T12:01:53.168Z</time>
      </trkpt>
      <trkpt lat="63.50958" lon="10.1386">
        <ele>7.808995</ele>
        <time>2020-07-15T12:01:55.253Z</time>
      </trkpt>
      <trkpt lat="63.50958" lon="10.1384">
        <ele>8.215793</ele>
        <time>2020-07-15T12:01:58.627Z</time>
      </trkpt>
      <trkpt lat="63.5095" lon="10.13789">
        <ele>9.311792</ele>
        <time>2020-07-15T12:02:07.168Z</time>
      </trkpt>
      <trkpt lat="63.50905" lon="10.13542">
        <ele>17.317973</ele>
        <time>2020-07-15T12:02:55.767Z</time>
      </trkpt>
      <trkpt lat="63.50864" lon="10.13407">
        <ele>22.226161</ele>
        <time>2020-07-15T12:03:25.110Z</time>
      </trkpt>
      <trkpt lat="63.50852" lon="10.13373">
        <ele>22.787912</ele>
        <time>2020-07-15T12:03:33.702Z</time>
      </trkpt>
      <trkpt lat="63.50846" lon="10.1336">
        <ele>23.024926</ele>
        <time>2020-07-15T12:03:37.248Z</time>
      </trkpt>
      <trkpt lat="63.50797" lon="10.13285">
        <ele>24.753361</ele>
        <time>2020-07-15T12:03:57.638Z</time>
      </trkpt>
      <trkpt lat="63.50792" lon="10.13264">
        <ele>25.045959</ele>
        <time>2020-07-15T12:03:59.451Z</time>
      </trkpt>
      <trkpt lat="63.50793" lon="10.13244">
        <ele>25.317788</ele>
        <time>2020-07-15T12:04:01.230Z</time>
      </trkpt>
      <trkpt lat="63.50795" lon="10.13232">
        <ele>25.476082</ele>
        <time>2020-07-15T12:04:03.837Z</time>
      </trkpt>
      <trkpt lat="63.50795" lon="10.13209">
        <ele>25.769167</ele>
        <time>2020-07-15T12:04:06.852Z</time>
      </trkpt>
      <trkpt lat="63.50782" lon="10.13192">
        <ele>26.228353</ele>
        <time>2020-07-15T12:04:09.211Z</time>
      </trkpt>
      <trkpt lat="63.50752" lon="10.13162">
        <ele>27.163655</ele>
        <time>2020-07-15T12:04:15.823Z</time>
      </trkpt>
      <trkpt lat="63.5073" lon="10.13151">
        <ele>26.435431</ele>
        <time>2020-07-15T12:04:19.993Z</time>
      </trkpt>
      <trkpt lat="63.50716" lon="10.13139">
        <ele>25.529718</ele>
        <time>2020-07-15T12:04:21.721Z</time>
      </trkpt>
      <trkpt lat="63.5056" lon="10.13075">
        <ele>15.982407</ele>
        <time>2020-07-15T12:04:39.831Z</time>
      </trkpt>
      <trkpt lat="63.50507" lon="10.13045">
        <ele>12.698432</ele>
        <time>2020-07-15T12:04:46.031Z</time>
      </trkpt>
      <trkpt lat="63.50483" lon="10.13024">
        <ele>11.164022</ele>
        <time>2020-07-15T12:04:48.951Z</time>
      </trkpt>
      <trkpt lat="63.50429" lon="10.1297">
        <ele>7.595455</ele>
        <time>2020-07-15T12:04:56.032Z</time>
      </trkpt>
      <trkpt lat="63.50388" lon="10.12919">
        <ele>5.552691</ele>
        <time>2020-07-15T12:05:01.894Z</time>
      </trkpt>
      <trkpt lat="63.50351" lon="10.12859">
        <ele>4.999077</ele>
        <time>2020-07-15T12:05:08.196Z</time>
      </trkpt>
      <trkpt lat="63.50286" lon="10.12716">
        <ele>3.90178</ele>
        <time>2020-07-15T12:05:24.026Z</time>
      </trkpt>
      <trkpt lat="63.50285" lon="10.12714">
        <ele>3.888109</ele>
        <time>2020-07-15T12:05:24.276Z</time>
      </trkpt>
      <trkpt lat="63.5024" lon="10.12605">
        <ele>3.743301</ele>
        <time>2020-07-15T12:05:36.930Z</time>
      </trkpt>
      <trkpt lat="63.50165" lon="10.1241">
        <ele>4.210509</ele>
        <time>2020-07-15T12:05:59.183Z</time>
      </trkpt>
      <trkpt lat="63.50107" lon="10.12244">
        <ele>4.997784</ele>
        <time>2020-07-15T12:06:17.118Z</time>
      </trkpt>
      <trkpt lat="63.50045" lon="10.12119">
        <ele>5.831611</ele>
        <time>2020-07-15T12:06:34.681Z</time>
      </trkpt>
      <trkpt lat="63.50041" lon="10.12107">
        <ele>5.899554</ele>
        <time>2020-07-15T12:06:35.918Z</time>
      </trkpt>
      <trkpt lat="63.50035" lon="10.12089">
        <ele>5.993659</ele>
        <time>2020-07-15T12:06:38.612Z</time>
      </trkpt>
      <trkpt lat="63.49971" lon="10.1176">
        <ele>9.362263</ele>
        <time>2020-07-15T12:07:18.780Z</time>
      </trkpt>
      <trkpt lat="63.49871" lon="10.11318">
        <ele>14.410376</ele>
        <time>2020-07-15T12:08:14.902Z</time>
      </trkpt>
      <trkpt lat="63.4977" lon="10.10938">
        <ele>18.932254</ele>
        <time>2020-07-15T12:09:02.676Z</time>
      </trkpt>
      <trkpt lat="63.49735" lon="10.10758">
        <ele>21.784625</ele>
        <time>2020-07-15T12:09:27.938Z</time>
      </trkpt>
      <trkpt lat="63.4971" lon="10.10587">
        <ele>24.487025</ele>
        <time>2020-07-15T12:09:51.606Z</time>
      </trkpt>
      <trkpt lat="63.49709" lon="10.10575">
        <ele>24.704021</ele>
        <time>2020-07-15T12:09:54.020Z</time>
      </trkpt>
      <trkpt lat="63.49703" lon="10.1052">
        <ele>25.646222</ele>
        <time>2020-07-15T12:10:00.960Z</time>
      </trkpt>
      <trkpt lat="63.49673" lon="10.10171">
        <ele>31.817897</ele>
        <time>2020-07-15T12:10:49.033Z</time>
      </trkpt>
      <trkpt lat="63.49671" lon="10.10139">
        <ele>32.456174</ele>
        <time>2020-07-15T12:10:53.002Z</time>
      </trkpt>
      <trkpt lat="63.49666" lon="10.10079">
        <ele>33.634501</ele>
        <time>2020-07-15T12:11:01.033Z</time>
      </trkpt>
      <trkpt lat="63.49665" lon="10.09962">
        <ele>35.914528</ele>
        <time>2020-07-15T12:11:17.424Z</time>
      </trkpt>
      <trkpt lat="63.49678" lon="10.09851">
        <ele>38.152421</ele>
        <time>2020-07-15T12:11:34.503Z</time>
      </trkpt>
      <trkpt lat="63.49699" lon="10.09719">
        <ele>41.391418</ele>
        <time>2020-07-15T12:11:57.470Z</time>
      </trkpt>
      <trkpt lat="63.4972" lon="10.09573">
        <ele>45.046015</ele>
        <time>2020-07-15T12:12:21.461Z</time>
      </trkpt>
      <trkpt lat="63.49727" lon="10.09515">
        <ele>46.468047</ele>
        <time>2020-07-15T12:12:30.112Z</time>
      </trkpt>
      <trkpt lat="63.4973" lon="10.09492">
        <ele>47.023727</ele>
        <time>2020-07-15T12:12:34.280Z</time>
      </trkpt>
      <trkpt lat="63.49736" lon="10.0943">
        <ele>48.603924</ele>
        <time>2020-07-15T12:12:43.496Z</time>
      </trkpt>
      <trkpt lat="63.49745" lon="10.09211">
        <ele>54.56856</ele>
        <time>2020-07-15T12:13:18.501Z</time>
      </trkpt>
      <trkpt lat="63.49749" lon="10.09119">
        <ele>57.067383</ele>
        <time>2020-07-15T12:13:33.211Z</time>
      </trkpt>
      <trkpt lat="63.49752" lon="10.09074">
        <ele>58.308653</ele>
        <time>2020-07-15T12:13:40.393Z</time>
      </trkpt>
      <trkpt lat="63.49754" lon="10.09029">
        <ele>59.943288</ele>
        <time>2020-07-15T12:13:49.892Z</time>
      </trkpt>
      <trkpt lat="63.49773" lon="10.08777">
        <ele>71.942172</ele>
        <time>2020-07-15T12:14:45.738Z</time>
      </trkpt>
      <trkpt lat="63.49778" lon="10.08735">
        <ele>74.012366</ele>
        <time>2020-07-15T12:14:56.690Z</time>
      </trkpt>
      <trkpt lat="63.49782" lon="10.08709">
        <ele>75.306544</ele>
        <time>2020-07-15T12:15:05.598Z</time>
      </trkpt>
      <trkpt lat="63.49793" lon="10.08655">
        <ele>78.106211</ele>
        <time>2020-07-15T12:15:20.258Z</time>
      </trkpt>
      <trkpt lat="63.4982" lon="10.08575">
        <ele>84.995771</ele>
        <time>2020-07-15T12:15:48.966Z</time>
      </trkpt>
      <trkpt lat="63.49837" lon="10.08534">
        <ele>88.823106</ele>
        <time>2020-07-15T12:16:03.982Z</time>
      </trkpt>
      <trkpt lat="63.4985" lon="10.08505">
        <ele>91.582212</ele>
        <time>2020-07-15T12:16:17.778Z</time>
      </trkpt>
      <trkpt lat="63.49913" lon="10.08351">
        <ele>105.752868</ele>
        <time>2020-07-15T12:17:24.161Z</time>
      </trkpt>
      <trkpt lat="63.49936" lon="10.08259">
        <ele>111.307745</ele>
        <time>2020-07-15T12:17:56.156Z</time>
      </trkpt>
      <trkpt lat="63.4994" lon="10.0823">
        <ele>112.881345</ele>
        <time>2020-07-15T12:18:05.494Z</time>
      </trkpt>
      <trkpt lat="63.49943" lon="10.08203">
        <ele>114.345013</ele>
        <time>2020-07-15T12:18:12.031Z</time>
      </trkpt>
      <trkpt lat="63.49945" lon="10.0816">
        <ele>116.612536</ele>
        <time>2020-07-15T12:18:22.173Z</time>
      </trkpt>
      <trkpt lat="63.49951" lon="10.0805">
        <ele>122.362822</ele>
        <time>2020-07-15T12:18:47.180Z</time>
      </trkpt>
      <trkpt lat="63.49954" lon="10.08005">
        <ele>124.785912</ele>
        <time>2020-07-15T12:18:56.455Z</time>
      </trkpt>
      <trkpt lat="63.49956" lon="10.07946">
        <ele>127.022533</ele>
        <time>2020-07-15T12:19:07.854Z</time>
      </trkpt>
      <trkpt lat="63.49961" lon="10.07853">
        <ele>128.655665</ele>
        <time>2020-07-15T12:19:24.455Z</time>
      </trkpt>
      <trkpt lat="63.49965" lon="10.07775">
        <ele>130.036999</ele>
        <time>2020-07-15T12:19:34.430Z</time>
      </trkpt>
      <trkpt lat="63.49969" lon="10.07687">
        <ele>131.595594</ele>
        <time>2020-07-15T12:19:44.563Z</time>
      </trkpt>
      <trkpt lat="63.49973" lon="10.07591">
        <ele>133.295589</ele>
        <time>2020-07-15T12:19:54.317Z</time>
      </trkpt>
      <trkpt lat="63.49983" lon="10.07409">
        <ele>134.811369</ele>
        <time>2020-07-15T12:20:12.354Z</time>
      </trkpt>
      <trkpt lat="63.49998" lon="10.07235">
        <ele>136.04927</ele>
        <time>2020-07-15T12:20:29.666Z</time>
      </trkpt>
      <trkpt lat="63.50003" lon="10.07204">
        <ele>136.279145</ele>
        <time>2020-07-15T12:20:32.905Z</time>
      </trkpt>
      <trkpt lat="63.50007" lon="10.07181">
        <ele>136.454541</ele>
        <time>2020-07-15T12:20:35.629Z</time>
      </trkpt>
      <trkpt lat="63.50088" lon="10.06859">
        <ele>141.531532</ele>
        <time>2020-07-15T12:21:20.128Z</time>
      </trkpt>
      <trkpt lat="63.50093" lon="10.06842">
        <ele>141.833583</ele>
        <time>2020-07-15T12:21:23.372Z</time>
      </trkpt>
      <trkpt lat="63.50106" lon="10.06804">
        <ele>142.779872</ele>
        <time>2020-07-15T12:21:30.733Z</time>
      </trkpt>
      <trkpt lat="63.50119" lon="10.06772">
        <ele>143.814279</ele>
        <time>2020-07-15T12:21:37.079Z</time>
      </trkpt>
      <trkpt lat="63.5015" lon="10.067">
        <ele>146.196548</ele>
        <time>2020-07-15T12:21:52.232Z</time>
      </trkpt>
      <trkpt lat="63.50203" lon="10.0658">
        <ele>150.190026</ele>
        <time>2020-07-15T12:22:19.639Z</time>
      </trkpt>
      <trkpt lat="63.50207" lon="10.0657">
        <ele>150.518896</ele>
        <time>2020-07-15T12:22:22.599Z</time>
      </trkpt>
      <trkpt lat="63.50248" lon="10.06473">
        <ele>153.446762</ele>
        <time>2020-07-15T12:22:43.896Z</time>
      </trkpt>
      <trkpt lat="63.50259" lon="10.0645">
        <ele>154.139697</ele>
        <time>2020-07-15T12:22:49.938Z</time>
      </trkpt>
      <trkpt lat="63.50315" lon="10.0632">
        <ele>157.876017</ele>
        <time>2020-07-15T12:23:16.573Z</time>
      </trkpt>
      <trkpt lat="63.50322" lon="10.06303">
        <ele>158.341568</ele>
        <time>2020-07-15T12:23:19.886Z</time>
      </trkpt>
      <trkpt lat="63.50418" lon="10.06078">
        <ele>161.202132</ele>
        <time>2020-07-15T12:23:56.721Z</time>
      </trkpt>
      <trkpt lat="63.50428" lon="10.06052">
        <ele>161.374055</ele>
        <time>2020-07-15T12:24:00.320Z</time>
      </trkpt>
      <trkpt lat="63.50437" lon="10.06025">
        <ele>161.544366</ele>
        <time>2020-07-15T12:24:02.589Z</time>
      </trkpt>
      <trkpt lat="63.50465" lon="10.05926">
        <ele>161.817844</ele>
        <time>2020-07-15T12:24:10.690Z</time>
      </trkpt>
      <trkpt lat="63.50481" lon="10.05841">
        <ele>159.714883</ele>
        <time>2020-07-15T12:24:16.403Z</time>
      </trkpt>
      <trkpt lat="63.50535" lon="10.05451">
        <ele>150.00743</ele>
        <time>2020-07-15T12:24:37.628Z</time>
      </trkpt>
      <trkpt lat="63.50539" lon="10.05412">
        <ele>148.952387</ele>
        <time>2020-07-15T12:24:39.624Z</time>
      </trkpt>
      <trkpt lat="63.50543" lon="10.05372">
        <ele>147.866253</ele>
        <time>2020-07-15T12:24:41.811Z</time>
      </trkpt>
      <trkpt lat="63.50554" lon="10.05212">
        <ele>143.585891</ele>
        <time>2020-07-15T12:24:50.319Z</time>
      </trkpt>
      <trkpt lat="63.50557" lon="10.05126">
        <ele>141.712893</ele>
        <time>2020-07-15T12:24:54.981Z</time>
      </trkpt>
      <trkpt lat="63.50559" lon="10.05071">
        <ele>140.89458</ele>
        <time>2020-07-15T12:24:58.037Z</time>
      </trkpt>
      <trkpt lat="63.5058" lon="10.04843">
        <ele>137.492323</ele>
        <time>2020-07-15T12:25:12.397Z</time>
      </trkpt>
      <trkpt lat="63.50616" lon="10.04618">
        <ele>133.219258</ele>
        <time>2020-07-15T12:25:26.294Z</time>
      </trkpt>
      <trkpt lat="63.50624" lon="10.04578">
        <ele>132.349107</ele>
        <time>2020-07-15T12:25:28.679Z</time>
      </trkpt>
      <trkpt lat="63.50632" lon="10.04541">
        <ele>131.538612</ele>
        <time>2020-07-15T12:25:30.957Z</time>
      </trkpt>
      <trkpt lat="63.50637" lon="10.04522">
        <ele>131.119105</ele>
        <time>2020-07-15T12:25:32.106Z</time>
      </trkpt>
      <trkpt lat="63.50662" lon="10.04423">
        <ele>128.878424</ele>
        <time>2020-07-15T12:25:38.283Z</time>
      </trkpt>
      <trkpt lat="63.50675" lon="10.04371">
        <ele>127.507272</ele>
        <time>2020-07-15T12:25:41.397Z</time>
      </trkpt>
      <trkpt lat="63.50682" lon="10.04337">
        <ele>126.527153</ele>
        <time>2020-07-15T12:25:43.448Z</time>
      </trkpt>
      <trkpt lat="63.50687" lon="10.04315">
        <ele>125.911304</ele>
        <time>2020-07-15T12:25:44.683Z</time>
      </trkpt>
      <trkpt lat="63.50694" lon="10.04284">
        <ele>125.002552</ele>
        <time>2020-07-15T12:25:46.517Z</time>
      </trkpt>
      <trkpt lat="63.50727" lon="10.04174">
        <ele>121.584518</ele>
        <time>2020-07-15T12:25:53.533Z</time>
      </trkpt>
      <trkpt lat="63.50734" lon="10.04116">
        <ele>120.027872</ele>
        <time>2020-07-15T12:25:56.751Z</time>
      </trkpt>
      <trkpt lat="63.50729" lon="10.03793">
        <ele>109.866158</ele>
        <time>2020-07-15T12:26:13.563Z</time>
      </trkpt>
      <trkpt lat="63.50736" lon="10.03659">
        <ele>105.372609</ele>
        <time>2020-07-15T12:26:20.284Z</time>
      </trkpt>
      <trkpt lat="63.5074" lon="10.03626">
        <ele>104.078083</ele>
        <time>2020-07-15T12:26:21.938Z</time>
      </trkpt>
      <trkpt lat="63.50741" lon="10.03618">
        <ele>103.663048</ele>
        <time>2020-07-15T12:26:22.356Z</time>
      </trkpt>
      <trkpt lat="63.50748" lon="10.03583">
        <ele>101.862235</ele>
        <time>2020-07-15T12:26:24.289Z</time>
      </trkpt>
      <trkpt lat="63.50758" lon="10.03541">
        <ele>99.665967</ele>
        <time>2020-07-15T12:26:26.549Z</time>
      </trkpt>
      <trkpt lat="63.50761" lon="10.03529">
        <ele>99.012144</ele>
        <time>2020-07-15T12:26:27.222Z</time>
      </trkpt>
      <trkpt lat="63.5078" lon="10.03476">
        <ele>95.825059</ele>
        <time>2020-07-15T12:26:30.561Z</time>
      </trkpt>
      <trkpt lat="63.50788" lon="10.03457">
        <ele>94.573726</ele>
        <time>2020-07-15T12:26:31.854Z</time>
      </trkpt>
      <trkpt lat="63.50809" lon="10.03414">
        <ele>91.531177</ele>
        <time>2020-07-15T12:26:34.916Z</time>
      </trkpt>
      <trkpt lat="63.50891" lon="10.0325">
        <ele>79.891597</ele>
        <time>2020-07-15T12:26:46.673Z</time>
      </trkpt>
      <trkpt lat="63.50896" lon="10.03233">
        <ele>78.895646</ele>
        <time>2020-07-15T12:26:47.658Z</time>
      </trkpt>
      <trkpt lat="63.509" lon="10.03223">
        <ele>78.284194</ele>
        <time>2020-07-15T12:26:48.244Z</time>
      </trkpt>
      <trkpt lat="63.50917" lon="10.03064">
        <ele>70.466224</ele>
        <time>2020-07-15T12:26:56.142Z</time>
      </trkpt>
      <trkpt lat="63.50929" lon="10.02999">
        <ele>67.081981</ele>
        <time>2020-07-15T12:26:59.627Z</time>
      </trkpt>
      <trkpt lat="63.50937" lon="10.02968">
        <ele>65.648698</ele>
        <time>2020-07-15T12:27:01.319Z</time>
      </trkpt>
      <trkpt lat="63.50945" lon="10.02941">
        <ele>64.456146</ele>
        <time>2020-07-15T12:27:03.019Z</time>
      </trkpt>
      <trkpt lat="63.51006" lon="10.0274">
        <ele>55.910098</ele>
        <time>2020-07-15T12:27:15.206Z</time>
      </trkpt>
      <trkpt lat="63.51046" lon="10.02483">
        <ele>48.444103</ele>
        <time>2020-07-15T12:27:29.430Z</time>
      </trkpt>
      <trkpt lat="63.51054" lon="10.02445">
        <ele>47.514766</ele>
        <time>2020-07-15T12:27:31.635Z</time>
      </trkpt>
      <trkpt lat="63.51059" lon="10.02418">
        <ele>46.85436</ele>
        <time>2020-07-15T12:27:33.263Z</time>
      </trkpt>
      <trkpt lat="63.51113" lon="10.02229">
        <ele>42.333316</ele>
        <time>2020-07-15T12:27:45.977Z</time>
      </trkpt>
      <trkpt lat="63.5112" lon="10.02204">
        <ele>41.945843</ele>
        <time>2020-07-15T12:27:47.610Z</time>
      </trkpt>
      <trkpt lat="63.51146" lon="10.02112">
        <ele>40.517007</ele>
        <time>2020-07-15T12:27:54.130Z</time>
      </trkpt>
      <trkpt lat="63.51168" lon="10.02043">
        <ele>39.378899</ele>
        <time>2020-07-15T12:27:59.389Z</time>
      </trkpt>
      <trkpt lat="63.51169" lon="10.02042">
        <ele>39.35719</ele>
        <time>2020-07-15T12:27:59.549Z</time>
      </trkpt>
      <trkpt lat="63.51182" lon="10.02017">
        <ele>38.862849</ele>
        <time>2020-07-15T12:28:01.667Z</time>
      </trkpt>
      <trkpt lat="63.51188" lon="10.01988">
        <ele>38.443833</ele>
        <time>2020-07-15T12:28:03.723Z</time>
      </trkpt>
      <trkpt lat="63.51186" lon="10.0197">
        <ele>38.192659</ele>
        <time>2020-07-15T12:28:04.971Z</time>
      </trkpt>
      <trkpt lat="63.5118" lon="10.01959">
        <ele>37.969192</ele>
        <time>2020-07-15T12:28:05.966Z</time>
      </trkpt>
      <trkpt lat="63.51178" lon="10.01957">
        <ele>37.903016</ele>
        <time>2020-07-15T12:28:06.222Z</time>
      </trkpt>
      <trkpt lat="63.51165" lon="10.0196">
        <ele>37.468181</ele>
        <time>2020-07-15T12:28:07.979Z</time>
      </trkpt>
      <trkpt lat="63.51156" lon="10.01956">
        <ele>37.152392</ele>
        <time>2020-07-15T12:28:09.384Z</time>
      </trkpt>
      <trkpt lat="63.51149" lon="10.01953">
        <ele>36.892634</ele>
        <time>2020-07-15T12:28:10.450Z</time>
      </trkpt>
      <trkpt lat="63.51129" lon="10.01927">
        <ele>36.097044</ele>
        <time>2020-07-15T12:28:13.400Z</time>
      </trkpt>
      <trkpt lat="63.51118" lon="10.01907">
        <ele>35.625759</ele>
        <time>2020-07-15T12:28:15.213Z</time>
      </trkpt>
      <trkpt lat="63.51111" lon="10.01893">
        <ele>35.287294</ele>
        <time>2020-07-15T12:28:16.419Z</time>
      </trkpt>
      <trkpt lat="63.5109" lon="10.01841">
        <ele>34.20771</ele>
        <time>2020-07-15T12:28:20.427Z</time>
      </trkpt>
      <trkpt lat="63.51062" lon="10.01732">
        <ele>32.267086</ele>
        <time>2020-07-15T12:28:27.503Z</time>
      </trkpt>
      <trkpt lat="63.51045" lon="10.01691">
        <ele>31.427</ele>
        <time>2020-07-15T12:28:30.745Z</time>
      </trkpt>
      <trkpt lat="63.51045" lon="10.01691">
        <ele>31.40984</ele>
        <time>2020-07-15T12:28:30.798Z</time>
      </trkpt>
      <trkpt lat="63.51042" lon="10.01691">
        <ele>31.301457</ele>
        <time>2020-07-15T12:28:31.253Z</time>
      </trkpt>
      <trkpt lat="63.51038" lon="10.01692">
        <ele>31.168989</ele>
        <time>2020-07-15T12:28:31.810Z</time>
      </trkpt>
      <trkpt lat="63.51034" lon="10.01695">
        <ele>31.028403</ele>
        <time>2020-07-15T12:28:32.303Z</time>
      </trkpt>
      <trkpt lat="63.5099" lon="10.01754">
        <ele>29.311386</ele>
        <time>2020-07-15T12:28:38.831Z</time>
      </trkpt>
      <trkpt lat="63.50955" lon="10.01783">
        <ele>28.030975</ele>
        <time>2020-07-15T12:28:43.751Z</time>
      </trkpt>
      <trkpt lat="63.50917" lon="10.01795">
        <ele>26.73437</ele>
        <time>2020-07-15T12:28:48.736Z</time>
      </trkpt>
      <trkpt lat="63.50868" lon="10.01784">
        <ele>25.17238</ele>
        <time>2020-07-15T12:28:55.202Z</time>
      </trkpt>
      <trkpt lat="63.50862" lon="10.0178">
        <ele>25.027245</ele>
        <time>2020-07-15T12:28:55.919Z</time>
      </trkpt>
      <trkpt lat="63.50852" lon="10.01773">
        <ele>24.766708</ele>
        <time>2020-07-15T12:28:57.283Z</time>
      </trkpt>
      <trkpt lat="63.50829" lon="10.0175">
        <ele>24.138647</ele>
        <time>2020-07-15T12:29:00.730Z</time>
      </trkpt>
      <trkpt lat="63.50796" lon="10.01688">
        <ele>23.062527</ele>
        <time>2020-07-15T12:29:06.540Z</time>
      </trkpt>
      <trkpt lat="63.50764" lon="10.01615">
        <ele>21.913214</ele>
        <time>2020-07-15T12:29:12.886Z</time>
      </trkpt>
      <trkpt lat="63.50748" lon="10.01576">
        <ele>21.308865</ele>
        <time>2020-07-15T12:29:16.195Z</time>
      </trkpt>
      <trkpt lat="63.50729" lon="10.01533">
        <ele>20.768505</ele>
        <time>2020-07-15T12:29:20.022Z</time>
      </trkpt>
      <trkpt lat="63.50721" lon="10.01517">
        <ele>20.612229</ele>
        <time>2020-07-15T12:29:21.518Z</time>
      </trkpt>
      <trkpt lat="63.50708" lon="10.01487">
        <ele>20.327293</ele>
        <time>2020-07-15T12:29:24.247Z</time>
      </trkpt>
      <trkpt lat="63.50669" lon="10.01407">
        <ele>19.516924</ele>
        <time>2020-07-15T12:29:32.060Z</time>
      </trkpt>
      <trkpt lat="63.50666" lon="10.01402">
        <ele>19.466051</ele>
        <time>2020-07-15T12:29:32.545Z</time>
      </trkpt>
      <trkpt lat="63.50628" lon="10.01323">
        <ele>18.671745</ele>
        <time>2020-07-15T12:29:40.423Z</time>
      </trkpt>
      <trkpt lat="63.50557" lon="10.01185">
        <ele>17.425312</ele>
        <time>2020-07-15T12:29:54.478Z</time>
      </trkpt>
      <trkpt lat="63.50491" lon="10.01039">
        <ele>16.262874</ele>
        <time>2020-07-15T12:30:08.503Z</time>
      </trkpt>
      <trkpt lat="63.50454" lon="10.00983">
        <ele>15.771144</ele>
        <time>2020-07-15T12:30:15.373Z</time>
      </trkpt>
      <trkpt lat="63.50399" lon="10.00933">
        <ele>15.207565</ele>
        <time>2020-07-15T12:30:24.419Z</time>
      </trkpt>
      <trkpt lat="63.50314" lon="10.00914">
        <ele>14.380506</ele>
        <time>2020-07-15T12:30:38.008Z</time>
      </trkpt>
      <trkpt lat="63.50282" lon="10.00893">
        <ele>14.047308</ele>
        <time>2020-07-15T12:30:43.208Z</time>
      </trkpt>
      <trkpt lat="63.50274" lon="10.00885">
        <ele>13.949632</ele>
        <time>2020-07-15T12:30:44.544Z</time>
      </trkpt>
      <trkpt lat="63.50252" lon="10.00861">
        <ele>13.695431</ele>
        <time>2020-07-15T12:30:48.515Z</time>
      </trkpt>
      <trkpt lat="63.50205" lon="10.00809">
        <ele>13.144441</ele>
        <time>2020-07-15T12:30:56.529Z</time>
      </trkpt>
      <trkpt lat="63.50187" lon="10.00792">
        <ele>12.939894</ele>
        <time>2020-07-15T12:30:59.651Z</time>
      </trkpt>
      <trkpt lat="63.50176" lon="10.00783">
        <ele>12.822253</ele>
        <time>2020-07-15T12:31:01.242Z</time>
      </trkpt>
      <trkpt lat="63.50145" lon="10.00766">
        <ele>12.48482</ele>
        <time>2020-07-15T12:31:06.171Z</time>
      </trkpt>
      <trkpt lat="63.50118" lon="10.00767">
        <ele>12.134891</ele>
        <time>2020-07-15T12:31:10.276Z</time>
      </trkpt>
      <trkpt lat="63.49976" lon="10.00831">
        <ele>9.991973</ele>
        <time>2020-07-15T12:31:31.522Z</time>
      </trkpt>
      <trkpt lat="63.49909" lon="10.00855">
        <ele>9.218621</ele>
        <time>2020-07-15T12:31:41.493Z</time>
      </trkpt>
      <trkpt lat="63.49889" lon="10.00861">
        <ele>9.020392</ele>
        <time>2020-07-15T12:31:44.503Z</time>
      </trkpt>
      <trkpt lat="63.49877" lon="10.00864">
        <ele>8.89248</ele>
        <time>2020-07-15T12:31:46.393Z</time>
      </trkpt>
      <trkpt lat="63.49854" lon="10.00868">
        <ele>8.666755</ele>
        <time>2020-07-15T12:31:49.925Z</time>
      </trkpt>
      <trkpt lat="63.49814" lon="10.0087">
        <ele>8.261348</ele>
        <time>2020-07-15T12:31:56.300Z</time>
      </trkpt>
      <trkpt lat="63.49803" lon="10.00868">
        <ele>8.148905</ele>
        <time>2020-07-15T12:31:58.038Z</time>
      </trkpt>
      <trkpt lat="63.4978" lon="10.00862">
        <ele>7.912473</ele>
        <time>2020-07-15T12:32:02.002Z</time>
      </trkpt>
      <trkpt lat="63.49773" lon="10.0086">
        <ele>7.923418</ele>
        <time>2020-07-15T12:32:03.100Z</time>
      </trkpt>
      <trkpt lat="63.49771" lon="10.00859">
        <ele>7.927501</ele>
        <time>2020-07-15T12:32:03.364Z</time>
      </trkpt>
      <trkpt lat="63.49767" lon="10.00855">
        <ele>7.938161</ele>
        <time>2020-07-15T12:32:04.095Z</time>
      </trkpt>
      <trkpt lat="63.49757" lon="10.00848">
        <ele>7.965926</ele>
        <time>2020-07-15T12:32:06.026Z</time>
      </trkpt>
      <trkpt lat="63.49755" lon="10.00843">
        <ele>7.973225</ele>
        <time>2020-07-15T12:32:06.539Z</time>
      </trkpt>
      <trkpt lat="63.49753" lon="10.00841">
        <ele>7.978341</ele>
        <time>2020-07-15T12:32:06.904Z</time>
      </trkpt>
      <trkpt lat="63.49753" lon="10.00838">
        <ele>7.98078</ele>
        <time>2020-07-15T12:32:07.162Z</time>
      </trkpt>
      <trkpt lat="63.49751" lon="10.00808">
        <ele>8.015122</ele>
        <time>2020-07-15T12:32:09.495Z</time>
      </trkpt>
      <trkpt lat="63.49751" lon="10.00792">
        <ele>8.031997</ele>
        <time>2020-07-15T12:32:10.727Z</time>
      </trkpt>
      <trkpt lat="63.49753" lon="10.00734">
        <ele>8.09682</ele>
        <time>2020-07-15T12:32:15.463Z</time>
      </trkpt>
      <trkpt lat="63.49767" lon="10.00346">
        <ele>8.678475</ele>
        <time>2020-07-15T12:32:49.942Z</time>
      </trkpt>
      <trkpt lat="63.49774" lon="10.00128">
        <ele>9.127921</ele>
        <time>2020-07-15T12:33:08.779Z</time>
      </trkpt>
      <trkpt lat="63.49779" lon="10.00029">
        <ele>9.007125</ele>
        <time>2020-07-15T12:33:16.835Z</time>
      </trkpt>
      <trkpt lat="63.49783" lon="9.99945">
        <ele>8.800241</ele>
        <time>2020-07-15T12:33:23.329Z</time>
      </trkpt>
      <trkpt lat="63.49785" lon="9.99913">
        <ele>8.719318</ele>
        <time>2020-07-15T12:33:25.583Z</time>
      </trkpt>
      <trkpt lat="63.49805" lon="9.99651">
        <ele>8.039329</ele>
        <time>2020-07-15T12:33:44.251Z</time>
      </trkpt>
      <trkpt lat="63.49814" lon="9.99557">
        <ele>7.754292</ele>
        <time>2020-07-15T12:33:50.791Z</time>
      </trkpt>
      <trkpt lat="63.49825" lon="9.99459">
        <ele>7.455762</ele>
        <time>2020-07-15T12:33:58.008Z</time>
      </trkpt>
      <trkpt lat="63.49831" lon="9.99406">
        <ele>7.293802</ele>
        <time>2020-07-15T12:34:01.975Z</time>
      </trkpt>
      <trkpt lat="63.49833" lon="9.99393">
        <ele>7.252654</ele>
        <time>2020-07-15T12:34:03.006Z</time>
      </trkpt>
      <trkpt lat="63.49834" lon="9.99381">
        <ele>7.217865</ele>
        <time>2020-07-15T12:34:03.886Z</time>
      </trkpt>
      <trkpt lat="63.49847" lon="9.99281">
        <ele>7.020497</ele>
        <time>2020-07-15T12:34:11.789Z</time>
      </trkpt>
      <trkpt lat="63.49873" lon="9.99108">
        <ele>7.148235</ele>
        <time>2020-07-15T12:34:26.538Z</time>
      </trkpt>
      <trkpt lat="63.49886" lon="9.99032">
        <ele>7.204575</ele>
        <time>2020-07-15T12:34:33.396Z</time>
      </trkpt>
      <trkpt lat="63.49889" lon="9.99011">
        <ele>7.220411</ele>
        <time>2020-07-15T12:34:35.281Z</time>
      </trkpt>
      <trkpt lat="63.49968" lon="9.98546">
        <ele>8.032488</ele>
        <time>2020-07-15T12:35:18.159Z</time>
      </trkpt>
      <trkpt lat="63.49981" lon="9.98469">
        <ele>8.072682</ele>
        <time>2020-07-15T12:35:24.947Z</time>
      </trkpt>
      <trkpt lat="63.49986" lon="9.98434">
        <ele>8.090977</ele>
        <time>2020-07-15T12:35:28.035Z</time>
      </trkpt>
      <trkpt lat="63.49991" lon="9.98394">
        <ele>8.111477</ele>
        <time>2020-07-15T12:35:31.307Z</time>
      </trkpt>
      <trkpt lat="63.50009" lon="9.98232">
        <ele>8.193471</ele>
        <time>2020-07-15T12:35:44.550Z</time>
      </trkpt>
      <trkpt lat="63.50017" lon="9.98104">
        <ele>8.399118</ele>
        <time>2020-07-15T12:35:54.936Z</time>
      </trkpt>
      <trkpt lat="63.5002" lon="9.98055">
        <ele>8.538743</ele>
        <time>2020-07-15T12:35:58.960Z</time>
      </trkpt>
      <trkpt lat="63.50021" lon="9.9802">
        <ele>8.637331</ele>
        <time>2020-07-15T12:36:01.892Z</time>
      </trkpt>
      <trkpt lat="63.50022" lon="9.97975">
        <ele>8.763284</ele>
        <time>2020-07-15T12:36:05.700Z</time>
      </trkpt>
      <trkpt lat="63.50027" lon="9.97733">
        <ele>9.66962</ele>
        <time>2020-07-15T12:36:27.666Z</time>
      </trkpt>
      <trkpt lat="63.50033" lon="9.97388">
        <ele>13.180902</ele>
        <time>2020-07-15T12:37:06.657Z</time>
      </trkpt>
      <trkpt lat="63.50035" lon="9.97325">
        <ele>14.073029</ele>
        <time>2020-07-15T12:37:14.576Z</time>
      </trkpt>
      <trkpt lat="63.50043" lon="9.96814">
        <ele>23.298909</ele>
        <time>2020-07-15T12:38:24.848Z</time>
      </trkpt>
      <trkpt lat="63.50043" lon="9.96784">
        <ele>23.91812</ele>
        <time>2020-07-15T12:38:29.486Z</time>
      </trkpt>
      <trkpt lat="63.50046" lon="9.96697">
        <ele>25.72162</ele>
        <time>2020-07-15T12:38:42.126Z</time>
      </trkpt>
      <trkpt lat="63.50048" lon="9.96351">
        <ele>33.472106</ele>
        <time>2020-07-15T12:39:35.201Z</time>
      </trkpt>
      <trkpt lat="63.50048" lon="9.96302">
        <ele>34.63262</ele>
        <time>2020-07-15T12:39:42.724Z</time>
      </trkpt>
      <trkpt lat="63.50048" lon="9.96302">
        <ele>34.63262</ele>
        <time>2020-07-15T12:39:42.837Z</time>
      </trkpt>
      <trkpt lat="63.50048" lon="9.96302">
        <ele>34.63262</ele>
        <time>2020-07-15T12:39:42.852Z</time>
      </trkpt>
      <trkpt lat="63.50047" lon="9.96176">
        <ele>37.610795</ele>
        <time>2020-07-15T12:40:01.902Z</time>
      </trkpt>
      <trkpt lat="63.50044" lon="9.96042">
        <ele>41.009546</ele>
        <time>2020-07-15T12:40:24.368Z</time>
      </trkpt>
      <trkpt lat="63.50044" lon="9.96009">
        <ele>41.873238</ele>
        <time>2020-07-15T12:40:30.482Z</time>
      </trkpt>
      <trkpt lat="63.50041" lon="9.95862">
        <ele>45.647278</ele>
        <time>2020-07-15T12:40:54.587Z</time>
      </trkpt>
      <trkpt lat="63.50039" lon="9.95777">
        <ele>47.858668</ele>
        <time>2020-07-15T12:41:08.136Z</time>
      </trkpt>
      <trkpt lat="63.50038" lon="9.95708">
        <ele>49.379646</ele>
        <time>2020-07-15T12:41:19.163Z</time>
      </trkpt>
      <trkpt lat="63.50041" lon="9.95519">
        <ele>53.046257</ele>
        <time>2020-07-15T12:41:47.246Z</time>
      </trkpt>
      <trkpt lat="63.50052" lon="9.95387">
        <ele>55.652622</ele>
        <time>2020-07-15T12:42:04.885Z</time>
      </trkpt>
      <trkpt lat="63.50071" lon="9.95262">
        <ele>57.834788</ele>
        <time>2020-07-15T12:42:20.896Z</time>
      </trkpt>
      <trkpt lat="63.50103" lon="9.95129">
        <ele>60.118071</ele>
        <time>2020-07-15T12:42:40.403Z</time>
      </trkpt>
      <trkpt lat="63.50109" lon="9.95109">
        <ele>60.487306</ele>
        <time>2020-07-15T12:42:43.643Z</time>
      </trkpt>
      <trkpt lat="63.50138" lon="9.95005">
        <ele>62.334752</ele>
        <time>2020-07-15T12:42:59.211Z</time>
      </trkpt>
      <trkpt lat="63.50161" lon="9.94926">
        <ele>63.912312</ele>
        <time>2020-07-15T12:43:11.591Z</time>
      </trkpt>
      <trkpt lat="63.50207" lon="9.94763">
        <ele>67.226395</ele>
        <time>2020-07-15T12:43:38.345Z</time>
      </trkpt>
      <trkpt lat="63.50427" lon="9.94001">
        <ele>82.784331</ele>
        <time>2020-07-15T12:45:38.606Z</time>
      </trkpt>
      <trkpt lat="63.50497" lon="9.9381">
        <ele>88.751329</ele>
        <time>2020-07-15T12:46:17.752Z</time>
      </trkpt>
      <trkpt lat="63.50559" lon="9.93687">
        <ele>93.349467</ele>
        <time>2020-07-15T12:46:48.668Z</time>
      </trkpt>
      <trkpt lat="63.5063" lon="9.93595">
        <ele>97.825802</ele>
        <time>2020-07-15T12:47:18.732Z</time>
      </trkpt>
      <trkpt lat="63.50686" lon="9.93552">
        <ele>101.039073</ele>
        <time>2020-07-15T12:47:39.318Z</time>
      </trkpt>
      <trkpt lat="63.50729" lon="9.93534">
        <ele>103.341858</ele>
        <time>2020-07-15T12:47:53.857Z</time>
      </trkpt>
      <trkpt lat="63.50883" lon="9.93499">
        <ele>110.354611</ele>
        <time>2020-07-15T12:48:43.289Z</time>
      </trkpt>
      <trkpt lat="63.50993" lon="9.93443">
        <ele>115.442161</ele>
        <time>2020-07-15T12:49:20.284Z</time>
      </trkpt>
      <trkpt lat="63.50995" lon="9.93442">
        <ele>115.549437</ele>
        <time>2020-07-15T12:49:21.474Z</time>
      </trkpt>
      <trkpt lat="63.51033" lon="9.93421">
        <ele>117.304871</ele>
        <time>2020-07-15T12:49:34.066Z</time>
      </trkpt>
      <trkpt lat="63.51129" lon="9.93364">
        <ele>120.747067</ele>
        <time>2020-07-15T12:50:04.694Z</time>
      </trkpt>
      <trkpt lat="63.51188" lon="9.93305">
        <ele>122.4358</ele>
        <time>2020-07-15T12:50:22.327Z</time>
      </trkpt>
      <trkpt lat="63.51227" lon="9.93241">
        <ele>123.709996</ele>
        <time>2020-07-15T12:50:33.347Z</time>
      </trkpt>
      <trkpt lat="63.5133" lon="9.93025">
        <ele>124.346754</ele>
        <time>2020-07-15T12:51:00.012Z</time>
      </trkpt>
      <trkpt lat="63.51368" lon="9.92957">
        <ele>124.467502</ele>
        <time>2020-07-15T12:51:08.068Z</time>
      </trkpt>
      <trkpt lat="63.51444" lon="9.92859">
        <ele>124.357571</ele>
        <time>2020-07-15T12:51:22.947Z</time>
      </trkpt>
      <trkpt lat="63.51516" lon="9.92814">
        <ele>124.256234</ele>
        <time>2020-07-15T12:51:35.647Z</time>
      </trkpt>
      <trkpt lat="63.51672" lon="9.92777">
        <ele>125.663896</ele>
        <time>2020-07-15T12:52:06.469Z</time>
      </trkpt>
      <trkpt lat="63.51811" lon="9.92686">
        <ele>129.213936</ele>
        <time>2020-07-15T12:52:44.319Z</time>
      </trkpt>
      <trkpt lat="63.51882" lon="9.92681">
        <ele>131.36085</ele>
        <time>2020-07-15T12:53:05.685Z</time>
      </trkpt>
      <trkpt lat="63.51918" lon="9.92694">
        <ele>132.527169</ele>
        <time>2020-07-15T12:53:16.511Z</time>
      </trkpt>
      <trkpt lat="63.51959" lon="9.92722">
        <ele>133.927498</ele>
        <time>2020-07-15T12:53:29.293Z</time>
      </trkpt>
      <trkpt lat="63.52003" lon="9.92774">
        <ele>135.586437</ele>
        <time>2020-07-15T12:53:44.019Z</time>
      </trkpt>
      <trkpt lat="63.52102" lon="9.92913">
        <ele>138.521348</ele>
        <time>2020-07-15T12:54:14.139Z</time>
      </trkpt>
      <trkpt lat="63.52232" lon="9.93032">
        <ele>140.689654</ele>
        <time>2020-07-15T12:54:45.568Z</time>
      </trkpt>
      <trkpt lat="63.52234" lon="9.93033">
        <ele>140.692706</ele>
        <time>2020-07-15T12:54:46.321Z</time>
      </trkpt>
      <trkpt lat="63.52244" lon="9.93044">
        <ele>140.705935</ele>
        <time>2020-07-15T12:54:48.571Z</time>
      </trkpt>
      <trkpt lat="63.52328" lon="9.93126">
        <ele>140.819439</ele>
        <time>2020-07-15T12:55:06.966Z</time>
      </trkpt>
      <trkpt lat="63.52392" lon="9.93229">
        <ele>139.887527</ele>
        <time>2020-07-15T12:55:18.769Z</time>
      </trkpt>
      <trkpt lat="63.52414" lon="9.93266">
        <ele>138.698457</ele>
        <time>2020-07-15T12:55:22.428Z</time>
      </trkpt>
      <trkpt lat="63.52426" lon="9.93284">
        <ele>138.095118</ele>
        <time>2020-07-15T12:55:24.305Z</time>
      </trkpt>
      <trkpt lat="63.52453" lon="9.93321">
        <ele>136.709147</ele>
        <time>2020-07-15T12:55:28.420Z</time>
      </trkpt>
      <trkpt lat="63.52457" lon="9.93325">
        <ele>136.550994</ele>
        <time>2020-07-15T12:55:28.872Z</time>
      </trkpt>
      <trkpt lat="63.52473" lon="9.9334">
        <ele>135.812498</ele>
        <time>2020-07-15T12:55:30.955Z</time>
      </trkpt>
      <trkpt lat="63.52502" lon="9.93359">
        <ele>134.488021</ele>
        <time>2020-07-15T12:55:34.492Z</time>
      </trkpt>
      <trkpt lat="63.5254" lon="9.93368">
        <ele>132.851664</ele>
        <time>2020-07-15T12:55:38.834Z</time>
      </trkpt>
      <trkpt lat="63.52575" lon="9.93356">
        <ele>131.177538</ele>
        <time>2020-07-15T12:55:42.970Z</time>
      </trkpt>
      <trkpt lat="63.52622" lon="9.9332">
        <ele>128.867509</ele>
        <time>2020-07-15T12:55:48.846Z</time>
      </trkpt>
      <trkpt lat="63.52637" lon="9.93303">
        <ele>128.050914</ele>
        <time>2020-07-15T12:55:50.823Z</time>
      </trkpt>
      <trkpt lat="63.52666" lon="9.93266">
        <ele>126.485388</ele>
        <time>2020-07-15T12:55:54.989Z</time>
      </trkpt>
      <trkpt lat="63.52677" lon="9.9325">
        <ele>125.863429</ele>
        <time>2020-07-15T12:55:56.779Z</time>
      </trkpt>
      <trkpt lat="63.52684" lon="9.93238">
        <ele>125.483243</ele>
        <time>2020-07-15T12:55:57.998Z</time>
      </trkpt>
      <trkpt lat="63.52917" lon="9.92905">
        <ele>124.294236</ele>
        <time>2020-07-15T12:56:42.995Z</time>
      </trkpt>
      <trkpt lat="63.53008" lon="9.92778">
        <ele>125.942174</ele>
        <time>2020-07-15T12:57:11.150Z</time>
      </trkpt>
      <trkpt lat="63.53039" lon="9.92734">
        <ele>127.436056</ele>
        <time>2020-07-15T12:57:22.159Z</time>
      </trkpt>
      <trkpt lat="63.53095" lon="9.92661">
        <ele>130.076337</ele>
        <time>2020-07-15T12:57:42.879Z</time>
      </trkpt>
      <trkpt lat="63.53131" lon="9.92633">
        <ele>131.643257</ele>
        <time>2020-07-15T12:57:56.239Z</time>
      </trkpt>
      <trkpt lat="63.53183" lon="9.92619">
        <ele>133.130408</ele>
        <time>2020-07-15T12:58:13.744Z</time>
      </trkpt>
      <trkpt lat="63.53265" lon="9.92634">
        <ele>133.882891</ele>
        <time>2020-07-15T12:58:32.603Z</time>
      </trkpt>
      <trkpt lat="63.53302" lon="9.92632">
        <ele>134.22714</ele>
        <time>2020-07-15T12:58:39.002Z</time>
      </trkpt>
      <trkpt lat="63.53312" lon="9.92632">
        <ele>134.318261</ele>
        <time>2020-07-15T12:58:40.435Z</time>
      </trkpt>
      <trkpt lat="63.53367" lon="9.92636">
        <ele>133.730169</ele>
        <time>2020-07-15T12:58:48.350Z</time>
      </trkpt>
      <trkpt lat="63.53483" lon="9.92627">
        <ele>129.758071</ele>
        <time>2020-07-15T12:59:03.026Z</time>
      </trkpt>
      <trkpt lat="63.53653" lon="9.92635">
        <ele>123.196312</ele>
        <time>2020-07-15T12:59:24.196Z</time>
      </trkpt>
      <trkpt lat="63.53673" lon="9.92635">
        <ele>122.399323</ele>
        <time>2020-07-15T12:59:26.733Z</time>
      </trkpt>
      <trkpt lat="63.53689" lon="9.92633">
        <ele>121.736113</ele>
        <time>2020-07-15T12:59:28.917Z</time>
      </trkpt>
      <trkpt lat="63.53795" lon="9.92583">
        <ele>117.816334</ele>
        <time>2020-07-15T12:59:42.908Z</time>
      </trkpt>
      <trkpt lat="63.53831" lon="9.92582">
        <ele>116.489016</ele>
        <time>2020-07-15T12:59:47.653Z</time>
      </trkpt>
      <trkpt lat="63.53872" lon="9.92587">
        <ele>115.026413</ele>
        <time>2020-07-15T12:59:52.931Z</time>
      </trkpt>
      <trkpt lat="63.53934" lon="9.92595">
        <ele>111.217706</ele>
        <time>2020-07-15T13:00:00.687Z</time>
      </trkpt>
      <trkpt lat="63.54005" lon="9.9258">
        <ele>106.611507</ele>
        <time>2020-07-15T13:00:08.889Z</time>
      </trkpt>
      <trkpt lat="63.54101" lon="9.92619">
        <ele>97.874056</ele>
        <time>2020-07-15T13:00:19.855Z</time>
      </trkpt>
      <trkpt lat="63.54115" lon="9.92621">
        <ele>96.26163</ele>
        <time>2020-07-15T13:00:21.284Z</time>
      </trkpt>
      <trkpt lat="63.54157" lon="9.92622">
        <ele>91.13341</ele>
        <time>2020-07-15T13:00:25.851Z</time>
      </trkpt>
      <trkpt lat="63.54222" lon="9.92627">
        <ele>83.310544</ele>
        <time>2020-07-15T13:00:32.710Z</time>
      </trkpt>
      <trkpt lat="63.54228" lon="9.92628">
        <ele>82.684949</ele>
        <time>2020-07-15T13:00:33.247Z</time>
      </trkpt>
      <trkpt lat="63.54267" lon="9.92631">
        <ele>76.237528</ele>
        <time>2020-07-15T13:00:37.324Z</time>
      </trkpt>
      <trkpt lat="63.54336" lon="9.9264">
        <ele>63.996728</ele>
        <time>2020-07-15T13:00:44.445Z</time>
      </trkpt>
      <trkpt lat="63.54354" lon="9.92641">
        <ele>60.881513</ele>
        <time>2020-07-15T13:00:46.235Z</time>
      </trkpt>
      <trkpt lat="63.54372" lon="9.9264">
        <ele>57.625086</ele>
        <time>2020-07-15T13:00:48.126Z</time>
      </trkpt>
      <trkpt lat="63.54429" lon="9.92632">
        <ele>47.766219</ele>
        <time>2020-07-15T13:00:53.974Z</time>
      </trkpt>
      <trkpt lat="63.54482" lon="9.92627">
        <ele>39.605041</ele>
        <time>2020-07-15T13:00:59.403Z</time>
      </trkpt>
      <trkpt lat="63.54546" lon="9.92616">
        <ele>29.748091</ele>
        <time>2020-07-15T13:01:06.047Z</time>
      </trkpt>
      <trkpt lat="63.54585" lon="9.9261">
        <ele>23.70557</ele>
        <time>2020-07-15T13:01:10.188Z</time>
      </trkpt>
      <trkpt lat="63.5459" lon="9.92609">
        <ele>22.919432</ele>
        <time>2020-07-15T13:01:10.729Z</time>
      </trkpt>
      <trkpt lat="63.54598" lon="9.92607">
        <ele>21.862862</ele>
        <time>2020-07-15T13:01:11.629Z</time>
      </trkpt>
      <trkpt lat="63.54622" lon="9.926">
        <ele>20.184778</ele>
        <time>2020-07-15T13:01:14.214Z</time>
      </trkpt>
      <trkpt lat="63.5465" lon="9.92594">
        <ele>18.2047</ele>
        <time>2020-07-15T13:01:17.432Z</time>
      </trkpt>
      <trkpt lat="63.54658" lon="9.92592">
        <ele>17.628625</ele>
        <time>2020-07-15T13:01:18.325Z</time>
      </trkpt>
      <trkpt lat="63.54671" lon="9.92589">
        <ele>16.731154</ele>
        <time>2020-07-15T13:01:19.796Z</time>
      </trkpt>
      <trkpt lat="63.54685" lon="9.92585">
        <ele>15.715025</ele>
        <time>2020-07-15T13:01:21.470Z</time>
      </trkpt>
      <trkpt lat="63.54695" lon="9.92583">
        <ele>14.999428</ele>
        <time>2020-07-15T13:01:22.594Z</time>
      </trkpt>
      <trkpt lat="63.54795" lon="9.92555">
        <ele>8.767099</ele>
        <time>2020-07-15T13:01:34.948Z</time>
      </trkpt>
      <trkpt lat="63.54819" lon="9.9255">
        <ele>8.070294</ele>
        <time>2020-07-15T13:01:38.067Z</time>
      </trkpt>
      <trkpt lat="63.54844" lon="9.92544">
        <ele>7.338072</ele>
        <time>2020-07-15T13:01:41.334Z</time>
      </trkpt>
      <trkpt lat="63.54857" lon="9.92542">
        <ele>6.945258</ele>
        <time>2020-07-15T13:01:43.184Z</time>
      </trkpt>
      <trkpt lat="63.54878" lon="9.92538">
        <ele>6.347342</ele>
        <time>2020-07-15T13:01:45.986Z</time>
      </trkpt>
      <trkpt lat="63.54887" lon="9.92536">
        <ele>6.085111</ele>
        <time>2020-07-15T13:01:47.191Z</time>
      </trkpt>
      <trkpt lat="63.54896" lon="9.92534">
        <ele>5.831321</ele>
        <time>2020-07-15T13:01:48.365Z</time>
      </trkpt>
      <trkpt lat="63.55023" lon="9.92508">
        <ele>3.526678</ele>
        <time>2020-07-15T13:02:06.607Z</time>
      </trkpt>
      <trkpt lat="63.55028" lon="9.92507">
        <ele>3.480883</ele>
        <time>2020-07-15T13:02:07.348Z</time>
      </trkpt>
      <trkpt lat="63.55036" lon="9.92506">
        <ele>3.412982</ele>
        <time>2020-07-15T13:02:08.507Z</time>
      </trkpt>
      <trkpt lat="63.55112" lon="9.92489">
        <ele>2.744209</ele>
        <time>2020-07-15T13:02:21.542Z</time>
      </trkpt>
      <trkpt lat="63.55125" lon="9.92485">
        <ele>2.626627</ele>
        <time>2020-07-15T13:02:23.966Z</time>
      </trkpt>
      <trkpt lat="63.55137" lon="9.92482">
        <ele>2.596755</ele>
        <time>2020-07-15T13:02:26.009Z</time>
      </trkpt>
      <trkpt lat="63.5514" lon="9.92481">
        <ele>2.631939</ele>
        <time>2020-07-15T13:02:26.776Z</time>
      </trkpt>
      <trkpt lat="63.5516" lon="9.92478">
        <ele>2.817193</ele>
        <time>2020-07-15T13:02:30.552Z</time>
      </trkpt>
      <trkpt lat="63.55174" lon="9.92474">
        <ele>2.940829</ele>
        <time>2020-07-15T13:02:33.043Z</time>
      </trkpt>
      <trkpt lat="63.55201" lon="9.9247">
        <ele>3.190863</ele>
        <time>2020-07-15T13:02:38.373Z</time>
      </trkpt>
      <trkpt lat="63.55212" lon="9.92467">
        <ele>3.297944</ele>
        <time>2020-07-15T13:02:40.868Z</time>
      </trkpt>
      <trkpt lat="63.55353" lon="9.92445">
        <ele>5.066883</ele>
        <time>2020-07-15T13:03:12.024Z</time>
      </trkpt>
      <trkpt lat="63.55456" lon="9.92416">
        <ele>7.162861</ele>
        <time>2020-07-15T13:03:37.060Z</time>
      </trkpt>
      <trkpt lat="63.55461" lon="9.92414">
        <ele>7.28239</ele>
        <time>2020-07-15T13:03:38.693Z</time>
      </trkpt>
      <trkpt lat="63.55469" lon="9.92413">
        <ele>7.445518</ele>
        <time>2020-07-15T13:03:40.959Z</time>
      </trkpt>
      <trkpt lat="63.55584" lon="9.9238">
        <ele>10.829641</ele>
        <time>2020-07-15T13:04:12.149Z</time>
      </trkpt>
      <trkpt lat="63.55589" lon="9.92379">
        <ele>10.981978</ele>
        <time>2020-07-15T13:04:13.834Z</time>
      </trkpt>
      <trkpt lat="63.55633" lon="9.92363">
        <ele>12.401871</ele>
        <time>2020-07-15T13:04:26.961Z</time>
      </trkpt>
      <trkpt lat="63.55671" lon="9.9235">
        <ele>13.621653</ele>
        <time>2020-07-15T13:04:37.624Z</time>
      </trkpt>
      <trkpt lat="63.55704" lon="9.92337">
        <ele>14.735017</ele>
        <time>2020-07-15T13:04:47.249Z</time>
      </trkpt>
      <trkpt lat="63.55709" lon="9.92336">
        <ele>14.893559</ele>
        <time>2020-07-15T13:04:48.627Z</time>
      </trkpt>
      <trkpt lat="63.55721" lon="9.92331">
        <ele>15.307623</ele>
        <time>2020-07-15T13:04:51.951Z</time>
      </trkpt>
      <trkpt lat="63.55759" lon="9.92319">
        <ele>16.600296</ele>
        <time>2020-07-15T13:05:03.345Z</time>
      </trkpt>
      <trkpt lat="63.55835" lon="9.92298">
        <ele>19.176914</ele>
        <time>2020-07-15T13:05:25.041Z</time>
      </trkpt>
      <trkpt lat="63.55849" lon="9.92293">
        <ele>19.660361</ele>
        <time>2020-07-15T13:05:29.391Z</time>
      </trkpt>
      <trkpt lat="63.55887" lon="9.92283">
        <ele>20.905043</ele>
        <time>2020-07-15T13:05:39.855Z</time>
      </trkpt>
      <trkpt lat="63.55925" lon="9.92269">
        <ele>22.171226</ele>
        <time>2020-07-15T13:05:50.595Z</time>
      </trkpt>
      <trkpt lat="63.55936" lon="9.92266">
        <ele>22.520822</ele>
        <time>2020-07-15T13:05:53.587Z</time>
      </trkpt>
      <trkpt lat="63.56004" lon="9.9224">
        <ele>24.780447</ele>
        <time>2020-07-15T13:06:13.690Z</time>
      </trkpt>
      <trkpt lat="63.56048" lon="9.9222">
        <ele>26.320737</ele>
        <time>2020-07-15T13:06:26.034Z</time>
      </trkpt>
      <trkpt lat="63.56061" lon="9.92215">
        <ele>26.783457</ele>
        <time>2020-07-15T13:06:29.806Z</time>
      </trkpt>
      <trkpt lat="63.56095" lon="9.92204">
        <ele>28.007508</ele>
        <time>2020-07-15T13:06:40.254Z</time>
      </trkpt>
      <trkpt lat="63.56206" lon="9.92166">
        <ele>31.879588</ele>
        <time>2020-07-15T13:07:12.951Z</time>
      </trkpt>
      <trkpt lat="63.56212" lon="9.92164">
        <ele>31.979304</ele>
        <time>2020-07-15T13:07:15.667Z</time>
      </trkpt>
      <trkpt lat="63.56256" lon="9.92149">
        <ele>32.678542</ele>
        <time>2020-07-15T13:07:27.970Z</time>
      </trkpt>
      <trkpt lat="63.56346" lon="9.92115">
        <ele>34.105451</ele>
        <time>2020-07-15T13:07:48.265Z</time>
      </trkpt>
      <trkpt lat="63.56353" lon="9.92113">
        <ele>34.213218</ele>
        <time>2020-07-15T13:07:50.441Z</time>
      </trkpt>
      <trkpt lat="63.56356" lon="9.92118">
        <ele>34.271854</ele>
        <time>2020-07-15T13:07:51.088Z</time>
      </trkpt>
      <trkpt lat="63.56387" lon="9.92215">
        <ele>33.762533</ele>
        <time>2020-07-15T13:07:59.293Z</time>
      </trkpt>
      <trkpt lat="63.56389" lon="9.92222">
        <ele>33.655921</ele>
        <time>2020-07-15T13:07:59.816Z</time>
      </trkpt>
      <trkpt lat="63.56399" lon="9.92256">
        <ele>33.121778</ele>
        <time>2020-07-15T13:08:02.421Z</time>
      </trkpt>
      <trkpt lat="63.56431" lon="9.92395">
        <ele>31.093629</ele>
        <time>2020-07-15T13:08:11.581Z</time>
      </trkpt>
      <trkpt lat="63.56441" lon="9.92427">
        <ele>30.590571</ele>
        <time>2020-07-15T13:08:13.731Z</time>
      </trkpt>
      <trkpt lat="63.56446" lon="9.92441">
        <ele>30.364881</ele>
        <time>2020-07-15T13:08:14.697Z</time>
      </trkpt>
      <trkpt lat="63.56453" lon="9.92462">
        <ele>30.018302</ele>
        <time>2020-07-15T13:08:16.149Z</time>
      </trkpt>
      <trkpt lat="63.56461" lon="9.9248">
        <ele>29.689171</ele>
        <time>2020-07-15T13:08:17.535Z</time>
      </trkpt>
      <trkpt lat="63.56471" lon="9.925">
        <ele>29.236149</ele>
        <time>2020-07-15T13:08:19.180Z</time>
      </trkpt>
      <trkpt lat="63.56475" lon="9.92506">
        <ele>29.032487</ele>
        <time>2020-07-15T13:08:19.705Z</time>
      </trkpt>
      <trkpt lat="63.565" lon="9.92561">
        <ele>27.430102</ele>
        <time>2020-07-15T13:08:23.966Z</time>
      </trkpt>
      <trkpt lat="63.5655" lon="9.92658">
        <ele>24.395954</ele>
        <time>2020-07-15T13:08:32.003Z</time>
      </trkpt>
      <trkpt lat="63.56673" lon="9.9285">
        <ele>17.979416</ele>
        <time>2020-07-15T13:08:50.811Z</time>
      </trkpt>
      <trkpt lat="63.56771" lon="9.93119">
        <ele>12.571145</ele>
        <time>2020-07-15T13:09:10.415Z</time>
      </trkpt>
      <trkpt lat="63.56785" lon="9.93146">
        <ele>12.085873</ele>
        <time>2020-07-15T13:09:12.808Z</time>
      </trkpt>
      <trkpt lat="63.56796" lon="9.93155">
        <ele>11.790031</ele>
        <time>2020-07-15T13:09:14.347Z</time>
      </trkpt>
      <trkpt lat="63.56821" lon="9.93169">
        <ele>11.107075</ele>
        <time>2020-07-15T13:09:17.848Z</time>
      </trkpt>
      <trkpt lat="63.56919" lon="9.93206">
        <ele>9.2426</ele>
        <time>2020-07-15T13:09:32.127Z</time>
      </trkpt>
      <trkpt lat="63.56982" lon="9.93231">
        <ele>9.179346</ele>
        <time>2020-07-15T13:09:43.363Z</time>
      </trkpt>
      <trkpt lat="63.57007" lon="9.9324">
        <ele>9.154763</ele>
        <time>2020-07-15T13:09:48.157Z</time>
      </trkpt>
      <trkpt lat="63.5702" lon="9.93245">
        <ele>9.142475</ele>
        <time>2020-07-15T13:09:50.585Z</time>
      </trkpt>
      <trkpt lat="63.57113" lon="9.93282">
        <ele>9.315279</ele>
        <time>2020-07-15T13:10:10.125Z</time>
      </trkpt>
      <trkpt lat="63.57297" lon="9.93353">
        <ele>9.373723</ele>
        <time>2020-07-15T13:10:45.747Z</time>
      </trkpt>
      <trkpt lat="63.57359" lon="9.93377">
        <ele>8.693917</ele>
        <time>2020-07-15T13:10:55.287Z</time>
      </trkpt>
      <trkpt lat="63.57423" lon="9.93403">
        <ele>7.972072</ele>
        <time>2020-07-15T13:11:04.413Z</time>
      </trkpt>
      <trkpt lat="63.57622" lon="9.9348">
        <ele>3.30457</ele>
        <time>2020-07-15T13:11:31.719Z</time>
      </trkpt>
      <trkpt lat="63.57699" lon="9.9351">
        <ele>2.478375</ele>
        <time>2020-07-15T13:11:43.228Z</time>
      </trkpt>
      <trkpt lat="63.57775" lon="9.93539">
        <ele>1.669215</ele>
        <time>2020-07-15T13:11:55.945Z</time>
      </trkpt>
      <trkpt lat="63.57937" lon="9.93601">
        <ele>3.382167</ele>
        <time>2020-07-15T13:12:31.441Z</time>
      </trkpt>
      <trkpt lat="63.57947" lon="9.93605">
        <ele>3.488189</ele>
        <time>2020-07-15T13:12:33.945Z</time>
      </trkpt>
      <trkpt lat="63.57979" lon="9.93616">
        <ele>3.850515</ele>
        <time>2020-07-15T13:12:41.403Z</time>
      </trkpt>
      <trkpt lat="63.57989" lon="9.9362">
        <ele>3.971132</ele>
        <time>2020-07-15T13:12:43.878Z</time>
      </trkpt>
      <trkpt lat="63.57994" lon="9.93626">
        <ele>4.028937</ele>
        <time>2020-07-15T13:12:45.088Z</time>
      </trkpt>
      <trkpt lat="63.58006" lon="9.93634">
        <ele>4.179991</ele>
        <time>2020-07-15T13:12:47.899Z</time>
      </trkpt>
      <trkpt lat="63.58012" lon="9.9364">
        <ele>4.248061</ele>
        <time>2020-07-15T13:12:49.325Z</time>
      </trkpt>
      <trkpt lat="63.58013" lon="9.93645">
        <ele>4.278734</ele>
        <time>2020-07-15T13:12:49.964Z</time>
      </trkpt>
      <trkpt lat="63.58017" lon="9.93652">
        <ele>4.338508</ele>
        <time>2020-07-15T13:12:51.121Z</time>
      </trkpt>
      <trkpt lat="63.58019" lon="9.93653">
        <ele>4.354058</ele>
        <time>2020-07-15T13:12:51.447Z</time>
      </trkpt>
      <trkpt lat="63.58021" lon="9.93654">
        <ele>4.383993</ele>
        <time>2020-07-15T13:12:52.075Z</time>
      </trkpt>
      <trkpt lat="63.58027" lon="9.93649">
        <ele>4.459718</ele>
        <time>2020-07-15T13:12:53.583Z</time>
      </trkpt>
      <trkpt lat="63.58029" lon="9.93645">
        <ele>4.490183</ele>
        <time>2020-07-15T13:12:54.163Z</time>
      </trkpt>
      <trkpt lat="63.5803" lon="9.93642">
        <ele>4.504779</ele>
        <time>2020-07-15T13:12:54.430Z</time>
      </trkpt>
      <trkpt lat="63.58032" lon="9.93634">
        <ele>4.550346</ele>
        <time>2020-07-15T13:12:55.237Z</time>
      </trkpt>
      <trkpt lat="63.58032" lon="9.93626">
        <ele>4.591038</ele>
        <time>2020-07-15T13:12:55.964Z</time>
      </trkpt>
      <trkpt lat="63.58033" lon="9.93618">
        <ele>4.636604</ele>
        <time>2020-07-15T13:12:56.894Z</time>
      </trkpt>
      <trkpt lat="63.58037" lon="9.93603">
        <ele>4.723078</ele>
        <time>2020-07-15T13:12:58.626Z</time>
      </trkpt>
      <trkpt lat="63.58041" lon="9.9361">
        <ele>4.780774</ele>
        <time>2020-07-15T13:12:59.764Z</time>
      </trkpt>
      <trkpt lat="63.58044" lon="9.9361">
        <ele>4.815069</ele>
        <time>2020-07-15T13:13:00.464Z</time>
      </trkpt>
      <trkpt lat="63.58042" lon="9.9362">
        <ele>4.867782</ele>
        <time>2020-07-15T13:13:01.484Z</time>
      </trkpt>
      <trkpt lat="63.58039" lon="9.93671">
        <ele>5.129156</ele>
        <time>2020-07-15T13:13:06.381Z</time>
      </trkpt>
      <trkpt lat="63.58044" lon="9.93721">
        <ele>5.39035</ele>
        <time>2020-07-15T13:13:11.197Z</time>
      </trkpt>
      <trkpt lat="63.58142" lon="9.94296">
        <ele>6.022233</ele>
        <time>2020-07-15T13:14:01.369Z</time>
      </trkpt>
      <trkpt lat="63.58259" lon="9.94981">
        <ele>6.641329</ele>
        <time>2020-07-15T13:14:59.114Z</time>
      </trkpt>
      <trkpt lat="63.58263" lon="9.95008">
        <ele>6.809997</ele>
        <time>2020-07-15T13:15:01.779Z</time>
      </trkpt>
      <trkpt lat="63.58264" lon="9.95014">
        <ele>6.846312</ele>
        <time>2020-07-15T13:15:02.325Z</time>
      </trkpt>
      <trkpt lat="63.58261" lon="9.95017">
        <ele>6.88975</ele>
        <time>2020-07-15T13:15:02.999Z</time>
      </trkpt>
      <trkpt lat="63.58258" lon="9.95019">
        <ele>6.933242</ele>
        <time>2020-07-15T13:15:03.672Z</time>
      </trkpt>
      <trkpt lat="63.58276" lon="9.95123">
        <ele>7.601033</ele>
        <time>2020-07-15T13:15:15.015Z</time>
      </trkpt>
      <trkpt lat="63.58284" lon="9.95175">
        <ele>7.936024</ele>
        <time>2020-07-15T13:15:20.904Z</time>
      </trkpt>
      <trkpt lat="63.5831" lon="9.95321">
        <ele>9.220722</ele>
        <time>2020-07-15T13:15:38.636Z</time>
      </trkpt>
      <trkpt lat="63.58341" lon="9.95503">
        <ele>11.501229</ele>
        <time>2020-07-15T13:16:02.017Z</time>
      </trkpt>
      <trkpt lat="63.58361" lon="9.95609">
        <ele>12.846307</ele>
        <time>2020-07-15T13:16:15.481Z</time>
      </trkpt>
      <trkpt lat="63.58376" lon="9.95683">
        <ele>13.74697</ele>
        <time>2020-07-15T13:16:24.948Z</time>
      </trkpt>
      <trkpt lat="63.58396" lon="9.95778">
        <ele>14.865901</ele>
        <time>2020-07-15T13:16:37.073Z</time>
      </trkpt>
      <trkpt lat="63.58411" lon="9.95845">
        <ele>15.648688</ele>
        <time>2020-07-15T13:16:45.493Z</time>
      </trkpt>
      <trkpt lat="63.58412" lon="9.95856">
        <ele>15.765635</ele>
        <time>2020-07-15T13:16:46.756Z</time>
      </trkpt>
      <trkpt lat="63.58418" lon="9.959">
        <ele>16.259447</ele>
        <time>2020-07-15T13:16:52.054Z</time>
      </trkpt>
      <trkpt lat="63.58416" lon="9.95905">
        <ele>16.325302</ele>
        <time>2020-07-15T13:16:52.744Z</time>
      </trkpt>
      <trkpt lat="63.58415" lon="9.95914">
        <ele>16.42835</ele>
        <time>2020-07-15T13:16:53.809Z</time>
      </trkpt>
      <trkpt lat="63.58415" lon="9.95921">
        <ele>16.494102</ele>
        <time>2020-07-15T13:16:54.447Z</time>
      </trkpt>
      <trkpt lat="63.58415" lon="9.95924">
        <ele>16.530449</ele>
        <time>2020-07-15T13:16:54.870Z</time>
      </trkpt>
      <trkpt lat="63.58418" lon="9.95935">
        <ele>16.664335</ele>
        <time>2020-07-15T13:16:56.237Z</time>
      </trkpt>
      <trkpt lat="63.5842" lon="9.95939">
        <ele>16.731081</ele>
        <time>2020-07-15T13:16:56.935Z</time>
      </trkpt>
      <trkpt lat="63.58421" lon="9.95941">
        <ele>16.764319</ele>
        <time>2020-07-15T13:16:57.332Z</time>
      </trkpt>
      <trkpt lat="63.58424" lon="9.95943">
        <ele>16.833994</ele>
        <time>2020-07-15T13:16:58.007Z</time>
      </trkpt>
      <trkpt lat="63.58426" lon="9.95943">
        <ele>16.898453</ele>
        <time>2020-07-15T13:16:58.706Z</time>
      </trkpt>
      <trkpt lat="63.58431" lon="9.95956">
        <ele>17.072697</ele>
        <time>2020-07-15T13:17:00.571Z</time>
      </trkpt>
      <trkpt lat="63.58436" lon="9.95973">
        <ele>17.294075</ele>
        <time>2020-07-15T13:17:02.853Z</time>
      </trkpt>
      <trkpt lat="63.58442" lon="9.9599">
        <ele>17.520912</ele>
        <time>2020-07-15T13:17:05.144Z</time>
      </trkpt>
      <trkpt lat="63.58463" lon="9.96089">
        <ele>18.593241</ele>
        <time>2020-07-15T13:17:17.160Z</time>
      </trkpt>
      <trkpt lat="63.58468" lon="9.96109">
        <ele>18.812315</ele>
        <time>2020-07-15T13:17:19.688Z</time>
      </trkpt>
      <trkpt lat="63.58518" lon="9.9634">
        <ele>21.329977</ele>
        <time>2020-07-15T13:17:48.340Z</time>
      </trkpt>
      <trkpt lat="63.58528" lon="9.96385">
        <ele>21.842388</ele>
        <time>2020-07-15T13:17:53.791Z</time>
      </trkpt>
      <trkpt lat="63.58539" lon="9.96441">
        <ele>22.498289</ele>
        <time>2020-07-15T13:18:00.526Z</time>
      </trkpt>
      <trkpt lat="63.58548" lon="9.96482">
        <ele>22.97459</ele>
        <time>2020-07-15T13:18:05.370Z</time>
      </trkpt>
      <trkpt lat="63.5855" lon="9.96491">
        <ele>23.086309</ele>
        <time>2020-07-15T13:18:06.507Z</time>
      </trkpt>
      <trkpt lat="63.58561" lon="9.96543">
        <ele>23.687251</ele>
        <time>2020-07-15T13:18:12.839Z</time>
      </trkpt>
      <trkpt lat="63.58579" lon="9.96628">
        <ele>24.679519</ele>
        <time>2020-07-15T13:18:23.323Z</time>
      </trkpt>
      <trkpt lat="63.58616" lon="9.96795">
        <ele>26.767849</ele>
        <time>2020-07-15T13:18:46.071Z</time>
      </trkpt>
      <trkpt lat="63.58637" lon="9.96892">
        <ele>28.049351</ele>
        <time>2020-07-15T13:18:59.135Z</time>
      </trkpt>
      <trkpt lat="63.58658" lon="9.96989">
        <ele>29.334065</ele>
        <time>2020-07-15T13:19:11.939Z</time>
      </trkpt>
      <trkpt lat="63.58661" lon="9.96986">
        <ele>29.418707</ele>
        <time>2020-07-15T13:19:12.747Z</time>
      </trkpt>
      <trkpt lat="63.58661" lon="9.96974">
        <ele>29.558311</ele>
        <time>2020-07-15T13:19:14.059Z</time>
      </trkpt>
      <trkpt lat="63.58664" lon="9.96983">
        <ele>29.696463</ele>
        <time>2020-07-15T13:19:16.167Z</time>
      </trkpt>
      <trkpt lat="63.58893" lon="9.98039">
        <ele>38.829928</ele>
        <time>2020-07-15T13:21:19.774Z</time>
      </trkpt>
      <trkpt lat="63.58915" lon="9.98109">
        <ele>39.297072</ele>
        <time>2020-07-15T13:21:26.751Z</time>
      </trkpt>
      <trkpt lat="63.58945" lon="9.98175">
        <ele>39.083277</ele>
        <time>2020-07-15T13:21:33.999Z</time>
      </trkpt>
      <trkpt lat="63.58981" lon="9.98242">
        <ele>38.549776</ele>
        <time>2020-07-15T13:21:41.430Z</time>
      </trkpt>
      <trkpt lat="63.58996" lon="9.98267">
        <ele>38.339043</ele>
        <time>2020-07-15T13:21:44.542Z</time>
      </trkpt>
      <trkpt lat="63.59053" lon="9.9835">
        <ele>37.567352</ele>
        <time>2020-07-15T13:21:54.360Z</time>
      </trkpt>
      <trkpt lat="63.5914" lon="9.98451">
        <ele>33.656868</ele>
        <time>2020-07-15T13:22:07.565Z</time>
      </trkpt>
      <trkpt lat="63.59249" lon="9.98573">
        <ele>27.680117</ele>
        <time>2020-07-15T13:22:21.791Z</time>
      </trkpt>
      <trkpt lat="63.59317" lon="9.98651">
        <ele>22.532754</ele>
        <time>2020-07-15T13:22:30.572Z</time>
      </trkpt>
      <trkpt lat="63.59408" lon="9.98769">
        <ele>16.209518</ele>
        <time>2020-07-15T13:22:42.655Z</time>
      </trkpt>
      <trkpt lat="63.59481" lon="9.98893">
        <ele>12.54762</ele>
        <time>2020-07-15T13:22:54.107Z</time>
      </trkpt>
      <trkpt lat="63.59493" lon="9.98916">
        <ele>11.906749</ele>
        <time>2020-07-15T13:22:56.175Z</time>
      </trkpt>
      <trkpt lat="63.59507" lon="9.98943">
        <ele>11.160179</ele>
        <time>2020-07-15T13:22:58.774Z</time>
      </trkpt>
      <trkpt lat="63.59582" lon="9.99114">
        <ele>8.923617</ele>
        <time>2020-07-15T13:23:13.995Z</time>
      </trkpt>
      <trkpt lat="63.59606" lon="9.99176">
        <ele>8.410172</ele>
        <time>2020-07-15T13:23:19.510Z</time>
      </trkpt>
      <trkpt lat="63.59603" lon="9.99182">
        <ele>8.35149</ele>
        <time>2020-07-15T13:23:20.177Z</time>
      </trkpt>
      <trkpt lat="63.59601" lon="9.99186">
        <ele>8.310843</ele>
        <time>2020-07-15T13:23:20.613Z</time>
      </trkpt>
      <trkpt lat="63.59658" lon="9.99333">
        <ele>7.394705</ele>
        <time>2020-07-15T13:23:34.349Z</time>
      </trkpt>
      <trkpt lat="63.59678" lon="9.99385">
        <ele>7.294001</ele>
        <time>2020-07-15T13:23:39.164Z</time>
      </trkpt>
      <trkpt lat="63.59712" lon="9.99473">
        <ele>7.119717</ele>
        <time>2020-07-15T13:23:47.728Z</time>
      </trkpt>
      <trkpt lat="63.59754" lon="9.99586">
        <ele>6.897661</ele>
        <time>2020-07-15T13:23:59.411Z</time>
      </trkpt>
      <trkpt lat="63.59782" lon="9.99657">
        <ele>7.472956</ele>
        <time>2020-07-15T13:24:07.547Z</time>
      </trkpt>
      <trkpt lat="63.5983" lon="9.99775">
        <ele>8.538818</ele>
        <time>2020-07-15T13:24:23.550Z</time>
      </trkpt>
      <trkpt lat="63.59873" lon="9.99858">
        <ele>9.387855</ele>
        <time>2020-07-15T13:24:37.703Z</time>
      </trkpt>
      <trkpt lat="63.59907" lon="9.99912">
        <ele>10.303825</ele>
        <time>2020-07-15T13:24:48.197Z</time>
      </trkpt>
      <trkpt lat="63.5992" lon="9.99931">
        <ele>10.689067</ele>
        <time>2020-07-15T13:24:52.352Z</time>
      </trkpt>
      <trkpt lat="63.59939" lon="9.9996">
        <ele>11.288052</ele>
        <time>2020-07-15T13:24:58.602Z</time>
      </trkpt>
      <trkpt lat="63.59975" lon="10.00013">
        <ele>12.37294</ele>
        <time>2020-07-15T13:25:10.124Z</time>
      </trkpt>
      <trkpt lat="63.59979" lon="10.00019">
        <ele>12.49334</ele>
        <time>2020-07-15T13:25:11.549Z</time>
      </trkpt>
      <trkpt lat="63.59981" lon="10.0003">
        <ele>12.631089</ele>
        <time>2020-07-15T13:25:12.433Z</time>
      </trkpt>
      <trkpt lat="63.59986" lon="10.00048">
        <ele>12.864113</ele>
        <time>2020-07-15T13:25:14.851Z</time>
      </trkpt>
      <trkpt lat="63.59986" lon="10.00084">
        <ele>13.269054</ele>
        <time>2020-07-15T13:25:19.572Z</time>
      </trkpt>
      <trkpt lat="63.59981" lon="10.0011">
        <ele>13.587717</ele>
        <time>2020-07-15T13:25:22.347Z</time>
      </trkpt>
      <trkpt lat="63.59996" lon="10.00098">
        <ele>14.00996</ele>
        <time>2020-07-15T13:25:27.186Z</time>
      </trkpt>
      <trkpt lat="63.60019" lon="10.0009">
        <ele>14.498263</ele>
        <time>2020-07-15T13:25:32.449Z</time>
      </trkpt>
      <trkpt lat="63.60033" lon="10.00096">
        <ele>14.790534</ele>
        <time>2020-07-15T13:25:36.535Z</time>
      </trkpt>
      <trkpt lat="63.60037" lon="10.001">
        <ele>14.877935</ele>
        <time>2020-07-15T13:25:37.608Z</time>
      </trkpt>
      <trkpt lat="63.60093" lon="10.00186">
        <ele>16.269017</ele>
        <time>2020-07-15T13:25:53.769Z</time>
      </trkpt>
      <trkpt lat="63.60128" lon="10.00255">
        <ele>17.21492</ele>
        <time>2020-07-15T13:26:04.569Z</time>
      </trkpt>
      <trkpt lat="63.60238" lon="10.00533">
        <ele>20.916052</ele>
        <time>2020-07-15T13:26:44.732Z</time>
      </trkpt>
      <trkpt lat="63.60276" lon="10.00635">
        <ele>22.564018</ele>
        <time>2020-07-15T13:27:00.591Z</time>
      </trkpt>
      <trkpt lat="63.60287" lon="10.0066">
        <ele>23.187286</ele>
        <time>2020-07-15T13:27:05.312Z</time>
      </trkpt>
      <trkpt lat="63.60344" lon="10.00807">
        <ele>26.737775</ele>
        <time>2020-07-15T13:27:31.745Z</time>
      </trkpt>
      <trkpt lat="63.60358" lon="10.00843">
        <ele>27.607927</ele>
        <time>2020-07-15T13:27:39.065Z</time>
      </trkpt>
      <trkpt lat="63.60432" lon="10.01038">
        <ele>33.414675</ele>
        <time>2020-07-15T13:28:17.103Z</time>
      </trkpt>
      <trkpt lat="63.60564" lon="10.01375">
        <ele>44.897466</ele>
        <time>2020-07-15T13:29:32.422Z</time>
      </trkpt>
      <trkpt lat="63.60578" lon="10.01409">
        <ele>46.128248</ele>
        <time>2020-07-15T13:29:40.305Z</time>
      </trkpt>
      <trkpt lat="63.60592" lon="10.0144">
        <ele>47.284492</ele>
        <time>2020-07-15T13:29:47.765Z</time>
      </trkpt>
      <trkpt lat="63.60728" lon="10.017">
        <ele>55.698377</ele>
        <time>2020-07-15T13:30:48.716Z</time>
      </trkpt>
      <trkpt lat="63.60773" lon="10.01785">
        <ele>57.869583</ele>
        <time>2020-07-15T13:31:04.002Z</time>
      </trkpt>
      <trkpt lat="63.60788" lon="10.01813">
        <ele>58.076823</ele>
        <time>2020-07-15T13:31:08.735Z</time>
      </trkpt>
      <trkpt lat="63.60807" lon="10.0185">
        <ele>58.342434</ele>
        <time>2020-07-15T13:31:14.712Z</time>
      </trkpt>
      <trkpt lat="63.60812" lon="10.01858">
        <ele>58.403154</ele>
        <time>2020-07-15T13:31:15.987Z</time>
      </trkpt>
      <trkpt lat="63.60827" lon="10.01885">
        <ele>58.605659</ele>
        <time>2020-07-15T13:31:20.381Z</time>
      </trkpt>
      <trkpt lat="63.60864" lon="10.01953">
        <ele>59.102778</ele>
        <time>2020-07-15T13:31:30.132Z</time>
      </trkpt>
      <trkpt lat="63.60867" lon="10.01959">
        <ele>59.143786</ele>
        <time>2020-07-15T13:31:30.844Z</time>
      </trkpt>
      <trkpt lat="63.60957" lon="10.02127">
        <ele>58.930141</ele>
        <time>2020-07-15T13:31:50.427Z</time>
      </trkpt>
      <trkpt lat="63.60985" lon="10.02179">
        <ele>58.566194</ele>
        <time>2020-07-15T13:31:55.989Z</time>
      </trkpt>
      <trkpt lat="63.60993" lon="10.02192">
        <ele>58.469535</ele>
        <time>2020-07-15T13:31:57.471Z</time>
      </trkpt>
      <trkpt lat="63.61027" lon="10.02254">
        <ele>58.026196</ele>
        <time>2020-07-15T13:32:04.106Z</time>
      </trkpt>
      <trkpt lat="63.61032" lon="10.02263">
        <ele>57.966332</ele>
        <time>2020-07-15T13:32:05.005Z</time>
      </trkpt>
      <trkpt lat="63.61037" lon="10.02274">
        <ele>57.891396</ele>
        <time>2020-07-15T13:32:06.027Z</time>
      </trkpt>
      <trkpt lat="63.61223" lon="10.02618">
        <ele>52.602622</ele>
        <time>2020-07-15T13:32:39.667Z</time>
      </trkpt>
      <trkpt lat="63.61274" lon="10.02713">
        <ele>50.849613</ele>
        <time>2020-07-15T13:32:48.470Z</time>
      </trkpt>
      <trkpt lat="63.61304" lon="10.02768">
        <ele>49.817894</ele>
        <time>2020-07-15T13:32:53.599Z</time>
      </trkpt>
      <trkpt lat="63.61507" lon="10.03143">
        <ele>42.270855</ele>
        <time>2020-07-15T13:33:28.373Z</time>
      </trkpt>
      <trkpt lat="63.61627" lon="10.03347">
        <ele>38.05244</ele>
        <time>2020-07-15T13:33:48.839Z</time>
      </trkpt>
      <trkpt lat="63.6163" lon="10.03354">
        <ele>37.911152</ele>
        <time>2020-07-15T13:33:49.391Z</time>
      </trkpt>
      <trkpt lat="63.61636" lon="10.03366">
        <ele>37.648129</ele>
        <time>2020-07-15T13:33:50.508Z</time>
      </trkpt>
      <trkpt lat="63.6171" lon="10.03489">
        <ele>34.769371</ele>
        <time>2020-07-15T13:34:02.669Z</time>
      </trkpt>
      <trkpt lat="63.61716" lon="10.035">
        <ele>34.510856</ele>
        <time>2020-07-15T13:34:03.678Z</time>
      </trkpt>
      <trkpt lat="63.6174" lon="10.0354">
        <ele>33.570284</ele>
        <time>2020-07-15T13:34:07.582Z</time>
      </trkpt>
      <trkpt lat="63.62055" lon="10.04059">
        <ele>16.41653</ele>
        <time>2020-07-15T13:34:55.701Z</time>
      </trkpt>
      <trkpt lat="63.62154" lon="10.04125">
        <ele>12.726795</ele>
        <time>2020-07-15T13:35:08.637Z</time>
      </trkpt>
      <trkpt lat="63.62179" lon="10.04141">
        <ele>11.80251</ele>
        <time>2020-07-15T13:35:12.040Z</time>
      </trkpt>
      <trkpt lat="63.62196" lon="10.04152">
        <ele>11.147542</ele>
        <time>2020-07-15T13:35:14.511Z</time>
      </trkpt>
      <trkpt lat="63.62235" lon="10.04185">
        <ele>10.881772</ele>
        <time>2020-07-15T13:35:20.248Z</time>
      </trkpt>
      <trkpt lat="63.62251" lon="10.04202">
        <ele>10.875786</ele>
        <time>2020-07-15T13:35:23.043Z</time>
      </trkpt>
      <trkpt lat="63.62295" lon="10.0426">
        <ele>10.859283</ele>
        <time>2020-07-15T13:35:31.528Z</time>
      </trkpt>
      <trkpt lat="63.62299" lon="10.04268">
        <ele>10.857395</ele>
        <time>2020-07-15T13:35:32.669Z</time>
      </trkpt>
      <trkpt lat="63.62316" lon="10.04297">
        <ele>10.850615</ele>
        <time>2020-07-15T13:35:37.098Z</time>
      </trkpt>
      <trkpt lat="63.62325" lon="10.04316">
        <ele>10.846379</ele>
        <time>2020-07-15T13:35:39.898Z</time>
      </trkpt>
      <trkpt lat="63.62359" lon="10.04385">
        <ele>11.010435</ele>
        <time>2020-07-15T13:35:50.863Z</time>
      </trkpt>
      <trkpt lat="63.6242" lon="10.04516">
        <ele>12.950988</ele>
        <time>2020-07-15T13:36:12.893Z</time>
      </trkpt>
      <trkpt lat="63.62636" lon="10.04967">
        <ele>18.718324</ele>
        <time>2020-07-15T13:37:26.788Z</time>
      </trkpt>
      <trkpt lat="63.62656" lon="10.0501">
        <ele>18.610881</ele>
        <time>2020-07-15T13:37:32.526Z</time>
      </trkpt>
      <trkpt lat="63.62658" lon="10.05015">
        <ele>18.598122</ele>
        <time>2020-07-15T13:37:33.175Z</time>
      </trkpt>
      <trkpt lat="63.62664" lon="10.05028">
        <ele>18.565204</ele>
        <time>2020-07-15T13:37:34.609Z</time>
      </trkpt>
      <trkpt lat="63.63014" lon="10.05902">
        <ele>15.861964</ele>
        <time>2020-07-15T13:38:57.086Z</time>
      </trkpt>
      <trkpt lat="63.63025" lon="10.05932">
        <ele>15.839916</ele>
        <time>2020-07-15T13:38:59.979Z</time>
      </trkpt>
      <trkpt lat="63.63035" lon="10.05961">
        <ele>15.818654</ele>
        <time>2020-07-15T13:39:02.659Z</time>
      </trkpt>
      <trkpt lat="63.63067" lon="10.06069">
        <ele>15.74475</ele>
        <time>2020-07-15T13:39:12.695Z</time>
      </trkpt>
      <trkpt lat="63.63185" lon="10.06568">
        <ele>17.9864</ele>
        <time>2020-07-15T13:40:05.811Z</time>
      </trkpt>
      <trkpt lat="63.63194" lon="10.06602">
        <ele>18.232728</ele>
        <time>2020-07-15T13:40:09.796Z</time>
      </trkpt>
      <trkpt lat="63.63198" lon="10.06617">
        <ele>18.338851</ele>
        <time>2020-07-15T13:40:11.825Z</time>
      </trkpt>
      <trkpt lat="63.63206" lon="10.06643">
        <ele>18.531219</ele>
        <time>2020-07-15T13:40:14.915Z</time>
      </trkpt>
      <trkpt lat="63.63222" lon="10.06696">
        <ele>18.927045</ele>
        <time>2020-07-15T13:40:22.074Z</time>
      </trkpt>
      <trkpt lat="63.63237" lon="10.0674">
        <ele>19.260041</ele>
        <time>2020-07-15T13:40:27.679Z</time>
      </trkpt>
      <trkpt lat="63.63279" lon="10.06863">
        <ele>20.056887</ele>
        <time>2020-07-15T13:40:42.603Z</time>
      </trkpt>
      <trkpt lat="63.63301" lon="10.06928">
        <ele>20.107633</ele>
        <time>2020-07-15T13:40:49.744Z</time>
      </trkpt>
      <trkpt lat="63.63316" lon="10.06977">
        <ele>20.14562</ele>
        <time>2020-07-15T13:40:54.771Z</time>
      </trkpt>
      <trkpt lat="63.63335" lon="10.07043">
        <ele>20.194936</ele>
        <time>2020-07-15T13:41:00.676Z</time>
      </trkpt>
      <trkpt lat="63.63394" lon="10.07314">
        <ele>20.385008</ele>
        <time>2020-07-15T13:41:23.307Z</time>
      </trkpt>
      <trkpt lat="63.63404" lon="10.07364">
        <ele>20.419556</ele>
        <time>2020-07-15T13:41:27.441Z</time>
      </trkpt>
      <trkpt lat="63.63419" lon="10.07438">
        <ele>20.47123</ele>
        <time>2020-07-15T13:41:34.332Z</time>
      </trkpt>
      <trkpt lat="63.63422" lon="10.07453">
        <ele>20.481703</ele>
        <time>2020-07-15T13:41:35.769Z</time>
      </trkpt>
      <trkpt lat="63.63425" lon="10.07466">
        <ele>20.490845</ele>
        <time>2020-07-15T13:41:37.199Z</time>
      </trkpt>
      <trkpt lat="63.63462" lon="10.07642">
        <ele>20.777054</ele>
        <time>2020-07-15T13:41:54.445Z</time>
      </trkpt>
      <trkpt lat="63.63468" lon="10.07669">
        <ele>20.843963</ele>
        <time>2020-07-15T13:41:57.283Z</time>
      </trkpt>
      <trkpt lat="63.6348" lon="10.07716">
        <ele>20.962793</ele>
        <time>2020-07-15T13:42:02.184Z</time>
      </trkpt>
      <trkpt lat="63.63492" lon="10.07763">
        <ele>21.084969</ele>
        <time>2020-07-15T13:42:07.286Z</time>
      </trkpt>
      <trkpt lat="63.63525" lon="10.07892">
        <ele>21.413759</ele>
        <time>2020-07-15T13:42:19.758Z</time>
      </trkpt>
      <trkpt lat="63.6353" lon="10.07907">
        <ele>21.437136</ele>
        <time>2020-07-15T13:42:21.152Z</time>
      </trkpt>
      <trkpt lat="63.63611" lon="10.08227">
        <ele>20.802737</ele>
        <time>2020-07-15T13:42:48.398Z</time>
      </trkpt>
      <trkpt lat="63.63615" lon="10.08241">
        <ele>20.775065</ele>
        <time>2020-07-15T13:42:49.407Z</time>
      </trkpt>
      <trkpt lat="63.63618" lon="10.0825">
        <ele>20.754395</ele>
        <time>2020-07-15T13:42:50.397Z</time>
      </trkpt>
      <trkpt lat="63.63686" lon="10.08438">
        <ele>20.281226</ele>
        <time>2020-07-15T13:43:08.046Z</time>
      </trkpt>
      <trkpt lat="63.63961" lon="10.09062">
        <ele>18.743966</ele>
        <time>2020-07-15T13:44:14.134Z</time>
      </trkpt>
      <trkpt lat="63.64041" lon="10.09263">
        <ele>18.211846</ele>
        <time>2020-07-15T13:44:33.118Z</time>
      </trkpt>
      <trkpt lat="63.64122" lon="10.09492">
        <ele>18.022624</ele>
        <time>2020-07-15T13:44:54.988Z</time>
      </trkpt>
      <trkpt lat="63.64202" lon="10.09712">
        <ele>19.314774</ele>
        <time>2020-07-15T13:45:21.546Z</time>
      </trkpt>
      <trkpt lat="63.6426" lon="10.09896">
        <ele>21.716672</ele>
        <time>2020-07-15T13:45:47.598Z</time>
      </trkpt>
      <trkpt lat="63.64336" lon="10.10188">
        <ele>26.115862</ele>
        <time>2020-07-15T13:46:30.621Z</time>
      </trkpt>
      <trkpt lat="63.64351" lon="10.1026">
        <ele>27.150811</ele>
        <time>2020-07-15T13:46:40.228Z</time>
      </trkpt>
      <trkpt lat="63.64363" lon="10.10354">
        <ele>28.426262</ele>
        <time>2020-07-15T13:46:51.438Z</time>
      </trkpt>
      <trkpt lat="63.64366" lon="10.10396">
        <ele>28.984249</ele>
        <time>2020-07-15T13:46:56.441Z</time>
      </trkpt>
      <trkpt lat="63.64368" lon="10.10421">
        <ele>29.303448</ele>
        <time>2020-07-15T13:46:59.034Z</time>
      </trkpt>
      <trkpt lat="63.64365" lon="10.1062">
        <ele>32.627491</ele>
        <time>2020-07-15T13:47:23.522Z</time>
      </trkpt>
      <trkpt lat="63.64361" lon="10.10729">
        <ele>34.626622</ele>
        <time>2020-07-15T13:47:38.252Z</time>
      </trkpt>
      <trkpt lat="63.64357" lon="10.10847">
        <ele>36.7947</ele>
        <time>2020-07-15T13:47:55.263Z</time>
      </trkpt>
      <trkpt lat="63.64353" lon="10.10961">
        <ele>39.629605</ele>
        <time>2020-07-15T13:48:14.199Z</time>
      </trkpt>
      <trkpt lat="63.64352" lon="10.10983">
        <ele>40.261368</ele>
        <time>2020-07-15T13:48:17.890Z</time>
      </trkpt>
      <trkpt lat="63.64348" lon="10.11094">
        <ele>43.419528</ele>
        <time>2020-07-15T13:48:38.456Z</time>
      </trkpt>
      <trkpt lat="63.64344" lon="10.11167">
        <ele>45.512777</ele>
        <time>2020-07-15T13:48:51.745Z</time>
      </trkpt>
      <trkpt lat="63.64339" lon="10.11269">
        <ele>48.40807</ele>
        <time>2020-07-15T13:49:09.969Z</time>
      </trkpt>
      <trkpt lat="63.64338" lon="10.11287">
        <ele>48.943769</ele>
        <time>2020-07-15T13:49:13.343Z</time>
      </trkpt>
      <trkpt lat="63.64337" lon="10.11328">
        <ele>49.45251</ele>
        <time>2020-07-15T13:49:19.433Z</time>
      </trkpt>
      <trkpt lat="63.64338" lon="10.1134">
        <ele>49.589516</ele>
        <time>2020-07-15T13:49:21.339Z</time>
      </trkpt>
      <trkpt lat="63.64337" lon="10.11357">
        <ele>49.776161</ele>
        <time>2020-07-15T13:49:24.038Z</time>
      </trkpt>
      <trkpt lat="63.64347" lon="10.11495">
        <ele>51.352415</ele>
        <time>2020-07-15T13:49:41.395Z</time>
      </trkpt>
      <trkpt lat="63.64369" lon="10.11597">
        <ele>52.638632</ele>
        <time>2020-07-15T13:49:53.387Z</time>
      </trkpt>
      <trkpt lat="63.6438" lon="10.11631">
        <ele>53.107418</ele>
        <time>2020-07-15T13:49:56.787Z</time>
      </trkpt>
      <trkpt lat="63.64391" lon="10.11659">
        <ele>53.527271</ele>
        <time>2020-07-15T13:49:59.561Z</time>
      </trkpt>
      <trkpt lat="63.64428" lon="10.11723">
        <ele>53.231398</ele>
        <time>2020-07-15T13:50:06.651Z</time>
      </trkpt>
      <trkpt lat="63.64517" lon="10.11846">
        <ele>52.372953</ele>
        <time>2020-07-15T13:50:21.985Z</time>
      </trkpt>
      <trkpt lat="63.64564" lon="10.11929">
        <ele>52.808756</ele>
        <time>2020-07-15T13:50:32.192Z</time>
      </trkpt>
      <trkpt lat="63.64609" lon="10.12058">
        <ele>54.54484</ele>
        <time>2020-07-15T13:50:48.866Z</time>
      </trkpt>
      <trkpt lat="63.64656" lon="10.1225">
        <ele>57.523186</ele>
        <time>2020-07-15T13:51:18.596Z</time>
      </trkpt>
      <trkpt lat="63.64662" lon="10.1228">
        <ele>58.401228</ele>
        <time>2020-07-15T13:51:25.063Z</time>
      </trkpt>
      <trkpt lat="63.64669" lon="10.1231">
        <ele>59.256175</ele>
        <time>2020-07-15T13:51:30.703Z</time>
      </trkpt>
      <trkpt lat="63.64701" lon="10.12443">
        <ele>63.16051</ele>
        <time>2020-07-15T13:51:57.666Z</time>
      </trkpt>
      <trkpt lat="63.64726" lon="10.12544">
        <ele>66.161882</ele>
        <time>2020-07-15T13:52:16.349Z</time>
      </trkpt>
      <trkpt lat="63.64736" lon="10.12579">
        <ele>67.020013</ele>
        <time>2020-07-15T13:52:23.554Z</time>
      </trkpt>
      <trkpt lat="63.64751" lon="10.12633">
        <ele>67.559465</ele>
        <time>2020-07-15T13:52:32.443Z</time>
      </trkpt>
      <trkpt lat="63.64763" lon="10.12673">
        <ele>67.977429</ele>
        <time>2020-07-15T13:52:38.810Z</time>
      </trkpt>
      <trkpt lat="63.64779" lon="10.12727">
        <ele>68.527417</ele>
        <time>2020-07-15T13:52:46.927Z</time>
      </trkpt>
      <trkpt lat="63.64805" lon="10.12809">
        <ele>69.387234</ele>
        <time>2020-07-15T13:52:57.552Z</time>
      </trkpt>
      <trkpt lat="63.64835" lon="10.12905">
        <ele>70.327778</ele>
        <time>2020-07-15T13:53:05.752Z</time>
      </trkpt>
      <trkpt lat="63.64839" lon="10.12919">
        <ele>70.129512</ele>
        <time>2020-07-15T13:53:06.701Z</time>
      </trkpt>
      <trkpt lat="63.6486" lon="10.12986">
        <ele>69.150054</ele>
        <time>2020-07-15T13:53:11.442Z</time>
      </trkpt>
      <trkpt lat="63.64867" lon="10.13009">
        <ele>68.818632</ele>
        <time>2020-07-15T13:53:13.066Z</time>
      </trkpt>
      <trkpt lat="63.64873" lon="10.13027">
        <ele>68.545034</ele>
        <time>2020-07-15T13:53:14.395Z</time>
      </trkpt>
      <trkpt lat="63.64893" lon="10.13093">
        <ele>67.584997</ele>
        <time>2020-07-15T13:53:19.044Z</time>
      </trkpt>
      <trkpt lat="63.64908" lon="10.1314">
        <ele>66.885031</ele>
        <time>2020-07-15T13:53:22.435Z</time>
      </trkpt>
      <trkpt lat="63.64915" lon="10.13163">
        <ele>66.556995</ele>
        <time>2020-07-15T13:53:24.021Z</time>
      </trkpt>
      <trkpt lat="63.64926" lon="10.13198">
        <ele>66.040362</ele>
        <time>2020-07-15T13:53:26.471Z</time>
      </trkpt>
      <trkpt lat="63.65018" lon="10.13497">
        <ele>62.327176</ele>
        <time>2020-07-15T13:53:48.421Z</time>
      </trkpt>
      <trkpt lat="63.65048" lon="10.13629">
        <ele>61.072878</ele>
        <time>2020-07-15T13:53:58.518Z</time>
      </trkpt>
      <trkpt lat="63.65057" lon="10.13677">
        <ele>60.744664</ele>
        <time>2020-07-15T13:54:02.084Z</time>
      </trkpt>
      <trkpt lat="63.65061" lon="10.13702">
        <ele>60.572605</ele>
        <time>2020-07-15T13:54:04.006Z</time>
      </trkpt>
      <trkpt lat="63.65089" lon="10.13885">
        <ele>59.355665</ele>
        <time>2020-07-15T13:54:17.023Z</time>
      </trkpt>
      <trkpt lat="63.65109" lon="10.14067">
        <ele>57.734982</ele>
        <time>2020-07-15T13:54:28.611Z</time>
      </trkpt>
      <trkpt lat="63.65118" lon="10.14172">
        <ele>56.652821</ele>
        <time>2020-07-15T13:54:35.089Z</time>
      </trkpt>
      <trkpt lat="63.65129" lon="10.14283">
        <ele>55.504763</ele>
        <time>2020-07-15T13:54:42.081Z</time>
      </trkpt>
      <trkpt lat="63.65146" lon="10.14411">
        <ele>53.983213</ele>
        <time>2020-07-15T13:54:50.401Z</time>
      </trkpt>
      <trkpt lat="63.65174" lon="10.14536">
        <ele>52.215074</ele>
        <time>2020-07-15T13:54:58.597Z</time>
      </trkpt>
      <trkpt lat="63.65178" lon="10.14551">
        <ele>51.99734</ele>
        <time>2020-07-15T13:54:59.689Z</time>
      </trkpt>
      <trkpt lat="63.65181" lon="10.14562">
        <ele>51.830625</ele>
        <time>2020-07-15T13:55:00.488Z</time>
      </trkpt>
      <trkpt lat="63.65187" lon="10.14583">
        <ele>51.516356</ele>
        <time>2020-07-15T13:55:01.966Z</time>
      </trkpt>
      <trkpt lat="63.65194" lon="10.14609">
        <ele>51.117664</ele>
        <time>2020-07-15T13:55:03.762Z</time>
      </trkpt>
      <trkpt lat="63.6521" lon="10.14656">
        <ele>50.373721</ele>
        <time>2020-07-15T13:55:07.193Z</time>
      </trkpt>
      <trkpt lat="63.65223" lon="10.14692">
        <ele>49.78865</ele>
        <time>2020-07-15T13:55:09.859Z</time>
      </trkpt>
      <trkpt lat="63.65245" lon="10.14751">
        <ele>48.58921</ele>
        <time>2020-07-15T13:55:14.326Z</time>
      </trkpt>
      <trkpt lat="63.65279" lon="10.14842">
        <ele>46.732215</ele>
        <time>2020-07-15T13:55:21.079Z</time>
      </trkpt>
      <trkpt lat="63.65292" lon="10.14875">
        <ele>46.024612</ele>
        <time>2020-07-15T13:55:23.558Z</time>
      </trkpt>
      <trkpt lat="63.65305" lon="10.14911">
        <ele>45.290674</ele>
        <time>2020-07-15T13:55:26.138Z</time>
      </trkpt>
      <trkpt lat="63.65401" lon="10.15121">
        <ele>41.39094</ele>
        <time>2020-07-15T13:55:43.496Z</time>
      </trkpt>
      <trkpt lat="63.65505" lon="10.15291">
        <ele>38.413118</ele>
        <time>2020-07-15T13:56:02.074Z</time>
      </trkpt>
      <trkpt lat="63.65563" lon="10.15407">
        <ele>36.969229</ele>
        <time>2020-07-15T13:56:13.081Z</time>
      </trkpt>
      <trkpt lat="63.65577" lon="10.1544">
        <ele>36.597879</ele>
        <time>2020-07-15T13:56:15.888Z</time>
      </trkpt>
      <trkpt lat="63.65599" lon="10.15494">
        <ele>35.989463</ele>
        <time>2020-07-15T13:56:20.469Z</time>
      </trkpt>
      <trkpt lat="63.65733" lon="10.15832">
        <ele>33.179883</ele>
        <time>2020-07-15T13:56:50.118Z</time>
      </trkpt>
      <trkpt lat="63.65743" lon="10.1586">
        <ele>33.05662</ele>
        <time>2020-07-15T13:56:52.839Z</time>
      </trkpt>
      <trkpt lat="63.6575" lon="10.15876">
        <ele>32.992768</ele>
        <time>2020-07-15T13:56:54.735Z</time>
      </trkpt>
      <trkpt lat="63.65775" lon="10.15939">
        <ele>32.756097</ele>
        <time>2020-07-15T13:57:01.297Z</time>
      </trkpt>
      <trkpt lat="63.65818" lon="10.16046">
        <ele>32.348889</ele>
        <time>2020-07-15T13:57:11.696Z</time>
      </trkpt>
      <trkpt lat="63.65826" lon="10.16068">
        <ele>32.267735</ele>
        <time>2020-07-15T13:57:13.827Z</time>
      </trkpt>
      <trkpt lat="63.65874" lon="10.16188">
        <ele>32.134619</ele>
        <time>2020-07-15T13:57:25.089Z</time>
      </trkpt>
      <trkpt lat="63.65894" lon="10.16238">
        <ele>32.272424</ele>
        <time>2020-07-15T13:57:29.684Z</time>
      </trkpt>
      <trkpt lat="63.65941" lon="10.16354">
        <ele>32.597754</ele>
        <time>2020-07-15T13:57:42.487Z</time>
      </trkpt>
      <trkpt lat="63.65953" lon="10.16384">
        <ele>32.680775</ele>
        <time>2020-07-15T13:57:46.474Z</time>
      </trkpt>
      <trkpt lat="63.65963" lon="10.16409">
        <ele>32.751327</ele>
        <time>2020-07-15T13:57:49.503Z</time>
      </trkpt>
      <trkpt lat="63.6597" lon="10.16425">
        <ele>32.797065</ele>
        <time>2020-07-15T13:57:52.379Z</time>
      </trkpt>
      <trkpt lat="63.66008" lon="10.16498">
        <ele>34.741675</ele>
        <time>2020-07-15T13:58:04.922Z</time>
      </trkpt>
      <trkpt lat="63.66171" lon="10.16762">
        <ele>43.421505</ele>
        <time>2020-07-15T13:59:16.333Z</time>
      </trkpt>
      <trkpt lat="63.662" lon="10.16834">
        <ele>45.06581</ele>
        <time>2020-07-15T13:59:30.340Z</time>
      </trkpt>
      <trkpt lat="63.66227" lon="10.16942">
        <ele>47.189425</ele>
        <time>2020-07-15T13:59:45.629Z</time>
      </trkpt>
      <trkpt lat="63.6623" lon="10.16961">
        <ele>47.532549</ele>
        <time>2020-07-15T13:59:48.103Z</time>
      </trkpt>
      <trkpt lat="63.66234" lon="10.16991">
        <ele>47.881039</ele>
        <time>2020-07-15T13:59:51.138Z</time>
      </trkpt>
      <trkpt lat="63.66261" lon="10.1722">
        <ele>46.757625</ele>
        <time>2020-07-15T14:00:08.943Z</time>
      </trkpt>
      <trkpt lat="63.66268" lon="10.17256">
        <ele>46.570953</ele>
        <time>2020-07-15T14:00:11.362Z</time>
      </trkpt>
      <trkpt lat="63.66272" lon="10.17274">
        <ele>46.478643</ele>
        <time>2020-07-15T14:00:12.629Z</time>
      </trkpt>
      <trkpt lat="63.66279" lon="10.17302">
        <ele>46.323783</ele>
        <time>2020-07-15T14:00:14.612Z</time>
      </trkpt>
      <trkpt lat="63.66299" lon="10.17373">
        <ele>45.762528</ele>
        <time>2020-07-15T14:00:19.319Z</time>
      </trkpt>
      <trkpt lat="63.66365" lon="10.17598">
        <ele>41.687866</ele>
        <time>2020-07-15T14:00:34.467Z</time>
      </trkpt>
      <trkpt lat="63.66371" lon="10.17616">
        <ele>41.347234</ele>
        <time>2020-07-15T14:00:35.732Z</time>
      </trkpt>
      <trkpt lat="63.66375" lon="10.17629">
        <ele>41.119437</ele>
        <time>2020-07-15T14:00:36.558Z</time>
      </trkpt>
      <trkpt lat="63.66446" lon="10.17867">
        <ele>38.960539</ele>
        <time>2020-07-15T14:00:54.397Z</time>
      </trkpt>
      <trkpt lat="63.66483" lon="10.17945">
        <ele>38.447112</ele>
        <time>2020-07-15T14:01:02.627Z</time>
      </trkpt>
      <trkpt lat="63.66536" lon="10.18036">
        <ele>38.496909</ele>
        <time>2020-07-15T14:01:16.537Z</time>
      </trkpt>
      <trkpt lat="63.66571" lon="10.18144">
        <ele>39.434166</ele>
        <time>2020-07-15T14:01:30.695Z</time>
      </trkpt>
      <trkpt lat="63.6659" lon="10.18244">
        <ele>40.188771</ele>
        <time>2020-07-15T14:01:42.634Z</time>
      </trkpt>
      <trkpt lat="63.66603" lon="10.18362">
        <ele>40.872808</ele>
        <time>2020-07-15T14:01:55.963Z</time>
      </trkpt>
      <trkpt lat="63.66617" lon="10.18635">
        <ele>40.832743</ele>
        <time>2020-07-15T14:02:18.888Z</time>
      </trkpt>
      <trkpt lat="63.66618" lon="10.18686">
        <ele>40.82531</ele>
        <time>2020-07-15T14:02:22.159Z</time>
      </trkpt>
      <trkpt lat="63.6662" lon="10.18775">
        <ele>40.572253</ele>
        <time>2020-07-15T14:02:27.872Z</time>
      </trkpt>
      <trkpt lat="63.66625" lon="10.18947">
        <ele>39.246311</ele>
        <time>2020-07-15T14:02:38.697Z</time>
      </trkpt>
      <trkpt lat="63.66627" lon="10.18977">
        <ele>39.013817</ele>
        <time>2020-07-15T14:02:40.538Z</time>
      </trkpt>
      <trkpt lat="63.66628" lon="10.19001">
        <ele>38.830018</ele>
        <time>2020-07-15T14:02:41.951Z</time>
      </trkpt>
      <trkpt lat="63.66643" lon="10.19111">
        <ele>37.942695</ele>
        <time>2020-07-15T14:02:49.392Z</time>
      </trkpt>
      <trkpt lat="63.66674" lon="10.19219">
        <ele>37.54858</ele>
        <time>2020-07-15T14:02:58.090Z</time>
      </trkpt>
      <trkpt lat="63.66684" lon="10.19249">
        <ele>37.490948</ele>
        <time>2020-07-15T14:03:00.956Z</time>
      </trkpt>
      <trkpt lat="63.66726" lon="10.19372">
        <ele>37.251407</ele>
        <time>2020-07-15T14:03:12.910Z</time>
      </trkpt>
      <trkpt lat="63.67073" lon="10.20394">
        <ele>38.695974</ele>
        <time>2020-07-15T14:05:00.154Z</time>
      </trkpt>
      <trkpt lat="63.67084" lon="10.2043">
        <ele>38.767002</ele>
        <time>2020-07-15T14:05:04.093Z</time>
      </trkpt>
      <trkpt lat="63.67088" lon="10.20442">
        <ele>38.813994</ele>
        <time>2020-07-15T14:05:05.252Z</time>
      </trkpt>
      <trkpt lat="63.67242" lon="10.20827">
        <ele>41.412212</ele>
        <time>2020-07-15T14:05:52.066Z</time>
      </trkpt>
      <trkpt lat="63.67297" lon="10.21014">
        <ele>43.744893</ele>
        <time>2020-07-15T14:06:16.126Z</time>
      </trkpt>
      <trkpt lat="63.67295" lon="10.21017">
        <ele>43.80876</ele>
        <time>2020-07-15T14:06:17.154Z</time>
      </trkpt>
      <trkpt lat="63.67289" lon="10.21059">
        <ele>44.26476</ele>
        <time>2020-07-15T14:06:24.018Z</time>
      </trkpt>
      <trkpt lat="63.67306" lon="10.21144">
        <ele>46.643743</ele>
        <time>2020-07-15T14:06:39.346Z</time>
      </trkpt>
      <trkpt lat="63.67317" lon="10.21162">
        <ele>47.458709</ele>
        <time>2020-07-15T14:06:43.230Z</time>
      </trkpt>
      <trkpt lat="63.67322" lon="10.21163">
        <ele>47.738729</ele>
        <time>2020-07-15T14:06:45.483Z</time>
      </trkpt>
      <trkpt lat="63.67321" lon="10.21174">
        <ele>48.03313</ele>
        <time>2020-07-15T14:06:47.056Z</time>
      </trkpt>
      <trkpt lat="63.6732" lon="10.2119">
        <ele>48.451032</ele>
        <time>2020-07-15T14:06:50.211Z</time>
      </trkpt>
      <trkpt lat="63.67313" lon="10.21255">
        <ele>50.210635</ele>
        <time>2020-07-15T14:07:00.940Z</time>
      </trkpt>
      <trkpt lat="63.67321" lon="10.2126">
        <ele>50.754175</ele>
        <time>2020-07-15T14:07:05.592Z</time>
      </trkpt>
      <trkpt lat="63.6734" lon="10.21274">
        <ele>51.901378</ele>
        <time>2020-07-15T14:07:12.016Z</time>
      </trkpt>
      <trkpt lat="63.67353" lon="10.21287">
        <ele>52.738311</ele>
        <time>2020-07-15T14:07:17.995Z</time>
      </trkpt>
      <trkpt lat="63.67357" lon="10.21291">
        <ele>53.048969</ele>
        <time>2020-07-15T14:07:20.602Z</time>
      </trkpt>
      <trkpt lat="63.67366" lon="10.21301">
        <ele>53.617481</ele>
        <time>2020-07-15T14:07:23.055Z</time>
      </trkpt>
      <trkpt lat="63.67383" lon="10.21322">
        <ele>54.765551</ele>
        <time>2020-07-15T14:07:30.577Z</time>
      </trkpt>
      <trkpt lat="63.67391" lon="10.21334">
        <ele>55.363324</ele>
        <time>2020-07-15T14:07:35.147Z</time>
      </trkpt>
      <trkpt lat="63.67436" lon="10.21412">
        <ele>58.965102</ele>
        <time>2020-07-15T14:07:57.034Z</time>
      </trkpt>
      <trkpt lat="63.67496" lon="10.21541">
        <ele>64.195487</ele>
        <time>2020-07-15T14:08:30.652Z</time>
      </trkpt>
      <trkpt lat="63.6752" lon="10.21601">
        <ele>66.436498</ele>
        <time>2020-07-15T14:08:42.467Z</time>
      </trkpt>
      <trkpt lat="63.67532" lon="10.21632">
        <ele>67.263334</ele>
        <time>2020-07-15T14:08:48.812Z</time>
      </trkpt>
      <trkpt lat="63.67569" lon="10.21734">
        <ele>69.816028</ele>
        <time>2020-07-15T14:09:07.177Z</time>
      </trkpt>
      <trkpt lat="63.67697" lon="10.22171">
        <ele>80.608201</ele>
        <time>2020-07-15T14:10:19.223Z</time>
      </trkpt>
      <trkpt lat="63.67776" lon="10.22339">
        <ele>88.5658</ele>
        <time>2020-07-15T14:11:00.656Z</time>
      </trkpt>
      <trkpt lat="63.67863" lon="10.226">
        <ele>103.495697</ele>
        <time>2020-07-15T14:12:15.001Z</time>
      </trkpt>
      <trkpt lat="63.67938" lon="10.22772">
        <ele>119.455312</ele>
        <time>2020-07-15T14:13:30.256Z</time>
      </trkpt>
      <trkpt lat="63.67979" lon="10.2289">
        <ele>128.752458</ele>
        <time>2020-07-15T14:14:17.071Z</time>
      </trkpt>
      <trkpt lat="63.68" lon="10.22957">
        <ele>132.748842</ele>
        <time>2020-07-15T14:14:40.474Z</time>
      </trkpt>
      <trkpt lat="63.68023" lon="10.23033">
        <ele>137.227749</ele>
        <time>2020-07-15T14:15:04.128Z</time>
      </trkpt>
      <trkpt lat="63.68093" lon="10.2326">
        <ele>147.794965</ele>
        <time>2020-07-15T14:15:56.638Z</time>
      </trkpt>
      <trkpt lat="63.68131" lon="10.23382">
        <ele>150.028746</ele>
        <time>2020-07-15T14:16:11.566Z</time>
      </trkpt>
      <trkpt lat="63.68202" lon="10.23613">
        <ele>155.208711</ele>
        <time>2020-07-15T14:16:41.688Z</time>
      </trkpt>
      <trkpt lat="63.68246" lon="10.2376">
        <ele>159.348232</ele>
        <time>2020-07-15T14:17:09.634Z</time>
      </trkpt>
      <trkpt lat="63.68275" lon="10.23848">
        <ele>161.893999</ele>
        <time>2020-07-15T14:17:29.202Z</time>
      </trkpt>
      <trkpt lat="63.68287" lon="10.23885">
        <ele>163.70487</ele>
        <time>2020-07-15T14:17:39.239Z</time>
      </trkpt>
      <trkpt lat="63.68337" lon="10.23998">
        <ele>170.409103</ele>
        <time>2020-07-15T14:18:13.409Z</time>
      </trkpt>
      <trkpt lat="63.68393" lon="10.24093">
        <ele>177.090461</ele>
        <time>2020-07-15T14:18:50.381Z</time>
      </trkpt>
      <trkpt lat="63.68449" lon="10.24166">
        <ele>181.922149</ele>
        <time>2020-07-15T14:19:21.724Z</time>
      </trkpt>
      <trkpt lat="63.68533" lon="10.2425">
        <ele>187.681849</ele>
        <time>2020-07-15T14:19:57.021Z</time>
      </trkpt>
      <trkpt lat="63.68553" lon="10.24266">
        <ele>189.006279</ele>
        <time>2020-07-15T14:20:03.982Z</time>
      </trkpt>
      <trkpt lat="63.68567" lon="10.24277">
        <ele>189.936325</ele>
        <time>2020-07-15T14:20:08.173Z</time>
      </trkpt>
      <trkpt lat="63.68762" lon="10.24405">
        <ele>194.741981</ele>
        <time>2020-07-15T14:20:53.857Z</time>
      </trkpt>
      <trkpt lat="63.68946" lon="10.24473">
        <ele>202.789678</ele>
        <time>2020-07-15T14:21:51.166Z</time>
      </trkpt>
      <trkpt lat="63.68985" lon="10.24478">
        <ele>205.883593</ele>
        <time>2020-07-15T14:22:07.412Z</time>
      </trkpt>
      <trkpt lat="63.6904" lon="10.24481">
        <ele>210.324289</ele>
        <time>2020-07-15T14:22:32.368Z</time>
      </trkpt>
      <trkpt lat="63.69145" lon="10.24478">
        <ele>218.803069</ele>
        <time>2020-07-15T14:23:24.495Z</time>
      </trkpt>
      <trkpt lat="63.69256" lon="10.2443">
        <ele>228.234256</ele>
        <time>2020-07-15T14:24:16.704Z</time>
      </trkpt>
      <trkpt lat="63.69275" lon="10.2442">
        <ele>229.831283</ele>
        <time>2020-07-15T14:24:25.249Z</time>
      </trkpt>
      <trkpt lat="63.69278" lon="10.24419">
        <ele>230.059844</ele>
        <time>2020-07-15T14:24:26.616Z</time>
      </trkpt>
      <trkpt lat="63.69575" lon="10.24286">
        <ele>240.008332</ele>
        <time>2020-07-15T14:25:53.361Z</time>
      </trkpt>
      <trkpt lat="63.69595" lon="10.24277">
        <ele>240.42717</ele>
        <time>2020-07-15T14:25:56.856Z</time>
      </trkpt>
      <trkpt lat="63.69665" lon="10.24232">
        <ele>241.13138</ele>
        <time>2020-07-15T14:26:09.200Z</time>
      </trkpt>
      <trkpt lat="63.69729" lon="10.24154">
        <ele>240.817317</ele>
        <time>2020-07-15T14:26:20.618Z</time>
      </trkpt>
      <trkpt lat="63.69845" lon="10.2398">
        <ele>240.477151</ele>
        <time>2020-07-15T14:26:44.332Z</time>
      </trkpt>
      <trkpt lat="63.69867" lon="10.23947">
        <ele>240.471751</ele>
        <time>2020-07-15T14:26:49.148Z</time>
      </trkpt>
      <trkpt lat="63.69932" lon="10.2388">
        <ele>240.457139</ele>
        <time>2020-07-15T14:27:02.175Z</time>
      </trkpt>
      <trkpt lat="63.70021" lon="10.23842">
        <ele>240.603168</ele>
        <time>2020-07-15T14:27:19.065Z</time>
      </trkpt>
      <trkpt lat="63.70054" lon="10.2383">
        <ele>240.673136</ele>
        <time>2020-07-15T14:27:25.345Z</time>
      </trkpt>
      <trkpt lat="63.7007" lon="10.23824">
        <ele>240.706029</ele>
        <time>2020-07-15T14:27:28.372Z</time>
      </trkpt>
      <trkpt lat="63.7021" lon="10.2376">
        <ele>240.910362</ele>
        <time>2020-07-15T14:27:54.169Z</time>
      </trkpt>
      <trkpt lat="63.70238" lon="10.23745">
        <ele>240.939096</ele>
        <time>2020-07-15T14:27:59.520Z</time>
      </trkpt>
      <trkpt lat="63.70292" lon="10.23714">
        <ele>240.993225</ele>
        <time>2020-07-15T14:28:09.273Z</time>
      </trkpt>
      <trkpt lat="63.70635" lon="10.23515">
        <ele>242.160345</ele>
        <time>2020-07-15T14:29:16.913Z</time>
      </trkpt>
      <trkpt lat="63.70682" lon="10.23493">
        <ele>242.119106</ele>
        <time>2020-07-15T14:29:25.688Z</time>
      </trkpt>
      <trkpt lat="63.70731" lon="10.23489">
        <ele>241.965358</ele>
        <time>2020-07-15T14:29:34.249Z</time>
      </trkpt>
      <trkpt lat="63.70764" lon="10.23497">
        <ele>241.86311</ele>
        <time>2020-07-15T14:29:39.649Z</time>
      </trkpt>
      <trkpt lat="63.7082" lon="10.2353">
        <ele>241.680581</ele>
        <time>2020-07-15T14:29:49.101Z</time>
      </trkpt>
      <trkpt lat="63.70886" lon="10.23573">
        <ele>241.281627</ele>
        <time>2020-07-15T14:30:00.153Z</time>
      </trkpt>
      <trkpt lat="63.70889" lon="10.23575">
        <ele>241.262954</ele>
        <time>2020-07-15T14:30:00.594Z</time>
      </trkpt>
      <trkpt lat="63.70947" lon="10.23592">
        <ele>240.900085</ele>
        <time>2020-07-15T14:30:10.078Z</time>
      </trkpt>
      <trkpt lat="63.71056" lon="10.23577">
        <ele>240.038714</ele>
        <time>2020-07-15T14:30:28.057Z</time>
      </trkpt>
      <trkpt lat="63.711" lon="10.23597">
        <ele>239.600519</ele>
        <time>2020-07-15T14:30:35.519Z</time>
      </trkpt>
      <trkpt lat="63.71194" lon="10.23664">
        <ele>238.251844</ele>
        <time>2020-07-15T14:30:50.255Z</time>
      </trkpt>
      <trkpt lat="63.71233" lon="10.2367">
        <ele>236.834304</ele>
        <time>2020-07-15T14:30:55.649Z</time>
      </trkpt>
      <trkpt lat="63.71275" lon="10.23657">
        <ele>235.32944</ele>
        <time>2020-07-15T14:31:01.142Z</time>
      </trkpt>
      <trkpt lat="63.71417" lon="10.23591">
        <ele>229.558828</ele>
        <time>2020-07-15T14:31:18.676Z</time>
      </trkpt>
      <trkpt lat="63.71472" lon="10.23566">
        <ele>226.969673</ele>
        <time>2020-07-15T14:31:25.528Z</time>
      </trkpt>
      <trkpt lat="63.71545" lon="10.23532">
        <ele>224.010756</ele>
        <time>2020-07-15T14:31:34.893Z</time>
      </trkpt>
      <trkpt lat="63.71631" lon="10.23493">
        <ele>222.969487</ele>
        <time>2020-07-15T14:31:47.144Z</time>
      </trkpt>
      <trkpt lat="63.71784" lon="10.23403">
        <ele>222.503347</ele>
        <time>2020-07-15T14:32:18.739Z</time>
      </trkpt>
      <trkpt lat="63.71815" lon="10.23371">
        <ele>222.715666</ele>
        <time>2020-07-15T14:32:26.058Z</time>
      </trkpt>
      <trkpt lat="63.71885" lon="10.23271">
        <ele>222.88907</ele>
        <time>2020-07-15T14:32:42.495Z</time>
      </trkpt>
      <trkpt lat="63.71922" lon="10.23242">
        <ele>222.294007</ele>
        <time>2020-07-15T14:32:49.269Z</time>
      </trkpt>
      <trkpt lat="63.72049" lon="10.23225">
        <ele>220.22599</ele>
        <time>2020-07-15T14:33:07.402Z</time>
      </trkpt>
      <trkpt lat="63.72147" lon="10.23242">
        <ele>215.276049</ele>
        <time>2020-07-15T14:33:19.380Z</time>
      </trkpt>
      <trkpt lat="63.72162" lon="10.2325">
        <ele>214.493312</ele>
        <time>2020-07-15T14:33:21.254Z</time>
      </trkpt>
      <trkpt lat="63.72171" lon="10.23256">
        <ele>214.047697</ele>
        <time>2020-07-15T14:33:22.340Z</time>
      </trkpt>
      <trkpt lat="63.72183" lon="10.23264">
        <ele>213.421101</ele>
        <time>2020-07-15T14:33:23.773Z</time>
      </trkpt>
      <trkpt lat="63.72333" lon="10.23382">
        <ele>203.328433</ele>
        <time>2020-07-15T14:33:42.243Z</time>
      </trkpt>
      <trkpt lat="63.72395" lon="10.23413">
        <ele>199.068538</ele>
        <time>2020-07-15T14:33:49.469Z</time>
      </trkpt>
      <trkpt lat="63.72413" lon="10.23419">
        <ele>197.717939</ele>
        <time>2020-07-15T14:33:51.613Z</time>
      </trkpt>
      <trkpt lat="63.72425" lon="10.23423">
        <ele>196.888966</ele>
        <time>2020-07-15T14:33:52.914Z</time>
      </trkpt>
      <trkpt lat="63.72727" lon="10.23513">
        <ele>175.809192</ele>
        <time>2020-07-15T14:34:27.774Z</time>
      </trkpt>
      <trkpt lat="63.72798" lon="10.23526">
        <ele>172.582005</ele>
        <time>2020-07-15T14:34:36.539Z</time>
      </trkpt>
      <trkpt lat="63.72851" lon="10.23518">
        <ele>170.760627</ele>
        <time>2020-07-15T14:34:43.483Z</time>
      </trkpt>
      <trkpt lat="63.72999" lon="10.2345">
        <ele>165.842214</ele>
        <time>2020-07-15T14:35:04.202Z</time>
      </trkpt>
      <trkpt lat="63.73099" lon="10.23445">
        <ele>162.715148</ele>
        <time>2020-07-15T14:35:17.326Z</time>
      </trkpt>
      <trkpt lat="63.73282" lon="10.23438">
        <ele>154.744637</ele>
        <time>2020-07-15T14:35:39.787Z</time>
      </trkpt>
      <trkpt lat="63.73307" lon="10.23439">
        <ele>153.915134</ele>
        <time>2020-07-15T14:35:42.799Z</time>
      </trkpt>
      <trkpt lat="63.73384" lon="10.23427">
        <ele>151.533309</ele>
        <time>2020-07-15T14:35:52.660Z</time>
      </trkpt>
      <trkpt lat="63.73395" lon="10.23422">
        <ele>151.166201</ele>
        <time>2020-07-15T14:35:54.183Z</time>
      </trkpt>
      <trkpt lat="63.73406" lon="10.23419">
        <ele>150.834222</ele>
        <time>2020-07-15T14:35:55.601Z</time>
      </trkpt>
      <trkpt lat="63.73603" lon="10.23322">
        <ele>146.851429</ele>
        <time>2020-07-15T14:36:24.670Z</time>
      </trkpt>
      <trkpt lat="63.73676" lon="10.23322">
        <ele>146.310477</ele>
        <time>2020-07-15T14:36:36.374Z</time>
      </trkpt>
      <trkpt lat="63.73735" lon="10.23355">
        <ele>146.385008</ele>
        <time>2020-07-15T14:36:47.047Z</time>
      </trkpt>
      <trkpt lat="63.73796" lon="10.23403">
        <ele>146.464386</ele>
        <time>2020-07-15T14:36:59.725Z</time>
      </trkpt>
      <trkpt lat="63.73897" lon="10.23577">
        <ele>147.221039</ele>
        <time>2020-07-15T14:37:26.497Z</time>
      </trkpt>
      <trkpt lat="63.73945" lon="10.2363">
        <ele>147.583088</ele>
        <time>2020-07-15T14:37:37.002Z</time>
      </trkpt>
      <trkpt lat="63.73984" lon="10.23641">
        <ele>147.64219</ele>
        <time>2020-07-15T14:37:44.300Z</time>
      </trkpt>
      <trkpt lat="63.74079" lon="10.23616">
        <ele>147.196523</ele>
        <time>2020-07-15T14:38:00.334Z</time>
      </trkpt>
      <trkpt lat="63.74123" lon="10.23619">
        <ele>146.990853</ele>
        <time>2020-07-15T14:38:07.642Z</time>
      </trkpt>
      <trkpt lat="63.74165" lon="10.23644">
        <ele>146.466962</ele>
        <time>2020-07-15T14:38:14.041Z</time>
      </trkpt>
      <trkpt lat="63.74239" lon="10.23732">
        <ele>144.809128</ele>
        <time>2020-07-15T14:38:26.254Z</time>
      </trkpt>
      <trkpt lat="63.74247" lon="10.23738">
        <ele>144.656675</ele>
        <time>2020-07-15T14:38:27.955Z</time>
      </trkpt>
      <trkpt lat="63.74262" lon="10.23749">
        <ele>144.338549</ele>
        <time>2020-07-15T14:38:30.009Z</time>
      </trkpt>
      <trkpt lat="63.74479" lon="10.238">
        <ele>138.81473</ele>
        <time>2020-07-15T14:38:58.998Z</time>
      </trkpt>
      <trkpt lat="63.74559" lon="10.23834">
        <ele>137.647339</ele>
        <time>2020-07-15T14:39:10.486Z</time>
      </trkpt>
      <trkpt lat="63.74589" lon="10.23817">
        <ele>137.267038</ele>
        <time>2020-07-15T14:39:15.290Z</time>
      </trkpt>
      <trkpt lat="63.74663" lon="10.23742">
        <ele>136.311425</ele>
        <time>2020-07-15T14:39:28.611Z</time>
      </trkpt>
      <trkpt lat="63.74719" lon="10.23713">
        <ele>136.131758</ele>
        <time>2020-07-15T14:39:39.494Z</time>
      </trkpt>
      <trkpt lat="63.74867" lon="10.23716">
        <ele>135.212592</ele>
        <time>2020-07-15T14:40:04.664Z</time>
      </trkpt>
      <trkpt lat="63.74997" lon="10.23685">
        <ele>132.557233</ele>
        <time>2020-07-15T14:40:22.844Z</time>
      </trkpt>
      <trkpt lat="63.75314" lon="10.23732">
        <ele>122.783859</ele>
        <time>2020-07-15T14:41:03.983Z</time>
      </trkpt>
      <trkpt lat="63.75457" lon="10.23713">
        <ele>119.410161</ele>
        <time>2020-07-15T14:41:24.005Z</time>
      </trkpt>
      <trkpt lat="63.75467" lon="10.2371">
        <ele>119.231223</ele>
        <time>2020-07-15T14:41:25.307Z</time>
      </trkpt>
      <trkpt lat="63.75486" lon="10.23707">
        <ele>118.872639</ele>
        <time>2020-07-15T14:41:28.241Z</time>
      </trkpt>
      <trkpt lat="63.75599" lon="10.23694">
        <ele>116.843178</ele>
        <time>2020-07-15T14:41:44.709Z</time>
      </trkpt>
      <trkpt lat="63.75612" lon="10.23696">
        <ele>116.622049</ele>
        <time>2020-07-15T14:41:46.498Z</time>
      </trkpt>
      <trkpt lat="63.7564" lon="10.23704">
        <ele>116.149328</ele>
        <time>2020-07-15T14:41:50.664Z</time>
      </trkpt>
      <trkpt lat="63.75698" lon="10.23737">
        <ele>115.139988</ele>
        <time>2020-07-15T14:41:59.570Z</time>
      </trkpt>
      <trkpt lat="63.75896" lon="10.2389">
        <ele>111.105332</ele>
        <time>2020-07-15T14:42:29.029Z</time>
      </trkpt>
      <trkpt lat="63.75925" lon="10.23911">
        <ele>110.714117</ele>
        <time>2020-07-15T14:42:33.263Z</time>
      </trkpt>
      <trkpt lat="63.75938" lon="10.2392">
        <ele>110.570322</ele>
        <time>2020-07-15T14:42:35.203Z</time>
      </trkpt>
      <trkpt lat="63.7595" lon="10.23927">
        <ele>110.439565</ele>
        <time>2020-07-15T14:42:37.043Z</time>
      </trkpt>
      <trkpt lat="63.75963" lon="10.23932">
        <ele>110.300682</ele>
        <time>2020-07-15T14:42:38.891Z</time>
      </trkpt>
      <trkpt lat="63.76014" lon="10.23926">
        <ele>109.75741</ele>
        <time>2020-07-15T14:42:46.668Z</time>
      </trkpt>
      <trkpt lat="63.76048" lon="10.23906">
        <ele>109.387407</ele>
        <time>2020-07-15T14:42:52.162Z</time>
      </trkpt>
      <trkpt lat="63.76049" lon="10.23905">
        <ele>109.377646</ele>
        <time>2020-07-15T14:42:52.456Z</time>
      </trkpt>
      <trkpt lat="63.76076" lon="10.23898">
        <ele>109.093457</ele>
        <time>2020-07-15T14:42:56.948Z</time>
      </trkpt>
      <trkpt lat="63.76135" lon="10.23911">
        <ele>110.146649</ele>
        <time>2020-07-15T14:43:09.066Z</time>
      </trkpt>
      <trkpt lat="63.76197" lon="10.23891">
        <ele>111.382144</ele>
        <time>2020-07-15T14:43:24.253Z</time>
      </trkpt>
      <trkpt lat="63.76233" lon="10.2389">
        <ele>112.08181</ele>
        <time>2020-07-15T14:43:33.893Z</time>
      </trkpt>
      <trkpt lat="63.76565" lon="10.23989">
        <ele>125.262572</ele>
        <time>2020-07-15T14:45:16.262Z</time>
      </trkpt>
      <trkpt lat="63.76583" lon="10.23992">
        <ele>126.050794</ele>
        <time>2020-07-15T14:45:22.501Z</time>
      </trkpt>
      <trkpt lat="63.76599" lon="10.23993">
        <ele>126.754459</ele>
        <time>2020-07-15T14:45:27.558Z</time>
      </trkpt>
      <trkpt lat="63.76656" lon="10.23985">
        <ele>130.599273</ele>
        <time>2020-07-15T14:45:47.931Z</time>
      </trkpt>
      <trkpt lat="63.76725" lon="10.23941">
        <ele>136.00142</ele>
        <time>2020-07-15T14:46:14.766Z</time>
      </trkpt>
      <trkpt lat="63.76771" lon="10.23889">
        <ele>139.861296</ele>
        <time>2020-07-15T14:46:39.135Z</time>
      </trkpt>
      <trkpt lat="63.76862" lon="10.23749">
        <ele>152.462919</ele>
        <time>2020-07-15T14:47:41.569Z</time>
      </trkpt>
      <trkpt lat="63.7688" lon="10.23728">
        <ele>154.849545</ele>
        <time>2020-07-15T14:47:52.751Z</time>
      </trkpt>
      <trkpt lat="63.76892" lon="10.23716">
        <ele>156.432427</ele>
        <time>2020-07-15T14:48:01.654Z</time>
      </trkpt>
      <trkpt lat="63.76936" lon="10.23683">
        <ele>161.994922</ele>
        <time>2020-07-15T14:48:28.662Z</time>
      </trkpt>
      <trkpt lat="63.76976" lon="10.23667">
        <ele>165.608143</ele>
        <time>2020-07-15T14:48:52.298Z</time>
      </trkpt>
      <trkpt lat="63.77057" lon="10.23654">
        <ele>172.290686</ele>
        <time>2020-07-15T14:49:34.115Z</time>
      </trkpt>
      <trkpt lat="63.77165" lon="10.23654">
        <ele>177.166308</ele>
        <time>2020-07-15T14:50:04.509Z</time>
      </trkpt>
      <trkpt lat="63.77229" lon="10.23662">
        <ele>176.619844</ele>
        <time>2020-07-15T14:50:14.637Z</time>
      </trkpt>
      <trkpt lat="63.77243" lon="10.23664">
        <ele>176.496949</ele>
        <time>2020-07-15T14:50:16.498Z</time>
      </trkpt>
      <trkpt lat="63.77366" lon="10.23649">
        <ele>173.037985</ele>
        <time>2020-07-15T14:50:32.028Z</time>
      </trkpt>
      <trkpt lat="63.77505" lon="10.23595">
        <ele>166.588753</ele>
        <time>2020-07-15T14:50:49.163Z</time>
      </trkpt>
      <trkpt lat="63.7754" lon="10.23566">
        <ele>164.785408</ele>
        <time>2020-07-15T14:50:53.694Z</time>
      </trkpt>
      <trkpt lat="63.77634" lon="10.23403">
        <ele>158.963553</ele>
        <time>2020-07-15T14:51:08.221Z</time>
      </trkpt>
      <trkpt lat="63.77667" lon="10.2333">
        <ele>156.346444</ele>
        <time>2020-07-15T14:51:13.773Z</time>
      </trkpt>
      <trkpt lat="63.77689" lon="10.23243">
        <ele>153.859973</ele>
        <time>2020-07-15T14:51:18.997Z</time>
      </trkpt>
      <trkpt lat="63.777" lon="10.23114">
        <ele>150.536881</ele>
        <time>2020-07-15T14:51:25.897Z</time>
      </trkpt>
      <trkpt lat="63.7773" lon="10.22486">
        <ele>133.897219</ele>
        <time>2020-07-15T14:51:58.424Z</time>
      </trkpt>
      <trkpt lat="63.77732" lon="10.22438">
        <ele>132.795746</ele>
        <time>2020-07-15T14:52:01.028Z</time>
      </trkpt>
      <trkpt lat="63.77737" lon="10.22337">
        <ele>130.498913</ele>
        <time>2020-07-15T14:52:06.555Z</time>
      </trkpt>
      <trkpt lat="63.7774" lon="10.2228">
        <ele>129.20454</ele>
        <time>2020-07-15T14:52:09.672Z</time>
      </trkpt>
      <trkpt lat="63.77755" lon="10.22122">
        <ele>127.579154</ele>
        <time>2020-07-15T14:52:18.891Z</time>
      </trkpt>
      <trkpt lat="63.77785" lon="10.21982">
        <ele>126.695028</ele>
        <time>2020-07-15T14:52:28.820Z</time>
      </trkpt>
      <trkpt lat="63.77789" lon="10.21969">
        <ele>126.602608</ele>
        <time>2020-07-15T14:52:29.750Z</time>
      </trkpt>
      <trkpt lat="63.77796" lon="10.21948">
        <ele>126.446989</ele>
        <time>2020-07-15T14:52:31.796Z</time>
      </trkpt>
      <trkpt lat="63.77831" lon="10.21873">
        <ele>126.16338</ele>
        <time>2020-07-15T14:52:42.622Z</time>
      </trkpt>
      <trkpt lat="63.77863" lon="10.21827">
        <ele>127.13636</ele>
        <time>2020-07-15T14:52:53.857Z</time>
      </trkpt>
      <trkpt lat="63.77899" lon="10.21795">
        <ele>128.110781</ele>
        <time>2020-07-15T14:53:05.744Z</time>
      </trkpt>
      <trkpt lat="63.77941" lon="10.21777">
        <ele>129.20584</ele>
        <time>2020-07-15T14:53:17.953Z</time>
      </trkpt>
      <trkpt lat="63.77953" lon="10.21776">
        <ele>129.513562</ele>
        <time>2020-07-15T14:53:22.002Z</time>
      </trkpt>
      <trkpt lat="63.77978" lon="10.21778">
        <ele>130.133732</ele>
        <time>2020-07-15T14:53:27.033Z</time>
      </trkpt>
      <trkpt lat="63.77988" lon="10.2178">
        <ele>130.388913</ele>
        <time>2020-07-15T14:53:30.072Z</time>
      </trkpt>
      <trkpt lat="63.77995" lon="10.21783">
        <ele>130.397257</ele>
        <time>2020-07-15T14:53:32.075Z</time>
      </trkpt>
      <trkpt lat="63.78008" lon="10.21789">
        <ele>129.86795</ele>
        <time>2020-07-15T14:53:35.141Z</time>
      </trkpt>
      <trkpt lat="63.78056" lon="10.2183">
        <ele>127.759541</ele>
        <time>2020-07-15T14:53:43.024Z</time>
      </trkpt>
      <trkpt lat="63.78074" lon="10.21853">
        <ele>126.921492</ele>
        <time>2020-07-15T14:53:46.303Z</time>
      </trkpt>
      <trkpt lat="63.78079" lon="10.21859">
        <ele>126.697714</ele>
        <time>2020-07-15T14:53:46.884Z</time>
      </trkpt>
      <trkpt lat="63.78219" lon="10.2207">
        <ele>117.374037</ele>
        <time>2020-07-15T14:54:05.874Z</time>
      </trkpt>
      <trkpt lat="63.78257" lon="10.22147">
        <ele>113.743138</ele>
        <time>2020-07-15T14:54:11.672Z</time>
      </trkpt>
      <trkpt lat="63.78294" lon="10.22236">
        <ele>110.228731</ele>
        <time>2020-07-15T14:54:17.867Z</time>
      </trkpt>
      <trkpt lat="63.78406" lon="10.22516">
        <ele>104.971124</ele>
        <time>2020-07-15T14:54:39.879Z</time>
      </trkpt>
      <trkpt lat="63.78483" lon="10.22708">
        <ele>105.018933</ele>
        <time>2020-07-15T14:55:00.000Z</time>
      </trkpt>
      <trkpt lat="63.78614" lon="10.23033">
        <ele>107.741001</ele>
        <time>2020-07-15T14:55:44.071Z</time>
      </trkpt>
      <trkpt lat="63.78635" lon="10.23078">
        <ele>108.349515</ele>
        <time>2020-07-15T14:55:52.489Z</time>
      </trkpt>
      <trkpt lat="63.78665" lon="10.23117">
        <ele>109.069164</ele>
        <time>2020-07-15T14:56:02.180Z</time>
      </trkpt>
      <trkpt lat="63.787" lon="10.23139">
        <ele>109.902987</ele>
        <time>2020-07-15T14:56:12.579Z</time>
      </trkpt>
      <trkpt lat="63.78773" lon="10.23159">
        <ele>111.597923</ele>
        <time>2020-07-15T14:56:32.692Z</time>
      </trkpt>
      <trkpt lat="63.78869" lon="10.23154">
        <ele>112.801576</ele>
        <time>2020-07-15T14:56:53.410Z</time>
      </trkpt>
      <trkpt lat="63.78903" lon="10.23167">
        <ele>112.557641</ele>
        <time>2020-07-15T14:56:59.061Z</time>
      </trkpt>
      <trkpt lat="63.79034" lon="10.23331">
        <ele>111.553002</ele>
        <time>2020-07-15T14:57:20.979Z</time>
      </trkpt>
      <trkpt lat="63.79063" lon="10.2335">
        <ele>111.393468</ele>
        <time>2020-07-15T14:57:25.737Z</time>
      </trkpt>
      <trkpt lat="63.79091" lon="10.23347">
        <ele>111.244824</ele>
        <time>2020-07-15T14:57:30.509Z</time>
      </trkpt>
      <trkpt lat="63.79165" lon="10.23299">
        <ele>110.839232</ele>
        <time>2020-07-15T14:57:44.280Z</time>
      </trkpt>
      <trkpt lat="63.79243" lon="10.23292">
        <ele>110.311319</ele>
        <time>2020-07-15T14:57:58.635Z</time>
      </trkpt>
      <trkpt lat="63.79347" lon="10.23251">
        <ele>109.575432</ele>
        <time>2020-07-15T14:58:15.074Z</time>
      </trkpt>
      <trkpt lat="63.79526" lon="10.23261">
        <ele>106.544826</ele>
        <time>2020-07-15T14:58:39.888Z</time>
      </trkpt>
      <trkpt lat="63.79678" lon="10.2331">
        <ele>107.170506</ele>
        <time>2020-07-15T14:59:09.700Z</time>
      </trkpt>
      <trkpt lat="63.79706" lon="10.23308">
        <ele>107.303518</ele>
        <time>2020-07-15T14:59:16.634Z</time>
      </trkpt>
      <trkpt lat="63.79815" lon="10.23236">
        <ele>108.01168</ele>
        <time>2020-07-15T14:59:42.853Z</time>
      </trkpt>
      <trkpt lat="63.79932" lon="10.23124">
        <ele>107.004625</ele>
        <time>2020-07-15T15:00:02.916Z</time>
      </trkpt>
      <trkpt lat="63.79971" lon="10.23115">
        <ele>106.01678</ele>
        <time>2020-07-15T15:00:08.044Z</time>
      </trkpt>
      <trkpt lat="63.80138" lon="10.23128">
        <ele>101.444978</ele>
        <time>2020-07-15T15:00:29.678Z</time>
      </trkpt>
      <trkpt lat="63.80162" lon="10.23116">
        <ele>100.724491</ele>
        <time>2020-07-15T15:00:33.095Z</time>
      </trkpt>
      <trkpt lat="63.80189" lon="10.23073">
        <ele>99.768031</ele>
        <time>2020-07-15T15:00:37.647Z</time>
      </trkpt>
      <trkpt lat="63.80198" lon="10.2305">
        <ele>99.367763</ele>
        <time>2020-07-15T15:00:39.478Z</time>
      </trkpt>
      <trkpt lat="63.80202" lon="10.23042">
        <ele>99.217279</ele>
        <time>2020-07-15T15:00:40.236Z</time>
      </trkpt>
      <trkpt lat="63.80211" lon="10.23018">
        <ele>98.806594</ele>
        <time>2020-07-15T15:00:42.098Z</time>
      </trkpt>
      <trkpt lat="63.80221" lon="10.22987">
        <ele>98.254761</ele>
        <time>2020-07-15T15:00:44.423Z</time>
      </trkpt>
      <trkpt lat="63.80229" lon="10.22965">
        <ele>97.850608</ele>
        <time>2020-07-15T15:00:46.231Z</time>
      </trkpt>
      <trkpt lat="63.80249" lon="10.229">
        <ele>96.703925</ele>
        <time>2020-07-15T15:00:50.730Z</time>
      </trkpt>
      <trkpt lat="63.80256" lon="10.22878">
        <ele>96.314322</ele>
        <time>2020-07-15T15:00:52.202Z</time>
      </trkpt>
      <trkpt lat="63.8026" lon="10.22864">
        <ele>96.069093</ele>
        <time>2020-07-15T15:00:53.113Z</time>
      </trkpt>
      <trkpt lat="63.80274" lon="10.2282">
        <ele>95.293473</ele>
        <time>2020-07-15T15:00:56.367Z</time>
      </trkpt>
      <trkpt lat="63.80283" lon="10.2279">
        <ele>94.766645</ele>
        <time>2020-07-15T15:00:58.323Z</time>
      </trkpt>
      <trkpt lat="63.80289" lon="10.2277">
        <ele>94.406046</ele>
        <time>2020-07-15T15:00:59.966Z</time>
      </trkpt>
      <trkpt lat="63.80293" lon="10.22761">
        <ele>94.228867</ele>
        <time>2020-07-15T15:01:00.761Z</time>
      </trkpt>
      <trkpt lat="63.80295" lon="10.22756">
        <ele>94.139812</ele>
        <time>2020-07-15T15:01:01.120Z</time>
      </trkpt>
      <trkpt lat="63.803" lon="10.22742">
        <ele>93.865036</ele>
        <time>2020-07-15T15:01:02.130Z</time>
      </trkpt>
      <trkpt lat="63.80323" lon="10.22701">
        <ele>92.922666</ele>
        <time>2020-07-15T15:01:05.977Z</time>
      </trkpt>
      <trkpt lat="63.80327" lon="10.22697">
        <ele>92.777007</ele>
        <time>2020-07-15T15:01:06.498Z</time>
      </trkpt>
      <trkpt lat="63.80338" lon="10.22685">
        <ele>92.444654</ele>
        <time>2020-07-15T15:01:08.053Z</time>
      </trkpt>
      <trkpt lat="63.80375" lon="10.2266">
        <ele>91.475207</ele>
        <time>2020-07-15T15:01:12.901Z</time>
      </trkpt>
      <trkpt lat="63.80384" lon="10.22654">
        <ele>91.246355</ele>
        <time>2020-07-15T15:01:14.234Z</time>
      </trkpt>
      <trkpt lat="63.80391" lon="10.22705">
        <ele>90.657622</ele>
        <time>2020-07-15T15:01:17.139Z</time>
      </trkpt>
      <trkpt lat="63.80411" lon="10.22872">
        <ele>88.726651</ele>
        <time>2020-07-15T15:01:27.749Z</time>
      </trkpt>
      <trkpt lat="63.80413" lon="10.23048">
        <ele>88.316315</ele>
        <time>2020-07-15T15:01:41.684Z</time>
      </trkpt>
      <trkpt lat="63.80417" lon="10.23118">
        <ele>88.377295</ele>
        <time>2020-07-15T15:01:47.527Z</time>
      </trkpt>
      <trkpt lat="63.80434" lon="10.23217">
        <ele>88.468682</ele>
        <time>2020-07-15T15:01:56.471Z</time>
      </trkpt>
      <trkpt lat="63.80456" lon="10.23286">
        <ele>88.541425</ele>
        <time>2020-07-15T15:02:03.897Z</time>
      </trkpt>
      <trkpt lat="63.80536" lon="10.23436">
        <ele>89.745101</ele>
        <time>2020-07-15T15:02:25.700Z</time>
      </trkpt>
      <trkpt lat="63.80568" lon="10.23471">
        <ele>90.174717</ele>
        <time>2020-07-15T15:02:33.706Z</time>
      </trkpt>
      <trkpt lat="63.80604" lon="10.2347">
        <ele>90.614982</ele>
        <time>2020-07-15T15:02:41.915Z</time>
      </trkpt>
      <trkpt lat="63.80687" lon="10.23398">
        <ele>92.866604</ele>
        <time>2020-07-15T15:03:03.020Z</time>
      </trkpt>
      <trkpt lat="63.80692" lon="10.23396">
        <ele>93.024897</ele>
        <time>2020-07-15T15:03:05.034Z</time>
      </trkpt>
      <trkpt lat="63.80704" lon="10.23393">
        <ele>93.3369</ele>
        <time>2020-07-15T15:03:07.568Z</time>
      </trkpt>
      <trkpt lat="63.80744" lon="10.23404">
        <ele>94.449684</ele>
        <time>2020-07-15T15:03:17.813Z</time>
      </trkpt>
      <trkpt lat="63.80883" lon="10.23479">
        <ele>101.548947</ele>
        <time>2020-07-15T15:04:03.851Z</time>
      </trkpt>
      <trkpt lat="63.81204" lon="10.23564">
        <ele>123.019733</ele>
        <time>2020-07-15T15:06:23.235Z</time>
      </trkpt>
      <trkpt lat="63.81266" lon="10.23559">
        <ele>125.504506</ele>
        <time>2020-07-15T15:06:42.835Z</time>
      </trkpt>
      <trkpt lat="63.81594" lon="10.23483">
        <ele>126.96287</ele>
        <time>2020-07-15T15:07:38.083Z</time>
      </trkpt>
      <trkpt lat="63.81686" lon="10.23447">
        <ele>126.871846</ele>
        <time>2020-07-15T15:07:54.161Z</time>
      </trkpt>
      <trkpt lat="63.81731" lon="10.23416">
        <ele>127.574553</ele>
        <time>2020-07-15T15:08:02.465Z</time>
      </trkpt>
      <trkpt lat="63.81841" lon="10.23336">
        <ele>129.299117</ele>
        <time>2020-07-15T15:08:30.992Z</time>
      </trkpt>
      <trkpt lat="63.81867" lon="10.23316">
        <ele>129.979481</ele>
        <time>2020-07-15T15:08:37.451Z</time>
      </trkpt>
      <trkpt lat="63.81873" lon="10.23311">
        <ele>130.189735</ele>
        <time>2020-07-15T15:08:40.084Z</time>
      </trkpt>
      <trkpt lat="63.81922" lon="10.23251">
        <ele>131.904266</ele>
        <time>2020-07-15T15:08:54.601Z</time>
      </trkpt>
      <trkpt lat="63.82011" lon="10.23066">
        <ele>135.217242</ele>
        <time>2020-07-15T15:09:30.652Z</time>
      </trkpt>
      <trkpt lat="63.82039" lon="10.23031">
        <ele>135.47138</ele>
        <time>2020-07-15T15:09:38.951Z</time>
      </trkpt>
      <trkpt lat="63.82074" lon="10.23007">
        <ele>135.753945</ele>
        <time>2020-07-15T15:09:47.154Z</time>
      </trkpt>
      <trkpt lat="63.82128" lon="10.22999">
        <ele>136.177423</ele>
        <time>2020-07-15T15:09:57.437Z</time>
      </trkpt>
      <trkpt lat="63.82458" lon="10.23045">
        <ele>130.822915</ele>
        <time>2020-07-15T15:10:43.120Z</time>
      </trkpt>
      <trkpt lat="63.82523" lon="10.23022">
        <ele>129.809952</ele>
        <time>2020-07-15T15:10:53.186Z</time>
      </trkpt>
      <trkpt lat="63.82667" lon="10.2294">
        <ele>131.236055</ele>
        <time>2020-07-15T15:11:24.967Z</time>
      </trkpt>
      <trkpt lat="63.82683" lon="10.22926">
        <ele>131.398898</ele>
        <time>2020-07-15T15:11:29.104Z</time>
      </trkpt>
      <trkpt lat="63.82685" lon="10.22924">
        <ele>131.423127</ele>
        <time>2020-07-15T15:11:29.969Z</time>
      </trkpt>
      <trkpt lat="63.82791" lon="10.22827">
        <ele>132.780228</ele>
        <time>2020-07-15T15:11:55.809Z</time>
      </trkpt>
      <trkpt lat="63.8288" lon="10.22798">
        <ele>133.850756</ele>
        <time>2020-07-15T15:12:14.279Z</time>
      </trkpt>
      <trkpt lat="63.82971" lon="10.22825">
        <ele>134.757101</ele>
        <time>2020-07-15T15:12:32.302Z</time>
      </trkpt>
      <trkpt lat="63.83177" lon="10.22956">
        <ele>137.699188</ele>
        <time>2020-07-15T15:13:20.504Z</time>
      </trkpt>
      <trkpt lat="63.83218" lon="10.22982">
        <ele>138.38402</ele>
        <time>2020-07-15T15:13:30.701Z</time>
      </trkpt>
      <trkpt lat="63.83249" lon="10.23002">
        <ele>139.204837</ele>
        <time>2020-07-15T15:13:38.337Z</time>
      </trkpt>
      <trkpt lat="63.83341" lon="10.23062">
        <ele>141.615649</ele>
        <time>2020-07-15T15:14:03.172Z</time>
      </trkpt>
      <trkpt lat="63.83412" lon="10.23076">
        <ele>143.503752</ele>
        <time>2020-07-15T15:14:22.724Z</time>
      </trkpt>
      <trkpt lat="63.83432" lon="10.23074">
        <ele>144.07077</ele>
        <time>2020-07-15T15:14:27.520Z</time>
      </trkpt>
      <trkpt lat="63.83438" lon="10.23072">
        <ele>144.261182</ele>
        <time>2020-07-15T15:14:30.162Z</time>
      </trkpt>
      <trkpt lat="63.83514" lon="10.23043">
        <ele>146.497862</ele>
        <time>2020-07-15T15:14:52.270Z</time>
      </trkpt>
      <trkpt lat="63.83585" lon="10.22991">
        <ele>148.035705</ele>
        <time>2020-07-15T15:15:12.323Z</time>
      </trkpt>
      <trkpt lat="63.83599" lon="10.22977">
        <ele>147.908815</ele>
        <time>2020-07-15T15:15:15.983Z</time>
      </trkpt>
      <trkpt lat="63.83651" lon="10.22925">
        <ele>147.449141</ele>
        <time>2020-07-15T15:15:24.749Z</time>
      </trkpt>
      <trkpt lat="63.83723" lon="10.22873">
        <ele>146.838961</ele>
        <time>2020-07-15T15:15:35.475Z</time>
      </trkpt>
      <trkpt lat="63.83743" lon="10.22865">
        <ele>146.622747</ele>
        <time>2020-07-15T15:15:38.222Z</time>
      </trkpt>
      <trkpt lat="63.83762" lon="10.22859">
        <ele>146.257716</ele>
        <time>2020-07-15T15:15:40.761Z</time>
      </trkpt>
      <trkpt lat="63.83855" lon="10.22859">
        <ele>144.558689</ele>
        <time>2020-07-15T15:15:53.039Z</time>
      </trkpt>
      <trkpt lat="63.84005" lon="10.22918">
        <ele>144.996487</ele>
        <time>2020-07-15T15:16:19.975Z</time>
      </trkpt>
      <trkpt lat="63.84165" lon="10.22918">
        <ele>149.675161</ele>
        <time>2020-07-15T15:17:07.006Z</time>
      </trkpt>
      <trkpt lat="63.84239" lon="10.22877">
        <ele>153.02821</ele>
        <time>2020-07-15T15:17:33.001Z</time>
      </trkpt>
      <trkpt lat="63.84339" lon="10.22754">
        <ele>156.696383</ele>
        <time>2020-07-15T15:18:10.421Z</time>
      </trkpt>
      <trkpt lat="63.84381" lon="10.22717">
        <ele>157.902736</ele>
        <time>2020-07-15T15:18:22.378Z</time>
      </trkpt>
      <trkpt lat="63.84394" lon="10.22709">
        <ele>158.272071</ele>
        <time>2020-07-15T15:18:26.590Z</time>
      </trkpt>
      <trkpt lat="63.844" lon="10.22705">
        <ele>158.456519</ele>
        <time>2020-07-15T15:18:27.647Z</time>
      </trkpt>
      <trkpt lat="63.84844" lon="10.22486">
        <ele>156.066286</ele>
        <time>2020-07-15T15:19:38.268Z</time>
      </trkpt>
      <trkpt lat="63.84904" lon="10.22472">
        <ele>155.852998</ele>
        <time>2020-07-15T15:19:48.278Z</time>
      </trkpt>
      <trkpt lat="63.85202" lon="10.22453">
        <ele>156.842762</ele>
        <time>2020-07-15T15:20:45.124Z</time>
      </trkpt>
      <trkpt lat="63.85249" lon="10.22451">
        <ele>157.274936</ele>
        <time>2020-07-15T15:20:54.492Z</time>
      </trkpt>
      <trkpt lat="63.85274" lon="10.2245">
        <ele>157.50592</ele>
        <time>2020-07-15T15:20:59.771Z</time>
      </trkpt>
      <trkpt lat="63.85317" lon="10.22452">
        <ele>157.901034</ele>
        <time>2020-07-15T15:21:09.029Z</time>
      </trkpt>
      <trkpt lat="63.85356" lon="10.22469">
        <ele>158.938177</ele>
        <time>2020-07-15T15:21:18.364Z</time>
      </trkpt>
      <trkpt lat="63.85462" lon="10.22591">
        <ele>162.386938</ele>
        <time>2020-07-15T15:21:50.567Z</time>
      </trkpt>
      <trkpt lat="63.85501" lon="10.22619">
        <ele>163.747668</ele>
        <time>2020-07-15T15:22:03.467Z</time>
      </trkpt>
      <trkpt lat="63.85579" lon="10.22652">
        <ele>167.074553</ele>
        <time>2020-07-15T15:22:30.324Z</time>
      </trkpt>
      <trkpt lat="63.85634" lon="10.22665">
        <ele>169.387589</ele>
        <time>2020-07-15T15:22:47.483Z</time>
      </trkpt>
      <trkpt lat="63.85655" lon="10.22665">
        <ele>170.30514</ele>
        <time>2020-07-15T15:22:54.277Z</time>
      </trkpt>
      <trkpt lat="63.85673" lon="10.22664">
        <ele>170.845372</ele>
        <time>2020-07-15T15:22:59.195Z</time>
      </trkpt>
      <trkpt lat="63.85725" lon="10.22651">
        <ele>171.548565</ele>
        <time>2020-07-15T15:23:13.193Z</time>
      </trkpt>
      <trkpt lat="63.85778" lon="10.2262">
        <ele>172.295765</ele>
        <time>2020-07-15T15:23:26.043Z</time>
      </trkpt>
      <trkpt lat="63.86066" lon="10.22372">
        <ele>170.8526</ele>
        <time>2020-07-15T15:24:15.487Z</time>
      </trkpt>
      <trkpt lat="63.86145" lon="10.22338">
        <ele>169.471639</ele>
        <time>2020-07-15T15:24:26.909Z</time>
      </trkpt>
      <trkpt lat="63.86292" lon="10.22331">
        <ele>165.821862</ele>
        <time>2020-07-15T15:24:46.686Z</time>
      </trkpt>
      <trkpt lat="63.86376" lon="10.22311">
        <ele>163.6169</ele>
        <time>2020-07-15T15:24:57.833Z</time>
      </trkpt>
      <trkpt lat="63.86448" lon="10.22265">
        <ele>162.069863</ele>
        <time>2020-07-15T15:25:08.007Z</time>
      </trkpt>
      <trkpt lat="63.86523" lon="10.2218">
        <ele>160.329425</ele>
        <time>2020-07-15T15:25:20.100Z</time>
      </trkpt>
      <trkpt lat="63.86541" lon="10.22159">
        <ele>160.227189</ele>
        <time>2020-07-15T15:25:23.158Z</time>
      </trkpt>
      <trkpt lat="63.86558" lon="10.22142">
        <ele>160.272322</ele>
        <time>2020-07-15T15:25:25.985Z</time>
      </trkpt>
      <trkpt lat="63.86608" lon="10.2211">
        <ele>160.398489</ele>
        <time>2020-07-15T15:25:34.281Z</time>
      </trkpt>
      <trkpt lat="63.86748" lon="10.22066">
        <ele>162.011926</ele>
        <time>2020-07-15T15:26:05.413Z</time>
      </trkpt>
      <trkpt lat="63.8681" lon="10.22038">
        <ele>163.93735</ele>
        <time>2020-07-15T15:26:23.342Z</time>
      </trkpt>
      <trkpt lat="63.86899" lon="10.21931">
        <ele>166.88193</ele>
        <time>2020-07-15T15:26:54.399Z</time>
      </trkpt>
      <trkpt lat="63.86945" lon="10.21893">
        <ele>168.242303</ele>
        <time>2020-07-15T15:27:09.314Z</time>
      </trkpt>
      <trkpt lat="63.86985" lon="10.21881">
        <ele>169.348918</ele>
        <time>2020-07-15T15:27:20.603Z</time>
      </trkpt>
      <trkpt lat="63.87188" lon="10.21865">
        <ele>172.09878</ele>
        <time>2020-07-15T15:28:02.833Z</time>
      </trkpt>
      <trkpt lat="63.87267" lon="10.21846">
        <ele>172.797098</ele>
        <time>2020-07-15T15:28:17.103Z</time>
      </trkpt>
      <trkpt lat="63.87356" lon="10.21802">
        <ele>173.680778</ele>
        <time>2020-07-15T15:28:35.753Z</time>
      </trkpt>
      <trkpt lat="63.87588" lon="10.21635">
        <ele>176.706801</ele>
        <time>2020-07-15T15:29:33.970Z</time>
      </trkpt>
      <trkpt lat="63.87676" lon="10.2159">
        <ele>175.070509</ele>
        <time>2020-07-15T15:29:47.590Z</time>
      </trkpt>
      <trkpt lat="63.87741" lon="10.21589">
        <ele>173.89289</ele>
        <time>2020-07-15T15:29:55.975Z</time>
      </trkpt>
      <trkpt lat="63.88035" lon="10.2165">
        <ele>161.579465</ele>
        <time>2020-07-15T15:30:31.980Z</time>
      </trkpt>
      <trkpt lat="63.8816" lon="10.21624">
        <ele>158.345934</ele>
        <time>2020-07-15T15:30:49.480Z</time>
      </trkpt>
      <trkpt lat="63.88293" lon="10.21569">
        <ele>156.961851</ele>
        <time>2020-07-15T15:31:11.489Z</time>
      </trkpt>
      <trkpt lat="63.88366" lon="10.21567">
        <ele>156.786552</ele>
        <time>2020-07-15T15:31:23.716Z</time>
      </trkpt>
      <trkpt lat="63.88555" lon="10.21589">
        <ele>156.599545</ele>
        <time>2020-07-15T15:31:57.042Z</time>
      </trkpt>
      <trkpt lat="63.88707" lon="10.21535">
        <ele>156.256994</ele>
        <time>2020-07-15T15:32:25.646Z</time>
      </trkpt>
      <trkpt lat="63.88928" lon="10.21505">
        <ele>150.92263</ele>
        <time>2020-07-15T15:32:59.645Z</time>
      </trkpt>
      <trkpt lat="63.88994" lon="10.21515">
        <ele>148.002628</ele>
        <time>2020-07-15T15:33:07.034Z</time>
      </trkpt>
      <trkpt lat="63.89051" lon="10.21553">
        <ele>142.483273</ele>
        <time>2020-07-15T15:33:13.621Z</time>
      </trkpt>
      <trkpt lat="63.89058" lon="10.21561">
        <ele>141.687536</ele>
        <time>2020-07-15T15:33:14.420Z</time>
      </trkpt>
      <trkpt lat="63.89072" lon="10.21579">
        <ele>140.081476</ele>
        <time>2020-07-15T15:33:16.266Z</time>
      </trkpt>
      <trkpt lat="63.89075" lon="10.21584">
        <ele>139.685488</ele>
        <time>2020-07-15T15:33:16.694Z</time>
      </trkpt>
      <trkpt lat="63.89081" lon="10.21595">
        <ele>138.947264</ele>
        <time>2020-07-15T15:33:17.539Z</time>
      </trkpt>
      <trkpt lat="63.89085" lon="10.21602">
        <ele>138.425696</ele>
        <time>2020-07-15T15:33:18.066Z</time>
      </trkpt>
      <trkpt lat="63.89111" lon="10.21667">
        <ele>134.524732</ele>
        <time>2020-07-15T15:33:22.244Z</time>
      </trkpt>
      <trkpt lat="63.89165" lon="10.21881">
        <ele>126.718163</ele>
        <time>2020-07-15T15:33:34.203Z</time>
      </trkpt>
      <trkpt lat="63.89201" lon="10.21983">
        <ele>123.984587</ele>
        <time>2020-07-15T15:33:41.629Z</time>
      </trkpt>
      <trkpt lat="63.8951" lon="10.22642">
        <ele>116.526263</ele>
        <time>2020-07-15T15:34:45.782Z</time>
      </trkpt>
      <trkpt lat="63.89544" lon="10.22701">
        <ele>115.769073</ele>
        <time>2020-07-15T15:34:52.282Z</time>
      </trkpt>
      <trkpt lat="63.89593" lon="10.22759">
        <ele>114.769441</ele>
        <time>2020-07-15T15:35:00.606Z</time>
      </trkpt>
      <trkpt lat="63.89645" lon="10.22805">
        <ele>113.780953</ele>
        <time>2020-07-15T15:35:08.484Z</time>
      </trkpt>
      <trkpt lat="63.89759" lon="10.22816">
        <ele>110.565665</ele>
        <time>2020-07-15T15:35:23.513Z</time>
      </trkpt>
      <trkpt lat="63.89815" lon="10.22838">
        <ele>108.784586</ele>
        <time>2020-07-15T15:35:30.916Z</time>
      </trkpt>
      <trkpt lat="63.89863" lon="10.2287">
        <ele>106.960698</ele>
        <time>2020-07-15T15:35:37.502Z</time>
      </trkpt>
      <trkpt lat="63.89901" lon="10.22914">
        <ele>105.006481</ele>
        <time>2020-07-15T15:35:42.940Z</time>
      </trkpt>
      <trkpt lat="63.89994" lon="10.23082">
        <ele>99.475787</ele>
        <time>2020-07-15T15:35:57.669Z</time>
      </trkpt>
      <trkpt lat="63.90048" lon="10.23141">
        <ele>93.487394</ele>
        <time>2020-07-15T15:36:04.351Z</time>
      </trkpt>
      <trkpt lat="63.90077" lon="10.23155">
        <ele>90.419144</ele>
        <time>2020-07-15T15:36:07.577Z</time>
      </trkpt>
      <trkpt lat="63.90109" lon="10.23157">
        <ele>87.149062</ele>
        <time>2020-07-15T15:36:10.990Z</time>
      </trkpt>
      <trkpt lat="63.90175" lon="10.23128">
        <ele>80.30711</ele>
        <time>2020-07-15T15:36:18.102Z</time>
      </trkpt>
      <trkpt lat="63.90192" lon="10.23121">
        <ele>78.589139</ele>
        <time>2020-07-15T15:36:19.894Z</time>
      </trkpt>
      <trkpt lat="63.90209" lon="10.23115">
        <ele>76.846807</ele>
        <time>2020-07-15T15:36:21.801Z</time>
      </trkpt>
      <trkpt lat="63.90261" lon="10.23115">
        <ele>71.63632</ele>
        <time>2020-07-15T15:36:27.359Z</time>
      </trkpt>
      <trkpt lat="63.90299" lon="10.23151">
        <ele>67.477191</ele>
        <time>2020-07-15T15:36:31.884Z</time>
      </trkpt>
      <trkpt lat="63.90329" lon="10.23217">
        <ele>63.343987</ele>
        <time>2020-07-15T15:36:36.494Z</time>
      </trkpt>
      <trkpt lat="63.90376" lon="10.23394">
        <ele>59.841091</ele>
        <time>2020-07-15T15:36:48.477Z</time>
      </trkpt>
      <trkpt lat="63.90388" lon="10.23502">
        <ele>58.103228</ele>
        <time>2020-07-15T15:36:55.134Z</time>
      </trkpt>
      <trkpt lat="63.90383" lon="10.23724">
        <ele>54.714895</ele>
        <time>2020-07-15T15:37:08.321Z</time>
      </trkpt>
      <trkpt lat="63.90396" lon="10.24039">
        <ele>50.203479</ele>
        <time>2020-07-15T15:37:26.033Z</time>
      </trkpt>
      <trkpt lat="63.90409" lon="10.24152">
        <ele>49.125827</ele>
        <time>2020-07-15T15:37:32.706Z</time>
      </trkpt>
      <trkpt lat="63.90429" lon="10.24236">
        <ele>48.235486</ele>
        <time>2020-07-15T15:37:38.532Z</time>
      </trkpt>
      <trkpt lat="63.90463" lon="10.24312">
        <ele>47.233432</ele>
        <time>2020-07-15T15:37:45.603Z</time>
      </trkpt>
      <trkpt lat="63.90606" lon="10.24516">
        <ele>47.206192</ele>
        <time>2020-07-15T15:38:17.529Z</time>
      </trkpt>
      <trkpt lat="63.90663" lon="10.24623">
        <ele>47.680867</ele>
        <time>2020-07-15T15:38:32.149Z</time>
      </trkpt>
      <trkpt lat="63.9073" lon="10.24704">
        <ele>48.402191</ele>
        <time>2020-07-15T15:38:49.481Z</time>
      </trkpt>
      <trkpt lat="63.90737" lon="10.24711">
        <ele>48.472718</ele>
        <time>2020-07-15T15:38:50.553Z</time>
      </trkpt>
      <trkpt lat="63.90742" lon="10.24718">
        <ele>48.529601</ele>
        <time>2020-07-15T15:38:51.654Z</time>
      </trkpt>
      <trkpt lat="63.90752" lon="10.24733">
        <ele>48.64125</ele>
        <time>2020-07-15T15:38:55.072Z</time>
      </trkpt>
      <trkpt lat="63.90793" lon="10.24822">
        <ele>48.614773</ele>
        <time>2020-07-15T15:39:06.524Z</time>
      </trkpt>
      <trkpt lat="63.90839" lon="10.24887">
        <ele>47.245474</ele>
        <time>2020-07-15T15:39:16.474Z</time>
      </trkpt>
      <trkpt lat="63.90894" lon="10.24997">
        <ele>45.389407</ele>
        <time>2020-07-15T15:39:26.494Z</time>
      </trkpt>
      <trkpt lat="63.90925" lon="10.25037">
        <ele>44.488128</ele>
        <time>2020-07-15T15:39:30.742Z</time>
      </trkpt>
      <trkpt lat="63.90956" lon="10.25055">
        <ele>41.286175</ele>
        <time>2020-07-15T15:39:34.328Z</time>
      </trkpt>
      <trkpt lat="63.91001" lon="10.25052">
        <ele>36.596062</ele>
        <time>2020-07-15T15:39:39.190Z</time>
      </trkpt>
      <trkpt lat="63.91039" lon="10.2502">
        <ele>32.433202</ele>
        <time>2020-07-15T15:39:43.459Z</time>
      </trkpt>
      <trkpt lat="63.91073" lon="10.24955">
        <ele>27.800755</ele>
        <time>2020-07-15T15:39:48.260Z</time>
      </trkpt>
      <trkpt lat="63.91096" lon="10.24862">
        <ele>23.960053</ele>
        <time>2020-07-15T15:39:53.338Z</time>
      </trkpt>
      <trkpt lat="63.911" lon="10.24832">
        <ele>23.045371</ele>
        <time>2020-07-15T15:39:54.745Z</time>
      </trkpt>
      <trkpt lat="63.91101" lon="10.24812">
        <ele>22.429535</ele>
        <time>2020-07-15T15:39:55.787Z</time>
      </trkpt>
      <trkpt lat="63.91096" lon="10.24501">
        <ele>13.548314</ele>
        <time>2020-07-15T15:40:11.940Z</time>
      </trkpt>
      <trkpt lat="63.91092" lon="10.24343">
        <ele>13.127673</ele>
        <time>2020-07-15T15:40:25.460Z</time>
      </trkpt>
      <trkpt lat="63.91089" lon="10.24263">
        <ele>12.912892</ele>
        <time>2020-07-15T15:40:32.201Z</time>
      </trkpt>
      <trkpt lat="63.91082" lon="10.24099">
        <ele>12.495831</ele>
        <time>2020-07-15T15:40:45.627Z</time>
      </trkpt>
      <trkpt lat="63.91075" lon="10.24029">
        <ele>12.431268</ele>
        <time>2020-07-15T15:40:51.261Z</time>
      </trkpt>
      <trkpt lat="63.91061" lon="10.23957">
        <ele>12.361622</ele>
        <time>2020-07-15T15:40:57.173Z</time>
      </trkpt>
      <trkpt lat="63.91022" lon="10.23809">
        <ele>12.206212</ele>
        <time>2020-07-15T15:41:09.994Z</time>
      </trkpt>
      <trkpt lat="63.91006" lon="10.23687">
        <ele>12.473589</ele>
        <time>2020-07-15T15:41:19.333Z</time>
      </trkpt>
      <trkpt lat="63.91005" lon="10.23578">
        <ele>13.152674</ele>
        <time>2020-07-15T15:41:28.015Z</time>
      </trkpt>
      <trkpt lat="63.91012" lon="10.23506">
        <ele>13.615759</ele>
        <time>2020-07-15T15:41:34.581Z</time>
      </trkpt>
      <trkpt lat="63.91026" lon="10.23445">
        <ele>14.049211</ele>
        <time>2020-07-15T15:41:41.260Z</time>
      </trkpt>
      <trkpt lat="63.91055" lon="10.23379">
        <ele>14.631744</ele>
        <time>2020-07-15T15:41:50.968Z</time>
      </trkpt>
      <trkpt lat="63.91328" lon="10.23026">
        <ele>38.590982</ele>
        <time>2020-07-15T15:43:53.333Z</time>
      </trkpt>
      <trkpt lat="63.91367" lon="10.2299">
        <ele>42.870029</ele>
        <time>2020-07-15T15:44:23.389Z</time>
      </trkpt>
      <trkpt lat="63.91404" lon="10.22978">
        <ele>48.665385</ele>
        <time>2020-07-15T15:44:52.619Z</time>
      </trkpt>
      <trkpt lat="63.91431" lon="10.22987">
        <ele>53.451568</ele>
        <time>2020-07-15T15:45:16.344Z</time>
      </trkpt>
      <trkpt lat="63.91572" lon="10.23124">
        <ele>74.879004</ele>
        <time>2020-07-15T15:47:11.962Z</time>
      </trkpt>
      <trkpt lat="63.91624" lon="10.23142">
        <ele>75.004506</ele>
        <time>2020-07-15T15:47:29.257Z</time>
      </trkpt>
      <trkpt lat="63.91656" lon="10.23137">
        <ele>75.081321</ele>
        <time>2020-07-15T15:47:34.020Z</time>
      </trkpt>
      <trkpt lat="63.91703" lon="10.23117">
        <ele>75.193479</ele>
        <time>2020-07-15T15:47:39.411Z</time>
      </trkpt>
      <trkpt lat="63.91989" lon="10.22933">
        <ele>30.537788</ele>
        <time>2020-07-15T15:48:09.939Z</time>
      </trkpt>
      <trkpt lat="63.92033" lon="10.2288">
        <ele>23.374194</ele>
        <time>2020-07-15T15:48:15.252Z</time>
      </trkpt>
      <trkpt lat="63.92069" lon="10.22795">
        <ele>18.110704</ele>
        <time>2020-07-15T15:48:20.966Z</time>
      </trkpt>
      <trkpt lat="63.92073" lon="10.2278">
        <ele>17.755173</ele>
        <time>2020-07-15T15:48:21.863Z</time>
      </trkpt>
      <trkpt lat="63.92078" lon="10.2276">
        <ele>17.300627</ele>
        <time>2020-07-15T15:48:23.079Z</time>
      </trkpt>
      <trkpt lat="63.9209" lon="10.22703">
        <ele>16.114256</ele>
        <time>2020-07-15T15:48:26.334Z</time>
      </trkpt>
      <trkpt lat="63.92099" lon="10.22612">
        <ele>14.313955</ele>
        <time>2020-07-15T15:48:31.694Z</time>
      </trkpt>
      <trkpt lat="63.92104" lon="10.22438">
        <ele>11.165799</ele>
        <time>2020-07-15T15:48:42.495Z</time>
      </trkpt>
      <trkpt lat="63.92102" lon="10.22288">
        <ele>11.065781</ele>
        <time>2020-07-15T15:48:53.830Z</time>
      </trkpt>
      <trkpt lat="63.92094" lon="10.2216">
        <ele>10.979565</ele>
        <time>2020-07-15T15:49:03.984Z</time>
      </trkpt>
      <trkpt lat="63.92034" lon="10.21703">
        <ele>12.508603</ele>
        <time>2020-07-15T15:49:46.009Z</time>
      </trkpt>
      <trkpt lat="63.92029" lon="10.21618">
        <ele>13.363729</ele>
        <time>2020-07-15T15:49:55.008Z</time>
      </trkpt>
      <trkpt lat="63.92044" lon="10.21549">
        <ele>14.767863</ele>
        <time>2020-07-15T15:50:04.171Z</time>
      </trkpt>
      <trkpt lat="63.92069" lon="10.21504">
        <ele>16.060142</ele>
        <time>2020-07-15T15:50:13.506Z</time>
      </trkpt>
      <trkpt lat="63.92097" lon="10.21487">
        <ele>17.275368</ele>
        <time>2020-07-15T15:50:23.027Z</time>
      </trkpt>
      <trkpt lat="63.92133" lon="10.21495">
        <ele>18.758108</ele>
        <time>2020-07-15T15:50:35.526Z</time>
      </trkpt>
      <trkpt lat="63.92162" lon="10.21512">
        <ele>19.978225</ele>
        <time>2020-07-15T15:50:46.521Z</time>
      </trkpt>
      <trkpt lat="63.92174" lon="10.21519">
        <ele>20.627728</ele>
        <time>2020-07-15T15:50:51.102Z</time>
      </trkpt>
      <trkpt lat="63.92217" lon="10.21543">
        <ele>23.111391</ele>
        <time>2020-07-15T15:51:07.976Z</time>
      </trkpt>
      <trkpt lat="63.92297" lon="10.21589">
        <ele>27.752883</ele>
        <time>2020-07-15T15:51:40.090Z</time>
      </trkpt>
      <trkpt lat="63.92315" lon="10.216">
        <ele>28.81182</ele>
        <time>2020-07-15T15:51:46.595Z</time>
      </trkpt>
      <trkpt lat="63.92381" lon="10.21665">
        <ele>30.16939</ele>
        <time>2020-07-15T15:52:07.507Z</time>
      </trkpt>
      <trkpt lat="63.92423" lon="10.21729">
        <ele>30.112113</ele>
        <time>2020-07-15T15:52:18.553Z</time>
      </trkpt>
      <trkpt lat="63.92708" lon="10.22384">
        <ele>20.795401</ele>
        <time>2020-07-15T15:53:10.776Z</time>
      </trkpt>
      <trkpt lat="63.92741" lon="10.22453">
        <ele>20.244552</ele>
        <time>2020-07-15T15:53:20.016Z</time>
      </trkpt>
      <trkpt lat="63.92772" lon="10.22504">
        <ele>21.485836</ele>
        <time>2020-07-15T15:53:30.527Z</time>
      </trkpt>
      <trkpt lat="63.92775" lon="10.22507">
        <ele>21.587335</ele>
        <time>2020-07-15T15:53:31.951Z</time>
      </trkpt>
      <trkpt lat="63.92782" lon="10.22515">
        <ele>21.858118</ele>
        <time>2020-07-15T15:53:35.343Z</time>
      </trkpt>
      <trkpt lat="63.92792" lon="10.22524">
        <ele>22.205062</ele>
        <time>2020-07-15T15:53:38.200Z</time>
      </trkpt>
      <trkpt lat="63.92801" lon="10.22531">
        <ele>22.502583</ele>
        <time>2020-07-15T15:53:40.553Z</time>
      </trkpt>
      <trkpt lat="63.92815" lon="10.22539">
        <ele>22.964235</ele>
        <time>2020-07-15T15:53:46.540Z</time>
      </trkpt>
      <trkpt lat="63.92842" lon="10.22548">
        <ele>23.850377</ele>
        <time>2020-07-15T15:53:55.216Z</time>
      </trkpt>
      <trkpt lat="63.9286" lon="10.2255">
        <ele>24.434008</ele>
        <time>2020-07-15T15:54:02.197Z</time>
      </trkpt>
      <trkpt lat="63.92936" lon="10.22547">
        <ele>25.145778</ele>
        <time>2020-07-15T15:54:22.597Z</time>
      </trkpt>
      <trkpt lat="63.92999" lon="10.22545">
        <ele>23.843087</ele>
        <time>2020-07-15T15:54:33.907Z</time>
      </trkpt>
      <trkpt lat="63.93016" lon="10.22545">
        <ele>23.470878</ele>
        <time>2020-07-15T15:54:36.092Z</time>
      </trkpt>
      <trkpt lat="63.93072" lon="10.22543">
        <ele>22.314473</ele>
        <time>2020-07-15T15:54:42.959Z</time>
      </trkpt>
      <trkpt lat="63.93091" lon="10.22541">
        <ele>21.535438</ele>
        <time>2020-07-15T15:54:45.126Z</time>
      </trkpt>
      <trkpt lat="63.9312" lon="10.22534">
        <ele>19.692284</ele>
        <time>2020-07-15T15:54:48.286Z</time>
      </trkpt>
      <trkpt lat="63.93148" lon="10.22513">
        <ele>17.729304</ele>
        <time>2020-07-15T15:54:51.673Z</time>
      </trkpt>
      <trkpt lat="63.9317" lon="10.2248">
        <ele>16.018255</ele>
        <time>2020-07-15T15:54:54.609Z</time>
      </trkpt>
      <trkpt lat="63.93189" lon="10.2243">
        <ele>14.136745</ele>
        <time>2020-07-15T15:54:57.949Z</time>
      </trkpt>
      <trkpt lat="63.93194" lon="10.2241">
        <ele>13.459581</ele>
        <time>2020-07-15T15:54:59.152Z</time>
      </trkpt>
      <trkpt lat="63.93199" lon="10.22388">
        <ele>12.762285</ele>
        <time>2020-07-15T15:55:00.379Z</time>
      </trkpt>
      <trkpt lat="63.93231" lon="10.22272">
        <ele>10.02329</ele>
        <time>2020-07-15T15:55:08.012Z</time>
      </trkpt>
      <trkpt lat="63.93256" lon="10.2221">
        <ele>9.454893</ele>
        <time>2020-07-15T15:55:12.887Z</time>
      </trkpt>
      <trkpt lat="63.9328" lon="10.22177">
        <ele>9.014667</ele>
        <time>2020-07-15T15:55:16.898Z</time>
      </trkpt>
      <trkpt lat="63.933" lon="10.22163">
        <ele>8.68896</ele>
        <time>2020-07-15T15:55:19.724Z</time>
      </trkpt>
      <trkpt lat="63.93333" lon="10.22162">
        <ele>8.169783</ele>
        <time>2020-07-15T15:55:26.087Z</time>
      </trkpt>
      <trkpt lat="63.93555" lon="10.22206">
        <ele>8.934859</ele>
        <time>2020-07-15T15:56:14.113Z</time>
      </trkpt>
      <trkpt lat="63.93597" lon="10.22226">
        <ele>8.5464</ele>
        <time>2020-07-15T15:56:20.244Z</time>
      </trkpt>
      <trkpt lat="63.93617" lon="10.22245">
        <ele>8.351166</ele>
        <time>2020-07-15T15:56:23.346Z</time>
      </trkpt>
      <trkpt lat="63.93626" lon="10.22253">
        <ele>8.263681</ele>
        <time>2020-07-15T15:56:24.788Z</time>
      </trkpt>
      <trkpt lat="63.93648" lon="10.22274">
        <ele>8.045619</ele>
        <time>2020-07-15T15:56:28.143Z</time>
      </trkpt>
      <trkpt lat="63.93673" lon="10.22298">
        <ele>7.80349</ele>
        <time>2020-07-15T15:56:32.287Z</time>
      </trkpt>
      <trkpt lat="63.93691" lon="10.22315">
        <ele>7.626387</ele>
        <time>2020-07-15T15:56:35.356Z</time>
      </trkpt>
      <trkpt lat="63.93701" lon="10.22324">
        <ele>7.530481</ele>
        <time>2020-07-15T15:56:36.964Z</time>
      </trkpt>
      <trkpt lat="63.93708" lon="10.22329">
        <ele>7.460165</ele>
        <time>2020-07-15T15:56:38.200Z</time>
      </trkpt>
      <trkpt lat="63.93741" lon="10.22344">
        <ele>8.061044</ele>
        <time>2020-07-15T15:56:43.769Z</time>
      </trkpt>
      <trkpt lat="63.93749" lon="10.22345">
        <ele>8.323324</ele>
        <time>2020-07-15T15:56:45.090Z</time>
      </trkpt>
      <trkpt lat="63.9377" lon="10.22351">
        <ele>9.004432</ele>
        <time>2020-07-15T15:56:48.996Z</time>
      </trkpt>
      <trkpt lat="63.93782" lon="10.22353">
        <ele>9.390347</ele>
        <time>2020-07-15T15:56:51.277Z</time>
      </trkpt>
      <trkpt lat="63.93794" lon="10.22354">
        <ele>9.804501</ele>
        <time>2020-07-15T15:56:54.051Z</time>
      </trkpt>
      <trkpt lat="63.9381" lon="10.22355">
        <ele>10.295977</ele>
        <time>2020-07-15T15:56:57.865Z</time>
      </trkpt>
      <trkpt lat="63.93838" lon="10.22343">
        <ele>11.216681</ele>
        <time>2020-07-15T15:57:05.971Z</time>
      </trkpt>
      <trkpt lat="63.9391" lon="10.22271">
        <ele>15.114914</ele>
        <time>2020-07-15T15:57:37.434Z</time>
      </trkpt>
      <trkpt lat="63.93951" lon="10.22244">
        <ele>19.553262</ele>
        <time>2020-07-15T15:57:57.677Z</time>
      </trkpt>
      <trkpt lat="63.93994" lon="10.22237">
        <ele>24.037855</ele>
        <time>2020-07-15T15:58:20.199Z</time>
      </trkpt>
      <trkpt lat="63.94071" lon="10.22247">
        <ele>31.987074</ele>
        <time>2020-07-15T15:59:04.567Z</time>
      </trkpt>
      <trkpt lat="63.94143" lon="10.22261">
        <ele>39.017235</ele>
        <time>2020-07-15T15:59:45.673Z</time>
      </trkpt>
      <trkpt lat="63.94181" lon="10.22269">
        <ele>42.666058</ele>
        <time>2020-07-15T16:00:04.882Z</time>
      </trkpt>
      <trkpt lat="63.9421" lon="10.22276">
        <ele>45.426549</ele>
        <time>2020-07-15T16:00:18.494Z</time>
      </trkpt>
      <trkpt lat="63.94284" lon="10.22302">
        <ele>49.175996</ele>
        <time>2020-07-15T16:00:48.589Z</time>
      </trkpt>
      <trkpt lat="63.94462" lon="10.22391">
        <ele>46.721614</ele>
        <time>2020-07-15T16:01:13.974Z</time>
      </trkpt>
      <trkpt lat="63.94484" lon="10.22402">
        <ele>45.337133</ele>
        <time>2020-07-15T16:01:16.481Z</time>
      </trkpt>
      <trkpt lat="63.9451" lon="10.22416">
        <ele>43.703525</ele>
        <time>2020-07-15T16:01:19.472Z</time>
      </trkpt>
      <trkpt lat="63.94632" lon="10.22478">
        <ele>36.88453</ele>
        <time>2020-07-15T16:01:33.725Z</time>
      </trkpt>
      <trkpt lat="63.9473" lon="10.22527">
        <ele>33.435133</ele>
        <time>2020-07-15T16:01:46.405Z</time>
      </trkpt>
      <trkpt lat="63.94989" lon="10.2266">
        <ele>33.688021</ele>
        <time>2020-07-15T16:02:40.800Z</time>
      </trkpt>
      <trkpt lat="63.95132" lon="10.2267">
        <ele>35.98531</ele>
        <time>2020-07-15T16:03:11.264Z</time>
      </trkpt>
      <trkpt lat="63.9518" lon="10.22674">
        <ele>39.540191</ele>
        <time>2020-07-15T16:03:26.723Z</time>
      </trkpt>
      <trkpt lat="63.95225" lon="10.22677">
        <ele>42.842508</ele>
        <time>2020-07-15T16:03:45.898Z</time>
      </trkpt>
      <trkpt lat="63.95282" lon="10.22682">
        <ele>47.070355</ele>
        <time>2020-07-15T16:04:14.731Z</time>
      </trkpt>
      <trkpt lat="63.95304" lon="10.22685">
        <ele>48.727606</ele>
        <time>2020-07-15T16:04:28.613Z</time>
      </trkpt>
      <trkpt lat="63.95457" lon="10.22701">
        <ele>57.417559</ele>
        <time>2020-07-15T16:05:34.379Z</time>
      </trkpt>
      <trkpt lat="63.95457" lon="10.22684">
        <ele>57.836976</ele>
        <time>2020-07-15T16:05:35.772Z</time>
      </trkpt>
      <trkpt lat="63.95462" lon="10.22685">
        <ele>58.11232</ele>
        <time>2020-07-15T16:05:36.372Z</time>
      </trkpt>
      <trkpt lat="63.956" lon="10.227">
        <ele>52.364727</ele>
        <time>2020-07-15T16:05:53.857Z</time>
      </trkpt>
      <trkpt lat="63.95807" lon="10.22723">
        <ele>32.184166</ele>
        <time>2020-07-15T16:06:16.195Z</time>
      </trkpt>
      <trkpt lat="63.9586" lon="10.22721">
        <ele>26.087647</ele>
        <time>2020-07-15T16:06:21.827Z</time>
      </trkpt>
      <trkpt lat="63.95897" lon="10.22697">
        <ele>21.729537</ele>
        <time>2020-07-15T16:06:25.810Z</time>
      </trkpt>
      <trkpt lat="63.95908" lon="10.22686">
        <ele>20.265634</ele>
        <time>2020-07-15T16:06:27.092Z</time>
      </trkpt>
      <trkpt lat="63.95911" lon="10.22698">
        <ele>19.586769</ele>
        <time>2020-07-15T16:06:28.045Z</time>
      </trkpt>
      <trkpt lat="63.95913" lon="10.22706">
        <ele>19.177383</ele>
        <time>2020-07-15T16:06:28.629Z</time>
      </trkpt>
      <trkpt lat="63.95925" lon="10.22691">
        <ele>17.535799</ele>
        <time>2020-07-15T16:06:30.192Z</time>
      </trkpt>
      <trkpt lat="63.95926" lon="10.2269">
        <ele>17.43035</ele>
        <time>2020-07-15T16:06:30.294Z</time>
      </trkpt>
      <trkpt lat="63.95936" lon="10.22677">
        <ele>16.122063</ele>
        <time>2020-07-15T16:06:31.465Z</time>
      </trkpt>
      <trkpt lat="63.95966" lon="10.2263">
        <ele>11.939412</ele>
        <time>2020-07-15T16:06:35.375Z</time>
      </trkpt>
      <trkpt lat="63.95974" lon="10.22617">
        <ele>10.719054</ele>
        <time>2020-07-15T16:06:36.693Z</time>
      </trkpt>
      <trkpt lat="63.95982" lon="10.22604">
        <ele>9.603739</ele>
        <time>2020-07-15T16:06:37.809Z</time>
      </trkpt>
      <trkpt lat="63.95989" lon="10.22593">
        <ele>8.621047</ele>
        <time>2020-07-15T16:06:38.693Z</time>
      </trkpt>
      <trkpt lat="63.95995" lon="10.22584">
        <ele>7.782428</ele>
        <time>2020-07-15T16:06:39.460Z</time>
      </trkpt>
      <trkpt lat="63.96024" lon="10.22538">
        <ele>6.579094</ele>
        <time>2020-07-15T16:06:43.350Z</time>
      </trkpt>
      <trkpt lat="63.96033" lon="10.22523">
        <ele>6.2489</ele>
        <time>2020-07-15T16:06:44.907Z</time>
      </trkpt>
      <trkpt lat="63.96065" lon="10.22471">
        <ele>5.086706</ele>
        <time>2020-07-15T16:06:49.847Z</time>
      </trkpt>
      <trkpt lat="63.96071" lon="10.22462">
        <ele>4.873829</ele>
        <time>2020-07-15T16:06:50.913Z</time>
      </trkpt>
      <trkpt lat="63.96088" lon="10.22433">
        <ele>4.239251</ele>
        <time>2020-07-15T16:06:53.997Z</time>
      </trkpt>
      <trkpt lat="63.96104" lon="10.22412">
        <ele>3.711412</ele>
        <time>2020-07-15T16:06:57.096Z</time>
      </trkpt>
      <trkpt lat="63.96129" lon="10.22379">
        <ele>2.854351</ele>
        <time>2020-07-15T16:07:02.882Z</time>
      </trkpt>
      <trkpt lat="63.9613" lon="10.22384">
        <ele>2.7717</ele>
        <time>2020-07-15T16:07:03.686Z</time>
      </trkpt>
      <trkpt lat="63.96133" lon="10.22394">
        <ele>2.615606</ele>
        <time>2020-07-15T16:07:04.751Z</time>
      </trkpt>
      <trkpt lat="63.96145" lon="10.22375">
        <ele>2.295078</ele>
        <time>2020-07-15T16:07:07.600Z</time>
      </trkpt>
      <trkpt lat="63.96159" lon="10.22357">
        <ele>2.86931</ele>
        <time>2020-07-15T16:07:12.154Z</time>
      </trkpt>
      <trkpt lat="63.9617" lon="10.22342">
        <ele>3.307794</ele>
        <time>2020-07-15T16:07:14.940Z</time>
      </trkpt>
      <trkpt lat="63.96178" lon="10.22332">
        <ele>3.606794</ele>
        <time>2020-07-15T16:07:16.858Z</time>
      </trkpt>
      <trkpt lat="63.9625" lon="10.22264">
        <ele>6.257898</ele>
        <time>2020-07-15T16:07:40.752Z</time>
      </trkpt>
      <trkpt lat="63.96256" lon="10.22258">
        <ele>6.494189</ele>
        <time>2020-07-15T16:07:43.441Z</time>
      </trkpt>
      <trkpt lat="63.96323" lon="10.22203">
        <ele>8.843882</ele>
        <time>2020-07-15T16:08:07.455Z</time>
      </trkpt>
      <trkpt lat="63.96339" lon="10.22188">
        <ele>9.321812</ele>
        <time>2020-07-15T16:08:12.843Z</time>
      </trkpt>
      <trkpt lat="63.96345" lon="10.22182">
        <ele>9.507202</ele>
        <time>2020-07-15T16:08:14.737Z</time>
      </trkpt>
      <trkpt lat="63.96348" lon="10.22179">
        <ele>9.596315</ele>
        <time>2020-07-15T16:08:16.227Z</time>
      </trkpt>
      <trkpt lat="63.96358" lon="10.22169">
        <ele>9.915212</ele>
        <time>2020-07-15T16:08:20.025Z</time>
      </trkpt>
      <trkpt lat="63.96414" lon="10.22116">
        <ele>11.613086</ele>
        <time>2020-07-15T16:08:38.209Z</time>
      </trkpt>
      <trkpt lat="63.9646" lon="10.22071">
        <ele>13.044583</ele>
        <time>2020-07-15T16:08:50.534Z</time>
      </trkpt>
      <trkpt lat="63.96485" lon="10.22043">
        <ele>13.200376</ele>
        <time>2020-07-15T16:08:55.986Z</time>
      </trkpt>
      <trkpt lat="63.96508" lon="10.22002">
        <ele>12.57844</ele>
        <time>2020-07-15T16:09:00.488Z</time>
      </trkpt>
      <trkpt lat="63.96512" lon="10.21998">
        <ele>12.484355</ele>
        <time>2020-07-15T16:09:01.048Z</time>
      </trkpt>
      <trkpt lat="63.96517" lon="10.21988">
        <ele>12.333875</ele>
        <time>2020-07-15T16:09:02.044Z</time>
      </trkpt>
      <trkpt lat="63.96519" lon="10.21982">
        <ele>12.26411</ele>
        <time>2020-07-15T16:09:02.581Z</time>
      </trkpt>
      <trkpt lat="63.96523" lon="10.21967">
        <ele>12.095233</ele>
        <time>2020-07-15T16:09:04.053Z</time>
      </trkpt>
      <trkpt lat="63.96528" lon="10.21953">
        <ele>11.936398</ele>
        <time>2020-07-15T16:09:05.428Z</time>
      </trkpt>
      <trkpt lat="63.96531" lon="10.21959">
        <ele>11.850848</ele>
        <time>2020-07-15T16:09:05.886Z</time>
      </trkpt>
      <trkpt lat="63.96568" lon="10.22026">
        <ele>10.819682</ele>
        <time>2020-07-15T16:09:12.498Z</time>
      </trkpt>
      <trkpt lat="63.96582" lon="10.22065">
        <ele>10.342438</ele>
        <time>2020-07-15T16:09:15.760Z</time>
      </trkpt>
      <trkpt lat="63.96587" lon="10.22083">
        <ele>10.142212</ele>
        <time>2020-07-15T16:09:16.884Z</time>
      </trkpt>
      <trkpt lat="63.96591" lon="10.22098">
        <ele>9.972542</ele>
        <time>2020-07-15T16:09:17.986Z</time>
      </trkpt>
      <trkpt lat="63.96597" lon="10.22112">
        <ele>9.794219</ele>
        <time>2020-07-15T16:09:19.383Z</time>
      </trkpt>
      <trkpt lat="63.96609" lon="10.22116">
        <ele>9.505466</ele>
        <time>2020-07-15T16:09:20.966Z</time>
      </trkpt>
      <trkpt lat="63.96616" lon="10.22115">
        <ele>9.306399</ele>
        <time>2020-07-15T16:09:21.796Z</time>
      </trkpt>
      <trkpt lat="63.96618" lon="10.22127">
        <ele>9.147787</ele>
        <time>2020-07-15T16:09:22.784Z</time>
      </trkpt>
      <trkpt lat="63.96618" lon="10.22129">
        <ele>9.110628</ele>
        <time>2020-07-15T16:09:23.014Z</time>
      </trkpt>
      <trkpt lat="63.96634" lon="10.22128">
        <ele>8.647222</ele>
        <time>2020-07-15T16:09:25.533Z</time>
      </trkpt>
      <trkpt lat="63.96643" lon="10.22125">
        <ele>8.391001</ele>
        <time>2020-07-15T16:09:26.582Z</time>
      </trkpt>
      <trkpt lat="63.9665" lon="10.22121">
        <ele>8.204851</ele>
        <time>2020-07-15T16:09:27.383Z</time>
      </trkpt>
      <trkpt lat="63.96665" lon="10.2211">
        <ele>7.733036</ele>
        <time>2020-07-15T16:09:29.894Z</time>
      </trkpt>
      <trkpt lat="63.96675" lon="10.22141">
        <ele>7.25756</ele>
        <time>2020-07-15T16:09:32.018Z</time>
      </trkpt>
      <trkpt lat="63.96681" lon="10.22177">
        <ele>6.764535</ele>
        <time>2020-07-15T16:09:34.577Z</time>
      </trkpt>
      <trkpt lat="63.96682" lon="10.22199">
        <ele>6.479115</ele>
        <time>2020-07-15T16:09:36.052Z</time>
      </trkpt>
      <trkpt lat="63.96687" lon="10.22253">
        <ele>5.797007</ele>
        <time>2020-07-15T16:09:39.227Z</time>
      </trkpt>
      <trkpt lat="63.96689" lon="10.22281">
        <ele>5.429678</ele>
        <time>2020-07-15T16:09:41.197Z</time>
      </trkpt>
      <trkpt lat="63.96691" lon="10.22291">
        <ele>5.292406</ele>
        <time>2020-07-15T16:09:41.814Z</time>
      </trkpt>
      <trkpt lat="63.96692" lon="10.22305">
        <ele>5.119185</ele>
        <time>2020-07-15T16:09:42.656Z</time>
      </trkpt>
      <trkpt lat="63.96702" lon="10.22344">
        <ele>4.5508</ele>
        <time>2020-07-15T16:09:45.842Z</time>
      </trkpt>
      <trkpt lat="63.96716" lon="10.22373">
        <ele>4.31093</ele>
        <time>2020-07-15T16:09:48.663Z</time>
      </trkpt>
      <trkpt lat="63.96832" lon="10.22504">
        <ele>3.391834</ele>
        <time>2020-07-15T16:10:09.872Z</time>
      </trkpt>
      <trkpt lat="63.96837" lon="10.22527">
        <ele>3.309289</ele>
        <time>2020-07-15T16:10:12.193Z</time>
      </trkpt>
      <trkpt lat="63.96837" lon="10.22544">
        <ele>3.258084</ele>
        <time>2020-07-15T16:10:13.684Z</time>
      </trkpt>
      <trkpt lat="63.96896" lon="10.22532">
        <ele>3.553428</ele>
        <time>2020-07-15T16:10:25.280Z</time>
      </trkpt>
      <trkpt lat="63.96912" lon="10.2253">
        <ele>3.713051</ele>
        <time>2020-07-15T16:10:28.731Z</time>
      </trkpt>
      <trkpt lat="63.96972" lon="10.22528">
        <ele>4.314659</ele>
        <time>2020-07-15T16:10:41.420Z</time>
      </trkpt>
      <trkpt lat="63.97001" lon="10.22542">
        <ele>4.61695</ele>
        <time>2020-07-15T16:10:48.012Z</time>
      </trkpt>
      <trkpt lat="63.97032" lon="10.2257">
        <ele>4.956736</ele>
        <time>2020-07-15T16:10:55.503Z</time>
      </trkpt>
      <trkpt lat="63.9707" lon="10.2263">
        <ele>6.02345</ele>
        <time>2020-07-15T16:11:06.049Z</time>
      </trkpt>
      <trkpt lat="63.97158" lon="10.22809">
        <ele>8.714278</ele>
        <time>2020-07-15T16:11:34.900Z</time>
      </trkpt>
      <trkpt lat="63.97195" lon="10.22885">
        <ele>11.08259</ele>
        <time>2020-07-15T16:11:50.415Z</time>
      </trkpt>
      <trkpt lat="63.97209" lon="10.22915">
        <ele>12.217334</ele>
        <time>2020-07-15T16:11:56.421Z</time>
      </trkpt>
      <trkpt lat="63.97219" lon="10.22937">
        <ele>12.997487</ele>
        <time>2020-07-15T16:12:01.376Z</time>
      </trkpt>
      <trkpt lat="63.97235" lon="10.22971">
        <ele>14.321924</ele>
        <time>2020-07-15T16:12:08.879Z</time>
      </trkpt>
      <trkpt lat="63.97245" lon="10.2299">
        <ele>15.042079</ele>
        <time>2020-07-15T16:12:13.803Z</time>
      </trkpt>
      <trkpt lat="63.9749" lon="10.23525">
        <ele>39.664994</ele>
        <time>2020-07-15T16:14:38.024Z</time>
      </trkpt>
      <trkpt lat="63.97558" lon="10.23658">
        <ele>46.545662</ele>
        <time>2020-07-15T16:15:16.876Z</time>
      </trkpt>
      <trkpt lat="63.97567" lon="10.23673">
        <ele>47.272149</ele>
        <time>2020-07-15T16:15:21.592Z</time>
      </trkpt>
      <trkpt lat="63.97581" lon="10.237">
        <ele>48.114289</ele>
        <time>2020-07-15T16:15:29.165Z</time>
      </trkpt>
      <trkpt lat="63.9766" lon="10.23855">
        <ele>52.911756</ele>
        <time>2020-07-15T16:16:06.498Z</time>
      </trkpt>
      <trkpt lat="63.97709" lon="10.23986">
        <ele>55.119986</ele>
        <time>2020-07-15T16:16:25.158Z</time>
      </trkpt>
      <trkpt lat="63.97934" lon="10.24798">
        <ele>47.416226</ele>
        <time>2020-07-15T16:17:24.430Z</time>
      </trkpt>
      <trkpt lat="63.97952" lon="10.24855">
        <ele>46.642549</ele>
        <time>2020-07-15T16:17:28.558Z</time>
      </trkpt>
      <trkpt lat="63.97957" lon="10.24871">
        <ele>46.420073</ele>
        <time>2020-07-15T16:17:29.901Z</time>
      </trkpt>
      <trkpt lat="63.98075" lon="10.25241">
        <ele>39.548172</ele>
        <time>2020-07-15T16:17:56.012Z</time>
      </trkpt>
      <trkpt lat="63.98095" lon="10.25345">
        <ele>37.550525</ele>
        <time>2020-07-15T16:18:02.002Z</time>
      </trkpt>
      <trkpt lat="63.98124" lon="10.25619">
        <ele>31.81568</ele>
        <time>2020-07-15T16:18:16.852Z</time>
      </trkpt>
      <trkpt lat="63.98146" lon="10.25736">
        <ele>29.673236</ele>
        <time>2020-07-15T16:18:23.806Z</time>
      </trkpt>
      <trkpt lat="63.98359" lon="10.26523">
        <ele>26.731939</ele>
        <time>2020-07-15T16:19:29.795Z</time>
      </trkpt>
      <trkpt lat="63.98433" lon="10.26867">
        <ele>27.75736</ele>
        <time>2020-07-15T16:20:03.283Z</time>
      </trkpt>
      <trkpt lat="63.98462" lon="10.26985">
        <ele>28.683362</ele>
        <time>2020-07-15T16:20:16.849Z</time>
      </trkpt>
      <trkpt lat="63.98526" lon="10.2718">
        <ele>30.612394</ele>
        <time>2020-07-15T16:20:43.162Z</time>
      </trkpt>
      <trkpt lat="63.98674" lon="10.27518">
        <ele>35.269846</ele>
        <time>2020-07-15T16:21:37.377Z</time>
      </trkpt>
      <trkpt lat="63.98773" lon="10.27781">
        <ele>37.768548</ele>
        <time>2020-07-15T16:22:11.706Z</time>
      </trkpt>
      <trkpt lat="63.98873" lon="10.28111">
        <ele>39.725069</ele>
        <time>2020-07-15T16:22:47.727Z</time>
      </trkpt>
      <trkpt lat="63.98965" lon="10.28452">
        <ele>42.087405</ele>
        <time>2020-07-15T16:23:29.168Z</time>
      </trkpt>
      <trkpt lat="63.98981" lon="10.28517">
        <ele>42.195678</ele>
        <time>2020-07-15T16:23:36.147Z</time>
      </trkpt>
      <trkpt lat="63.98991" lon="10.2856">
        <ele>42.264921</ele>
        <time>2020-07-15T16:23:40.346Z</time>
      </trkpt>
      <trkpt lat="63.99012" lon="10.28646">
        <ele>42.407355</ele>
        <time>2020-07-15T16:23:48.098Z</time>
      </trkpt>
      <trkpt lat="63.99048" lon="10.28792">
        <ele>42.339174</ele>
        <time>2020-07-15T16:24:00.239Z</time>
      </trkpt>
      <trkpt lat="63.99078" lon="10.28913">
        <ele>41.492392</ele>
        <time>2020-07-15T16:24:08.954Z</time>
      </trkpt>
      <trkpt lat="63.99185" lon="10.29333">
        <ele>39.23305</ele>
        <time>2020-07-15T16:24:40.284Z</time>
      </trkpt>
      <trkpt lat="63.99196" lon="10.29368">
        <ele>39.087901</ele>
        <time>2020-07-15T16:24:43.773Z</time>
      </trkpt>
      <trkpt lat="63.99198" lon="10.29375">
        <ele>39.059152</ele>
        <time>2020-07-15T16:24:44.373Z</time>
      </trkpt>
      <trkpt lat="63.99238" lon="10.29473">
        <ele>38.981109</ele>
        <time>2020-07-15T16:24:55.581Z</time>
      </trkpt>
      <trkpt lat="63.99255" lon="10.2951">
        <ele>39.462326</ele>
        <time>2020-07-15T16:25:00.299Z</time>
      </trkpt>
      <trkpt lat="63.99263" lon="10.29525">
        <ele>39.659879</ele>
        <time>2020-07-15T16:25:02.521Z</time>
      </trkpt>
      <trkpt lat="63.99322" lon="10.29621">
        <ele>41.126321</ele>
        <time>2020-07-15T16:25:18.959Z</time>
      </trkpt>
      <trkpt lat="63.9945" lon="10.29776">
        <ele>45.32555</ele>
        <time>2020-07-15T16:26:02.551Z</time>
      </trkpt>
      <trkpt lat="63.99476" lon="10.29813">
        <ele>46.425139</ele>
        <time>2020-07-15T16:26:11.905Z</time>
      </trkpt>
      <trkpt lat="63.99483" lon="10.29823">
        <ele>46.711989</ele>
        <time>2020-07-15T16:26:15.115Z</time>
      </trkpt>
      <trkpt lat="63.99503" lon="10.29854">
        <ele>47.550175</ele>
        <time>2020-07-15T16:26:21.586Z</time>
      </trkpt>
      <trkpt lat="63.99512" lon="10.2987">
        <ele>47.952658</ele>
        <time>2020-07-15T16:26:25.703Z</time>
      </trkpt>
      <trkpt lat="63.99518" lon="10.2988">
        <ele>48.223479</ele>
        <time>2020-07-15T16:26:28.056Z</time>
      </trkpt>
      <trkpt lat="63.99559" lon="10.29968">
        <ele>48.430286</ele>
        <time>2020-07-15T16:26:40.656Z</time>
      </trkpt>
      <trkpt lat="63.99562" lon="10.2998">
        <ele>48.391636</ele>
        <time>2020-07-15T16:26:42.957Z</time>
      </trkpt>
      <trkpt lat="63.99571" lon="10.30006">
        <ele>48.3073</ele>
        <time>2020-07-15T16:26:46.258Z</time>
      </trkpt>
      <trkpt lat="63.99601" lon="10.30132">
        <ele>47.926541</ele>
        <time>2020-07-15T16:26:56.049Z</time>
      </trkpt>
      <trkpt lat="63.99605" lon="10.30155">
        <ele>47.861013</ele>
        <time>2020-07-15T16:26:57.557Z</time>
      </trkpt>
      <trkpt lat="63.99608" lon="10.3017">
        <ele>47.819169</ele>
        <time>2020-07-15T16:26:58.353Z</time>
      </trkpt>
      <trkpt lat="63.99621" lon="10.30294">
        <ele>46.775585</ele>
        <time>2020-07-15T16:27:05.735Z</time>
      </trkpt>
      <trkpt lat="63.99626" lon="10.30378">
        <ele>45.227008</ele>
        <time>2020-07-15T16:27:10.279Z</time>
      </trkpt>
      <trkpt lat="63.99629" lon="10.30431">
        <ele>44.260506</ele>
        <time>2020-07-15T16:27:13.015Z</time>
      </trkpt>
      <trkpt lat="63.99637" lon="10.3052">
        <ele>42.605561</ele>
        <time>2020-07-15T16:27:17.899Z</time>
      </trkpt>
      <trkpt lat="63.99652" lon="10.30614">
        <ele>40.775628</ele>
        <time>2020-07-15T16:27:23.517Z</time>
      </trkpt>
      <trkpt lat="63.99658" lon="10.30642">
        <ele>40.210317</ele>
        <time>2020-07-15T16:27:25.154Z</time>
      </trkpt>
      <trkpt lat="63.99664" lon="10.30666">
        <ele>39.967327</ele>
        <time>2020-07-15T16:27:26.745Z</time>
      </trkpt>
      <trkpt lat="63.9967" lon="10.30696">
        <ele>39.714748</ele>
        <time>2020-07-15T16:27:28.709Z</time>
      </trkpt>
      <trkpt lat="63.99699" lon="10.30823">
        <ele>38.646628</ele>
        <time>2020-07-15T16:27:37.676Z</time>
      </trkpt>
      <trkpt lat="63.99733" lon="10.30975">
        <ele>37.363458</ele>
        <time>2020-07-15T16:27:49.008Z</time>
      </trkpt>
      <trkpt lat="63.99747" lon="10.31037">
        <ele>36.992533</ele>
        <time>2020-07-15T16:27:54.296Z</time>
      </trkpt>
      <trkpt lat="63.99782" lon="10.31194">
        <ele>36.6</ele>
        <time>2020-07-15T16:28:07.212Z</time>
      </trkpt>
      <trkpt lat="63.99813" lon="10.31314">
        <ele>36.287756</ele>
        <time>2020-07-15T16:28:17.456Z</time>
      </trkpt>
      <trkpt lat="63.99848" lon="10.31413">
        <ele>36.088515</ele>
        <time>2020-07-15T16:28:26.549Z</time>
      </trkpt>
      <trkpt lat="63.99858" lon="10.31435">
        <ele>36.060563</ele>
        <time>2020-07-15T16:28:28.697Z</time>
      </trkpt>
      <trkpt lat="63.99875" lon="10.3147">
        <ele>36.014472</ele>
        <time>2020-07-15T16:28:32.588Z</time>
      </trkpt>
      <trkpt lat="63.99957" lon="10.31618">
        <ele>35.802306</ele>
        <time>2020-07-15T16:28:50.502Z</time>
      </trkpt>
      <trkpt lat="64.00004" lon="10.31725">
        <ele>36.764735</ele>
        <time>2020-07-15T16:29:03.728Z</time>
      </trkpt>
      <trkpt lat="64.00024" lon="10.31779">
        <ele>37.313857</ele>
        <time>2020-07-15T16:29:10.566Z</time>
      </trkpt>
      <trkpt lat="64.00078" lon="10.31922">
        <ele>38.778075</ele>
        <time>2020-07-15T16:29:30.823Z</time>
      </trkpt>
      <trkpt lat="64.00085" lon="10.31941">
        <ele>38.971194</ele>
        <time>2020-07-15T16:29:33.721Z</time>
      </trkpt>
      <trkpt lat="64.00224" lon="10.32427">
        <ele>51.553534</ele>
        <time>2020-07-15T16:30:57.760Z</time>
      </trkpt>
      <trkpt lat="64.00352" lon="10.32802">
        <ele>63.474244</ele>
        <time>2020-07-15T16:32:22.981Z</time>
      </trkpt>
      <trkpt lat="64.00494" lon="10.33319">
        <ele>73.589044</ele>
        <time>2020-07-15T16:33:34.684Z</time>
      </trkpt>
      <trkpt lat="64.00546" lon="10.33444">
        <ele>77.685078</ele>
        <time>2020-07-15T16:34:00.594Z</time>
      </trkpt>
      <trkpt lat="64.00637" lon="10.33589">
        <ele>83.527128</ele>
        <time>2020-07-15T16:34:43.342Z</time>
      </trkpt>
      <trkpt lat="64.0066" lon="10.33632">
        <ele>84.846871</ele>
        <time>2020-07-15T16:34:54.412Z</time>
      </trkpt>
      <trkpt lat="64.00675" lon="10.33666">
        <ele>85.786357</ele>
        <time>2020-07-15T16:35:01.753Z</time>
      </trkpt>
      <trkpt lat="64.0071" lon="10.33756">
        <ele>88.122872</ele>
        <time>2020-07-15T16:35:18.616Z</time>
      </trkpt>
      <trkpt lat="64.00782" lon="10.34014">
        <ele>93.339855</ele>
        <time>2020-07-15T16:35:53.908Z</time>
      </trkpt>
      <trkpt lat="64.00828" lon="10.34144">
        <ele>95.867785</ele>
        <time>2020-07-15T16:36:14.594Z</time>
      </trkpt>
      <trkpt lat="64.00862" lon="10.34223">
        <ele>97.839757</ele>
        <time>2020-07-15T16:36:31.092Z</time>
      </trkpt>
      <trkpt lat="64.01" lon="10.34475">
        <ele>106.12868</ele>
        <time>2020-07-15T16:37:34.075Z</time>
      </trkpt>
      <trkpt lat="64.01048" lon="10.34577">
        <ele>106.622546</ele>
        <time>2020-07-15T16:37:49.568Z</time>
      </trkpt>
      <trkpt lat="64.01061" lon="10.34612">
        <ele>106.774292</ele>
        <time>2020-07-15T16:37:53.441Z</time>
      </trkpt>
      <trkpt lat="64.01066" lon="10.34624">
        <ele>106.828861</ele>
        <time>2020-07-15T16:37:54.820Z</time>
      </trkpt>
      <trkpt lat="64.0108" lon="10.34662">
        <ele>106.995056</ele>
        <time>2020-07-15T16:37:57.991Z</time>
      </trkpt>
      <trkpt lat="64.01183" lon="10.34972">
        <ele>107.427205</ele>
        <time>2020-07-15T16:38:22.440Z</time>
      </trkpt>
      <trkpt lat="64.0122" lon="10.3507">
        <ele>107.448743</ele>
        <time>2020-07-15T16:38:35.945Z</time>
      </trkpt>
      <trkpt lat="64.01399" lon="10.35458">
        <ele>120.150452</ele>
        <time>2020-07-15T16:40:06.018Z</time>
      </trkpt>
      <trkpt lat="64.01495" lon="10.35718">
        <ele>126.896108</ele>
        <time>2020-07-15T16:40:54.836Z</time>
      </trkpt>
      <trkpt lat="64.01516" lon="10.35783">
        <ele>127.929948</ele>
        <time>2020-07-15T16:41:04.667Z</time>
      </trkpt>
      <trkpt lat="64.01539" lon="10.35851">
        <ele>129.020624</ele>
        <time>2020-07-15T16:41:14.689Z</time>
      </trkpt>
      <trkpt lat="64.01797" lon="10.36627">
        <ele>137.381279</ele>
        <time>2020-07-15T16:42:56.719Z</time>
      </trkpt>
      <trkpt lat="64.01814" lon="10.36681">
        <ele>137.093438</ele>
        <time>2020-07-15T16:43:02.674Z</time>
      </trkpt>
      <trkpt lat="64.01819" lon="10.36699">
        <ele>136.904751</ele>
        <time>2020-07-15T16:43:04.322Z</time>
      </trkpt>
      <trkpt lat="64.01838" lon="10.36771">
        <ele>136.189175</ele>
        <time>2020-07-15T16:43:10.500Z</time>
      </trkpt>
      <trkpt lat="64.01856" lon="10.36872">
        <ele>135.261027</ele>
        <time>2020-07-15T16:43:17.493Z</time>
      </trkpt>
      <trkpt lat="64.01857" lon="10.36881">
        <ele>135.179644</ele>
        <time>2020-07-15T16:43:18.075Z</time>
      </trkpt>
      <trkpt lat="64.0186" lon="10.36905">
        <ele>134.969563</ele>
        <time>2020-07-15T16:43:19.573Z</time>
      </trkpt>
      <trkpt lat="64.01877" lon="10.37134">
        <ele>129.140512</ele>
        <time>2020-07-15T16:43:31.866Z</time>
      </trkpt>
      <trkpt lat="64.01891" lon="10.37197">
        <ele>126.259614</ele>
        <time>2020-07-15T16:43:35.328Z</time>
      </trkpt>
      <trkpt lat="64.01917" lon="10.37274">
        <ele>122.29682</ele>
        <time>2020-07-15T16:43:39.961Z</time>
      </trkpt>
      <trkpt lat="64.01963" lon="10.37353">
        <ele>116.695271</ele>
        <time>2020-07-15T16:43:46.130Z</time>
      </trkpt>
      <trkpt lat="64.02139" lon="10.37551">
        <ele>87.300354</ele>
        <time>2020-07-15T16:44:06.386Z</time>
      </trkpt>
      <trkpt lat="64.02169" lon="10.37603">
        <ele>82.870924</ele>
        <time>2020-07-15T16:44:10.332Z</time>
      </trkpt>
      <trkpt lat="64.02197" lon="10.37675">
        <ele>77.945934</ele>
        <time>2020-07-15T16:44:14.802Z</time>
      </trkpt>
      <trkpt lat="64.02205" lon="10.37705">
        <ele>76.134644</ele>
        <time>2020-07-15T16:44:16.402Z</time>
      </trkpt>
      <trkpt lat="64.02225" lon="10.37786">
        <ele>71.413759</ele>
        <time>2020-07-15T16:44:20.907Z</time>
      </trkpt>
      <trkpt lat="64.02232" lon="10.37815">
        <ele>69.676199</ele>
        <time>2020-07-15T16:44:22.997Z</time>
      </trkpt>
      <trkpt lat="64.02238" lon="10.37836">
        <ele>68.601394</ele>
        <time>2020-07-15T16:44:24.181Z</time>
      </trkpt>
      <trkpt lat="64.02248" lon="10.37869">
        <ele>68.965286</ele>
        <time>2020-07-15T16:44:26.432Z</time>
      </trkpt>
      <trkpt lat="64.02259" lon="10.37905">
        <ele>69.373078</ele>
        <time>2020-07-15T16:44:28.897Z</time>
      </trkpt>
      <trkpt lat="64.02289" lon="10.37971">
        <ele>70.24234</ele>
        <time>2020-07-15T16:44:35.294Z</time>
      </trkpt>
      <trkpt lat="64.02297" lon="10.37987">
        <ele>70.46558</ele>
        <time>2020-07-15T16:44:39.097Z</time>
      </trkpt>
      <trkpt lat="64.02339" lon="10.38058">
        <ele>71.553444</ele>
        <time>2020-07-15T16:44:59.399Z</time>
      </trkpt>
      <trkpt lat="64.02396" lon="10.38172">
        <ele>74.65793</ele>
        <time>2020-07-15T16:45:31.609Z</time>
      </trkpt>
      <trkpt lat="64.02532" lon="10.38527">
        <ele>84.682517</ele>
        <time>2020-07-15T16:46:45.422Z</time>
      </trkpt>
      <trkpt lat="64.02562" lon="10.38627">
        <ele>85.898119</ele>
        <time>2020-07-15T16:46:56.165Z</time>
      </trkpt>
      <trkpt lat="64.02603" lon="10.38839">
        <ele>88.348574</ele>
        <time>2020-07-15T16:47:13.947Z</time>
      </trkpt>
      <trkpt lat="64.02636" lon="10.38967">
        <ele>90.058154</ele>
        <time>2020-07-15T16:47:28.021Z</time>
      </trkpt>
      <trkpt lat="64.02678" lon="10.39083">
        <ele>91.775284</ele>
        <time>2020-07-15T16:47:48.227Z</time>
      </trkpt>
      <trkpt lat="64.02788" lon="10.39343">
        <ele>102.429896</ele>
        <time>2020-07-15T16:48:55.942Z</time>
      </trkpt>
      <trkpt lat="64.02818" lon="10.39417">
        <ele>104.960992</ele>
        <time>2020-07-15T16:49:13.683Z</time>
      </trkpt>
      <trkpt lat="64.02842" lon="10.39477">
        <ele>106.020108</ele>
        <time>2020-07-15T16:49:26.369Z</time>
      </trkpt>
      <trkpt lat="64.02979" lon="10.39856">
        <ele>110.886123</ele>
        <time>2020-07-15T16:50:15.129Z</time>
      </trkpt>
      <trkpt lat="64.03053" lon="10.40061">
        <ele>112.586892</ele>
        <time>2020-07-15T16:50:37.073Z</time>
      </trkpt>
      <trkpt lat="64.03186" lon="10.40428">
        <ele>120.440303</ele>
        <time>2020-07-15T16:51:38.078Z</time>
      </trkpt>
      <trkpt lat="64.0322" lon="10.40523">
        <ele>123.755665</ele>
        <time>2020-07-15T16:51:59.088Z</time>
      </trkpt>
      <trkpt lat="64.03298" lon="10.40721">
        <ele>131.653654</ele>
        <time>2020-07-15T16:52:48.636Z</time>
      </trkpt>
      <trkpt lat="64.0343" lon="10.41034">
        <ele>146.192657</ele>
        <time>2020-07-15T16:54:12.014Z</time>
      </trkpt>
      <trkpt lat="64.03447" lon="10.41078">
        <ele>147.923872</ele>
        <time>2020-07-15T16:54:22.453Z</time>
      </trkpt>
      <trkpt lat="64.03459" lon="10.4111">
        <ele>149.155145</ele>
        <time>2020-07-15T16:54:29.530Z</time>
      </trkpt>
      <trkpt lat="64.03491" lon="10.41198">
        <ele>152.51232</ele>
        <time>2020-07-15T16:54:48.212Z</time>
      </trkpt>
      <trkpt lat="64.03533" lon="10.41313">
        <ele>155.913189</ele>
        <time>2020-07-15T16:55:12.948Z</time>
      </trkpt>
      <trkpt lat="64.03583" lon="10.41442">
        <ele>158.403597</ele>
        <time>2020-07-15T16:55:35.210Z</time>
      </trkpt>
      <trkpt lat="64.03628" lon="10.41552">
        <ele>160.569478</ele>
        <time>2020-07-15T16:55:51.062Z</time>
      </trkpt>
      <trkpt lat="64.03664" lon="10.41643">
        <ele>160.378841</ele>
        <time>2020-07-15T16:56:02.314Z</time>
      </trkpt>
      <trkpt lat="64.04022" lon="10.42552">
        <ele>155.184545</ele>
        <time>2020-07-15T16:57:21.963Z</time>
      </trkpt>
      <trkpt lat="64.04097" lon="10.42695">
        <ele>155.978992</ele>
        <time>2020-07-15T16:57:42.636Z</time>
      </trkpt>
      <trkpt lat="64.04255" lon="10.42927">
        <ele>159.527281</ele>
        <time>2020-07-15T16:58:31.439Z</time>
      </trkpt>
      <trkpt lat="64.04332" lon="10.43067">
        <ele>160.068613</ele>
        <time>2020-07-15T16:58:53.218Z</time>
      </trkpt>
      <trkpt lat="64.04393" lon="10.43209">
        <ele>159.849242</ele>
        <time>2020-07-15T16:59:07.678Z</time>
      </trkpt>
      <trkpt lat="64.04607" lon="10.43774">
        <ele>149.993852</ele>
        <time>2020-07-15T16:59:50.877Z</time>
      </trkpt>
      <trkpt lat="64.04665" lon="10.43915">
        <ele>146.335547</ele>
        <time>2020-07-15T17:00:01.109Z</time>
      </trkpt>
      <trkpt lat="64.04787" lon="10.44158">
        <ele>137.38077</ele>
        <time>2020-07-15T17:00:20.225Z</time>
      </trkpt>
      <trkpt lat="64.04894" lon="10.44427">
        <ele>130.030806</ele>
        <time>2020-07-15T17:00:39.613Z</time>
      </trkpt>
      <trkpt lat="64.04928" lon="10.44482">
        <ele>129.140351</ele>
        <time>2020-07-15T17:00:45.164Z</time>
      </trkpt>
      <trkpt lat="64.04966" lon="10.44522">
        <ele>128.787681</ele>
        <time>2020-07-15T17:00:51.145Z</time>
      </trkpt>
      <trkpt lat="64.04982" lon="10.44532">
        <ele>128.650532</ele>
        <time>2020-07-15T17:00:53.530Z</time>
      </trkpt>
      <trkpt lat="64.04996" lon="10.4454">
        <ele>128.525662</ele>
        <time>2020-07-15T17:00:55.845Z</time>
      </trkpt>
      <trkpt lat="64.05141" lon="10.44582">
        <ele>129.417556</ele>
        <time>2020-07-15T17:01:27.217Z</time>
      </trkpt>
      <trkpt lat="64.05181" lon="10.44613">
        <ele>130.413429</ele>
        <time>2020-07-15T17:01:39.513Z</time>
      </trkpt>
      <trkpt lat="64.05227" lon="10.4467">
        <ele>131.63821</ele>
        <time>2020-07-15T17:01:53.612Z</time>
      </trkpt>
      <trkpt lat="64.0524" lon="10.44691">
        <ele>132.003175</ele>
        <time>2020-07-15T17:01:58.431Z</time>
      </trkpt>
      <trkpt lat="64.05273" lon="10.44745">
        <ele>132.710529</ele>
        <time>2020-07-15T17:02:09.004Z</time>
      </trkpt>
      <trkpt lat="64.05475" lon="10.45084">
        <ele>136.690579</ele>
        <time>2020-07-15T17:03:04.342Z</time>
      </trkpt>
      <trkpt lat="64.05687" lon="10.45357">
        <ele>140.947358</ele>
        <time>2020-07-15T17:03:59.565Z</time>
      </trkpt>
      <trkpt lat="64.05781" lon="10.45467">
        <ele>145.513633</ele>
        <time>2020-07-15T17:04:32.399Z</time>
      </trkpt>
      <trkpt lat="64.05823" lon="10.45512">
        <ele>147.610794</ele>
        <time>2020-07-15T17:04:48.903Z</time>
      </trkpt>
      <trkpt lat="64.05991" lon="10.45694">
        <ele>156.929878</ele>
        <time>2020-07-15T17:05:55.773Z</time>
      </trkpt>
      <trkpt lat="64.06248" lon="10.45975">
        <ele>167.162645</ele>
        <time>2020-07-15T17:07:17.028Z</time>
      </trkpt>
      <trkpt lat="64.06268" lon="10.45997">
        <ele>167.876009</ele>
        <time>2020-07-15T17:07:23.355Z</time>
      </trkpt>
      <trkpt lat="64.06271" lon="10.46001">
        <ele>167.995547</ele>
        <time>2020-07-15T17:07:24.334Z</time>
      </trkpt>
      <trkpt lat="64.06298" lon="10.46032">
        <ele>168.97934</ele>
        <time>2020-07-15T17:07:33.032Z</time>
      </trkpt>
      <trkpt lat="64.06453" lon="10.4624">
        <ele>174.035185</ele>
        <time>2020-07-15T17:08:22.779Z</time>
      </trkpt>
      <trkpt lat="64.06733" lon="10.46684">
        <ele>179.656791</ele>
        <time>2020-07-15T17:09:41.209Z</time>
      </trkpt>
      <trkpt lat="64.06813" lon="10.46842">
        <ele>180.516209</ele>
        <time>2020-07-15T17:10:02.331Z</time>
      </trkpt>
      <trkpt lat="64.06962" lon="10.47187">
        <ele>180.678095</ele>
        <time>2020-07-15T17:10:39.639Z</time>
      </trkpt>
      <trkpt lat="64.07021" lon="10.47294">
        <ele>180.691931</ele>
        <time>2020-07-15T17:10:52.263Z</time>
      </trkpt>
      <trkpt lat="64.07076" lon="10.47378">
        <ele>181.409531</ele>
        <time>2020-07-15T17:11:05.115Z</time>
      </trkpt>
      <trkpt lat="64.07099" lon="10.47408">
        <ele>182.007485</ele>
        <time>2020-07-15T17:11:10.740Z</time>
      </trkpt>
      <trkpt lat="64.07143" lon="10.47463">
        <ele>183.118952</ele>
        <time>2020-07-15T17:11:22.697Z</time>
      </trkpt>
      <trkpt lat="64.07229" lon="10.47569">
        <ele>186.179338</ele>
        <time>2020-07-15T17:11:51.404Z</time>
      </trkpt>
      <trkpt lat="64.07291" lon="10.4766">
        <ele>190.279973</ele>
        <time>2020-07-15T17:12:17.914Z</time>
      </trkpt>
      <trkpt lat="64.07564" lon="10.48146">
        <ele>209.868372</ele>
        <time>2020-07-15T17:14:30.869Z</time>
      </trkpt>
      <trkpt lat="64.07723" lon="10.48517">
        <ele>216.046905</ele>
        <time>2020-07-15T17:15:26.627Z</time>
      </trkpt>
      <trkpt lat="64.07839" lon="10.48727">
        <ele>217.342477</ele>
        <time>2020-07-15T17:15:56.471Z</time>
      </trkpt>
      <trkpt lat="64.07872" lon="10.48797">
        <ele>217.563587</ele>
        <time>2020-07-15T17:16:04.817Z</time>
      </trkpt>
      <trkpt lat="64.07909" lon="10.48907">
        <ele>217.664971</ele>
        <time>2020-07-15T17:16:15.730Z</time>
      </trkpt>
      <trkpt lat="64.07959" lon="10.49119">
        <ele>217.423836</ele>
        <time>2020-07-15T17:16:33.652Z</time>
      </trkpt>
      <trkpt lat="64.07996" lon="10.49238">
        <ele>217.290594</ele>
        <time>2020-07-15T17:16:44.388Z</time>
      </trkpt>
      <trkpt lat="64.0804" lon="10.49341">
        <ele>217.195304</ele>
        <time>2020-07-15T17:16:55.195Z</time>
      </trkpt>
      <trkpt lat="64.08102" lon="10.49435">
        <ele>217.084054</ele>
        <time>2020-07-15T17:17:08.123Z</time>
      </trkpt>
      <trkpt lat="64.08115" lon="10.4945">
        <ele>217.062323</ele>
        <time>2020-07-15T17:17:10.708Z</time>
      </trkpt>
      <trkpt lat="64.08133" lon="10.49469">
        <ele>217.072812</ele>
        <time>2020-07-15T17:17:14.289Z</time>
      </trkpt>
      <trkpt lat="64.08193" lon="10.49512">
        <ele>217.274988</ele>
        <time>2020-07-15T17:17:25.870Z</time>
      </trkpt>
      <trkpt lat="64.08235" lon="10.49527">
        <ele>217.409666</ele>
        <time>2020-07-15T17:17:33.777Z</time>
      </trkpt>
      <trkpt lat="64.08288" lon="10.49531">
        <ele>217.577522</ele>
        <time>2020-07-15T17:17:43.956Z</time>
      </trkpt>
      <trkpt lat="64.08372" lon="10.49519">
        <ele>218.415635</ele>
        <time>2020-07-15T17:18:01.327Z</time>
      </trkpt>
      <trkpt lat="64.08427" lon="10.49536">
        <ele>219.029034</ele>
        <time>2020-07-15T17:18:13.301Z</time>
      </trkpt>
      <trkpt lat="64.08502" lon="10.49606">
        <ele>220.106789</ele>
        <time>2020-07-15T17:18:31.762Z</time>
      </trkpt>
      <trkpt lat="64.08602" lon="10.49755">
        <ele>222.149425</ele>
        <time>2020-07-15T17:18:59.296Z</time>
      </trkpt>
      <trkpt lat="64.08624" lon="10.49796">
        <ele>222.637149</ele>
        <time>2020-07-15T17:19:06.005Z</time>
      </trkpt>
      <trkpt lat="64.08635" lon="10.49816">
        <ele>222.965791</ele>
        <time>2020-07-15T17:19:09.246Z</time>
      </trkpt>
      <trkpt lat="64.08715" lon="10.50006">
        <ele>226.020691</ele>
        <time>2020-07-15T17:19:38.682Z</time>
      </trkpt>
      <trkpt lat="64.08803" lon="10.50279">
        <ele>230.793047</ele>
        <time>2020-07-15T17:20:21.815Z</time>
      </trkpt>
      <trkpt lat="64.08857" lon="10.50392">
        <ele>233.411213</ele>
        <time>2020-07-15T17:20:44.012Z</time>
      </trkpt>
      <trkpt lat="64.08922" lon="10.50469">
        <ele>235.2201</ele>
        <time>2020-07-15T17:21:04.834Z</time>
      </trkpt>
      <trkpt lat="64.09055" lon="10.50547">
        <ele>238.042037</ele>
        <time>2020-07-15T17:21:37.081Z</time>
      </trkpt>
      <trkpt lat="64.0911" lon="10.50618">
        <ele>238.603004</ele>
        <time>2020-07-15T17:21:48.997Z</time>
      </trkpt>
      <trkpt lat="64.0912" lon="10.50637">
        <ele>238.717511</ele>
        <time>2020-07-15T17:21:51.322Z</time>
      </trkpt>
      <trkpt lat="64.09134" lon="10.50666">
        <ele>238.887177</ele>
        <time>2020-07-15T17:21:54.704Z</time>
      </trkpt>
      <trkpt lat="64.09193" lon="10.50804">
        <ele>240.177761</ele>
        <time>2020-07-15T17:22:12.031Z</time>
      </trkpt>
      <trkpt lat="64.09234" lon="10.50881">
        <ele>242.299061</ele>
        <time>2020-07-15T17:22:25.350Z</time>
      </trkpt>
      <trkpt lat="64.09246" lon="10.509">
        <ele>242.887837</ele>
        <time>2020-07-15T17:22:29.226Z</time>
      </trkpt>
      <trkpt lat="64.09261" lon="10.50919">
        <ele>243.573443</ele>
        <time>2020-07-15T17:22:34.641Z</time>
      </trkpt>
      <trkpt lat="64.09318" lon="10.50971">
        <ele>246.065599</ele>
        <time>2020-07-15T17:22:56.073Z</time>
      </trkpt>
      <trkpt lat="64.0939" lon="10.50991">
        <ele>251.891183</ele>
        <time>2020-07-15T17:23:27.481Z</time>
      </trkpt>
      <trkpt lat="64.09427" lon="10.50985">
        <ele>255.383528</ele>
        <time>2020-07-15T17:23:46.140Z</time>
      </trkpt>
      <trkpt lat="64.09549" lon="10.50929">
        <ele>265.535676</ele>
        <time>2020-07-15T17:24:50.179Z</time>
      </trkpt>
      <trkpt lat="64.09602" lon="10.50927">
        <ele>268.486278</ele>
        <time>2020-07-15T17:25:14.413Z</time>
      </trkpt>
      <trkpt lat="64.09664" lon="10.50952">
        <ele>272.038189</ele>
        <time>2020-07-15T17:25:36.748Z</time>
      </trkpt>
      <trkpt lat="64.0971" lon="10.51002">
        <ele>271.255631</ele>
        <time>2020-07-15T17:25:44.148Z</time>
      </trkpt>
      <trkpt lat="64.09716" lon="10.51013">
        <ele>270.536182</ele>
        <time>2020-07-15T17:25:45.468Z</time>
      </trkpt>
      <trkpt lat="64.09722" lon="10.51026">
        <ele>269.796693</ele>
        <time>2020-07-15T17:25:46.300Z</time>
      </trkpt>
      <trkpt lat="64.09749" lon="10.51107">
        <ele>265.686525</ele>
        <time>2020-07-15T17:25:51.133Z</time>
      </trkpt>
      <trkpt lat="64.09763" lon="10.51222">
        <ele>260.859025</ele>
        <time>2020-07-15T17:25:56.738Z</time>
      </trkpt>
      <trkpt lat="64.09764" lon="10.51236">
        <ele>260.273052</ele>
        <time>2020-07-15T17:25:57.394Z</time>
      </trkpt>
      <trkpt lat="64.09764" lon="10.51271">
        <ele>258.889648</ele>
        <time>2020-07-15T17:25:58.973Z</time>
      </trkpt>
      <trkpt lat="64.09752" lon="10.51375">
        <ele>254.623177</ele>
        <time>2020-07-15T17:26:03.988Z</time>
      </trkpt>
      <trkpt lat="64.09751" lon="10.5138">
        <ele>254.373882</ele>
        <time>2020-07-15T17:26:04.289Z</time>
      </trkpt>
      <trkpt lat="64.09746" lon="10.51402">
        <ele>253.422581</ele>
        <time>2020-07-15T17:26:05.393Z</time>
      </trkpt>
      <trkpt lat="64.09725" lon="10.51477">
        <ele>249.876545</ele>
        <time>2020-07-15T17:26:09.555Z</time>
      </trkpt>
      <trkpt lat="64.09608" lon="10.51804">
        <ele>239.000805</ele>
        <time>2020-07-15T17:26:31.595Z</time>
      </trkpt>
      <trkpt lat="64.09592" lon="10.51868">
        <ele>238.359399</ele>
        <time>2020-07-15T17:26:37.300Z</time>
      </trkpt>
      <trkpt lat="64.09578" lon="10.5196">
        <ele>237.498394</ele>
        <time>2020-07-15T17:26:45.806Z</time>
      </trkpt>
      <trkpt lat="64.09574" lon="10.5208">
        <ele>238.650467</ele>
        <time>2020-07-15T17:26:57.700Z</time>
      </trkpt>
      <trkpt lat="64.09589" lon="10.52218">
        <ele>242.00201</ele>
        <time>2020-07-15T17:27:15.197Z</time>
      </trkpt>
      <trkpt lat="64.09616" lon="10.52324">
        <ele>244.923427</ele>
        <time>2020-07-15T17:27:37.417Z</time>
      </trkpt>
      <trkpt lat="64.09663" lon="10.52421">
        <ele>250.224036</ele>
        <time>2020-07-15T17:28:07.531Z</time>
      </trkpt>
      <trkpt lat="64.09684" lon="10.52451">
        <ele>253.139732</ele>
        <time>2020-07-15T17:28:20.957Z</time>
      </trkpt>
      <trkpt lat="64.0971" lon="10.52486">
        <ele>256.799237</ele>
        <time>2020-07-15T17:28:38.798Z</time>
      </trkpt>
      <trkpt lat="64.0975" lon="10.52534">
        <ele>262.147356</ele>
        <time>2020-07-15T17:29:05.176Z</time>
      </trkpt>
      <trkpt lat="64.09826" lon="10.52625">
        <ele>271.632919</ele>
        <time>2020-07-15T17:29:58.133Z</time>
      </trkpt>
      <trkpt lat="64.09886" lon="10.52697">
        <ele>278.319621</ele>
        <time>2020-07-15T17:30:33.770Z</time>
      </trkpt>
      <trkpt lat="64.10013" lon="10.52852">
        <ele>288.273552</ele>
        <time>2020-07-15T17:31:32.483Z</time>
      </trkpt>
      <trkpt lat="64.10019" lon="10.52858">
        <ele>288.504935</ele>
        <time>2020-07-15T17:31:35.308Z</time>
      </trkpt>
      <trkpt lat="64.10097" lon="10.52951">
        <ele>291.499659</ele>
        <time>2020-07-15T17:31:55.078Z</time>
      </trkpt>
      <trkpt lat="64.10162" lon="10.5303">
        <ele>291.374415</ele>
        <time>2020-07-15T17:32:07.254Z</time>
      </trkpt>
      <trkpt lat="64.102" lon="10.53076">
        <ele>290.767357</ele>
        <time>2020-07-15T17:32:13.156Z</time>
      </trkpt>
      <trkpt lat="64.10302" lon="10.53199">
        <ele>289.046614</ele>
        <time>2020-07-15T17:32:29.364Z</time>
      </trkpt>
      <trkpt lat="64.10468" lon="10.534">
        <ele>285.455215</ele>
        <time>2020-07-15T17:32:56.991Z</time>
      </trkpt>
      <trkpt lat="64.10508" lon="10.53448">
        <ele>284.211993</ele>
        <time>2020-07-15T17:33:03.190Z</time>
      </trkpt>
      <trkpt lat="64.10556" lon="10.53506">
        <ele>282.708955</ele>
        <time>2020-07-15T17:33:10.448Z</time>
      </trkpt>
      <trkpt lat="64.1073" lon="10.53715">
        <ele>275.147656</ele>
        <time>2020-07-15T17:33:34.911Z</time>
      </trkpt>
      <trkpt lat="64.10809" lon="10.5381">
        <ele>272.865384</ele>
        <time>2020-07-15T17:33:46.215Z</time>
      </trkpt>
      <trkpt lat="64.10852" lon="10.53863">
        <ele>271.875633</ele>
        <time>2020-07-15T17:33:52.840Z</time>
      </trkpt>
      <trkpt lat="64.10956" lon="10.53988">
        <ele>272.250429</ele>
        <time>2020-07-15T17:34:13.751Z</time>
      </trkpt>
      <trkpt lat="64.11094" lon="10.5417">
        <ele>278.130115</ele>
        <time>2020-07-15T17:35:05.135Z</time>
      </trkpt>
      <trkpt lat="64.11167" lon="10.54276">
        <ele>283.211629</ele>
        <time>2020-07-15T17:35:39.757Z</time>
      </trkpt>
      <trkpt lat="64.11281" lon="10.54439">
        <ele>289.093083</ele>
        <time>2020-07-15T17:36:27.107Z</time>
      </trkpt>
      <trkpt lat="64.11336" lon="10.54516">
        <ele>291.145614</ele>
        <time>2020-07-15T17:36:43.849Z</time>
      </trkpt>
      <trkpt lat="64.11372" lon="10.54567">
        <ele>292.49062</ele>
        <time>2020-07-15T17:36:52.810Z</time>
      </trkpt>
      <trkpt lat="64.11401" lon="10.54605">
        <ele>292.316678</ele>
        <time>2020-07-15T17:36:58.747Z</time>
      </trkpt>
      <trkpt lat="64.11441" lon="10.54645">
        <ele>292.078269</ele>
        <time>2020-07-15T17:37:05.639Z</time>
      </trkpt>
      <trkpt lat="64.11454" lon="10.54654">
        <ele>292.009242</ele>
        <time>2020-07-15T17:37:07.538Z</time>
      </trkpt>
      <trkpt lat="64.11469" lon="10.54662">
        <ele>291.926124</ele>
        <time>2020-07-15T17:37:09.917Z</time>
      </trkpt>
      <trkpt lat="64.11479" lon="10.54667">
        <ele>291.868601</ele>
        <time>2020-07-15T17:37:11.537Z</time>
      </trkpt>
      <trkpt lat="64.11495" lon="10.54673">
        <ele>291.781694</ele>
        <time>2020-07-15T17:37:13.945Z</time>
      </trkpt>
      <trkpt lat="64.11514" lon="10.54677">
        <ele>291.677807</ele>
        <time>2020-07-15T17:37:16.994Z</time>
      </trkpt>
      <trkpt lat="64.11558" lon="10.54674">
        <ele>291.28972</ele>
        <time>2020-07-15T17:37:23.944Z</time>
      </trkpt>
      <trkpt lat="64.11613" lon="10.54652">
        <ele>290.450099</ele>
        <time>2020-07-15T17:37:33.473Z</time>
      </trkpt>
      <trkpt lat="64.11629" lon="10.54644">
        <ele>290.197484</ele>
        <time>2020-07-15T17:37:35.768Z</time>
      </trkpt>
      <trkpt lat="64.1167" lon="10.54622">
        <ele>289.560428</ele>
        <time>2020-07-15T17:37:41.839Z</time>
      </trkpt>
      <trkpt lat="64.11745" lon="10.54589">
        <ele>288.123217</ele>
        <time>2020-07-15T17:37:52.416Z</time>
      </trkpt>
      <trkpt lat="64.11757" lon="10.54587">
        <ele>287.813742</ele>
        <time>2020-07-15T17:37:54.225Z</time>
      </trkpt>
      <trkpt lat="64.11775" lon="10.54584">
        <ele>287.352311</ele>
        <time>2020-07-15T17:37:56.425Z</time>
      </trkpt>
      <trkpt lat="64.11894" lon="10.54587">
        <ele>284.25328</ele>
        <time>2020-07-15T17:38:12.249Z</time>
      </trkpt>
      <trkpt lat="64.11955" lon="10.54572">
        <ele>285.107543</ele>
        <time>2020-07-15T17:38:21.324Z</time>
      </trkpt>
      <trkpt lat="64.12025" lon="10.54546">
        <ele>286.276645</ele>
        <time>2020-07-15T17:38:37.569Z</time>
      </trkpt>
      <trkpt lat="64.12168" lon="10.54488">
        <ele>292.124427</ele>
        <time>2020-07-15T17:39:29.743Z</time>
      </trkpt>
      <trkpt lat="64.12217" lon="10.54471">
        <ele>294.716925</ele>
        <time>2020-07-15T17:39:48.384Z</time>
      </trkpt>
      <trkpt lat="64.12248" lon="10.54462">
        <ele>296.36478</ele>
        <time>2020-07-15T17:39:59.118Z</time>
      </trkpt>
      <trkpt lat="64.12352" lon="10.54446">
        <ele>298.121382</ele>
        <time>2020-07-15T17:40:29.071Z</time>
      </trkpt>
      <trkpt lat="64.12512" lon="10.54473">
        <ele>296.703516</ele>
        <time>2020-07-15T17:40:52.812Z</time>
      </trkpt>
      <trkpt lat="64.12536" lon="10.54474">
        <ele>295.892377</ele>
        <time>2020-07-15T17:40:56.026Z</time>
      </trkpt>
      <trkpt lat="64.12561" lon="10.54472">
        <ele>295.084517</ele>
        <time>2020-07-15T17:40:59.105Z</time>
      </trkpt>
      <trkpt lat="64.12697" lon="10.54445">
        <ele>287.262344</ele>
        <time>2020-07-15T17:41:15.317Z</time>
      </trkpt>
      <trkpt lat="64.12747" lon="10.54447">
        <ele>283.661093</ele>
        <time>2020-07-15T17:41:21.003Z</time>
      </trkpt>
      <trkpt lat="64.13047" lon="10.54547">
        <ele>256.697056</ele>
        <time>2020-07-15T17:41:54.242Z</time>
      </trkpt>
      <trkpt lat="64.13105" lon="10.54557">
        <ele>251.888291</ele>
        <time>2020-07-15T17:42:00.761Z</time>
      </trkpt>
      <trkpt lat="64.13166" lon="10.54539">
        <ele>248.036542</ele>
        <time>2020-07-15T17:42:07.749Z</time>
      </trkpt>
      <trkpt lat="64.13272" lon="10.54469">
        <ele>246.498561</ele>
        <time>2020-07-15T17:42:22.638Z</time>
      </trkpt>
      <trkpt lat="64.13279" lon="10.54464">
        <ele>246.393752</ele>
        <time>2020-07-15T17:42:23.561Z</time>
      </trkpt>
      <trkpt lat="64.133" lon="10.5445">
        <ele>246.09108</ele>
        <time>2020-07-15T17:42:29.657Z</time>
      </trkpt>
      <trkpt lat="64.13324" lon="10.54436">
        <ele>246.049659</ele>
        <time>2020-07-15T17:42:35.635Z</time>
      </trkpt>
      <trkpt lat="64.13337" lon="10.54429">
        <ele>247.183426</ele>
        <time>2020-07-15T17:42:40.603Z</time>
      </trkpt>
      <trkpt lat="64.13832" lon="10.54343">
        <ele>293.469943</ele>
        <time>2020-07-15T17:46:44.333Z</time>
      </trkpt>
      <trkpt lat="64.13892" lon="10.54317">
        <ele>299.797922</ele>
        <time>2020-07-15T17:47:14.380Z</time>
      </trkpt>
      <trkpt lat="64.14111" lon="10.54159">
        <ele>322.115968</ele>
        <time>2020-07-15T17:49:18.834Z</time>
      </trkpt>
      <trkpt lat="64.14208" lon="10.54089">
        <ele>328.895047</ele>
        <time>2020-07-15T17:49:55.995Z</time>
      </trkpt>
      <trkpt lat="64.14244" lon="10.54063">
        <ele>325.812171</ele>
        <time>2020-07-15T17:50:02.297Z</time>
      </trkpt>
      <trkpt lat="64.14314" lon="10.54035">
        <ele>320.027527</ele>
        <time>2020-07-15T17:50:10.572Z</time>
      </trkpt>
      <trkpt lat="64.14385" lon="10.54048">
        <ele>313.616835</ele>
        <time>2020-07-15T17:50:17.857Z</time>
      </trkpt>
      <trkpt lat="64.14428" lon="10.54087">
        <ele>303.79129</ele>
        <time>2020-07-15T17:50:22.563Z</time>
      </trkpt>
      <trkpt lat="64.14543" lon="10.5424">
        <ele>275.661633</ele>
        <time>2020-07-15T17:50:36.073Z</time>
      </trkpt>
      <trkpt lat="64.1459" lon="10.54287">
        <ele>266.945588</ele>
        <time>2020-07-15T17:50:41.228Z</time>
      </trkpt>
      <trkpt lat="64.14669" lon="10.54332">
        <ele>252.933577</ele>
        <time>2020-07-15T17:50:49.621Z</time>
      </trkpt>
      <trkpt lat="64.14732" lon="10.54338">
        <ele>245.712957</ele>
        <time>2020-07-15T17:50:56.348Z</time>
      </trkpt>
      <trkpt lat="64.14786" lon="10.54326">
        <ele>245.70953</ele>
        <time>2020-07-15T17:51:03.072Z</time>
      </trkpt>
      <trkpt lat="64.14832" lon="10.54299">
        <ele>245.706523</ele>
        <time>2020-07-15T17:51:12.729Z</time>
      </trkpt>
      <trkpt lat="64.15038" lon="10.54096">
        <ele>261.945226</ele>
        <time>2020-07-15T17:53:02.188Z</time>
      </trkpt>
      <trkpt lat="64.15164" lon="10.54001">
        <ele>272.944566</ele>
        <time>2020-07-15T17:54:11.904Z</time>
      </trkpt>
      <trkpt lat="64.1521" lon="10.53944">
        <ele>277.270496</ele>
        <time>2020-07-15T17:54:29.651Z</time>
      </trkpt>
      <trkpt lat="64.15217" lon="10.53933">
        <ele>277.881022</ele>
        <time>2020-07-15T17:54:33.255Z</time>
      </trkpt>
      <trkpt lat="64.15227" lon="10.53915">
        <ele>277.379372</ele>
        <time>2020-07-15T17:54:35.736Z</time>
      </trkpt>
      <trkpt lat="64.15255" lon="10.53854">
        <ele>275.841179</ele>
        <time>2020-07-15T17:54:43.332Z</time>
      </trkpt>
      <trkpt lat="64.15265" lon="10.53827">
        <ele>275.21999</ele>
        <time>2020-07-15T17:54:45.917Z</time>
      </trkpt>
      <trkpt lat="64.15282" lon="10.53782">
        <ele>274.215242</ele>
        <time>2020-07-15T17:54:49.156Z</time>
      </trkpt>
      <trkpt lat="64.15356" lon="10.53565">
        <ele>266.981429</ele>
        <time>2020-07-15T17:55:02.651Z</time>
      </trkpt>
      <trkpt lat="64.1538" lon="10.53477">
        <ele>261.860102</ele>
        <time>2020-07-15T17:55:07.358Z</time>
      </trkpt>
      <trkpt lat="64.15393" lon="10.53377">
        <ele>256.64847</ele>
        <time>2020-07-15T17:55:12.207Z</time>
      </trkpt>
      <trkpt lat="64.15394" lon="10.53258">
        <ele>250.757968</ele>
        <time>2020-07-15T17:55:17.784Z</time>
      </trkpt>
      <trkpt lat="64.15391" lon="10.5322">
        <ele>249.263385</ele>
        <time>2020-07-15T17:55:19.560Z</time>
      </trkpt>
      <trkpt lat="64.15389" lon="10.53197">
        <ele>248.430928</ele>
        <time>2020-07-15T17:55:20.694Z</time>
      </trkpt>
      <trkpt lat="64.15309" lon="10.52691">
        <ele>230.309314</ele>
        <time>2020-07-15T17:55:47.524Z</time>
      </trkpt>
      <trkpt lat="64.15299" lon="10.52548">
        <ele>225.970578</ele>
        <time>2020-07-15T17:55:54.896Z</time>
      </trkpt>
      <trkpt lat="64.15308" lon="10.52425">
        <ele>222.230845</ele>
        <time>2020-07-15T17:56:01.175Z</time>
      </trkpt>
      <trkpt lat="64.15349" lon="10.52183">
        <ele>214.468926</ele>
        <time>2020-07-15T17:56:14.183Z</time>
      </trkpt>
      <trkpt lat="64.15364" lon="10.51999">
        <ele>208.778269</ele>
        <time>2020-07-15T17:56:23.601Z</time>
      </trkpt>
      <trkpt lat="64.15376" lon="10.51902">
        <ele>205.578238</ele>
        <time>2020-07-15T17:56:28.754Z</time>
      </trkpt>
      <trkpt lat="64.15407" lon="10.51763">
        <ele>200.688567</ele>
        <time>2020-07-15T17:56:36.630Z</time>
      </trkpt>
      <trkpt lat="64.15513" lon="10.51444">
        <ele>185.016266</ele>
        <time>2020-07-15T17:56:56.140Z</time>
      </trkpt>
      <trkpt lat="64.1565" lon="10.51158">
        <ele>161.208619</ele>
        <time>2020-07-15T17:57:15.791Z</time>
      </trkpt>
      <trkpt lat="64.15752" lon="10.50923">
        <ele>136.989292</ele>
        <time>2020-07-15T17:57:30.585Z</time>
      </trkpt>
      <trkpt lat="64.15769" lon="10.50892">
        <ele>133.042669</ele>
        <time>2020-07-15T17:57:32.851Z</time>
      </trkpt>
      <trkpt lat="64.15787" lon="10.5086">
        <ele>129.077064</ele>
        <time>2020-07-15T17:57:35.153Z</time>
      </trkpt>
      <trkpt lat="64.15829" lon="10.50764">
        <ele>120.571052</ele>
        <time>2020-07-15T17:57:41.304Z</time>
      </trkpt>
      <trkpt lat="64.15885" lon="10.50531">
        <ele>107.425168</ele>
        <time>2020-07-15T17:57:53.780Z</time>
      </trkpt>
      <trkpt lat="64.15916" lon="10.50429">
        <ele>102.847249</ele>
        <time>2020-07-15T17:58:00.232Z</time>
      </trkpt>
      <trkpt lat="64.15943" lon="10.50364">
        <ele>101.162869</ele>
        <time>2020-07-15T17:58:05.006Z</time>
      </trkpt>
      <trkpt lat="64.16009" lon="10.50252">
        <ele>97.622119</ele>
        <time>2020-07-15T17:58:15.500Z</time>
      </trkpt>
      <trkpt lat="64.16021" lon="10.50232">
        <ele>96.989633</ele>
        <time>2020-07-15T17:58:17.476Z</time>
      </trkpt>
      <trkpt lat="64.1603" lon="10.50215">
        <ele>96.486619</ele>
        <time>2020-07-15T17:58:18.978Z</time>
      </trkpt>
      <trkpt lat="64.16067" lon="10.50126">
        <ele>94.415928</ele>
        <time>2020-07-15T17:58:26.179Z</time>
      </trkpt>
      <trkpt lat="64.16092" lon="10.50022">
        <ele>92.500893</ele>
        <time>2020-07-15T17:58:32.894Z</time>
      </trkpt>
      <trkpt lat="64.16102" lon="10.49934">
        <ele>91.04093</ele>
        <time>2020-07-15T17:58:37.892Z</time>
      </trkpt>
      <trkpt lat="64.16113" lon="10.49725">
        <ele>87.482574</ele>
        <time>2020-07-15T17:58:49.262Z</time>
      </trkpt>
      <trkpt lat="64.16157" lon="10.49553">
        <ele>83.973035</ele>
        <time>2020-07-15T17:59:00.084Z</time>
      </trkpt>
      <trkpt lat="64.16172" lon="10.49463">
        <ele>82.273309</ele>
        <time>2020-07-15T17:59:05.405Z</time>
      </trkpt>
      <trkpt lat="64.16182" lon="10.4923">
        <ele>79.864826</ele>
        <time>2020-07-15T17:59:19.058Z</time>
      </trkpt>
      <trkpt lat="64.16185" lon="10.49171">
        <ele>79.272943</ele>
        <time>2020-07-15T17:59:22.772Z</time>
      </trkpt>
      <trkpt lat="64.16188" lon="10.49138">
        <ele>78.945077</ele>
        <time>2020-07-15T17:59:24.815Z</time>
      </trkpt>
      <trkpt lat="64.16206" lon="10.49021">
        <ele>77.940878</ele>
        <time>2020-07-15T17:59:33.012Z</time>
      </trkpt>
      <trkpt lat="64.1627" lon="10.48814">
        <ele>77.494162</ele>
        <time>2020-07-15T17:59:51.030Z</time>
      </trkpt>
      <trkpt lat="64.16283" lon="10.4875">
        <ele>77.367885</ele>
        <time>2020-07-15T17:59:56.744Z</time>
      </trkpt>
      <trkpt lat="64.16289" lon="10.48642">
        <ele>77.397825</ele>
        <time>2020-07-15T18:00:05.652Z</time>
      </trkpt>
      <trkpt lat="64.16283" lon="10.48419">
        <ele>78.019503</ele>
        <time>2020-07-15T18:00:25.026Z</time>
      </trkpt>
      <trkpt lat="64.16292" lon="10.48254">
        <ele>78.557954</ele>
        <time>2020-07-15T18:00:39.665Z</time>
      </trkpt>
      <trkpt lat="64.16296" lon="10.48224">
        <ele>78.736245</ele>
        <time>2020-07-15T18:00:42.467Z</time>
      </trkpt>
      <trkpt lat="64.16297" lon="10.48212">
        <ele>78.807707</ele>
        <time>2020-07-15T18:00:43.646Z</time>
      </trkpt>
      <trkpt lat="64.16333" lon="10.48009">
        <ele>80.036146</ele>
        <time>2020-07-15T18:01:04.817Z</time>
      </trkpt>
      <trkpt lat="64.16355" lon="10.4792">
        <ele>80.614247</ele>
        <time>2020-07-15T18:01:15.353Z</time>
      </trkpt>
      <trkpt lat="64.16362" lon="10.479">
        <ele>80.747334</ele>
        <time>2020-07-15T18:01:17.756Z</time>
      </trkpt>
      <trkpt lat="64.16377" lon="10.47861">
        <ele>80.875221</ele>
        <time>2020-07-15T18:01:23.378Z</time>
      </trkpt>
      <trkpt lat="64.16413" lon="10.47796">
        <ele>81.133882</ele>
        <time>2020-07-15T18:01:32.651Z</time>
      </trkpt>
      <trkpt lat="64.16463" lon="10.47739">
        <ele>81.45226</ele>
        <time>2020-07-15T18:01:43.951Z</time>
      </trkpt>
      <trkpt lat="64.165" lon="10.47705">
        <ele>81.674126</ele>
        <time>2020-07-15T18:01:51.377Z</time>
      </trkpt>
      <trkpt lat="64.16528" lon="10.47681">
        <ele>81.516275</ele>
        <time>2020-07-15T18:01:56.186Z</time>
      </trkpt>
      <trkpt lat="64.1657" lon="10.47658">
        <ele>80.902277</ele>
        <time>2020-07-15T18:02:02.724Z</time>
      </trkpt>
      <trkpt lat="64.16608" lon="10.47656">
        <ele>80.364797</ele>
        <time>2020-07-15T18:02:08.055Z</time>
      </trkpt>
      <trkpt lat="64.16707" lon="10.47713">
        <ele>79.063299</ele>
        <time>2020-07-15T18:02:22.591Z</time>
      </trkpt>
      <trkpt lat="64.16717" lon="10.47717">
        <ele>78.997565</ele>
        <time>2020-07-15T18:02:24.000Z</time>
      </trkpt>
      <trkpt lat="64.16728" lon="10.47721">
        <ele>78.929089</ele>
        <time>2020-07-15T18:02:25.671Z</time>
      </trkpt>
      <trkpt lat="64.16739" lon="10.47722">
        <ele>78.855493</ele>
        <time>2020-07-15T18:02:27.582Z</time>
      </trkpt>
      <trkpt lat="64.16748" lon="10.47722">
        <ele>78.799222</ele>
        <time>2020-07-15T18:02:28.876Z</time>
      </trkpt>
      <trkpt lat="64.16757" lon="10.47721">
        <ele>78.740981</ele>
        <time>2020-07-15T18:02:30.260Z</time>
      </trkpt>
      <trkpt lat="64.16766" lon="10.4772">
        <ele>78.682698</ele>
        <time>2020-07-15T18:02:31.755Z</time>
      </trkpt>
      <trkpt lat="64.16771" lon="10.47718">
        <ele>78.651794</ele>
        <time>2020-07-15T18:02:32.712Z</time>
      </trkpt>
      <trkpt lat="64.16828" lon="10.4768">
        <ele>78.273946</ele>
        <time>2020-07-15T18:02:42.711Z</time>
      </trkpt>
      <trkpt lat="64.16875" lon="10.47606">
        <ele>78.141068</ele>
        <time>2020-07-15T18:02:53.439Z</time>
      </trkpt>
      <trkpt lat="64.16948" lon="10.47469">
        <ele>78.61268</ele>
        <time>2020-07-15T18:03:11.420Z</time>
      </trkpt>
      <trkpt lat="64.16966" lon="10.47436">
        <ele>78.724941</ele>
        <time>2020-07-15T18:03:15.347Z</time>
      </trkpt>
      <trkpt lat="64.17196" lon="10.47013">
        <ele>86.909535</ele>
        <time>2020-07-15T18:04:18.812Z</time>
      </trkpt>
      <trkpt lat="64.17208" lon="10.46997">
        <ele>88.068728</ele>
        <time>2020-07-15T18:04:24.734Z</time>
      </trkpt>
      <trkpt lat="64.17218" lon="10.46988">
        <ele>88.885013</ele>
        <time>2020-07-15T18:04:30.320Z</time>
      </trkpt>
      <trkpt lat="64.17259" lon="10.46964">
        <ele>92.407082</ele>
        <time>2020-07-15T18:04:53.907Z</time>
      </trkpt>
      <trkpt lat="64.17301" lon="10.46964">
        <ele>95.972512</ele>
        <time>2020-07-15T18:05:21.507Z</time>
      </trkpt>
      <trkpt lat="64.17334" lon="10.46984">
        <ele>101.27999</ele>
        <time>2020-07-15T18:05:46.178Z</time>
      </trkpt>
      <trkpt lat="64.17407" lon="10.47051">
        <ele>113.656609</ele>
        <time>2020-07-15T18:06:45.059Z</time>
      </trkpt>
      <trkpt lat="64.17438" lon="10.47061">
        <ele>118.68974</ele>
        <time>2020-07-15T18:07:07.282Z</time>
      </trkpt>
      <trkpt lat="64.1746" lon="10.4705">
        <ele>122.133337</ele>
        <time>2020-07-15T18:07:21.693Z</time>
      </trkpt>
      <trkpt lat="64.1748" lon="10.47024">
        <ele>124.566874</ele>
        <time>2020-07-15T18:07:36.130Z</time>
      </trkpt>
      <trkpt lat="64.17496" lon="10.4699">
        <ele>125.665342</ele>
        <time>2020-07-15T18:07:47.795Z</time>
      </trkpt>
      <trkpt lat="64.17506" lon="10.46944">
        <ele>126.800198</ele>
        <time>2020-07-15T18:07:58.281Z</time>
      </trkpt>
      <trkpt lat="64.17509" lon="10.4688">
        <ele>128.246269</ele>
        <time>2020-07-15T18:08:09.264Z</time>
      </trkpt>
      <trkpt lat="64.17488" lon="10.46725">
        <ele>131.877783</ele>
        <time>2020-07-15T18:08:25.054Z</time>
      </trkpt>
      <trkpt lat="64.17488" lon="10.46647">
        <ele>133.090104</ele>
        <time>2020-07-15T18:08:30.041Z</time>
      </trkpt>
      <trkpt lat="64.17502" lon="10.46575">
        <ele>132.718147</ele>
        <time>2020-07-15T18:08:35.130Z</time>
      </trkpt>
      <trkpt lat="64.17545" lon="10.46445">
        <ele>131.960975</ele>
        <time>2020-07-15T18:08:45.364Z</time>
      </trkpt>
      <trkpt lat="64.17551" lon="10.464">
        <ele>131.734292</ele>
        <time>2020-07-15T18:08:48.471Z</time>
      </trkpt>
      <trkpt lat="64.17552" lon="10.46357">
        <ele>131.535471</ele>
        <time>2020-07-15T18:08:51.234Z</time>
      </trkpt>
      <trkpt lat="64.17545" lon="10.46296">
        <ele>131.245406</ele>
        <time>2020-07-15T18:08:55.665Z</time>
      </trkpt>
      <trkpt lat="64.17422" lon="10.45693">
        <ele>128.693938</ele>
        <time>2020-07-15T18:09:48.801Z</time>
      </trkpt>
      <trkpt lat="64.17411" lon="10.4565">
        <ele>128.185619</ele>
        <time>2020-07-15T18:09:51.511Z</time>
      </trkpt>
      <trkpt lat="64.17369" lon="10.45486">
        <ele>124.43916</ele>
        <time>2020-07-15T18:10:01.137Z</time>
      </trkpt>
      <trkpt lat="64.17349" lon="10.45396">
        <ele>121.133348</ele>
        <time>2020-07-15T18:10:06.178Z</time>
      </trkpt>
      <trkpt lat="64.17331" lon="10.45274">
        <ele>116.917178</ele>
        <time>2020-07-15T18:10:12.442Z</time>
      </trkpt>
      <trkpt lat="64.17323" lon="10.45177">
        <ele>113.718796</ele>
        <time>2020-07-15T18:10:17.279Z</time>
      </trkpt>
      <trkpt lat="64.17322" lon="10.45015">
        <ele>108.171356</ele>
        <time>2020-07-15T18:10:25.288Z</time>
      </trkpt>
      <trkpt lat="64.17323" lon="10.4499">
        <ele>107.320026</ele>
        <time>2020-07-15T18:10:26.664Z</time>
      </trkpt>
      <trkpt lat="64.17324" lon="10.4497">
        <ele>106.606737</ele>
        <time>2020-07-15T18:10:27.621Z</time>
      </trkpt>
      <trkpt lat="64.17332" lon="10.44874">
        <ele>103.263136</ele>
        <time>2020-07-15T18:10:32.399Z</time>
      </trkpt>
      <trkpt lat="64.17353" lon="10.4474">
        <ele>98.454489</ele>
        <time>2020-07-15T18:10:39.442Z</time>
      </trkpt>
      <trkpt lat="64.1736" lon="10.447">
        <ele>97.065344</ele>
        <time>2020-07-15T18:10:41.529Z</time>
      </trkpt>
      <trkpt lat="64.17367" lon="10.44666">
        <ele>95.867983</ele>
        <time>2020-07-15T18:10:43.425Z</time>
      </trkpt>
      <trkpt lat="64.1746" lon="10.44361">
        <ele>84.70761</ele>
        <time>2020-07-15T18:11:01.935Z</time>
      </trkpt>
      <trkpt lat="64.1748" lon="10.44307">
        <ele>83.109858</ele>
        <time>2020-07-15T18:11:05.660Z</time>
      </trkpt>
      <trkpt lat="64.17513" lon="10.44244">
        <ele>80.840132</ele>
        <time>2020-07-15T18:11:10.929Z</time>
      </trkpt>
      <trkpt lat="64.17646" lon="10.44064">
        <ele>74.487126</ele>
        <time>2020-07-15T18:11:30.201Z</time>
      </trkpt>
      <trkpt lat="64.17704" lon="10.44002">
        <ele>72.49279</ele>
        <time>2020-07-15T18:11:38.876Z</time>
      </trkpt>
      <trkpt lat="64.17762" lon="10.43962">
        <ele>70.937902</ele>
        <time>2020-07-15T18:11:47.382Z</time>
      </trkpt>
      <trkpt lat="64.17881" lon="10.43923">
        <ele>68.762953</ele>
        <time>2020-07-15T18:12:04.915Z</time>
      </trkpt>
      <trkpt lat="64.17931" lon="10.43882">
        <ele>67.752301</ele>
        <time>2020-07-15T18:12:12.437Z</time>
      </trkpt>
      <trkpt lat="64.1813" lon="10.43547">
        <ele>63.398822</ele>
        <time>2020-07-15T18:12:46.968Z</time>
      </trkpt>
      <trkpt lat="64.18186" lon="10.4345">
        <ele>62.582118</ele>
        <time>2020-07-15T18:12:58.303Z</time>
      </trkpt>
      <trkpt lat="64.18237" lon="10.43363">
        <ele>62.50968</ele>
        <time>2020-07-15T18:13:09.991Z</time>
      </trkpt>
      <trkpt lat="64.18248" lon="10.43345">
        <ele>62.590084</ele>
        <time>2020-07-15T18:13:12.622Z</time>
      </trkpt>
      <trkpt lat="64.18303" lon="10.43251">
        <ele>62.99128</ele>
        <time>2020-07-15T18:13:26.803Z</time>
      </trkpt>
      <trkpt lat="64.18326" lon="10.4321">
        <ele>63.157665</ele>
        <time>2020-07-15T18:13:32.806Z</time>
      </trkpt>
      <trkpt lat="64.18359" lon="10.43135">
        <ele>63.349414</ele>
        <time>2020-07-15T18:13:42.197Z</time>
      </trkpt>
      <trkpt lat="64.18377" lon="10.43051">
        <ele>63.390441</ele>
        <time>2020-07-15T18:13:50.169Z</time>
      </trkpt>
      <trkpt lat="64.18383" lon="10.42989">
        <ele>63.417812</ele>
        <time>2020-07-15T18:13:55.251Z</time>
      </trkpt>
      <trkpt lat="64.18383" lon="10.42989">
        <ele>63.417812</ele>
        <time>2020-07-15T18:13:55.266Z</time>
      </trkpt>
      <trkpt lat="64.1839" lon="10.42929">
        <ele>63.445049</ele>
        <time>2020-07-15T18:14:00.160Z</time>
      </trkpt>
      <trkpt lat="64.18413" lon="10.42814">
        <ele>63.500383</ele>
        <time>2020-07-15T18:14:09.648Z</time>
      </trkpt>
      <trkpt lat="64.1849" lon="10.42589">
        <ele>62.544812</ele>
        <time>2020-07-15T18:14:29.638Z</time>
      </trkpt>
      <trkpt lat="64.18516" lon="10.42528">
        <ele>62.218916</ele>
        <time>2020-07-15T18:14:35.406Z</time>
      </trkpt>
      <trkpt lat="64.18625" lon="10.42323">
        <ele>60.474371</ele>
        <time>2020-07-15T18:14:56.347Z</time>
      </trkpt>
      <trkpt lat="64.1867" lon="10.42237">
        <ele>59.681468</ele>
        <time>2020-07-15T18:15:05.061Z</time>
      </trkpt>
      <trkpt lat="64.18685" lon="10.4221">
        <ele>59.543321</ele>
        <time>2020-07-15T18:15:07.769Z</time>
      </trkpt>
      <trkpt lat="64.18734" lon="10.42119">
        <ele>59.675849</ele>
        <time>2020-07-15T18:15:17.592Z</time>
      </trkpt>
      <trkpt lat="64.18744" lon="10.42101">
        <ele>59.703203</ele>
        <time>2020-07-15T18:15:19.650Z</time>
      </trkpt>
      <trkpt lat="64.18769" lon="10.42061">
        <ele>59.76806</ele>
        <time>2020-07-15T18:15:25.446Z</time>
      </trkpt>
      <trkpt lat="64.18779" lon="10.42045">
        <ele>59.793249</ele>
        <time>2020-07-15T18:15:28.241Z</time>
      </trkpt>
      <trkpt lat="64.18824" lon="10.41985">
        <ele>59.903183</ele>
        <time>2020-07-15T18:15:39.734Z</time>
      </trkpt>
      <trkpt lat="64.18866" lon="10.41932">
        <ele>61.412313</ele>
        <time>2020-07-15T18:15:51.272Z</time>
      </trkpt>
      <trkpt lat="64.18875" lon="10.4192">
        <ele>61.780413</ele>
        <time>2020-07-15T18:15:54.719Z</time>
      </trkpt>
      <trkpt lat="64.19045" lon="10.41711">
        <ele>68.172235</ele>
        <time>2020-07-15T18:16:53.422Z</time>
      </trkpt>
      <trkpt lat="64.1909" lon="10.41634">
        <ele>70.053204</ele>
        <time>2020-07-15T18:17:08.730Z</time>
      </trkpt>
      <trkpt lat="64.19095" lon="10.41624">
        <ele>70.273775</ele>
        <time>2020-07-15T18:17:11.246Z</time>
      </trkpt>
      <trkpt lat="64.19099" lon="10.41615">
        <ele>70.46333</ele>
        <time>2020-07-15T18:17:12.594Z</time>
      </trkpt>
      <trkpt lat="64.19114" lon="10.41567">
        <ele>71.312527</ele>
        <time>2020-07-15T18:17:19.193Z</time>
      </trkpt>
      <trkpt lat="64.1913" lon="10.41482">
        <ele>72.379309</ele>
        <time>2020-07-15T18:17:30.461Z</time>
      </trkpt>
      <trkpt lat="64.19161" lon="10.41307">
        <ele>74.115324</ele>
        <time>2020-07-15T18:17:50.442Z</time>
      </trkpt>
      <trkpt lat="64.19165" lon="10.41284">
        <ele>74.349139</ele>
        <time>2020-07-15T18:17:53.007Z</time>
      </trkpt>
      <trkpt lat="64.19188" lon="10.41151">
        <ele>75.665543</ele>
        <time>2020-07-15T18:18:06.992Z</time>
      </trkpt>
      <trkpt lat="64.19199" lon="10.41092">
        <ele>76.473092</ele>
        <time>2020-07-15T18:18:13.786Z</time>
      </trkpt>
      <trkpt lat="64.19224" lon="10.40951">
        <ele>78.399157</ele>
        <time>2020-07-15T18:18:31.363Z</time>
      </trkpt>
      <trkpt lat="64.19261" lon="10.40756">
        <ele>81.127239</ele>
        <time>2020-07-15T18:18:58.157Z</time>
      </trkpt>
      <trkpt lat="64.19292" lon="10.40657">
        <ele>82.929589</ele>
        <time>2020-07-15T18:19:14.581Z</time>
      </trkpt>
      <trkpt lat="64.19325" lon="10.40589">
        <ele>84.418074</ele>
        <time>2020-07-15T18:19:28.150Z</time>
      </trkpt>
      <trkpt lat="64.19361" lon="10.40539">
        <ele>85.851421</ele>
        <time>2020-07-15T18:19:40.513Z</time>
      </trkpt>
      <trkpt lat="64.194" lon="10.4051">
        <ele>87.173766</ele>
        <time>2020-07-15T18:19:51.143Z</time>
      </trkpt>
      <trkpt lat="64.19438" lon="10.40503">
        <ele>88.175969</ele>
        <time>2020-07-15T18:19:59.845Z</time>
      </trkpt>
      <trkpt lat="64.1949" lon="10.40514">
        <ele>89.547834</ele>
        <time>2020-07-15T18:20:09.684Z</time>
      </trkpt>
      <trkpt lat="64.19709" lon="10.40563">
        <ele>100.409285</ele>
        <time>2020-07-15T18:21:18.124Z</time>
      </trkpt>
      <trkpt lat="64.19739" lon="10.40571">
        <ele>102.273824</ele>
        <time>2020-07-15T18:21:36.133Z</time>
      </trkpt>
      <trkpt lat="64.19756" lon="10.40581">
        <ele>103.505475</ele>
        <time>2020-07-15T18:21:42.404Z</time>
      </trkpt>
      <trkpt lat="64.19762" lon="10.40586">
        <ele>104.094175</ele>
        <time>2020-07-15T18:21:47.978Z</time>
      </trkpt>
      <trkpt lat="64.1977" lon="10.40595">
        <ele>104.871932</ele>
        <time>2020-07-15T18:21:55.429Z</time>
      </trkpt>
      <trkpt lat="64.19809" lon="10.40671">
        <ele>109.522668</ele>
        <time>2020-07-15T18:22:22.240Z</time>
      </trkpt>
      <trkpt lat="64.19833" lon="10.4076">
        <ele>113.678968</ele>
        <time>2020-07-15T18:22:48.991Z</time>
      </trkpt>
      <trkpt lat="64.19845" lon="10.40932">
        <ele>118.992472</ele>
        <time>2020-07-15T18:23:19.989Z</time>
      </trkpt>
      <trkpt lat="64.19875" lon="10.41199">
        <ele>115.326996</ele>
        <time>2020-07-15T18:23:35.111Z</time>
      </trkpt>
      <trkpt lat="64.1994" lon="10.41503">
        <ele>108.335732</ele>
        <time>2020-07-15T18:23:51.951Z</time>
      </trkpt>
      <trkpt lat="64.19987" lon="10.41636">
        <ele>104.179013</ele>
        <time>2020-07-15T18:24:01.099Z</time>
      </trkpt>
      <trkpt lat="64.20088" lon="10.41798">
        <ele>103.235146</ele>
        <time>2020-07-15T18:24:19.270Z</time>
      </trkpt>
      <trkpt lat="64.20115" lon="10.41827">
        <ele>103.064166</ele>
        <time>2020-07-15T18:24:24.847Z</time>
      </trkpt>
      <trkpt lat="64.20144" lon="10.41834">
        <ele>102.901072</ele>
        <time>2020-07-15T18:24:31.473Z</time>
      </trkpt>
      <trkpt lat="64.20223" lon="10.41781">
        <ele>109.359255</ele>
        <time>2020-07-15T18:24:57.550Z</time>
      </trkpt>
      <trkpt lat="64.20242" lon="10.41776">
        <ele>110.924717</ele>
        <time>2020-07-15T18:25:05.241Z</time>
      </trkpt>
      <trkpt lat="64.20264" lon="10.41787">
        <ele>112.793814</ele>
        <time>2020-07-15T18:25:14.933Z</time>
      </trkpt>
      <trkpt lat="64.20439" lon="10.42057">
        <ele>141.883668</ele>
        <time>2020-07-15T18:27:33.227Z</time>
      </trkpt>
      <trkpt lat="64.20494" lon="10.42094">
        <ele>151.90902</ele>
        <time>2020-07-15T18:28:21.780Z</time>
      </trkpt>
      <trkpt lat="64.20622" lon="10.42104">
        <ele>176.140973</ele>
        <time>2020-07-15T18:30:06.753Z</time>
      </trkpt>
      <trkpt lat="64.20652" lon="10.42118">
        <ele>181.261463</ele>
        <time>2020-07-15T18:30:28.165Z</time>
      </trkpt>
      <trkpt lat="64.20682" lon="10.42156">
        <ele>185.529964</ele>
        <time>2020-07-15T18:30:50.524Z</time>
      </trkpt>
      <trkpt lat="64.20734" lon="10.42251">
        <ele>193.941508</ele>
        <time>2020-07-15T18:31:29.947Z</time>
      </trkpt>
      <trkpt lat="64.20812" lon="10.42341">
        <ele>203.996534</ele>
        <time>2020-07-15T18:32:13.306Z</time>
      </trkpt>
      <trkpt lat="64.20931" lon="10.42474">
        <ele>213.851554</ele>
        <time>2020-07-15T18:33:09.281Z</time>
      </trkpt>
      <trkpt lat="64.21056" lon="10.42577">
        <ele>219.998914</ele>
        <time>2020-07-15T18:33:54.188Z</time>
      </trkpt>
      <trkpt lat="64.21146" lon="10.42573">
        <ele>223.058653</ele>
        <time>2020-07-15T18:34:16.102Z</time>
      </trkpt>
      <trkpt lat="64.21241" lon="10.42588">
        <ele>224.27878</ele>
        <time>2020-07-15T18:34:36.484Z</time>
      </trkpt>
      <trkpt lat="64.21312" lon="10.42576">
        <ele>225.182555</ele>
        <time>2020-07-15T18:34:51.515Z</time>
      </trkpt>
      <trkpt lat="64.21439" lon="10.42505">
        <ele>227.048865</ele>
        <time>2020-07-15T18:35:20.423Z</time>
      </trkpt>
      <trkpt lat="64.21477" lon="10.42478">
        <ele>227.611716</ele>
        <time>2020-07-15T18:35:29.601Z</time>
      </trkpt>
      <trkpt lat="64.21546" lon="10.42402">
        <ele>229.199031</ele>
        <time>2020-07-15T18:35:47.828Z</time>
      </trkpt>
      <trkpt lat="64.21627" lon="10.42361">
        <ele>231.002179</ele>
        <time>2020-07-15T18:36:08.438Z</time>
      </trkpt>
      <trkpt lat="64.21658" lon="10.42309">
        <ele>231.849411</ele>
        <time>2020-07-15T18:36:18.649Z</time>
      </trkpt>
      <trkpt lat="64.2173" lon="10.42119">
        <ele>234.345617</ele>
        <time>2020-07-15T18:36:48.230Z</time>
      </trkpt>
      <trkpt lat="64.21792" lon="10.4201">
        <ele>235.757782</ele>
        <time>2020-07-15T18:37:07.197Z</time>
      </trkpt>
      <trkpt lat="64.21952" lon="10.41682">
        <ele>234.421563</ele>
        <time>2020-07-15T18:37:42.416Z</time>
      </trkpt>
      <trkpt lat="64.22028" lon="10.41528">
        <ele>232.095792</ele>
        <time>2020-07-15T18:37:56.021Z</time>
      </trkpt>
      <trkpt lat="64.22066" lon="10.41454">
        <ele>230.668944</ele>
        <time>2020-07-15T18:38:02.450Z</time>
      </trkpt>
      <trkpt lat="64.22234" lon="10.4112">
        <ele>220.809556</ele>
        <time>2020-07-15T18:38:30.586Z</time>
      </trkpt>
      <trkpt lat="64.2234" lon="10.40838">
        <ele>210.564218</ele>
        <time>2020-07-15T18:38:49.086Z</time>
      </trkpt>
      <trkpt lat="64.22376" lon="10.40727">
        <ele>206.486637</ele>
        <time>2020-07-15T18:38:55.920Z</time>
      </trkpt>
      <trkpt lat="64.22391" lon="10.40647">
        <ele>203.90896</ele>
        <time>2020-07-15T18:39:00.346Z</time>
      </trkpt>
      <trkpt lat="64.22396" lon="10.40571">
        <ele>201.653966</ele>
        <time>2020-07-15T18:39:04.297Z</time>
      </trkpt>
      <trkpt lat="64.22386" lon="10.40298">
        <ele>194.453042</ele>
        <time>2020-07-15T18:39:18.845Z</time>
      </trkpt>
      <trkpt lat="64.22387" lon="10.40241">
        <ele>192.964148</ele>
        <time>2020-07-15T18:39:21.794Z</time>
      </trkpt>
      <trkpt lat="64.22398" lon="10.40183">
        <ele>191.307696</ele>
        <time>2020-07-15T18:39:25.033Z</time>
      </trkpt>
      <trkpt lat="64.22417" lon="10.40139">
        <ele>188.461561</ele>
        <time>2020-07-15T18:39:28.036Z</time>
      </trkpt>
      <trkpt lat="64.22449" lon="10.40113">
        <ele>183.703435</ele>
        <time>2020-07-15T18:39:31.686Z</time>
      </trkpt>
      <trkpt lat="64.22531" lon="10.40115">
        <ele>172.013744</ele>
        <time>2020-07-15T18:39:40.326Z</time>
      </trkpt>
      <trkpt lat="64.22596" lon="10.40063">
        <ele>161.439733</ele>
        <time>2020-07-15T18:39:47.372Z</time>
      </trkpt>
      <trkpt lat="64.22627" lon="10.40052">
        <ele>155.788553</ele>
        <time>2020-07-15T18:39:50.508Z</time>
      </trkpt>
      <trkpt lat="64.22651" lon="10.40062">
        <ele>151.225035</ele>
        <time>2020-07-15T18:39:53.054Z</time>
      </trkpt>
      <trkpt lat="64.22706" lon="10.40137">
        <ele>139.64259</ele>
        <time>2020-07-15T18:39:59.523Z</time>
      </trkpt>
      <trkpt lat="64.2275" lon="10.40156">
        <ele>131.823651</ele>
        <time>2020-07-15T18:40:04.181Z</time>
      </trkpt>
      <trkpt lat="64.22798" lon="10.4016">
        <ele>127.090191</ele>
        <time>2020-07-15T18:40:09.186Z</time>
      </trkpt>
      <trkpt lat="64.22893" lon="10.40123">
        <ele>117.512564</ele>
        <time>2020-07-15T18:40:19.842Z</time>
      </trkpt>
      <trkpt lat="64.2291" lon="10.40121">
        <ele>115.741991</ele>
        <time>2020-07-15T18:40:21.949Z</time>
      </trkpt>
      <trkpt lat="64.22923" lon="10.40122">
        <ele>114.519065</ele>
        <time>2020-07-15T18:40:23.419Z</time>
      </trkpt>
      <trkpt lat="64.22953" lon="10.40132">
        <ele>113.661701</ele>
        <time>2020-07-15T18:40:27.221Z</time>
      </trkpt>
      <trkpt lat="64.23012" lon="10.4017">
        <ele>112.04484</ele>
        <time>2020-07-15T18:40:35.402Z</time>
      </trkpt>
      <trkpt lat="64.23086" lon="10.40195">
        <ele>110.080847</ele>
        <time>2020-07-15T18:40:46.140Z</time>
      </trkpt>
      <trkpt lat="64.23199" lon="10.40277">
        <ele>110.469866</ele>
        <time>2020-07-15T18:41:07.842Z</time>
      </trkpt>
      <trkpt lat="64.23227" lon="10.40284">
        <ele>110.680996</ele>
        <time>2020-07-15T18:41:14.026Z</time>
      </trkpt>
      <trkpt lat="64.23366" lon="10.40269">
        <ele>113.507263</ele>
        <time>2020-07-15T18:41:49.457Z</time>
      </trkpt>
      <trkpt lat="64.23445" lon="10.40224">
        <ele>115.71375</ele>
        <time>2020-07-15T18:42:12.399Z</time>
      </trkpt>
      <trkpt lat="64.2349" lon="10.40212">
        <ele>116.711709</ele>
        <time>2020-07-15T18:42:24.723Z</time>
      </trkpt>
      <trkpt lat="64.23589" lon="10.40214">
        <ele>118.818097</ele>
        <time>2020-07-15T18:42:49.677Z</time>
      </trkpt>
      <trkpt lat="64.23645" lon="10.40176">
        <ele>119.805809</ele>
        <time>2020-07-15T18:43:02.250Z</time>
      </trkpt>
      <trkpt lat="64.23705" lon="10.40112">
        <ele>120.147293</ele>
        <time>2020-07-15T18:43:14.877Z</time>
      </trkpt>
      <trkpt lat="64.23735" lon="10.401">
        <ele>120.305331</ele>
        <time>2020-07-15T18:43:20.552Z</time>
      </trkpt>
      <trkpt lat="64.238" lon="10.4011">
        <ele>120.643751</ele>
        <time>2020-07-15T18:43:32.799Z</time>
      </trkpt>
      <trkpt lat="64.23877" lon="10.40169">
        <ele>120.885354</ele>
        <time>2020-07-15T18:43:48.689Z</time>
      </trkpt>
      <trkpt lat="64.23942" lon="10.40189">
        <ele>121.073784</ele>
        <time>2020-07-15T18:44:01.622Z</time>
      </trkpt>
      <trkpt lat="64.24019" lon="10.40198">
        <ele>120.596054</ele>
        <time>2020-07-15T18:44:14.624Z</time>
      </trkpt>
      <trkpt lat="64.24065" lon="10.40185">
        <ele>119.974381</ele>
        <time>2020-07-15T18:44:21.543Z</time>
      </trkpt>
      <trkpt lat="64.24075" lon="10.4018">
        <ele>119.834349</ele>
        <time>2020-07-15T18:44:23.033Z</time>
      </trkpt>
      <trkpt lat="64.24136" lon="10.4014">
        <ele>118.96588</ele>
        <time>2020-07-15T18:44:32.060Z</time>
      </trkpt>
      <trkpt lat="64.24172" lon="10.40125">
        <ele>118.407396</ele>
        <time>2020-07-15T18:44:37.090Z</time>
      </trkpt>
      <trkpt lat="64.24208" lon="10.40128">
        <ele>117.795845</ele>
        <time>2020-07-15T18:44:41.999Z</time>
      </trkpt>
      <trkpt lat="64.2424" lon="10.40148">
        <ele>117.234772</ele>
        <time>2020-07-15T18:44:46.484Z</time>
      </trkpt>
      <trkpt lat="64.243" lon="10.4022">
        <ele>116.079922</ele>
        <time>2020-07-15T18:44:56.489Z</time>
      </trkpt>
      <trkpt lat="64.24323" lon="10.40238">
        <ele>115.66532</ele>
        <time>2020-07-15T18:45:00.379Z</time>
      </trkpt>
      <trkpt lat="64.2447" lon="10.40266">
        <ele>115.955933</ele>
        <time>2020-07-15T18:45:26.082Z</time>
      </trkpt>
      <trkpt lat="64.24627" lon="10.40364">
        <ele>118.971931</ele>
        <time>2020-07-15T18:46:04.183Z</time>
      </trkpt>
      <trkpt lat="64.24979" lon="10.40394">
        <ele>126.289716</ele>
        <time>2020-07-15T18:47:50.386Z</time>
      </trkpt>
      <trkpt lat="64.2506" lon="10.40424">
        <ele>122.233594</ele>
        <time>2020-07-15T18:47:59.646Z</time>
      </trkpt>
      <trkpt lat="64.25065" lon="10.40427">
        <ele>121.441287</ele>
        <time>2020-07-15T18:48:00.231Z</time>
      </trkpt>
      <trkpt lat="64.25067" lon="10.40429">
        <ele>121.155394</ele>
        <time>2020-07-15T18:48:00.438Z</time>
      </trkpt>
      <trkpt lat="64.2513" lon="10.40507">
        <ele>110.352526</ele>
        <time>2020-07-15T18:48:07.933Z</time>
      </trkpt>
      <trkpt lat="64.25144" lon="10.4053">
        <ele>107.821399</ele>
        <time>2020-07-15T18:48:09.698Z</time>
      </trkpt>
      <trkpt lat="64.25146" lon="10.40535">
        <ele>107.37964</ele>
        <time>2020-07-15T18:48:10.021Z</time>
      </trkpt>
      <trkpt lat="64.25182" lon="10.40615">
        <ele>99.841574</ele>
        <time>2020-07-15T18:48:15.152Z</time>
      </trkpt>
      <trkpt lat="64.25211" lon="10.40716">
        <ele>90.647403</ele>
        <time>2020-07-15T18:48:20.546Z</time>
      </trkpt>
      <trkpt lat="64.2528" lon="10.41051">
        <ele>64.599391</ele>
        <time>2020-07-15T18:48:37.118Z</time>
      </trkpt>
      <trkpt lat="64.25297" lon="10.41184">
        <ele>58.92925</ele>
        <time>2020-07-15T18:48:43.664Z</time>
      </trkpt>
      <trkpt lat="64.25302" lon="10.41349">
        <ele>52.182249</ele>
        <time>2020-07-15T18:48:51.923Z</time>
      </trkpt>
      <trkpt lat="64.25297" lon="10.41681">
        <ele>46.370566</ele>
        <time>2020-07-15T18:49:11.242Z</time>
      </trkpt>
      <trkpt lat="64.25263" lon="10.42028">
        <ele>40.143679</ele>
        <time>2020-07-15T18:49:31.744Z</time>
      </trkpt>
      <trkpt lat="64.25257" lon="10.42146">
        <ele>37.829519</ele>
        <time>2020-07-15T18:49:37.889Z</time>
      </trkpt>
      <trkpt lat="64.25261" lon="10.42298">
        <ele>34.242637</ele>
        <time>2020-07-15T18:49:45.529Z</time>
      </trkpt>
      <trkpt lat="64.25277" lon="10.42437">
        <ele>30.452322</ele>
        <time>2020-07-15T18:49:52.629Z</time>
      </trkpt>
      <trkpt lat="64.25297" lon="10.42513">
        <ele>28.076328</ele>
        <time>2020-07-15T18:49:57.127Z</time>
      </trkpt>
      <trkpt lat="64.25324" lon="10.42557">
        <ele>26.05084</ele>
        <time>2020-07-15T18:50:01.008Z</time>
      </trkpt>
      <trkpt lat="64.25555" lon="10.42708">
        <ele>20.577117</ele>
        <time>2020-07-15T18:50:34.133Z</time>
      </trkpt>
      <trkpt lat="64.25614" lon="10.42712">
        <ele>20.315317</ele>
        <time>2020-07-15T18:50:45.965Z</time>
      </trkpt>
      <trkpt lat="64.25646" lon="10.42695">
        <ele>20.172582</ele>
        <time>2020-07-15T18:50:52.534Z</time>
      </trkpt>
      <trkpt lat="64.25674" lon="10.42668">
        <ele>20.040108</ele>
        <time>2020-07-15T18:50:58.506Z</time>
      </trkpt>
      <trkpt lat="64.25782" lon="10.42513">
        <ele>18.3025</ele>
        <time>2020-07-15T18:51:19.211Z</time>
      </trkpt>
      <trkpt lat="64.25918" lon="10.42335">
        <ele>14.473001</ele>
        <time>2020-07-15T18:51:39.467Z</time>
      </trkpt>
      <trkpt lat="64.26021" lon="10.42152">
        <ele>11.88133</ele>
        <time>2020-07-15T18:51:56.698Z</time>
      </trkpt>
      <trkpt lat="64.26053" lon="10.42117">
        <ele>11.832992</ele>
        <time>2020-07-15T18:52:02.353Z</time>
      </trkpt>
      <trkpt lat="64.26083" lon="10.42114">
        <ele>11.792504</ele>
        <time>2020-07-15T18:52:08.044Z</time>
      </trkpt>
      <trkpt lat="64.26109" lon="10.42132">
        <ele>11.756821</ele>
        <time>2020-07-15T18:52:13.798Z</time>
      </trkpt>
      <trkpt lat="64.26185" lon="10.42259">
        <ele>13.649386</ele>
        <time>2020-07-15T18:52:38.493Z</time>
      </trkpt>
      <trkpt lat="64.26219" lon="10.42288">
        <ele>14.95474</ele>
        <time>2020-07-15T18:52:49.593Z</time>
      </trkpt>
      <trkpt lat="64.2632" lon="10.42306">
        <ele>18.353365</ele>
        <time>2020-07-15T18:53:21.724Z</time>
      </trkpt>
      <trkpt lat="64.26345" lon="10.42296">
        <ele>18.874757</ele>
        <time>2020-07-15T18:53:29.453Z</time>
      </trkpt>
      <trkpt lat="64.26368" lon="10.42269">
        <ele>19.408817</ele>
        <time>2020-07-15T18:53:36.739Z</time>
      </trkpt>
      <trkpt lat="64.26399" lon="10.42193">
        <ele>20.336906</ele>
        <time>2020-07-15T18:53:47.762Z</time>
      </trkpt>
      <trkpt lat="64.26437" lon="10.42014">
        <ele>21.452499</ele>
        <time>2020-07-15T18:54:05.073Z</time>
      </trkpt>
      <trkpt lat="64.26443" lon="10.41934">
        <ele>20.737887</ele>
        <time>2020-07-15T18:54:10.944Z</time>
      </trkpt>
      <trkpt lat="64.26433" lon="10.41728">
        <ele>18.935227</ele>
        <time>2020-07-15T18:54:23.278Z</time>
      </trkpt>
      <trkpt lat="64.26441" lon="10.41603">
        <ele>17.65475</ele>
        <time>2020-07-15T18:54:30.190Z</time>
      </trkpt>
      <trkpt lat="64.26458" lon="10.41518">
        <ele>16.384984</ele>
        <time>2020-07-15T18:54:35.321Z</time>
      </trkpt>
      <trkpt lat="64.26511" lon="10.41406">
        <ele>14.134499</ele>
        <time>2020-07-15T18:54:44.609Z</time>
      </trkpt>
      <trkpt lat="64.26523" lon="10.41363">
        <ele>13.445934</ele>
        <time>2020-07-15T18:54:47.520Z</time>
      </trkpt>
      <trkpt lat="64.2653" lon="10.41299">
        <ele>12.547339</ele>
        <time>2020-07-15T18:54:51.424Z</time>
      </trkpt>
      <trkpt lat="64.26528" lon="10.41151">
        <ele>12.993871</ele>
        <time>2020-07-15T18:55:01.295Z</time>
      </trkpt>
      <trkpt lat="64.2654" lon="10.41074">
        <ele>13.248317</ele>
        <time>2020-07-15T18:55:08.408Z</time>
      </trkpt>
      <trkpt lat="64.26555" lon="10.41032">
        <ele>13.422656</ele>
        <time>2020-07-15T18:55:14.140Z</time>
      </trkpt>
      <trkpt lat="64.26576" lon="10.40999">
        <ele>13.603192</ele>
        <time>2020-07-15T18:55:20.696Z</time>
      </trkpt>
      <trkpt lat="64.26732" lon="10.40846">
        <ele>16.882393</ele>
        <time>2020-07-15T18:56:07.728Z</time>
      </trkpt>
      <trkpt lat="64.26906" lon="10.40771">
        <ele>17.382183</ele>
        <time>2020-07-15T18:56:39.211Z</time>
      </trkpt>
      <trkpt lat="64.26943" lon="10.40774">
        <ele>17.266642</ele>
        <time>2020-07-15T18:56:44.593Z</time>
      </trkpt>
      <trkpt lat="64.26977" lon="10.40795">
        <ele>17.182815</ele>
        <time>2020-07-15T18:56:49.737Z</time>
      </trkpt>
      <trkpt lat="64.27006" lon="10.40834">
        <ele>17.107902</ele>
        <time>2020-07-15T18:56:54.816Z</time>
      </trkpt>
      <trkpt lat="64.27031" lon="10.40891">
        <ele>17.028501</ele>
        <time>2020-07-15T18:57:00.448Z</time>
      </trkpt>
      <trkpt lat="64.27093" lon="10.4115">
        <ele>17.51789</ele>
        <time>2020-07-15T18:57:26.396Z</time>
      </trkpt>
      <trkpt lat="64.27141" lon="10.41328">
        <ele>18.887936</ele>
        <time>2020-07-15T18:57:49.565Z</time>
      </trkpt>
      <trkpt lat="64.27233" lon="10.41572">
        <ele>18.542679</ele>
        <time>2020-07-15T18:58:18.198Z</time>
      </trkpt>
      <trkpt lat="64.27277" lon="10.41627">
        <ele>18.029106</ele>
        <time>2020-07-15T18:58:25.108Z</time>
      </trkpt>
      <trkpt lat="64.27316" lon="10.4164">
        <ele>17.463586</ele>
        <time>2020-07-15T18:58:30.057Z</time>
      </trkpt>
      <trkpt lat="64.27357" lon="10.4162">
        <ele>15.869082</ele>
        <time>2020-07-15T18:58:35.211Z</time>
      </trkpt>
      <trkpt lat="64.27405" lon="10.41549">
        <ele>13.679251</ele>
        <time>2020-07-15T18:58:42.365Z</time>
      </trkpt>
      <trkpt lat="64.27417" lon="10.41527">
        <ele>13.10828</ele>
        <time>2020-07-15T18:58:44.130Z</time>
      </trkpt>
      <trkpt lat="64.27427" lon="10.41507">
        <ele>12.598623</ele>
        <time>2020-07-15T18:58:45.875Z</time>
      </trkpt>
      <trkpt lat="64.2752" lon="10.41332">
        <ele>10.444299</ele>
        <time>2020-07-15T18:59:02.077Z</time>
      </trkpt>
      <trkpt lat="64.27589" lon="10.41203">
        <ele>9.986195</ele>
        <time>2020-07-15T18:59:19.888Z</time>
      </trkpt>
      <trkpt lat="64.27626" lon="10.41134">
        <ele>10.316735</ele>
        <time>2020-07-15T18:59:31.498Z</time>
      </trkpt>
      <trkpt lat="64.27683" lon="10.41027">
        <ele>11.335067</ele>
        <time>2020-07-15T18:59:49.956Z</time>
      </trkpt>
      <trkpt lat="64.27774" lon="10.40856">
        <ele>11.884294</ele>
        <time>2020-07-15T19:00:13.604Z</time>
      </trkpt>
      <trkpt lat="64.27826" lon="10.40758">
        <ele>11.035332</ele>
        <time>2020-07-15T19:00:23.984Z</time>
      </trkpt>
      <trkpt lat="64.27857" lon="10.40701">
        <ele>10.531126</ele>
        <time>2020-07-15T19:00:29.550Z</time>
      </trkpt>
      <trkpt lat="64.27891" lon="10.40662">
        <ele>10.014059</ele>
        <time>2020-07-15T19:00:34.503Z</time>
      </trkpt>
      <trkpt lat="64.27916" lon="10.40644">
        <ele>9.514221</ele>
        <time>2020-07-15T19:00:37.945Z</time>
      </trkpt>
      <trkpt lat="64.27963" lon="10.40631">
        <ele>8.637311</ele>
        <time>2020-07-15T19:00:44.212Z</time>
      </trkpt>
      <trkpt lat="64.2803" lon="10.40619">
        <ele>7.363179</ele>
        <time>2020-07-15T19:00:53.988Z</time>
      </trkpt>
      <trkpt lat="64.28035" lon="10.40618">
        <ele>7.278184</ele>
        <time>2020-07-15T19:00:54.667Z</time>
      </trkpt>
      <trkpt lat="64.28104" lon="10.40606">
        <ele>6.813863</ele>
        <time>2020-07-15T19:01:06.302Z</time>
      </trkpt>
      <trkpt lat="64.28165" lon="10.40607">
        <ele>6.922215</ele>
        <time>2020-07-15T19:01:17.961Z</time>
      </trkpt>
      <trkpt lat="64.28212" lon="10.40651">
        <ele>7.011053</ele>
        <time>2020-07-15T19:01:27.923Z</time>
      </trkpt>
      <trkpt lat="64.28245" lon="10.40699">
        <ele>7.147488</ele>
        <time>2020-07-15T19:01:35.070Z</time>
      </trkpt>
      <trkpt lat="64.28329" lon="10.40825">
        <ele>7.889604</ele>
        <time>2020-07-15T19:01:56.296Z</time>
      </trkpt>
      <trkpt lat="64.2835" lon="10.40851">
        <ele>8.067775</ele>
        <time>2020-07-15T19:02:01.430Z</time>
      </trkpt>
      <trkpt lat="64.28374" lon="10.40864">
        <ele>8.251759</ele>
        <time>2020-07-15T19:02:05.666Z</time>
      </trkpt>
      <trkpt lat="64.28378" lon="10.40864">
        <ele>8.284497</ele>
        <time>2020-07-15T19:02:06.285Z</time>
      </trkpt>
      <trkpt lat="64.28385" lon="10.40861">
        <ele>8.33271</ele>
        <time>2020-07-15T19:02:08.511Z</time>
      </trkpt>
      <trkpt lat="64.28412" lon="10.4082">
        <ele>8.425512</ele>
        <time>2020-07-15T19:02:14.018Z</time>
      </trkpt>
      <trkpt lat="64.28416" lon="10.4081">
        <ele>8.432961</ele>
        <time>2020-07-15T19:02:16.127Z</time>
      </trkpt>
      <trkpt lat="64.28419" lon="10.40797">
        <ele>8.441278</ele>
        <time>2020-07-15T19:02:17.162Z</time>
      </trkpt>
      <trkpt lat="64.28423" lon="10.4075">
        <ele>8.468479</ele>
        <time>2020-07-15T19:02:20.469Z</time>
      </trkpt>
      <trkpt lat="64.28424" lon="10.40713">
        <ele>8.488958</ele>
        <time>2020-07-15T19:02:24.559Z</time>
      </trkpt>
      <trkpt lat="64.28423" lon="10.40651">
        <ele>8.524167</ele>
        <time>2020-07-15T19:02:29.514Z</time>
      </trkpt>
      <trkpt lat="64.28432" lon="10.4056">
        <ele>8.576781</ele>
        <time>2020-07-15T19:02:37.185Z</time>
      </trkpt>
      <trkpt lat="64.28471" lon="10.40437">
        <ele>8.562357</ele>
        <time>2020-07-15T19:02:47.660Z</time>
      </trkpt>
      <trkpt lat="64.28494" lon="10.40385">
        <ele>8.488098</ele>
        <time>2020-07-15T19:02:52.686Z</time>
      </trkpt>
      <trkpt lat="64.28496" lon="10.40381">
        <ele>8.480946</ele>
        <time>2020-07-15T19:02:53.032Z</time>
      </trkpt>
      <trkpt lat="64.28565" lon="10.40259">
        <ele>8.277385</ele>
        <time>2020-07-15T19:03:07.275Z</time>
      </trkpt>
      <trkpt lat="64.28596" lon="10.4023">
        <ele>8.307336</ele>
        <time>2020-07-15T19:03:13.823Z</time>
      </trkpt>
      <trkpt lat="64.28611" lon="10.40234">
        <ele>8.951382</ele>
        <time>2020-07-15T19:03:17.355Z</time>
      </trkpt>
      <trkpt lat="64.28624" lon="10.40251">
        <ele>9.578679</ele>
        <time>2020-07-15T19:03:20.438Z</time>
      </trkpt>
      <trkpt lat="64.28661" lon="10.40343">
        <ele>11.88786</ele>
        <time>2020-07-15T19:03:35.967Z</time>
      </trkpt>
      <trkpt lat="64.28712" lon="10.40585">
        <ele>17.674781</ele>
        <time>2020-07-15T19:04:19.587Z</time>
      </trkpt>
      <trkpt lat="64.28846" lon="10.40956">
        <ele>32.318108</ele>
        <time>2020-07-15T19:05:51.681Z</time>
      </trkpt>
      <trkpt lat="64.28884" lon="10.41083">
        <ele>35.677705</ele>
        <time>2020-07-15T19:06:15.042Z</time>
      </trkpt>
      <trkpt lat="64.28907" lon="10.41186">
        <ele>38.215848</ele>
        <time>2020-07-15T19:06:28.759Z</time>
      </trkpt>
      <trkpt lat="64.28925" lon="10.41316">
        <ele>38.143204</ele>
        <time>2020-07-15T19:06:40.613Z</time>
      </trkpt>
      <trkpt lat="64.28933" lon="10.41443">
        <ele>37.546096</ele>
        <time>2020-07-15T19:06:48.759Z</time>
      </trkpt>
      <trkpt lat="64.28932" lon="10.41554">
        <ele>37.02508</ele>
        <time>2020-07-15T19:06:55.288Z</time>
      </trkpt>
      <trkpt lat="64.28923" lon="10.41719">
        <ele>36.449488</ele>
        <time>2020-07-15T19:07:04.977Z</time>
      </trkpt>
      <trkpt lat="64.28918" lon="10.4178">
        <ele>36.276435</ele>
        <time>2020-07-15T19:07:08.722Z</time>
      </trkpt>
      <trkpt lat="64.28904" lon="10.41932">
        <ele>35.84283</ele>
        <time>2020-07-15T19:07:19.457Z</time>
      </trkpt>
      <trkpt lat="64.28862" lon="10.42394">
        <ele>39.95874</ele>
        <time>2020-07-15T19:08:13.235Z</time>
      </trkpt>
      <trkpt lat="64.28854" lon="10.42549">
        <ele>41.497295</ele>
        <time>2020-07-15T19:08:32.928Z</time>
      </trkpt>
      <trkpt lat="64.28853" lon="10.42613">
        <ele>42.10011</ele>
        <time>2020-07-15T19:08:40.722Z</time>
      </trkpt>
      <trkpt lat="64.2885" lon="10.42771">
        <ele>43.583231</ele>
        <time>2020-07-15T19:08:57.902Z</time>
      </trkpt>
      <trkpt lat="64.28843" lon="10.43022">
        <ele>42.830142</ele>
        <time>2020-07-15T19:09:16.925Z</time>
      </trkpt>
      <trkpt lat="64.28842" lon="10.43112">
        <ele>42.134793</ele>
        <time>2020-07-15T19:09:22.366Z</time>
      </trkpt>
      <trkpt lat="64.28842" lon="10.43145">
        <ele>41.87185</ele>
        <time>2020-07-15T19:09:24.275Z</time>
      </trkpt>
      <trkpt lat="64.28844" lon="10.43229">
        <ele>41.220139</ele>
        <time>2020-07-15T19:09:29.067Z</time>
      </trkpt>
      <trkpt lat="64.28848" lon="10.43297">
        <ele>39.675203</ele>
        <time>2020-07-15T19:09:32.892Z</time>
      </trkpt>
      <trkpt lat="64.28849" lon="10.43314">
        <ele>39.145051</ele>
        <time>2020-07-15T19:09:33.749Z</time>
      </trkpt>
      <trkpt lat="64.28863" lon="10.43483">
        <ele>33.807067</ele>
        <time>2020-07-15T19:09:42.510Z</time>
      </trkpt>
      <trkpt lat="64.28872" lon="10.43597">
        <ele>30.196824</ele>
        <time>2020-07-15T19:09:48.167Z</time>
      </trkpt>
      <trkpt lat="64.28874" lon="10.43613">
        <ele>29.686452</ele>
        <time>2020-07-15T19:09:48.943Z</time>
      </trkpt>
      <trkpt lat="64.28893" lon="10.43844">
        <ele>20.187461</ele>
        <time>2020-07-15T19:09:59.908Z</time>
      </trkpt>
      <trkpt lat="64.289" lon="10.43938">
        <ele>16.067224</ele>
        <time>2020-07-15T19:10:04.385Z</time>
      </trkpt>
      <trkpt lat="64.28904" lon="10.43985">
        <ele>14.013466</ele>
        <time>2020-07-15T19:10:06.652Z</time>
      </trkpt>
      <trkpt lat="64.28907" lon="10.4402">
        <ele>12.450753</ele>
        <time>2020-07-15T19:10:08.353Z</time>
      </trkpt>
      <trkpt lat="64.28936" lon="10.44374">
        <ele>3.799338</ele>
        <time>2020-07-15T19:10:26.602Z</time>
      </trkpt>
      <trkpt lat="64.28938" lon="10.44393">
        <ele>3.395399</ele>
        <time>2020-07-15T19:10:27.917Z</time>
      </trkpt>
      <trkpt lat="64.28959" lon="10.44543">
        <ele>2.022684</ele>
        <time>2020-07-15T19:10:39.285Z</time>
      </trkpt>
      <trkpt lat="64.29049" lon="10.4496">
        <ele>7.581999</ele>
        <time>2020-07-15T19:11:28.034Z</time>
      </trkpt>
      <trkpt lat="64.29066" lon="10.45021">
        <ele>9.661209</ele>
        <time>2020-07-15T19:11:42.166Z</time>
      </trkpt>
      <trkpt lat="64.29088" lon="10.45063">
        <ele>11.592083</ele>
        <time>2020-07-15T19:11:55.335Z</time>
      </trkpt>
      <trkpt lat="64.29112" lon="10.45084">
        <ele>13.271926</ele>
        <time>2020-07-15T19:12:05.718Z</time>
      </trkpt>
      <trkpt lat="64.29143" lon="10.45089">
        <ele>15.379812</ele>
        <time>2020-07-15T19:12:20.261Z</time>
      </trkpt>
      <trkpt lat="64.29177" lon="10.45064">
        <ele>18.234906</ele>
        <time>2020-07-15T19:12:37.857Z</time>
      </trkpt>
      <trkpt lat="64.29186" lon="10.45052">
        <ele>19.063595</ele>
        <time>2020-07-15T19:12:44.043Z</time>
      </trkpt>
      <trkpt lat="64.29192" lon="10.45041">
        <ele>19.757771</ele>
        <time>2020-07-15T19:12:49.174Z</time>
      </trkpt>
      <trkpt lat="64.29214" lon="10.44982">
        <ele>22.599424</ele>
        <time>2020-07-15T19:13:05.970Z</time>
      </trkpt>
      <trkpt lat="64.29275" lon="10.44689">
        <ele>31.404337</ele>
        <time>2020-07-15T19:14:04.956Z</time>
      </trkpt>
      <trkpt lat="64.29307" lon="10.44612">
        <ele>31.685113</ele>
        <time>2020-07-15T19:14:14.700Z</time>
      </trkpt>
      <trkpt lat="64.29355" lon="10.44574">
        <ele>31.990468</ele>
        <time>2020-07-15T19:14:22.525Z</time>
      </trkpt>
      <trkpt lat="64.29481" lon="10.44517">
        <ele>27.70721</ele>
        <time>2020-07-15T19:14:38.215Z</time>
      </trkpt>
      <trkpt lat="64.29528" lon="10.44512">
        <ele>25.161553</ele>
        <time>2020-07-15T19:14:43.727Z</time>
      </trkpt>
      <trkpt lat="64.29578" lon="10.44529">
        <ele>22.484948</ele>
        <time>2020-07-15T19:14:49.575Z</time>
      </trkpt>
      <trkpt lat="64.29617" lon="10.44564">
        <ele>20.483676</ele>
        <time>2020-07-15T19:14:54.527Z</time>
      </trkpt>
      <trkpt lat="64.29759" lon="10.44725">
        <ele>13.543245</ele>
        <time>2020-07-15T19:15:14.180Z</time>
      </trkpt>
      <trkpt lat="64.29781" lon="10.44758">
        <ele>12.942722</ele>
        <time>2020-07-15T19:15:17.780Z</time>
      </trkpt>
      <trkpt lat="64.29792" lon="10.44787">
        <ele>12.569876</ele>
        <time>2020-07-15T19:15:20.058Z</time>
      </trkpt>
      <trkpt lat="64.298" lon="10.44847">
        <ele>11.944309</ele>
        <time>2020-07-15T19:15:23.960Z</time>
      </trkpt>
      <trkpt lat="64.29798" lon="10.44934">
        <ele>11.087879</ele>
        <time>2020-07-15T19:15:29.467Z</time>
      </trkpt>
      <trkpt lat="64.29759" lon="10.45202">
        <ele>8.293251</ele>
        <time>2020-07-15T19:15:47.603Z</time>
      </trkpt>
      <trkpt lat="64.29755" lon="10.45281">
        <ele>7.509537</ele>
        <time>2020-07-15T19:15:52.166Z</time>
      </trkpt>
      <trkpt lat="64.2976" lon="10.45335">
        <ele>6.953066</ele>
        <time>2020-07-15T19:15:55.705Z</time>
      </trkpt>
      <trkpt lat="64.29771" lon="10.45376">
        <ele>6.487533</ele>
        <time>2020-07-15T19:15:58.284Z</time>
      </trkpt>
      <trkpt lat="64.2979" lon="10.45416">
        <ele>5.888858</ele>
        <time>2020-07-15T19:16:01.657Z</time>
      </trkpt>
      <trkpt lat="64.29812" lon="10.45438">
        <ele>5.309714</ele>
        <time>2020-07-15T19:16:05.262Z</time>
      </trkpt>
      <trkpt lat="64.29819" lon="10.45441">
        <ele>5.145014</ele>
        <time>2020-07-15T19:16:06.006Z</time>
      </trkpt>
      <trkpt lat="64.29833" lon="10.45445">
        <ele>4.808121</ele>
        <time>2020-07-15T19:16:08.060Z</time>
      </trkpt>
      <trkpt lat="64.29982" lon="10.45466">
        <ele>1.481922</ele>
        <time>2020-07-15T19:16:28.414Z</time>
      </trkpt>
      <trkpt lat="64.2999" lon="10.45468">
        <ele>1.450172</ele>
        <time>2020-07-15T19:16:29.824Z</time>
      </trkpt>
      <trkpt lat="64.30012" lon="10.45471">
        <ele>1.358263</ele>
        <time>2020-07-15T19:16:33.646Z</time>
      </trkpt>
      <trkpt lat="64.30063" lon="10.45502">
        <ele>1.14145</ele>
        <time>2020-07-15T19:16:43.039Z</time>
      </trkpt>
      <trkpt lat="64.30111" lon="10.45552">
        <ele>0.925434</ele>
        <time>2020-07-15T19:16:52.442Z</time>
      </trkpt>
      <trkpt lat="64.30167" lon="10.45629">
        <ele>0.768402</ele>
        <time>2020-07-15T19:17:04.297Z</time>
      </trkpt>
      <trkpt lat="64.30191" lon="10.45666">
        <ele>0.743912</ele>
        <time>2020-07-15T19:17:09.436Z</time>
      </trkpt>
      <trkpt lat="64.30323" lon="10.45853">
        <ele>0.620788</ele>
        <time>2020-07-15T19:17:36.281Z</time>
      </trkpt>
      <trkpt lat="64.3037" lon="10.45921">
        <ele>0.584582</ele>
        <time>2020-07-15T19:17:45.896Z</time>
      </trkpt>
      <trkpt lat="64.30421" lon="10.46017">
        <ele>0.541912</ele>
        <time>2020-07-15T19:17:57.498Z</time>
      </trkpt>
      <trkpt lat="64.30456" lon="10.46108">
        <ele>0.774388</ele>
        <time>2020-07-15T19:18:07.044Z</time>
      </trkpt>
      <trkpt lat="64.30529" lon="10.46371">
        <ele>1.807007</ele>
        <time>2020-07-15T19:18:34.065Z</time>
      </trkpt>
      <trkpt lat="64.30557" lon="10.46505">
        <ele>3.377847</ele>
        <time>2020-07-15T19:18:49.741Z</time>
      </trkpt>
      <trkpt lat="64.30562" lon="10.4654">
        <ele>3.831428</ele>
        <time>2020-07-15T19:18:53.680Z</time>
      </trkpt>
      <trkpt lat="64.30567" lon="10.46592">
        <ele>4.497387</ele>
        <time>2020-07-15T19:19:00.881Z</time>
      </trkpt>
      <trkpt lat="64.3058" lon="10.46733">
        <ele>6.262258</ele>
        <time>2020-07-15T19:19:17.580Z</time>
      </trkpt>
      <trkpt lat="64.30581" lon="10.46749">
        <ele>6.459939</ele>
        <time>2020-07-15T19:19:20.471Z</time>
      </trkpt>
      <trkpt lat="64.30595" lon="10.46908">
        <ele>8.996558</ele>
        <time>2020-07-15T19:19:41.412Z</time>
      </trkpt>
      <trkpt lat="64.30595" lon="10.46915">
        <ele>9.126625</ele>
        <time>2020-07-15T19:19:43.338Z</time>
      </trkpt>
      <trkpt lat="64.30595" lon="10.46919">
        <ele>9.192649</ele>
        <time>2020-07-15T19:19:44.075Z</time>
      </trkpt>
      <trkpt lat="64.30534" lon="10.46976">
        <ele>11.751923</ele>
        <time>2020-07-15T19:20:03.281Z</time>
      </trkpt>
      <trkpt lat="64.30519" lon="10.46991">
        <ele>12.385714</ele>
        <time>2020-07-15T19:20:09.340Z</time>
      </trkpt>
      <trkpt lat="64.3051" lon="10.47">
        <ele>12.752103</ele>
        <time>2020-07-15T19:20:11.564Z</time>
      </trkpt>
      <trkpt lat="64.30442" lon="10.47066">
        <ele>15.236573</ele>
        <time>2020-07-15T19:20:33.423Z</time>
      </trkpt>
      <trkpt lat="64.30419" lon="10.47086">
        <ele>15.974783</ele>
        <time>2020-07-15T19:20:40.368Z</time>
      </trkpt>
      <trkpt lat="64.30374" lon="10.47109">
        <ele>17.35805</ele>
        <time>2020-07-15T19:20:52.753Z</time>
      </trkpt>
      <trkpt lat="64.30289" lon="10.47127">
        <ele>19.70528</ele>
        <time>2020-07-15T19:21:15.074Z</time>
      </trkpt>
      <trkpt lat="64.30258" lon="10.47144">
        <ele>20.306274</ele>
        <time>2020-07-15T19:21:23.020Z</time>
      </trkpt>
      <trkpt lat="64.30192" lon="10.47215">
        <ele>21.698747</ele>
        <time>2020-07-15T19:21:40.635Z</time>
      </trkpt>
      <trkpt lat="64.30148" lon="10.47294">
        <ele>22.744878</ele>
        <time>2020-07-15T19:21:53.253Z</time>
      </trkpt>
      <trkpt lat="64.30104" lon="10.47412">
        <ele>23.148599</ele>
        <time>2020-07-15T19:22:07.589Z</time>
      </trkpt>
      <trkpt lat="64.30092" lon="10.47477">
        <ele>23.324487</ele>
        <time>2020-07-15T19:22:13.814Z</time>
      </trkpt>
      <trkpt lat="64.30086" lon="10.4768">
        <ele>23.770909</ele>
        <time>2020-07-15T19:22:30.159Z</time>
      </trkpt>
      <trkpt lat="64.30089" lon="10.47872">
        <ele>23.316596</ele>
        <time>2020-07-15T19:22:43.567Z</time>
      </trkpt>
      <trkpt lat="64.30099" lon="10.47966">
        <ele>23.089065</ele>
        <time>2020-07-15T19:22:50.042Z</time>
      </trkpt>
      <trkpt lat="64.30114" lon="10.48053">
        <ele>22.866776</ele>
        <time>2020-07-15T19:22:56.338Z</time>
      </trkpt>
      <trkpt lat="64.30261" lon="10.48575">
        <ele>23.922971</ele>
        <time>2020-07-15T19:23:45.904Z</time>
      </trkpt>
      <trkpt lat="64.30294" lon="10.48663">
        <ele>24.56195</ele>
        <time>2020-07-15T19:23:59.189Z</time>
      </trkpt>
      <trkpt lat="64.30461" lon="10.49017">
        <ele>26.877133</ele>
        <time>2020-07-15T19:24:52.256Z</time>
      </trkpt>
      <trkpt lat="64.3049" lon="10.49095">
        <ele>25.034093</ele>
        <time>2020-07-15T19:24:57.771Z</time>
      </trkpt>
      <trkpt lat="64.30512" lon="10.49178">
        <ele>23.208883</ele>
        <time>2020-07-15T19:25:02.894Z</time>
      </trkpt>
      <trkpt lat="64.30526" lon="10.4927">
        <ele>21.366586</ele>
        <time>2020-07-15T19:25:07.935Z</time>
      </trkpt>
      <trkpt lat="64.30539" lon="10.49401">
        <ele>18.916231</ele>
        <time>2020-07-15T19:25:14.693Z</time>
      </trkpt>
      <trkpt lat="64.30585" lon="10.50095">
        <ele>10.433418</ele>
        <time>2020-07-15T19:25:55.624Z</time>
      </trkpt>
      <trkpt lat="64.30635" lon="10.50457">
        <ele>9.141746</ele>
        <time>2020-07-15T19:26:21.722Z</time>
      </trkpt>
      <trkpt lat="64.30646" lon="10.50593">
        <ele>9.024377</ele>
        <time>2020-07-15T19:26:32.445Z</time>
      </trkpt>
      <trkpt lat="64.30646" lon="10.50664">
        <ele>10.014593</ele>
        <time>2020-07-15T19:26:40.053Z</time>
      </trkpt>
      <trkpt lat="64.30646" lon="10.50902">
        <ele>13.916013</ele>
        <time>2020-07-15T19:27:10.154Z</time>
      </trkpt>
      <trkpt lat="64.30646" lon="10.50982">
        <ele>15.226386</ele>
        <time>2020-07-15T19:27:23.272Z</time>
      </trkpt>
      <trkpt lat="64.30637" lon="10.51141">
        <ele>18.362532</ele>
        <time>2020-07-15T19:27:49.157Z</time>
      </trkpt>
      <trkpt lat="64.30623" lon="10.51216">
        <ele>20.038159</ele>
        <time>2020-07-15T19:28:02.211Z</time>
      </trkpt>
      <trkpt lat="64.30607" lon="10.51268">
        <ele>21.335137</ele>
        <time>2020-07-15T19:28:11.816Z</time>
      </trkpt>
      <trkpt lat="64.30598" lon="10.51292">
        <ele>22.006175</ele>
        <time>2020-07-15T19:28:17.692Z</time>
      </trkpt>
      <trkpt lat="64.30592" lon="10.51305">
        <ele>22.373784</ele>
        <time>2020-07-15T19:28:19.969Z</time>
      </trkpt>
      <trkpt lat="64.30562" lon="10.51356">
        <ele>24.124092</ele>
        <time>2020-07-15T19:28:30.528Z</time>
      </trkpt>
      <trkpt lat="64.30519" lon="10.51393">
        <ele>23.760498</ele>
        <time>2020-07-15T19:28:39.237Z</time>
      </trkpt>
      <trkpt lat="64.30476" lon="10.51405">
        <ele>23.188355</ele>
        <time>2020-07-15T19:28:46.293Z</time>
      </trkpt>
      <trkpt lat="64.30417" lon="10.51397">
        <ele>22.414989</ele>
        <time>2020-07-15T19:28:54.311Z</time>
      </trkpt>
      <trkpt lat="64.304" lon="10.5139">
        <ele>22.193123</ele>
        <time>2020-07-15T19:28:56.374Z</time>
      </trkpt>
      <trkpt lat="64.30386" lon="10.51383">
        <ele>22.005706</ele>
        <time>2020-07-15T19:28:58.303Z</time>
      </trkpt>
      <trkpt lat="64.30374" lon="10.51378">
        <ele>21.701955</ele>
        <time>2020-07-15T19:28:59.760Z</time>
      </trkpt>
      <trkpt lat="64.3024" lon="10.51307">
        <ele>17.519082</ele>
        <time>2020-07-15T19:29:17.347Z</time>
      </trkpt>
      <trkpt lat="64.30167" lon="10.51267">
        <ele>16.30724</ele>
        <time>2020-07-15T19:29:28.810Z</time>
      </trkpt>
      <trkpt lat="64.3005" lon="10.51207">
        <ele>15.789902</ele>
        <time>2020-07-15T19:29:49.775Z</time>
      </trkpt>
      <trkpt lat="64.29974" lon="10.5114">
        <ele>14.993699</ele>
        <time>2020-07-15T19:30:05.186Z</time>
      </trkpt>
      <trkpt lat="64.29936" lon="10.51122">
        <ele>14.554872</ele>
        <time>2020-07-15T19:30:11.448Z</time>
      </trkpt>
      <trkpt lat="64.29932" lon="10.51122">
        <ele>14.513898</ele>
        <time>2020-07-15T19:30:11.949Z</time>
      </trkpt>
      <trkpt lat="64.29927" lon="10.51122">
        <ele>14.459281</ele>
        <time>2020-07-15T19:30:12.553Z</time>
      </trkpt>
      <trkpt lat="64.29879" lon="10.51134">
        <ele>13.901009</ele>
        <time>2020-07-15T19:30:19.461Z</time>
      </trkpt>
      <trkpt lat="64.29864" lon="10.51141">
        <ele>13.728242</ele>
        <time>2020-07-15T19:30:21.504Z</time>
      </trkpt>
      <trkpt lat="64.29857" lon="10.51143">
        <ele>13.65032</ele>
        <time>2020-07-15T19:30:22.269Z</time>
      </trkpt>
      <trkpt lat="64.29817" lon="10.51132">
        <ele>12.868413</ele>
        <time>2020-07-15T19:30:27.810Z</time>
      </trkpt>
      <trkpt lat="64.29778" lon="10.5107">
        <ele>11.975232</ele>
        <time>2020-07-15T19:30:34.277Z</time>
      </trkpt>
      <trkpt lat="64.29766" lon="10.51057">
        <ele>11.722235</ele>
        <time>2020-07-15T19:30:36.155Z</time>
      </trkpt>
      <trkpt lat="64.29759" lon="10.51051">
        <ele>11.574788</ele>
        <time>2020-07-15T19:30:37.077Z</time>
      </trkpt>
      <trkpt lat="64.29755" lon="10.51049">
        <ele>11.502276</ele>
        <time>2020-07-15T19:30:37.635Z</time>
      </trkpt>
      <trkpt lat="64.29751" lon="10.51048">
        <ele>11.422243</ele>
        <time>2020-07-15T19:30:38.271Z</time>
      </trkpt>
      <trkpt lat="64.29748" lon="10.51048">
        <ele>11.361341</ele>
        <time>2020-07-15T19:30:38.755Z</time>
      </trkpt>
      <trkpt lat="64.29724" lon="10.5107">
        <ele>10.882205</ele>
        <time>2020-07-15T19:30:42.181Z</time>
      </trkpt>
      <trkpt lat="64.29695" lon="10.51125">
        <ele>10.362455</ele>
        <time>2020-07-15T19:30:47.976Z</time>
      </trkpt>
      <trkpt lat="64.29671" lon="10.51183">
        <ele>11.542722</ele>
        <time>2020-07-15T19:30:55.759Z</time>
      </trkpt>
      <trkpt lat="64.29665" lon="10.51199">
        <ele>11.850549</ele>
        <time>2020-07-15T19:30:57.470Z</time>
      </trkpt>
      <trkpt lat="64.29655" lon="10.51229">
        <ele>12.391211</ele>
        <time>2020-07-15T19:31:01.340Z</time>
      </trkpt>
      <trkpt lat="64.29617" lon="10.51368">
        <ele>14.769532</ele>
        <time>2020-07-15T19:31:23.295Z</time>
      </trkpt>
      <trkpt lat="64.29599" lon="10.51413">
        <ele>15.645344</ele>
        <time>2020-07-15T19:31:31.800Z</time>
      </trkpt>
      <trkpt lat="64.2959" lon="10.51429">
        <ele>16.019951</ele>
        <time>2020-07-15T19:31:36.181Z</time>
      </trkpt>
      <trkpt lat="64.29586" lon="10.51436">
        <ele>16.193464</ele>
        <time>2020-07-15T19:31:38.998Z</time>
      </trkpt>
      <trkpt lat="64.29465" lon="10.5158">
        <ele>26.289049</ele>
        <time>2020-07-15T19:32:36.506Z</time>
      </trkpt>
      <trkpt lat="64.29445" lon="10.51613">
        <ele>28.073774</ele>
        <time>2020-07-15T19:32:47.303Z</time>
      </trkpt>
      <trkpt lat="64.29433" lon="10.51635">
        <ele>29.243625</ele>
        <time>2020-07-15T19:32:54.890Z</time>
      </trkpt>
      <trkpt lat="64.29365" lon="10.51761">
        <ele>34.510303</ele>
        <time>2020-07-15T19:33:29.661Z</time>
      </trkpt>
      <trkpt lat="64.29357" lon="10.51778">
        <ele>35.156475</ele>
        <time>2020-07-15T19:33:34.122Z</time>
      </trkpt>
      <trkpt lat="64.29349" lon="10.51793">
        <ele>35.759594</ele>
        <time>2020-07-15T19:33:38.528Z</time>
      </trkpt>
      <trkpt lat="64.29328" lon="10.51849">
        <ele>37.664336</ele>
        <time>2020-07-15T19:33:49.809Z</time>
      </trkpt>
      <trkpt lat="64.29322" lon="10.51871">
        <ele>38.348483</ele>
        <time>2020-07-15T19:33:53.673Z</time>
      </trkpt>
      <trkpt lat="64.29313" lon="10.51903">
        <ele>39.321639</ele>
        <time>2020-07-15T19:33:57.998Z</time>
      </trkpt>
      <trkpt lat="64.29291" lon="10.52021">
        <ele>40.977788</ele>
        <time>2020-07-15T19:34:14.147Z</time>
      </trkpt>
      <trkpt lat="64.29283" lon="10.52067">
        <ele>41.345094</ele>
        <time>2020-07-15T19:34:19.859Z</time>
      </trkpt>
      <trkpt lat="64.29281" lon="10.52081">
        <ele>41.453987</ele>
        <time>2020-07-15T19:34:21.953Z</time>
      </trkpt>
      <trkpt lat="64.29265" lon="10.5218">
        <ele>42.230102</ele>
        <time>2020-07-15T19:34:31.969Z</time>
      </trkpt>
      <trkpt lat="64.29262" lon="10.52197">
        <ele>42.364963</ele>
        <time>2020-07-15T19:34:33.375Z</time>
      </trkpt>
      <trkpt lat="64.29227" lon="10.52423">
        <ele>43.107022</ele>
        <time>2020-07-15T19:34:52.637Z</time>
      </trkpt>
      <trkpt lat="64.29198" lon="10.52605">
        <ele>42.61599</ele>
        <time>2020-07-15T19:35:06.789Z</time>
      </trkpt>
      <trkpt lat="64.29145" lon="10.52937">
        <ele>39.997231</ele>
        <time>2020-07-15T19:35:29.094Z</time>
      </trkpt>
      <trkpt lat="64.29125" lon="10.53064">
        <ele>38.67024</ele>
        <time>2020-07-15T19:35:36.954Z</time>
      </trkpt>
      <trkpt lat="64.29109" lon="10.53165">
        <ele>36.909677</ele>
        <time>2020-07-15T19:35:42.989Z</time>
      </trkpt>
      <trkpt lat="64.29096" lon="10.53281">
        <ele>34.443756</ele>
        <time>2020-07-15T19:35:49.576Z</time>
      </trkpt>
      <trkpt lat="64.29099" lon="10.53414">
        <ele>31.67205</ele>
        <time>2020-07-15T19:35:56.511Z</time>
      </trkpt>
      <trkpt lat="64.2912" lon="10.53527">
        <ele>29.03609</ele>
        <time>2020-07-15T19:36:02.707Z</time>
      </trkpt>
      <trkpt lat="64.29157" lon="10.53652">
        <ele>25.190277</ele>
        <time>2020-07-15T19:36:10.486Z</time>
      </trkpt>
      <trkpt lat="64.29162" lon="10.53674">
        <ele>24.552455</ele>
        <time>2020-07-15T19:36:11.675Z</time>
      </trkpt>
      <trkpt lat="64.29166" lon="10.5369">
        <ele>24.102695</ele>
        <time>2020-07-15T19:36:12.584Z</time>
      </trkpt>
      <trkpt lat="64.29177" lon="10.53786">
        <ele>21.613735</ele>
        <time>2020-07-15T19:36:17.714Z</time>
      </trkpt>
      <trkpt lat="64.29174" lon="10.53896">
        <ele>19.052503</ele>
        <time>2020-07-15T19:36:23.578Z</time>
      </trkpt>
      <trkpt lat="64.29172" lon="10.53913">
        <ele>18.882597</ele>
        <time>2020-07-15T19:36:24.404Z</time>
      </trkpt>
      <trkpt lat="64.29158" lon="10.54025">
        <ele>17.741672</ele>
        <time>2020-07-15T19:36:30.726Z</time>
      </trkpt>
      <trkpt lat="64.29148" lon="10.54164">
        <ele>16.349665</ele>
        <time>2020-07-15T19:36:40.233Z</time>
      </trkpt>
      <trkpt lat="64.29147" lon="10.54206">
        <ele>15.935684</ele>
        <time>2020-07-15T19:36:43.187Z</time>
      </trkpt>
      <trkpt lat="64.29147" lon="10.54252">
        <ele>15.485559</ele>
        <time>2020-07-15T19:36:46.309Z</time>
      </trkpt>
      <trkpt lat="64.29147" lon="10.54274">
        <ele>15.269373</ele>
        <time>2020-07-15T19:36:47.834Z</time>
      </trkpt>
      <trkpt lat="64.29147" lon="10.54366">
        <ele>15.067465</ele>
        <time>2020-07-15T19:36:54.519Z</time>
      </trkpt>
      <trkpt lat="64.29146" lon="10.54399">
        <ele>15.040557</ele>
        <time>2020-07-15T19:36:56.917Z</time>
      </trkpt>
      <trkpt lat="64.29145" lon="10.54428">
        <ele>15.017047</ele>
        <time>2020-07-15T19:36:59.350Z</time>
      </trkpt>
      <trkpt lat="64.29143" lon="10.54456">
        <ele>14.993823</ele>
        <time>2020-07-15T19:37:01.423Z</time>
      </trkpt>
      <trkpt lat="64.29138" lon="10.54507">
        <ele>14.951406</ele>
        <time>2020-07-15T19:37:05.491Z</time>
      </trkpt>
      <trkpt lat="64.29124" lon="10.54612">
        <ele>14.863083</ele>
        <time>2020-07-15T19:37:13.865Z</time>
      </trkpt>
      <trkpt lat="64.29122" lon="10.54637">
        <ele>14.842293</ele>
        <time>2020-07-15T19:37:15.711Z</time>
      </trkpt>
      <trkpt lat="64.29121" lon="10.54644">
        <ele>14.835706</ele>
        <time>2020-07-15T19:37:16.372Z</time>
      </trkpt>
      <trkpt lat="64.29119" lon="10.54699">
        <ele>14.795617</ele>
        <time>2020-07-15T19:37:20.760Z</time>
      </trkpt>
      <trkpt lat="64.29118" lon="10.5473">
        <ele>14.812466</ele>
        <time>2020-07-15T19:37:23.014Z</time>
      </trkpt>
      <trkpt lat="64.29118" lon="10.54775">
        <ele>14.836884</ele>
        <time>2020-07-15T19:37:26.547Z</time>
      </trkpt>
      <trkpt lat="64.29118" lon="10.54868">
        <ele>14.88718</ele>
        <time>2020-07-15T19:37:33.380Z</time>
      </trkpt>
      <trkpt lat="64.29118" lon="10.54932">
        <ele>14.922154</ele>
        <time>2020-07-15T19:37:38.275Z</time>
      </trkpt>
      <trkpt lat="64.29117" lon="10.5497">
        <ele>14.942412</ele>
        <time>2020-07-15T19:37:41.037Z</time>
      </trkpt>
      <trkpt lat="64.29114" lon="10.55038">
        <ele>14.979496</ele>
        <time>2020-07-15T19:37:46.874Z</time>
      </trkpt>
      <trkpt lat="64.29112" lon="10.5506">
        <ele>14.992064</ele>
        <time>2020-07-15T19:37:48.810Z</time>
      </trkpt>
      <trkpt lat="64.29107" lon="10.55104">
        <ele>15.016409</ele>
        <time>2020-07-15T19:37:52.772Z</time>
      </trkpt>
      <trkpt lat="64.29104" lon="10.55134">
        <ele>15.13905</ele>
        <time>2020-07-15T19:37:55.342Z</time>
      </trkpt>
      <trkpt lat="64.29102" lon="10.5515">
        <ele>15.208251</ele>
        <time>2020-07-15T19:37:57.007Z</time>
      </trkpt>
      <trkpt lat="64.29083" lon="10.55304">
        <ele>15.906816</ele>
        <time>2020-07-15T19:38:11.282Z</time>
      </trkpt>
      <trkpt lat="64.29082" lon="10.5531">
        <ele>15.932157</ele>
        <time>2020-07-15T19:38:12.077Z</time>
      </trkpt>
      <trkpt lat="64.29032" lon="10.55693">
        <ele>17.715165</ele>
        <time>2020-07-15T19:38:49.523Z</time>
      </trkpt>
      <trkpt lat="64.29021" lon="10.55744">
        <ele>17.971627</ele>
        <time>2020-07-15T19:38:54.560Z</time>
      </trkpt>
      <trkpt lat="64.29009" lon="10.55803">
        <ele>18.270813</ele>
        <time>2020-07-15T19:39:00.388Z</time>
      </trkpt>
      <trkpt lat="64.28978" lon="10.55971">
        <ele>19.461858</ele>
        <time>2020-07-15T19:39:17.048Z</time>
      </trkpt>
      <trkpt lat="64.28963" lon="10.56018">
        <ele>19.969227</ele>
        <time>2020-07-15T19:39:22.536Z</time>
      </trkpt>
      <trkpt lat="64.2892" lon="10.56078">
        <ele>20.985346</ele>
        <time>2020-07-15T19:39:34.039Z</time>
      </trkpt>
      <trkpt lat="64.28833" lon="10.56152">
        <ele>23.87396</ele>
        <time>2020-07-15T19:39:59.077Z</time>
      </trkpt>
      <trkpt lat="64.28814" lon="10.56197">
        <ele>25.531724</ele>
        <time>2020-07-15T19:40:07.938Z</time>
      </trkpt>
      <trkpt lat="64.28812" lon="10.56237">
        <ele>26.609233</ele>
        <time>2020-07-15T19:40:14.099Z</time>
      </trkpt>
      <trkpt lat="64.28818" lon="10.56351">
        <ele>29.664039</ele>
        <time>2020-07-15T19:40:33.492Z</time>
      </trkpt>
      <trkpt lat="64.28816" lon="10.56395">
        <ele>30.84275</ele>
        <time>2020-07-15T19:40:41.560Z</time>
      </trkpt>
      <trkpt lat="64.28807" lon="10.56449">
        <ele>32.373639</ele>
        <time>2020-07-15T19:40:52.480Z</time>
      </trkpt>
      <trkpt lat="64.28782" lon="10.56524">
        <ele>35.334319</ele>
        <time>2020-07-15T19:41:11.067Z</time>
      </trkpt>
      <trkpt lat="64.28779" lon="10.56557">
        <ele>36.510748</ele>
        <time>2020-07-15T19:41:17.965Z</time>
      </trkpt>
      <trkpt lat="64.28785" lon="10.5659">
        <ele>37.761197</ele>
        <time>2020-07-15T19:41:25.387Z</time>
      </trkpt>
      <trkpt lat="64.2882" lon="10.5666">
        <ele>41.49401</ele>
        <time>2020-07-15T19:41:47.093Z</time>
      </trkpt>
      <trkpt lat="64.28832" lon="10.5671">
        <ele>43.462605</ele>
        <time>2020-07-15T19:41:58.251Z</time>
      </trkpt>
      <trkpt lat="64.28842" lon="10.56816">
        <ele>47.232921</ele>
        <time>2020-07-15T19:42:18.101Z</time>
      </trkpt>
      <trkpt lat="64.28835" lon="10.56888">
        <ele>48.622715</ele>
        <time>2020-07-15T19:42:30.241Z</time>
      </trkpt>
      <trkpt lat="64.28775" lon="10.56993">
        <ele>51.11809</ele>
        <time>2020-07-15T19:42:53.188Z</time>
      </trkpt>
      <trkpt lat="64.28734" lon="10.57129">
        <ele>53.515966</ele>
        <time>2020-07-15T19:43:09.449Z</time>
      </trkpt>
      <trkpt lat="64.28718" lon="10.57163">
        <ele>53.806819</ele>
        <time>2020-07-15T19:43:13.631Z</time>
      </trkpt>
      <trkpt lat="64.28683" lon="10.57192">
        <ele>53.896712</ele>
        <time>2020-07-15T19:43:20.431Z</time>
      </trkpt>
      <trkpt lat="64.28649" lon="10.572">
        <ele>53.98085</ele>
        <time>2020-07-15T19:43:26.463Z</time>
      </trkpt>
      <trkpt lat="64.28634" lon="10.57199">
        <ele>54.017477</ele>
        <time>2020-07-15T19:43:28.956Z</time>
      </trkpt>
      <trkpt lat="64.28621" lon="10.57196">
        <ele>54.049873</ele>
        <time>2020-07-15T19:43:31.386Z</time>
      </trkpt>
      <trkpt lat="64.28586" lon="10.57202">
        <ele>54.13276</ele>
        <time>2020-07-15T19:43:37.359Z</time>
      </trkpt>
      <trkpt lat="64.28557" lon="10.57228">
        <ele>54.20983</ele>
        <time>2020-07-15T19:43:43.345Z</time>
      </trkpt>
      <trkpt lat="64.28492" lon="10.57315">
        <ele>54.379511</ele>
        <time>2020-07-15T19:43:58.318Z</time>
      </trkpt>
      <trkpt lat="64.28462" lon="10.57367">
        <ele>54.463471</ele>
        <time>2020-07-15T19:44:05.592Z</time>
      </trkpt>
      <trkpt lat="64.28439" lon="10.57414">
        <ele>54.534111</ele>
        <time>2020-07-15T19:44:11.437Z</time>
      </trkpt>
      <trkpt lat="64.28413" lon="10.57471">
        <ele>54.615832</ele>
        <time>2020-07-15T19:44:17.674Z</time>
      </trkpt>
      <trkpt lat="64.28385" lon="10.57518">
        <ele>53.918407</ele>
        <time>2020-07-15T19:44:23.255Z</time>
      </trkpt>
      <trkpt lat="64.28359" lon="10.57531">
        <ele>53.395811</ele>
        <time>2020-07-15T19:44:27.179Z</time>
      </trkpt>
      <trkpt lat="64.28296" lon="10.57534">
        <ele>52.118298</ele>
        <time>2020-07-15T19:44:36.260Z</time>
      </trkpt>
      <trkpt lat="64.28231" lon="10.57517">
        <ele>50.76662</ele>
        <time>2020-07-15T19:44:44.467Z</time>
      </trkpt>
      <trkpt lat="64.28142" lon="10.57538">
        <ele>48.689421</ele>
        <time>2020-07-15T19:44:56.171Z</time>
      </trkpt>
      <trkpt lat="64.28137" lon="10.57538">
        <ele>48.559202</ele>
        <time>2020-07-15T19:44:56.856Z</time>
      </trkpt>
      <trkpt lat="64.2813" lon="10.57538">
        <ele>48.396435</ele>
        <time>2020-07-15T19:44:57.699Z</time>
      </trkpt>
      <trkpt lat="64.28078" lon="10.57528">
        <ele>47.181213</ele>
        <time>2020-07-15T19:45:05.521Z</time>
      </trkpt>
      <trkpt lat="64.28048" lon="10.57551">
        <ele>47.224835</ele>
        <time>2020-07-15T19:45:10.628Z</time>
      </trkpt>
      <trkpt lat="64.27986" lon="10.57648">
        <ele>49.478688</ele>
        <time>2020-07-15T19:45:27.730Z</time>
      </trkpt>
      <trkpt lat="64.27936" lon="10.57777">
        <ele>51.752651</ele>
        <time>2020-07-15T19:45:53.295Z</time>
      </trkpt>
      <trkpt lat="64.27923" lon="10.57826">
        <ele>52.70173</ele>
        <time>2020-07-15T19:46:02.474Z</time>
      </trkpt>
      <trkpt lat="64.27913" lon="10.57896">
        <ele>54.375656</ele>
        <time>2020-07-15T19:46:14.731Z</time>
      </trkpt>
      <trkpt lat="64.27894" lon="10.58286">
        <ele>62.075786</ele>
        <time>2020-07-15T19:47:13.844Z</time>
      </trkpt>
      <trkpt lat="64.27883" lon="10.58392">
        <ele>62.71805</ele>
        <time>2020-07-15T19:47:25.462Z</time>
      </trkpt>
      <trkpt lat="64.27865" lon="10.58464">
        <ele>63.211133</ele>
        <time>2020-07-15T19:47:33.025Z</time>
      </trkpt>
      <trkpt lat="64.27772" lon="10.58731">
        <ele>62.598097</ele>
        <time>2020-07-15T19:47:55.305Z</time>
      </trkpt>
      <trkpt lat="64.27705" lon="10.58926">
        <ele>60.551527</ele>
        <time>2020-07-15T19:48:10.287Z</time>
      </trkpt>
      <trkpt lat="64.2769" lon="10.58973">
        <ele>59.849542</ele>
        <time>2020-07-15T19:48:13.931Z</time>
      </trkpt>
      <trkpt lat="64.27686" lon="10.58986">
        <ele>59.649883</ele>
        <time>2020-07-15T19:48:14.882Z</time>
      </trkpt>
      <trkpt lat="64.27668" lon="10.59054">
        <ele>58.681145</ele>
        <time>2020-07-15T19:48:19.603Z</time>
      </trkpt>
      <trkpt lat="64.27666" lon="10.59062">
        <ele>58.55427</ele>
        <time>2020-07-15T19:48:20.124Z</time>
      </trkpt>
      <trkpt lat="64.27634" lon="10.59173">
        <ele>56.934402</ele>
        <time>2020-07-15T19:48:27.850Z</time>
      </trkpt>
      <trkpt lat="64.276" lon="10.59244">
        <ele>55.545571</ele>
        <time>2020-07-15T19:48:33.902Z</time>
      </trkpt>
      <trkpt lat="64.27558" lon="10.59315">
        <ele>53.264906</ele>
        <time>2020-07-15T19:48:40.436Z</time>
      </trkpt>
      <trkpt lat="64.27546" lon="10.59334">
        <ele>52.642908</ele>
        <time>2020-07-15T19:48:42.206Z</time>
      </trkpt>
      <trkpt lat="64.27505" lon="10.59409">
        <ele>50.371764</ele>
        <time>2020-07-15T19:48:48.669Z</time>
      </trkpt>
      <trkpt lat="64.27493" lon="10.59436">
        <ele>49.634823</ele>
        <time>2020-07-15T19:48:50.734Z</time>
      </trkpt>
      <trkpt lat="64.27485" lon="10.59456">
        <ele>49.123292</ele>
        <time>2020-07-15T19:48:52.152Z</time>
      </trkpt>
      <trkpt lat="64.27308" lon="10.59992">
        <ele>36.667921</ele>
        <time>2020-07-15T19:49:27.996Z</time>
      </trkpt>
      <trkpt lat="64.27296" lon="10.60047">
        <ele>35.775314</ele>
        <time>2020-07-15T19:49:31.565Z</time>
      </trkpt>
      <trkpt lat="64.27289" lon="10.60154">
        <ele>34.203138</ele>
        <time>2020-07-15T19:49:38.078Z</time>
      </trkpt>
      <trkpt lat="64.27276" lon="10.60257">
        <ele>33.473326</ele>
        <time>2020-07-15T19:49:44.908Z</time>
      </trkpt>
      <trkpt lat="64.27252" lon="10.60393">
        <ele>33.273621</ele>
        <time>2020-07-15T19:49:55.247Z</time>
      </trkpt>
      <trkpt lat="64.2725" lon="10.60404">
        <ele>33.257076</ele>
        <time>2020-07-15T19:49:56.101Z</time>
      </trkpt>
      <trkpt lat="64.27228" lon="10.60563">
        <ele>33.03131</ele>
        <time>2020-07-15T19:50:09.592Z</time>
      </trkpt>
      <trkpt lat="64.27223" lon="10.60632">
        <ele>33.289132</ele>
        <time>2020-07-15T19:50:16.068Z</time>
      </trkpt>
      <trkpt lat="64.27222" lon="10.60646">
        <ele>33.384502</ele>
        <time>2020-07-15T19:50:17.357Z</time>
      </trkpt>
      <trkpt lat="64.27211" lon="10.60754">
        <ele>34.111359</ele>
        <time>2020-07-15T19:50:28.195Z</time>
      </trkpt>
      <trkpt lat="64.27207" lon="10.60783">
        <ele>34.312753</ele>
        <time>2020-07-15T19:50:31.147Z</time>
      </trkpt>
      <trkpt lat="64.27197" lon="10.60829">
        <ele>34.64828</ele>
        <time>2020-07-15T19:50:36.357Z</time>
      </trkpt>
      <trkpt lat="64.2719" lon="10.60858">
        <ele>34.868963</ele>
        <time>2020-07-15T19:50:39.635Z</time>
      </trkpt>
      <trkpt lat="64.27178" lon="10.60899">
        <ele>35.202487</ele>
        <time>2020-07-15T19:50:44.995Z</time>
      </trkpt>
      <trkpt lat="64.27145" lon="10.60969">
        <ele>35.926463</ele>
        <time>2020-07-15T19:50:55.505Z</time>
      </trkpt>
      <trkpt lat="64.27132" lon="10.60993">
        <ele>36.26696</ele>
        <time>2020-07-15T19:50:59.884Z</time>
      </trkpt>
      <trkpt lat="64.27104" lon="10.61036">
        <ele>36.955664</ele>
        <time>2020-07-15T19:51:08.237Z</time>
      </trkpt>
      <trkpt lat="64.27086" lon="10.61061">
        <ele>37.386811</ele>
        <time>2020-07-15T19:51:13.289Z</time>
      </trkpt>
      <trkpt lat="64.27072" lon="10.61081">
        <ele>37.737809</ele>
        <time>2020-07-15T19:51:17.976Z</time>
      </trkpt>
      <trkpt lat="64.27068" lon="10.61085">
        <ele>37.809824</ele>
        <time>2020-07-15T19:51:18.929Z</time>
      </trkpt>
      <trkpt lat="64.26993" lon="10.61169">
        <ele>39.464489</ele>
        <time>2020-07-15T19:51:38.925Z</time>
      </trkpt>
      <trkpt lat="64.26926" lon="10.61224">
        <ele>40.1209</ele>
        <time>2020-07-15T19:51:55.001Z</time>
      </trkpt>
      <trkpt lat="64.26679" lon="10.61257">
        <ele>40.792068</ele>
        <time>2020-07-15T19:52:42.220Z</time>
      </trkpt>
      <trkpt lat="64.26643" lon="10.61283">
        <ele>40.670341</ele>
        <time>2020-07-15T19:52:47.800Z</time>
      </trkpt>
      <trkpt lat="64.26629" lon="10.61301">
        <ele>40.350611</ele>
        <time>2020-07-15T19:52:49.851Z</time>
      </trkpt>
      <trkpt lat="64.26614" lon="10.61325">
        <ele>39.963153</ele>
        <time>2020-07-15T19:52:52.563Z</time>
      </trkpt>
      <trkpt lat="64.26531" lon="10.61446">
        <ele>37.899073</ele>
        <time>2020-07-15T19:53:05.879Z</time>
      </trkpt>
      <trkpt lat="64.26448" lon="10.61536">
        <ele>36.628005</ele>
        <time>2020-07-15T19:53:18.946Z</time>
      </trkpt>
      <trkpt lat="64.26431" lon="10.61552">
        <ele>36.499632</ele>
        <time>2020-07-15T19:53:21.805Z</time>
      </trkpt>
      <trkpt lat="64.26368" lon="10.61616">
        <ele>36.00313</ele>
        <time>2020-07-15T19:53:33.259Z</time>
      </trkpt>
      <trkpt lat="64.26349" lon="10.61638">
        <ele>35.852488</ele>
        <time>2020-07-15T19:53:36.996Z</time>
      </trkpt>
      <trkpt lat="64.26345" lon="10.61644">
        <ele>35.816996</ele>
        <time>2020-07-15T19:53:37.909Z</time>
      </trkpt>
      <trkpt lat="64.26335" lon="10.61659">
        <ele>35.736061</ele>
        <time>2020-07-15T19:53:39.976Z</time>
      </trkpt>
      <trkpt lat="64.26324" lon="10.61679">
        <ele>35.710083</ele>
        <time>2020-07-15T19:53:42.735Z</time>
      </trkpt>
      <trkpt lat="64.26275" lon="10.61774">
        <ele>36.055452</ele>
        <time>2020-07-15T19:53:55.206Z</time>
      </trkpt>
      <trkpt lat="64.26265" lon="10.61797">
        <ele>36.134927</ele>
        <time>2020-07-15T19:53:58.306Z</time>
      </trkpt>
      <trkpt lat="64.26222" lon="10.6191">
        <ele>36.490085</ele>
        <time>2020-07-15T19:54:11.273Z</time>
      </trkpt>
      <trkpt lat="64.26196" lon="10.61938">
        <ele>36.643607</ele>
        <time>2020-07-15T19:54:16.673Z</time>
      </trkpt>
      <trkpt lat="64.26188" lon="10.61943">
        <ele>36.68686</ele>
        <time>2020-07-15T19:54:18.686Z</time>
      </trkpt>
      <trkpt lat="64.26169" lon="10.61954">
        <ele>36.774078</ele>
        <time>2020-07-15T19:54:22.332Z</time>
      </trkpt>
      <trkpt lat="64.26146" lon="10.61999">
        <ele>36.913651</ele>
        <time>2020-07-15T19:54:28.487Z</time>
      </trkpt>
      <trkpt lat="64.26122" lon="10.6209">
        <ele>37.122008</ele>
        <time>2020-07-15T19:54:37.192Z</time>
      </trkpt>
      <trkpt lat="64.26115" lon="10.62132">
        <ele>37.212902</ele>
        <time>2020-07-15T19:54:41.116Z</time>
      </trkpt>
      <trkpt lat="64.26089" lon="10.62289">
        <ele>37.533005</ele>
        <time>2020-07-15T19:54:54.900Z</time>
      </trkpt>
      <trkpt lat="64.26066" lon="10.62384">
        <ele>37.7116</ele>
        <time>2020-07-15T19:55:03.818Z</time>
      </trkpt>
      <trkpt lat="64.26019" lon="10.62508">
        <ele>37.982444</ele>
        <time>2020-07-15T19:55:17.448Z</time>
      </trkpt>
      <trkpt lat="64.25982" lon="10.62623">
        <ele>38.221253</ele>
        <time>2020-07-15T19:55:29.297Z</time>
      </trkpt>
      <trkpt lat="64.25943" lon="10.62824">
        <ele>38.601188</ele>
        <time>2020-07-15T19:55:47.536Z</time>
      </trkpt>
      <trkpt lat="64.25909" lon="10.62869">
        <ele>38.756597</ele>
        <time>2020-07-15T19:55:55.037Z</time>
      </trkpt>
      <trkpt lat="64.25835" lon="10.62922">
        <ele>39.657793</ele>
        <time>2020-07-15T19:56:10.135Z</time>
      </trkpt>
      <trkpt lat="64.25823" lon="10.62925">
        <ele>39.839243</ele>
        <time>2020-07-15T19:56:12.233Z</time>
      </trkpt>
      <trkpt lat="64.25813" lon="10.62925">
        <ele>40.01313</ele>
        <time>2020-07-15T19:56:14.456Z</time>
      </trkpt>
      <trkpt lat="64.2579" lon="10.62914">
        <ele>40.382457</ele>
        <time>2020-07-15T19:56:18.896Z</time>
      </trkpt>
      <trkpt lat="64.25748" lon="10.62856">
        <ele>41.180351</ele>
        <time>2020-07-15T19:56:30.771Z</time>
      </trkpt>
      <trkpt lat="64.25691" lon="10.62811">
        <ele>42.876732</ele>
        <time>2020-07-15T19:56:47.384Z</time>
      </trkpt>
      <trkpt lat="64.25671" lon="10.6281">
        <ele>43.834201</ele>
        <time>2020-07-15T19:56:54.622Z</time>
      </trkpt>
      <trkpt lat="64.25651" lon="10.62828">
        <ele>44.826645</ele>
        <time>2020-07-15T19:57:00.967Z</time>
      </trkpt>
      <trkpt lat="64.25646" lon="10.62836">
        <ele>45.107699</ele>
        <time>2020-07-15T19:57:03.469Z</time>
      </trkpt>
      <trkpt lat="64.25644" lon="10.62839">
        <ele>45.232975</ele>
        <time>2020-07-15T19:57:04.704Z</time>
      </trkpt>
      <trkpt lat="64.2563" lon="10.62874">
        <ele>46.213988</ele>
        <time>2020-07-15T19:57:11.124Z</time>
      </trkpt>
      <trkpt lat="64.25627" lon="10.62883">
        <ele>46.445146</ele>
        <time>2020-07-15T19:57:12.573Z</time>
      </trkpt>
      <trkpt lat="64.25621" lon="10.62905">
        <ele>46.96927</ele>
        <time>2020-07-15T19:57:17.329Z</time>
      </trkpt>
      <trkpt lat="64.2561" lon="10.62953">
        <ele>48.11626</ele>
        <time>2020-07-15T19:57:24.944Z</time>
      </trkpt>
      <trkpt lat="64.25602" lon="10.62984">
        <ele>48.84522</ele>
        <time>2020-07-15T19:57:31.151Z</time>
      </trkpt>
      <trkpt lat="64.25594" lon="10.63011">
        <ele>49.528938</ele>
        <time>2020-07-15T19:57:36.070Z</time>
      </trkpt>
      <trkpt lat="64.25561" lon="10.63078">
        <ele>51.332976</ele>
        <time>2020-07-15T19:57:51.401Z</time>
      </trkpt>
      <trkpt lat="64.25457" lon="10.6318">
        <ele>55.636465</ele>
        <time>2020-07-15T19:58:28.358Z</time>
      </trkpt>
      <trkpt lat="64.25362" lon="10.6331">
        <ele>56.846015</ele>
        <time>2020-07-15T19:58:51.159Z</time>
      </trkpt>
      <trkpt lat="64.25321" lon="10.63338">
        <ele>56.677121</ele>
        <time>2020-07-15T19:58:57.621Z</time>
      </trkpt>
      <trkpt lat="64.25254" lon="10.63355">
        <ele>56.399404</ele>
        <time>2020-07-15T19:59:07.325Z</time>
      </trkpt>
      <trkpt lat="64.25234" lon="10.63356">
        <ele>56.136654</ele>
        <time>2020-07-15T19:59:10.018Z</time>
      </trkpt>
      <trkpt lat="64.25215" lon="10.63355">
        <ele>55.892076</ele>
        <time>2020-07-15T19:59:13.084Z</time>
      </trkpt>
      <trkpt lat="64.25201" lon="10.63352">
        <ele>55.700303</ele>
        <time>2020-07-15T19:59:15.001Z</time>
      </trkpt>
      <trkpt lat="64.25141" lon="10.63341">
        <ele>54.926595</ele>
        <time>2020-07-15T19:59:24.105Z</time>
      </trkpt>
      <trkpt lat="64.2513" lon="10.63342">
        <ele>54.772993</ele>
        <time>2020-07-15T19:59:25.663Z</time>
      </trkpt>
      <trkpt lat="64.25116" lon="10.63348">
        <ele>54.590862</ele>
        <time>2020-07-15T19:59:28.230Z</time>
      </trkpt>
      <trkpt lat="64.25097" lon="10.63359">
        <ele>54.337064</ele>
        <time>2020-07-15T19:59:31.012Z</time>
      </trkpt>
      <trkpt lat="64.24984" lon="10.63442">
        <ele>54.230766</ele>
        <time>2020-07-15T19:59:51.781Z</time>
      </trkpt>
      <trkpt lat="64.24945" lon="10.6347">
        <ele>54.295204</ele>
        <time>2020-07-15T19:59:59.959Z</time>
      </trkpt>
      <trkpt lat="64.24921" lon="10.63489">
        <ele>54.33573</ele>
        <time>2020-07-15T20:00:05.096Z</time>
      </trkpt>
      <trkpt lat="64.24913" lon="10.63498">
        <ele>54.350197</ele>
        <time>2020-07-15T20:00:06.865Z</time>
      </trkpt>
      <trkpt lat="64.24906" lon="10.63506">
        <ele>54.366663</ele>
        <time>2020-07-15T20:00:08.313Z</time>
      </trkpt>
      <trkpt lat="64.24881" lon="10.63552">
        <ele>54.567552</ele>
        <time>2020-07-15T20:00:14.698Z</time>
      </trkpt>
      <trkpt lat="64.24828" lon="10.63693">
        <ele>55.067981</ele>
        <time>2020-07-15T20:00:30.519Z</time>
      </trkpt>
      <trkpt lat="64.2479" lon="10.6378">
        <ele>55.404116</ele>
        <time>2020-07-15T20:00:41.406Z</time>
      </trkpt>
      <trkpt lat="64.24666" lon="10.64009">
        <ele>56.439671</ele>
        <time>2020-07-15T20:01:13.413Z</time>
      </trkpt>
      <trkpt lat="64.24625" lon="10.64065">
        <ele>56.729678</ele>
        <time>2020-07-15T20:01:22.565Z</time>
      </trkpt>
      <trkpt lat="64.24536" lon="10.64136">
        <ele>57.241197</ele>
        <time>2020-07-15T20:01:40.756Z</time>
      </trkpt>
      <trkpt lat="64.24529" lon="10.64142">
        <ele>57.281179</ele>
        <time>2020-07-15T20:01:42.188Z</time>
      </trkpt>
      <trkpt lat="64.24525" lon="10.64146">
        <ele>57.302345</ele>
        <time>2020-07-15T20:01:42.937Z</time>
      </trkpt>
      <trkpt lat="64.24493" lon="10.6418">
        <ele>57.495459</ele>
        <time>2020-07-15T20:01:49.819Z</time>
      </trkpt>
      <trkpt lat="64.24485" lon="10.64187">
        <ele>57.537981</ele>
        <time>2020-07-15T20:01:51.325Z</time>
      </trkpt>
      <trkpt lat="64.24389" lon="10.64287">
        <ele>58.89986</ele>
        <time>2020-07-15T20:02:13.474Z</time>
      </trkpt>
      <trkpt lat="64.2428" lon="10.64404">
        <ele>60.769698</ele>
        <time>2020-07-15T20:02:42.439Z</time>
      </trkpt>
      <trkpt lat="64.24262" lon="10.64424">
        <ele>61.161957</ele>
        <time>2020-07-15T20:02:47.889Z</time>
      </trkpt>
      <trkpt lat="64.2407" lon="10.64629">
        <ele>64.426358</ele>
        <time>2020-07-15T20:03:38.049Z</time>
      </trkpt>
      <trkpt lat="64.24051" lon="10.64643">
        <ele>64.614659</ele>
        <time>2020-07-15T20:03:42.006Z</time>
      </trkpt>
      <trkpt lat="64.24039" lon="10.64653">
        <ele>64.726793</ele>
        <time>2020-07-15T20:03:44.423Z</time>
      </trkpt>
      <trkpt lat="64.24016" lon="10.64689">
        <ele>64.978849</ele>
        <time>2020-07-15T20:03:49.541Z</time>
      </trkpt>
      <trkpt lat="64.23994" lon="10.64779">
        <ele>65.302642</ele>
        <time>2020-07-15T20:03:57.627Z</time>
      </trkpt>
      <trkpt lat="64.23988" lon="10.64799">
        <ele>65.287548</ele>
        <time>2020-07-15T20:03:59.343Z</time>
      </trkpt>
      <trkpt lat="64.23984" lon="10.6481">
        <ele>65.278118</ele>
        <time>2020-07-15T20:04:00.373Z</time>
      </trkpt>
      <trkpt lat="64.23953" lon="10.64893">
        <ele>65.206901</ele>
        <time>2020-07-15T20:04:08.264Z</time>
      </trkpt>
      <trkpt lat="64.23941" lon="10.64948">
        <ele>65.167158</ele>
        <time>2020-07-15T20:04:12.585Z</time>
      </trkpt>
      <trkpt lat="64.23937" lon="10.65011">
        <ele>65.125908</ele>
        <time>2020-07-15T20:04:17.489Z</time>
      </trkpt>
      <trkpt lat="64.23938" lon="10.65134">
        <ele>65.047507</ele>
        <time>2020-07-15T20:04:26.926Z</time>
      </trkpt>
      <trkpt lat="64.23941" lon="10.65204">
        <ele>65.138717</ele>
        <time>2020-07-15T20:04:32.591Z</time>
      </trkpt>
      <trkpt lat="64.23943" lon="10.65286">
        <ele>65.247213</ele>
        <time>2020-07-15T20:04:39.899Z</time>
      </trkpt>
      <trkpt lat="64.23945" lon="10.6533">
        <ele>65.304155</ele>
        <time>2020-07-15T20:04:43.443Z</time>
      </trkpt>
      <trkpt lat="64.23943" lon="10.65464">
        <ele>65.47872</ele>
        <time>2020-07-15T20:04:54.825Z</time>
      </trkpt>
      <trkpt lat="64.23926" lon="10.6557">
        <ele>65.5921</ele>
        <time>2020-07-15T20:05:03.667Z</time>
      </trkpt>
      <trkpt lat="64.23915" lon="10.65612">
        <ele>65.599691</ele>
        <time>2020-07-15T20:05:07.680Z</time>
      </trkpt>
      <trkpt lat="64.23909" lon="10.65636">
        <ele>65.6041</ele>
        <time>2020-07-15T20:05:09.638Z</time>
      </trkpt>
      <trkpt lat="64.23884" lon="10.65698">
        <ele>65.617287</ele>
        <time>2020-07-15T20:05:16.188Z</time>
      </trkpt>
      <trkpt lat="64.23854" lon="10.65744">
        <ele>65.630197</ele>
        <time>2020-07-15T20:05:22.595Z</time>
      </trkpt>
      <trkpt lat="64.23788" lon="10.65839">
        <ele>65.776388</ele>
        <time>2020-07-15T20:05:36.430Z</time>
      </trkpt>
      <trkpt lat="64.23778" lon="10.65855">
        <ele>65.86646</ele>
        <time>2020-07-15T20:05:38.877Z</time>
      </trkpt>
      <trkpt lat="64.23754" lon="10.6591">
        <ele>66.104195</ele>
        <time>2020-07-15T20:05:44.929Z</time>
      </trkpt>
      <trkpt lat="64.23751" lon="10.65971">
        <ele>66.295681</ele>
        <time>2020-07-15T20:05:50.164Z</time>
      </trkpt>
      <trkpt lat="64.2379" lon="10.66165">
        <ele>66.975288</ele>
        <time>2020-07-15T20:06:10.207Z</time>
      </trkpt>
      <trkpt lat="64.23805" lon="10.66224">
        <ele>67.349768</ele>
        <time>2020-07-15T20:06:16.797Z</time>
      </trkpt>
      <trkpt lat="64.23812" lon="10.66239">
        <ele>67.468355</ele>
        <time>2020-07-15T20:06:19.074Z</time>
      </trkpt>
      <trkpt lat="64.23818" lon="10.66252">
        <ele>67.576449</ele>
        <time>2020-07-15T20:06:20.865Z</time>
      </trkpt>
      <trkpt lat="64.2388" lon="10.66358">
        <ele>68.533645</ele>
        <time>2020-07-15T20:06:37.702Z</time>
      </trkpt>
      <trkpt lat="64.23883" lon="10.66368">
        <ele>68.602483</ele>
        <time>2020-07-15T20:06:38.878Z</time>
      </trkpt>
      <trkpt lat="64.23889" lon="10.66386">
        <ele>68.720904</ele>
        <time>2020-07-15T20:06:41.133Z</time>
      </trkpt>
      <trkpt lat="64.23899" lon="10.66433">
        <ele>69.007506</ele>
        <time>2020-07-15T20:06:46.002Z</time>
      </trkpt>
      <trkpt lat="64.23906" lon="10.66524">
        <ele>69.428039</ele>
        <time>2020-07-15T20:06:54.749Z</time>
      </trkpt>
      <trkpt lat="64.2391" lon="10.66665">
        <ele>69.998966</ele>
        <time>2020-07-15T20:07:07.544Z</time>
      </trkpt>
      <trkpt lat="64.23916" lon="10.66859">
        <ele>70.786123</ele>
        <time>2020-07-15T20:07:24.815Z</time>
      </trkpt>
      <trkpt lat="64.23925" lon="10.6723">
        <ele>72.052117</ele>
        <time>2020-07-15T20:07:57.912Z</time>
      </trkpt>
      <trkpt lat="64.23926" lon="10.67265">
        <ele>72.170149</ele>
        <time>2020-07-15T20:08:00.850Z</time>
      </trkpt>
      <trkpt lat="64.23925" lon="10.67284">
        <ele>72.235445</ele>
        <time>2020-07-15T20:08:02.811Z</time>
      </trkpt>
      <trkpt lat="64.23914" lon="10.67418">
        <ele>72.388525</ele>
        <time>2020-07-15T20:08:14.145Z</time>
      </trkpt>
      <trkpt lat="64.23914" lon="10.6749">
        <ele>72.460877</ele>
        <time>2020-07-15T20:08:20.082Z</time>
      </trkpt>
      <trkpt lat="64.23923" lon="10.67569">
        <ele>72.541862</ele>
        <time>2020-07-15T20:08:26.653Z</time>
      </trkpt>
      <trkpt lat="64.23943" lon="10.67651">
        <ele>72.635102</ele>
        <time>2020-07-15T20:08:34.010Z</time>
      </trkpt>
      <trkpt lat="64.23946" lon="10.67668">
        <ele>72.653428</ele>
        <time>2020-07-15T20:08:35.321Z</time>
      </trkpt>
      <trkpt lat="64.2396" lon="10.67715">
        <ele>72.6029</ele>
        <time>2020-07-15T20:08:39.475Z</time>
      </trkpt>
      <trkpt lat="64.24006" lon="10.67878">
        <ele>72.238499</ele>
        <time>2020-07-15T20:08:53.557Z</time>
      </trkpt>
      <trkpt lat="64.24015" lon="10.67918">
        <ele>72.155654</ele>
        <time>2020-07-15T20:08:56.704Z</time>
      </trkpt>
      <trkpt lat="64.2402" lon="10.67947">
        <ele>72.096621</ele>
        <time>2020-07-15T20:08:58.941Z</time>
      </trkpt>
      <trkpt lat="64.24061" lon="10.68234">
        <ele>71.804736</ele>
        <time>2020-07-15T20:09:20.775Z</time>
      </trkpt>
      <trkpt lat="64.24096" lon="10.68376">
        <ele>71.725291</ele>
        <time>2020-07-15T20:09:33.640Z</time>
      </trkpt>
      <trkpt lat="64.24099" lon="10.68393">
        <ele>71.716472</ele>
        <time>2020-07-15T20:09:34.908Z</time>
      </trkpt>
      <trkpt lat="64.24103" lon="10.68412">
        <ele>71.706272</ele>
        <time>2020-07-15T20:09:36.595Z</time>
      </trkpt>
      <trkpt lat="64.24112" lon="10.68478">
        <ele>71.855185</ele>
        <time>2020-07-15T20:09:42.228Z</time>
      </trkpt>
      <trkpt lat="64.24114" lon="10.68492">
        <ele>71.897679</ele>
        <time>2020-07-15T20:09:43.574Z</time>
      </trkpt>
      <trkpt lat="64.24117" lon="10.68521">
        <ele>71.983942</ele>
        <time>2020-07-15T20:09:46.444Z</time>
      </trkpt>
      <trkpt lat="64.24138" lon="10.68663">
        <ele>72.41595</ele>
        <time>2020-07-15T20:09:59.363Z</time>
      </trkpt>
      <trkpt lat="64.24162" lon="10.68795">
        <ele>72.829372</ele>
        <time>2020-07-15T20:10:12.047Z</time>
      </trkpt>
      <trkpt lat="64.24165" lon="10.68808">
        <ele>72.869775</ele>
        <time>2020-07-15T20:10:13.611Z</time>
      </trkpt>
      <trkpt lat="64.24166" lon="10.68815">
        <ele>72.889854</ele>
        <time>2020-07-15T20:10:14.263Z</time>
      </trkpt>
      <trkpt lat="64.24178" lon="10.68912">
        <ele>73.242087</ele>
        <time>2020-07-15T20:10:23.345Z</time>
      </trkpt>
      <trkpt lat="64.24186" lon="10.69024">
        <ele>73.64002</ele>
        <time>2020-07-15T20:10:33.361Z</time>
      </trkpt>
      <trkpt lat="64.24198" lon="10.69493">
        <ele>75.129541</ele>
        <time>2020-07-15T20:11:14.722Z</time>
      </trkpt>
      <trkpt lat="64.24203" lon="10.69728">
        <ele>75.736787</ele>
        <time>2020-07-15T20:11:34.776Z</time>
      </trkpt>
      <trkpt lat="64.24207" lon="10.69902">
        <ele>76.093254</ele>
        <time>2020-07-15T20:11:49.262Z</time>
      </trkpt>
      <trkpt lat="64.24211" lon="10.70112">
        <ele>76.576582</ele>
        <time>2020-07-15T20:12:06.964Z</time>
      </trkpt>
      <trkpt lat="64.24212" lon="10.7016">
        <ele>76.715297</ele>
        <time>2020-07-15T20:12:11.055Z</time>
      </trkpt>
      <trkpt lat="64.24213" lon="10.70185">
        <ele>76.785714</ele>
        <time>2020-07-15T20:12:13.061Z</time>
      </trkpt>
      <trkpt lat="64.24213" lon="10.70215">
        <ele>76.873411</ele>
        <time>2020-07-15T20:12:15.762Z</time>
      </trkpt>
      <trkpt lat="64.24218" lon="10.70434">
        <ele>77.504951</ele>
        <time>2020-07-15T20:12:34.803Z</time>
      </trkpt>
      <trkpt lat="64.24222" lon="10.7062">
        <ele>78.405235</ele>
        <time>2020-07-15T20:12:52.015Z</time>
      </trkpt>
      <trkpt lat="64.24263" lon="10.71249">
        <ele>82.319834</ele>
        <time>2020-07-15T20:13:53.316Z</time>
      </trkpt>
      <trkpt lat="64.24262" lon="10.71344">
        <ele>83.327809</ele>
        <time>2020-07-15T20:14:03.940Z</time>
      </trkpt>
      <trkpt lat="64.24252" lon="10.71454">
        <ele>84.744083</ele>
        <time>2020-07-15T20:14:16.894Z</time>
      </trkpt>
      <trkpt lat="64.24179" lon="10.71825">
        <ele>90.319151</ele>
        <time>2020-07-15T20:15:07.379Z</time>
      </trkpt>
      <trkpt lat="64.24146" lon="10.71961">
        <ele>92.68089</ele>
        <time>2020-07-15T20:15:27.097Z</time>
      </trkpt>
      <trkpt lat="64.24116" lon="10.72025">
        <ele>94.119955</ele>
        <time>2020-07-15T20:15:39.171Z</time>
      </trkpt>
      <trkpt lat="64.24024" lon="10.72188">
        <ele>98.352874</ele>
        <time>2020-07-15T20:16:13.758Z</time>
      </trkpt>
      <trkpt lat="64.23934" lon="10.72313">
        <ele>101.837355</ele>
        <time>2020-07-15T20:16:44.546Z</time>
      </trkpt>
      <trkpt lat="64.23912" lon="10.72374">
        <ele>102.832106</ele>
        <time>2020-07-15T20:16:54.478Z</time>
      </trkpt>
      <trkpt lat="64.23898" lon="10.72464">
        <ele>104.015097</ele>
        <time>2020-07-15T20:17:05.764Z</time>
      </trkpt>
      <trkpt lat="64.23896" lon="10.72562">
        <ele>105.229063</ele>
        <time>2020-07-15T20:17:16.673Z</time>
      </trkpt>
      <trkpt lat="64.23885" lon="10.72693">
        <ele>106.254071</ele>
        <time>2020-07-15T20:17:30.423Z</time>
      </trkpt>
      <trkpt lat="64.23879" lon="10.72841">
        <ele>107.064074</ele>
        <time>2020-07-15T20:17:44.432Z</time>
      </trkpt>
      <trkpt lat="64.23858" lon="10.72997">
        <ele>107.956089</ele>
        <time>2020-07-15T20:17:59.137Z</time>
      </trkpt>
      <trkpt lat="64.23852" lon="10.73079">
        <ele>108.269764</ele>
        <time>2020-07-15T20:18:06.440Z</time>
      </trkpt>
      <trkpt lat="64.23859" lon="10.73149">
        <ele>108.518166</ele>
        <time>2020-07-15T20:18:12.648Z</time>
      </trkpt>
      <trkpt lat="64.23892" lon="10.73255">
        <ele>108.973507</ele>
        <time>2020-07-15T20:18:24.163Z</time>
      </trkpt>
      <trkpt lat="64.23922" lon="10.73401">
        <ele>109.546462</ele>
        <time>2020-07-15T20:18:38.613Z</time>
      </trkpt>
      <trkpt lat="64.23944" lon="10.73436">
        <ele>109.794324</ele>
        <time>2020-07-15T20:18:44.241Z</time>
      </trkpt>
      <trkpt lat="64.24003" lon="10.73478">
        <ele>110.359317</ele>
        <time>2020-07-15T20:18:57.175Z</time>
      </trkpt>
      <trkpt lat="64.2405" lon="10.73551">
        <ele>110.882654</ele>
        <time>2020-07-15T20:19:08.918Z</time>
      </trkpt>
      <trkpt lat="64.24086" lon="10.73658">
        <ele>111.430316</ele>
        <time>2020-07-15T20:19:20.986Z</time>
      </trkpt>
      <trkpt lat="64.24107" lon="10.73801">
        <ele>112.042206</ele>
        <time>2020-07-15T20:19:34.524Z</time>
      </trkpt>
      <trkpt lat="64.2411" lon="10.73859">
        <ele>112.279921</ele>
        <time>2020-07-15T20:19:39.832Z</time>
      </trkpt>
      <trkpt lat="64.24105" lon="10.73909">
        <ele>112.488006</ele>
        <time>2020-07-15T20:19:44.529Z</time>
      </trkpt>
      <trkpt lat="64.24062" lon="10.74053">
        <ele>113.296582</ele>
        <time>2020-07-15T20:20:00.459Z</time>
      </trkpt>
      <trkpt lat="64.24052" lon="10.74113">
        <ele>113.627994</ele>
        <time>2020-07-15T20:20:06.518Z</time>
      </trkpt>
      <trkpt lat="64.24029" lon="10.74341">
        <ele>114.819228</ele>
        <time>2020-07-15T20:20:28.880Z</time>
      </trkpt>
      <trkpt lat="64.24018" lon="10.74495">
        <ele>115.708873</ele>
        <time>2020-07-15T20:20:43.740Z</time>
      </trkpt>
      <trkpt lat="64.24019" lon="10.74569">
        <ele>116.141958</ele>
        <time>2020-07-15T20:20:50.800Z</time>
      </trkpt>
      <trkpt lat="64.24027" lon="10.74632">
        <ele>116.522889</ele>
        <time>2020-07-15T20:20:56.988Z</time>
      </trkpt>
      <trkpt lat="64.24087" lon="10.7482">
        <ele>118.192531</ele>
        <time>2020-07-15T20:21:19.783Z</time>
      </trkpt>
      <trkpt lat="64.24098" lon="10.74875">
        <ele>118.74157</ele>
        <time>2020-07-15T20:21:25.921Z</time>
      </trkpt>
      <trkpt lat="64.24103" lon="10.74927">
        <ele>119.222016</ele>
        <time>2020-07-15T20:21:31.361Z</time>
      </trkpt>
      <trkpt lat="64.24092" lon="10.75483">
        <ele>124.991967</ele>
        <time>2020-07-15T20:22:34.361Z</time>
      </trkpt>
      <trkpt lat="64.24084" lon="10.75576">
        <ele>125.954581</ele>
        <time>2020-07-15T20:22:45.359Z</time>
      </trkpt>
      <trkpt lat="64.24065" lon="10.75705">
        <ele>127.081195</ele>
        <time>2020-07-15T20:23:00.413Z</time>
      </trkpt>
      <trkpt lat="64.24064" lon="10.75743">
        <ele>127.403015</ele>
        <time>2020-07-15T20:23:04.563Z</time>
      </trkpt>
      <trkpt lat="64.24073" lon="10.75812">
        <ele>128.004881</ele>
        <time>2020-07-15T20:23:12.096Z</time>
      </trkpt>
      <trkpt lat="64.24118" lon="10.75998">
        <ele>129.282145</ele>
        <time>2020-07-15T20:23:32.165Z</time>
      </trkpt>
      <trkpt lat="64.24129" lon="10.76081">
        <ele>129.473858</ele>
        <time>2020-07-15T20:23:39.599Z</time>
      </trkpt>
      <trkpt lat="64.24135" lon="10.76184">
        <ele>129.702465</ele>
        <time>2020-07-15T20:23:48.012Z</time>
      </trkpt>
      <trkpt lat="64.24131" lon="10.76552">
        <ele>130.517901</ele>
        <time>2020-07-15T20:24:17.484Z</time>
      </trkpt>
      <trkpt lat="64.24147" lon="10.76702">
        <ele>130.862058</ele>
        <time>2020-07-15T20:24:30.767Z</time>
      </trkpt>
      <trkpt lat="64.24177" lon="10.76838">
        <ele>131.788321</ele>
        <time>2020-07-15T20:24:45.646Z</time>
      </trkpt>
      <trkpt lat="64.24244" lon="10.76957">
        <ele>133.185907</ele>
        <time>2020-07-15T20:25:05.353Z</time>
      </trkpt>
      <trkpt lat="64.24251" lon="10.76972">
        <ele>133.336985</ele>
        <time>2020-07-15T20:25:07.658Z</time>
      </trkpt>
      <trkpt lat="64.24261" lon="10.77001">
        <ele>133.602475</ele>
        <time>2020-07-15T20:25:11.628Z</time>
      </trkpt>
      <trkpt lat="64.24283" lon="10.77102">
        <ele>134.385817</ele>
        <time>2020-07-15T20:25:23.584Z</time>
      </trkpt>
      <trkpt lat="64.24301" lon="10.77234">
        <ele>135.319045</ele>
        <time>2020-07-15T20:25:38.453Z</time>
      </trkpt>
      <trkpt lat="64.24333" lon="10.77495">
        <ele>136.800767</ele>
        <time>2020-07-15T20:26:03.538Z</time>
      </trkpt>
      <trkpt lat="64.24363" lon="10.77742">
        <ele>137.211988</ele>
        <time>2020-07-15T20:26:24.399Z</time>
      </trkpt>
      <trkpt lat="64.24379" lon="10.7795">
        <ele>137.624042</ele>
        <time>2020-07-15T20:26:40.690Z</time>
      </trkpt>
      <trkpt lat="64.2438" lon="10.7818">
        <ele>138.130112</ele>
        <time>2020-07-15T20:27:00.251Z</time>
      </trkpt>
      <trkpt lat="64.24377" lon="10.78241">
        <ele>138.267714</ele>
        <time>2020-07-15T20:27:05.923Z</time>
      </trkpt>
      <trkpt lat="64.24366" lon="10.78309">
        <ele>138.703101</ele>
        <time>2020-07-15T20:27:12.546Z</time>
      </trkpt>
      <trkpt lat="64.24348" lon="10.78364">
        <ele>139.138141</ele>
        <time>2020-07-15T20:27:19.277Z</time>
      </trkpt>
      <trkpt lat="64.24333" lon="10.7839">
        <ele>139.40442</ele>
        <time>2020-07-15T20:27:23.451Z</time>
      </trkpt>
      <trkpt lat="64.24305" lon="10.78412">
        <ele>139.827182</ele>
        <time>2020-07-15T20:27:30.169Z</time>
      </trkpt>
      <trkpt lat="64.24241" lon="10.78411">
        <ele>140.739564</ele>
        <time>2020-07-15T20:27:44.959Z</time>
      </trkpt>
      <trkpt lat="64.24201" lon="10.78426">
        <ele>141.47018</ele>
        <time>2020-07-15T20:27:54.529Z</time>
      </trkpt>
      <trkpt lat="64.24088" lon="10.78557">
        <ele>143.847881</ele>
        <time>2020-07-15T20:28:24.921Z</time>
      </trkpt>
      <trkpt lat="64.24041" lon="10.78587">
        <ele>144.790777</ele>
        <time>2020-07-15T20:28:36.589Z</time>
      </trkpt>
      <trkpt lat="64.23974" lon="10.78599">
        <ele>146.136129</ele>
        <time>2020-07-15T20:28:52.887Z</time>
      </trkpt>
      <trkpt lat="64.23848" lon="10.78599">
        <ele>148.598992</ele>
        <time>2020-07-15T20:29:23.402Z</time>
      </trkpt>
      <trkpt lat="64.23804" lon="10.78623">
        <ele>149.452079</ele>
        <time>2020-07-15T20:29:34.307Z</time>
      </trkpt>
      <trkpt lat="64.23552" lon="10.78836">
        <ele>154.529047</ele>
        <time>2020-07-15T20:30:37.794Z</time>
      </trkpt>
      <trkpt lat="64.23424" lon="10.79075">
        <ele>158.296865</ele>
        <time>2020-07-15T20:31:19.715Z</time>
      </trkpt>
      <trkpt lat="64.23374" lon="10.79129">
        <ele>159.378898</ele>
        <time>2020-07-15T20:31:33.567Z</time>
      </trkpt>
      <trkpt lat="64.23323" lon="10.79142">
        <ele>160.322402</ele>
        <time>2020-07-15T20:31:46.401Z</time>
      </trkpt>
      <trkpt lat="64.23067" lon="10.79133">
        <ele>164.141348</ele>
        <time>2020-07-15T20:32:43.556Z</time>
      </trkpt>
      <trkpt lat="64.22984" lon="10.7915">
        <ele>165.047858</ele>
        <time>2020-07-15T20:33:00.904Z</time>
      </trkpt>
      <trkpt lat="64.22904" lon="10.79192">
        <ele>165.895343</ele>
        <time>2020-07-15T20:33:18.022Z</time>
      </trkpt>
      <trkpt lat="64.22701" lon="10.79353">
        <ele>168.539601</ele>
        <time>2020-07-15T20:34:04.813Z</time>
      </trkpt>
      <trkpt lat="64.22675" lon="10.79382">
        <ele>168.987751</ele>
        <time>2020-07-15T20:34:11.275Z</time>
      </trkpt>
      <trkpt lat="64.22658" lon="10.79414">
        <ele>169.32686</ele>
        <time>2020-07-15T20:34:16.150Z</time>
      </trkpt>
      <trkpt lat="64.22642" lon="10.79465">
        <ele>169.750762</ele>
        <time>2020-07-15T20:34:22.238Z</time>
      </trkpt>
      <trkpt lat="64.22625" lon="10.79552">
        <ele>170.396855</ele>
        <time>2020-07-15T20:34:31.683Z</time>
      </trkpt>
      <trkpt lat="64.22618" lon="10.79667">
        <ele>171.183779</ele>
        <time>2020-07-15T20:34:43.622Z</time>
      </trkpt>
      <trkpt lat="64.22632" lon="10.79826">
        <ele>172.678988</ele>
        <time>2020-07-15T20:35:00.730Z</time>
      </trkpt>
      <trkpt lat="64.22641" lon="10.79931">
        <ele>173.691447</ele>
        <time>2020-07-15T20:35:12.302Z</time>
      </trkpt>
      <trkpt lat="64.22662" lon="10.8016">
        <ele>175.942421</ele>
        <time>2020-07-15T20:35:38.166Z</time>
      </trkpt>
      <trkpt lat="64.22676" lon="10.80277">
        <ele>177.149481</ele>
        <time>2020-07-15T20:35:51.836Z</time>
      </trkpt>
      <trkpt lat="64.22746" lon="10.80655">
        <ele>180.795734</ele>
        <time>2020-07-15T20:36:35.897Z</time>
      </trkpt>
      <trkpt lat="64.22759" lon="10.80925">
        <ele>182.704139</ele>
        <time>2020-07-15T20:37:02.942Z</time>
      </trkpt>
      <trkpt lat="64.22784" lon="10.81263">
        <ele>184.186768</ele>
        <time>2020-07-15T20:37:33.843Z</time>
      </trkpt>
      <trkpt lat="64.22829" lon="10.81504">
        <ele>184.970397</ele>
        <time>2020-07-15T20:37:56.336Z</time>
      </trkpt>
      <trkpt lat="64.22855" lon="10.81681">
        <ele>185.535739</ele>
        <time>2020-07-15T20:38:12.539Z</time>
      </trkpt>
      <trkpt lat="64.22881" lon="10.81781">
        <ele>186.014693</ele>
        <time>2020-07-15T20:38:22.903Z</time>
      </trkpt>
      <trkpt lat="64.22987" lon="10.82068">
        <ele>187.638866</ele>
        <time>2020-07-15T20:38:57.700Z</time>
      </trkpt>
      <trkpt lat="64.23139" lon="10.8261">
        <ele>191.058624</ele>
        <time>2020-07-15T20:39:58.136Z</time>
      </trkpt>
      <trkpt lat="64.23166" lon="10.82717">
        <ele>191.90095</ele>
        <time>2020-07-15T20:40:10.768Z</time>
      </trkpt>
      <trkpt lat="64.23172" lon="10.82781">
        <ele>192.482218</ele>
        <time>2020-07-15T20:40:17.539Z</time>
      </trkpt>
      <trkpt lat="64.2317" lon="10.82825">
        <ele>192.881291</ele>
        <time>2020-07-15T20:40:22.132Z</time>
      </trkpt>
      <trkpt lat="64.23168" lon="10.82853">
        <ele>193.135023</ele>
        <time>2020-07-15T20:40:25.214Z</time>
      </trkpt>
      <trkpt lat="64.23164" lon="10.82896">
        <ele>193.53099</ele>
        <time>2020-07-15T20:40:29.764Z</time>
      </trkpt>
      <trkpt lat="64.23162" lon="10.82912">
        <ele>193.679885</ele>
        <time>2020-07-15T20:40:31.576Z</time>
      </trkpt>
      <trkpt lat="64.23158" lon="10.82994">
        <ele>194.424007</ele>
        <time>2020-07-15T20:40:40.377Z</time>
      </trkpt>
      <trkpt lat="64.23158" lon="10.83027">
        <ele>194.713382</ele>
        <time>2020-07-15T20:40:43.891Z</time>
      </trkpt>
      <trkpt lat="64.23159" lon="10.83049">
        <ele>194.913911</ele>
        <time>2020-07-15T20:40:46.335Z</time>
      </trkpt>
      <trkpt lat="64.23189" lon="10.83302">
        <ele>197.942785</ele>
        <time>2020-07-15T20:41:16.087Z</time>
      </trkpt>
      <trkpt lat="64.23227" lon="10.83473">
        <ele>200.24398</ele>
        <time>2020-07-15T20:41:38.974Z</time>
      </trkpt>
      <trkpt lat="64.2329" lon="10.83842">
        <ele>205.328067</ele>
        <time>2020-07-15T20:42:27.290Z</time>
      </trkpt>
      <trkpt lat="64.23316" lon="10.84065">
        <ele>206.561693</ele>
        <time>2020-07-15T20:42:50.616Z</time>
      </trkpt>
      <trkpt lat="64.23372" lon="10.84282">
        <ele>207.69299</ele>
        <time>2020-07-15T20:43:10.753Z</time>
      </trkpt>
      <trkpt lat="64.23388" lon="10.845">
        <ele>208.405431</ele>
        <time>2020-07-15T20:43:29.074Z</time>
      </trkpt>
      <trkpt lat="64.23384" lon="10.84615">
        <ele>208.776929</ele>
        <time>2020-07-15T20:43:39.975Z</time>
      </trkpt>
      <trkpt lat="64.23364" lon="10.84731">
        <ele>209.921784</ele>
        <time>2020-07-15T20:43:52.690Z</time>
      </trkpt>
      <trkpt lat="64.2333" lon="10.8483">
        <ele>211.259593</ele>
        <time>2020-07-15T20:44:06.869Z</time>
      </trkpt>
      <trkpt lat="64.23229" lon="10.85054">
        <ele>214.839972</ele>
        <time>2020-07-15T20:44:45.203Z</time>
      </trkpt>
      <trkpt lat="64.23217" lon="10.85094">
        <ele>215.432283</ele>
        <time>2020-07-15T20:44:50.923Z</time>
      </trkpt>
      <trkpt lat="64.23205" lon="10.85166">
        <ele>216.354077</ele>
        <time>2020-07-15T20:44:59.771Z</time>
      </trkpt>
      <trkpt lat="64.23197" lon="10.85226">
        <ele>217.103578</ele>
        <time>2020-07-15T20:45:07.173Z</time>
      </trkpt>
      <trkpt lat="64.23195" lon="10.85249">
        <ele>217.383336</ele>
        <time>2020-07-15T20:45:09.646Z</time>
      </trkpt>
      <trkpt lat="64.23194" lon="10.85252">
        <ele>217.422767</ele>
        <time>2020-07-15T20:45:10.462Z</time>
      </trkpt>
      <trkpt lat="64.23159" lon="10.85432">
        <ele>219.133973</ele>
        <time>2020-07-15T20:45:32.015Z</time>
      </trkpt>
      <trkpt lat="64.23145" lon="10.85599">
        <ele>220.360456</ele>
        <time>2020-07-15T20:45:49.402Z</time>
      </trkpt>
      <trkpt lat="64.23127" lon="10.8571">
        <ele>221.144143</ele>
        <time>2020-07-15T20:45:59.889Z</time>
      </trkpt>
      <trkpt lat="64.23105" lon="10.85785">
        <ele>221.226172</ele>
        <time>2020-07-15T20:46:07.596Z</time>
      </trkpt>
      <trkpt lat="64.23014" lon="10.86005">
        <ele>221.501198</ele>
        <time>2020-07-15T20:46:31.276Z</time>
      </trkpt>
      <trkpt lat="64.22996" lon="10.86074">
        <ele>221.437921</ele>
        <time>2020-07-15T20:46:37.210Z</time>
      </trkpt>
      <trkpt lat="64.22988" lon="10.86137">
        <ele>221.370538</ele>
        <time>2020-07-15T20:46:42.037Z</time>
      </trkpt>
      <trkpt lat="64.23008" lon="10.86755">
        <ele>221.031437</ele>
        <time>2020-07-15T20:47:28.156Z</time>
      </trkpt>
      <trkpt lat="64.23029" lon="10.86921">
        <ele>221.745343</ele>
        <time>2020-07-15T20:47:42.828Z</time>
      </trkpt>
      <trkpt lat="64.23075" lon="10.8718">
        <ele>223.735533</ele>
        <time>2020-07-15T20:48:12.017Z</time>
      </trkpt>
      <trkpt lat="64.23085" lon="10.87298">
        <ele>224.920423</ele>
        <time>2020-07-15T20:48:26.161Z</time>
      </trkpt>
      <trkpt lat="64.23077" lon="10.87428">
        <ele>226.329089</ele>
        <time>2020-07-15T20:48:41.732Z</time>
      </trkpt>
      <trkpt lat="64.23039" lon="10.8771">
        <ele>228.995255</ele>
        <time>2020-07-15T20:49:14.179Z</time>
      </trkpt>
      <trkpt lat="64.23021" lon="10.87902">
        <ele>230.087239</ele>
        <time>2020-07-15T20:49:31.830Z</time>
      </trkpt>
      <trkpt lat="64.23015" lon="10.88098">
        <ele>231.144388</ele>
        <time>2020-07-15T20:49:49.210Z</time>
      </trkpt>
      <trkpt lat="64.2302" lon="10.88279">
        <ele>232.071338</ele>
        <time>2020-07-15T20:50:06.265Z</time>
      </trkpt>
      <trkpt lat="64.23044" lon="10.88495">
        <ele>233.083032</ele>
        <time>2020-07-15T20:50:28.364Z</time>
      </trkpt>
      <trkpt lat="64.23313" lon="10.90294">
        <ele>239.115503</ele>
        <time>2020-07-15T20:53:14.860Z</time>
      </trkpt>
      <trkpt lat="64.23337" lon="10.90387">
        <ele>239.362237</ele>
        <time>2020-07-15T20:53:23.705Z</time>
      </trkpt>
      <trkpt lat="64.2337" lon="10.90476">
        <ele>239.4229</ele>
        <time>2020-07-15T20:53:33.128Z</time>
      </trkpt>
      <trkpt lat="64.23395" lon="10.90524">
        <ele>239.461763</ele>
        <time>2020-07-15T20:53:39.096Z</time>
      </trkpt>
      <trkpt lat="64.23478" lon="10.90653">
        <ele>239.556702</ele>
        <time>2020-07-15T20:53:57.050Z</time>
      </trkpt>
      <trkpt lat="64.2352" lon="10.90751">
        <ele>239.469812</ele>
        <time>2020-07-15T20:54:07.540Z</time>
      </trkpt>
      <trkpt lat="64.23561" lon="10.90903">
        <ele>239.35749</ele>
        <time>2020-07-15T20:54:20.957Z</time>
      </trkpt>
      <trkpt lat="64.23604" lon="10.9117">
        <ele>239.157647</ele>
        <time>2020-07-15T20:54:42.299Z</time>
      </trkpt>
      <trkpt lat="64.23635" lon="10.91368">
        <ele>239.005588</ele>
        <time>2020-07-15T20:54:58.206Z</time>
      </trkpt>
      <trkpt lat="64.23716" lon="10.91879">
        <ele>238.560669</ele>
        <time>2020-07-15T20:55:39.962Z</time>
      </trkpt>
      <trkpt lat="64.23733" lon="10.92013">
        <ele>238.268507</ele>
        <time>2020-07-15T20:55:50.230Z</time>
      </trkpt>
      <trkpt lat="64.23732" lon="10.92155">
        <ele>237.959212</ele>
        <time>2020-07-15T20:56:00.226Z</time>
      </trkpt>
      <trkpt lat="64.23663" lon="10.92671">
        <ele>233.659823</ele>
        <time>2020-07-15T20:56:34.225Z</time>
      </trkpt>
      <trkpt lat="64.23615" lon="10.92995">
        <ele>229.442898</ele>
        <time>2020-07-15T20:56:53.705Z</time>
      </trkpt>
      <trkpt lat="64.23481" lon="10.93597">
        <ele>220.14329</ele>
        <time>2020-07-15T20:57:31.831Z</time>
      </trkpt>
      <trkpt lat="64.23449" lon="10.93786">
        <ele>218.186273</ele>
        <time>2020-07-15T20:57:44.560Z</time>
      </trkpt>
      <trkpt lat="64.23433" lon="10.93914">
        <ele>217.261</ele>
        <time>2020-07-15T20:57:53.316Z</time>
      </trkpt>
      <trkpt lat="64.23413" lon="10.94155">
        <ele>215.121777</ele>
        <time>2020-07-15T20:58:09.222Z</time>
      </trkpt>
      <trkpt lat="64.234" lon="10.94758">
        <ele>205.634125</ele>
        <time>2020-07-15T20:58:43.220Z</time>
      </trkpt>
      <trkpt lat="64.23385" lon="10.94919">
        <ele>202.288168</ele>
        <time>2020-07-15T20:58:51.614Z</time>
      </trkpt>
      <trkpt lat="64.23351" lon="10.95055">
        <ele>197.742484</ele>
        <time>2020-07-15T20:58:59.443Z</time>
      </trkpt>
      <trkpt lat="64.23326" lon="10.95117">
        <ele>195.296958</ele>
        <time>2020-07-15T20:59:03.611Z</time>
      </trkpt>
      <trkpt lat="64.23238" lon="10.95296">
        <ele>188.721449</ele>
        <time>2020-07-15T20:59:17.309Z</time>
      </trkpt>
      <trkpt lat="64.23199" lon="10.95415">
        <ele>186.071216</ele>
        <time>2020-07-15T20:59:25.362Z</time>
      </trkpt>
      <trkpt lat="64.23043" lon="10.96328">
        <ele>176.502954</ele>
        <time>2020-07-15T21:00:26.033Z</time>
      </trkpt>
      <trkpt lat="64.23028" lon="10.96391">
        <ele>176.041444</ele>
        <time>2020-07-15T21:00:30.532Z</time>
      </trkpt>
      <trkpt lat="64.22972" lon="10.96566">
        <ele>174.627428</ele>
        <time>2020-07-15T21:00:44.773Z</time>
      </trkpt>
      <trkpt lat="64.22954" lon="10.96642">
        <ele>174.064991</ele>
        <time>2020-07-15T21:00:50.350Z</time>
      </trkpt>
      <trkpt lat="64.22941" lon="10.96728">
        <ele>173.099359</ele>
        <time>2020-07-15T21:00:56.078Z</time>
      </trkpt>
      <trkpt lat="64.22934" lon="10.96826">
        <ele>171.746537</ele>
        <time>2020-07-15T21:01:02.307Z</time>
      </trkpt>
      <trkpt lat="64.22914" lon="10.97385">
        <ele>161.056504</ele>
        <time>2020-07-15T21:01:32.991Z</time>
      </trkpt>
      <trkpt lat="64.22896" lon="10.97499">
        <ele>158.00071</ele>
        <time>2020-07-15T21:01:38.947Z</time>
      </trkpt>
      <trkpt lat="64.22879" lon="10.97546">
        <ele>155.392764</ele>
        <time>2020-07-15T21:01:41.875Z</time>
      </trkpt>
      <trkpt lat="64.22853" lon="10.9758">
        <ele>152.469018</ele>
        <time>2020-07-15T21:01:45.142Z</time>
      </trkpt>
      <trkpt lat="64.22733" lon="10.9761">
        <ele>140.652125</ele>
        <time>2020-07-15T21:01:58.183Z</time>
      </trkpt>
      <trkpt lat="64.22696" lon="10.97645">
        <ele>138.73914</ele>
        <time>2020-07-15T21:02:02.602Z</time>
      </trkpt>
      <trkpt lat="64.22667" lon="10.97688">
        <ele>137.062641</ele>
        <time>2020-07-15T21:02:06.653Z</time>
      </trkpt>
      <trkpt lat="64.22637" lon="10.97737">
        <ele>135.290193</ele>
        <time>2020-07-15T21:02:11.164Z</time>
      </trkpt>
      <trkpt lat="64.22613" lon="10.97775">
        <ele>133.883395</ele>
        <time>2020-07-15T21:02:15.134Z</time>
      </trkpt>
      <trkpt lat="64.2256" lon="10.97868">
        <ele>132.462212</ele>
        <time>2020-07-15T21:02:25.869Z</time>
      </trkpt>
      <trkpt lat="64.22511" lon="10.97995">
        <ele>133.607131</ele>
        <time>2020-07-15T21:02:44.479Z</time>
      </trkpt>
      <trkpt lat="64.22487" lon="10.98084">
        <ele>134.312686</ele>
        <time>2020-07-15T21:02:57.360Z</time>
      </trkpt>
      <trkpt lat="64.22464" lon="10.98205">
        <ele>134.636004</ele>
        <time>2020-07-15T21:03:10.861Z</time>
      </trkpt>
      <trkpt lat="64.22451" lon="10.98313">
        <ele>134.287628</ele>
        <time>2020-07-15T21:03:20.294Z</time>
      </trkpt>
      <trkpt lat="64.22444" lon="10.98414">
        <ele>133.969218</ele>
        <time>2020-07-15T21:03:27.376Z</time>
      </trkpt>
      <trkpt lat="64.22439" lon="10.98896">
        <ele>129.586144</ele>
        <time>2020-07-15T21:03:55.200Z</time>
      </trkpt>
      <trkpt lat="64.22438" lon="10.99011">
        <ele>128.458044</ele>
        <time>2020-07-15T21:04:02.317Z</time>
      </trkpt>
      <trkpt lat="64.22438" lon="10.99035">
        <ele>128.297543</ele>
        <time>2020-07-15T21:04:03.906Z</time>
      </trkpt>
      <trkpt lat="64.22438" lon="10.9907">
        <ele>128.070627</ele>
        <time>2020-07-15T21:04:05.974Z</time>
      </trkpt>
      <trkpt lat="64.2244" lon="10.99151">
        <ele>127.538022</ele>
        <time>2020-07-15T21:04:11.129Z</time>
      </trkpt>
      <trkpt lat="64.22441" lon="10.99173">
        <ele>127.390324</ele>
        <time>2020-07-15T21:04:12.685Z</time>
      </trkpt>
      <trkpt lat="64.2245" lon="10.99267">
        <ele>126.755586</ele>
        <time>2020-07-15T21:04:18.913Z</time>
      </trkpt>
      <trkpt lat="64.22476" lon="10.99362">
        <ele>126.018886</ele>
        <time>2020-07-15T21:04:26.506Z</time>
      </trkpt>
      <trkpt lat="64.22504" lon="10.99417">
        <ele>125.357019</ele>
        <time>2020-07-15T21:04:32.257Z</time>
      </trkpt>
      <trkpt lat="64.22612" lon="10.99573">
        <ele>123.057505</ele>
        <time>2020-07-15T21:04:50.006Z</time>
      </trkpt>
      <trkpt lat="64.2265" lon="10.99657">
        <ele>122.877831</ele>
        <time>2020-07-15T21:04:57.479Z</time>
      </trkpt>
      <trkpt lat="64.227" lon="10.99789">
        <ele>123.100577</ele>
        <time>2020-07-15T21:05:10.482Z</time>
      </trkpt>
      <trkpt lat="64.22731" lon="10.99908">
        <ele>123.273889</ele>
        <time>2020-07-15T21:05:23.923Z</time>
      </trkpt>
      <trkpt lat="64.22782" lon="11.0017">
        <ele>127.331426</ele>
        <time>2020-07-15T21:06:01.230Z</time>
      </trkpt>
      <trkpt lat="64.22801" lon="11.00331">
        <ele>129.488744</ele>
        <time>2020-07-15T21:06:23.983Z</time>
      </trkpt>
      <trkpt lat="64.22809" lon="11.0057">
        <ele>130.14445</ele>
        <time>2020-07-15T21:06:48.522Z</time>
      </trkpt>
      <trkpt lat="64.22804" lon="11.00686">
        <ele>130.462661</ele>
        <time>2020-07-15T21:06:56.342Z</time>
      </trkpt>
      <trkpt lat="64.22771" lon="11.01077">
        <ele>124.91207</ele>
        <time>2020-07-15T21:07:18.263Z</time>
      </trkpt>
      <trkpt lat="64.22756" lon="11.01348">
        <ele>122.532586</ele>
        <time>2020-07-15T21:07:33.664Z</time>
      </trkpt>
      <trkpt lat="64.22741" lon="11.01723">
        <ele>123.286309</ele>
        <time>2020-07-15T21:08:05.219Z</time>
      </trkpt>
      <trkpt lat="64.22726" lon="11.02128">
        <ele>128.560775</ele>
        <time>2020-07-15T21:09:01.697Z</time>
      </trkpt>
      <trkpt lat="64.2272" lon="11.02279">
        <ele>130.857665</ele>
        <time>2020-07-15T21:09:21.280Z</time>
      </trkpt>
      <trkpt lat="64.22719" lon="11.02316">
        <ele>131.42255</ele>
        <time>2020-07-15T21:09:25.744Z</time>
      </trkpt>
      <trkpt lat="64.22711" lon="11.02508">
        <ele>131.87457</ele>
        <time>2020-07-15T21:09:43.757Z</time>
      </trkpt>
      <trkpt lat="64.22712" lon="11.0264">
        <ele>131.689115</ele>
        <time>2020-07-15T21:09:53.031Z</time>
      </trkpt>
      <trkpt lat="64.22725" lon="11.02769">
        <ele>131.504355</ele>
        <time>2020-07-15T21:10:01.086Z</time>
      </trkpt>
      <trkpt lat="64.22742" lon="11.02856">
        <ele>130.626199</ele>
        <time>2020-07-15T21:10:06.876Z</time>
      </trkpt>
      <trkpt lat="64.22834" lon="11.03127">
        <ele>127.501977</ele>
        <time>2020-07-15T21:10:27.765Z</time>
      </trkpt>
      <trkpt lat="64.23129" lon="11.04191">
        <ele>118.012946</ele>
        <time>2020-07-15T21:11:46.612Z</time>
      </trkpt>
      <trkpt lat="64.23276" lon="11.0477">
        <ele>115.593832</ele>
        <time>2020-07-15T21:12:33.379Z</time>
      </trkpt>
      <trkpt lat="64.23306" lon="11.04849">
        <ele>115.267772</ele>
        <time>2020-07-15T21:12:40.606Z</time>
      </trkpt>
      <trkpt lat="64.23361" lon="11.04958">
        <ele>114.786658</ele>
        <time>2020-07-15T21:12:52.103Z</time>
      </trkpt>
      <trkpt lat="64.2344" lon="11.05104">
        <ele>114.11591</ele>
        <time>2020-07-15T21:13:08.577Z</time>
      </trkpt>
      <trkpt lat="64.23484" lon="11.05184">
        <ele>114.083065</ele>
        <time>2020-07-15T21:13:17.888Z</time>
      </trkpt>
      <trkpt lat="64.23615" lon="11.05406">
        <ele>114.038367</ele>
        <time>2020-07-15T21:13:48.081Z</time>
      </trkpt>
      <trkpt lat="64.23682" lon="11.05572">
        <ele>113.700299</ele>
        <time>2020-07-15T21:14:07.076Z</time>
      </trkpt>
      <trkpt lat="64.23736" lon="11.05789">
        <ele>112.418949</ele>
        <time>2020-07-15T21:14:22.566Z</time>
      </trkpt>
      <trkpt lat="64.23756" lon="11.05824">
        <ele>111.931699</ele>
        <time>2020-07-15T21:14:25.922Z</time>
      </trkpt>
      <trkpt lat="64.23775" lon="11.05832">
        <ele>111.543783</ele>
        <time>2020-07-15T21:14:28.666Z</time>
      </trkpt>
      <trkpt lat="64.23781" lon="11.05832">
        <ele>111.435711</ele>
        <time>2020-07-15T21:14:29.357Z</time>
      </trkpt>
      <trkpt lat="64.23831" lon="11.05821">
        <ele>110.465091</ele>
        <time>2020-07-15T21:14:36.617Z</time>
      </trkpt>
      <trkpt lat="64.23839" lon="11.0582">
        <ele>110.312255</ele>
        <time>2020-07-15T21:14:37.764Z</time>
      </trkpt>
      <trkpt lat="64.23881" lon="11.0581">
        <ele>109.953313</ele>
        <time>2020-07-15T21:14:44.228Z</time>
      </trkpt>
      <trkpt lat="64.23898" lon="11.05807">
        <ele>109.895907</ele>
        <time>2020-07-15T21:14:46.911Z</time>
      </trkpt>
      <trkpt lat="64.23903" lon="11.05807">
        <ele>109.878109</ele>
        <time>2020-07-15T21:14:47.609Z</time>
      </trkpt>
      <trkpt lat="64.2391" lon="11.05807">
        <ele>109.851923</ele>
        <time>2020-07-15T21:14:48.740Z</time>
      </trkpt>
      <trkpt lat="64.23919" lon="11.0581">
        <ele>109.822284</ele>
        <time>2020-07-15T21:14:50.110Z</time>
      </trkpt>
      <trkpt lat="64.23928" lon="11.05814">
        <ele>109.788557</ele>
        <time>2020-07-15T21:14:51.434Z</time>
      </trkpt>
      <trkpt lat="64.23934" lon="11.05817">
        <ele>109.768459</ele>
        <time>2020-07-15T21:14:52.942Z</time>
      </trkpt>
      <trkpt lat="64.23957" lon="11.05838">
        <ele>109.683423</ele>
        <time>2020-07-15T21:14:56.642Z</time>
      </trkpt>
      <trkpt lat="64.23981" lon="11.05876">
        <ele>109.580288</ele>
        <time>2020-07-15T21:15:02.398Z</time>
      </trkpt>
      <trkpt lat="64.24001" lon="11.05923">
        <ele>109.481788</ele>
        <time>2020-07-15T21:15:08.772Z</time>
      </trkpt>
      <trkpt lat="64.24015" lon="11.05981">
        <ele>109.385651</ele>
        <time>2020-07-15T21:15:15.610Z</time>
      </trkpt>
      <trkpt lat="64.24243" lon="11.075">
        <ele>107.050881</ele>
        <time>2020-07-15T21:17:12.374Z</time>
      </trkpt>
      <trkpt lat="64.24343" lon="11.07946">
        <ele>106.128683</ele>
        <time>2020-07-15T21:17:47.995Z</time>
      </trkpt>
      <trkpt lat="64.2437" lon="11.08173">
        <ele>106.350492</ele>
        <time>2020-07-15T21:18:06.922Z</time>
      </trkpt>
      <trkpt lat="64.24389" lon="11.08278">
        <ele>106.472074</ele>
        <time>2020-07-15T21:18:16.974Z</time>
      </trkpt>
      <trkpt lat="64.24416" lon="11.08372">
        <ele>106.852146</ele>
        <time>2020-07-15T21:18:27.381Z</time>
      </trkpt>
      <trkpt lat="64.24507" lon="11.08571">
        <ele>107.821133</ele>
        <time>2020-07-15T21:18:53.699Z</time>
      </trkpt>
      <trkpt lat="64.24614" lon="11.08875">
        <ele>108.01392</ele>
        <time>2020-07-15T21:19:22.657Z</time>
      </trkpt>
      <trkpt lat="64.24631" lon="11.08923">
        <ele>108.658184</ele>
        <time>2020-07-15T21:19:27.871Z</time>
      </trkpt>
      <trkpt lat="64.24627" lon="11.08938">
        <ele>108.974187</ele>
        <time>2020-07-15T21:19:29.357Z</time>
      </trkpt>
      <trkpt lat="64.2464" lon="11.09033">
        <ele>110.861861</ele>
        <time>2020-07-15T21:19:39.855Z</time>
      </trkpt>
      <trkpt lat="64.24639" lon="11.09056">
        <ele>111.288706</ele>
        <time>2020-07-15T21:19:42.425Z</time>
      </trkpt>
      <trkpt lat="64.24636" lon="11.09071">
        <ele>111.60859</ele>
        <time>2020-07-15T21:19:43.822Z</time>
      </trkpt>
      <trkpt lat="64.24615" lon="11.09149">
        <ele>113.321748</ele>
        <time>2020-07-15T21:19:59.436Z</time>
      </trkpt>
      <trkpt lat="64.24606" lon="11.09184">
        <ele>114.104843</ele>
        <time>2020-07-15T21:20:06.522Z</time>
      </trkpt>
      <trkpt lat="64.24579" lon="11.09258">
        <ele>115.969812</ele>
        <time>2020-07-15T21:20:23.759Z</time>
      </trkpt>
      <trkpt lat="64.24539" lon="11.09288">
        <ele>119.27586</ele>
        <time>2020-07-15T21:20:43.461Z</time>
      </trkpt>
      <trkpt lat="64.24508" lon="11.09313">
        <ele>121.898389</ele>
        <time>2020-07-15T21:20:58.345Z</time>
      </trkpt>
      <trkpt lat="64.24505" lon="11.0932">
        <ele>122.222452</ele>
        <time>2020-07-15T21:21:02.121Z</time>
      </trkpt>
      <trkpt lat="64.24501" lon="11.09346">
        <ele>123.175761</ele>
        <time>2020-07-15T21:21:07.522Z</time>
      </trkpt>
      <trkpt lat="64.24504" lon="11.09455">
        <ele>126.940492</ele>
        <time>2020-07-15T21:21:29.074Z</time>
      </trkpt>
      <trkpt lat="64.24511" lon="11.09517">
        <ele>129.116479</ele>
        <time>2020-07-15T21:21:41.399Z</time>
      </trkpt>
      <trkpt lat="64.24533" lon="11.09579">
        <ele>130.644287</ele>
        <time>2020-07-15T21:21:55.363Z</time>
      </trkpt>
      <trkpt lat="64.24612" lon="11.09723">
        <ele>133.36679</ele>
        <time>2020-07-15T21:22:20.782Z</time>
      </trkpt>
      <trkpt lat="64.24667" lon="11.09911">
        <ele>135.020099</ele>
        <time>2020-07-15T21:22:41.333Z</time>
      </trkpt>
      <trkpt lat="64.24685" lon="11.10017">
        <ele>135.175758</ele>
        <time>2020-07-15T21:22:52.224Z</time>
      </trkpt>
      <trkpt lat="64.24683" lon="11.10069">
        <ele>135.247997</ele>
        <time>2020-07-15T21:22:57.412Z</time>
      </trkpt>
      <trkpt lat="64.2467" lon="11.10128">
        <ele>135.338731</ele>
        <time>2020-07-15T21:23:04.396Z</time>
      </trkpt>
      <trkpt lat="64.24603" lon="11.10291">
        <ele>131.867035</ele>
        <time>2020-07-15T21:23:18.878Z</time>
      </trkpt>
      <trkpt lat="64.24577" lon="11.10388">
        <ele>129.018933</ele>
        <time>2020-07-15T21:23:24.873Z</time>
      </trkpt>
      <trkpt lat="64.24572" lon="11.10422">
        <ele>128.084824</ele>
        <time>2020-07-15T21:23:26.898Z</time>
      </trkpt>
      <trkpt lat="64.24586" lon="11.10474">
        <ele>126.547984</ele>
        <time>2020-07-15T21:23:29.908Z</time>
      </trkpt>
      <trkpt lat="64.24609" lon="11.10551">
        <ele>123.758012</ele>
        <time>2020-07-15T21:23:34.563Z</time>
      </trkpt>
      <trkpt lat="64.24622" lon="11.10579">
        <ele>122.079183</ele>
        <time>2020-07-15T21:23:36.646Z</time>
      </trkpt>
      <trkpt lat="64.24634" lon="11.10586">
        <ele>121.011492</ele>
        <time>2020-07-15T21:23:37.951Z</time>
      </trkpt>
      <trkpt lat="64.24654" lon="11.10591">
        <ele>119.118069</ele>
        <time>2020-07-15T21:23:40.316Z</time>
      </trkpt>
      <trkpt lat="64.24702" lon="11.10553">
        <ele>114.54209</ele>
        <time>2020-07-15T21:23:45.910Z</time>
      </trkpt>
      <trkpt lat="64.24719" lon="11.1055">
        <ele>112.953845</ele>
        <time>2020-07-15T21:23:47.950Z</time>
      </trkpt>
      <trkpt lat="64.24801" lon="11.1058">
        <ele>108.850901</ele>
        <time>2020-07-15T21:23:58.362Z</time>
      </trkpt>
      <trkpt lat="64.24812" lon="11.10592">
        <ele>108.921814</ele>
        <time>2020-07-15T21:24:00.007Z</time>
      </trkpt>
      <trkpt lat="64.24817" lon="11.1064">
        <ele>109.054767</ele>
        <time>2020-07-15T21:24:03.204Z</time>
      </trkpt>
      <trkpt lat="64.24775" lon="11.10881">
        <ele>109.819502</ele>
        <time>2020-07-15T21:24:36.843Z</time>
      </trkpt>
      <trkpt lat="64.24776" lon="11.1097">
        <ele>111.574238</ele>
        <time>2020-07-15T21:24:50.977Z</time>
      </trkpt>
      <trkpt lat="64.24782" lon="11.11013">
        <ele>112.459157</ele>
        <time>2020-07-15T21:24:58.754Z</time>
      </trkpt>
      <trkpt lat="64.24785" lon="11.11039">
        <ele>112.995255</ele>
        <time>2020-07-15T21:25:02.926Z</time>
      </trkpt>
      <trkpt lat="64.24788" lon="11.11059">
        <ele>113.418361</ele>
        <time>2020-07-15T21:25:06.094Z</time>
      </trkpt>
      <trkpt lat="64.24799" lon="11.11145">
        <ele>115.173902</ele>
        <time>2020-07-15T21:25:20.003Z</time>
      </trkpt>
      <trkpt lat="64.24851" lon="11.11507">
        <ele>120.341302</ele>
        <time>2020-07-15T21:26:08.523Z</time>
      </trkpt>
      <trkpt lat="64.24877" lon="11.11716">
        <ele>122.026662</ele>
        <time>2020-07-15T21:26:28.875Z</time>
      </trkpt>
      <trkpt lat="64.24875" lon="11.11757">
        <ele>121.980071</ele>
        <time>2020-07-15T21:26:32.642Z</time>
      </trkpt>
      <trkpt lat="64.24861" lon="11.11851">
        <ele>121.869012</ele>
        <time>2020-07-15T21:26:41.216Z</time>
      </trkpt>
      <trkpt lat="64.2486" lon="11.11898">
        <ele>121.815867</ele>
        <time>2020-07-15T21:26:45.049Z</time>
      </trkpt>
      <trkpt lat="64.24902" lon="11.12079">
        <ele>121.284721</ele>
        <time>2020-07-15T21:26:59.518Z</time>
      </trkpt>
      <trkpt lat="64.24916" lon="11.12226">
        <ele>119.445848</ele>
        <time>2020-07-15T21:27:09.061Z</time>
      </trkpt>
      <trkpt lat="64.24945" lon="11.12351">
        <ele>117.710716</ele>
        <time>2020-07-15T21:27:17.475Z</time>
      </trkpt>
      <trkpt lat="64.24956" lon="11.1247">
        <ele>116.197943</ele>
        <time>2020-07-15T21:27:24.424Z</time>
      </trkpt>
      <trkpt lat="64.24959" lon="11.12612">
        <ele>114.343368</ele>
        <time>2020-07-15T21:27:32.572Z</time>
      </trkpt>
      <trkpt lat="64.24969" lon="11.12797">
        <ele>111.903202</ele>
        <time>2020-07-15T21:27:43.727Z</time>
      </trkpt>
      <trkpt lat="64.25006" lon="11.13033">
        <ele>112.3251</ele>
        <time>2020-07-15T21:28:02.039Z</time>
      </trkpt>
      <trkpt lat="64.25003" lon="11.13151">
        <ele>113.049099</ele>
        <time>2020-07-15T21:28:15.315Z</time>
      </trkpt>
      <trkpt lat="64.24991" lon="11.13239">
        <ele>113.624963</ele>
        <time>2020-07-15T21:28:27.978Z</time>
      </trkpt>
      <trkpt lat="64.2496" lon="11.13395">
        <ele>118.053797</ele>
        <time>2020-07-15T21:28:54.911Z</time>
      </trkpt>
      <trkpt lat="64.24939" lon="11.137">
        <ele>126.234576</ele>
        <time>2020-07-15T21:29:50.625Z</time>
      </trkpt>
      <trkpt lat="64.24915" lon="11.13866">
        <ele>130.300474</ele>
        <time>2020-07-15T21:30:21.781Z</time>
      </trkpt>
      <trkpt lat="64.24914" lon="11.14028">
        <ele>134.03755</ele>
        <time>2020-07-15T21:30:45.595Z</time>
      </trkpt>
      <trkpt lat="64.24928" lon="11.14192">
        <ele>131.503171</ele>
        <time>2020-07-15T21:31:00.094Z</time>
      </trkpt>
      <trkpt lat="64.24921" lon="11.14324">
        <ele>128.74293</ele>
        <time>2020-07-15T21:31:07.596Z</time>
      </trkpt>
      <trkpt lat="64.24929" lon="11.1438">
        <ele>127.532316</ele>
        <time>2020-07-15T21:31:10.620Z</time>
      </trkpt>
      <trkpt lat="64.25039" lon="11.14893">
        <ele>97.079801</ele>
        <time>2020-07-15T21:31:38.013Z</time>
      </trkpt>
      <trkpt lat="64.25071" lon="11.15093">
        <ele>85.80526</ele>
        <time>2020-07-15T21:31:48.188Z</time>
      </trkpt>
      <trkpt lat="64.25078" lon="11.15211">
        <ele>79.472794</ele>
        <time>2020-07-15T21:31:54.061Z</time>
      </trkpt>
      <trkpt lat="64.25079" lon="11.1544">
        <ele>74.528483</ele>
        <time>2020-07-15T21:32:06.110Z</time>
      </trkpt>
      <trkpt lat="64.25062" lon="11.15578">
        <ele>71.438743</ele>
        <time>2020-07-15T21:32:14.795Z</time>
      </trkpt>
      <trkpt lat="64.25013" lon="11.15868">
        <ele>71.377771</ele>
        <time>2020-07-15T21:32:42.860Z</time>
      </trkpt>
      <trkpt lat="64.25009" lon="11.15928">
        <ele>71.563849</ele>
        <time>2020-07-15T21:32:49.494Z</time>
      </trkpt>
      <trkpt lat="64.25011" lon="11.16094">
        <ele>71.634146</ele>
        <time>2020-07-15T21:33:06.544Z</time>
      </trkpt>
      <trkpt lat="64.24989" lon="11.16271">
        <ele>71.200598</ele>
        <time>2020-07-15T21:33:22.232Z</time>
      </trkpt>
      <trkpt lat="64.24988" lon="11.16326">
        <ele>71.070786</ele>
        <time>2020-07-15T21:33:25.923Z</time>
      </trkpt>
      <trkpt lat="64.24995" lon="11.1646">
        <ele>70.139175</ele>
        <time>2020-07-15T21:33:34.110Z</time>
      </trkpt>
      <trkpt lat="64.25003" lon="11.16532">
        <ele>68.874314</ele>
        <time>2020-07-15T21:33:38.397Z</time>
      </trkpt>
      <trkpt lat="64.25017" lon="11.16591">
        <ele>67.762427</ele>
        <time>2020-07-15T21:33:42.091Z</time>
      </trkpt>
      <trkpt lat="64.25042" lon="11.1665">
        <ele>66.369891</ele>
        <time>2020-07-15T21:33:46.637Z</time>
      </trkpt>
      <trkpt lat="64.25054" lon="11.16695">
        <ele>65.463541</ele>
        <time>2020-07-15T21:33:49.574Z</time>
      </trkpt>
      <trkpt lat="64.25111" lon="11.17016">
        <ele>63.038456</ele>
        <time>2020-07-15T21:34:10.521Z</time>
      </trkpt>
      <trkpt lat="64.25113" lon="11.17125">
        <ele>62.684442</ele>
        <time>2020-07-15T21:34:21.144Z</time>
      </trkpt>
      <trkpt lat="64.251" lon="11.1741">
        <ele>67.276384</ele>
        <time>2020-07-15T21:35:01.236Z</time>
      </trkpt>
      <trkpt lat="64.25116" lon="11.17523">
        <ele>69.720834</ele>
        <time>2020-07-15T21:35:21.245Z</time>
      </trkpt>
      <trkpt lat="64.25116" lon="11.17567">
        <ele>70.628927</ele>
        <time>2020-07-15T21:35:28.741Z</time>
      </trkpt>
      <trkpt lat="64.25108" lon="11.17649">
        <ele>71.871401</ele>
        <time>2020-07-15T21:35:42.538Z</time>
      </trkpt>
      <trkpt lat="64.25039" lon="11.17863">
        <ele>75.42623</ele>
        <time>2020-07-15T21:36:17.292Z</time>
      </trkpt>
      <trkpt lat="64.25017" lon="11.17918">
        <ele>76.420856</ele>
        <time>2020-07-15T21:36:23.821Z</time>
      </trkpt>
      <trkpt lat="64.25013" lon="11.17953">
        <ele>75.973283</ele>
        <time>2020-07-15T21:36:26.384Z</time>
      </trkpt>
      <trkpt lat="64.25015" lon="11.17963">
        <ele>75.78611</ele>
        <time>2020-07-15T21:36:27.414Z</time>
      </trkpt>
      <trkpt lat="64.25021" lon="11.1797">
        <ele>75.513422</ele>
        <time>2020-07-15T21:36:29.209Z</time>
      </trkpt>
      <trkpt lat="64.25014" lon="11.18001">
        <ele>74.878463</ele>
        <time>2020-07-15T21:36:31.177Z</time>
      </trkpt>
      <trkpt lat="64.24998" lon="11.18089">
        <ele>73.146885</ele>
        <time>2020-07-15T21:36:36.597Z</time>
      </trkpt>
      <trkpt lat="64.24984" lon="11.1821">
        <ele>70.861403</ele>
        <time>2020-07-15T21:36:43.197Z</time>
      </trkpt>
      <trkpt lat="64.24979" lon="11.18314">
        <ele>68.929298</ele>
        <time>2020-07-15T21:36:48.387Z</time>
      </trkpt>
      <trkpt lat="64.24981" lon="11.18419">
        <ele>65.055632</ele>
        <time>2020-07-15T21:36:53.589Z</time>
      </trkpt>
      <trkpt lat="64.24992" lon="11.18506">
        <ele>61.732863</ele>
        <time>2020-07-15T21:36:57.917Z</time>
      </trkpt>
      <trkpt lat="64.25007" lon="11.1857">
        <ele>59.066641</ele>
        <time>2020-07-15T21:37:01.388Z</time>
      </trkpt>
      <trkpt lat="64.25036" lon="11.18647">
        <ele>55.335555</ele>
        <time>2020-07-15T21:37:06.346Z</time>
      </trkpt>
      <trkpt lat="64.25069" lon="11.18703">
        <ele>51.927707</ele>
        <time>2020-07-15T21:37:10.936Z</time>
      </trkpt>
      <trkpt lat="64.25076" lon="11.18712">
        <ele>51.300922</ele>
        <time>2020-07-15T21:37:11.761Z</time>
      </trkpt>
      <trkpt lat="64.25081" lon="11.18718">
        <ele>50.837878</ele>
        <time>2020-07-15T21:37:12.418Z</time>
      </trkpt>
      <trkpt lat="64.25088" lon="11.18725">
        <ele>50.268503</ele>
        <time>2020-07-15T21:37:13.188Z</time>
      </trkpt>
      <trkpt lat="64.2513" lon="11.18753">
        <ele>46.754398</ele>
        <time>2020-07-15T21:37:18.116Z</time>
      </trkpt>
      <trkpt lat="64.25168" lon="11.18758">
        <ele>43.679859</ele>
        <time>2020-07-15T21:37:22.431Z</time>
      </trkpt>
      <trkpt lat="64.25179" lon="11.18756">
        <ele>42.751662</ele>
        <time>2020-07-15T21:37:23.688Z</time>
      </trkpt>
      <trkpt lat="64.25267" lon="11.18742">
        <ele>36.458101</ele>
        <time>2020-07-15T21:37:33.796Z</time>
      </trkpt>
      <trkpt lat="64.25321" lon="11.18746">
        <ele>33.104259</ele>
        <time>2020-07-15T21:37:39.976Z</time>
      </trkpt>
      <trkpt lat="64.25368" lon="11.18769">
        <ele>30.082507</ele>
        <time>2020-07-15T21:37:45.735Z</time>
      </trkpt>
      <trkpt lat="64.25407" lon="11.18793">
        <ele>27.766703</ele>
        <time>2020-07-15T21:37:50.627Z</time>
      </trkpt>
      <trkpt lat="64.25424" lon="11.18803">
        <ele>27.172227</ele>
        <time>2020-07-15T21:37:52.678Z</time>
      </trkpt>
      <trkpt lat="64.25476" lon="11.1883">
        <ele>25.295294</ele>
        <time>2020-07-15T21:37:59.424Z</time>
      </trkpt>
      <trkpt lat="64.2552" lon="11.18835">
        <ele>23.757787</ele>
        <time>2020-07-15T21:38:05.022Z</time>
      </trkpt>
      <trkpt lat="64.2555" lon="11.18821">
        <ele>22.655187</ele>
        <time>2020-07-15T21:38:09.147Z</time>
      </trkpt>
      <trkpt lat="64.2563" lon="11.18752">
        <ele>22.251537</ele>
        <time>2020-07-15T21:38:21.608Z</time>
      </trkpt>
      <trkpt lat="64.25655" lon="11.18751">
        <ele>22.481101</ele>
        <time>2020-07-15T21:38:25.800Z</time>
      </trkpt>
      <trkpt lat="64.25672" lon="11.18765">
        <ele>22.644184</ele>
        <time>2020-07-15T21:38:29.567Z</time>
      </trkpt>
      <trkpt lat="64.25678" lon="11.18772">
        <ele>22.705068</ele>
        <time>2020-07-15T21:38:30.764Z</time>
      </trkpt>
      <trkpt lat="64.25708" lon="11.18815">
        <ele>23.034953</ele>
        <time>2020-07-15T21:38:38.604Z</time>
      </trkpt>
      <trkpt lat="64.25718" lon="11.1883">
        <ele>23.141156</ele>
        <time>2020-07-15T21:38:41.137Z</time>
      </trkpt>
      <trkpt lat="64.25716" lon="11.18836">
        <ele>23.168785</ele>
        <time>2020-07-15T21:38:42.168Z</time>
      </trkpt>
      <trkpt lat="64.2572" lon="11.18858">
        <ele>23.261797</ele>
        <time>2020-07-15T21:38:44.783Z</time>
      </trkpt>
      <trkpt lat="64.25739" lon="11.18899">
        <ele>24.29486</ele>
        <time>2020-07-15T21:38:54.803Z</time>
      </trkpt>
      <trkpt lat="64.25806" lon="11.19033">
        <ele>29.977791</ele>
        <time>2020-07-15T21:39:32.884Z</time>
      </trkpt>
      <trkpt lat="64.2583" lon="11.19114">
        <ele>32.686706</ele>
        <time>2020-07-15T21:39:50.076Z</time>
      </trkpt>
      <trkpt lat="64.25834" lon="11.19138">
        <ele>33.403869</ele>
        <time>2020-07-15T21:39:55.692Z</time>
      </trkpt>
      <trkpt lat="64.25836" lon="11.19148">
        <ele>33.691549</ele>
        <time>2020-07-15T21:39:59.614Z</time>
      </trkpt>
      <trkpt lat="64.25852" lon="11.19311">
        <ele>34.182092</ele>
        <time>2020-07-15T21:40:23.314Z</time>
      </trkpt>
      <trkpt lat="64.25858" lon="11.19449">
        <ele>33.444783</ele>
        <time>2020-07-15T21:40:33.430Z</time>
      </trkpt>
      <trkpt lat="64.25865" lon="11.19511">
        <ele>33.105888</ele>
        <time>2020-07-15T21:40:37.428Z</time>
      </trkpt>
      <trkpt lat="64.25895" lon="11.19669">
        <ele>29.176168</ele>
        <time>2020-07-15T21:40:46.016Z</time>
      </trkpt>
      <trkpt lat="64.25934" lon="11.19806">
        <ele>22.613678</ele>
        <time>2020-07-15T21:40:54.083Z</time>
      </trkpt>
      <trkpt lat="64.25963" lon="11.19933">
        <ele>16.886761</ele>
        <time>2020-07-15T21:41:01.325Z</time>
      </trkpt>
      <trkpt lat="64.25964" lon="11.19935">
        <ele>16.76283</ele>
        <time>2020-07-15T21:41:01.479Z</time>
      </trkpt>
      <trkpt lat="64.25998" lon="11.19882">
        <ele>14.592664</ele>
        <time>2020-07-15T21:41:06.208Z</time>
      </trkpt>
      <trkpt lat="64.26022" lon="11.19851">
        <ele>13.395678</ele>
        <time>2020-07-15T21:41:09.565Z</time>
      </trkpt>
      <trkpt lat="64.26061" lon="11.19819">
        <ele>11.586002</ele>
        <time>2020-07-15T21:41:14.514Z</time>
      </trkpt>
      <trkpt lat="64.26133" lon="11.19784">
        <ele>8.394112</ele>
        <time>2020-07-15T21:41:25.058Z</time>
      </trkpt>
      <trkpt lat="64.26155" lon="11.19774">
        <ele>8.101471</ele>
        <time>2020-07-15T21:41:28.760Z</time>
      </trkpt>
      <trkpt lat="64.26176" lon="11.19764">
        <ele>7.957334</ele>
        <time>2020-07-15T21:41:32.246Z</time>
      </trkpt>
      <trkpt lat="64.26239" lon="11.19734">
        <ele>7.526165</ele>
        <time>2020-07-15T21:41:42.696Z</time>
      </trkpt>
      <trkpt lat="64.26281" lon="11.19715">
        <ele>7.238437</ele>
        <time>2020-07-15T21:41:49.709Z</time>
      </trkpt>
      <trkpt lat="64.26415" lon="11.19651">
        <ele>6.682259</ele>
        <time>2020-07-15T21:42:12.762Z</time>
      </trkpt>
      <trkpt lat="64.26667" lon="11.19531">
        <ele>5.662025</ele>
        <time>2020-07-15T21:42:56.287Z</time>
      </trkpt>
      <trkpt lat="64.27091" lon="11.19331">
        <ele>1.996277</ele>
        <time>2020-07-15T21:44:03.753Z</time>
      </trkpt>
      <trkpt lat="64.27108" lon="11.19325">
        <ele>1.900654</ele>
        <time>2020-07-15T21:44:06.585Z</time>
      </trkpt>
      <trkpt lat="64.27125" lon="11.19321">
        <ele>1.80504</ele>
        <time>2020-07-15T21:44:09.327Z</time>
      </trkpt>
      <trkpt lat="64.27156" lon="11.19314">
        <ele>1.634182</ele>
        <time>2020-07-15T21:44:14.390Z</time>
      </trkpt>
      <trkpt lat="64.27355" lon="11.19299">
        <ele>1.755073</ele>
        <time>2020-07-15T21:44:50.760Z</time>
      </trkpt>
      <trkpt lat="64.27368" lon="11.19302">
        <ele>1.783468</ele>
        <time>2020-07-15T21:44:53.345Z</time>
      </trkpt>
      <trkpt lat="64.27387" lon="11.19307">
        <ele>1.886553</ele>
        <time>2020-07-15T21:44:57.163Z</time>
      </trkpt>
      <trkpt lat="64.2742" lon="11.19318">
        <ele>2.131374</ele>
        <time>2020-07-15T21:45:03.941Z</time>
      </trkpt>
      <trkpt lat="64.27493" lon="11.19343">
        <ele>2.673092</ele>
        <time>2020-07-15T21:45:19.000Z</time>
      </trkpt>
      <trkpt lat="64.27545" lon="11.19359">
        <ele>3.051143</ele>
        <time>2020-07-15T21:45:29.558Z</time>
      </trkpt>
      <trkpt lat="64.27562" lon="11.19362">
        <ele>3.198435</ele>
        <time>2020-07-15T21:45:33.279Z</time>
      </trkpt>
      <trkpt lat="64.27667" lon="11.19364">
        <ele>4.139254</ele>
        <time>2020-07-15T21:45:54.448Z</time>
      </trkpt>
      <trkpt lat="64.27684" lon="11.19367">
        <ele>4.296673</ele>
        <time>2020-07-15T21:45:58.055Z</time>
      </trkpt>
      <trkpt lat="64.27693" lon="11.19369">
        <ele>4.376435</ele>
        <time>2020-07-15T21:45:59.965Z</time>
      </trkpt>
      <trkpt lat="64.27734" lon="11.19387">
        <ele>4.764469</ele>
        <time>2020-07-15T21:46:08.882Z</time>
      </trkpt>
      <trkpt lat="64.2775" lon="11.19396">
        <ele>4.984465</ele>
        <time>2020-07-15T21:46:12.411Z</time>
      </trkpt>
      <trkpt lat="64.27804" lon="11.19429">
        <ele>5.734944</ele>
        <time>2020-07-15T21:46:24.738Z</time>
      </trkpt>
      <trkpt lat="64.27937" lon="11.19485">
        <ele>7.329818</ele>
        <time>2020-07-15T21:46:55.418Z</time>
      </trkpt>
      <trkpt lat="64.28057" lon="11.19504">
        <ele>8.059889</ele>
        <time>2020-07-15T21:47:19.318Z</time>
      </trkpt>
      <trkpt lat="64.28073" lon="11.19501">
        <ele>8.157935</ele>
        <time>2020-07-15T21:47:22.314Z</time>
      </trkpt>
      <trkpt lat="64.28145" lon="11.19486">
        <ele>7.650883</ele>
        <time>2020-07-15T21:47:34.291Z</time>
      </trkpt>
      <trkpt lat="64.2831" lon="11.19456">
        <ele>6.193429</ele>
        <time>2020-07-15T21:47:58.711Z</time>
      </trkpt>
      <trkpt lat="64.28383" lon="11.19442">
        <ele>5.811516</ele>
        <time>2020-07-15T21:48:09.953Z</time>
      </trkpt>
      <trkpt lat="64.28475" lon="11.19426">
        <ele>6.203817</ele>
        <time>2020-07-15T21:48:28.323Z</time>
      </trkpt>
      <trkpt lat="64.28534" lon="11.19429">
        <ele>7.649968</ele>
        <time>2020-07-15T21:48:42.515Z</time>
      </trkpt>
      <trkpt lat="64.28562" lon="11.19436">
        <ele>8.332959</ele>
        <time>2020-07-15T21:48:50.194Z</time>
      </trkpt>
      <trkpt lat="64.28585" lon="11.19443">
        <ele>8.903301</ele>
        <time>2020-07-15T21:48:57.383Z</time>
      </trkpt>
      <trkpt lat="64.28694" lon="11.19494">
        <ele>11.641425</ele>
        <time>2020-07-15T21:49:29.993Z</time>
      </trkpt>
      <trkpt lat="64.28708" lon="11.19503">
        <ele>12.006964</ele>
        <time>2020-07-15T21:49:34.453Z</time>
      </trkpt>
      <trkpt lat="64.28716" lon="11.19509">
        <ele>12.197593</ele>
        <time>2020-07-15T21:49:36.899Z</time>
      </trkpt>
      <trkpt lat="64.28858" lon="11.1965">
        <ele>13.917912</ele>
        <time>2020-07-15T21:50:10.470Z</time>
      </trkpt>
      <trkpt lat="64.28902" lon="11.19678">
        <ele>13.655633</ele>
        <time>2020-07-15T21:50:17.341Z</time>
      </trkpt>
      <trkpt lat="64.29065" lon="11.19784">
        <ele>11.058739</ele>
        <time>2020-07-15T21:50:41.133Z</time>
      </trkpt>
      <trkpt lat="64.29309" lon="11.19945">
        <ele>5.483808</ele>
        <time>2020-07-15T21:51:16.192Z</time>
      </trkpt>
      <trkpt lat="64.29355" lon="11.19984">
        <ele>4.951826</ele>
        <time>2020-07-15T21:51:23.345Z</time>
      </trkpt>
      <trkpt lat="64.294" lon="11.20052">
        <ele>4.385866</ele>
        <time>2020-07-15T21:51:31.529Z</time>
      </trkpt>
      <trkpt lat="64.29475" lon="11.20188">
        <ele>3.544561</ele>
        <time>2020-07-15T21:51:47.104Z</time>
      </trkpt>
      <trkpt lat="64.29585" lon="11.204">
        <ele>3.437676</ele>
        <time>2020-07-15T21:52:12.649Z</time>
      </trkpt>
      <trkpt lat="64.2965" lon="11.2054">
        <ele>3.621554</ele>
        <time>2020-07-15T21:52:29.285Z</time>
      </trkpt>
      <trkpt lat="64.29733" lon="11.20719">
        <ele>3.937744</ele>
        <time>2020-07-15T21:52:50.722Z</time>
      </trkpt>
      <trkpt lat="64.29787" lon="11.20836">
        <ele>3.812291</ele>
        <time>2020-07-15T21:53:04.516Z</time>
      </trkpt>
      <trkpt lat="64.29858" lon="11.20987">
        <ele>3.65065</ele>
        <time>2020-07-15T21:53:20.789Z</time>
      </trkpt>
      <trkpt lat="64.299" lon="11.21077">
        <ele>3.174443</ele>
        <time>2020-07-15T21:53:29.901Z</time>
      </trkpt>
      <trkpt lat="64.29908" lon="11.21094">
        <ele>3.073517</ele>
        <time>2020-07-15T21:53:31.638Z</time>
      </trkpt>
      <trkpt lat="64.29932" lon="11.21136">
        <ele>2.799848</ele>
        <time>2020-07-15T21:53:36.298Z</time>
      </trkpt>
      <trkpt lat="64.2994" lon="11.21147">
        <ele>2.712776</ele>
        <time>2020-07-15T21:53:37.765Z</time>
      </trkpt>
      <trkpt lat="64.29943" lon="11.2115">
        <ele>2.687507</ele>
        <time>2020-07-15T21:53:38.124Z</time>
      </trkpt>
      <trkpt lat="64.29983" lon="11.21193">
        <ele>2.284746</ele>
        <time>2020-07-15T21:53:44.901Z</time>
      </trkpt>
      <trkpt lat="64.30106" lon="11.21313">
        <ele>1.307254</ele>
        <time>2020-07-15T21:54:05.738Z</time>
      </trkpt>
      <trkpt lat="64.30126" lon="11.21333">
        <ele>1.161553</ele>
        <time>2020-07-15T21:54:09.272Z</time>
      </trkpt>
      <trkpt lat="64.30131" lon="11.21339">
        <ele>1.120428</ele>
        <time>2020-07-15T21:54:10.269Z</time>
      </trkpt>
      <trkpt lat="64.3014" lon="11.21348">
        <ele>1.055388</ele>
        <time>2020-07-15T21:54:11.857Z</time>
      </trkpt>
      <trkpt lat="64.30147" lon="11.21357">
        <ele>1.002703</ele>
        <time>2020-07-15T21:54:13.150Z</time>
      </trkpt>
      <trkpt lat="64.30169" lon="11.21387">
        <ele>0.828986</ele>
        <time>2020-07-15T21:54:17.444Z</time>
      </trkpt>
      <trkpt lat="64.30174" lon="11.21395">
        <ele>0.786978</ele>
        <time>2020-07-15T21:54:18.502Z</time>
      </trkpt>
      <trkpt lat="64.30187" lon="11.21417">
        <ele>0.91592</ele>
        <time>2020-07-15T21:54:21.235Z</time>
      </trkpt>
      <trkpt lat="64.30271" lon="11.21551">
        <ele>1.752578</ele>
        <time>2020-07-15T21:54:40.692Z</time>
      </trkpt>
      <trkpt lat="64.30328" lon="11.21621">
        <ele>2.349473</ele>
        <time>2020-07-15T21:54:55.093Z</time>
      </trkpt>
      <trkpt lat="64.30498" lon="11.21828">
        <ele>8.787312</ele>
        <time>2020-07-15T21:55:49.016Z</time>
      </trkpt>
      <trkpt lat="64.30512" lon="11.21845">
        <ele>9.729337</ele>
        <time>2020-07-15T21:55:54.347Z</time>
      </trkpt>
      <trkpt lat="64.3063" lon="11.21989">
        <ele>17.63209</ele>
        <time>2020-07-15T21:56:44.300Z</time>
      </trkpt>
      <trkpt lat="64.30727" lon="11.22106">
        <ele>26.267889</ele>
        <time>2020-07-15T21:57:32.634Z</time>
      </trkpt>
      <trkpt lat="64.30741" lon="11.22123">
        <ele>27.595256</ele>
        <time>2020-07-15T21:57:40.344Z</time>
      </trkpt>
      <trkpt lat="64.30839" lon="11.22242">
        <ele>35.617624</ele>
        <time>2020-07-15T21:58:30.616Z</time>
      </trkpt>
      <trkpt lat="64.30878" lon="11.2229">
        <ele>38.009421</ele>
        <time>2020-07-15T21:58:48.397Z</time>
      </trkpt>
      <trkpt lat="64.30968" lon="11.22399">
        <ele>43.049068</ele>
        <time>2020-07-15T21:59:20.471Z</time>
      </trkpt>
      <trkpt lat="64.30984" lon="11.22418">
        <ele>42.701922</ele>
        <time>2020-07-15T21:59:24.613Z</time>
      </trkpt>
      <trkpt lat="64.31083" lon="11.22537">
        <ele>40.560403</ele>
        <time>2020-07-15T21:59:40.094Z</time>
      </trkpt>
      <trkpt lat="64.31109" lon="11.22569">
        <ele>39.98351</ele>
        <time>2020-07-15T21:59:43.771Z</time>
      </trkpt>
      <trkpt lat="64.31188" lon="11.22665">
        <ele>35.424828</ele>
        <time>2020-07-15T21:59:54.320Z</time>
      </trkpt>
      <trkpt lat="64.31244" lon="11.22753">
        <ele>31.584848</ele>
        <time>2020-07-15T22:00:02.156Z</time>
      </trkpt>
      <trkpt lat="64.31283" lon="11.22856">
        <ele>28.599361</ele>
        <time>2020-07-15T22:00:09.275Z</time>
      </trkpt>
      <trkpt lat="64.31363" lon="11.23131">
        <ele>23.067802</ele>
        <time>2020-07-15T22:00:28.033Z</time>
      </trkpt>
      <trkpt lat="64.31415" lon="11.23306">
        <ele>19.139224</ele>
        <time>2020-07-15T22:00:39.466Z</time>
      </trkpt>
      <trkpt lat="64.31444" lon="11.23388">
        <ele>17.116903</ele>
        <time>2020-07-15T22:00:45.270Z</time>
      </trkpt>
      <trkpt lat="64.31451" lon="11.23404">
        <ele>16.692411</ele>
        <time>2020-07-15T22:00:46.501Z</time>
      </trkpt>
      <trkpt lat="64.31459" lon="11.23422">
        <ele>16.21317</ele>
        <time>2020-07-15T22:00:47.752Z</time>
      </trkpt>
      <trkpt lat="64.31528" lon="11.23551">
        <ele>13.175006</ele>
        <time>2020-07-15T22:00:58.603Z</time>
      </trkpt>
      <trkpt lat="64.31621" lon="11.2367">
        <ele>10.168351</ele>
        <time>2020-07-15T22:01:12.431Z</time>
      </trkpt>
      <trkpt lat="64.31872" lon="11.23879">
        <ele>14.841927</ele>
        <time>2020-07-15T22:02:18.821Z</time>
      </trkpt>
      <trkpt lat="64.31941" lon="11.23911">
        <ele>16.921376</ele>
        <time>2020-07-15T22:02:39.212Z</time>
      </trkpt>
      <trkpt lat="64.31963" lon="11.23914">
        <ele>17.590443</ele>
        <time>2020-07-15T22:02:45.962Z</time>
      </trkpt>
      <trkpt lat="64.3202" lon="11.23914">
        <ele>19.24921</ele>
        <time>2020-07-15T22:03:01.929Z</time>
      </trkpt>
      <trkpt lat="64.32056" lon="11.23922">
        <ele>20.26433</ele>
        <time>2020-07-15T22:03:12.249Z</time>
      </trkpt>
      <trkpt lat="64.32091" lon="11.23943">
        <ele>21.290186</ele>
        <time>2020-07-15T22:03:22.566Z</time>
      </trkpt>
      <trkpt lat="64.3215" lon="11.24017">
        <ele>23.198421</ele>
        <time>2020-07-15T22:03:40.390Z</time>
      </trkpt>
      <trkpt lat="64.32181" lon="11.24072">
        <ele>23.217986</ele>
        <time>2020-07-15T22:03:48.787Z</time>
      </trkpt>
      <trkpt lat="64.32241" lon="11.24182">
        <ele>23.045443</ele>
        <time>2020-07-15T22:04:02.445Z</time>
      </trkpt>
      <trkpt lat="64.32259" lon="11.24211">
        <ele>22.997297</ele>
        <time>2020-07-15T22:04:06.441Z</time>
      </trkpt>
      <trkpt lat="64.3227" lon="11.24229">
        <ele>22.966893</ele>
        <time>2020-07-15T22:04:08.215Z</time>
      </trkpt>
      <trkpt lat="64.323" lon="11.24267">
        <ele>22.844434</ele>
        <time>2020-07-15T22:04:13.224Z</time>
      </trkpt>
      <trkpt lat="64.32391" lon="11.24347">
        <ele>20.619117</ele>
        <time>2020-07-15T22:04:26.151Z</time>
      </trkpt>
      <trkpt lat="64.32444" lon="11.24427">
        <ele>19.169108</ele>
        <time>2020-07-15T22:04:34.735Z</time>
      </trkpt>
      <trkpt lat="64.3248" lon="11.24488">
        <ele>18.767764</ele>
        <time>2020-07-15T22:04:41.747Z</time>
      </trkpt>
      <trkpt lat="64.32486" lon="11.24489">
        <ele>18.762874</ele>
        <time>2020-07-15T22:04:43.039Z</time>
      </trkpt>
      <trkpt lat="64.32502" lon="11.24503">
        <ele>18.749598</ele>
        <time>2020-07-15T22:04:45.485Z</time>
      </trkpt>
      <trkpt lat="64.32546" lon="11.24578">
        <ele>18.706354</ele>
        <time>2020-07-15T22:04:55.899Z</time>
      </trkpt>
      <trkpt lat="64.32565" lon="11.24634">
        <ele>18.681722</ele>
        <time>2020-07-15T22:05:01.661Z</time>
      </trkpt>
      <trkpt lat="64.32575" lon="11.2469">
        <ele>18.660621</ele>
        <time>2020-07-15T22:05:06.452Z</time>
      </trkpt>
      <trkpt lat="64.32574" lon="11.24706">
        <ele>18.655188</ele>
        <time>2020-07-15T22:05:08.533Z</time>
      </trkpt>
      <trkpt lat="64.32592" lon="11.24751">
        <ele>18.634134</ele>
        <time>2020-07-15T22:05:13.632Z</time>
      </trkpt>
      <trkpt lat="64.32632" lon="11.24828">
        <ele>18.59231</ele>
        <time>2020-07-15T22:05:24.324Z</time>
      </trkpt>
      <trkpt lat="64.3268" lon="11.24879">
        <ele>18.550457</ele>
        <time>2020-07-15T22:05:33.190Z</time>
      </trkpt>
      <trkpt lat="64.32917" lon="11.25026">
        <ele>17.326317</ele>
        <time>2020-07-15T22:06:12.046Z</time>
      </trkpt>
      <trkpt lat="64.33249" lon="11.25078">
        <ele>20.92386</ele>
        <time>2020-07-15T22:07:16.993Z</time>
      </trkpt>
      <trkpt lat="64.33362" lon="11.25076">
        <ele>30.550182</ele>
        <time>2020-07-15T22:08:05.303Z</time>
      </trkpt>
      <trkpt lat="64.33373" lon="11.25078">
        <ele>31.719678</ele>
        <time>2020-07-15T22:08:12.285Z</time>
      </trkpt>
      <trkpt lat="64.3339" lon="11.25085">
        <ele>33.437884</ele>
        <time>2020-07-15T22:08:23.063Z</time>
      </trkpt>
      <trkpt lat="64.33442" lon="11.25132">
        <ele>39.008506</ele>
        <time>2020-07-15T22:08:56.573Z</time>
      </trkpt>
      <trkpt lat="64.33479" lon="11.25206">
        <ele>43.683968</ele>
        <time>2020-07-15T22:09:26.415Z</time>
      </trkpt>
      <trkpt lat="64.33491" lon="11.2524">
        <ele>45.479846</ele>
        <time>2020-07-15T22:09:37.979Z</time>
      </trkpt>
      <trkpt lat="64.33503" lon="11.25277">
        <ele>47.416374</ele>
        <time>2020-07-15T22:09:50.561Z</time>
      </trkpt>
      <trkpt lat="64.33633" lon="11.25685">
        <ele>61.061202</ele>
        <time>2020-07-15T22:11:11.550Z</time>
      </trkpt>
      <trkpt lat="64.33661" lon="11.25733">
        <ele>62.349047</ele>
        <time>2020-07-15T22:11:17.887Z</time>
      </trkpt>
      <trkpt lat="64.33731" lon="11.25808">
        <ele>61.226161</ele>
        <time>2020-07-15T22:11:29.417Z</time>
      </trkpt>
      <trkpt lat="64.3375" lon="11.25847">
        <ele>60.349655</ele>
        <time>2020-07-15T22:11:32.802Z</time>
      </trkpt>
      <trkpt lat="64.33765" lon="11.25904">
        <ele>59.354059</ele>
        <time>2020-07-15T22:11:36.420Z</time>
      </trkpt>
      <trkpt lat="64.33798" lon="11.26087">
        <ele>55.981008</ele>
        <time>2020-07-15T22:11:46.713Z</time>
      </trkpt>
      <trkpt lat="64.33813" lon="11.26167">
        <ele>53.723881</ele>
        <time>2020-07-15T22:11:51.126Z</time>
      </trkpt>
      <trkpt lat="64.3383" lon="11.26252">
        <ele>51.282844</ele>
        <time>2020-07-15T22:11:55.849Z</time>
      </trkpt>
      <trkpt lat="64.33896" lon="11.26608">
        <ele>42.131288</ele>
        <time>2020-07-15T22:12:15.625Z</time>
      </trkpt>
      <trkpt lat="64.33908" lon="11.26679">
        <ele>40.501916</ele>
        <time>2020-07-15T22:12:19.774Z</time>
      </trkpt>
      <trkpt lat="64.33912" lon="11.26704">
        <ele>39.930324</ele>
        <time>2020-07-15T22:12:21.252Z</time>
      </trkpt>
      <trkpt lat="64.33914" lon="11.2672">
        <ele>39.588898</ele>
        <time>2020-07-15T22:12:22.113Z</time>
      </trkpt>
      <trkpt lat="64.33917" lon="11.26744">
        <ele>39.066757</ele>
        <time>2020-07-15T22:12:23.393Z</time>
      </trkpt>
      <trkpt lat="64.33935" lon="11.26997">
        <ele>34.914218</ele>
        <time>2020-07-15T22:12:37.603Z</time>
      </trkpt>
      <trkpt lat="64.3394" lon="11.2704">
        <ele>34.307759</ele>
        <time>2020-07-15T22:12:40.132Z</time>
      </trkpt>
      <trkpt lat="64.33944" lon="11.27089">
        <ele>33.613619</ele>
        <time>2020-07-15T22:12:42.913Z</time>
      </trkpt>
      <trkpt lat="64.33995" lon="11.27443">
        <ele>30.62086</ele>
        <time>2020-07-15T22:13:05.112Z</time>
      </trkpt>
      <trkpt lat="64.34001" lon="11.27481">
        <ele>30.448685</ele>
        <time>2020-07-15T22:13:07.760Z</time>
      </trkpt>
      <trkpt lat="64.34005" lon="11.27511">
        <ele>30.309305</ele>
        <time>2020-07-15T22:13:10.460Z</time>
      </trkpt>
      <trkpt lat="64.34012" lon="11.27632">
        <ele>29.885736</ele>
        <time>2020-07-15T22:13:20.331Z</time>
      </trkpt>
      <trkpt lat="64.33991" lon="11.28049">
        <ele>35.009795</ele>
        <time>2020-07-15T22:14:10.376Z</time>
      </trkpt>
      <trkpt lat="64.33989" lon="11.28111">
        <ele>36.060347</ele>
        <time>2020-07-15T22:14:19.286Z</time>
      </trkpt>
      <trkpt lat="64.33987" lon="11.2819">
        <ele>37.392444</ele>
        <time>2020-07-15T22:14:29.812Z</time>
      </trkpt>
      <trkpt lat="64.33987" lon="11.28207">
        <ele>37.679234</ele>
        <time>2020-07-15T22:14:31.616Z</time>
      </trkpt>
      <trkpt lat="64.33988" lon="11.28227">
        <ele>38.000121</ele>
        <time>2020-07-15T22:14:34.151Z</time>
      </trkpt>
      <trkpt lat="64.33989" lon="11.28256">
        <ele>38.50636</ele>
        <time>2020-07-15T22:14:38.513Z</time>
      </trkpt>
      <trkpt lat="64.33994" lon="11.28302">
        <ele>39.287344</ele>
        <time>2020-07-15T22:14:44.116Z</time>
      </trkpt>
      <trkpt lat="64.33997" lon="11.28327">
        <ele>39.732344</ele>
        <time>2020-07-15T22:14:47.949Z</time>
      </trkpt>
      <trkpt lat="64.34002" lon="11.28352">
        <ele>40.181722</ele>
        <time>2020-07-15T22:14:51.650Z</time>
      </trkpt>
      <trkpt lat="64.34017" lon="11.28413">
        <ele>41.3581</ele>
        <time>2020-07-15T22:15:00.993Z</time>
      </trkpt>
      <trkpt lat="64.34048" lon="11.28495">
        <ele>43.252036</ele>
        <time>2020-07-15T22:15:14.708Z</time>
      </trkpt>
      <trkpt lat="64.34085" lon="11.28578">
        <ele>45.374507</ele>
        <time>2020-07-15T22:15:31.358Z</time>
      </trkpt>
      <trkpt lat="64.34141" lon="11.28704">
        <ele>48.554915</ele>
        <time>2020-07-15T22:15:55.523Z</time>
      </trkpt>
      <trkpt lat="64.34163" lon="11.28754">
        <ele>49.683792</ele>
        <time>2020-07-15T22:16:05.141Z</time>
      </trkpt>
      <trkpt lat="64.34182" lon="11.28794">
        <ele>50.523144</ele>
        <time>2020-07-15T22:16:13.213Z</time>
      </trkpt>
      <trkpt lat="64.3423" lon="11.2887">
        <ele>52.472302</ele>
        <time>2020-07-15T22:16:30.894Z</time>
      </trkpt>
      <trkpt lat="64.34263" lon="11.289">
        <ele>53.644627</ele>
        <time>2020-07-15T22:16:40.913Z</time>
      </trkpt>
      <trkpt lat="64.34302" lon="11.28918">
        <ele>54.981648</ele>
        <time>2020-07-15T22:16:51.489Z</time>
      </trkpt>
      <trkpt lat="64.34365" lon="11.2892">
        <ele>55.467417</ele>
        <time>2020-07-15T22:17:05.141Z</time>
      </trkpt>
      <trkpt lat="64.34586" lon="11.2889">
        <ele>56.160248</ele>
        <time>2020-07-15T22:17:44.659Z</time>
      </trkpt>
      <trkpt lat="64.34605" lon="11.28889">
        <ele>56.152953</ele>
        <time>2020-07-15T22:17:47.727Z</time>
      </trkpt>
      <trkpt lat="64.3463" lon="11.2889">
        <ele>56.143096</ele>
        <time>2020-07-15T22:17:52.177Z</time>
      </trkpt>
      <trkpt lat="64.34693" lon="11.28917">
        <ele>56.169258</ele>
        <time>2020-07-15T22:18:03.543Z</time>
      </trkpt>
      <trkpt lat="64.34854" lon="11.2907">
        <ele>56.868444</ele>
        <time>2020-07-15T22:18:35.452Z</time>
      </trkpt>
      <trkpt lat="64.3491" lon="11.29145">
        <ele>58.274978</ele>
        <time>2020-07-15T22:18:47.797Z</time>
      </trkpt>
      <trkpt lat="64.35036" lon="11.29358">
        <ele>63.356894</ele>
        <time>2020-07-15T22:19:35.423Z</time>
      </trkpt>
      <trkpt lat="64.35045" lon="11.29373">
        <ele>63.915348</ele>
        <time>2020-07-15T22:19:38.839Z</time>
      </trkpt>
      <trkpt lat="64.35065" lon="11.294">
        <ele>65.025628</ele>
        <time>2020-07-15T22:19:47.894Z</time>
      </trkpt>
      <trkpt lat="64.35123" lon="11.29449">
        <ele>67.994574</ele>
        <time>2020-07-15T22:20:10.750Z</time>
      </trkpt>
      <trkpt lat="64.35277" lon="11.29513">
        <ele>72.369816</ele>
        <time>2020-07-15T22:20:58.444Z</time>
      </trkpt>
      <trkpt lat="64.35377" lon="11.2958">
        <ele>71.236437</ele>
        <time>2020-07-15T22:21:13.409Z</time>
      </trkpt>
      <trkpt lat="64.35591" lon="11.29689">
        <ele>62.952234</ele>
        <time>2020-07-15T22:21:40.024Z</time>
      </trkpt>
      <trkpt lat="64.35609" lon="11.29704">
        <ele>62.186451</ele>
        <time>2020-07-15T22:21:42.415Z</time>
      </trkpt>
      <trkpt lat="64.35612" lon="11.29706">
        <ele>62.054671</ele>
        <time>2020-07-15T22:21:42.941Z</time>
      </trkpt>
      <trkpt lat="64.35674" lon="11.29781">
        <ele>59.491089</ele>
        <time>2020-07-15T22:21:52.387Z</time>
      </trkpt>
      <trkpt lat="64.35719" lon="11.29864">
        <ele>58.235359</ele>
        <time>2020-07-15T22:22:00.543Z</time>
      </trkpt>
      <trkpt lat="64.35729" lon="11.29886">
        <ele>57.935916</ele>
        <time>2020-07-15T22:22:02.450Z</time>
      </trkpt>
      <trkpt lat="64.35738" lon="11.29909">
        <ele>57.640867</ele>
        <time>2020-07-15T22:22:04.616Z</time>
      </trkpt>
      <trkpt lat="64.35747" lon="11.29933">
        <ele>57.338854</ele>
        <time>2020-07-15T22:22:06.696Z</time>
      </trkpt>
      <trkpt lat="64.35757" lon="11.29962">
        <ele>56.993509</ele>
        <time>2020-07-15T22:22:09.120Z</time>
      </trkpt>
      <trkpt lat="64.35774" lon="11.30019">
        <ele>56.343257</ele>
        <time>2020-07-15T22:22:13.451Z</time>
      </trkpt>
      <trkpt lat="64.35887" lon="11.30422">
        <ele>49.440661</ele>
        <time>2020-07-15T22:22:40.247Z</time>
      </trkpt>
      <trkpt lat="64.35956" lon="11.30668">
        <ele>44.667435</ele>
        <time>2020-07-15T22:22:56.079Z</time>
      </trkpt>
      <trkpt lat="64.35974" lon="11.30731">
        <ele>43.450288</ele>
        <time>2020-07-15T22:23:00.261Z</time>
      </trkpt>
      <trkpt lat="64.35982" lon="11.30761">
        <ele>42.873096</ele>
        <time>2020-07-15T22:23:02.298Z</time>
      </trkpt>
      <trkpt lat="64.36" lon="11.30826">
        <ele>42.376648</ele>
        <time>2020-07-15T22:23:06.767Z</time>
      </trkpt>
      <trkpt lat="64.36045" lon="11.30983">
        <ele>41.157924</ele>
        <time>2020-07-15T22:23:18.696Z</time>
      </trkpt>
      <trkpt lat="64.36083" lon="11.31097">
        <ele>40.222442</ele>
        <time>2020-07-15T22:23:29.063Z</time>
      </trkpt>
      <trkpt lat="64.36125" lon="11.31194">
        <ele>39.998222</ele>
        <time>2020-07-15T22:23:39.451Z</time>
      </trkpt>
      <trkpt lat="64.36141" lon="11.31227">
        <ele>39.925629</ele>
        <time>2020-07-15T22:23:43.308Z</time>
      </trkpt>
      <trkpt lat="64.36147" lon="11.31238">
        <ele>39.901558</ele>
        <time>2020-07-15T22:23:44.578Z</time>
      </trkpt>
      <trkpt lat="64.36175" lon="11.31287">
        <ele>39.78322</ele>
        <time>2020-07-15T22:23:50.901Z</time>
      </trkpt>
      <trkpt lat="64.36233" lon="11.31384">
        <ele>39.271262</ele>
        <time>2020-07-15T22:24:03.127Z</time>
      </trkpt>
      <trkpt lat="64.36327" lon="11.31539">
        <ele>36.451778</ele>
        <time>2020-07-15T22:24:19.704Z</time>
      </trkpt>
      <trkpt lat="64.36492" lon="11.31813">
        <ele>27.805866</ele>
        <time>2020-07-15T22:24:44.580Z</time>
      </trkpt>
      <trkpt lat="64.36511" lon="11.31845">
        <ele>26.703891</ele>
        <time>2020-07-15T22:24:47.256Z</time>
      </trkpt>
      <trkpt lat="64.36545" lon="11.31927">
        <ele>24.587043</ele>
        <time>2020-07-15T22:24:53.202Z</time>
      </trkpt>
      <trkpt lat="64.36572" lon="11.32043">
        <ele>22.166298</ele>
        <time>2020-07-15T22:25:00.211Z</time>
      </trkpt>
      <trkpt lat="64.36577" lon="11.32083">
        <ele>21.412666</ele>
        <time>2020-07-15T22:25:02.425Z</time>
      </trkpt>
      <trkpt lat="64.36603" lon="11.32347">
        <ele>17.717859</ele>
        <time>2020-07-15T22:25:18.021Z</time>
      </trkpt>
      <trkpt lat="64.36609" lon="11.32415">
        <ele>17.120809</ele>
        <time>2020-07-15T22:25:22.139Z</time>
      </trkpt>
      <trkpt lat="64.36613" lon="11.32474">
        <ele>16.606696</ele>
        <time>2020-07-15T22:25:25.952Z</time>
      </trkpt>
      <trkpt lat="64.36616" lon="11.32562">
        <ele>15.849804</ele>
        <time>2020-07-15T22:25:31.647Z</time>
      </trkpt>
      <trkpt lat="64.36616" lon="11.32592">
        <ele>15.590675</ele>
        <time>2020-07-15T22:25:33.605Z</time>
      </trkpt>
      <trkpt lat="64.36615" lon="11.32625">
        <ele>15.3113</ele>
        <time>2020-07-15T22:25:35.789Z</time>
      </trkpt>
      <trkpt lat="64.36615" lon="11.32628">
        <ele>15.28368</ele>
        <time>2020-07-15T22:25:35.970Z</time>
      </trkpt>
      <trkpt lat="64.36611" lon="11.32705">
        <ele>15.197057</ele>
        <time>2020-07-15T22:25:41.171Z</time>
      </trkpt>
      <trkpt lat="64.36604" lon="11.32784">
        <ele>15.122439</ele>
        <time>2020-07-15T22:25:46.666Z</time>
      </trkpt>
      <trkpt lat="64.366" lon="11.32822">
        <ele>15.084978</ele>
        <time>2020-07-15T22:25:49.714Z</time>
      </trkpt>
      <trkpt lat="64.36581" lon="11.32937">
        <ele>14.971364</ele>
        <time>2020-07-15T22:25:59.127Z</time>
      </trkpt>
      <trkpt lat="64.3655" lon="11.33069">
        <ele>15.1941</ele>
        <time>2020-07-15T22:26:11.822Z</time>
      </trkpt>
      <trkpt lat="64.36541" lon="11.33102">
        <ele>15.422848</ele>
        <time>2020-07-15T22:26:15.095Z</time>
      </trkpt>
      <trkpt lat="64.36539" lon="11.33108">
        <ele>15.466266</ele>
        <time>2020-07-15T22:26:16.013Z</time>
      </trkpt>
      <trkpt lat="64.36429" lon="11.33502">
        <ele>19.2927</ele>
        <time>2020-07-15T22:27:02.968Z</time>
      </trkpt>
      <trkpt lat="64.36415" lon="11.33614">
        <ele>20.769001</ele>
        <time>2020-07-15T22:27:15.981Z</time>
      </trkpt>
      <trkpt lat="64.36414" lon="11.33729">
        <ele>22.236599</ele>
        <time>2020-07-15T22:27:29.580Z</time>
      </trkpt>
      <trkpt lat="64.36419" lon="11.34058">
        <ele>31.944243</ele>
        <time>2020-07-15T22:28:25.389Z</time>
      </trkpt>
      <trkpt lat="64.3642" lon="11.34102">
        <ele>33.315045</ele>
        <time>2020-07-15T22:28:34.949Z</time>
      </trkpt>
      <trkpt lat="64.36427" lon="11.34214">
        <ele>36.709407</ele>
        <time>2020-07-15T22:28:57.735Z</time>
      </trkpt>
      <trkpt lat="64.36439" lon="11.34319">
        <ele>39.708808</ele>
        <time>2020-07-15T22:29:22.510Z</time>
      </trkpt>
      <trkpt lat="64.3648" lon="11.34503">
        <ele>45.461624</ele>
        <time>2020-07-15T22:29:57.900Z</time>
      </trkpt>
      <trkpt lat="64.36504" lon="11.34579">
        <ele>46.251738</ele>
        <time>2020-07-15T22:30:06.817Z</time>
      </trkpt>
      <trkpt lat="64.36529" lon="11.34655">
        <ele>43.652001</ele>
        <time>2020-07-15T22:30:12.607Z</time>
      </trkpt>
      <trkpt lat="64.36544" lon="11.34696">
        <ele>42.240544</ele>
        <time>2020-07-15T22:30:15.406Z</time>
      </trkpt>
      <trkpt lat="64.3671" lon="11.35146">
        <ele>21.171287</ele>
        <time>2020-07-15T22:30:43.145Z</time>
      </trkpt>
      <trkpt lat="64.36767" lon="11.35301">
        <ele>16.224528</ele>
        <time>2020-07-15T22:30:53.548Z</time>
      </trkpt>
      <trkpt lat="64.36898" lon="11.35657">
        <ele>9.998065</ele>
        <time>2020-07-15T22:31:21.428Z</time>
      </trkpt>
      <trkpt lat="64.37013" lon="11.35977">
        <ele>7.468169</ele>
        <time>2020-07-15T22:31:48.077Z</time>
      </trkpt>
      <trkpt lat="64.37114" lon="11.36241">
        <ele>6.195512</ele>
        <time>2020-07-15T22:32:13.542Z</time>
      </trkpt>
      <trkpt lat="64.3715" lon="11.36339">
        <ele>5.783958</ele>
        <time>2020-07-15T22:32:22.661Z</time>
      </trkpt>
      <trkpt lat="64.37206" lon="11.36493">
        <ele>4.97473</ele>
        <time>2020-07-15T22:32:36.011Z</time>
      </trkpt>
      <trkpt lat="64.37247" lon="11.36602">
        <ele>4.025105</ele>
        <time>2020-07-15T22:32:45.260Z</time>
      </trkpt>
      <trkpt lat="64.37299" lon="11.36741">
        <ele>2.830043</ele>
        <time>2020-07-15T22:32:56.509Z</time>
      </trkpt>
      <trkpt lat="64.37402" lon="11.37012">
        <ele>1.05192</ele>
        <time>2020-07-15T22:33:19.955Z</time>
      </trkpt>
      <trkpt lat="64.37523" lon="11.3724">
        <ele>0.241054</ele>
        <time>2020-07-15T22:33:46.168Z</time>
      </trkpt>
      <trkpt lat="64.37535" lon="11.37268">
        <ele>0.188294</ele>
        <time>2020-07-15T22:33:49.119Z</time>
      </trkpt>
      <trkpt lat="64.37554" lon="11.37316">
        <ele>0.098398</ele>
        <time>2020-07-15T22:33:54.176Z</time>
      </trkpt>
      <trkpt lat="64.37632" lon="11.37511">
        <ele>0.119514</ele>
        <time>2020-07-15T22:34:14.482Z</time>
      </trkpt>
      <trkpt lat="64.37696" lon="11.37602">
        <ele>0.183963</ele>
        <time>2020-07-15T22:34:28.319Z</time>
      </trkpt>
      <trkpt lat="64.37709" lon="11.37614">
        <ele>0.20692</ele>
        <time>2020-07-15T22:34:30.969Z</time>
      </trkpt>
      <trkpt lat="64.37707" lon="11.37626">
        <ele>0.223644</ele>
        <time>2020-07-15T22:34:31.942Z</time>
      </trkpt>
      <trkpt lat="64.37754" lon="11.3768">
        <ele>0.393708</ele>
        <time>2020-07-15T22:34:41.955Z</time>
      </trkpt>
      <trkpt lat="64.37795" lon="11.37711">
        <ele>0.530541</ele>
        <time>2020-07-15T22:34:50.033Z</time>
      </trkpt>
      <trkpt lat="64.37835" lon="11.3772">
        <ele>0.660036</ele>
        <time>2020-07-15T22:34:57.679Z</time>
      </trkpt>
      <trkpt lat="64.37883" lon="11.3771">
        <ele>0.777557</ele>
        <time>2020-07-15T22:35:06.854Z</time>
      </trkpt>
      <trkpt lat="64.37906" lon="11.37719">
        <ele>0.789545</ele>
        <time>2020-07-15T22:35:11.282Z</time>
      </trkpt>
      <trkpt lat="64.37935" lon="11.37754">
        <ele>0.80631</ele>
        <time>2020-07-15T22:35:17.363Z</time>
      </trkpt>
      <trkpt lat="64.37965" lon="11.37815">
        <ele>0.826633</ele>
        <time>2020-07-15T22:35:24.521Z</time>
      </trkpt>
      <trkpt lat="64.37977" lon="11.37895">
        <ele>0.845411</ele>
        <time>2020-07-15T22:35:30.901Z</time>
      </trkpt>
      <trkpt lat="64.37974" lon="11.37975">
        <ele>0.860382</ele>
        <time>2020-07-15T22:35:36.814Z</time>
      </trkpt>
      <trkpt lat="64.37961" lon="11.38034">
        <ele>0.826418</ele>
        <time>2020-07-15T22:35:41.671Z</time>
      </trkpt>
      <trkpt lat="64.37927" lon="11.38125">
        <ele>0.76458</ele>
        <time>2020-07-15T22:35:50.499Z</time>
      </trkpt>
      <trkpt lat="64.37922" lon="11.38165">
        <ele>0.742842</ele>
        <time>2020-07-15T22:35:53.674Z</time>
      </trkpt>
      <trkpt lat="64.37925" lon="11.38207">
        <ele>0.720932</ele>
        <time>2020-07-15T22:35:56.818Z</time>
      </trkpt>
      <trkpt lat="64.37942" lon="11.38272">
        <ele>0.681236</ele>
        <time>2020-07-15T22:36:02.623Z</time>
      </trkpt>
      <trkpt lat="64.37944" lon="11.38284">
        <ele>0.674778</ele>
        <time>2020-07-15T22:36:03.545Z</time>
      </trkpt>
      <trkpt lat="64.37945" lon="11.38296">
        <ele>0.668369</ele>
        <time>2020-07-15T22:36:04.560Z</time>
      </trkpt>
      <trkpt lat="64.37944" lon="11.38333">
        <ele>0.649087</ele>
        <time>2020-07-15T22:36:07.376Z</time>
      </trkpt>
      <trkpt lat="64.37929" lon="11.38424">
        <ele>0.88298</ele>
        <time>2020-07-15T22:36:15.373Z</time>
      </trkpt>
      <trkpt lat="64.37911" lon="11.38593">
        <ele>1.318162</ele>
        <time>2020-07-15T22:36:30.527Z</time>
      </trkpt>
      <trkpt lat="64.37908" lon="11.38622">
        <ele>1.393334</ele>
        <time>2020-07-15T22:36:33.081Z</time>
      </trkpt>
      <trkpt lat="64.37899" lon="11.38703">
        <ele>1.600935</ele>
        <time>2020-07-15T22:36:40.520Z</time>
      </trkpt>
      <trkpt lat="64.379" lon="11.3871">
        <ele>1.617943</ele>
        <time>2020-07-15T22:36:41.105Z</time>
      </trkpt>
      <trkpt lat="64.379" lon="11.38713">
        <ele>1.625765</ele>
        <time>2020-07-15T22:36:41.806Z</time>
      </trkpt>
      <trkpt lat="64.37906" lon="11.38738">
        <ele>1.691051</ele>
        <time>2020-07-15T22:36:44.279Z</time>
      </trkpt>
      <trkpt lat="64.37916" lon="11.38748">
        <ele>1.716082</ele>
        <time>2020-07-15T22:36:46.347Z</time>
      </trkpt>
      <trkpt lat="64.38011" lon="11.38742">
        <ele>1.938399</ele>
        <time>2020-07-15T22:37:05.025Z</time>
      </trkpt>
      <trkpt lat="64.38048" lon="11.38762">
        <ele>2.026736</ele>
        <time>2020-07-15T22:37:11.716Z</time>
      </trkpt>
      <trkpt lat="64.3806" lon="11.38796">
        <ele>2.071217</ele>
        <time>2020-07-15T22:37:14.861Z</time>
      </trkpt>
      <trkpt lat="64.38078" lon="11.3895">
        <ele>1.763315</ele>
        <time>2020-07-15T22:37:26.140Z</time>
      </trkpt>
      <trkpt lat="64.38079" lon="11.38959">
        <ele>1.736802</ele>
        <time>2020-07-15T22:37:26.659Z</time>
      </trkpt>
      <trkpt lat="64.38079" lon="11.38964">
        <ele>1.724732</ele>
        <time>2020-07-15T22:37:26.909Z</time>
      </trkpt>
      <trkpt lat="64.38053" lon="11.39163">
        <ele>1.153482</ele>
        <time>2020-07-15T22:37:41.587Z</time>
      </trkpt>
      <trkpt lat="64.38054" lon="11.39218">
        <ele>1.003745</ele>
        <time>2020-07-15T22:37:45.303Z</time>
      </trkpt>
      <trkpt lat="64.38056" lon="11.39231">
        <ele>0.965884</ele>
        <time>2020-07-15T22:37:46.415Z</time>
      </trkpt>
      <trkpt lat="64.3806" lon="11.39251">
        <ele>0.944976</ele>
        <time>2020-07-15T22:37:48.316Z</time>
      </trkpt>
      <trkpt lat="64.38081" lon="11.39296">
        <ele>0.88326</ele>
        <time>2020-07-15T22:37:52.856Z</time>
      </trkpt>
      <trkpt lat="64.38166" lon="11.39377">
        <ele>0.687326</ele>
        <time>2020-07-15T22:38:08.765Z</time>
      </trkpt>
      <trkpt lat="64.38175" lon="11.39372">
        <ele>0.667869</ele>
        <time>2020-07-15T22:38:10.331Z</time>
      </trkpt>
      <trkpt lat="64.38182" lon="11.39357">
        <ele>0.64708</ele>
        <time>2020-07-15T22:38:12.267Z</time>
      </trkpt>
      <trkpt lat="64.38191" lon="11.39381">
        <ele>0.617545</ele>
        <time>2020-07-15T22:38:14.511Z</time>
      </trkpt>
      <trkpt lat="64.38233" lon="11.39479">
        <ele>0.517832</ele>
        <time>2020-07-15T22:38:25.301Z</time>
      </trkpt>
      <trkpt lat="64.38261" lon="11.39539">
        <ele>0.461771</ele>
        <time>2020-07-15T22:38:32.010Z</time>
      </trkpt>
      <trkpt lat="64.38257" lon="11.39548">
        <ele>0.453928</ele>
        <time>2020-07-15T22:38:33.108Z</time>
      </trkpt>
      <trkpt lat="64.38256" lon="11.39555">
        <ele>0.448863</ele>
        <time>2020-07-15T22:38:33.841Z</time>
      </trkpt>
      <trkpt lat="64.3826" lon="11.39564">
        <ele>0.440575</ele>
        <time>2020-07-15T22:38:35.456Z</time>
      </trkpt>
      <trkpt lat="64.38293" lon="11.39649">
        <ele>0.367438</ele>
        <time>2020-07-15T22:38:49.777Z</time>
      </trkpt>
      <trkpt lat="64.38299" lon="11.39663">
        <ele>0.354094</ele>
        <time>2020-07-15T22:38:52.416Z</time>
      </trkpt>
      <trkpt lat="64.38351" lon="11.39782">
        <ele>0.337752</ele>
        <time>2020-07-15T22:39:13.600Z</time>
      </trkpt>
      <trkpt lat="64.38353" lon="11.39787">
        <ele>0.339391</ele>
        <time>2020-07-15T22:39:14.502Z</time>
      </trkpt>
      <trkpt lat="64.38385" lon="11.39862">
        <ele>0.362215</ele>
        <time>2020-07-15T22:39:28.280Z</time>
      </trkpt>
      <trkpt lat="64.38388" lon="11.3987">
        <ele>0.364683</ele>
        <time>2020-07-15T22:39:29.777Z</time>
      </trkpt>
      <trkpt lat="64.38413" lon="11.39894">
        <ele>0.377998</ele>
        <time>2020-07-15T22:39:37.759Z</time>
      </trkpt>
      <trkpt lat="64.38438" lon="11.39907">
        <ele>0.391146</ele>
        <time>2020-07-15T22:39:45.726Z</time>
      </trkpt>
      <trkpt lat="64.3844" lon="11.39892">
        <ele>0.394613</ele>
        <time>2020-07-15T22:39:46.973Z</time>
      </trkpt>
      <trkpt lat="64.38449" lon="11.39898">
        <ele>0.399431</ele>
        <time>2020-07-15T22:39:48.783Z</time>
      </trkpt>
      <trkpt lat="64.38463" lon="11.39904">
        <ele>0.411287</ele>
        <time>2020-07-15T22:39:51.312Z</time>
      </trkpt>
      <trkpt lat="64.38481" lon="11.3991">
        <ele>0.458656</ele>
        <time>2020-07-15T22:39:54.599Z</time>
      </trkpt>
      <trkpt lat="64.38481" lon="11.39902">
        <ele>0.467028</ele>
        <time>2020-07-15T22:39:55.626Z</time>
      </trkpt>
      <trkpt lat="64.38481" lon="11.39894">
        <ele>0.476515</ele>
        <time>2020-07-15T22:39:56.708Z</time>
      </trkpt>
      <trkpt lat="64.38512" lon="11.39902">
        <ele>0.556284</ele>
        <time>2020-07-15T22:40:06.057Z</time>
      </trkpt>
      <trkpt lat="64.38571" lon="11.39914">
        <ele>0.710422</ele>
        <time>2020-07-15T22:40:24.299Z</time>
      </trkpt>
      <trkpt lat="64.38628" lon="11.39929">
        <ele>0.857656</ele>
        <time>2020-07-15T22:40:41.825Z</time>
      </trkpt>
      <trkpt lat="64.38641" lon="11.39933">
        <ele>0.989667</ele>
        <time>2020-07-15T22:40:45.736Z</time>
      </trkpt>
      <trkpt lat="64.3865" lon="11.39939">
        <ele>1.138498</ele>
        <time>2020-07-15T22:40:48.824Z</time>
      </trkpt>
      <trkpt lat="64.38653" lon="11.39941">
        <ele>1.181718</ele>
        <time>2020-07-15T22:40:49.712Z</time>
      </trkpt>
      <trkpt lat="64.38656" lon="11.39942">
        <ele>1.230284</ele>
        <time>2020-07-15T22:40:50.768Z</time>
      </trkpt>
      <trkpt lat="64.38667" lon="11.39944">
        <ele>1.381408</ele>
        <time>2020-07-15T22:40:54.007Z</time>
      </trkpt>
      <trkpt lat="64.38713" lon="11.39955">
        <ele>2.05592</ele>
        <time>2020-07-15T22:41:08.756Z</time>
      </trkpt>
      <trkpt lat="64.38716" lon="11.39956">
        <ele>2.105757</ele>
        <time>2020-07-15T22:41:09.876Z</time>
      </trkpt>
      <trkpt lat="64.38751" lon="11.39959">
        <ele>2.611812</ele>
        <time>2020-07-15T22:41:21.416Z</time>
      </trkpt>
      <trkpt lat="64.38796" lon="11.3997">
        <ele>3.277471</ele>
        <time>2020-07-15T22:41:37.845Z</time>
      </trkpt>
      <trkpt lat="64.38904" lon="11.39994">
        <ele>7.480322</ele>
        <time>2020-07-15T22:42:23.553Z</time>
      </trkpt>
      <trkpt lat="64.38975" lon="11.40009">
        <ele>10.512886</ele>
        <time>2020-07-15T22:42:56.552Z</time>
      </trkpt>
      <trkpt lat="64.39071" lon="11.40032">
        <ele>14.11353</ele>
        <time>2020-07-15T22:43:39.962Z</time>
      </trkpt>
      <trkpt lat="64.39163" lon="11.40054">
        <ele>17.496584</ele>
        <time>2020-07-15T22:44:16.855Z</time>
      </trkpt>
      <trkpt lat="64.39188" lon="11.40058">
        <ele>17.884149</ele>
        <time>2020-07-15T22:44:25.751Z</time>
      </trkpt>
      <trkpt lat="64.39187" lon="11.40077">
        <ele>17.952007</ele>
        <time>2020-07-15T22:44:28.657Z</time>
      </trkpt>
      <trkpt lat="64.3921" lon="11.40085">
        <ele>18.141377</ele>
        <time>2020-07-15T22:44:33.453Z</time>
      </trkpt>
      <trkpt lat="64.39223" lon="11.40092">
        <ele>18.248698</ele>
        <time>2020-07-15T22:44:36.037Z</time>
      </trkpt>
      <trkpt lat="64.39247" lon="11.40108">
        <ele>18.455042</ele>
        <time>2020-07-15T22:44:40.753Z</time>
      </trkpt>
      <trkpt lat="64.39255" lon="11.40113">
        <ele>18.519562</ele>
        <time>2020-07-15T22:44:42.278Z</time>
      </trkpt>
      <trkpt lat="64.39272" lon="11.40126">
        <ele>18.667411</ele>
        <time>2020-07-15T22:44:45.704Z</time>
      </trkpt>
      <trkpt lat="64.393" lon="11.40152">
        <ele>18.917257</ele>
        <time>2020-07-15T22:44:51.502Z</time>
      </trkpt>
      <trkpt lat="64.39314" lon="11.40164">
        <ele>19.041286</ele>
        <time>2020-07-15T22:44:54.321Z</time>
      </trkpt>
      <trkpt lat="64.39354" lon="11.40194">
        <ele>19.279347</ele>
        <time>2020-07-15T22:45:02.036Z</time>
      </trkpt>
      <trkpt lat="64.39366" lon="11.40201">
        <ele>19.32323</ele>
        <time>2020-07-15T22:45:04.277Z</time>
      </trkpt>
      <trkpt lat="64.3939" lon="11.40213">
        <ele>19.41065</ele>
        <time>2020-07-15T22:45:08.754Z</time>
      </trkpt>
      <trkpt lat="64.395" lon="11.40262">
        <ele>19.80555</ele>
        <time>2020-07-15T22:45:30.450Z</time>
      </trkpt>
      <trkpt lat="64.39552" lon="11.40309">
        <ele>19.832224</ele>
        <time>2020-07-15T22:45:41.348Z</time>
      </trkpt>
      <trkpt lat="64.39585" lon="11.40347">
        <ele>19.83005</ele>
        <time>2020-07-15T22:45:47.954Z</time>
      </trkpt>
      <trkpt lat="64.3966" lon="11.40437">
        <ele>19.825087</ele>
        <time>2020-07-15T22:46:02.356Z</time>
      </trkpt>
      <trkpt lat="64.39684" lon="11.40467">
        <ele>19.853459</ele>
        <time>2020-07-15T22:46:07.222Z</time>
      </trkpt>
      <trkpt lat="64.39687" lon="11.4047">
        <ele>19.857883</ele>
        <time>2020-07-15T22:46:07.539Z</time>
      </trkpt>
      <trkpt lat="64.39767" lon="11.40576">
        <ele>20.022008</ele>
        <time>2020-07-15T22:46:22.656Z</time>
      </trkpt>
      <trkpt lat="64.399" lon="11.40776">
        <ele>22.657126</ele>
        <time>2020-07-15T22:46:57.129Z</time>
      </trkpt>
      <trkpt lat="64.39908" lon="11.4079">
        <ele>22.94041</ele>
        <time>2020-07-15T22:47:00.398Z</time>
      </trkpt>
      <trkpt lat="64.39937" lon="11.40845">
        <ele>23.99464</ele>
        <time>2020-07-15T22:47:11.590Z</time>
      </trkpt>
      <trkpt lat="64.3997" lon="11.40928">
        <ele>25.528313</ele>
        <time>2020-07-15T22:47:27.192Z</time>
      </trkpt>
      <trkpt lat="64.39994" lon="11.41012">
        <ele>27.945607</ele>
        <time>2020-07-15T22:47:42.472Z</time>
      </trkpt>
      <trkpt lat="64.4001" lon="11.41101">
        <ele>30.248527</ele>
        <time>2020-07-15T22:47:57.892Z</time>
      </trkpt>
      <trkpt lat="64.40019" lon="11.41176">
        <ele>32.119525</ele>
        <time>2020-07-15T22:48:10.123Z</time>
      </trkpt>
      <trkpt lat="64.40025" lon="11.41282">
        <ele>34.654394</ele>
        <time>2020-07-15T22:48:27.195Z</time>
      </trkpt>
      <trkpt lat="64.40019" lon="11.41544">
        <ele>40.047359</ele>
        <time>2020-07-15T22:49:07.041Z</time>
      </trkpt>
      <trkpt lat="64.40019" lon="11.41589">
        <ele>40.955202</ele>
        <time>2020-07-15T22:49:13.286Z</time>
      </trkpt>
      <trkpt lat="64.4002" lon="11.41644">
        <ele>42.058827</ele>
        <time>2020-07-15T22:49:20.560Z</time>
      </trkpt>
      <trkpt lat="64.40034" lon="11.41802">
        <ele>44.183318</ele>
        <time>2020-07-15T22:49:40.400Z</time>
      </trkpt>
      <trkpt lat="64.40071" lon="11.42011">
        <ele>45.817944</ele>
        <time>2020-07-15T22:50:03.486Z</time>
      </trkpt>
      <trkpt lat="64.40203" lon="11.42738">
        <ele>45.320622</ele>
        <time>2020-07-15T22:51:01.888Z</time>
      </trkpt>
      <trkpt lat="64.40256" lon="11.43026">
        <ele>43.442842</ele>
        <time>2020-07-15T22:51:21.565Z</time>
      </trkpt>
      <trkpt lat="64.40284" lon="11.43153">
        <ele>42.249715</ele>
        <time>2020-07-15T22:51:30.168Z</time>
      </trkpt>
      <trkpt lat="64.40358" lon="11.43397">
        <ele>39.974704</ele>
        <time>2020-07-15T22:51:48.027Z</time>
      </trkpt>
      <trkpt lat="64.40381" lon="11.43495">
        <ele>39.165958</ele>
        <time>2020-07-15T22:51:55.087Z</time>
      </trkpt>
      <trkpt lat="64.40386" lon="11.43522">
        <ele>38.958694</ele>
        <time>2020-07-15T22:51:56.821Z</time>
      </trkpt>
      <trkpt lat="64.40406" lon="11.43655">
        <ele>38.356957</ele>
        <time>2020-07-15T22:52:06.325Z</time>
      </trkpt>
      <trkpt lat="64.40486" lon="11.44189">
        <ele>39.537491</ele>
        <time>2020-07-15T22:52:52.624Z</time>
      </trkpt>
      <trkpt lat="64.4052" lon="11.44421">
        <ele>41.150976</ele>
        <time>2020-07-15T22:53:18.486Z</time>
      </trkpt>
      <trkpt lat="64.40527" lon="11.44477">
        <ele>41.912155</ele>
        <time>2020-07-15T22:53:25.009Z</time>
      </trkpt>
      <trkpt lat="64.40531" lon="11.44529">
        <ele>42.614543</ele>
        <time>2020-07-15T22:53:31.250Z</time>
      </trkpt>
      <trkpt lat="64.40534" lon="11.4458">
        <ele>43.285401</ele>
        <time>2020-07-15T22:53:37.618Z</time>
      </trkpt>
      <trkpt lat="64.40536" lon="11.44632">
        <ele>43.983618</ele>
        <time>2020-07-15T22:53:43.951Z</time>
      </trkpt>
      <trkpt lat="64.40543" lon="11.44876">
        <ele>47.062628</ele>
        <time>2020-07-15T22:54:14.730Z</time>
      </trkpt>
      <trkpt lat="64.40551" lon="11.45131">
        <ele>49.984082</ele>
        <time>2020-07-15T22:54:44.594Z</time>
      </trkpt>
      <trkpt lat="64.40559" lon="11.45433">
        <ele>51.763643</ele>
        <time>2020-07-15T22:55:13.520Z</time>
      </trkpt>
      <trkpt lat="64.40573" lon="11.45914">
        <ele>52.892111</ele>
        <time>2020-07-15T22:55:52.482Z</time>
      </trkpt>
      <trkpt lat="64.40578" lon="11.46083">
        <ele>53.152017</ele>
        <time>2020-07-15T22:56:06.477Z</time>
      </trkpt>
      <trkpt lat="64.40578" lon="11.46229">
        <ele>53.461213</ele>
        <time>2020-07-15T22:56:18.793Z</time>
      </trkpt>
      <trkpt lat="64.40564" lon="11.46567">
        <ele>54.026553</ele>
        <time>2020-07-15T22:56:47.167Z</time>
      </trkpt>
      <trkpt lat="64.40567" lon="11.46649">
        <ele>54.08207</ele>
        <time>2020-07-15T22:56:53.774Z</time>
      </trkpt>
      <trkpt lat="64.40576" lon="11.46711">
        <ele>54.125836</ele>
        <time>2020-07-15T22:56:58.917Z</time>
      </trkpt>
      <trkpt lat="64.40593" lon="11.46787">
        <ele>54.183291</ele>
        <time>2020-07-15T22:57:05.572Z</time>
      </trkpt>
      <trkpt lat="64.40672" lon="11.47041">
        <ele>54.040715</ele>
        <time>2020-07-15T22:57:29.068Z</time>
      </trkpt>
      <trkpt lat="64.40761" lon="11.47322">
        <ele>53.761241</ele>
        <time>2020-07-15T22:57:54.856Z</time>
      </trkpt>
      <trkpt lat="64.4083" lon="11.47541">
        <ele>53.576279</ele>
        <time>2020-07-15T22:58:15.286Z</time>
      </trkpt>
      <trkpt lat="64.40832" lon="11.47548">
        <ele>53.579387</ele>
        <time>2020-07-15T22:58:15.873Z</time>
      </trkpt>
      <trkpt lat="64.40883" lon="11.47706">
        <ele>53.656188</ele>
        <time>2020-07-15T22:58:31.354Z</time>
      </trkpt>
      <trkpt lat="64.40912" lon="11.47776">
        <ele>53.693698</ele>
        <time>2020-07-15T22:58:38.961Z</time>
      </trkpt>
      <trkpt lat="64.40923" lon="11.47797">
        <ele>53.706402</ele>
        <time>2020-07-15T22:58:41.572Z</time>
      </trkpt>
      <trkpt lat="64.4094" lon="11.47829">
        <ele>53.726294</ele>
        <time>2020-07-15T22:58:45.599Z</time>
      </trkpt>
      <trkpt lat="64.40945" lon="11.47818">
        <ele>53.73796</ele>
        <time>2020-07-15T22:58:46.999Z</time>
      </trkpt>
      <trkpt lat="64.40955" lon="11.47836">
        <ele>53.76353</ele>
        <time>2020-07-15T22:58:49.403Z</time>
      </trkpt>
      <trkpt lat="64.40969" lon="11.47861">
        <ele>53.800712</ele>
        <time>2020-07-15T22:58:52.706Z</time>
      </trkpt>
      <trkpt lat="64.41122" lon="11.48144">
        <ele>54.213739</ele>
        <time>2020-07-15T22:59:29.024Z</time>
      </trkpt>
      <trkpt lat="64.41175" lon="11.4824">
        <ele>54.363465</ele>
        <time>2020-07-15T22:59:41.445Z</time>
      </trkpt>
      <trkpt lat="64.41199" lon="11.48281">
        <ele>54.430961</ele>
        <time>2020-07-15T22:59:47.043Z</time>
      </trkpt>
      <trkpt lat="64.41226" lon="11.48323">
        <ele>54.503398</ele>
        <time>2020-07-15T22:59:53.065Z</time>
      </trkpt>
      <trkpt lat="64.41301" lon="11.48433">
        <ele>54.708688</ele>
        <time>2020-07-15T23:00:09.667Z</time>
      </trkpt>
      <trkpt lat="64.41341" lon="11.48488">
        <ele>54.814484</ele>
        <time>2020-07-15T23:00:18.163Z</time>
      </trkpt>
      <trkpt lat="64.41472" lon="11.48677">
        <ele>55.230723</ele>
        <time>2020-07-15T23:00:47.132Z</time>
      </trkpt>
      <trkpt lat="64.41492" lon="11.48705">
        <ele>55.296669</ele>
        <time>2020-07-15T23:00:51.516Z</time>
      </trkpt>
      <trkpt lat="64.4161" lon="11.48875">
        <ele>55.754282</ele>
        <time>2020-07-15T23:01:17.503Z</time>
      </trkpt>
      <trkpt lat="64.41668" lon="11.48941">
        <ele>55.982846</ele>
        <time>2020-07-15T23:01:29.792Z</time>
      </trkpt>
      <trkpt lat="64.4172" lon="11.48962">
        <ele>56.279919</ele>
        <time>2020-07-15T23:01:39.874Z</time>
      </trkpt>
      <trkpt lat="64.41729" lon="11.48962">
        <ele>56.351836</ele>
        <time>2020-07-15T23:01:41.795Z</time>
      </trkpt>
      <trkpt lat="64.4189" lon="11.48957">
        <ele>57.607706</ele>
        <time>2020-07-15T23:02:14.468Z</time>
      </trkpt>
      <trkpt lat="64.42029" lon="11.48952">
        <ele>59.166236</ele>
        <time>2020-07-15T23:02:44.675Z</time>
      </trkpt>
      <trkpt lat="64.42089" lon="11.48971">
        <ele>59.801398</ele>
        <time>2020-07-15T23:02:58.057Z</time>
      </trkpt>
      <trkpt lat="64.42117" lon="11.4899">
        <ele>60.094491</ele>
        <time>2020-07-15T23:03:04.389Z</time>
      </trkpt>
      <trkpt lat="64.42178" lon="11.4903">
        <ele>60.735596</ele>
        <time>2020-07-15T23:03:17.847Z</time>
      </trkpt>
      <trkpt lat="64.42243" lon="11.49073">
        <ele>61.131747</ele>
        <time>2020-07-15T23:03:31.604Z</time>
      </trkpt>
      <trkpt lat="64.42288" lon="11.49076">
        <ele>60.937895</ele>
        <time>2020-07-15T23:03:39.588Z</time>
      </trkpt>
      <trkpt lat="64.42389" lon="11.49036">
        <ele>60.490359</ele>
        <time>2020-07-15T23:03:55.868Z</time>
      </trkpt>
      <trkpt lat="64.42414" lon="11.49027">
        <ele>60.241992</ele>
        <time>2020-07-15T23:03:59.641Z</time>
      </trkpt>
      <trkpt lat="64.42417" lon="11.4902">
        <ele>60.173032</ele>
        <time>2020-07-15T23:04:00.360Z</time>
      </trkpt>
      <trkpt lat="64.42419" lon="11.49014">
        <ele>60.123413</ele>
        <time>2020-07-15T23:04:00.827Z</time>
      </trkpt>
      <trkpt lat="64.42422" lon="11.49008">
        <ele>60.061687</ele>
        <time>2020-07-15T23:04:01.352Z</time>
      </trkpt>
      <trkpt lat="64.42465" lon="11.49006">
        <ele>59.404527</ele>
        <time>2020-07-15T23:04:07.758Z</time>
      </trkpt>
      <trkpt lat="64.42511" lon="11.48988">
        <ele>58.697379</ele>
        <time>2020-07-15T23:04:14.549Z</time>
      </trkpt>
      <trkpt lat="64.42518" lon="11.48984">
        <ele>58.581841</ele>
        <time>2020-07-15T23:04:15.639Z</time>
      </trkpt>
      <trkpt lat="64.42567" lon="11.48966">
        <ele>57.83401</ele>
        <time>2020-07-15T23:04:22.576Z</time>
      </trkpt>
      <trkpt lat="64.42616" lon="11.48945">
        <ele>56.979194</ele>
        <time>2020-07-15T23:04:29.991Z</time>
      </trkpt>
      <trkpt lat="64.42696" lon="11.48915">
        <ele>55.556513</ele>
        <time>2020-07-15T23:04:41.719Z</time>
      </trkpt>
      <trkpt lat="64.4279" lon="11.48888">
        <ele>53.729416</ele>
        <time>2020-07-15T23:04:55.335Z</time>
      </trkpt>
      <trkpt lat="64.42796" lon="11.48895">
        <ele>53.575755</ele>
        <time>2020-07-15T23:04:56.252Z</time>
      </trkpt>
      <trkpt lat="64.42801" lon="11.489">
        <ele>53.454439</ele>
        <time>2020-07-15T23:04:56.950Z</time>
      </trkpt>
      <trkpt lat="64.42842" lon="11.48925">
        <ele>52.496266</ele>
        <time>2020-07-15T23:05:02.880Z</time>
      </trkpt>
      <trkpt lat="64.42897" lon="11.48984">
        <ele>51.13934</ele>
        <time>2020-07-15T23:05:11.309Z</time>
      </trkpt>
      <trkpt lat="64.42918" lon="11.4901">
        <ele>50.58764</ele>
        <time>2020-07-15T23:05:14.652Z</time>
      </trkpt>
      <trkpt lat="64.42949" lon="11.49049">
        <ele>49.256199</ele>
        <time>2020-07-15T23:05:19.344Z</time>
      </trkpt>
      <trkpt lat="64.43013" lon="11.49159">
        <ele>46.08292</ele>
        <time>2020-07-15T23:05:29.538Z</time>
      </trkpt>
      <trkpt lat="64.43041" lon="11.49225">
        <ele>44.496227</ele>
        <time>2020-07-15T23:05:34.412Z</time>
      </trkpt>
      <trkpt lat="64.43063" lon="11.49276">
        <ele>43.205939</ele>
        <time>2020-07-15T23:05:38.141Z</time>
      </trkpt>
      <trkpt lat="64.43079" lon="11.49287">
        <ele>42.124707</ele>
        <time>2020-07-15T23:05:40.272Z</time>
      </trkpt>
      <trkpt lat="64.43084" lon="11.49301">
        <ele>41.647744</ele>
        <time>2020-07-15T23:05:41.175Z</time>
      </trkpt>
      <trkpt lat="64.43087" lon="11.49309">
        <ele>41.325975</ele>
        <time>2020-07-15T23:05:41.716Z</time>
      </trkpt>
      <trkpt lat="64.43093" lon="11.49353">
        <ele>40.075583</ele>
        <time>2020-07-15T23:05:44.130Z</time>
      </trkpt>
      <trkpt lat="64.43201" lon="11.49609">
        <ele>30.689174</ele>
        <time>2020-07-15T23:06:01.862Z</time>
      </trkpt>
      <trkpt lat="64.43256" lon="11.49677">
        <ele>27.683566</ele>
        <time>2020-07-15T23:06:09.298Z</time>
      </trkpt>
      <trkpt lat="64.4327" lon="11.49708">
        <ele>26.735094</ele>
        <time>2020-07-15T23:06:11.715Z</time>
      </trkpt>
      <trkpt lat="64.43292" lon="11.49817">
        <ele>24.265899</ele>
        <time>2020-07-15T23:06:18.238Z</time>
      </trkpt>
      <trkpt lat="64.43309" lon="11.49864">
        <ele>23.280726</ele>
        <time>2020-07-15T23:06:21.806Z</time>
      </trkpt>
      <trkpt lat="64.43364" lon="11.4997">
        <ele>23.076076</ele>
        <time>2020-07-15T23:06:32.503Z</time>
      </trkpt>
      <trkpt lat="64.43451" lon="11.50097">
        <ele>22.813475</ele>
        <time>2020-07-15T23:06:53.595Z</time>
      </trkpt>
      <trkpt lat="64.43525" lon="11.50194">
        <ele>25.155608</ele>
        <time>2020-07-15T23:07:13.791Z</time>
      </trkpt>
      <trkpt lat="64.43556" lon="11.50233">
        <ele>26.115776</ele>
        <time>2020-07-15T23:07:23.173Z</time>
      </trkpt>
      <trkpt lat="64.43626" lon="11.50331">
        <ele>29.118583</ele>
        <time>2020-07-15T23:07:49.084Z</time>
      </trkpt>
      <trkpt lat="64.43667" lon="11.50393">
        <ele>32.035026</ele>
        <time>2020-07-15T23:08:05.646Z</time>
      </trkpt>
      <trkpt lat="64.43685" lon="11.50423">
        <ele>33.318467</ele>
        <time>2020-07-15T23:08:14.159Z</time>
      </trkpt>
      <trkpt lat="64.4373" lon="11.50526">
        <ele>37.066345</ele>
        <time>2020-07-15T23:08:38.717Z</time>
      </trkpt>
      <trkpt lat="64.43789" lon="11.5077">
        <ele>44.756003</ele>
        <time>2020-07-15T23:09:28.871Z</time>
      </trkpt>
      <trkpt lat="64.43885" lon="11.5103">
        <ele>52.099631</ele>
        <time>2020-07-15T23:10:21.342Z</time>
      </trkpt>
      <trkpt lat="64.43898" lon="11.51074">
        <ele>52.821385</ele>
        <time>2020-07-15T23:10:28.003Z</time>
      </trkpt>
      <trkpt lat="64.43933" lon="11.51227">
        <ele>55.158168</ele>
        <time>2020-07-15T23:10:46.228Z</time>
      </trkpt>
      <trkpt lat="64.43944" lon="11.51251">
        <ele>55.622728</ele>
        <time>2020-07-15T23:10:49.133Z</time>
      </trkpt>
      <trkpt lat="64.43945" lon="11.51257">
        <ele>55.606565</ele>
        <time>2020-07-15T23:10:49.858Z</time>
      </trkpt>
      <trkpt lat="64.43947" lon="11.51265">
        <ele>55.554142</ele>
        <time>2020-07-15T23:10:50.473Z</time>
      </trkpt>
      <trkpt lat="64.43952" lon="11.51309">
        <ele>55.278064</ele>
        <time>2020-07-15T23:10:54.110Z</time>
      </trkpt>
      <trkpt lat="64.43985" lon="11.51455">
        <ele>54.289761</ele>
        <time>2020-07-15T23:11:04.831Z</time>
      </trkpt>
      <trkpt lat="64.44026" lon="11.5164">
        <ele>52.922296</ele>
        <time>2020-07-15T23:11:17.136Z</time>
      </trkpt>
      <trkpt lat="64.44047" lon="11.51713">
        <ele>51.829157</ele>
        <time>2020-07-15T23:11:22.082Z</time>
      </trkpt>
      <trkpt lat="64.44076" lon="11.5178">
        <ele>50.607765</ele>
        <time>2020-07-15T23:11:27.541Z</time>
      </trkpt>
      <trkpt lat="64.44267" lon="11.52078">
        <ele>44.24795</ele>
        <time>2020-07-15T23:11:58.046Z</time>
      </trkpt>
      <trkpt lat="64.44308" lon="11.5213">
        <ele>43.000979</ele>
        <time>2020-07-15T23:12:04.587Z</time>
      </trkpt>
      <trkpt lat="64.44339" lon="11.52142">
        <ele>42.165682</ele>
        <time>2020-07-15T23:12:09.058Z</time>
      </trkpt>
      <trkpt lat="64.44359" lon="11.5214">
        <ele>41.609291</ele>
        <time>2020-07-15T23:12:12.117Z</time>
      </trkpt>
      <trkpt lat="64.4444" lon="11.52097">
        <ele>39.412608</ele>
        <time>2020-07-15T23:12:23.697Z</time>
      </trkpt>
      <trkpt lat="64.44485" lon="11.52088">
        <ele>38.076667</ele>
        <time>2020-07-15T23:12:29.569Z</time>
      </trkpt>
      <trkpt lat="64.44502" lon="11.5206">
        <ele>36.689115</ele>
        <time>2020-07-15T23:12:32.001Z</time>
      </trkpt>
      <trkpt lat="64.44511" lon="11.52019">
        <ele>35.383145</ele>
        <time>2020-07-15T23:12:34.496Z</time>
      </trkpt>
      <trkpt lat="64.44515" lon="11.52002">
        <ele>34.82247</ele>
        <time>2020-07-15T23:12:35.488Z</time>
      </trkpt>
      <trkpt lat="64.44517" lon="11.51999">
        <ele>34.674899</ele>
        <time>2020-07-15T23:12:35.783Z</time>
      </trkpt>
      <trkpt lat="64.44519" lon="11.51999">
        <ele>34.522492</ele>
        <time>2020-07-15T23:12:36.016Z</time>
      </trkpt>
      <trkpt lat="64.44549" lon="11.52033">
        <ele>32.306574</ele>
        <time>2020-07-15T23:12:39.976Z</time>
      </trkpt>
      <trkpt lat="64.44559" lon="11.52056">
        <ele>31.362163</ele>
        <time>2020-07-15T23:12:41.573Z</time>
      </trkpt>
      <trkpt lat="64.44568" lon="11.52099">
        <ele>30.013684</ele>
        <time>2020-07-15T23:12:43.926Z</time>
      </trkpt>
      <trkpt lat="64.44569" lon="11.52132">
        <ele>29.065137</ele>
        <time>2020-07-15T23:12:45.516Z</time>
      </trkpt>
      <trkpt lat="64.4457" lon="11.52145">
        <ele>28.703045</ele>
        <time>2020-07-15T23:12:46.155Z</time>
      </trkpt>
      <trkpt lat="64.44571" lon="11.52169">
        <ele>28.01081</ele>
        <time>2020-07-15T23:12:47.364Z</time>
      </trkpt>
      <trkpt lat="64.44571" lon="11.52174">
        <ele>27.854307</ele>
        <time>2020-07-15T23:12:47.607Z</time>
      </trkpt>
      <trkpt lat="64.44577" lon="11.52201">
        <ele>27.027923</ele>
        <time>2020-07-15T23:12:48.996Z</time>
      </trkpt>
      <trkpt lat="64.44589" lon="11.52221">
        <ele>26.029485</ele>
        <time>2020-07-15T23:12:50.678Z</time>
      </trkpt>
      <trkpt lat="64.44619" lon="11.52217">
        <ele>23.837572</ele>
        <time>2020-07-15T23:12:54.127Z</time>
      </trkpt>
      <trkpt lat="64.44625" lon="11.52219">
        <ele>23.401947</ele>
        <time>2020-07-15T23:12:54.795Z</time>
      </trkpt>
      <trkpt lat="64.44703" lon="11.52295">
        <ele>17.356006</ele>
        <time>2020-07-15T23:13:04.770Z</time>
      </trkpt>
      <trkpt lat="64.44782" lon="11.52353">
        <ele>12.435355</ele>
        <time>2020-07-15T23:13:15.240Z</time>
      </trkpt>
      <trkpt lat="64.44793" lon="11.52357">
        <ele>11.994709</ele>
        <time>2020-07-15T23:13:16.738Z</time>
      </trkpt>
      <trkpt lat="64.44809" lon="11.52363">
        <ele>11.368263</ele>
        <time>2020-07-15T23:13:18.820Z</time>
      </trkpt>
      <trkpt lat="64.44873" lon="11.52368">
        <ele>8.884919</ele>
        <time>2020-07-15T23:13:27.440Z</time>
      </trkpt>
      <trkpt lat="64.44919" lon="11.52356">
        <ele>7.110701</ele>
        <time>2020-07-15T23:13:33.604Z</time>
      </trkpt>
      <trkpt lat="64.45082" lon="11.52243">
        <ele>3.030338</ele>
        <time>2020-07-15T23:13:58.139Z</time>
      </trkpt>
      <trkpt lat="64.45132" lon="11.52219">
        <ele>2.362579</ele>
        <time>2020-07-15T23:14:06.125Z</time>
      </trkpt>
      <trkpt lat="64.45156" lon="11.52227">
        <ele>2.233587</ele>
        <time>2020-07-15T23:14:10.060Z</time>
      </trkpt>
      <trkpt lat="64.45224" lon="11.52199">
        <ele>1.853065</ele>
        <time>2020-07-15T23:14:22.217Z</time>
      </trkpt>
      <trkpt lat="64.45251" lon="11.52166">
        <ele>1.686199</ele>
        <time>2020-07-15T23:14:27.980Z</time>
      </trkpt>
      <trkpt lat="64.45255" lon="11.52165">
        <ele>1.665204</ele>
        <time>2020-07-15T23:14:28.659Z</time>
      </trkpt>
      <trkpt lat="64.45281" lon="11.52159">
        <ele>1.533607</ele>
        <time>2020-07-15T23:14:33.554Z</time>
      </trkpt>
      <trkpt lat="64.45283" lon="11.52158">
        <ele>1.533078</ele>
        <time>2020-07-15T23:14:34.109Z</time>
      </trkpt>
      <trkpt lat="64.45371" lon="11.52213">
        <ele>1.509082</ele>
        <time>2020-07-15T23:14:50.562Z</time>
      </trkpt>
      <trkpt lat="64.45426" lon="11.52289">
        <ele>1.492053</ele>
        <time>2020-07-15T23:15:02.100Z</time>
      </trkpt>
      <trkpt lat="64.45455" lon="11.52353">
        <ele>1.407239</ele>
        <time>2020-07-15T23:15:08.803Z</time>
      </trkpt>
      <trkpt lat="64.45524" lon="11.5255">
        <ele>0.958543</ele>
        <time>2020-07-15T23:15:26.900Z</time>
      </trkpt>
      <trkpt lat="64.45545" lon="11.52585">
        <ele>0.852345</ele>
        <time>2020-07-15T23:15:31.163Z</time>
      </trkpt>
      <trkpt lat="64.4562" lon="11.52791">
        <ele>0.493127</ele>
        <time>2020-07-15T23:15:50.679Z</time>
      </trkpt>
      <trkpt lat="64.45622" lon="11.52799">
        <ele>0.48234</ele>
        <time>2020-07-15T23:15:51.300Z</time>
      </trkpt>
      <trkpt lat="64.45627" lon="11.52789">
        <ele>0.461765</ele>
        <time>2020-07-15T23:15:52.510Z</time>
      </trkpt>
      <trkpt lat="64.45631" lon="11.52779">
        <ele>0.446093</ele>
        <time>2020-07-15T23:15:53.491Z</time>
      </trkpt>
      <trkpt lat="64.45634" lon="11.52772">
        <ele>0.43413</ele>
        <time>2020-07-15T23:15:54.246Z</time>
      </trkpt>
      <trkpt lat="64.45637" lon="11.5277">
        <ele>0.425045</ele>
        <time>2020-07-15T23:15:54.798Z</time>
      </trkpt>
      <trkpt lat="64.45647" lon="11.5277">
        <ele>0.397243</ele>
        <time>2020-07-15T23:15:56.499Z</time>
      </trkpt>
      <trkpt lat="64.45657" lon="11.5277">
        <ele>0.368307</ele>
        <time>2020-07-15T23:15:58.202Z</time>
      </trkpt>
      <trkpt lat="64.45662" lon="11.52773">
        <ele>0.354881</ele>
        <time>2020-07-15T23:15:59.006Z</time>
      </trkpt>
      <trkpt lat="64.45664" lon="11.52781">
        <ele>0.343301</ele>
        <time>2020-07-15T23:15:59.752Z</time>
      </trkpt>
      <trkpt lat="64.45668" lon="11.5279">
        <ele>0.326972</ele>
        <time>2020-07-15T23:16:00.790Z</time>
      </trkpt>
      <trkpt lat="64.45675" lon="11.52805">
        <ele>0.301247</ele>
        <time>2020-07-15T23:16:02.408Z</time>
      </trkpt>
      <trkpt lat="64.45681" lon="11.52787">
        <ele>0.272683</ele>
        <time>2020-07-15T23:16:04.073Z</time>
      </trkpt>
      <trkpt lat="64.45805" lon="11.52521">
        <ele>0.085715</ele>
        <time>2020-07-15T23:16:33.851Z</time>
      </trkpt>
      <trkpt lat="64.45861" lon="11.52432">
        <ele>0.048541</ele>
        <time>2020-07-15T23:16:45.726Z</time>
      </trkpt>
      <trkpt lat="64.45911" lon="11.52373">
        <ele>0.029524</ele>
        <time>2020-07-15T23:16:55.518Z</time>
      </trkpt>
      <trkpt lat="64.45915" lon="11.52369">
        <ele>0.027826</ele>
        <time>2020-07-15T23:16:56.390Z</time>
      </trkpt>
      <trkpt lat="64.4595" lon="11.52338">
        <ele>0.015091</ele>
        <time>2020-07-15T23:17:02.987Z</time>
      </trkpt>
      <trkpt lat="64.45972" lon="11.52307">
        <ele>0.006286</ele>
        <time>2020-07-15T23:17:07.558Z</time>
      </trkpt>
      <trkpt lat="64.46015" lon="11.52268">
        <ele>0.010856</ele>
        <time>2020-07-15T23:17:15.875Z</time>
      </trkpt>
      <trkpt lat="64.4632" lon="11.52016">
        <ele>0.105631</ele>
        <time>2020-07-15T23:18:13.883Z</time>
      </trkpt>
      <trkpt lat="64.46324" lon="11.52013">
        <ele>0.115523</ele>
        <time>2020-07-15T23:18:14.523Z</time>
      </trkpt>
      <trkpt lat="64.46348" lon="11.5201">
        <ele>0.184731</ele>
        <time>2020-07-15T23:18:19.102Z</time>
      </trkpt>
      <trkpt lat="64.46357" lon="11.52007">
        <ele>0.211125</ele>
        <time>2020-07-15T23:18:20.817Z</time>
      </trkpt>
      <trkpt lat="64.46366" lon="11.52">
        <ele>0.240327</ele>
        <time>2020-07-15T23:18:22.739Z</time>
      </trkpt>
      <trkpt lat="64.46375" lon="11.51992">
        <ele>0.268387</ele>
        <time>2020-07-15T23:18:24.612Z</time>
      </trkpt>
      <trkpt lat="64.46396" lon="11.51971">
        <ele>0.334794</ele>
        <time>2020-07-15T23:18:29.013Z</time>
      </trkpt>
      <trkpt lat="64.46415" lon="11.51952">
        <ele>0.393149</ele>
        <time>2020-07-15T23:18:32.921Z</time>
      </trkpt>
      <trkpt lat="64.46475" lon="11.51865">
        <ele>0.599223</ele>
        <time>2020-07-15T23:18:47.259Z</time>
      </trkpt>
      <trkpt lat="64.46538" lon="11.51724">
        <ele>0.8906</ele>
        <time>2020-07-15T23:19:04.869Z</time>
      </trkpt>
      <trkpt lat="64.46546" lon="11.51699">
        <ele>0.935491</ele>
        <time>2020-07-15T23:19:07.502Z</time>
      </trkpt>
      <trkpt lat="64.46557" lon="11.51664">
        <ele>0.999066</ele>
        <time>2020-07-15T23:19:11.243Z</time>
      </trkpt>
      <trkpt lat="64.46585" lon="11.51549">
        <ele>1.191404</ele>
        <time>2020-07-15T23:19:22.260Z</time>
      </trkpt>
      <trkpt lat="64.46605" lon="11.51428">
        <ele>1.160419</ele>
        <time>2020-07-15T23:19:32.842Z</time>
      </trkpt>
      <trkpt lat="64.46618" lon="11.51298">
        <ele>1.060282</ele>
        <time>2020-07-15T23:19:43.073Z</time>
      </trkpt>
      <trkpt lat="64.46616" lon="11.51234">
        <ele>1.012359</ele>
        <time>2020-07-15T23:19:47.776Z</time>
      </trkpt>
      <trkpt lat="64.46624" lon="11.51125">
        <ele>0.930061</ele>
        <time>2020-07-15T23:19:56.271Z</time>
      </trkpt>
      <trkpt lat="64.46641" lon="11.51027">
        <ele>1.037442</ele>
        <time>2020-07-15T23:20:04.563Z</time>
      </trkpt>
      <trkpt lat="64.46645" lon="11.51017">
        <ele>1.052896</ele>
        <time>2020-07-15T23:20:05.482Z</time>
      </trkpt>
      <trkpt lat="64.46647" lon="11.51011">
        <ele>1.061573</ele>
        <time>2020-07-15T23:20:06.068Z</time>
      </trkpt>
      <trkpt lat="64.46655" lon="11.50995">
        <ele>1.093067</ele>
        <time>2020-07-15T23:20:08.207Z</time>
      </trkpt>
      <trkpt lat="64.46682" lon="11.50986">
        <ele>1.166126</ele>
        <time>2020-07-15T23:20:13.191Z</time>
      </trkpt>
      <trkpt lat="64.46685" lon="11.50982">
        <ele>1.178026</ele>
        <time>2020-07-15T23:20:14.020Z</time>
      </trkpt>
      <trkpt lat="64.4669" lon="11.50975">
        <ele>1.193086</ele>
        <time>2020-07-15T23:20:15.050Z</time>
      </trkpt>
      <trkpt lat="64.46693" lon="11.50971">
        <ele>1.203024</ele>
        <time>2020-07-15T23:20:15.887Z</time>
      </trkpt>
      <trkpt lat="64.46697" lon="11.50918">
        <ele>1.266912</ele>
        <time>2020-07-15T23:20:20.245Z</time>
      </trkpt>
      <trkpt lat="64.46722" lon="11.50896">
        <ele>1.339812</ele>
        <time>2020-07-15T23:20:25.882Z</time>
      </trkpt>
      <trkpt lat="64.46847" lon="11.5089">
        <ele>2.226842</ele>
        <time>2020-07-15T23:20:52.940Z</time>
      </trkpt>
      <trkpt lat="64.46849" lon="11.50891">
        <ele>2.246518</ele>
        <time>2020-07-15T23:20:53.750Z</time>
      </trkpt>
      <trkpt lat="64.46849" lon="11.50888">
        <ele>2.25779</ele>
        <time>2020-07-15T23:20:54.008Z</time>
      </trkpt>
      <trkpt lat="64.46849" lon="11.5088">
        <ele>2.288331</ele>
        <time>2020-07-15T23:20:54.727Z</time>
      </trkpt>
      <trkpt lat="64.46849" lon="11.50866">
        <ele>2.338143</ele>
        <time>2020-07-15T23:20:56.015Z</time>
      </trkpt>
      <trkpt lat="64.46848" lon="11.50854">
        <ele>2.380891</ele>
        <time>2020-07-15T23:20:56.990Z</time>
      </trkpt>
      <trkpt lat="64.46852" lon="11.50852">
        <ele>2.410659</ele>
        <time>2020-07-15T23:20:57.807Z</time>
      </trkpt>
      <trkpt lat="64.4687" lon="11.50819">
        <ele>2.602841</ele>
        <time>2020-07-15T23:21:02.602Z</time>
      </trkpt>
      <trkpt lat="64.46871" lon="11.50813">
        <ele>2.628375</ele>
        <time>2020-07-15T23:21:03.311Z</time>
      </trkpt>
      <trkpt lat="64.46877" lon="11.50729">
        <ele>2.937015</ele>
        <time>2020-07-15T23:21:10.790Z</time>
      </trkpt>
      <trkpt lat="64.4688" lon="11.50612">
        <ele>3.209364</ele>
        <time>2020-07-15T23:21:20.948Z</time>
      </trkpt>
      <trkpt lat="64.46874" lon="11.50435">
        <ele>3.619721</ele>
        <time>2020-07-15T23:21:35.732Z</time>
      </trkpt>
      <trkpt lat="64.4687" lon="11.50378">
        <ele>3.751779</ele>
        <time>2020-07-15T23:21:40.560Z</time>
      </trkpt>
      <trkpt lat="64.46868" lon="11.5035">
        <ele>3.818592</ele>
        <time>2020-07-15T23:21:43.209Z</time>
      </trkpt>
      <trkpt lat="64.46853" lon="11.50196">
        <ele>4.730122</ele>
        <time>2020-07-15T23:21:58.244Z</time>
      </trkpt>
      <trkpt lat="64.4685" lon="11.50174">
        <ele>4.889464</ele>
        <time>2020-07-15T23:22:00.616Z</time>
      </trkpt>
      <trkpt lat="64.46845" lon="11.50164">
        <ele>4.990541</ele>
        <time>2020-07-15T23:22:02.290Z</time>
      </trkpt>
      <trkpt lat="64.46842" lon="11.50157">
        <ele>5.058494</ele>
        <time>2020-07-15T23:22:03.192Z</time>
      </trkpt>
      <trkpt lat="64.46837" lon="11.50146">
        <ele>5.164137</ele>
        <time>2020-07-15T23:22:04.741Z</time>
      </trkpt>
      <trkpt lat="64.46833" lon="11.50125">
        <ele>5.325174</ele>
        <time>2020-07-15T23:22:07.101Z</time>
      </trkpt>
      <trkpt lat="64.46833" lon="11.50112">
        <ele>5.416276</ele>
        <time>2020-07-15T23:22:08.506Z</time>
      </trkpt>
      <trkpt lat="64.46836" lon="11.50082">
        <ele>5.626941</ele>
        <time>2020-07-15T23:22:11.808Z</time>
      </trkpt>
      <trkpt lat="64.46836" lon="11.50069">
        <ele>5.715867</ele>
        <time>2020-07-15T23:22:13.150Z</time>
      </trkpt>
      <trkpt lat="64.4684" lon="11.50066">
        <ele>5.789466</ele>
        <time>2020-07-15T23:22:14.250Z</time>
      </trkpt>
      <trkpt lat="64.46845" lon="11.50062">
        <ele>5.868458</ele>
        <time>2020-07-15T23:22:15.435Z</time>
      </trkpt>
      <trkpt lat="64.46849" lon="11.50058">
        <ele>5.945186</ele>
        <time>2020-07-15T23:22:16.629Z</time>
      </trkpt>
      <trkpt lat="64.46851" lon="11.50057">
        <ele>5.966922</ele>
        <time>2020-07-15T23:22:17.002Z</time>
      </trkpt>
      <trkpt lat="64.46845" lon="11.50035">
        <ele>6.14486</ele>
        <time>2020-07-15T23:22:20.020Z</time>
      </trkpt>
      <trkpt lat="64.46834" lon="11.49975">
        <ele>6.590243</ele>
        <time>2020-07-15T23:22:26.884Z</time>
      </trkpt>
      <trkpt lat="64.46832" lon="11.49964">
        <ele>6.670671</ele>
        <time>2020-07-15T23:22:28.448Z</time>
      </trkpt>
      <trkpt lat="64.4678" lon="11.49662">
        <ele>8.693493</ele>
        <time>2020-07-15T23:23:03.371Z</time>
      </trkpt>
      <trkpt lat="64.46777" lon="11.49648">
        <ele>8.78377</ele>
        <time>2020-07-15T23:23:04.870Z</time>
      </trkpt>
      <trkpt lat="64.46775" lon="11.49632">
        <ele>8.888194</ele>
        <time>2020-07-15T23:23:06.383Z</time>
      </trkpt>
      <trkpt lat="64.46773" lon="11.49619">
        <ele>8.975308</ele>
        <time>2020-07-15T23:23:07.489Z</time>
      </trkpt>
      <trkpt lat="64.46773" lon="11.49603">
        <ele>9.072368</ele>
        <time>2020-07-15T23:23:08.818Z</time>
      </trkpt>
      <trkpt lat="64.46773" lon="11.49591">
        <ele>9.150282</ele>
        <time>2020-07-15T23:23:09.905Z</time>
      </trkpt>
      <trkpt lat="64.46774" lon="11.49578">
        <ele>9.232748</ele>
        <time>2020-07-15T23:23:10.953Z</time>
      </trkpt>
      <trkpt lat="64.46778" lon="11.4955">
        <ele>9.282993</ele>
        <time>2020-07-15T23:23:13.271Z</time>
      </trkpt>
      <trkpt lat="64.46784" lon="11.49516">
        <ele>9.143287</ele>
        <time>2020-07-15T23:23:15.977Z</time>
      </trkpt>
      <trkpt lat="64.4679" lon="11.49489">
        <ele>9.029126</ele>
        <time>2020-07-15T23:23:18.164Z</time>
      </trkpt>
      <trkpt lat="64.46814" lon="11.49343">
        <ele>8.420317</ele>
        <time>2020-07-15T23:23:28.921Z</time>
      </trkpt>
      <trkpt lat="64.46829" lon="11.49257">
        <ele>8.064201</ele>
        <time>2020-07-15T23:23:34.927Z</time>
      </trkpt>
      <trkpt lat="64.4683" lon="11.49247">
        <ele>8.025065</ele>
        <time>2020-07-15T23:23:35.529Z</time>
      </trkpt>
      <trkpt lat="64.4683" lon="11.49241">
        <ele>8.000933</ele>
        <time>2020-07-15T23:23:35.905Z</time>
      </trkpt>
      <trkpt lat="64.46837" lon="11.49196">
        <ele>7.818169</ele>
        <time>2020-07-15T23:23:39.004Z</time>
      </trkpt>
      <trkpt lat="64.46833" lon="11.49194">
        <ele>7.78756</ele>
        <time>2020-07-15T23:23:39.507Z</time>
      </trkpt>
      <trkpt lat="64.46838" lon="11.49159">
        <ele>7.617767</ele>
        <time>2020-07-15T23:23:41.713Z</time>
      </trkpt>
      <trkpt lat="64.4684" lon="11.49158">
        <ele>7.600025</ele>
        <time>2020-07-15T23:23:41.923Z</time>
      </trkpt>
      <trkpt lat="64.46843" lon="11.49153">
        <ele>7.548512</ele>
        <time>2020-07-15T23:23:42.520Z</time>
      </trkpt>
      <trkpt lat="64.46845" lon="11.49146">
        <ele>7.502181</ele>
        <time>2020-07-15T23:23:43.045Z</time>
      </trkpt>
      <trkpt lat="64.46847" lon="11.49131">
        <ele>7.41877</ele>
        <time>2020-07-15T23:23:44.042Z</time>
      </trkpt>
      <trkpt lat="64.46846" lon="11.49124">
        <ele>7.384199</ele>
        <time>2020-07-15T23:23:44.438Z</time>
      </trkpt>
      <trkpt lat="64.46846" lon="11.49116">
        <ele>7.337863</ele>
        <time>2020-07-15T23:23:44.985Z</time>
      </trkpt>
      <trkpt lat="64.46848" lon="11.49095">
        <ele>7.228767</ele>
        <time>2020-07-15T23:23:46.223Z</time>
      </trkpt>
      <trkpt lat="64.46851" lon="11.49083">
        <ele>7.156013</ele>
        <time>2020-07-15T23:23:47.115Z</time>
      </trkpt>
      <trkpt lat="64.46854" lon="11.4907">
        <ele>7.079897</ele>
        <time>2020-07-15T23:23:48.015Z</time>
      </trkpt>
      <trkpt lat="64.46865" lon="11.49011">
        <ele>6.737597</ele>
        <time>2020-07-15T23:23:52.157Z</time>
      </trkpt>
      <trkpt lat="64.46869" lon="11.48982">
        <ele>6.576665</ele>
        <time>2020-07-15T23:23:54.195Z</time>
      </trkpt>
      <trkpt lat="64.46873" lon="11.48956">
        <ele>6.430188</ele>
        <time>2020-07-15T23:23:56.116Z</time>
      </trkpt>
      <trkpt lat="64.4687" lon="11.48952">
        <ele>6.381822</ele>
        <time>2020-07-15T23:23:56.718Z</time>
      </trkpt>
      <trkpt lat="64.46868" lon="11.4895">
        <ele>6.360951</ele>
        <time>2020-07-15T23:23:56.976Z</time>
      </trkpt>
      <trkpt lat="64.46883" lon="11.48864">
        <ele>5.875589</ele>
        <time>2020-07-15T23:24:03.704Z</time>
      </trkpt>
      <trkpt lat="64.46889" lon="11.48829">
        <ele>5.677325</ele>
        <time>2020-07-15T23:24:06.488Z</time>
      </trkpt>
      <trkpt lat="64.46913" lon="11.4869">
        <ele>5.182406</ele>
        <time>2020-07-15T23:24:17.130Z</time>
      </trkpt>
      <trkpt lat="64.46927" lon="11.48611">
        <ele>4.938504</ele>
        <time>2020-07-15T23:24:23.089Z</time>
      </trkpt>
      <trkpt lat="64.4694" lon="11.48538">
        <ele>4.715147</ele>
        <time>2020-07-15T23:24:28.678Z</time>
      </trkpt>
      <trkpt lat="64.46941" lon="11.48506">
        <ele>4.623928</ele>
        <time>2020-07-15T23:24:30.794Z</time>
      </trkpt>
      <trkpt lat="64.4695" lon="11.48503">
        <ele>4.569618</ele>
        <time>2020-07-15T23:24:32.252Z</time>
      </trkpt>
      <trkpt lat="64.46956" lon="11.4845">
        <ele>4.412619</ele>
        <time>2020-07-15T23:24:35.708Z</time>
      </trkpt>
      <trkpt lat="64.46962" lon="11.48393">
        <ele>4.849675</ele>
        <time>2020-07-15T23:24:41.214Z</time>
      </trkpt>
      <trkpt lat="64.46964" lon="11.48369">
        <ele>5.217223</ele>
        <time>2020-07-15T23:24:42.754Z</time>
      </trkpt>
      <trkpt lat="64.46967" lon="11.48337">
        <ele>5.712227</ele>
        <time>2020-07-15T23:24:46.703Z</time>
      </trkpt>
      <trkpt lat="64.46968" lon="11.48241">
        <ele>7.160333</ele>
        <time>2020-07-15T23:24:56.139Z</time>
      </trkpt>
      <trkpt lat="64.46964" lon="11.48189">
        <ele>7.955421</ele>
        <time>2020-07-15T23:25:02.054Z</time>
      </trkpt>
      <trkpt lat="64.4696" lon="11.48139">
        <ele>8.714262</ele>
        <time>2020-07-15T23:25:07.996Z</time>
      </trkpt>
      <trkpt lat="64.4696" lon="11.48123">
        <ele>8.954083</ele>
        <time>2020-07-15T23:25:09.508Z</time>
      </trkpt>
      <trkpt lat="64.4696" lon="11.48106">
        <ele>9.221003</ele>
        <time>2020-07-15T23:25:13.001Z</time>
      </trkpt>
      <trkpt lat="64.46964" lon="11.47988">
        <ele>11.756426</ele>
        <time>2020-07-15T23:25:33.807Z</time>
      </trkpt>
      <trkpt lat="64.46965" lon="11.47967">
        <ele>12.72414</ele>
        <time>2020-07-15T23:25:37.503Z</time>
      </trkpt>
      <trkpt lat="64.4697" lon="11.47832">
        <ele>18.994544</ele>
        <time>2020-07-15T23:26:08.978Z</time>
      </trkpt>
      <trkpt lat="64.46974" lon="11.47714">
        <ele>24.447897</ele>
        <time>2020-07-15T23:26:39.645Z</time>
      </trkpt>
      <trkpt lat="64.46976" lon="11.47692">
        <ele>25.449614</ele>
        <time>2020-07-15T23:26:43.674Z</time>
      </trkpt>
      <trkpt lat="64.46978" lon="11.47669">
        <ele>26.554482</ele>
        <time>2020-07-15T23:26:49.830Z</time>
      </trkpt>
      <trkpt lat="64.46981" lon="11.47652">
        <ele>27.39602</ele>
        <time>2020-07-15T23:26:55.713Z</time>
      </trkpt>
      <trkpt lat="64.46994" lon="11.47588">
        <ele>30.395722</ele>
        <time>2020-07-15T23:27:10.863Z</time>
      </trkpt>
      <trkpt lat="64.46998" lon="11.47574">
        <ele>30.915206</ele>
        <time>2020-07-15T23:27:16.271Z</time>
      </trkpt>
      <trkpt lat="64.47013" lon="11.47525">
        <ele>32.803541</ele>
        <time>2020-07-15T23:27:28.210Z</time>
      </trkpt>
      <trkpt lat="64.47078" lon="11.47313">
        <ele>40.843371</ele>
        <time>2020-07-15T23:28:15.618Z</time>
      </trkpt>
      <trkpt lat="64.47088" lon="11.47261">
        <ele>42.604493</ele>
        <time>2020-07-15T23:28:22.742Z</time>
      </trkpt>
      <trkpt lat="64.47094" lon="11.47174">
        <ele>42.755742</ele>
        <time>2020-07-15T23:28:29.823Z</time>
      </trkpt>
      <trkpt lat="64.47104" lon="11.47096">
        <ele>42.72719</ele>
        <time>2020-07-15T23:28:35.747Z</time>
      </trkpt>
      <trkpt lat="64.47113" lon="11.47057">
        <ele>42.712109</ele>
        <time>2020-07-15T23:28:38.723Z</time>
      </trkpt>
      <trkpt lat="64.47133" lon="11.47009">
        <ele>42.688835</ele>
        <time>2020-07-15T23:28:43.558Z</time>
      </trkpt>
      <trkpt lat="64.47154" lon="11.46969">
        <ele>42.667123</ele>
        <time>2020-07-15T23:28:47.757Z</time>
      </trkpt>
      <trkpt lat="64.47165" lon="11.46945">
        <ele>42.654753</ele>
        <time>2020-07-15T23:28:49.944Z</time>
      </trkpt>
      <trkpt lat="64.47193" lon="11.4689">
        <ele>42.29412</ele>
        <time>2020-07-15T23:28:55.189Z</time>
      </trkpt>
      <trkpt lat="64.47199" lon="11.46877">
        <ele>42.124345</ele>
        <time>2020-07-15T23:28:56.297Z</time>
      </trkpt>
      <trkpt lat="64.47216" lon="11.46844">
        <ele>41.668494</ele>
        <time>2020-07-15T23:28:59.479Z</time>
      </trkpt>
      <trkpt lat="64.47251" lon="11.46775">
        <ele>40.73961</ele>
        <time>2020-07-15T23:29:05.654Z</time>
      </trkpt>
      <trkpt lat="64.47255" lon="11.46767">
        <ele>40.632669</ele>
        <time>2020-07-15T23:29:06.320Z</time>
      </trkpt>
      <trkpt lat="64.47266" lon="11.46744">
        <ele>40.341989</ele>
        <time>2020-07-15T23:29:08.416Z</time>
      </trkpt>
      <trkpt lat="64.4728" lon="11.46713">
        <ele>39.944902</ele>
        <time>2020-07-15T23:29:11.100Z</time>
      </trkpt>
      <trkpt lat="64.47299" lon="11.46676">
        <ele>39.435098</ele>
        <time>2020-07-15T23:29:14.926Z</time>
      </trkpt>
      <trkpt lat="64.47308" lon="11.46663">
        <ele>39.222438</ele>
        <time>2020-07-15T23:29:16.366Z</time>
      </trkpt>
      <trkpt lat="64.47312" lon="11.46659">
        <ele>39.138144</ele>
        <time>2020-07-15T23:29:16.921Z</time>
      </trkpt>
      <trkpt lat="64.47353" lon="11.46636">
        <ele>37.85495</ele>
        <time>2020-07-15T23:29:23.241Z</time>
      </trkpt>
      <trkpt lat="64.47384" lon="11.46625">
        <ele>36.798695</ele>
        <time>2020-07-15T23:29:27.716Z</time>
      </trkpt>
      <trkpt lat="64.47406" lon="11.46618">
        <ele>36.091339</ele>
        <time>2020-07-15T23:29:30.845Z</time>
      </trkpt>
      <trkpt lat="64.47425" lon="11.46613">
        <ele>35.46571</ele>
        <time>2020-07-15T23:29:33.270Z</time>
      </trkpt>
      <trkpt lat="64.47508" lon="11.46631">
        <ele>32.654342</ele>
        <time>2020-07-15T23:29:43.452Z</time>
      </trkpt>
      <trkpt lat="64.47517" lon="11.46635">
        <ele>32.283193</ele>
        <time>2020-07-15T23:29:44.534Z</time>
      </trkpt>
      <trkpt lat="64.47531" lon="11.46647">
        <ele>31.676863</ele>
        <time>2020-07-15T23:29:46.287Z</time>
      </trkpt>
      <trkpt lat="64.47557" lon="11.46673">
        <ele>30.557534</ele>
        <time>2020-07-15T23:29:49.647Z</time>
      </trkpt>
      <trkpt lat="64.47595" lon="11.46714">
        <ele>28.871623</ele>
        <time>2020-07-15T23:29:54.826Z</time>
      </trkpt>
      <trkpt lat="64.47611" lon="11.46729">
        <ele>28.176548</ele>
        <time>2020-07-15T23:29:57.430Z</time>
      </trkpt>
      <trkpt lat="64.47622" lon="11.46738">
        <ele>27.717198</ele>
        <time>2020-07-15T23:29:58.740Z</time>
      </trkpt>
      <trkpt lat="64.4767" lon="11.46773">
        <ele>26.019697</ele>
        <time>2020-07-15T23:30:05.676Z</time>
      </trkpt>
      <trkpt lat="64.47692" lon="11.46796">
        <ele>26.544342</ele>
        <time>2020-07-15T23:30:08.980Z</time>
      </trkpt>
      <trkpt lat="64.47709" lon="11.46833">
        <ele>27.065328</ele>
        <time>2020-07-15T23:30:14.468Z</time>
      </trkpt>
      <trkpt lat="64.47718" lon="11.4685">
        <ele>27.31334</ele>
        <time>2020-07-15T23:30:15.843Z</time>
      </trkpt>
      <trkpt lat="64.4774" lon="11.46891">
        <ele>27.930954</ele>
        <time>2020-07-15T23:30:23.587Z</time>
      </trkpt>
      <trkpt lat="64.4778" lon="11.46947">
        <ele>28.967701</ele>
        <time>2020-07-15T23:30:37.746Z</time>
      </trkpt>
      <trkpt lat="64.47794" lon="11.46961">
        <ele>29.292857</ele>
        <time>2020-07-15T23:30:43.273Z</time>
      </trkpt>
      <trkpt lat="64.47799" lon="11.46966">
        <ele>29.41096</ele>
        <time>2020-07-15T23:30:45.358Z</time>
      </trkpt>
      <trkpt lat="64.47866" lon="11.47023">
        <ele>33.122869</ele>
        <time>2020-07-15T23:31:10.733Z</time>
      </trkpt>
      <trkpt lat="64.47891" lon="11.47048">
        <ele>34.870047</ele>
        <time>2020-07-15T23:31:22.243Z</time>
      </trkpt>
      <trkpt lat="64.47902" lon="11.47061">
        <ele>35.716526</ele>
        <time>2020-07-15T23:31:27.214Z</time>
      </trkpt>
      <trkpt lat="64.47944" lon="11.47126">
        <ele>38.94161</ele>
        <time>2020-07-15T23:31:46.677Z</time>
      </trkpt>
      <trkpt lat="64.47972" lon="11.47183">
        <ele>41.324998</ele>
        <time>2020-07-15T23:32:01.130Z</time>
      </trkpt>
      <trkpt lat="64.47976" lon="11.47194">
        <ele>41.601475</ele>
        <time>2020-07-15T23:32:05.835Z</time>
      </trkpt>
      <trkpt lat="64.47982" lon="11.47208">
        <ele>41.928837</ele>
        <time>2020-07-15T23:32:08.898Z</time>
      </trkpt>
      <trkpt lat="64.47995" lon="11.47248">
        <ele>42.737505</ele>
        <time>2020-07-15T23:32:15.514Z</time>
      </trkpt>
      <trkpt lat="64.47998" lon="11.47256">
        <ele>42.89993</ele>
        <time>2020-07-15T23:32:19.513Z</time>
      </trkpt>
      <trkpt lat="64.48031" lon="11.4742">
        <ele>45.811828</ele>
        <time>2020-07-15T23:32:45.467Z</time>
      </trkpt>
      <trkpt lat="64.48054" lon="11.47485">
        <ele>47.181087</ele>
        <time>2020-07-15T23:32:55.508Z</time>
      </trkpt>
      <trkpt lat="64.48085" lon="11.47536">
        <ele>47.37733</ele>
        <time>2020-07-15T23:33:02.792Z</time>
      </trkpt>
      <trkpt lat="64.48168" lon="11.47634">
        <ele>41.346079</ele>
        <time>2020-07-15T23:33:13.769Z</time>
      </trkpt>
      <trkpt lat="64.48278" lon="11.47865">
        <ele>30.25756</ele>
        <time>2020-07-15T23:33:29.901Z</time>
      </trkpt>
      <trkpt lat="64.48296" lon="11.47889">
        <ele>28.494866</ele>
        <time>2020-07-15T23:33:32.163Z</time>
      </trkpt>
      <trkpt lat="64.48332" lon="11.47915">
        <ele>25.306129</ele>
        <time>2020-07-15T23:33:36.306Z</time>
      </trkpt>
      <trkpt lat="64.48468" lon="11.47966">
        <ele>18.040461</ele>
        <time>2020-07-15T23:33:52.817Z</time>
      </trkpt>
      <trkpt lat="64.48471" lon="11.47971">
        <ele>17.907554</ele>
        <time>2020-07-15T23:33:53.286Z</time>
      </trkpt>
      <trkpt lat="64.48472" lon="11.47977">
        <ele>17.808709</ele>
        <time>2020-07-15T23:33:53.676Z</time>
      </trkpt>
      <trkpt lat="64.48476" lon="11.47991">
        <ele>17.565684</ele>
        <time>2020-07-15T23:33:54.665Z</time>
      </trkpt>
      <trkpt lat="64.48478" lon="11.48006">
        <ele>17.334633</ele>
        <time>2020-07-15T23:33:55.610Z</time>
      </trkpt>
      <trkpt lat="64.48479" lon="11.48015">
        <ele>17.180624</ele>
        <time>2020-07-15T23:33:56.233Z</time>
      </trkpt>
      <trkpt lat="64.48547" lon="11.47943">
        <ele>14.875612</ele>
        <time>2020-07-15T23:34:07.265Z</time>
      </trkpt>
      <trkpt lat="64.48645" lon="11.47841">
        <ele>14.918964</ele>
        <time>2020-07-15T23:34:25.770Z</time>
      </trkpt>
      <trkpt lat="64.48757" lon="11.47782">
        <ele>15.949897</ele>
        <time>2020-07-15T23:34:49.530Z</time>
      </trkpt>
      <trkpt lat="64.48906" lon="11.47653">
        <ele>19.024299</ele>
        <time>2020-07-15T23:35:30.658Z</time>
      </trkpt>
      <trkpt lat="64.48922" lon="11.47631">
        <ele>19.347581</ele>
        <time>2020-07-15T23:35:34.970Z</time>
      </trkpt>
      <trkpt lat="64.48927" lon="11.47623">
        <ele>19.459136</ele>
        <time>2020-07-15T23:35:36.356Z</time>
      </trkpt>
      <trkpt lat="64.48931" lon="11.47615">
        <ele>19.546817</ele>
        <time>2020-07-15T23:35:37.431Z</time>
      </trkpt>
      <trkpt lat="64.48934" lon="11.47607">
        <ele>19.632679</ele>
        <time>2020-07-15T23:35:39.511Z</time>
      </trkpt>
      <trkpt lat="64.49007" lon="11.47395">
        <ele>21.647678</ele>
        <time>2020-07-15T23:36:06.572Z</time>
      </trkpt>
      <trkpt lat="64.49027" lon="11.47303">
        <ele>21.30496</ele>
        <time>2020-07-15T23:36:14.977Z</time>
      </trkpt>
      <trkpt lat="64.4907" lon="11.47045">
        <ele>20.371303</ele>
        <time>2020-07-15T23:36:32.835Z</time>
      </trkpt>
      <trkpt lat="64.4908" lon="11.47009">
        <ele>20.188801</ele>
        <time>2020-07-15T23:36:35.448Z</time>
      </trkpt>
      <trkpt lat="64.491" lon="11.46965">
        <ele>19.688255</ele>
        <time>2020-07-15T23:36:39.425Z</time>
      </trkpt>
      <trkpt lat="64.49121" lon="11.46941">
        <ele>19.279626</ele>
        <time>2020-07-15T23:36:42.674Z</time>
      </trkpt>
      <trkpt lat="64.49176" lon="11.46927">
        <ele>18.286194</ele>
        <time>2020-07-15T23:36:50.578Z</time>
      </trkpt>
      <trkpt lat="64.49335" lon="11.46943">
        <ele>15.281257</ele>
        <time>2020-07-15T23:37:13.348Z</time>
      </trkpt>
      <trkpt lat="64.49408" lon="11.46952">
        <ele>13.842789</ele>
        <time>2020-07-15T23:37:23.608Z</time>
      </trkpt>
      <trkpt lat="64.49444" lon="11.46958">
        <ele>13.225845</ele>
        <time>2020-07-15T23:37:28.654Z</time>
      </trkpt>
      <trkpt lat="64.49464" lon="11.46959">
        <ele>12.927434</ele>
        <time>2020-07-15T23:37:31.539Z</time>
      </trkpt>
      <trkpt lat="64.49474" lon="11.46961">
        <ele>12.780571</ele>
        <time>2020-07-15T23:37:32.847Z</time>
      </trkpt>
      <trkpt lat="64.49702" lon="11.46988">
        <ele>10.602067</ele>
        <time>2020-07-15T23:38:07.524Z</time>
      </trkpt>
      <trkpt lat="64.49728" lon="11.46991">
        <ele>10.535311</ele>
        <time>2020-07-15T23:38:12.435Z</time>
      </trkpt>
      <trkpt lat="64.49858" lon="11.47007">
        <ele>11.232809</ele>
        <time>2020-07-15T23:38:39.619Z</time>
      </trkpt>
      <trkpt lat="64.49903" lon="11.47024">
        <ele>11.757819</ele>
        <time>2020-07-15T23:38:49.716Z</time>
      </trkpt>
      <trkpt lat="64.49923" lon="11.47036">
        <ele>11.991041</ele>
        <time>2020-07-15T23:38:54.236Z</time>
      </trkpt>
      <trkpt lat="64.49946" lon="11.47051">
        <ele>12.273214</ele>
        <time>2020-07-15T23:38:59.607Z</time>
      </trkpt>
      <trkpt lat="64.49998" lon="11.47071">
        <ele>12.860506</ele>
        <time>2020-07-15T23:39:10.839Z</time>
      </trkpt>
      <trkpt lat="64.50097" lon="11.47058">
        <ele>13.976784</ele>
        <time>2020-07-15T23:39:32.243Z</time>
      </trkpt>
      <trkpt lat="64.50111" lon="11.47059">
        <ele>14.132702</ele>
        <time>2020-07-15T23:39:35.096Z</time>
      </trkpt>
      <trkpt lat="64.50116" lon="11.47059">
        <ele>14.186537</ele>
        <time>2020-07-15T23:39:36.096Z</time>
      </trkpt>
      <trkpt lat="64.50142" lon="11.47065">
        <ele>14.50185</ele>
        <time>2020-07-15T23:39:41.622Z</time>
      </trkpt>
      <trkpt lat="64.50153" lon="11.47069">
        <ele>14.724677</ele>
        <time>2020-07-15T23:39:43.696Z</time>
      </trkpt>
      <trkpt lat="64.50169" lon="11.47076">
        <ele>15.082683</ele>
        <time>2020-07-15T23:39:47.063Z</time>
      </trkpt>
      <trkpt lat="64.50228" lon="11.47123">
        <ele>16.433549</ele>
        <time>2020-07-15T23:40:01.938Z</time>
      </trkpt>
      <trkpt lat="64.5024" lon="11.47137">
        <ele>16.720249</ele>
        <time>2020-07-15T23:40:05.104Z</time>
      </trkpt>
      <trkpt lat="64.50244" lon="11.47141">
        <ele>16.819563</ele>
        <time>2020-07-15T23:40:06.238Z</time>
      </trkpt>
      <trkpt lat="64.50297" lon="11.47221">
        <ele>18.17118</ele>
        <time>2020-07-15T23:40:23.344Z</time>
      </trkpt>
      <trkpt lat="64.50313" lon="11.47255">
        <ele>18.846544</ele>
        <time>2020-07-15T23:40:29.122Z</time>
      </trkpt>
      <trkpt lat="64.50317" lon="11.47262">
        <ele>19.023883</ele>
        <time>2020-07-15T23:40:31.109Z</time>
      </trkpt>
      <trkpt lat="64.50347" lon="11.4734">
        <ele>20.646213</ele>
        <time>2020-07-15T23:40:44.341Z</time>
      </trkpt>
      <trkpt lat="64.50376" lon="11.47444">
        <ele>22.592985</ele>
        <time>2020-07-15T23:41:00.918Z</time>
      </trkpt>
      <trkpt lat="64.50554" lon="11.48263">
        <ele>34.834229</ele>
        <time>2020-07-15T23:42:55.194Z</time>
      </trkpt>
      <trkpt lat="64.50581" lon="11.4837">
        <ele>35.242294</ele>
        <time>2020-07-15T23:43:03.483Z</time>
      </trkpt>
      <trkpt lat="64.50605" lon="11.48433">
        <ele>34.851031</ele>
        <time>2020-07-15T23:43:08.692Z</time>
      </trkpt>
      <trkpt lat="64.50632" lon="11.48487">
        <ele>34.459669</ele>
        <time>2020-07-15T23:43:13.661Z</time>
      </trkpt>
      <trkpt lat="64.50811" lon="11.48765">
        <ele>32.824749</ele>
        <time>2020-07-15T23:43:46.831Z</time>
      </trkpt>
      <trkpt lat="64.50853" lon="11.48798">
        <ele>32.578186</ele>
        <time>2020-07-15T23:43:56.067Z</time>
      </trkpt>
      <trkpt lat="64.50889" lon="11.48802">
        <ele>32.352038</ele>
        <time>2020-07-15T23:44:03.431Z</time>
      </trkpt>
      <trkpt lat="64.51057" lon="11.48733">
        <ele>30.505379</ele>
        <time>2020-07-15T23:44:30.570Z</time>
      </trkpt>
      <trkpt lat="64.51105" lon="11.48691">
        <ele>28.516268</ele>
        <time>2020-07-15T23:44:37.161Z</time>
      </trkpt>
      <trkpt lat="64.51272" lon="11.48487">
        <ele>20.982093</ele>
        <time>2020-07-15T23:45:00.040Z</time>
      </trkpt>
      <trkpt lat="64.51317" lon="11.48461">
        <ele>19.042214</ele>
        <time>2020-07-15T23:45:05.911Z</time>
      </trkpt>
      <trkpt lat="64.51331" lon="11.4846">
        <ele>18.449312</ele>
        <time>2020-07-15T23:45:07.707Z</time>
      </trkpt>
      <trkpt lat="64.51331" lon="11.48477">
        <ele>18.143992</ele>
        <time>2020-07-15T23:45:09.038Z</time>
      </trkpt>
      <trkpt lat="64.51334" lon="11.48477">
        <ele>18.006151</ele>
        <time>2020-07-15T23:45:09.437Z</time>
      </trkpt>
      <trkpt lat="64.51372" lon="11.48494">
        <ele>16.755956</ele>
        <time>2020-07-15T23:45:14.478Z</time>
      </trkpt>
      <trkpt lat="64.51397" lon="11.48523">
        <ele>16.282853</ele>
        <time>2020-07-15T23:45:18.370Z</time>
      </trkpt>
      <trkpt lat="64.51432" lon="11.48588">
        <ele>15.539459</ele>
        <time>2020-07-15T23:45:24.666Z</time>
      </trkpt>
      <trkpt lat="64.51476" lon="11.48692">
        <ele>14.494311</ele>
        <time>2020-07-15T23:45:34.248Z</time>
      </trkpt>
      <trkpt lat="64.51497" lon="11.48751">
        <ele>13.960511</ele>
        <time>2020-07-15T23:45:39.705Z</time>
      </trkpt>
      <trkpt lat="64.51518" lon="11.48808">
        <ele>13.679101</ele>
        <time>2020-07-15T23:45:45.065Z</time>
      </trkpt>
      <trkpt lat="64.5157" lon="11.48918">
        <ele>13.070799</ele>
        <time>2020-07-15T23:45:56.278Z</time>
      </trkpt>
      <trkpt lat="64.5159" lon="11.48989">
        <ele>12.752553</ele>
        <time>2020-07-15T23:46:01.985Z</time>
      </trkpt>
      <trkpt lat="64.51602" lon="11.4907">
        <ele>12.434647</ele>
        <time>2020-07-15T23:46:07.616Z</time>
      </trkpt>
      <trkpt lat="64.51631" lon="11.49374">
        <ele>11.135193</ele>
        <time>2020-07-15T23:46:27.850Z</time>
      </trkpt>
      <trkpt lat="64.51666" lon="11.49577">
        <ele>11.548124</ele>
        <time>2020-07-15T23:46:43.253Z</time>
      </trkpt>
      <trkpt lat="64.51671" lon="11.49632">
        <ele>12.000771</ele>
        <time>2020-07-15T23:46:48.086Z</time>
      </trkpt>
      <trkpt lat="64.51668" lon="11.49734">
        <ele>12.831887</ele>
        <time>2020-07-15T23:46:59.735Z</time>
      </trkpt>
      <trkpt lat="64.51648" lon="11.49948">
        <ele>15.282691</ele>
        <time>2020-07-15T23:47:27.270Z</time>
      </trkpt>
      <trkpt lat="64.51639" lon="11.50005">
        <ele>16.369069</ele>
        <time>2020-07-15T23:47:35.595Z</time>
      </trkpt>
      <trkpt lat="64.51633" lon="11.50039">
        <ele>17.040974</ele>
        <time>2020-07-15T23:47:40.916Z</time>
      </trkpt>
      <trkpt lat="64.51608" lon="11.50149">
        <ele>19.291162</ele>
        <time>2020-07-15T23:47:58.470Z</time>
      </trkpt>
      <trkpt lat="64.51539" lon="11.50382">
        <ele>22.962118</ele>
        <time>2020-07-15T23:48:36.205Z</time>
      </trkpt>
      <trkpt lat="64.51512" lon="11.50444">
        <ele>23.726856</ele>
        <time>2020-07-15T23:48:45.447Z</time>
      </trkpt>
      <trkpt lat="64.5144" lon="11.50566">
        <ele>24.812766</ele>
        <time>2020-07-15T23:49:03.093Z</time>
      </trkpt>
      <trkpt lat="64.51414" lon="11.50627">
        <ele>23.64832</ele>
        <time>2020-07-15T23:49:08.911Z</time>
      </trkpt>
      <trkpt lat="64.51331" lon="11.50896">
        <ele>18.888848</ele>
        <time>2020-07-15T23:49:26.654Z</time>
      </trkpt>
      <trkpt lat="64.5131" lon="11.50979">
        <ele>16.715535</ele>
        <time>2020-07-15T23:49:31.508Z</time>
      </trkpt>
      <trkpt lat="64.51304" lon="11.51018">
        <ele>15.782492</ele>
        <time>2020-07-15T23:49:33.768Z</time>
      </trkpt>
      <trkpt lat="64.51302" lon="11.51046">
        <ele>15.161524</ele>
        <time>2020-07-15T23:49:35.090Z</time>
      </trkpt>
      <trkpt lat="64.51301" lon="11.51056">
        <ele>14.924248</ele>
        <time>2020-07-15T23:49:35.594Z</time>
      </trkpt>
      <trkpt lat="64.513" lon="11.51136">
        <ele>13.11366</ele>
        <time>2020-07-15T23:49:39.698Z</time>
      </trkpt>
      <trkpt lat="64.51315" lon="11.51266">
        <ele>10.125029</ele>
        <time>2020-07-15T23:49:46.840Z</time>
      </trkpt>
      <trkpt lat="64.51324" lon="11.51329">
        <ele>9.536621</ele>
        <time>2020-07-15T23:49:50.242Z</time>
      </trkpt>
      <trkpt lat="64.51341" lon="11.51432">
        <ele>8.532455</ele>
        <time>2020-07-15T23:49:56.542Z</time>
      </trkpt>
      <trkpt lat="64.5135" lon="11.51473">
        <ele>8.123751</ele>
        <time>2020-07-15T23:49:59.421Z</time>
      </trkpt>
      <trkpt lat="64.51354" lon="11.51489">
        <ele>7.949829</ele>
        <time>2020-07-15T23:50:00.741Z</time>
      </trkpt>
      <trkpt lat="64.5136" lon="11.5151">
        <ele>7.719018</ele>
        <time>2020-07-15T23:50:02.480Z</time>
      </trkpt>
      <trkpt lat="64.51362" lon="11.51517">
        <ele>7.644399</ele>
        <time>2020-07-15T23:50:03.020Z</time>
      </trkpt>
      <trkpt lat="64.51366" lon="11.51528">
        <ele>7.51728</ele>
        <time>2020-07-15T23:50:03.936Z</time>
      </trkpt>
      <trkpt lat="64.51376" lon="11.51545">
        <ele>7.261582</ele>
        <time>2020-07-15T23:50:05.851Z</time>
      </trkpt>
      <trkpt lat="64.51392" lon="11.51574">
        <ele>6.82703</ele>
        <time>2020-07-15T23:50:09.220Z</time>
      </trkpt>
      <trkpt lat="64.51407" lon="11.51618">
        <ele>6.407878</ele>
        <time>2020-07-15T23:50:13.267Z</time>
      </trkpt>
      <trkpt lat="64.51443" lon="11.51798">
        <ele>6.831918</ele>
        <time>2020-07-15T23:50:29.631Z</time>
      </trkpt>
      <trkpt lat="64.51473" lon="11.51912">
        <ele>7.119444</ele>
        <time>2020-07-15T23:50:41.213Z</time>
      </trkpt>
      <trkpt lat="64.51511" lon="11.51968">
        <ele>7.429945</ele>
        <time>2020-07-15T23:50:50.600Z</time>
      </trkpt>
      <trkpt lat="64.51524" lon="11.51977">
        <ele>7.601946</ele>
        <time>2020-07-15T23:50:53.659Z</time>
      </trkpt>
      <trkpt lat="64.51532" lon="11.5198">
        <ele>7.712613</ele>
        <time>2020-07-15T23:50:55.129Z</time>
      </trkpt>
      <trkpt lat="64.51585" lon="11.5199">
        <ele>8.393596</ele>
        <time>2020-07-15T23:51:06.588Z</time>
      </trkpt>
      <trkpt lat="64.51619" lon="11.5203">
        <ele>8.895739</ele>
        <time>2020-07-15T23:51:15.209Z</time>
      </trkpt>
      <trkpt lat="64.51702" lon="11.5222">
        <ele>10.473371</ele>
        <time>2020-07-15T23:51:42.033Z</time>
      </trkpt>
      <trkpt lat="64.51736" lon="11.52338">
        <ele>11.330063</ele>
        <time>2020-07-15T23:51:55.875Z</time>
      </trkpt>
      <trkpt lat="64.51745" lon="11.52402">
        <ele>11.74213</ele>
        <time>2020-07-15T23:52:02.271Z</time>
      </trkpt>
      <trkpt lat="64.51749" lon="11.52473">
        <ele>12.160401</ele>
        <time>2020-07-15T23:52:08.866Z</time>
      </trkpt>
      <trkpt lat="64.51742" lon="11.52685">
        <ele>12.616641</ele>
        <time>2020-07-15T23:52:27.377Z</time>
      </trkpt>
      <trkpt lat="64.51731" lon="11.52834">
        <ele>12.943077</ele>
        <time>2020-07-15T23:52:39.628Z</time>
      </trkpt>
      <trkpt lat="64.51695" lon="11.53103">
        <ele>12.521785</ele>
        <time>2020-07-15T23:53:00.878Z</time>
      </trkpt>
      <trkpt lat="64.51696" lon="11.53237">
        <ele>12.216047</ele>
        <time>2020-07-15T23:53:10.231Z</time>
      </trkpt>
      <trkpt lat="64.5178" lon="11.53752">
        <ele>7.948356</ele>
        <time>2020-07-15T23:53:44.026Z</time>
      </trkpt>
      <trkpt lat="64.51797" lon="11.53797">
        <ele>7.325147</ele>
        <time>2020-07-15T23:53:47.568Z</time>
      </trkpt>
      <trkpt lat="64.51817" lon="11.5383">
        <ele>6.71505</ele>
        <time>2020-07-15T23:53:50.835Z</time>
      </trkpt>
      <trkpt lat="64.51838" lon="11.53849">
        <ele>6.171735</ele>
        <time>2020-07-15T23:53:53.740Z</time>
      </trkpt>
      <trkpt lat="64.51865" lon="11.53857">
        <ele>5.504514</ele>
        <time>2020-07-15T23:53:57.594Z</time>
      </trkpt>
      <trkpt lat="64.51868" lon="11.5386">
        <ele>5.43475</ele>
        <time>2020-07-15T23:53:57.916Z</time>
      </trkpt>
      <trkpt lat="64.51874" lon="11.53869">
        <ele>5.247759</ele>
        <time>2020-07-15T23:53:58.898Z</time>
      </trkpt>
      <trkpt lat="64.51885" lon="11.53871">
        <ele>4.989901</ele>
        <time>2020-07-15T23:54:00.426Z</time>
      </trkpt>
      <trkpt lat="64.51899" lon="11.53836">
        <ele>4.474908</ele>
        <time>2020-07-15T23:54:03.231Z</time>
      </trkpt>
      <trkpt lat="64.51947" lon="11.53759">
        <ele>3.707816</ele>
        <time>2020-07-15T23:54:11.366Z</time>
      </trkpt>
      <trkpt lat="64.52027" lon="11.53653">
        <ele>2.552764</ele>
        <time>2020-07-15T23:54:25.152Z</time>
      </trkpt>
      <trkpt lat="64.52046" lon="11.53638">
        <ele>2.303551</ele>
        <time>2020-07-15T23:54:28.580Z</time>
      </trkpt>
      <trkpt lat="64.52106" lon="11.53609">
        <ele>2.584274</ele>
        <time>2020-07-15T23:54:40.812Z</time>
      </trkpt>
      <trkpt lat="64.52133" lon="11.53613">
        <ele>2.828524</ele>
        <time>2020-07-15T23:54:46.603Z</time>
      </trkpt>
      <trkpt lat="64.52153" lon="11.53628">
        <ele>3.019637</ele>
        <time>2020-07-15T23:54:51.207Z</time>
      </trkpt>
      <trkpt lat="64.52186" lon="11.53698">
        <ele>3.423915</ele>
        <time>2020-07-15T23:55:01.143Z</time>
      </trkpt>
      <trkpt lat="64.52197" lon="11.53725">
        <ele>3.567915</ele>
        <time>2020-07-15T23:55:04.857Z</time>
      </trkpt>
      <trkpt lat="64.52216" lon="11.53773">
        <ele>3.778686</ele>
        <time>2020-07-15T23:55:10.889Z</time>
      </trkpt>
      <trkpt lat="64.52251" lon="11.53869">
        <ele>3.778328</ele>
        <time>2020-07-15T23:55:21.710Z</time>
      </trkpt>
      <trkpt lat="64.5227" lon="11.53901">
        <ele>3.778174</ele>
        <time>2020-07-15T23:55:26.215Z</time>
      </trkpt>
      <trkpt lat="64.52279" lon="11.53912">
        <ele>3.778108</ele>
        <time>2020-07-15T23:55:28.546Z</time>
      </trkpt>
      <trkpt lat="64.52281" lon="11.53914">
        <ele>3.778091</ele>
        <time>2020-07-15T23:55:28.851Z</time>
      </trkpt>
      <trkpt lat="64.52307" lon="11.53929">
        <ele>3.777914</ele>
        <time>2020-07-15T23:55:33.926Z</time>
      </trkpt>
      <trkpt lat="64.52356" lon="11.53926">
        <ele>3.777591</ele>
        <time>2020-07-15T23:55:41.594Z</time>
      </trkpt>
      <trkpt lat="64.52465" lon="11.53824">
        <ele>2.541427</ele>
        <time>2020-07-15T23:55:58.730Z</time>
      </trkpt>
      <trkpt lat="64.52533" lon="11.53818">
        <ele>1.757373</ele>
        <time>2020-07-15T23:56:09.218Z</time>
      </trkpt>
      <trkpt lat="64.5257" lon="11.5383">
        <ele>2.201658</ele>
        <time>2020-07-15T23:56:15.715Z</time>
      </trkpt>
      <trkpt lat="64.52582" lon="11.53839">
        <ele>2.379822</ele>
        <time>2020-07-15T23:56:17.991Z</time>
      </trkpt>
      <trkpt lat="64.52615" lon="11.53862">
        <ele>2.859824</ele>
        <time>2020-07-15T23:56:25.076Z</time>
      </trkpt>
      <trkpt lat="64.52626" lon="11.53868">
        <ele>3.015677</ele>
        <time>2020-07-15T23:56:27.317Z</time>
      </trkpt>
      <trkpt lat="64.52641" lon="11.53874">
        <ele>3.227118</ele>
        <time>2020-07-15T23:56:31.129Z</time>
      </trkpt>
      <trkpt lat="64.52654" lon="11.53874">
        <ele>3.411422</ele>
        <time>2020-07-15T23:56:34.033Z</time>
      </trkpt>
      <trkpt lat="64.52692" lon="11.53877">
        <ele>3.937975</ele>
        <time>2020-07-15T23:56:43.421Z</time>
      </trkpt>
      <trkpt lat="64.52703" lon="11.53879">
        <ele>4.08632</ele>
        <time>2020-07-15T23:56:45.999Z</time>
      </trkpt>
      <trkpt lat="64.52704" lon="11.53879">
        <ele>4.100333</ele>
        <time>2020-07-15T23:56:46.839Z</time>
      </trkpt>
      <trkpt lat="64.52843" lon="11.5398">
        <ele>9.444128</ele>
        <time>2020-07-15T23:57:32.657Z</time>
      </trkpt>
      <trkpt lat="64.52942" lon="11.54024">
        <ele>13.161025</ele>
        <time>2020-07-15T23:58:04.015Z</time>
      </trkpt>
      <trkpt lat="64.52953" lon="11.54025">
        <ele>13.532167</ele>
        <time>2020-07-15T23:58:07.784Z</time>
      </trkpt>
      <trkpt lat="64.52958" lon="11.54036">
        <ele>13.794094</ele>
        <time>2020-07-15T23:58:09.625Z</time>
      </trkpt>
      <trkpt lat="64.52981" lon="11.54041">
        <ele>14.600809</ele>
        <time>2020-07-15T23:58:16.741Z</time>
      </trkpt>
      <trkpt lat="64.52986" lon="11.54042">
        <ele>14.788657</ele>
        <time>2020-07-15T23:58:18.653Z</time>
      </trkpt>
      <trkpt lat="64.52994" lon="11.54041">
        <ele>15.084132</ele>
        <time>2020-07-15T23:58:20.771Z</time>
      </trkpt>
      <trkpt lat="64.53047" lon="11.54071">
        <ele>17.034324</ele>
        <time>2020-07-15T23:58:36.898Z</time>
      </trkpt>
      <trkpt lat="64.5305" lon="11.54073">
        <ele>17.160216</ele>
        <time>2020-07-15T23:58:37.978Z</time>
      </trkpt>
      <trkpt lat="64.53071" lon="11.5408">
        <ele>17.746356</ele>
        <time>2020-07-15T23:58:43.703Z</time>
      </trkpt>
      <trkpt lat="64.53074" lon="11.5408">
        <ele>17.79626</ele>
        <time>2020-07-15T23:58:45.293Z</time>
      </trkpt>
      <trkpt lat="64.53355" lon="11.54014">
        <ele>22.285691</ele>
        <time>2020-07-15T23:59:50.626Z</time>
      </trkpt>
      <trkpt lat="64.53379" lon="11.54015">
        <ele>22.59505</ele>
        <time>2020-07-15T23:59:54.843Z</time>
      </trkpt>
      <trkpt lat="64.5346" lon="11.54046">
        <ele>24.198239</ele>
        <time>2020-07-16T00:00:14.130Z</time>
      </trkpt>
      <trkpt lat="64.53468" lon="11.54037">
        <ele>24.418087</ele>
        <time>2020-07-16T00:00:16.901Z</time>
      </trkpt>
      <trkpt lat="64.53469" lon="11.5403">
        <ele>24.499672</ele>
        <time>2020-07-16T00:00:17.750Z</time>
      </trkpt>
      <trkpt lat="64.53491" lon="11.54048">
        <ele>25.094582</ele>
        <time>2020-07-16T00:00:23.748Z</time>
      </trkpt>
      <trkpt lat="64.53548" lon="11.54108">
        <ele>26.702116</ele>
        <time>2020-07-16T00:00:40.834Z</time>
      </trkpt>
      <trkpt lat="64.53572" lon="11.54132">
        <ele>27.366641</ele>
        <time>2020-07-16T00:00:49.102Z</time>
      </trkpt>
      <trkpt lat="64.53645" lon="11.5418">
        <ele>28.052297</ele>
        <time>2020-07-16T00:01:09.264Z</time>
      </trkpt>
      <trkpt lat="64.5371" lon="11.54182">
        <ele>28.408451</ele>
        <time>2020-07-16T00:01:24.359Z</time>
      </trkpt>
      <trkpt lat="64.53763" lon="11.54156">
        <ele>28.650135</ele>
        <time>2020-07-16T00:01:31.572Z</time>
      </trkpt>
      <trkpt lat="64.53887" lon="11.54047">
        <ele>23.858981</ele>
        <time>2020-07-16T00:01:47.927Z</time>
      </trkpt>
      <trkpt lat="64.53952" lon="11.54037">
        <ele>22.230385</ele>
        <time>2020-07-16T00:01:56.446Z</time>
      </trkpt>
      <trkpt lat="64.53988" lon="11.54043">
        <ele>22.32023</ele>
        <time>2020-07-16T00:02:01.993Z</time>
      </trkpt>
      <trkpt lat="64.54004" lon="11.54043">
        <ele>22.358334</ele>
        <time>2020-07-16T00:02:05.148Z</time>
      </trkpt>
      <trkpt lat="64.5406" lon="11.54026">
        <ele>22.49999</ele>
        <time>2020-07-16T00:02:17.328Z</time>
      </trkpt>
      <trkpt lat="64.54089" lon="11.54007">
        <ele>22.574453</ele>
        <time>2020-07-16T00:02:24.863Z</time>
      </trkpt>
      <trkpt lat="64.54151" lon="11.53963">
        <ele>22.433621</ele>
        <time>2020-07-16T00:02:41.762Z</time>
      </trkpt>
      <trkpt lat="64.542" lon="11.53925">
        <ele>22.195164</ele>
        <time>2020-07-16T00:02:51.694Z</time>
      </trkpt>
      <trkpt lat="64.54276" lon="11.53869">
        <ele>21.825707</ele>
        <time>2020-07-16T00:03:03.444Z</time>
      </trkpt>
      <trkpt lat="64.54307" lon="11.53847">
        <ele>20.236273</ele>
        <time>2020-07-16T00:03:07.479Z</time>
      </trkpt>
      <trkpt lat="64.54354" lon="11.53828">
        <ele>17.552927</ele>
        <time>2020-07-16T00:03:13.024Z</time>
      </trkpt>
      <trkpt lat="64.54402" lon="11.53833">
        <ele>14.7592</ele>
        <time>2020-07-16T00:03:18.621Z</time>
      </trkpt>
      <trkpt lat="64.54525" lon="11.5392">
        <ele>8.175041</ele>
        <time>2020-07-16T00:03:33.487Z</time>
      </trkpt>
      <trkpt lat="64.5456" lon="11.53931">
        <ele>6.520885</ele>
        <time>2020-07-16T00:03:37.841Z</time>
      </trkpt>
      <trkpt lat="64.546" lon="11.53928">
        <ele>4.627821</ele>
        <time>2020-07-16T00:03:43.010Z</time>
      </trkpt>
      <trkpt lat="64.54647" lon="11.53903">
        <ele>2.919781</ele>
        <time>2020-07-16T00:03:49.520Z</time>
      </trkpt>
      <trkpt lat="64.54656" lon="11.53895">
        <ele>2.81351</ele>
        <time>2020-07-16T00:03:50.838Z</time>
      </trkpt>
      <trkpt lat="64.54665" lon="11.53887">
        <ele>2.711186</ele>
        <time>2020-07-16T00:03:52.157Z</time>
      </trkpt>
      <trkpt lat="64.5472" lon="11.53807">
        <ele>1.993584</ele>
        <time>2020-07-16T00:04:02.063Z</time>
      </trkpt>
      <trkpt lat="64.54788" lon="11.53635">
        <ele>1.079281</ele>
        <time>2020-07-16T00:04:19.188Z</time>
      </trkpt>
      <trkpt lat="64.54825" lon="11.53508">
        <ele>1.005137</ele>
        <time>2020-07-16T00:04:30.911Z</time>
      </trkpt>
      <trkpt lat="64.54917" lon="11.53131">
        <ele>0.750448</ele>
        <time>2020-07-16T00:05:03.717Z</time>
      </trkpt>
      <trkpt lat="64.54952" lon="11.53019">
        <ele>0.654408</ele>
        <time>2020-07-16T00:05:13.957Z</time>
      </trkpt>
      <trkpt lat="64.54969" lon="11.52973">
        <ele>0.612947</ele>
        <time>2020-07-16T00:05:18.384Z</time>
      </trkpt>
      <trkpt lat="64.54981" lon="11.52945">
        <ele>0.572071</ele>
        <time>2020-07-16T00:05:21.241Z</time>
      </trkpt>
      <trkpt lat="64.55029" lon="11.5285">
        <ele>0.414301</ele>
        <time>2020-07-16T00:05:31.945Z</time>
      </trkpt>
      <trkpt lat="64.55072" lon="11.52787">
        <ele>0.287119</ele>
        <time>2020-07-16T00:05:40.554Z</time>
      </trkpt>
      <trkpt lat="64.55123" lon="11.52729">
        <ele>0.166896</ele>
        <time>2020-07-16T00:05:50.310Z</time>
      </trkpt>
      <trkpt lat="64.55168" lon="11.52693">
        <ele>0.245923</ele>
        <time>2020-07-16T00:05:58.858Z</time>
      </trkpt>
      <trkpt lat="64.55246" lon="11.52661">
        <ele>0.376467</ele>
        <time>2020-07-16T00:06:13.325Z</time>
      </trkpt>
      <trkpt lat="64.55446" lon="11.5263">
        <ele>1.124207</ele>
        <time>2020-07-16T00:06:52.202Z</time>
      </trkpt>
      <trkpt lat="64.55481" lon="11.52614">
        <ele>1.247978</ele>
        <time>2020-07-16T00:06:58.805Z</time>
      </trkpt>
      <trkpt lat="64.55495" lon="11.52603">
        <ele>1.260852</ele>
        <time>2020-07-16T00:07:01.771Z</time>
      </trkpt>
      <trkpt lat="64.55503" lon="11.52596">
        <ele>1.268572</ele>
        <time>2020-07-16T00:07:03.243Z</time>
      </trkpt>
      <trkpt lat="64.55531" lon="11.52545">
        <ele>1.300342</ele>
        <time>2020-07-16T00:07:09.815Z</time>
      </trkpt>
      <trkpt lat="64.55558" lon="11.52448">
        <ele>1.344161</ele>
        <time>2020-07-16T00:07:18.705Z</time>
      </trkpt>
      <trkpt lat="64.55568" lon="11.524">
        <ele>1.364431</ele>
        <time>2020-07-16T00:07:22.985Z</time>
      </trkpt>
      <trkpt lat="64.55571" lon="11.52388">
        <ele>1.369477</ele>
        <time>2020-07-16T00:07:23.837Z</time>
      </trkpt>
      <trkpt lat="64.55584" lon="11.52338">
        <ele>1.391748</ele>
        <time>2020-07-16T00:07:28.642Z</time>
      </trkpt>
      <trkpt lat="64.55591" lon="11.52321">
        <ele>1.411355</ele>
        <time>2020-07-16T00:07:30.153Z</time>
      </trkpt>
      <trkpt lat="64.556" lon="11.52302">
        <ele>1.513364</ele>
        <time>2020-07-16T00:07:32.416Z</time>
      </trkpt>
      <trkpt lat="64.55657" lon="11.52217">
        <ele>2.08235</ele>
        <time>2020-07-16T00:07:44.109Z</time>
      </trkpt>
      <trkpt lat="64.55662" lon="11.52204">
        <ele>2.147273</ele>
        <time>2020-07-16T00:07:46.295Z</time>
      </trkpt>
      <trkpt lat="64.55669" lon="11.52185">
        <ele>2.236663</ele>
        <time>2020-07-16T00:07:48.188Z</time>
      </trkpt>
      <trkpt lat="64.55722" lon="11.52019">
        <ele>3.108652</ele>
        <time>2020-07-16T00:08:08.295Z</time>
      </trkpt>
      <trkpt lat="64.55728" lon="11.52003">
        <ele>3.312821</ele>
        <time>2020-07-16T00:08:11.310Z</time>
      </trkpt>
      <trkpt lat="64.55751" lon="11.51959">
        <ele>3.974246</ele>
        <time>2020-07-16T00:08:18.548Z</time>
      </trkpt>
      <trkpt lat="64.55778" lon="11.51926">
        <ele>4.635631</ele>
        <time>2020-07-16T00:08:26.007Z</time>
      </trkpt>
      <trkpt lat="64.55852" lon="11.51884">
        <ele>6.338224</ele>
        <time>2020-07-16T00:08:45.706Z</time>
      </trkpt>
      <trkpt lat="64.55896" lon="11.51846">
        <ele>7.237205</ele>
        <time>2020-07-16T00:08:57.586Z</time>
      </trkpt>
      <trkpt lat="64.55933" lon="11.51784">
        <ele>7.936448</ele>
        <time>2020-07-16T00:09:08.234Z</time>
      </trkpt>
      <trkpt lat="64.55956" lon="11.51716">
        <ele>8.515398</ele>
        <time>2020-07-16T00:09:16.643Z</time>
      </trkpt>
      <trkpt lat="64.5597" lon="11.51653">
        <ele>8.986803</ele>
        <time>2020-07-16T00:09:23.202Z</time>
      </trkpt>
      <trkpt lat="64.55991" lon="11.51447">
        <ele>10.434672</ele>
        <time>2020-07-16T00:09:42.413Z</time>
      </trkpt>
      <trkpt lat="64.55998" lon="11.51407">
        <ele>10.745095</ele>
        <time>2020-07-16T00:09:46.690Z</time>
      </trkpt>
      <trkpt lat="64.56081" lon="11.51178">
        <ele>12.600064</ele>
        <time>2020-07-16T00:10:18.192Z</time>
      </trkpt>
      <trkpt lat="64.56103" lon="11.51081">
        <ele>12.449972</ele>
        <time>2020-07-16T00:10:28.274Z</time>
      </trkpt>
      <trkpt lat="64.56107" lon="11.5102">
        <ele>12.365623</ele>
        <time>2020-07-16T00:10:33.269Z</time>
      </trkpt>
      <trkpt lat="64.56105" lon="11.50958">
        <ele>12.280128</ele>
        <time>2020-07-16T00:10:37.882Z</time>
      </trkpt>
      <trkpt lat="64.5608" lon="11.50808">
        <ele>12.022861</ele>
        <time>2020-07-16T00:10:47.717Z</time>
      </trkpt>
      <trkpt lat="64.56076" lon="11.50729">
        <ele>11.396562</ele>
        <time>2020-07-16T00:10:52.223Z</time>
      </trkpt>
      <trkpt lat="64.56086" lon="11.50648">
        <ele>10.737824</ele>
        <time>2020-07-16T00:10:56.888Z</time>
      </trkpt>
      <trkpt lat="64.56111" lon="11.50578">
        <ele>10.017812</ele>
        <time>2020-07-16T00:11:02.257Z</time>
      </trkpt>
      <trkpt lat="64.5612" lon="11.50562">
        <ele>9.818353</ele>
        <time>2020-07-16T00:11:03.531Z</time>
      </trkpt>
      <trkpt lat="64.56131" lon="11.50546">
        <ele>9.586246</ele>
        <time>2020-07-16T00:11:06.835Z</time>
      </trkpt>
      <trkpt lat="64.56219" lon="11.50414">
        <ele>8.873896</ele>
        <time>2020-07-16T00:11:26.343Z</time>
      </trkpt>
      <trkpt lat="64.56226" lon="11.50401">
        <ele>8.885912</ele>
        <time>2020-07-16T00:11:29.419Z</time>
      </trkpt>
      <trkpt lat="64.56238" lon="11.50372">
        <ele>8.908694</ele>
        <time>2020-07-16T00:11:31.709Z</time>
      </trkpt>
      <trkpt lat="64.56244" lon="11.50355">
        <ele>8.9203</ele>
        <time>2020-07-16T00:11:34.268Z</time>
      </trkpt>
      <trkpt lat="64.5625" lon="11.50328">
        <ele>8.937595</ele>
        <time>2020-07-16T00:11:38.024Z</time>
      </trkpt>
      <trkpt lat="64.56263" lon="11.50221">
        <ele>8.999423</ele>
        <time>2020-07-16T00:11:46.787Z</time>
      </trkpt>
      <trkpt lat="64.56256" lon="11.50118">
        <ele>8.439848</ele>
        <time>2020-07-16T00:11:54.035Z</time>
      </trkpt>
      <trkpt lat="64.5625" lon="11.50087">
        <ele>8.061022</ele>
        <time>2020-07-16T00:11:56.326Z</time>
      </trkpt>
      <trkpt lat="64.562" lon="11.49884">
        <ele>5.43391</ele>
        <time>2020-07-16T00:12:09.713Z</time>
      </trkpt>
      <trkpt lat="64.56195" lon="11.49867">
        <ele>5.212702</ele>
        <time>2020-07-16T00:12:10.665Z</time>
      </trkpt>
      <trkpt lat="64.56187" lon="11.49841">
        <ele>4.851129</ele>
        <time>2020-07-16T00:12:12.565Z</time>
      </trkpt>
      <trkpt lat="64.56162" lon="11.49782">
        <ele>4.051404</ele>
        <time>2020-07-16T00:12:17.067Z</time>
      </trkpt>
      <trkpt lat="64.56132" lon="11.49738">
        <ele>3.414562</ele>
        <time>2020-07-16T00:12:21.644Z</time>
      </trkpt>
      <trkpt lat="64.56113" lon="11.49719">
        <ele>3.045213</ele>
        <time>2020-07-16T00:12:24.329Z</time>
      </trkpt>
      <trkpt lat="64.561" lon="11.49708">
        <ele>2.804265</ele>
        <time>2020-07-16T00:12:26.264Z</time>
      </trkpt>
      <trkpt lat="64.55996" lon="11.49638">
        <ele>1.119764</ele>
        <time>2020-07-16T00:12:44.119Z</time>
      </trkpt>
      <trkpt lat="64.55954" lon="11.49592">
        <ele>1.150311</ele>
        <time>2020-07-16T00:12:52.336Z</time>
      </trkpt>
      <trkpt lat="64.55927" lon="11.49542">
        <ele>1.172983</ele>
        <time>2020-07-16T00:12:58.464Z</time>
      </trkpt>
      <trkpt lat="64.55867" lon="11.49372">
        <ele>1.318505</ele>
        <time>2020-07-16T00:13:16.245Z</time>
      </trkpt>
      <trkpt lat="64.55832" lon="11.49309">
        <ele>1.69663</ele>
        <time>2020-07-16T00:13:25.033Z</time>
      </trkpt>
      <trkpt lat="64.558" lon="11.49282">
        <ele>1.984253</ele>
        <time>2020-07-16T00:13:31.827Z</time>
      </trkpt>
      <trkpt lat="64.5572" lon="11.49269">
        <ele>2.675248</ele>
        <time>2020-07-16T00:13:48.819Z</time>
      </trkpt>
      <trkpt lat="64.55681" lon="11.49242">
        <ele>3.210898</ele>
        <time>2020-07-16T00:13:57.741Z</time>
      </trkpt>
      <trkpt lat="64.55649" lon="11.49198">
        <ele>3.76978</ele>
        <time>2020-07-16T00:14:06.174Z</time>
      </trkpt>
      <trkpt lat="64.55585" lon="11.49067">
        <ele>5.043801</ele>
        <time>2020-07-16T00:14:25.590Z</time>
      </trkpt>
      <trkpt lat="64.55516" lon="11.48993">
        <ele>6.681836</ele>
        <time>2020-07-16T00:14:43.473Z</time>
      </trkpt>
      <trkpt lat="64.55484" lon="11.48947">
        <ele>7.628585</ele>
        <time>2020-07-16T00:14:52.908Z</time>
      </trkpt>
      <trkpt lat="64.55459" lon="11.48885">
        <ele>8.555656</ele>
        <time>2020-07-16T00:15:02.572Z</time>
      </trkpt>
      <trkpt lat="64.55443" lon="11.48821">
        <ele>9.357475</ele>
        <time>2020-07-16T00:15:11.242Z</time>
      </trkpt>
      <trkpt lat="64.55438" lon="11.48776">
        <ele>9.865512</ele>
        <time>2020-07-16T00:15:16.893Z</time>
      </trkpt>
      <trkpt lat="64.55421" lon="11.48424">
        <ele>14.617023</ele>
        <time>2020-07-16T00:16:01.304Z</time>
      </trkpt>
      <trkpt lat="64.55412" lon="11.48379">
        <ele>15.291713</ele>
        <time>2020-07-16T00:16:07.321Z</time>
      </trkpt>
      <trkpt lat="64.55385" lon="11.48298">
        <ele>15.611315</ele>
        <time>2020-07-16T00:16:17.781Z</time>
      </trkpt>
      <trkpt lat="64.55369" lon="11.48256">
        <ele>15.551813</ele>
        <time>2020-07-16T00:16:23.306Z</time>
      </trkpt>
      <trkpt lat="64.55355" lon="11.48222">
        <ele>15.502801</ele>
        <time>2020-07-16T00:16:26.900Z</time>
      </trkpt>
      <trkpt lat="64.55302" lon="11.48136">
        <ele>15.345815</ele>
        <time>2020-07-16T00:16:37.304Z</time>
      </trkpt>
      <trkpt lat="64.55152" lon="11.48004">
        <ele>12.585993</ele>
        <time>2020-07-16T00:16:58.708Z</time>
      </trkpt>
      <trkpt lat="64.55118" lon="11.47963">
        <ele>11.728713</ele>
        <time>2020-07-16T00:17:04.083Z</time>
      </trkpt>
      <trkpt lat="64.5507" lon="11.4787">
        <ele>11.884156</ele>
        <time>2020-07-16T00:17:13.812Z</time>
      </trkpt>
      <trkpt lat="64.55032" lon="11.47746">
        <ele>12.819472</ele>
        <time>2020-07-16T00:17:27.947Z</time>
      </trkpt>
      <trkpt lat="64.55022" lon="11.47674">
        <ele>13.28262</ele>
        <time>2020-07-16T00:17:36.560Z</time>
      </trkpt>
      <trkpt lat="64.55016" lon="11.47571">
        <ele>13.984221</ele>
        <time>2020-07-16T00:17:49.749Z</time>
      </trkpt>
      <trkpt lat="64.55029" lon="11.47336">
        <ele>16.844101</ele>
        <time>2020-07-16T00:18:20.820Z</time>
      </trkpt>
      <trkpt lat="64.55028" lon="11.47234">
        <ele>18.0806</ele>
        <time>2020-07-16T00:18:32.425Z</time>
      </trkpt>
      <trkpt lat="64.55018" lon="11.4713">
        <ele>18.648057</ele>
        <time>2020-07-16T00:18:42.650Z</time>
      </trkpt>
      <trkpt lat="64.54978" lon="11.46844">
        <ele>16.502012</ele>
        <time>2020-07-16T00:19:01.720Z</time>
      </trkpt>
      <trkpt lat="64.54972" lon="11.46779">
        <ele>16.023208</ele>
        <time>2020-07-16T00:19:05.291Z</time>
      </trkpt>
      <trkpt lat="64.54975" lon="11.46665">
        <ele>14.143838</ele>
        <time>2020-07-16T00:19:11.263Z</time>
      </trkpt>
      <trkpt lat="64.54985" lon="11.46536">
        <ele>11.804309</ele>
        <time>2020-07-16T00:19:18.216Z</time>
      </trkpt>
      <trkpt lat="64.5499" lon="11.46499">
        <ele>11.120992</ele>
        <time>2020-07-16T00:19:20.237Z</time>
      </trkpt>
      <trkpt lat="64.54997" lon="11.46454">
        <ele>10.263632</ele>
        <time>2020-07-16T00:19:22.829Z</time>
      </trkpt>
      <trkpt lat="64.55011" lon="11.46382">
        <ele>8.85686</ele>
        <time>2020-07-16T00:19:27.127Z</time>
      </trkpt>
      <trkpt lat="64.55042" lon="11.46267">
        <ele>8.110432</ele>
        <time>2020-07-16T00:19:34.700Z</time>
      </trkpt>
      <trkpt lat="64.55099" lon="11.46103">
        <ele>7.422885</ele>
        <time>2020-07-16T00:19:48.808Z</time>
      </trkpt>
      <trkpt lat="64.55141" lon="11.46043">
        <ele>7.655167</ele>
        <time>2020-07-16T00:20:00.513Z</time>
      </trkpt>
      <trkpt lat="64.55171" lon="11.46018">
        <ele>9.603813</ele>
        <time>2020-07-16T00:20:09.849Z</time>
      </trkpt>
      <trkpt lat="64.55204" lon="11.46006">
        <ele>11.642879</ele>
        <time>2020-07-16T00:20:20.839Z</time>
      </trkpt>
      <trkpt lat="64.55239" lon="11.46009">
        <ele>13.760846</ele>
        <time>2020-07-16T00:20:33.547Z</time>
      </trkpt>
      <trkpt lat="64.55266" lon="11.46023">
        <ele>15.482859</ele>
        <time>2020-07-16T00:20:45.122Z</time>
      </trkpt>
      <trkpt lat="64.55383" lon="11.46133">
        <ele>28.423377</ele>
        <time>2020-07-16T00:21:49.367Z</time>
      </trkpt>
      <trkpt lat="64.55437" lon="11.46159">
        <ele>35.168509</ele>
        <time>2020-07-16T00:22:22.921Z</time>
      </trkpt>
      <trkpt lat="64.55482" lon="11.46152">
        <ele>40.910545</ele>
        <time>2020-07-16T00:22:52.628Z</time>
      </trkpt>
      <trkpt lat="64.55652" lon="11.46078">
        <ele>66.937033</ele>
        <time>2020-07-16T00:24:50.862Z</time>
      </trkpt>
      <trkpt lat="64.55809" lon="11.46067">
        <ele>84.060709</ele>
        <time>2020-07-16T00:26:19.731Z</time>
      </trkpt>
      <trkpt lat="64.55941" lon="11.45985">
        <ele>87.684922</ele>
        <time>2020-07-16T00:27:01.223Z</time>
      </trkpt>
      <trkpt lat="64.56155" lon="11.4594">
        <ele>79.193177</ele>
        <time>2020-07-16T00:27:26.864Z</time>
      </trkpt>
      <trkpt lat="64.56207" lon="11.45952">
        <ele>76.052374</ele>
        <time>2020-07-16T00:27:32.611Z</time>
      </trkpt>
      <trkpt lat="64.56321" lon="11.46006">
        <ele>69.314479</ele>
        <time>2020-07-16T00:27:45.907Z</time>
      </trkpt>
      <trkpt lat="64.56463" lon="11.46001">
        <ele>67.075206</ele>
        <time>2020-07-16T00:28:07.742Z</time>
      </trkpt>
      <trkpt lat="64.5663" lon="11.4604">
        <ele>66.352363</ele>
        <time>2020-07-16T00:28:50.602Z</time>
      </trkpt>
      <trkpt lat="64.56673" lon="11.46035">
        <ele>65.830699</ele>
        <time>2020-07-16T00:28:56.463Z</time>
      </trkpt>
      <trkpt lat="64.56773" lon="11.45998">
        <ele>62.574127</ele>
        <time>2020-07-16T00:29:08.612Z</time>
      </trkpt>
      <trkpt lat="64.5682" lon="11.45997">
        <ele>60.091719</ele>
        <time>2020-07-16T00:29:13.831Z</time>
      </trkpt>
      <trkpt lat="64.56978" lon="11.46065">
        <ele>57.127445</ele>
        <time>2020-07-16T00:29:34.359Z</time>
      </trkpt>
      <trkpt lat="64.57036" lon="11.46078">
        <ele>58.259969</ele>
        <time>2020-07-16T00:29:52.655Z</time>
      </trkpt>
      <trkpt lat="64.57282" lon="11.46038">
        <ele>72.886639</ele>
        <time>2020-07-16T00:31:39.817Z</time>
      </trkpt>
      <trkpt lat="64.57347" lon="11.46065">
        <ele>73.742944</ele>
        <time>2020-07-16T00:31:56.517Z</time>
      </trkpt>
      <trkpt lat="64.57413" lon="11.46127">
        <ele>74.651459</ele>
        <time>2020-07-16T00:32:07.928Z</time>
      </trkpt>
      <trkpt lat="64.57439" lon="11.4615">
        <ele>74.606239</ele>
        <time>2020-07-16T00:32:11.686Z</time>
      </trkpt>
      <trkpt lat="64.57449" lon="11.46158">
        <ele>74.122892</ele>
        <time>2020-07-16T00:32:12.923Z</time>
      </trkpt>
      <trkpt lat="64.57518" lon="11.46202">
        <ele>70.828953</ele>
        <time>2020-07-16T00:32:21.838Z</time>
      </trkpt>
      <trkpt lat="64.57624" lon="11.46293">
        <ele>65.150732</ele>
        <time>2020-07-16T00:32:35.427Z</time>
      </trkpt>
      <trkpt lat="64.57687" lon="11.4631">
        <ele>60.99021</ele>
        <time>2020-07-16T00:32:42.763Z</time>
      </trkpt>
      <trkpt lat="64.57722" lon="11.46308">
        <ele>58.731581</ele>
        <time>2020-07-16T00:32:46.724Z</time>
      </trkpt>
      <trkpt lat="64.57808" lon="11.4631">
        <ele>53.186924</ele>
        <time>2020-07-16T00:32:56.623Z</time>
      </trkpt>
      <trkpt lat="64.58166" lon="11.46404">
        <ele>31.835092</ele>
        <time>2020-07-16T00:33:39.140Z</time>
      </trkpt>
      <trkpt lat="64.58212" lon="11.46425">
        <ele>29.324739</ele>
        <time>2020-07-16T00:33:44.665Z</time>
      </trkpt>
      <trkpt lat="64.58286" lon="11.46486">
        <ele>25.102885</ele>
        <time>2020-07-16T00:33:54.136Z</time>
      </trkpt>
      <trkpt lat="64.58347" lon="11.46511">
        <ele>22.69187</ele>
        <time>2020-07-16T00:34:01.704Z</time>
      </trkpt>
      <trkpt lat="64.58463" lon="11.46499">
        <ele>19.353334</ele>
        <time>2020-07-16T00:34:17.364Z</time>
      </trkpt>
      <trkpt lat="64.58574" lon="11.46539">
        <ele>17.552876</ele>
        <time>2020-07-16T00:34:34.305Z</time>
      </trkpt>
      <trkpt lat="64.58649" lon="11.46545">
        <ele>16.664591</ele>
        <time>2020-07-16T00:34:45.856Z</time>
      </trkpt>
      <trkpt lat="64.58696" lon="11.46532">
        <ele>16.226218</ele>
        <time>2020-07-16T00:34:53.196Z</time>
      </trkpt>
      <trkpt lat="64.5875" lon="11.46502">
        <ele>15.821571</ele>
        <time>2020-07-16T00:35:02.029Z</time>
      </trkpt>
      <trkpt lat="64.58849" lon="11.46385">
        <ele>15.124458</ele>
        <time>2020-07-16T00:35:19.932Z</time>
      </trkpt>
      <trkpt lat="64.58972" lon="11.46268">
        <ele>15.275295</ele>
        <time>2020-07-16T00:35:43.542Z</time>
      </trkpt>
      <trkpt lat="64.59012" lon="11.46205">
        <ele>15.613137</ele>
        <time>2020-07-16T00:35:53.146Z</time>
      </trkpt>
      <trkpt lat="64.59048" lon="11.46126">
        <ele>16.715103</ele>
        <time>2020-07-16T00:36:04.245Z</time>
      </trkpt>
      <trkpt lat="64.59091" lon="11.46001">
        <ele>18.238289</ele>
        <time>2020-07-16T00:36:21.520Z</time>
      </trkpt>
      <trkpt lat="64.59158" lon="11.45735">
        <ele>22.188495</ele>
        <time>2020-07-16T00:37:00.540Z</time>
      </trkpt>
      <trkpt lat="64.59278" lon="11.45363">
        <ele>26.920781</ele>
        <time>2020-07-16T00:37:57.494Z</time>
      </trkpt>
      <trkpt lat="64.59306" lon="11.45224">
        <ele>27.84415</ele>
        <time>2020-07-16T00:38:08.508Z</time>
      </trkpt>
      <trkpt lat="64.59311" lon="11.4512">
        <ele>26.561502</ele>
        <time>2020-07-16T00:38:14.755Z</time>
      </trkpt>
      <trkpt lat="64.59303" lon="11.45029">
        <ele>24.952027</ele>
        <time>2020-07-16T00:38:19.852Z</time>
      </trkpt>
      <trkpt lat="64.59261" lon="11.44834">
        <ele>21.173546</ele>
        <time>2020-07-16T00:38:31.133Z</time>
      </trkpt>
      <trkpt lat="64.5925" lon="11.44756">
        <ele>19.579529</ele>
        <time>2020-07-16T00:38:35.356Z</time>
      </trkpt>
      <trkpt lat="64.59247" lon="11.44642">
        <ele>17.269482</ele>
        <time>2020-07-16T00:38:41.253Z</time>
      </trkpt>
      <trkpt lat="64.59259" lon="11.44528">
        <ele>14.882551</ele>
        <time>2020-07-16T00:38:47.437Z</time>
      </trkpt>
      <trkpt lat="64.59286" lon="11.44429">
        <ele>12.505525</ele>
        <time>2020-07-16T00:38:53.711Z</time>
      </trkpt>
      <trkpt lat="64.59331" lon="11.44307">
        <ele>10.335157</ele>
        <time>2020-07-16T00:39:02.612Z</time>
      </trkpt>
      <trkpt lat="64.59361" lon="11.44246">
        <ele>9.164637</ele>
        <time>2020-07-16T00:39:07.825Z</time>
      </trkpt>
      <trkpt lat="64.59417" lon="11.44166">
        <ele>7.2042</ele>
        <time>2020-07-16T00:39:16.859Z</time>
      </trkpt>
      <trkpt lat="64.59441" lon="11.4412">
        <ele>6.616347</ele>
        <time>2020-07-16T00:39:21.217Z</time>
      </trkpt>
      <trkpt lat="64.59457" lon="11.44071">
        <ele>6.282814</ele>
        <time>2020-07-16T00:39:24.782Z</time>
      </trkpt>
      <trkpt lat="64.59502" lon="11.43886">
        <ele>5.143239</ele>
        <time>2020-07-16T00:39:38.262Z</time>
      </trkpt>
      <trkpt lat="64.59522" lon="11.43847">
        <ele>4.812191</ele>
        <time>2020-07-16T00:39:42.713Z</time>
      </trkpt>
      <trkpt lat="64.59551" lon="11.43817">
        <ele>4.826449</ele>
        <time>2020-07-16T00:39:48.317Z</time>
      </trkpt>
      <trkpt lat="64.5966" lon="11.43808">
        <ele>6.412011</ele>
        <time>2020-07-16T00:40:12.017Z</time>
      </trkpt>
      <trkpt lat="64.59701" lon="11.43784">
        <ele>7.028567</ele>
        <time>2020-07-16T00:40:22.729Z</time>
      </trkpt>
      <trkpt lat="64.59789" lon="11.43686">
        <ele>9.883932</ele>
        <time>2020-07-16T00:40:50.490Z</time>
      </trkpt>
      <trkpt lat="64.59831" lon="11.43657">
        <ele>11.269405</ele>
        <time>2020-07-16T00:41:02.755Z</time>
      </trkpt>
      <trkpt lat="64.59855" lon="11.4365">
        <ele>12.006425</ele>
        <time>2020-07-16T00:41:09.233Z</time>
      </trkpt>
      <trkpt lat="64.59963" lon="11.43655">
        <ele>16.121253</ele>
        <time>2020-07-16T00:41:40.480Z</time>
      </trkpt>
      <trkpt lat="64.6001" lon="11.43644">
        <ele>17.98823</ele>
        <time>2020-07-16T00:41:54.874Z</time>
      </trkpt>
      <trkpt lat="64.60105" lon="11.43595">
        <ele>22.398861</ele>
        <time>2020-07-16T00:42:27.557Z</time>
      </trkpt>
      <trkpt lat="64.60174" lon="11.43545">
        <ele>26.036127</ele>
        <time>2020-07-16T00:42:52.636Z</time>
      </trkpt>
      <trkpt lat="64.60209" lon="11.43494">
        <ele>28.140273</ele>
        <time>2020-07-16T00:43:07.347Z</time>
      </trkpt>
      <trkpt lat="64.60307" lon="11.43256">
        <ele>34.369098</ele>
        <time>2020-07-16T00:43:53.024Z</time>
      </trkpt>
      <trkpt lat="64.60406" lon="11.42927">
        <ele>42.715423</ele>
        <time>2020-07-16T00:44:43.735Z</time>
      </trkpt>
      <trkpt lat="64.60458" lon="11.42727">
        <ele>49.052032</ele>
        <time>2020-07-16T00:45:25.656Z</time>
      </trkpt>
      <trkpt lat="64.6046" lon="11.42718">
        <ele>49.433355</ele>
        <time>2020-07-16T00:45:27.633Z</time>
      </trkpt>
      <trkpt lat="64.60492" lon="11.42602">
        <ele>54.53694</ele>
        <time>2020-07-16T00:45:55.319Z</time>
      </trkpt>
      <trkpt lat="64.6052" lon="11.42523">
        <ele>58.379285</ele>
        <time>2020-07-16T00:46:16.133Z</time>
      </trkpt>
      <trkpt lat="64.60543" lon="11.42488">
        <ele>60.737993</ele>
        <time>2020-07-16T00:46:29.733Z</time>
      </trkpt>
      <trkpt lat="64.60574" lon="11.4246">
        <ele>62.926427</ele>
        <time>2020-07-16T00:46:45.738Z</time>
      </trkpt>
      <trkpt lat="64.60611" lon="11.42448">
        <ele>65.002286</ele>
        <time>2020-07-16T00:47:02.234Z</time>
      </trkpt>
      <trkpt lat="64.60725" lon="11.42464">
        <ele>71.276309</ele>
        <time>2020-07-16T00:47:40.399Z</time>
      </trkpt>
      <trkpt lat="64.60746" lon="11.42453">
        <ele>70.673702</ele>
        <time>2020-07-16T00:47:46.519Z</time>
      </trkpt>
      <trkpt lat="64.608" lon="11.424">
        <ele>66.812993</ele>
        <time>2020-07-16T00:47:54.418Z</time>
      </trkpt>
      <trkpt lat="64.6083" lon="11.42385">
        <ele>64.760646</ele>
        <time>2020-07-16T00:47:58.097Z</time>
      </trkpt>
      <trkpt lat="64.60859" lon="11.42389">
        <ele>62.8123</ele>
        <time>2020-07-16T00:48:01.296Z</time>
      </trkpt>
      <trkpt lat="64.609" lon="11.42431">
        <ele>59.843921</ele>
        <time>2020-07-16T00:48:06.069Z</time>
      </trkpt>
      <trkpt lat="64.60905" lon="11.42438">
        <ele>59.029348</ele>
        <time>2020-07-16T00:48:06.660Z</time>
      </trkpt>
      <trkpt lat="64.61136" lon="11.42825">
        <ele>13.894153</ele>
        <time>2020-07-16T00:48:35.798Z</time>
      </trkpt>
      <trkpt lat="64.61156" lon="11.42859">
        <ele>10.547755</ele>
        <time>2020-07-16T00:48:38.523Z</time>
      </trkpt>
      <trkpt lat="64.61187" lon="11.42904">
        <ele>5.567521</ele>
        <time>2020-07-16T00:48:42.703Z</time>
      </trkpt>
      <trkpt lat="64.61225" lon="11.42916">
        <ele>3.780042</ele>
        <time>2020-07-16T00:48:47.217Z</time>
      </trkpt>
      <trkpt lat="64.61363" lon="11.42831">
        <ele>1.38778</ele>
        <time>2020-07-16T00:49:10.670Z</time>
      </trkpt>
      <trkpt lat="64.61378" lon="11.42821">
        <ele>1.325522</ele>
        <time>2020-07-16T00:49:13.826Z</time>
      </trkpt>
      <trkpt lat="64.61466" lon="11.42768">
        <ele>2.656206</ele>
        <time>2020-07-16T00:49:33.013Z</time>
      </trkpt>
      <trkpt lat="64.61524" lon="11.42757">
        <ele>3.5087</ele>
        <time>2020-07-16T00:49:46.215Z</time>
      </trkpt>
      <trkpt lat="64.61682" lon="11.42843">
        <ele>9.006651</ele>
        <time>2020-07-16T00:50:33.170Z</time>
      </trkpt>
      <trkpt lat="64.61766" lon="11.42879">
        <ele>12.718814</ele>
        <time>2020-07-16T00:51:01.927Z</time>
      </trkpt>
      <trkpt lat="64.61885" lon="11.42892">
        <ele>18.602009</ele>
        <time>2020-07-16T00:51:42.627Z</time>
      </trkpt>
      <trkpt lat="64.61919" lon="11.42918">
        <ele>20.466097</ele>
        <time>2020-07-16T00:51:54.474Z</time>
      </trkpt>
      <trkpt lat="64.61943" lon="11.42948">
        <ele>21.943714</ele>
        <time>2020-07-16T00:52:03.334Z</time>
      </trkpt>
      <trkpt lat="64.61986" lon="11.43045">
        <ele>25.180827</ele>
        <time>2020-07-16T00:52:23.120Z</time>
      </trkpt>
      <trkpt lat="64.62075" lon="11.43294">
        <ele>33.560513</ele>
        <time>2020-07-16T00:53:15.772Z</time>
      </trkpt>
      <trkpt lat="64.62093" lon="11.43357">
        <ele>35.761189</ele>
        <time>2020-07-16T00:53:30.035Z</time>
      </trkpt>
      <trkpt lat="64.62104" lon="11.43409">
        <ele>37.435976</ele>
        <time>2020-07-16T00:53:40.420Z</time>
      </trkpt>
      <trkpt lat="64.6211" lon="11.43477">
        <ele>39.45545</ele>
        <time>2020-07-16T00:53:52.277Z</time>
      </trkpt>
      <trkpt lat="64.62109" lon="11.4354">
        <ele>41.271087</ele>
        <time>2020-07-16T00:54:02.369Z</time>
      </trkpt>
      <trkpt lat="64.62102" lon="11.43588">
        <ele>42.168308</ele>
        <time>2020-07-16T00:54:11.486Z</time>
      </trkpt>
      <trkpt lat="64.62092" lon="11.43631">
        <ele>43.023933</ele>
        <time>2020-07-16T00:54:18.751Z</time>
      </trkpt>
      <trkpt lat="64.62067" lon="11.4369">
        <ele>44.447552</ele>
        <time>2020-07-16T00:54:31.207Z</time>
      </trkpt>
      <trkpt lat="64.61905" lon="11.43955">
        <ele>50.348013</ele>
        <time>2020-07-16T00:55:21.983Z</time>
      </trkpt>
      <trkpt lat="64.61854" lon="11.44067">
        <ele>51.681127</ele>
        <time>2020-07-16T00:55:37.225Z</time>
      </trkpt>
      <trkpt lat="64.61833" lon="11.44147">
        <ele>52.357832</ele>
        <time>2020-07-16T00:55:46.221Z</time>
      </trkpt>
      <trkpt lat="64.61819" lon="11.44244">
        <ele>53.034493</ele>
        <time>2020-07-16T00:55:56.147Z</time>
      </trkpt>
      <trkpt lat="64.618" lon="11.44604">
        <ele>55.326855</ele>
        <time>2020-07-16T00:56:32.058Z</time>
      </trkpt>
      <trkpt lat="64.61788" lon="11.4471">
        <ele>55.940572</ele>
        <time>2020-07-16T00:56:42.689Z</time>
      </trkpt>
      <trkpt lat="64.61771" lon="11.44798">
        <ele>56.487137</ele>
        <time>2020-07-16T00:56:51.876Z</time>
      </trkpt>
      <trkpt lat="64.61743" lon="11.44898">
        <ele>57.1167</ele>
        <time>2020-07-16T00:57:02.737Z</time>
      </trkpt>
      <trkpt lat="64.61718" lon="11.44961">
        <ele>57.291989</ele>
        <time>2020-07-16T00:57:10.206Z</time>
      </trkpt>
      <trkpt lat="64.61677" lon="11.45033">
        <ele>57.535629</ele>
        <time>2020-07-16T00:57:20.180Z</time>
      </trkpt>
      <trkpt lat="64.61589" lon="11.45165">
        <ele>57.979571</ele>
        <time>2020-07-16T00:57:39.655Z</time>
      </trkpt>
      <trkpt lat="64.61569" lon="11.45219">
        <ele>58.02413</ele>
        <time>2020-07-16T00:57:45.135Z</time>
      </trkpt>
      <trkpt lat="64.61558" lon="11.45283">
        <ele>58.067588</ele>
        <time>2020-07-16T00:57:50.460Z</time>
      </trkpt>
      <trkpt lat="64.61554" lon="11.45378">
        <ele>58.127269</ele>
        <time>2020-07-16T00:57:57.828Z</time>
      </trkpt>
      <trkpt lat="64.61558" lon="11.45437">
        <ele>58.165023</ele>
        <time>2020-07-16T00:58:02.517Z</time>
      </trkpt>
      <trkpt lat="64.61569" lon="11.45492">
        <ele>58.20282</ele>
        <time>2020-07-16T00:58:07.249Z</time>
      </trkpt>
      <trkpt lat="64.61601" lon="11.45567">
        <ele>58.730639</ele>
        <time>2020-07-16T00:58:15.644Z</time>
      </trkpt>
      <trkpt lat="64.61699" lon="11.45682">
        <ele>60.295594</ele>
        <time>2020-07-16T00:58:38.378Z</time>
      </trkpt>
      <trkpt lat="64.61733" lon="11.45748">
        <ele>61.398512</ele>
        <time>2020-07-16T00:58:50.732Z</time>
      </trkpt>
      <trkpt lat="64.61756" lon="11.45837">
        <ele>64.162322</ele>
        <time>2020-07-16T00:59:05.187Z</time>
      </trkpt>
      <trkpt lat="64.61763" lon="11.45868">
        <ele>65.073074</ele>
        <time>2020-07-16T00:59:10.399Z</time>
      </trkpt>
      <trkpt lat="64.61841" lon="11.46264">
        <ele>77.09766</ele>
        <time>2020-07-16T01:00:29.548Z</time>
      </trkpt>
      <trkpt lat="64.61875" lon="11.4637">
        <ele>80.951621</ele>
        <time>2020-07-16T01:00:52.827Z</time>
      </trkpt>
      <trkpt lat="64.61905" lon="11.46429">
        <ele>83.632742</ele>
        <time>2020-07-16T01:01:07.324Z</time>
      </trkpt>
      <trkpt lat="64.61933" lon="11.46466">
        <ele>84.76626</ele>
        <time>2020-07-16T01:01:18.065Z</time>
      </trkpt>
      <trkpt lat="64.61961" lon="11.46489">
        <ele>85.492573</ele>
        <time>2020-07-16T01:01:27.325Z</time>
      </trkpt>
      <trkpt lat="64.61965" lon="11.46493">
        <ele>85.618545</ele>
        <time>2020-07-16T01:01:28.459Z</time>
      </trkpt>
      <trkpt lat="64.62005" lon="11.46507">
        <ele>86.595421</ele>
        <time>2020-07-16T01:01:39.264Z</time>
      </trkpt>
      <trkpt lat="64.62284" lon="11.46492">
        <ele>88.43948</ele>
        <time>2020-07-16T01:02:33.443Z</time>
      </trkpt>
      <trkpt lat="64.62373" lon="11.46469">
        <ele>85.671761</ele>
        <time>2020-07-16T01:02:45.250Z</time>
      </trkpt>
      <trkpt lat="64.62768" lon="11.46272">
        <ele>70.368441</ele>
        <time>2020-07-16T01:03:34.616Z</time>
      </trkpt>
      <trkpt lat="64.6282" lon="11.46239">
        <ele>71.298266</ele>
        <time>2020-07-16T01:03:49.066Z</time>
      </trkpt>
      <trkpt lat="64.62879" lon="11.46183">
        <ele>75.50827</ele>
        <time>2020-07-16T01:04:12.615Z</time>
      </trkpt>
      <trkpt lat="64.62929" lon="11.46121">
        <ele>79.313201</ele>
        <time>2020-07-16T01:04:40.073Z</time>
      </trkpt>
      <trkpt lat="64.62981" lon="11.46041">
        <ele>83.493697</ele>
        <time>2020-07-16T01:05:11.830Z</time>
      </trkpt>
      <trkpt lat="64.63069" lon="11.45885">
        <ele>90.983939</ele>
        <time>2020-07-16T01:05:58.846Z</time>
      </trkpt>
      <trkpt lat="64.63216" lon="11.45596">
        <ele>96.709556</ele>
        <time>2020-07-16T01:06:46.841Z</time>
      </trkpt>
      <trkpt lat="64.63278" lon="11.45496">
        <ele>96.892132</ele>
        <time>2020-07-16T01:07:00.327Z</time>
      </trkpt>
      <trkpt lat="64.63348" lon="11.45423">
        <ele>96.304879</ele>
        <time>2020-07-16T01:07:13.650Z</time>
      </trkpt>
      <trkpt lat="64.63494" lon="11.45336">
        <ele>92.98116</ele>
        <time>2020-07-16T01:07:34.141Z</time>
      </trkpt>
      <trkpt lat="64.63534" lon="11.45292">
        <ele>91.641061</ele>
        <time>2020-07-16T01:07:39.664Z</time>
      </trkpt>
      <trkpt lat="64.6357" lon="11.45227">
        <ele>90.399632</ele>
        <time>2020-07-16T01:07:45.323Z</time>
      </trkpt>
      <trkpt lat="64.63645" lon="11.45045">
        <ele>90.382313</ele>
        <time>2020-07-16T01:08:00.435Z</time>
      </trkpt>
      <trkpt lat="64.63694" lon="11.44942">
        <ele>90.371736</ele>
        <time>2020-07-16T01:08:18.299Z</time>
      </trkpt>
      <trkpt lat="64.6375" lon="11.44864">
        <ele>95.723629</ele>
        <time>2020-07-16T01:08:43.412Z</time>
      </trkpt>
      <trkpt lat="64.638" lon="11.44834">
        <ele>100.011498</ele>
        <time>2020-07-16T01:09:07.458Z</time>
      </trkpt>
      <trkpt lat="64.63975" lon="11.44844">
        <ele>116.477873</ele>
        <time>2020-07-16T01:10:40.966Z</time>
      </trkpt>
      <trkpt lat="64.64083" lon="11.44806">
        <ele>125.569646</ele>
        <time>2020-07-16T01:11:31.613Z</time>
      </trkpt>
      <trkpt lat="64.6418" lon="11.4476">
        <ele>130.72847</ele>
        <time>2020-07-16T01:12:05.479Z</time>
      </trkpt>
      <trkpt lat="64.64233" lon="11.44758">
        <ele>132.928432</ele>
        <time>2020-07-16T01:12:19.261Z</time>
      </trkpt>
      <trkpt lat="64.64357" lon="11.44818">
        <ele>133.575005</ele>
        <time>2020-07-16T01:12:41.861Z</time>
      </trkpt>
      <trkpt lat="64.64436" lon="11.4482">
        <ele>134.622275</ele>
        <time>2020-07-16T01:12:54.738Z</time>
      </trkpt>
      <trkpt lat="64.64823" lon="11.44645">
        <ele>149.837735</ele>
        <time>2020-07-16T01:14:44.766Z</time>
      </trkpt>
      <trkpt lat="64.64984" lon="11.44513">
        <ele>166.543656</ele>
        <time>2020-07-16T01:16:24.013Z</time>
      </trkpt>
      <trkpt lat="64.65048" lon="11.44485">
        <ele>174.116645</ele>
        <time>2020-07-16T01:17:03.009Z</time>
      </trkpt>
      <trkpt lat="64.65093" lon="11.44489">
        <ele>179.24795</ele>
        <time>2020-07-16T01:17:25.971Z</time>
      </trkpt>
      <trkpt lat="64.65138" lon="11.44507">
        <ele>181.521899</ele>
        <time>2020-07-16T01:17:46.364Z</time>
      </trkpt>
      <trkpt lat="64.65255" lon="11.44585">
        <ele>186.151334</ele>
        <time>2020-07-16T01:18:19.566Z</time>
      </trkpt>
      <trkpt lat="64.65287" lon="11.44591">
        <ele>186.457356</ele>
        <time>2020-07-16T01:18:24.798Z</time>
      </trkpt>
      <trkpt lat="64.65358" lon="11.44583">
        <ele>184.070843</ele>
        <time>2020-07-16T01:18:34.791Z</time>
      </trkpt>
      <trkpt lat="64.65434" lon="11.44582">
        <ele>181.554333</ele>
        <time>2020-07-16T01:18:44.116Z</time>
      </trkpt>
      <trkpt lat="64.65482" lon="11.44604">
        <ele>178.373165</ele>
        <time>2020-07-16T01:18:49.730Z</time>
      </trkpt>
      <trkpt lat="64.65522" lon="11.44639">
        <ele>174.629197</ele>
        <time>2020-07-16T01:18:54.632Z</time>
      </trkpt>
      <trkpt lat="64.65644" lon="11.44785">
        <ele>161.593092</ele>
        <time>2020-07-16T01:19:09.601Z</time>
      </trkpt>
      <trkpt lat="64.65736" lon="11.44846">
        <ele>150.072166</ele>
        <time>2020-07-16T01:19:19.720Z</time>
      </trkpt>
      <trkpt lat="64.65834" lon="11.44862">
        <ele>138.710039</ele>
        <time>2020-07-16T01:19:30.124Z</time>
      </trkpt>
      <trkpt lat="64.66009" lon="11.44832">
        <ele>120.645448</ele>
        <time>2020-07-16T01:19:49.173Z</time>
      </trkpt>
      <trkpt lat="64.66109" lon="11.44788">
        <ele>112.489273</ele>
        <time>2020-07-16T01:20:00.767Z</time>
      </trkpt>
      <trkpt lat="64.66355" lon="11.44589">
        <ele>96.574516</ele>
        <time>2020-07-16T01:20:31.343Z</time>
      </trkpt>
      <trkpt lat="64.66597" lon="11.44441">
        <ele>87.992085</ele>
        <time>2020-07-16T01:21:02.267Z</time>
      </trkpt>
      <trkpt lat="64.66631" lon="11.4442">
        <ele>87.405406</ele>
        <time>2020-07-16T01:21:09.068Z</time>
      </trkpt>
      <trkpt lat="64.66756" lon="11.44376">
        <ele>92.018127</ele>
        <time>2020-07-16T01:21:48.484Z</time>
      </trkpt>
      <trkpt lat="64.66999" lon="11.4433">
        <ele>108.444719</ele>
        <time>2020-07-16T01:23:30.998Z</time>
      </trkpt>
      <trkpt lat="64.67038" lon="11.44315">
        <ele>109.788805</ele>
        <time>2020-07-16T01:23:47.752Z</time>
      </trkpt>
      <trkpt lat="64.67075" lon="11.44284">
        <ele>109.093934</ele>
        <time>2020-07-16T01:24:02.180Z</time>
      </trkpt>
      <trkpt lat="64.67102" lon="11.44246">
        <ele>108.53094</ele>
        <time>2020-07-16T01:24:09.967Z</time>
      </trkpt>
      <trkpt lat="64.67124" lon="11.44196">
        <ele>107.975433</ele>
        <time>2020-07-16T01:24:14.589Z</time>
      </trkpt>
      <trkpt lat="64.6715" lon="11.44097">
        <ele>107.085408</ele>
        <time>2020-07-16T01:24:20.198Z</time>
      </trkpt>
      <trkpt lat="64.67158" lon="11.44046">
        <ele>104.688084</ele>
        <time>2020-07-16T01:24:22.656Z</time>
      </trkpt>
      <trkpt lat="64.67179" lon="11.43845">
        <ele>87.646513</ele>
        <time>2020-07-16T01:24:31.752Z</time>
      </trkpt>
      <trkpt lat="64.67197" lon="11.43736">
        <ele>78.062031</ele>
        <time>2020-07-16T01:24:36.806Z</time>
      </trkpt>
      <trkpt lat="64.67212" lon="11.43671">
        <ele>72.017682</ele>
        <time>2020-07-16T01:24:40.028Z</time>
      </trkpt>
      <trkpt lat="64.67253" lon="11.43564">
        <ele>62.267768</ele>
        <time>2020-07-16T01:24:46.271Z</time>
      </trkpt>
      <trkpt lat="64.67282" lon="11.43509">
        <ele>56.352786</ele>
        <time>2020-07-16T01:24:50.099Z</time>
      </trkpt>
      <trkpt lat="64.67355" lon="11.43418">
        <ele>43.65983</ele>
        <time>2020-07-16T01:24:59.111Z</time>
      </trkpt>
      <trkpt lat="64.6739" lon="11.43399">
        <ele>42.232572</ele>
        <time>2020-07-16T01:25:03.285Z</time>
      </trkpt>
      <trkpt lat="64.67415" lon="11.43388">
        <ele>41.240007</ele>
        <time>2020-07-16T01:25:06.332Z</time>
      </trkpt>
      <trkpt lat="64.67455" lon="11.43391">
        <ele>39.616855</ele>
        <time>2020-07-16T01:25:11.674Z</time>
      </trkpt>
      <trkpt lat="64.67533" lon="11.43434">
        <ele>36.637252</ele>
        <time>2020-07-16T01:25:23.201Z</time>
      </trkpt>
      <trkpt lat="64.67581" lon="11.43487">
        <ele>36.768946</ele>
        <time>2020-07-16T01:25:31.294Z</time>
      </trkpt>
      <trkpt lat="64.6767" lon="11.43623">
        <ele>37.038975</ele>
        <time>2020-07-16T01:25:51.593Z</time>
      </trkpt>
      <trkpt lat="64.67725" lon="11.43693">
        <ele>39.860726</ele>
        <time>2020-07-16T01:26:08.208Z</time>
      </trkpt>
      <trkpt lat="64.67761" lon="11.43715">
        <ele>42.015437</ele>
        <time>2020-07-16T01:26:20.261Z</time>
      </trkpt>
      <trkpt lat="64.67808" lon="11.43721">
        <ele>44.811234</ele>
        <time>2020-07-16T01:26:39.061Z</time>
      </trkpt>
      <trkpt lat="64.6787" lon="11.43694">
        <ele>49.218811</ele>
        <time>2020-07-16T01:27:08.765Z</time>
      </trkpt>
      <trkpt lat="64.67912" lon="11.43652">
        <ele>54.054185</ele>
        <time>2020-07-16T01:27:32.737Z</time>
      </trkpt>
      <trkpt lat="64.67951" lon="11.4359">
        <ele>59.137095</ele>
        <time>2020-07-16T01:27:59.562Z</time>
      </trkpt>
      <trkpt lat="64.6805" lon="11.43398">
        <ele>70.125929</ele>
        <time>2020-07-16T01:29:06.566Z</time>
      </trkpt>
      <trkpt lat="64.68081" lon="11.43353">
        <ele>72.302133</ele>
        <time>2020-07-16T01:29:21.462Z</time>
      </trkpt>
      <trkpt lat="64.68128" lon="11.43309">
        <ele>75.236789</ele>
        <time>2020-07-16T01:29:37.465Z</time>
      </trkpt>
      <trkpt lat="64.6816" lon="11.43294">
        <ele>77.176307</ele>
        <time>2020-07-16T01:29:45.643Z</time>
      </trkpt>
      <trkpt lat="64.68214" lon="11.43287">
        <ele>73.845648</ele>
        <time>2020-07-16T01:29:54.805Z</time>
      </trkpt>
      <trkpt lat="64.68387" lon="11.43355">
        <ele>57.100761</ele>
        <time>2020-07-16T01:30:13.889Z</time>
      </trkpt>
      <trkpt lat="64.68387" lon="11.43355">
        <ele>57.100761</ele>
        <time>2020-07-16T01:30:13.973Z</time>
      </trkpt>
      <trkpt lat="64.68463" lon="11.43314">
        <ele>44.061712</ele>
        <time>2020-07-16T01:30:22.030Z</time>
      </trkpt>
      <trkpt lat="64.68469" lon="11.43309">
        <ele>42.987955</ele>
        <time>2020-07-16T01:30:22.692Z</time>
      </trkpt>
      <trkpt lat="64.68557" lon="11.43226">
        <ele>28.855902</ele>
        <time>2020-07-16T01:30:32.389Z</time>
      </trkpt>
      <trkpt lat="64.6861" lon="11.43201">
        <ele>21.913196</ele>
        <time>2020-07-16T01:30:37.899Z</time>
      </trkpt>
      <trkpt lat="64.68643" lon="11.43206">
        <ele>17.551609</ele>
        <time>2020-07-16T01:30:41.538Z</time>
      </trkpt>
      <trkpt lat="64.6869" lon="11.43248">
        <ele>11.261061</ele>
        <time>2020-07-16T01:30:47.233Z</time>
      </trkpt>
      <trkpt lat="64.687" lon="11.43264">
        <ele>11.066721</ele>
        <time>2020-07-16T01:30:48.689Z</time>
      </trkpt>
      <trkpt lat="64.68734" lon="11.43338">
        <ele>10.328472</ele>
        <time>2020-07-16T01:30:54.677Z</time>
      </trkpt>
      <trkpt lat="64.68746" lon="11.43372">
        <ele>10.021657</ele>
        <time>2020-07-16T01:30:57.491Z</time>
      </trkpt>
      <trkpt lat="64.68779" lon="11.43469">
        <ele>9.169744</ele>
        <time>2020-07-16T01:31:06.800Z</time>
      </trkpt>
      <trkpt lat="64.68832" lon="11.43607">
        <ele>8.972448</ele>
        <time>2020-07-16T01:31:24.508Z</time>
      </trkpt>
      <trkpt lat="64.68862" lon="11.43663">
        <ele>9.649667</ele>
        <time>2020-07-16T01:31:34.082Z</time>
      </trkpt>
      <trkpt lat="64.68975" lon="11.43826">
        <ele>11.979847</ele>
        <time>2020-07-16T01:32:05.680Z</time>
      </trkpt>
      <trkpt lat="64.69091" lon="11.43969">
        <ele>14.320519</ele>
        <time>2020-07-16T01:32:36.229Z</time>
      </trkpt>
      <trkpt lat="64.69132" lon="11.44062">
        <ele>15.313915</ele>
        <time>2020-07-16T01:32:50.203Z</time>
      </trkpt>
      <trkpt lat="64.69157" lon="11.44164">
        <ele>16.176442</ele>
        <time>2020-07-16T01:33:02.383Z</time>
      </trkpt>
      <trkpt lat="64.69195" lon="11.44347">
        <ele>17.673487</ele>
        <time>2020-07-16T01:33:22.480Z</time>
      </trkpt>
      <trkpt lat="64.69235" lon="11.44462">
        <ele>17.817437</ele>
        <time>2020-07-16T01:33:35.943Z</time>
      </trkpt>
      <trkpt lat="64.69517" lon="11.45128">
        <ele>16.848442</ele>
        <time>2020-07-16T01:34:43.959Z</time>
      </trkpt>
      <trkpt lat="64.69571" lon="11.45227">
        <ele>16.293027</ele>
        <time>2020-07-16T01:34:54.280Z</time>
      </trkpt>
      <trkpt lat="64.69598" lon="11.45252">
        <ele>16.006842</ele>
        <time>2020-07-16T01:34:58.499Z</time>
      </trkpt>
      <trkpt lat="64.69627" lon="11.4526">
        <ele>15.628963</ele>
        <time>2020-07-16T01:35:02.818Z</time>
      </trkpt>
      <trkpt lat="64.69655" lon="11.45252">
        <ele>15.271254</ele>
        <time>2020-07-16T01:35:06.992Z</time>
      </trkpt>
      <trkpt lat="64.69681" lon="11.45227">
        <ele>14.913695</ele>
        <time>2020-07-16T01:35:11.082Z</time>
      </trkpt>
      <trkpt lat="64.69687" lon="11.45218">
        <ele>14.812327</ele>
        <time>2020-07-16T01:35:12.296Z</time>
      </trkpt>
      <trkpt lat="64.69692" lon="11.4521">
        <ele>14.73678</ele>
        <time>2020-07-16T01:35:13.114Z</time>
      </trkpt>
      <trkpt lat="64.69739" lon="11.45118">
        <ele>13.956193</ele>
        <time>2020-07-16T01:35:22.469Z</time>
      </trkpt>
      <trkpt lat="64.69751" lon="11.45094">
        <ele>13.826602</ele>
        <time>2020-07-16T01:35:25.031Z</time>
      </trkpt>
      <trkpt lat="64.69773" lon="11.45049">
        <ele>13.750784</ele>
        <time>2020-07-16T01:35:29.674Z</time>
      </trkpt>
      <trkpt lat="64.69816" lon="11.44969">
        <ele>13.607659</ele>
        <time>2020-07-16T01:35:38.724Z</time>
      </trkpt>
      <trkpt lat="64.69847" lon="11.44932">
        <ele>13.514624</ele>
        <time>2020-07-16T01:35:45.035Z</time>
      </trkpt>
      <trkpt lat="64.69883" lon="11.44914">
        <ele>13.419146</ele>
        <time>2020-07-16T01:35:51.712Z</time>
      </trkpt>
      <trkpt lat="64.69887" lon="11.44913">
        <ele>13.409685</ele>
        <time>2020-07-16T01:35:52.371Z</time>
      </trkpt>
      <trkpt lat="64.69959" lon="11.44919">
        <ele>15.25986</ele>
        <time>2020-07-16T01:36:05.930Z</time>
      </trkpt>
      <trkpt lat="64.69991" lon="11.44899">
        <ele>16.316254</ele>
        <time>2020-07-16T01:36:13.247Z</time>
      </trkpt>
      <trkpt lat="64.70073" lon="11.44765">
        <ele>20.240595</ele>
        <time>2020-07-16T01:36:47.972Z</time>
      </trkpt>
      <trkpt lat="64.701" lon="11.44704">
        <ele>23.540637</ele>
        <time>2020-07-16T01:37:04.601Z</time>
      </trkpt>
      <trkpt lat="64.70113" lon="11.44641">
        <ele>26.189913</ele>
        <time>2020-07-16T01:37:19.546Z</time>
      </trkpt>
      <trkpt lat="64.70132" lon="11.44486">
        <ele>32.278816</ele>
        <time>2020-07-16T01:37:53.515Z</time>
      </trkpt>
      <trkpt lat="64.70148" lon="11.44426">
        <ele>34.974996</ele>
        <time>2020-07-16T01:38:08.548Z</time>
      </trkpt>
      <trkpt lat="64.70162" lon="11.44391">
        <ele>36.255567</ele>
        <time>2020-07-16T01:38:19.870Z</time>
      </trkpt>
      <trkpt lat="64.70184" lon="11.44356">
        <ele>37.79982</ele>
        <time>2020-07-16T01:38:32.504Z</time>
      </trkpt>
      <trkpt lat="64.70258" lon="11.44255">
        <ele>42.948765</ele>
        <time>2020-07-16T01:39:04.206Z</time>
      </trkpt>
      <trkpt lat="64.70332" lon="11.44158">
        <ele>45.795106</ele>
        <time>2020-07-16T01:39:25.621Z</time>
      </trkpt>
      <trkpt lat="64.70369" lon="11.44124">
        <ele>45.814694</ele>
        <time>2020-07-16T01:39:33.035Z</time>
      </trkpt>
      <trkpt lat="64.70401" lon="11.44122">
        <ele>45.830785</ele>
        <time>2020-07-16T01:39:38.628Z</time>
      </trkpt>
      <trkpt lat="64.70437" lon="11.44157">
        <ele>45.850736</ele>
        <time>2020-07-16T01:39:45.002Z</time>
      </trkpt>
      <trkpt lat="64.70508" lon="11.44324">
        <ele>43.627134</ele>
        <time>2020-07-16T01:39:58.812Z</time>
      </trkpt>
      <trkpt lat="64.70528" lon="11.44389">
        <ele>42.52174</ele>
        <time>2020-07-16T01:40:03.175Z</time>
      </trkpt>
      <trkpt lat="64.70544" lon="11.44473">
        <ele>41.24638</ele>
        <time>2020-07-16T01:40:08.144Z</time>
      </trkpt>
      <trkpt lat="64.70548" lon="11.44493">
        <ele>40.947658</ele>
        <time>2020-07-16T01:40:09.221Z</time>
      </trkpt>
      <trkpt lat="64.7067" lon="11.45282">
        <ele>29.273679</ele>
        <time>2020-07-16T01:40:54.944Z</time>
      </trkpt>
      <trkpt lat="64.7072" lon="11.45544">
        <ele>30.750832</ele>
        <time>2020-07-16T01:41:21.765Z</time>
      </trkpt>
      <trkpt lat="64.70782" lon="11.45826">
        <ele>34.653262</ele>
        <time>2020-07-16T01:42:04.446Z</time>
      </trkpt>
      <trkpt lat="64.70815" lon="11.45945">
        <ele>36.869702</ele>
        <time>2020-07-16T01:42:23.725Z</time>
      </trkpt>
      <trkpt lat="64.70891" lon="11.4612">
        <ele>40.280702</ele>
        <time>2020-07-16T01:42:52.139Z</time>
      </trkpt>
      <trkpt lat="64.70974" lon="11.46238">
        <ele>42.538711</ele>
        <time>2020-07-16T01:43:15.900Z</time>
      </trkpt>
      <trkpt lat="64.71025" lon="11.463">
        <ele>43.821387</ele>
        <time>2020-07-16T01:43:30.510Z</time>
      </trkpt>
      <trkpt lat="64.71107" lon="11.46406">
        <ele>45.573748</ele>
        <time>2020-07-16T01:43:54.054Z</time>
      </trkpt>
      <trkpt lat="64.71154" lon="11.46485">
        <ele>46.646238</ele>
        <time>2020-07-16T01:44:07.796Z</time>
      </trkpt>
      <trkpt lat="64.7123" lon="11.4666">
        <ele>46.758217</ele>
        <time>2020-07-16T01:44:28.504Z</time>
      </trkpt>
      <trkpt lat="64.71297" lon="11.46857">
        <ele>46.315845</ele>
        <time>2020-07-16T01:44:45.085Z</time>
      </trkpt>
      <trkpt lat="64.71432" lon="11.4712">
        <ele>44.044897</ele>
        <time>2020-07-16T01:45:11.029Z</time>
      </trkpt>
      <trkpt lat="64.71466" lon="11.47172">
        <ele>43.736111</ele>
        <time>2020-07-16T01:45:17.275Z</time>
      </trkpt>
      <trkpt lat="64.71793" lon="11.47571">
        <ele>41.815886</ele>
        <time>2020-07-16T01:46:18.206Z</time>
      </trkpt>
      <trkpt lat="64.71824" lon="11.47617">
        <ele>41.758597</ele>
        <time>2020-07-16T01:46:24.524Z</time>
      </trkpt>
      <trkpt lat="64.71855" lon="11.47691">
        <ele>41.687759</ele>
        <time>2020-07-16T01:46:32.475Z</time>
      </trkpt>
      <trkpt lat="64.72053" lon="11.48241">
        <ele>41.088733</ele>
        <time>2020-07-16T01:47:27.882Z</time>
      </trkpt>
      <trkpt lat="64.72088" lon="11.48368">
        <ele>40.62073</ele>
        <time>2020-07-16T01:47:37.737Z</time>
      </trkpt>
      <trkpt lat="64.7211" lon="11.48483">
        <ele>39.864957</ele>
        <time>2020-07-16T01:47:45.445Z</time>
      </trkpt>
      <trkpt lat="64.7221" lon="11.49127">
        <ele>34.543988</ele>
        <time>2020-07-16T01:48:26.560Z</time>
      </trkpt>
      <trkpt lat="64.72238" lon="11.4937">
        <ele>32.987525</ele>
        <time>2020-07-16T01:48:44.623Z</time>
      </trkpt>
      <trkpt lat="64.72261" lon="11.49504">
        <ele>32.149188</ele>
        <time>2020-07-16T01:48:54.725Z</time>
      </trkpt>
      <trkpt lat="64.72538" lon="11.50706">
        <ele>15.074792</ele>
        <time>2020-07-16T01:50:10.792Z</time>
      </trkpt>
      <trkpt lat="64.72573" lon="11.50838">
        <ele>16.093532</ele>
        <time>2020-07-16T01:50:22.702Z</time>
      </trkpt>
      <trkpt lat="64.72679" lon="11.51171">
        <ele>21.308991</ele>
        <time>2020-07-16T01:51:13.871Z</time>
      </trkpt>
      <trkpt lat="64.72712" lon="11.51301">
        <ele>24.589005</ele>
        <time>2020-07-16T01:51:37.438Z</time>
      </trkpt>
      <trkpt lat="64.72795" lon="11.51752">
        <ele>35.478063</ele>
        <time>2020-07-16T01:52:54.679Z</time>
      </trkpt>
      <trkpt lat="64.72819" lon="11.51888">
        <ele>36.828723</ele>
        <time>2020-07-16T01:53:12.382Z</time>
      </trkpt>
      <trkpt lat="64.72837" lon="11.51962">
        <ele>36.767683</ele>
        <time>2020-07-16T01:53:20.551Z</time>
      </trkpt>
      <trkpt lat="64.72864" lon="11.52033">
        <ele>36.699966</ele>
        <time>2020-07-16T01:53:27.119Z</time>
      </trkpt>
      <trkpt lat="64.72936" lon="11.52187">
        <ele>34.966737</ele>
        <time>2020-07-16T01:53:40.099Z</time>
      </trkpt>
      <trkpt lat="64.72949" lon="11.52216">
        <ele>33.99008</ele>
        <time>2020-07-16T01:53:42.320Z</time>
      </trkpt>
      <trkpt lat="64.73055" lon="11.52436">
        <ele>26.447254</ele>
        <time>2020-07-16T01:53:58.883Z</time>
      </trkpt>
      <trkpt lat="64.73092" lon="11.52489">
        <ele>23.919801</ele>
        <time>2020-07-16T01:54:03.951Z</time>
      </trkpt>
      <trkpt lat="64.7314" lon="11.52528">
        <ele>21.007219</ele>
        <time>2020-07-16T01:54:09.809Z</time>
      </trkpt>
      <trkpt lat="64.73209" lon="11.52536">
        <ele>17.006935</ele>
        <time>2020-07-16T01:54:17.994Z</time>
      </trkpt>
      <trkpt lat="64.73338" lon="11.52444">
        <ele>13.609488</ele>
        <time>2020-07-16T01:54:35.724Z</time>
      </trkpt>
      <trkpt lat="64.73362" lon="11.52426">
        <ele>13.023564</ele>
        <time>2020-07-16T01:54:39.961Z</time>
      </trkpt>
      <trkpt lat="64.73417" lon="11.52393">
        <ele>13.167236</ele>
        <time>2020-07-16T01:54:51.266Z</time>
      </trkpt>
      <trkpt lat="64.73461" lon="11.52403">
        <ele>14.237349</ele>
        <time>2020-07-16T01:55:01.459Z</time>
      </trkpt>
      <trkpt lat="64.73503" lon="11.52463">
        <ele>15.423956</ele>
        <time>2020-07-16T01:55:14.192Z</time>
      </trkpt>
      <trkpt lat="64.73565" lon="11.52694">
        <ele>21.69506</ele>
        <time>2020-07-16T01:55:50.358Z</time>
      </trkpt>
      <trkpt lat="64.73638" lon="11.52857">
        <ele>29.859528</ele>
        <time>2020-07-16T01:56:38.940Z</time>
      </trkpt>
      <trkpt lat="64.73666" lon="11.52939">
        <ele>34.776151</ele>
        <time>2020-07-16T01:57:02.839Z</time>
      </trkpt>
      <trkpt lat="64.73669" lon="11.52951">
        <ele>35.527952</ele>
        <time>2020-07-16T01:57:08.178Z</time>
      </trkpt>
      <trkpt lat="64.73746" lon="11.53251">
        <ele>54.906907</ele>
        <time>2020-07-16T01:58:40.640Z</time>
      </trkpt>
      <trkpt lat="64.73881" lon="11.53686">
        <ele>78.267588</ele>
        <time>2020-07-16T02:00:46.591Z</time>
      </trkpt>
      <trkpt lat="64.73915" lon="11.53776">
        <ele>80.795868</ele>
        <time>2020-07-16T02:01:04.998Z</time>
      </trkpt>
      <trkpt lat="64.73956" lon="11.53852">
        <ele>83.380637</ele>
        <time>2020-07-16T02:01:19.090Z</time>
      </trkpt>
      <trkpt lat="64.73989" lon="11.53906">
        <ele>83.495577</ele>
        <time>2020-07-16T02:01:25.593Z</time>
      </trkpt>
      <trkpt lat="64.74079" lon="11.54104">
        <ele>74.007081</ele>
        <time>2020-07-16T02:01:39.691Z</time>
      </trkpt>
      <trkpt lat="64.74115" lon="11.54158">
        <ele>70.616217</ele>
        <time>2020-07-16T02:01:44.219Z</time>
      </trkpt>
      <trkpt lat="64.74147" lon="11.54186">
        <ele>66.042087</ele>
        <time>2020-07-16T02:01:47.785Z</time>
      </trkpt>
      <trkpt lat="64.74159" lon="11.54192">
        <ele>64.340259</ele>
        <time>2020-07-16T02:01:49.097Z</time>
      </trkpt>
      <trkpt lat="64.74183" lon="11.54204">
        <ele>61.046226</ele>
        <time>2020-07-16T02:01:51.656Z</time>
      </trkpt>
      <trkpt lat="64.74272" lon="11.54225">
        <ele>48.940176</ele>
        <time>2020-07-16T02:02:00.969Z</time>
      </trkpt>
      <trkpt lat="64.74401" lon="11.54287">
        <ele>36.541348</ele>
        <time>2020-07-16T02:02:15.099Z</time>
      </trkpt>
      <trkpt lat="64.74435" lon="11.54289">
        <ele>33.626981</ele>
        <time>2020-07-16T02:02:19.049Z</time>
      </trkpt>
      <trkpt lat="64.74448" lon="11.54286">
        <ele>32.469927</ele>
        <time>2020-07-16T02:02:20.524Z</time>
      </trkpt>
      <trkpt lat="64.74456" lon="11.54283">
        <ele>31.740058</ele>
        <time>2020-07-16T02:02:21.981Z</time>
      </trkpt>
      <trkpt lat="64.74591" lon="11.54201">
        <ele>33.57626</ele>
        <time>2020-07-16T02:02:51.019Z</time>
      </trkpt>
      <trkpt lat="64.74624" lon="11.5419">
        <ele>34.294809</ele>
        <time>2020-07-16T02:03:04.741Z</time>
      </trkpt>
      <trkpt lat="64.74659" lon="11.54193">
        <ele>35.566081</ele>
        <time>2020-07-16T02:03:19.001Z</time>
      </trkpt>
      <trkpt lat="64.74712" lon="11.54218">
        <ele>38.286257</ele>
        <time>2020-07-16T02:03:40.863Z</time>
      </trkpt>
      <trkpt lat="64.74894" lon="11.54347">
        <ele>42.307688</ele>
        <time>2020-07-16T02:04:39.055Z</time>
      </trkpt>
      <trkpt lat="64.75027" lon="11.5442">
        <ele>37.057574</ele>
        <time>2020-07-16T02:04:54.880Z</time>
      </trkpt>
      <trkpt lat="64.75045" lon="11.5443">
        <ele>35.383914</ele>
        <time>2020-07-16T02:04:56.895Z</time>
      </trkpt>
      <trkpt lat="64.75061" lon="11.54444">
        <ele>33.835564</ele>
        <time>2020-07-16T02:04:58.762Z</time>
      </trkpt>
      <trkpt lat="64.75111" lon="11.54501">
        <ele>28.74358</ele>
        <time>2020-07-16T02:05:04.836Z</time>
      </trkpt>
      <trkpt lat="64.75157" lon="11.5458">
        <ele>23.791083</ele>
        <time>2020-07-16T02:05:11.039Z</time>
      </trkpt>
      <trkpt lat="64.75209" lon="11.54692">
        <ele>19.784708</ele>
        <time>2020-07-16T02:05:19.024Z</time>
      </trkpt>
      <trkpt lat="64.75217" lon="11.54709">
        <ele>19.136933</ele>
        <time>2020-07-16T02:05:20.349Z</time>
      </trkpt>
      <trkpt lat="64.75264" lon="11.54813">
        <ele>15.443393</ele>
        <time>2020-07-16T02:05:28.397Z</time>
      </trkpt>
      <trkpt lat="64.7528" lon="11.54864">
        <ele>13.915182</ele>
        <time>2020-07-16T02:05:31.899Z</time>
      </trkpt>
      <trkpt lat="64.75289" lon="11.54914">
        <ele>14.019359</ele>
        <time>2020-07-16T02:05:34.992Z</time>
      </trkpt>
      <trkpt lat="64.75291" lon="11.54987">
        <ele>14.201726</ele>
        <time>2020-07-16T02:05:39.773Z</time>
      </trkpt>
      <trkpt lat="64.75286" lon="11.55046">
        <ele>14.353</ele>
        <time>2020-07-16T02:05:45.212Z</time>
      </trkpt>
      <trkpt lat="64.75276" lon="11.55095">
        <ele>14.489272</ele>
        <time>2020-07-16T02:05:50.530Z</time>
      </trkpt>
      <trkpt lat="64.7526" lon="11.55143">
        <ele>14.643416</ele>
        <time>2020-07-16T02:05:56.821Z</time>
      </trkpt>
      <trkpt lat="64.75222" lon="11.55232">
        <ele>14.995243</ele>
        <time>2020-07-16T02:06:10.466Z</time>
      </trkpt>
      <trkpt lat="64.752" lon="11.55286">
        <ele>15.802568</ele>
        <time>2020-07-16T02:06:19.380Z</time>
      </trkpt>
      <trkpt lat="64.75165" lon="11.55385">
        <ele>17.162034</ele>
        <time>2020-07-16T02:06:35.001Z</time>
      </trkpt>
      <trkpt lat="64.75085" lon="11.55663">
        <ele>19.980304</ele>
        <time>2020-07-16T02:07:09.724Z</time>
      </trkpt>
      <trkpt lat="64.75052" lon="11.55842">
        <ele>20.876797</ele>
        <time>2020-07-16T02:07:25.837Z</time>
      </trkpt>
      <trkpt lat="64.7504" lon="11.55898">
        <ele>21.16308</ele>
        <time>2020-07-16T02:07:31.056Z</time>
      </trkpt>
      <trkpt lat="64.7503" lon="11.5593">
        <ele>21.350196</ele>
        <time>2020-07-16T02:07:34.616Z</time>
      </trkpt>
      <trkpt lat="64.74957" lon="11.56094">
        <ele>22.158725</ele>
        <time>2020-07-16T02:07:56.903Z</time>
      </trkpt>
      <trkpt lat="64.74929" lon="11.56199">
        <ele>22.583225</ele>
        <time>2020-07-16T02:08:10.356Z</time>
      </trkpt>
      <trkpt lat="64.74896" lon="11.56406">
        <ele>19.534411</ele>
        <time>2020-07-16T02:08:23.921Z</time>
      </trkpt>
      <trkpt lat="64.74893" lon="11.56495">
        <ele>17.715658</ele>
        <time>2020-07-16T02:08:28.403Z</time>
      </trkpt>
      <trkpt lat="64.74902" lon="11.56555">
        <ele>16.439294</ele>
        <time>2020-07-16T02:08:31.532Z</time>
      </trkpt>
      <trkpt lat="64.74908" lon="11.5658">
        <ele>15.846822</ele>
        <time>2020-07-16T02:08:32.898Z</time>
      </trkpt>
      <trkpt lat="64.74925" lon="11.56625">
        <ele>14.625389</ele>
        <time>2020-07-16T02:08:35.842Z</time>
      </trkpt>
      <trkpt lat="64.74934" lon="11.56647">
        <ele>13.90325</ele>
        <time>2020-07-16T02:08:37.307Z</time>
      </trkpt>
      <trkpt lat="64.74941" lon="11.56659">
        <ele>13.357909</ele>
        <time>2020-07-16T02:08:38.212Z</time>
      </trkpt>
      <trkpt lat="64.75037" lon="11.56856">
        <ele>4.823827</ele>
        <time>2020-07-16T02:08:52.525Z</time>
      </trkpt>
      <trkpt lat="64.75046" lon="11.56876">
        <ele>3.965545</ele>
        <time>2020-07-16T02:08:53.996Z</time>
      </trkpt>
      <trkpt lat="64.75098" lon="11.56967">
        <ele>1.734989</ele>
        <time>2020-07-16T02:09:03.234Z</time>
      </trkpt>
      <trkpt lat="64.75196" lon="11.57087">
        <ele>0.525192</ele>
        <time>2020-07-16T02:09:21.517Z</time>
      </trkpt>
      <trkpt lat="64.75218" lon="11.57124">
        <ele>0.226023</ele>
        <time>2020-07-16T02:09:26.286Z</time>
      </trkpt>
      <trkpt lat="64.75227" lon="11.57141">
        <ele>0.167427</ele>
        <time>2020-07-16T02:09:28.371Z</time>
      </trkpt>
      <trkpt lat="64.75401" lon="11.57455">
        <ele>0.066511</ele>
        <time>2020-07-16T02:10:07.164Z</time>
      </trkpt>
      <trkpt lat="64.75411" lon="11.57474">
        <ele>0.078469</ele>
        <time>2020-07-16T02:10:09.481Z</time>
      </trkpt>
      <trkpt lat="64.7544" lon="11.57548">
        <ele>0.118156</ele>
        <time>2020-07-16T02:10:17.174Z</time>
      </trkpt>
      <trkpt lat="64.75482" lon="11.57697">
        <ele>0.188376</ele>
        <time>2020-07-16T02:10:31.191Z</time>
      </trkpt>
      <trkpt lat="64.7551" lon="11.57761">
        <ele>0.528468</ele>
        <time>2020-07-16T02:10:38.711Z</time>
      </trkpt>
      <trkpt lat="64.75545" lon="11.57816">
        <ele>0.900016</ele>
        <time>2020-07-16T02:10:46.927Z</time>
      </trkpt>
      <trkpt lat="64.75683" lon="11.57981">
        <ele>2.353613</ele>
        <time>2020-07-16T02:11:20.707Z</time>
      </trkpt>
      <trkpt lat="64.75709" lon="11.58024">
        <ele>2.682965</ele>
        <time>2020-07-16T02:11:27.894Z</time>
      </trkpt>
      <trkpt lat="64.75737" lon="11.58091">
        <ele>3.094729</ele>
        <time>2020-07-16T02:11:36.552Z</time>
      </trkpt>
      <trkpt lat="64.75764" lon="11.58196">
        <ele>3.634479</ele>
        <time>2020-07-16T02:11:47.400Z</time>
      </trkpt>
      <trkpt lat="64.75775" lon="11.58269">
        <ele>3.539125</ele>
        <time>2020-07-16T02:11:53.881Z</time>
      </trkpt>
      <trkpt lat="64.75798" lon="11.58615">
        <ele>3.098663</ele>
        <time>2020-07-16T02:12:18.108Z</time>
      </trkpt>
      <trkpt lat="64.75809" lon="11.58712">
        <ele>3.369627</ele>
        <time>2020-07-16T02:12:24.540Z</time>
      </trkpt>
      <trkpt lat="64.75867" lon="11.58988">
        <ele>4.203358</ele>
        <time>2020-07-16T02:12:50.317Z</time>
      </trkpt>
      <trkpt lat="64.75898" lon="11.59087">
        <ele>7.065418</ele>
        <time>2020-07-16T02:13:05.528Z</time>
      </trkpt>
      <trkpt lat="64.76076" lon="11.59552">
        <ele>24.163321</ele>
        <time>2020-07-16T02:14:56.078Z</time>
      </trkpt>
      <trkpt lat="64.76092" lon="11.59612">
        <ele>26.26681</ele>
        <time>2020-07-16T02:15:07.681Z</time>
      </trkpt>
      <trkpt lat="64.76126" lon="11.59787">
        <ele>30.833724</ele>
        <time>2020-07-16T02:15:36.297Z</time>
      </trkpt>
      <trkpt lat="64.76143" lon="11.59838">
        <ele>32.291719</ele>
        <time>2020-07-16T02:15:45.431Z</time>
      </trkpt>
      <trkpt lat="64.76167" lon="11.59906">
        <ele>34.288887</ele>
        <time>2020-07-16T02:15:57.982Z</time>
      </trkpt>
      <trkpt lat="64.76204" lon="11.60016">
        <ele>37.55217</ele>
        <time>2020-07-16T02:16:18.064Z</time>
      </trkpt>
      <trkpt lat="64.76367" lon="11.60494">
        <ele>51.909984</ele>
        <time>2020-07-16T02:17:57.227Z</time>
      </trkpt>
      <trkpt lat="64.76395" lon="11.60561">
        <ele>53.691716</ele>
        <time>2020-07-16T02:18:09.433Z</time>
      </trkpt>
      <trkpt lat="64.76436" lon="11.6063">
        <ele>55.75446</ele>
        <time>2020-07-16T02:18:22.811Z</time>
      </trkpt>
      <trkpt lat="64.76469" lon="11.60662">
        <ele>55.607636</ele>
        <time>2020-07-16T02:18:29.713Z</time>
      </trkpt>
      <trkpt lat="64.76585" lon="11.60746">
        <ele>55.102505</ele>
        <time>2020-07-16T02:18:48.579Z</time>
      </trkpt>
      <trkpt lat="64.76592" lon="11.60755">
        <ele>55.06957</ele>
        <time>2020-07-16T02:18:49.606Z</time>
      </trkpt>
      <trkpt lat="64.76601" lon="11.60766">
        <ele>55.027935</ele>
        <time>2020-07-16T02:18:51.029Z</time>
      </trkpt>
      <trkpt lat="64.76644" lon="11.60842">
        <ele>54.393535</ele>
        <time>2020-07-16T02:18:58.980Z</time>
      </trkpt>
      <trkpt lat="64.76668" lon="11.60905">
        <ele>53.967569</ele>
        <time>2020-07-16T02:19:04.291Z</time>
      </trkpt>
      <trkpt lat="64.76687" lon="11.60976">
        <ele>53.54124</ele>
        <time>2020-07-16T02:19:09.696Z</time>
      </trkpt>
      <trkpt lat="64.76707" lon="11.61085">
        <ele>52.941043</ele>
        <time>2020-07-16T02:19:17.561Z</time>
      </trkpt>
      <trkpt lat="64.76737" lon="11.6127">
        <ele>52.528196</ele>
        <time>2020-07-16T02:19:31.679Z</time>
      </trkpt>
      <trkpt lat="64.76758" lon="11.61397">
        <ele>52.265637</ele>
        <time>2020-07-16T02:19:41.554Z</time>
      </trkpt>
      <trkpt lat="64.76768" lon="11.61485">
        <ele>52.089734</ele>
        <time>2020-07-16T02:19:48.241Z</time>
      </trkpt>
      <trkpt lat="64.76771" lon="11.61521">
        <ele>51.740246</ele>
        <time>2020-07-16T02:19:50.792Z</time>
      </trkpt>
      <trkpt lat="64.76772" lon="11.61564">
        <ele>51.261331</ele>
        <time>2020-07-16T02:19:53.984Z</time>
      </trkpt>
      <trkpt lat="64.76771" lon="11.61635">
        <ele>50.469417</ele>
        <time>2020-07-16T02:19:59.009Z</time>
      </trkpt>
      <trkpt lat="64.7677" lon="11.61651">
        <ele>50.297198</ele>
        <time>2020-07-16T02:20:00.122Z</time>
      </trkpt>
      <trkpt lat="64.76768" lon="11.61682">
        <ele>49.941757</ele>
        <time>2020-07-16T02:20:01.783Z</time>
      </trkpt>
      <trkpt lat="64.76755" lon="11.61824">
        <ele>48.321416</ele>
        <time>2020-07-16T02:20:10.252Z</time>
      </trkpt>
      <trkpt lat="64.76751" lon="11.61878">
        <ele>47.720811</ele>
        <time>2020-07-16T02:20:13.097Z</time>
      </trkpt>
      <trkpt lat="64.76751" lon="11.61969">
        <ele>44.968713</ele>
        <time>2020-07-16T02:20:17.964Z</time>
      </trkpt>
      <trkpt lat="64.76752" lon="11.61988">
        <ele>44.211231</ele>
        <time>2020-07-16T02:20:18.962Z</time>
      </trkpt>
      <trkpt lat="64.76754" lon="11.62009">
        <ele>43.357325</ele>
        <time>2020-07-16T02:20:19.967Z</time>
      </trkpt>
      <trkpt lat="64.76811" lon="11.62268">
        <ele>31.927967</ele>
        <time>2020-07-16T02:20:33.453Z</time>
      </trkpt>
      <trkpt lat="64.76833" lon="11.62363">
        <ele>27.028436</ele>
        <time>2020-07-16T02:20:38.337Z</time>
      </trkpt>
      <trkpt lat="64.76858" lon="11.62459">
        <ele>21.735882</ele>
        <time>2020-07-16T02:20:45.018Z</time>
      </trkpt>
      <trkpt lat="64.76903" lon="11.62576">
        <ele>14.245783</ele>
        <time>2020-07-16T02:20:54.462Z</time>
      </trkpt>
      <trkpt lat="64.76989" lon="11.62634">
        <ele>7.909496</ele>
        <time>2020-07-16T02:21:06.934Z</time>
      </trkpt>
      <trkpt lat="64.77073" lon="11.62647">
        <ele>3.732011</ele>
        <time>2020-07-16T02:21:18.705Z</time>
      </trkpt>
      <trkpt lat="64.77272" lon="11.62584">
        <ele>0.389417</ele>
        <time>2020-07-16T02:21:46.725Z</time>
      </trkpt>
      <trkpt lat="64.8071" lon="11.60974">
        <ele>0.001246</ele>
        <time>2020-07-16T02:29:55.255Z</time>
      </trkpt>
      <trkpt lat="64.80883" lon="11.60746">
        <time>2020-07-16T02:30:22.883Z</time>
      </trkpt>
      <trkpt lat="64.80961" lon="11.60321">
        <time>2020-07-16T02:30:50.414Z</time>
      </trkpt>
      <trkpt lat="64.8102" lon="11.59378">
        <time>2020-07-16T02:31:47.004Z</time>
      </trkpt>
      <trkpt lat="64.81126" lon="11.59149">
        <time>2020-07-16T02:32:07.152Z</time>
      </trkpt>
      <trkpt lat="64.81293" lon="11.59129">
        <time>2020-07-16T02:32:30.355Z</time>
      </trkpt>
      <trkpt lat="64.82559" lon="11.61628">
        <time>2020-07-16T02:36:20.902Z</time>
      </trkpt>
      <trkpt lat="64.82672" lon="11.61543">
        <ele>0.005981</ele>
        <time>2020-07-16T02:36:37.470Z</time>
      </trkpt>
      <trkpt lat="64.82744" lon="11.61266">
        <ele>0.076632</ele>
        <time>2020-07-16T02:36:56.755Z</time>
      </trkpt>
      <trkpt lat="64.82747" lon="11.6123">
        <ele>0.102875</ele>
        <time>2020-07-16T02:36:59.558Z</time>
      </trkpt>
      <trkpt lat="64.8275" lon="11.61209">
        <ele>0.11913</ele>
        <time>2020-07-16T02:37:01.298Z</time>
      </trkpt>
      <trkpt lat="64.82755" lon="11.61196">
        <ele>0.131665</ele>
        <time>2020-07-16T02:37:02.644Z</time>
      </trkpt>
      <trkpt lat="64.82763" lon="11.61171">
        <ele>0.154334</ele>
        <time>2020-07-16T02:37:05.089Z</time>
      </trkpt>
      <trkpt lat="64.82764" lon="11.6116">
        <ele>0.1628</ele>
        <time>2020-07-16T02:37:05.997Z</time>
      </trkpt>
      <trkpt lat="64.82775" lon="11.61074">
        <ele>0.227717</ele>
        <time>2020-07-16T02:37:13.034Z</time>
      </trkpt>
      <trkpt lat="64.82776" lon="11.61007">
        <ele>0.276604</ele>
        <time>2020-07-16T02:37:18.360Z</time>
      </trkpt>
      <trkpt lat="64.82775" lon="11.60969">
        <ele>0.304358</ele>
        <time>2020-07-16T02:37:21.395Z</time>
      </trkpt>
      <trkpt lat="64.8277" lon="11.60887">
        <ele>0.35131</ele>
        <time>2020-07-16T02:37:28.010Z</time>
      </trkpt>
      <trkpt lat="64.8273" lon="11.60687">
        <ele>0.463528</ele>
        <time>2020-07-16T02:37:45.494Z</time>
      </trkpt>
      <trkpt lat="64.82722" lon="11.60469">
        <ele>0.474921</ele>
        <time>2020-07-16T02:38:01.981Z</time>
      </trkpt>
      <trkpt lat="64.8272" lon="11.60445">
        <ele>0.45581</ele>
        <time>2020-07-16T02:38:03.846Z</time>
      </trkpt>
      <trkpt lat="64.82719" lon="11.60432">
        <ele>0.445603</ele>
        <time>2020-07-16T02:38:04.705Z</time>
      </trkpt>
      <trkpt lat="64.82711" lon="11.60376">
        <ele>0.399085</ele>
        <time>2020-07-16T02:38:09.191Z</time>
      </trkpt>
      <trkpt lat="64.82699" lon="11.60296">
        <ele>0.332475</ele>
        <time>2020-07-16T02:38:15.419Z</time>
      </trkpt>
      <trkpt lat="64.82695" lon="11.60271">
        <ele>0.311876</ele>
        <time>2020-07-16T02:38:17.250Z</time>
      </trkpt>
      <trkpt lat="64.82641" lon="11.59911">
        <ele>0.094949</ele>
        <time>2020-07-16T02:38:45.257Z</time>
      </trkpt>
      <trkpt lat="64.82608" lon="11.59655">
        <ele>0.051093</ele>
        <time>2020-07-16T02:39:05.619Z</time>
      </trkpt>
      <trkpt lat="64.82594" lon="11.59531">
        <ele>0.103724</ele>
        <time>2020-07-16T02:39:15.594Z</time>
      </trkpt>
      <trkpt lat="64.82581" lon="11.59402">
        <ele>0.157969</ele>
        <time>2020-07-16T02:39:26.016Z</time>
      </trkpt>
      <trkpt lat="64.8258" lon="11.59393">
        <ele>0.161508</ele>
        <time>2020-07-16T02:39:26.729Z</time>
      </trkpt>
      <trkpt lat="64.82561" lon="11.59191">
        <ele>0.196516</ele>
        <time>2020-07-16T02:39:42.596Z</time>
      </trkpt>
      <trkpt lat="64.82554" lon="11.59077">
        <ele>0.203686</ele>
        <time>2020-07-16T02:39:51.343Z</time>
      </trkpt>
      <trkpt lat="64.82541" lon="11.58872">
        <ele>0.194918</ele>
        <time>2020-07-16T02:40:06.932Z</time>
      </trkpt>
      <trkpt lat="64.8254" lon="11.58851">
        <ele>0.18553</ele>
        <time>2020-07-16T02:40:08.513Z</time>
      </trkpt>
      <trkpt lat="64.82539" lon="11.58835">
        <ele>0.178072</ele>
        <time>2020-07-16T02:40:09.779Z</time>
      </trkpt>
      <trkpt lat="64.82534" lon="11.58737">
        <ele>0.13416</ele>
        <time>2020-07-16T02:40:17.077Z</time>
      </trkpt>
      <trkpt lat="64.82532" lon="11.58685">
        <ele>0.110557</ele>
        <time>2020-07-16T02:40:20.931Z</time>
      </trkpt>
      <trkpt lat="64.82523" lon="11.58514">
        <ele>0.033625</ele>
        <time>2020-07-16T02:40:33.768Z</time>
      </trkpt>
      <trkpt lat="64.82521" lon="11.5848">
        <ele>0.024245</ele>
        <time>2020-07-16T02:40:36.350Z</time>
      </trkpt>
      <trkpt lat="64.82517" lon="11.58416">
        <ele>0.02042</ele>
        <time>2020-07-16T02:40:41.247Z</time>
      </trkpt>
      <trkpt lat="64.82511" lon="11.58348">
        <ele>0.016277</ele>
        <time>2020-07-16T02:40:46.565Z</time>
      </trkpt>
      <trkpt lat="64.82503" lon="11.58262">
        <ele>0.011056</ele>
        <time>2020-07-16T02:40:53.241Z</time>
      </trkpt>
      <trkpt lat="64.82481" lon="11.58091">
        <ele>0.000477</ele>
        <time>2020-07-16T02:41:06.765Z</time>
      </trkpt>
      <trkpt lat="64.82471" lon="11.58024">
        <ele>0.006271</ele>
        <time>2020-07-16T02:41:12.214Z</time>
      </trkpt>
      <trkpt lat="64.82464" lon="11.5798">
        <ele>0.010858</ele>
        <time>2020-07-16T02:41:15.760Z</time>
      </trkpt>
      <trkpt lat="64.82456" lon="11.57935">
        <ele>0.015704</ele>
        <time>2020-07-16T02:41:19.493Z</time>
      </trkpt>
      <trkpt lat="64.82438" lon="11.57826">
        <ele>0.0272</ele>
        <time>2020-07-16T02:41:28.387Z</time>
      </trkpt>
      <trkpt lat="64.82426" lon="11.57749">
        <ele>0.035254</ele>
        <time>2020-07-16T02:41:34.648Z</time>
      </trkpt>
      <trkpt lat="64.82422" lon="11.57719">
        <ele>0.038391</ele>
        <time>2020-07-16T02:41:37.090Z</time>
      </trkpt>
      <trkpt lat="64.82405" lon="11.57589">
        <ele>0.11094</ele>
        <time>2020-07-16T02:41:47.550Z</time>
      </trkpt>
      <trkpt lat="64.82384" lon="11.57422">
        <ele>0.226836</ele>
        <time>2020-07-16T02:42:00.926Z</time>
      </trkpt>
      <trkpt lat="64.82295" lon="11.56713">
        <ele>2.442337</ele>
        <time>2020-07-16T02:43:00.629Z</time>
      </trkpt>
      <trkpt lat="64.82272" lon="11.56529">
        <ele>4.090929</ele>
        <time>2020-07-16T02:43:21.808Z</time>
      </trkpt>
      <trkpt lat="64.82266" lon="11.56479">
        <ele>4.543546</ele>
        <time>2020-07-16T02:43:27.947Z</time>
      </trkpt>
      <trkpt lat="64.82264" lon="11.56464">
        <ele>4.806726</ele>
        <time>2020-07-16T02:43:29.870Z</time>
      </trkpt>
      <trkpt lat="64.8226" lon="11.56437">
        <ele>5.480514</ele>
        <time>2020-07-16T02:43:34.408Z</time>
      </trkpt>
      <trkpt lat="64.8224" lon="11.5632">
        <ele>8.481895</ele>
        <time>2020-07-16T02:43:52.662Z</time>
      </trkpt>
      <trkpt lat="64.82204" lon="11.56165">
        <ele>12.649681</ele>
        <time>2020-07-16T02:44:21.202Z</time>
      </trkpt>
      <trkpt lat="64.82186" lon="11.56088">
        <ele>14.732181</ele>
        <time>2020-07-16T02:44:36.302Z</time>
      </trkpt>
      <trkpt lat="64.82175" lon="11.5603">
        <ele>16.107506</ele>
        <time>2020-07-16T02:44:46.147Z</time>
      </trkpt>
      <trkpt lat="64.82169" lon="11.55997">
        <ele>16.879394</ele>
        <time>2020-07-16T02:44:51.504Z</time>
      </trkpt>
      <trkpt lat="64.82164" lon="11.55965">
        <ele>17.604467</ele>
        <time>2020-07-16T02:44:56.682Z</time>
      </trkpt>
      <trkpt lat="64.82158" lon="11.55919">
        <ele>18.658491</ele>
        <time>2020-07-16T02:45:03.831Z</time>
      </trkpt>
      <trkpt lat="64.82148" lon="11.55829">
        <ele>20.67619</ele>
        <time>2020-07-16T02:45:17.403Z</time>
      </trkpt>
      <trkpt lat="64.82143" lon="11.55777">
        <ele>21.818312</ele>
        <time>2020-07-16T02:45:25.202Z</time>
      </trkpt>
      <trkpt lat="64.82143" lon="11.55774">
        <ele>21.886096</ele>
        <time>2020-07-16T02:45:25.906Z</time>
      </trkpt>
      <trkpt lat="64.82138" lon="11.55576">
        <ele>25.501174</ele>
        <time>2020-07-16T02:45:50.410Z</time>
      </trkpt>
      <trkpt lat="64.8214" lon="11.55515">
        <ele>26.43739</ele>
        <time>2020-07-16T02:45:57.543Z</time>
      </trkpt>
      <trkpt lat="64.82144" lon="11.5543">
        <ele>27.754266</ele>
        <time>2020-07-16T02:46:07.466Z</time>
      </trkpt>
      <trkpt lat="64.82156" lon="11.55198">
        <ele>31.421243</ele>
        <time>2020-07-16T02:46:37.993Z</time>
      </trkpt>
      <trkpt lat="64.82156" lon="11.55084">
        <ele>33.273461</ele>
        <time>2020-07-16T02:46:53.400Z</time>
      </trkpt>
      <trkpt lat="64.82154" lon="11.55014">
        <ele>34.414368</ele>
        <time>2020-07-16T02:47:02.806Z</time>
      </trkpt>
      <trkpt lat="64.82149" lon="11.54937">
        <ele>35.679744</ele>
        <time>2020-07-16T02:47:12.972Z</time>
      </trkpt>
      <trkpt lat="64.82126" lon="11.54748">
        <ele>37.607756</ele>
        <time>2020-07-16T02:47:36.265Z</time>
      </trkpt>
      <trkpt lat="64.82087" lon="11.54565">
        <ele>38.45327</ele>
        <time>2020-07-16T02:47:54.119Z</time>
      </trkpt>
      <trkpt lat="64.82061" lon="11.54468">
        <ele>38.918734</ele>
        <time>2020-07-16T02:48:01.929Z</time>
      </trkpt>
      <trkpt lat="64.82043" lon="11.54403">
        <ele>38.292276</ele>
        <time>2020-07-16T02:48:06.919Z</time>
      </trkpt>
      <trkpt lat="64.82014" lon="11.5428">
        <ele>37.140104</ele>
        <time>2020-07-16T02:48:15.914Z</time>
      </trkpt>
      <trkpt lat="64.81984" lon="11.54115">
        <ele>35.67937</ele>
        <time>2020-07-16T02:48:26.383Z</time>
      </trkpt>
      <trkpt lat="64.81971" lon="11.54031">
        <ele>34.219608</ele>
        <time>2020-07-16T02:48:31.277Z</time>
      </trkpt>
      <trkpt lat="64.81956" lon="11.53933">
        <ele>32.180792</ele>
        <time>2020-07-16T02:48:36.864Z</time>
      </trkpt>
      <trkpt lat="64.81941" lon="11.53826">
        <ele>29.972044</ele>
        <time>2020-07-16T02:48:42.767Z</time>
      </trkpt>
      <trkpt lat="64.81924" lon="11.53704">
        <ele>27.452639</ele>
        <time>2020-07-16T02:48:49.301Z</time>
      </trkpt>
      <trkpt lat="64.81887" lon="11.53419">
        <ele>20.375566</ele>
        <time>2020-07-16T02:49:04.122Z</time>
      </trkpt>
      <trkpt lat="64.81869" lon="11.53215">
        <ele>16.296946</ele>
        <time>2020-07-16T02:49:14.951Z</time>
      </trkpt>
      <trkpt lat="64.81865" lon="11.53144">
        <ele>15.486686</ele>
        <time>2020-07-16T02:49:18.855Z</time>
      </trkpt>
      <trkpt lat="64.81864" lon="11.53104">
        <ele>15.03808</ele>
        <time>2020-07-16T02:49:21.063Z</time>
      </trkpt>
      <trkpt lat="64.81863" lon="11.5293">
        <ele>13.076478</ele>
        <time>2020-07-16T02:49:31.452Z</time>
      </trkpt>
      <trkpt lat="64.81865" lon="11.52872">
        <ele>12.424494</ele>
        <time>2020-07-16T02:49:35.190Z</time>
      </trkpt>
      <trkpt lat="64.81867" lon="11.52806">
        <ele>12.600316</ele>
        <time>2020-07-16T02:49:39.752Z</time>
      </trkpt>
      <trkpt lat="64.8187" lon="11.52748">
        <ele>12.879127</ele>
        <time>2020-07-16T02:49:44.457Z</time>
      </trkpt>
      <trkpt lat="64.81878" lon="11.52641">
        <ele>13.390897</ele>
        <time>2020-07-16T02:49:54.272Z</time>
      </trkpt>
      <trkpt lat="64.81898" lon="11.52466">
        <ele>14.247226</ele>
        <time>2020-07-16T02:50:13.402Z</time>
      </trkpt>
      <trkpt lat="64.8192" lon="11.52306">
        <ele>15.844263</ele>
        <time>2020-07-16T02:50:32.356Z</time>
      </trkpt>
      <trkpt lat="64.81927" lon="11.52246">
        <ele>16.47581</ele>
        <time>2020-07-16T02:50:39.274Z</time>
      </trkpt>
      <trkpt lat="64.81934" lon="11.52182">
        <ele>17.137504</ele>
        <time>2020-07-16T02:50:46.401Z</time>
      </trkpt>
      <trkpt lat="64.8194" lon="11.5211">
        <ele>17.874538</ele>
        <time>2020-07-16T02:50:54.165Z</time>
      </trkpt>
      <trkpt lat="64.81946" lon="11.51922">
        <ele>19.809909</ele>
        <time>2020-07-16T02:51:13.663Z</time>
      </trkpt>
      <trkpt lat="64.81945" lon="11.51721">
        <ele>21.90822</ele>
        <time>2020-07-16T02:51:35.068Z</time>
      </trkpt>
      <trkpt lat="64.81946" lon="11.51667">
        <ele>22.477504</ele>
        <time>2020-07-16T02:51:41.247Z</time>
      </trkpt>
      <trkpt lat="64.81949" lon="11.51578">
        <ele>23.874941</ele>
        <time>2020-07-16T02:51:51.770Z</time>
      </trkpt>
      <trkpt lat="64.81951" lon="11.51537">
        <ele>24.769103</ele>
        <time>2020-07-16T02:51:56.858Z</time>
      </trkpt>
      <trkpt lat="64.81955" lon="11.51473">
        <ele>26.173175</ele>
        <time>2020-07-16T02:52:05.212Z</time>
      </trkpt>
      <trkpt lat="64.81981" lon="11.5126">
        <ele>30.990178</ele>
        <time>2020-07-16T02:52:38.239Z</time>
      </trkpt>
      <trkpt lat="64.82019" lon="11.51077">
        <ele>36.942692</ele>
        <time>2020-07-16T02:53:15.236Z</time>
      </trkpt>
      <trkpt lat="64.82045" lon="11.50974">
        <ele>40.724138</ele>
        <time>2020-07-16T02:53:37.260Z</time>
      </trkpt>
      <trkpt lat="64.82067" lon="11.50885">
        <ele>44.019323</ele>
        <time>2020-07-16T02:53:56.107Z</time>
      </trkpt>
      <trkpt lat="64.82112" lon="11.50711">
        <ele>48.543119</ele>
        <time>2020-07-16T02:54:31.371Z</time>
      </trkpt>
      <trkpt lat="64.8219" lon="11.50401">
        <ele>53.61318</ele>
        <time>2020-07-16T02:55:14.087Z</time>
      </trkpt>
      <trkpt lat="64.82296" lon="11.49904">
        <ele>51.641603</ele>
        <time>2020-07-16T02:55:49.775Z</time>
      </trkpt>
      <trkpt lat="64.82347" lon="11.49701">
        <ele>49.798931</ele>
        <time>2020-07-16T02:56:03.412Z</time>
      </trkpt>
      <trkpt lat="64.82359" lon="11.49662">
        <ele>49.44472</ele>
        <time>2020-07-16T02:56:06.107Z</time>
      </trkpt>
      <trkpt lat="64.82411" lon="11.49739">
        <ele>48.366353</ele>
        <time>2020-07-16T02:56:14.635Z</time>
      </trkpt>
      <trkpt lat="64.82606" lon="11.49985">
        <ele>46.488956</ele>
        <time>2020-07-16T02:56:49.224Z</time>
      </trkpt>
      <trkpt lat="64.82863" lon="11.50426">
        <ele>50.716644</ele>
        <time>2020-07-16T02:58:01.017Z</time>
      </trkpt>
      <trkpt lat="64.8299" lon="11.50629">
        <ele>53.721349</ele>
        <time>2020-07-16T02:58:39.988Z</time>
      </trkpt>
      <trkpt lat="64.83037" lon="11.50671">
        <ele>54.742212</ele>
        <time>2020-07-16T02:58:52.582Z</time>
      </trkpt>
      <trkpt lat="64.83143" lon="11.50705">
        <ele>56.289355</ele>
        <time>2020-07-16T02:59:16.885Z</time>
      </trkpt>
      <trkpt lat="64.83199" lon="11.50773">
        <ele>56.77241</ele>
        <time>2020-07-16T02:59:29.784Z</time>
      </trkpt>
      <trkpt lat="64.83308" lon="11.5095">
        <ele>57.272998</ele>
        <time>2020-07-16T02:59:53.935Z</time>
      </trkpt>
      <trkpt lat="64.83399" lon="11.51175">
        <ele>57.225425</ele>
        <time>2020-07-16T03:00:17.048Z</time>
      </trkpt>
      <trkpt lat="64.83435" lon="11.51236">
        <ele>57.175004</ele>
        <time>2020-07-16T03:00:24.838Z</time>
      </trkpt>
      <trkpt lat="64.83785" lon="11.51509">
        <ele>55.963664</ele>
        <time>2020-07-16T03:01:29.115Z</time>
      </trkpt>
      <trkpt lat="64.83893" lon="11.51603">
        <ele>54.524536</ele>
        <time>2020-07-16T03:01:45.878Z</time>
      </trkpt>
      <trkpt lat="64.83938" lon="11.51671">
        <ele>52.979485</ele>
        <time>2020-07-16T03:01:53.049Z</time>
      </trkpt>
      <trkpt lat="64.84003" lon="11.51838">
        <ele>50.160873</ele>
        <time>2020-07-16T03:02:05.810Z</time>
      </trkpt>
      <trkpt lat="64.84033" lon="11.51877">
        <ele>48.925637</ele>
        <time>2020-07-16T03:02:10.286Z</time>
      </trkpt>
      <trkpt lat="64.84063" lon="11.51886">
        <ele>47.288579</ele>
        <time>2020-07-16T03:02:14.058Z</time>
      </trkpt>
      <trkpt lat="64.84097" lon="11.51868">
        <ele>45.435938</ele>
        <time>2020-07-16T03:02:18.253Z</time>
      </trkpt>
      <trkpt lat="64.8413" lon="11.51824">
        <ele>43.393378</ele>
        <time>2020-07-16T03:02:22.817Z</time>
      </trkpt>
      <trkpt lat="64.84178" lon="11.51737">
        <ele>40.100276</ele>
        <time>2020-07-16T03:02:29.951Z</time>
      </trkpt>
      <trkpt lat="64.84179" lon="11.51735">
        <ele>40.040775</ele>
        <time>2020-07-16T03:02:30.062Z</time>
      </trkpt>
      <trkpt lat="64.84231" lon="11.51643">
        <ele>35.319953</ele>
        <time>2020-07-16T03:02:37.467Z</time>
      </trkpt>
      <trkpt lat="64.84273" lon="11.51578">
        <ele>31.579442</ele>
        <time>2020-07-16T03:02:43.135Z</time>
      </trkpt>
      <trkpt lat="64.84285" lon="11.51564">
        <ele>30.55194</ele>
        <time>2020-07-16T03:02:44.680Z</time>
      </trkpt>
      <trkpt lat="64.84297" lon="11.51553">
        <ele>29.5669</ele>
        <time>2020-07-16T03:02:46.163Z</time>
      </trkpt>
      <trkpt lat="64.8434" lon="11.51537">
        <ele>26.369761</ele>
        <time>2020-07-16T03:02:51.004Z</time>
      </trkpt>
      <trkpt lat="64.84384" lon="11.51551">
        <ele>24.292226</ele>
        <time>2020-07-16T03:02:56.154Z</time>
      </trkpt>
      <trkpt lat="64.84479" lon="11.51614">
        <ele>19.716712</ele>
        <time>2020-07-16T03:03:08.203Z</time>
      </trkpt>
      <trkpt lat="64.84505" lon="11.51631">
        <ele>18.473763</ele>
        <time>2020-07-16T03:03:11.994Z</time>
      </trkpt>
      <trkpt lat="64.84521" lon="11.51641">
        <ele>17.985263</ele>
        <time>2020-07-16T03:03:14.408Z</time>
      </trkpt>
      <trkpt lat="64.84591" lon="11.51668">
        <ele>17.961492</ele>
        <time>2020-07-16T03:03:25.589Z</time>
      </trkpt>
      <trkpt lat="64.84623" lon="11.51697">
        <ele>17.949895</ele>
        <time>2020-07-16T03:03:32.059Z</time>
      </trkpt>
      <trkpt lat="64.84632" lon="11.51709">
        <ele>17.946505</ele>
        <time>2020-07-16T03:03:34.069Z</time>
      </trkpt>
      <trkpt lat="64.84643" lon="11.51728">
        <ele>17.941973</ele>
        <time>2020-07-16T03:03:37.116Z</time>
      </trkpt>
      <trkpt lat="64.84655" lon="11.51761">
        <ele>17.935762</ele>
        <time>2020-07-16T03:03:41.130Z</time>
      </trkpt>
      <trkpt lat="64.84662" lon="11.51798">
        <ele>17.930119</ele>
        <time>2020-07-16T03:03:45.217Z</time>
      </trkpt>
      <trkpt lat="64.8467" lon="11.5208">
        <ele>19.63328</ele>
        <time>2020-07-16T03:04:13.146Z</time>
      </trkpt>
      <trkpt lat="64.84671" lon="11.52101">
        <ele>19.774062</ele>
        <time>2020-07-16T03:04:15.439Z</time>
      </trkpt>
      <trkpt lat="64.84673" lon="11.52138">
        <ele>20.011605</ele>
        <time>2020-07-16T03:04:18.824Z</time>
      </trkpt>
      <trkpt lat="64.84717" lon="11.52468">
        <ele>21.707356</ele>
        <time>2020-07-16T03:04:50.642Z</time>
      </trkpt>
      <trkpt lat="64.8474" lon="11.52572">
        <ele>22.202294</ele>
        <time>2020-07-16T03:05:00.630Z</time>
      </trkpt>
      <trkpt lat="64.84793" lon="11.52774">
        <ele>23.163766</ele>
        <time>2020-07-16T03:05:21.591Z</time>
      </trkpt>
      <trkpt lat="64.84814" lon="11.52984">
        <ele>24.017993</ele>
        <time>2020-07-16T03:05:41.332Z</time>
      </trkpt>
      <trkpt lat="64.84842" lon="11.53148">
        <ele>23.862175</ele>
        <time>2020-07-16T03:05:55.978Z</time>
      </trkpt>
      <trkpt lat="64.84855" lon="11.53198">
        <ele>23.748955</ele>
        <time>2020-07-16T03:06:00.296Z</time>
      </trkpt>
      <trkpt lat="64.84858" lon="11.53204">
        <ele>23.729882</ele>
        <time>2020-07-16T03:06:01.431Z</time>
      </trkpt>
      <trkpt lat="64.84863" lon="11.53212">
        <ele>23.703418</ele>
        <time>2020-07-16T03:06:02.224Z</time>
      </trkpt>
      <trkpt lat="64.84904" lon="11.53255">
        <ele>23.498296</ele>
        <time>2020-07-16T03:06:09.214Z</time>
      </trkpt>
      <trkpt lat="64.84981" lon="11.53306">
        <ele>22.573573</ele>
        <time>2020-07-16T03:06:20.835Z</time>
      </trkpt>
      <trkpt lat="64.85033" lon="11.53341">
        <ele>21.602133</ele>
        <time>2020-07-16T03:06:28.195Z</time>
      </trkpt>
      <trkpt lat="64.85131" lon="11.53401">
        <ele>20.219111</ele>
        <time>2020-07-16T03:06:42.707Z</time>
      </trkpt>
      <trkpt lat="64.85174" lon="11.53444">
        <ele>20.5755</ele>
        <time>2020-07-16T03:06:50.299Z</time>
      </trkpt>
      <trkpt lat="64.85182" lon="11.53459">
        <ele>20.658791</ele>
        <time>2020-07-16T03:06:51.989Z</time>
      </trkpt>
      <trkpt lat="64.85189" lon="11.53471">
        <ele>20.724743</ele>
        <time>2020-07-16T03:06:54.118Z</time>
      </trkpt>
      <trkpt lat="64.85291" lon="11.53743">
        <ele>23.116109</ele>
        <time>2020-07-16T03:07:31.721Z</time>
      </trkpt>
      <trkpt lat="64.85313" lon="11.53779">
        <ele>23.899254</ele>
        <time>2020-07-16T03:07:39.715Z</time>
      </trkpt>
      <trkpt lat="64.85379" lon="11.5386">
        <ele>26.061513</ele>
        <time>2020-07-16T03:08:00.954Z</time>
      </trkpt>
      <trkpt lat="64.85392" lon="11.53882">
        <ele>26.533655</ele>
        <time>2020-07-16T03:08:05.570Z</time>
      </trkpt>
      <trkpt lat="64.85402" lon="11.53904">
        <ele>26.869787</ele>
        <time>2020-07-16T03:08:09.580Z</time>
      </trkpt>
      <trkpt lat="64.85433" lon="11.54003">
        <ele>27.922016</ele>
        <time>2020-07-16T03:08:23.743Z</time>
      </trkpt>
      <trkpt lat="64.85529" lon="11.54492">
        <ele>31.37032</ele>
        <time>2020-07-16T03:09:15.111Z</time>
      </trkpt>
      <trkpt lat="64.85549" lon="11.54575">
        <ele>31.759106</ele>
        <time>2020-07-16T03:09:22.615Z</time>
      </trkpt>
      <trkpt lat="64.85574" lon="11.54645">
        <ele>32.106938</ele>
        <time>2020-07-16T03:09:29.739Z</time>
      </trkpt>
      <trkpt lat="64.85599" lon="11.54693">
        <ele>32.326886</ele>
        <time>2020-07-16T03:09:35.608Z</time>
      </trkpt>
      <trkpt lat="64.85721" lon="11.54847">
        <ele>33.279839</ele>
        <time>2020-07-16T03:10:03.538Z</time>
      </trkpt>
      <trkpt lat="64.8575" lon="11.54906">
        <ele>33.32245</ele>
        <time>2020-07-16T03:10:12.568Z</time>
      </trkpt>
      <trkpt lat="64.85765" lon="11.54963">
        <ele>33.352527</ele>
        <time>2020-07-16T03:10:19.059Z</time>
      </trkpt>
      <trkpt lat="64.85803" lon="11.55214">
        <ele>33.473457</ele>
        <time>2020-07-16T03:10:39.338Z</time>
      </trkpt>
      <trkpt lat="64.85818" lon="11.55287">
        <ele>32.040496</ele>
        <time>2020-07-16T03:10:44.265Z</time>
      </trkpt>
      <trkpt lat="64.85948" lon="11.55701">
        <ele>22.256787</ele>
        <time>2020-07-16T03:11:10.639Z</time>
      </trkpt>
      <trkpt lat="64.85974" lon="11.55799">
        <ele>19.78796</ele>
        <time>2020-07-16T03:11:16.389Z</time>
      </trkpt>
      <trkpt lat="64.86047" lon="11.56088">
        <ele>13.991957</ele>
        <time>2020-07-16T03:11:34.071Z</time>
      </trkpt>
      <trkpt lat="64.86097" lon="11.5629">
        <ele>10.745566</ele>
        <time>2020-07-16T03:11:47.689Z</time>
      </trkpt>
      <trkpt lat="64.86122" lon="11.56366">
        <ele>10.200893</ele>
        <time>2020-07-16T03:11:53.436Z</time>
      </trkpt>
      <trkpt lat="64.86146" lon="11.56415">
        <ele>9.777753</ele>
        <time>2020-07-16T03:11:58.018Z</time>
      </trkpt>
      <trkpt lat="64.86206" lon="11.56506">
        <ele>8.817225</ele>
        <time>2020-07-16T03:12:08.822Z</time>
      </trkpt>
      <trkpt lat="64.86242" lon="11.56589">
        <ele>8.545937</ele>
        <time>2020-07-16T03:12:17.201Z</time>
      </trkpt>
      <trkpt lat="64.86309" lon="11.56758">
        <ele>9.314252</ele>
        <time>2020-07-16T03:12:36.629Z</time>
      </trkpt>
      <trkpt lat="64.86319" lon="11.56783">
        <ele>9.427352</ele>
        <time>2020-07-16T03:12:39.911Z</time>
      </trkpt>
      <trkpt lat="64.86344" lon="11.56847">
        <ele>9.713324</ele>
        <time>2020-07-16T03:12:47.940Z</time>
      </trkpt>
      <trkpt lat="64.86383" lon="11.56928">
        <ele>11.227517</ele>
        <time>2020-07-16T03:13:00.393Z</time>
      </trkpt>
      <trkpt lat="64.86388" lon="11.56934">
        <ele>11.411849</ele>
        <time>2020-07-16T03:13:02.036Z</time>
      </trkpt>
      <trkpt lat="64.864" lon="11.56947">
        <ele>11.855201</ele>
        <time>2020-07-16T03:13:05.797Z</time>
      </trkpt>
      <trkpt lat="64.86433" lon="11.56967">
        <ele>13.041908</ele>
        <time>2020-07-16T03:13:15.790Z</time>
      </trkpt>
      <trkpt lat="64.86494" lon="11.56969">
        <ele>15.142834</ele>
        <time>2020-07-16T03:13:34.475Z</time>
      </trkpt>
      <trkpt lat="64.86496" lon="11.56967">
        <ele>15.242201</ele>
        <time>2020-07-16T03:13:35.460Z</time>
      </trkpt>
      <trkpt lat="64.8652" lon="11.57089">
        <ele>17.913284</ele>
        <time>2020-07-16T03:13:54.436Z</time>
      </trkpt>
      <trkpt lat="64.8666" lon="11.57814">
        <ele>37.045804</ele>
        <time>2020-07-16T03:15:57.184Z</time>
      </trkpt>
      <trkpt lat="64.86698" lon="11.58179">
        <ele>46.646107</ele>
        <time>2020-07-16T03:16:55.561Z</time>
      </trkpt>
      <trkpt lat="64.86748" lon="11.58522">
        <ele>57.176755</ele>
        <time>2020-07-16T03:17:58.524Z</time>
      </trkpt>
      <trkpt lat="64.86751" lon="11.58548">
        <ele>57.970671</ele>
        <time>2020-07-16T03:18:04.111Z</time>
      </trkpt>
      <trkpt lat="64.86754" lon="11.58583">
        <ele>59.008657</ele>
        <time>2020-07-16T03:18:09.295Z</time>
      </trkpt>
      <trkpt lat="64.86759" lon="11.5866">
        <ele>60.632639</ele>
        <time>2020-07-16T03:18:21.567Z</time>
      </trkpt>
      <trkpt lat="64.86761" lon="11.58716">
        <ele>61.7091</ele>
        <time>2020-07-16T03:18:30.728Z</time>
      </trkpt>
      <trkpt lat="64.86767" lon="11.58716">
        <ele>61.994233</ele>
        <time>2020-07-16T03:18:32.723Z</time>
      </trkpt>
      <trkpt lat="64.86771" lon="11.58716">
        <ele>62.159104</ele>
        <time>2020-07-16T03:18:33.897Z</time>
      </trkpt>
      <trkpt lat="64.86771" lon="11.58777">
        <ele>63.315253</ele>
        <time>2020-07-16T03:18:43.197Z</time>
      </trkpt>
      <trkpt lat="64.86756" lon="11.59015">
        <ele>67.647424</ele>
        <time>2020-07-16T03:19:12.316Z</time>
      </trkpt>
      <trkpt lat="64.86724" lon="11.59195">
        <ele>69.305235</ele>
        <time>2020-07-16T03:19:32.640Z</time>
      </trkpt>
      <trkpt lat="64.86706" lon="11.59292">
        <ele>70.201285</ele>
        <time>2020-07-16T03:19:43.266Z</time>
      </trkpt>
      <trkpt lat="64.86684" lon="11.59408">
        <ele>71.166466</ele>
        <time>2020-07-16T03:19:55.250Z</time>
      </trkpt>
      <trkpt lat="64.86682" lon="11.59445">
        <ele>71.320109</ele>
        <time>2020-07-16T03:19:58.638Z</time>
      </trkpt>
      <trkpt lat="64.8668" lon="11.59453">
        <ele>71.357418</ele>
        <time>2020-07-16T03:19:59.683Z</time>
      </trkpt>
      <trkpt lat="64.86678" lon="11.5947">
        <ele>71.432343</ele>
        <time>2020-07-16T03:20:01.322Z</time>
      </trkpt>
      <trkpt lat="64.86677" lon="11.59484">
        <ele>71.492927</ele>
        <time>2020-07-16T03:20:02.509Z</time>
      </trkpt>
      <trkpt lat="64.86607" lon="11.59616">
        <ele>72.370686</ele>
        <time>2020-07-16T03:20:21.126Z</time>
      </trkpt>
      <trkpt lat="64.86606" lon="11.59628">
        <ele>72.422432</ele>
        <time>2020-07-16T03:20:22.388Z</time>
      </trkpt>
      <trkpt lat="64.86599" lon="11.59637">
        <ele>72.500452</ele>
        <time>2020-07-16T03:20:23.974Z</time>
      </trkpt>
      <trkpt lat="64.86592" lon="11.59648">
        <ele>72.581974</ele>
        <time>2020-07-16T03:20:25.509Z</time>
      </trkpt>
      <trkpt lat="64.8658" lon="11.59669">
        <ele>72.728547</ele>
        <time>2020-07-16T03:20:28.745Z</time>
      </trkpt>
      <trkpt lat="64.86556" lon="11.59731">
        <ele>73.169821</ele>
        <time>2020-07-16T03:20:36.309Z</time>
      </trkpt>
      <trkpt lat="64.8655" lon="11.59771">
        <ele>73.398322</ele>
        <time>2020-07-16T03:20:39.557Z</time>
      </trkpt>
      <trkpt lat="64.86547" lon="11.59859">
        <ele>73.891322</ele>
        <time>2020-07-16T03:20:47.454Z</time>
      </trkpt>
      <trkpt lat="64.86546" lon="11.59886">
        <ele>74.038208</ele>
        <time>2020-07-16T03:20:50.125Z</time>
      </trkpt>
      <trkpt lat="64.86544" lon="11.59902">
        <ele>74.132947</ele>
        <time>2020-07-16T03:20:51.698Z</time>
      </trkpt>
      <trkpt lat="64.86542" lon="11.59964">
        <ele>74.474859</ele>
        <time>2020-07-16T03:20:57.878Z</time>
      </trkpt>
      <trkpt lat="64.86543" lon="11.59983">
        <ele>74.582056</ele>
        <time>2020-07-16T03:20:59.968Z</time>
      </trkpt>
      <trkpt lat="64.86549" lon="11.60043">
        <ele>74.924186</ele>
        <time>2020-07-16T03:21:06.356Z</time>
      </trkpt>
      <trkpt lat="64.86553" lon="11.60101">
        <ele>75.227813</ele>
        <time>2020-07-16T03:21:12.551Z</time>
      </trkpt>
      <trkpt lat="64.86555" lon="11.60119">
        <ele>75.304371</ele>
        <time>2020-07-16T03:21:15.063Z</time>
      </trkpt>
      <trkpt lat="64.8656" lon="11.60135">
        <ele>75.381633</ele>
        <time>2020-07-16T03:21:17.558Z</time>
      </trkpt>
      <trkpt lat="64.8657" lon="11.60157">
        <ele>75.511256</ele>
        <time>2020-07-16T03:21:21.201Z</time>
      </trkpt>
      <trkpt lat="64.86574" lon="11.60161">
        <ele>75.551409</ele>
        <time>2020-07-16T03:21:21.979Z</time>
      </trkpt>
      <trkpt lat="64.86582" lon="11.60168">
        <ele>75.634256</ele>
        <time>2020-07-16T03:21:24.310Z</time>
      </trkpt>
      <trkpt lat="64.86614" lon="11.60165">
        <ele>75.930484</ele>
        <time>2020-07-16T03:21:32.208Z</time>
      </trkpt>
      <trkpt lat="64.86618" lon="11.60158">
        <ele>75.981107</ele>
        <time>2020-07-16T03:21:33.874Z</time>
      </trkpt>
      <trkpt lat="64.86623" lon="11.60175">
        <ele>76.062404</ele>
        <time>2020-07-16T03:21:36.313Z</time>
      </trkpt>
      <trkpt lat="64.86624" lon="11.6018">
        <ele>76.081537</ele>
        <time>2020-07-16T03:21:37.114Z</time>
      </trkpt>
      <trkpt lat="64.86634" lon="11.60203">
        <ele>76.213029</ele>
        <time>2020-07-16T03:21:40.009Z</time>
      </trkpt>
      <trkpt lat="64.86648" lon="11.60224">
        <ele>76.369319</ele>
        <time>2020-07-16T03:21:42.727Z</time>
      </trkpt>
      <trkpt lat="64.86652" lon="11.60229">
        <ele>76.412173</ele>
        <time>2020-07-16T03:21:44.157Z</time>
      </trkpt>
      <trkpt lat="64.86677" lon="11.60239">
        <ele>76.64605</ele>
        <time>2020-07-16T03:21:48.233Z</time>
      </trkpt>
      <trkpt lat="64.867" lon="11.60238">
        <ele>76.865022</ele>
        <time>2020-07-16T03:21:52.569Z</time>
      </trkpt>
      <trkpt lat="64.86701" lon="11.60259">
        <ele>76.526417</ele>
        <time>2020-07-16T03:21:53.865Z</time>
      </trkpt>
      <trkpt lat="64.86715" lon="11.60415">
        <ele>73.88599</ele>
        <time>2020-07-16T03:22:03.433Z</time>
      </trkpt>
      <trkpt lat="64.86717" lon="11.60425">
        <ele>73.711389</ele>
        <time>2020-07-16T03:22:03.990Z</time>
      </trkpt>
      <trkpt lat="64.86714" lon="11.60433">
        <ele>73.547465</ele>
        <time>2020-07-16T03:22:04.473Z</time>
      </trkpt>
      <trkpt lat="64.86705" lon="11.60469">
        <ele>72.846911</ele>
        <time>2020-07-16T03:22:06.814Z</time>
      </trkpt>
      <trkpt lat="64.86712" lon="11.60478">
        <ele>72.519577</ele>
        <time>2020-07-16T03:22:08.022Z</time>
      </trkpt>
      <trkpt lat="64.86719" lon="11.60491">
        <ele>72.164813</ele>
        <time>2020-07-16T03:22:09.042Z</time>
      </trkpt>
      <trkpt lat="64.86732" lon="11.60517">
        <ele>71.518713</ele>
        <time>2020-07-16T03:22:10.990Z</time>
      </trkpt>
      <trkpt lat="64.86742" lon="11.60546">
        <ele>70.898345</ele>
        <time>2020-07-16T03:22:13.013Z</time>
      </trkpt>
      <trkpt lat="64.86748" lon="11.60566">
        <ele>70.504788</ele>
        <time>2020-07-16T03:22:14.126Z</time>
      </trkpt>
      <trkpt lat="64.8675" lon="11.60574">
        <ele>70.334544</ele>
        <time>2020-07-16T03:22:14.613Z</time>
      </trkpt>
      <trkpt lat="64.86761" lon="11.60621">
        <ele>69.782069</ele>
        <time>2020-07-16T03:22:17.461Z</time>
      </trkpt>
      <trkpt lat="64.86762" lon="11.60625">
        <ele>69.770837</ele>
        <time>2020-07-16T03:22:17.622Z</time>
      </trkpt>
      <trkpt lat="64.86768" lon="11.6067">
        <ele>69.62526</ele>
        <time>2020-07-16T03:22:19.930Z</time>
      </trkpt>
      <trkpt lat="64.86786" lon="11.60875">
        <ele>68.98576</ele>
        <time>2020-07-16T03:22:33.523Z</time>
      </trkpt>
      <trkpt lat="64.8681" lon="11.60968">
        <ele>68.655987</ele>
        <time>2020-07-16T03:22:44.926Z</time>
      </trkpt>
      <trkpt lat="64.86816" lon="11.60982">
        <ele>68.595939</ele>
        <time>2020-07-16T03:22:46.247Z</time>
      </trkpt>
      <trkpt lat="64.86827" lon="11.61006">
        <ele>69.139318</ele>
        <time>2020-07-16T03:22:53.187Z</time>
      </trkpt>
      <trkpt lat="64.86847" lon="11.61043">
        <ele>70.426183</ele>
        <time>2020-07-16T03:23:00.645Z</time>
      </trkpt>
      <trkpt lat="64.86852" lon="11.61052">
        <ele>70.774166</ele>
        <time>2020-07-16T03:23:04.601Z</time>
      </trkpt>
      <trkpt lat="64.8689" lon="11.61115">
        <ele>73.154659</ele>
        <time>2020-07-16T03:23:22.692Z</time>
      </trkpt>
      <trkpt lat="64.86943" lon="11.61212">
        <ele>76.551012</ele>
        <time>2020-07-16T03:23:46.964Z</time>
      </trkpt>
      <trkpt lat="64.86972" lon="11.61304">
        <ele>77.685803</ele>
        <time>2020-07-16T03:24:02.816Z</time>
      </trkpt>
      <trkpt lat="64.86976" lon="11.61318">
        <ele>77.6702</ele>
        <time>2020-07-16T03:24:05.128Z</time>
      </trkpt>
      <trkpt lat="64.86982" lon="11.6135">
        <ele>77.63663</ele>
        <time>2020-07-16T03:24:08.105Z</time>
      </trkpt>
      <trkpt lat="64.86992" lon="11.61398">
        <ele>77.585883</ele>
        <time>2020-07-16T03:24:13.282Z</time>
      </trkpt>
      <trkpt lat="64.86996" lon="11.6142">
        <ele>77.562577</ele>
        <time>2020-07-16T03:24:14.685Z</time>
      </trkpt>
      <trkpt lat="64.87029" lon="11.61544">
        <ele>77.423472</ele>
        <time>2020-07-16T03:24:24.558Z</time>
      </trkpt>
      <trkpt lat="64.87141" lon="11.61803">
        <ele>71.055207</ele>
        <time>2020-07-16T03:24:43.729Z</time>
      </trkpt>
      <trkpt lat="64.87149" lon="11.61828">
        <ele>70.371829</ele>
        <time>2020-07-16T03:24:45.405Z</time>
      </trkpt>
      <trkpt lat="64.87156" lon="11.61851">
        <ele>69.756858</ele>
        <time>2020-07-16T03:24:46.722Z</time>
      </trkpt>
      <trkpt lat="64.87176" lon="11.61974">
        <ele>67.029673</ele>
        <time>2020-07-16T03:24:53.188Z</time>
      </trkpt>
      <trkpt lat="64.87179" lon="11.6209">
        <ele>64.930859</ele>
        <time>2020-07-16T03:24:59.046Z</time>
      </trkpt>
      <trkpt lat="64.87178" lon="11.62101">
        <ele>64.745822</ele>
        <time>2020-07-16T03:24:59.499Z</time>
      </trkpt>
      <trkpt lat="64.87177" lon="11.62122">
        <ele>64.365606</ele>
        <time>2020-07-16T03:25:00.528Z</time>
      </trkpt>
      <trkpt lat="64.87164" lon="11.62277">
        <ele>61.523022</ele>
        <time>2020-07-16T03:25:08.752Z</time>
      </trkpt>
      <trkpt lat="64.87166" lon="11.6236">
        <ele>60.674562</ele>
        <time>2020-07-16T03:25:15.100Z</time>
      </trkpt>
      <trkpt lat="64.87186" lon="11.62471">
        <ele>63.712595</ele>
        <time>2020-07-16T03:25:30.269Z</time>
      </trkpt>
      <trkpt lat="64.87225" lon="11.62584">
        <ele>67.360985</ele>
        <time>2020-07-16T03:25:54.508Z</time>
      </trkpt>
      <trkpt lat="64.87226" lon="11.6259">
        <ele>67.539485</ele>
        <time>2020-07-16T03:25:57.199Z</time>
      </trkpt>
      <trkpt lat="64.87258" lon="11.62681">
        <ele>70.506486</ele>
        <time>2020-07-16T03:26:20.039Z</time>
      </trkpt>
      <trkpt lat="64.87308" lon="11.62823">
        <ele>77.190474</ele>
        <time>2020-07-16T03:26:58.534Z</time>
      </trkpt>
      <trkpt lat="64.87378" lon="11.62985">
        <ele>85.914782</ele>
        <time>2020-07-16T03:27:45.403Z</time>
      </trkpt>
      <trkpt lat="64.87523" lon="11.63279">
        <ele>97.447862</ele>
        <time>2020-07-16T03:28:56.042Z</time>
      </trkpt>
      <trkpt lat="64.87544" lon="11.63321">
        <ele>97.694634</ele>
        <time>2020-07-16T03:29:03.832Z</time>
      </trkpt>
      <trkpt lat="64.87577" lon="11.63396">
        <ele>98.105559</ele>
        <time>2020-07-16T03:29:15.054Z</time>
      </trkpt>
      <trkpt lat="64.87611" lon="11.63504">
        <ele>98.618915</ele>
        <time>2020-07-16T03:29:25.504Z</time>
      </trkpt>
      <trkpt lat="64.87645" lon="11.63651">
        <ele>98.466586</ele>
        <time>2020-07-16T03:29:35.793Z</time>
      </trkpt>
      <trkpt lat="64.87659" lon="11.63712">
        <ele>97.673731</ele>
        <time>2020-07-16T03:29:39.784Z</time>
      </trkpt>
      <trkpt lat="64.87696" lon="11.63821">
        <ele>96.069131</ele>
        <time>2020-07-16T03:29:47.739Z</time>
      </trkpt>
      <trkpt lat="64.87787" lon="11.63972">
        <ele>92.862066</ele>
        <time>2020-07-16T03:30:02.152Z</time>
      </trkpt>
      <trkpt lat="64.87817" lon="11.64035">
        <ele>91.56621</ele>
        <time>2020-07-16T03:30:07.429Z</time>
      </trkpt>
      <trkpt lat="64.87841" lon="11.64134">
        <ele>89.987446</ele>
        <time>2020-07-16T03:30:13.832Z</time>
      </trkpt>
      <trkpt lat="64.87851" lon="11.64236">
        <ele>88.557776</ele>
        <time>2020-07-16T03:30:19.623Z</time>
      </trkpt>
      <trkpt lat="64.87845" lon="11.64362">
        <ele>86.609853</ele>
        <time>2020-07-16T03:30:26.630Z</time>
      </trkpt>
      <trkpt lat="64.87823" lon="11.64464">
        <ele>84.8319</ele>
        <time>2020-07-16T03:30:32.922Z</time>
      </trkpt>
      <trkpt lat="64.87792" lon="11.64537">
        <ele>83.234036</ele>
        <time>2020-07-16T03:30:38.521Z</time>
      </trkpt>
      <trkpt lat="64.87713" lon="11.64653">
        <ele>79.20611</ele>
        <time>2020-07-16T03:30:50.157Z</time>
      </trkpt>
      <trkpt lat="64.87689" lon="11.64697">
        <ele>77.773336</ele>
        <time>2020-07-16T03:30:53.804Z</time>
      </trkpt>
      <trkpt lat="64.87666" lon="11.64771">
        <ele>75.876716</ele>
        <time>2020-07-16T03:30:58.599Z</time>
      </trkpt>
      <trkpt lat="64.87654" lon="11.64853">
        <ele>74.100276</ele>
        <time>2020-07-16T03:31:03.051Z</time>
      </trkpt>
      <trkpt lat="64.87651" lon="11.64922">
        <ele>72.590286</ele>
        <time>2020-07-16T03:31:06.541Z</time>
      </trkpt>
      <trkpt lat="64.87656" lon="11.65009">
        <ele>70.384631</ele>
        <time>2020-07-16T03:31:10.989Z</time>
      </trkpt>
      <trkpt lat="64.87725" lon="11.65733">
        <ele>51.317327</ele>
        <time>2020-07-16T03:31:48.013Z</time>
      </trkpt>
      <trkpt lat="64.87727" lon="11.65755">
        <ele>50.808189</ele>
        <time>2020-07-16T03:31:49.054Z</time>
      </trkpt>
      <trkpt lat="64.8773" lon="11.65772">
        <ele>50.382476</ele>
        <time>2020-07-16T03:31:49.997Z</time>
      </trkpt>
      <trkpt lat="64.87738" lon="11.65814">
        <ele>49.325875</ele>
        <time>2020-07-16T03:31:52.322Z</time>
      </trkpt>
      <trkpt lat="64.87776" lon="11.65951">
        <ele>45.575143</ele>
        <time>2020-07-16T03:32:00.560Z</time>
      </trkpt>
      <trkpt lat="64.87786" lon="11.65979">
        <ele>44.722924</ele>
        <time>2020-07-16T03:32:02.392Z</time>
      </trkpt>
      <trkpt lat="64.87804" lon="11.66021">
        <ele>43.332734</ele>
        <time>2020-07-16T03:32:05.525Z</time>
      </trkpt>
      <trkpt lat="64.87849" lon="11.66111">
        <ele>40.574504</ele>
        <time>2020-07-16T03:32:12.942Z</time>
      </trkpt>
      <trkpt lat="64.87898" lon="11.66184">
        <ele>38.29989</ele>
        <time>2020-07-16T03:32:20.206Z</time>
      </trkpt>
      <trkpt lat="64.87956" lon="11.66262">
        <ele>35.668228</ele>
        <time>2020-07-16T03:32:28.776Z</time>
      </trkpt>
      <trkpt lat="64.88018" lon="11.66343">
        <ele>33.167157</ele>
        <time>2020-07-16T03:32:37.825Z</time>
      </trkpt>
      <trkpt lat="64.88294" lon="11.66715">
        <ele>24.027032</ele>
        <time>2020-07-16T03:33:19.654Z</time>
      </trkpt>
      <trkpt lat="64.88313" lon="11.66746">
        <ele>24.450459</ele>
        <time>2020-07-16T03:33:23.450Z</time>
      </trkpt>
      <trkpt lat="64.88327" lon="11.6677">
        <ele>24.767038</ele>
        <time>2020-07-16T03:33:26.850Z</time>
      </trkpt>
      <trkpt lat="64.88398" lon="11.66899">
        <ele>26.424259</ele>
        <time>2020-07-16T03:33:48.315Z</time>
      </trkpt>
      <trkpt lat="64.88447" lon="11.66969">
        <ele>27.874326</ele>
        <time>2020-07-16T03:34:06.800Z</time>
      </trkpt>
      <trkpt lat="64.88538" lon="11.67059">
        <ele>33.287043</ele>
        <time>2020-07-16T03:34:42.865Z</time>
      </trkpt>
      <trkpt lat="64.88649" lon="11.67191">
        <ele>39.114834</ele>
        <time>2020-07-16T03:35:28.346Z</time>
      </trkpt>
      <trkpt lat="64.88791" lon="11.67332">
        <ele>44.340024</ele>
        <time>2020-07-16T03:36:09.680Z</time>
      </trkpt>
      <trkpt lat="64.8886" lon="11.6737">
        <ele>46.107342</ele>
        <time>2020-07-16T03:36:22.418Z</time>
      </trkpt>
      <trkpt lat="64.8899" lon="11.67373">
        <ele>51.130429</ele>
        <time>2020-07-16T03:37:02.399Z</time>
      </trkpt>
      <trkpt lat="64.88998" lon="11.67376">
        <ele>51.662475</ele>
        <time>2020-07-16T03:37:05.049Z</time>
      </trkpt>
      <trkpt lat="64.89026" lon="11.67393">
        <ele>53.434121</ele>
        <time>2020-07-16T03:37:16.368Z</time>
      </trkpt>
      <trkpt lat="64.89085" lon="11.67445">
        <ele>57.252717</ele>
        <time>2020-07-16T03:37:42.296Z</time>
      </trkpt>
      <trkpt lat="64.89376" lon="11.67776">
        <ele>79.638385</ele>
        <time>2020-07-16T03:39:55.768Z</time>
      </trkpt>
      <trkpt lat="64.8945" lon="11.67906">
        <ele>85.465406</ele>
        <time>2020-07-16T03:40:27.681Z</time>
      </trkpt>
      <trkpt lat="64.89495" lon="11.68026">
        <ele>89.382043</ele>
        <time>2020-07-16T03:40:51.235Z</time>
      </trkpt>
      <trkpt lat="64.89528" lon="11.68136">
        <ele>92.655756</ele>
        <time>2020-07-16T03:41:11.552Z</time>
      </trkpt>
      <trkpt lat="64.89606" lon="11.68438">
        <ele>103.311255</ele>
        <time>2020-07-16T03:42:12.598Z</time>
      </trkpt>
      <trkpt lat="64.89631" lon="11.68553">
        <ele>107.366882</ele>
        <time>2020-07-16T03:42:36.585Z</time>
      </trkpt>
      <trkpt lat="64.89645" lon="11.68674">
        <ele>111.9255</ele>
        <time>2020-07-16T03:43:00.538Z</time>
      </trkpt>
      <trkpt lat="64.89683" lon="11.69111">
        <ele>126.965264</ele>
        <time>2020-07-16T03:44:28.351Z</time>
      </trkpt>
      <trkpt lat="64.89742" lon="11.69443">
        <ele>133.623254</ele>
        <time>2020-07-16T03:45:25.116Z</time>
      </trkpt>
      <trkpt lat="64.89849" lon="11.70193">
        <ele>111.312312</ele>
        <time>2020-07-16T03:46:04.318Z</time>
      </trkpt>
      <trkpt lat="64.89895" lon="11.70359">
        <ele>89.692697</ele>
        <time>2020-07-16T03:46:12.915Z</time>
      </trkpt>
      <trkpt lat="64.90041" lon="11.70734">
        <ele>35.257746</ele>
        <time>2020-07-16T03:46:35.135Z</time>
      </trkpt>
      <trkpt lat="64.90074" lon="11.70841">
        <ele>21.894496</ele>
        <time>2020-07-16T03:46:40.968Z</time>
      </trkpt>
      <trkpt lat="64.90186" lon="11.71382">
        <ele>7.997216</ele>
        <time>2020-07-16T03:47:12.310Z</time>
      </trkpt>
      <trkpt lat="64.90261" lon="11.71824">
        <ele>3.800044</ele>
        <time>2020-07-16T03:47:42.078Z</time>
      </trkpt>
      <trkpt lat="64.90309" lon="11.72168">
        <ele>2.359851</ele>
        <time>2020-07-16T03:48:05.896Z</time>
      </trkpt>
      <trkpt lat="64.90327" lon="11.7224">
        <ele>2.15889</ele>
        <time>2020-07-16T03:48:11.800Z</time>
      </trkpt>
      <trkpt lat="64.90371" lon="11.72353">
        <ele>1.788288</ele>
        <time>2020-07-16T03:48:22.927Z</time>
      </trkpt>
      <trkpt lat="64.90441" lon="11.725">
        <ele>1.748054</ele>
        <time>2020-07-16T03:48:39.493Z</time>
      </trkpt>
      <trkpt lat="64.90486" lon="11.72595">
        <ele>1.738726</ele>
        <time>2020-07-16T03:48:50.305Z</time>
      </trkpt>
      <trkpt lat="64.90511" lon="11.72646">
        <ele>1.743079</ele>
        <time>2020-07-16T03:48:56.309Z</time>
      </trkpt>
      <trkpt lat="64.90547" lon="11.72734">
        <ele>1.922595</ele>
        <time>2020-07-16T03:49:05.807Z</time>
      </trkpt>
      <trkpt lat="64.90575" lon="11.72822">
        <ele>2.083047</ele>
        <time>2020-07-16T03:49:14.339Z</time>
      </trkpt>
      <trkpt lat="64.90739" lon="11.73452">
        <ele>3.718758</ele>
        <time>2020-07-16T03:50:17.241Z</time>
      </trkpt>
      <trkpt lat="64.90771" lon="11.73561">
        <ele>3.839299</ele>
        <time>2020-07-16T03:50:28.144Z</time>
      </trkpt>
      <trkpt lat="64.90773" lon="11.73558">
        <ele>3.844448</ele>
        <time>2020-07-16T03:50:28.471Z</time>
      </trkpt>
      <trkpt lat="64.90803" lon="11.73487">
        <ele>3.933921</ele>
        <time>2020-07-16T03:50:35.861Z</time>
      </trkpt>
      <trkpt lat="64.90813" lon="11.73424">
        <ele>3.936349</ele>
        <time>2020-07-16T03:50:40.852Z</time>
      </trkpt>
      <trkpt lat="64.90812" lon="11.73345">
        <ele>3.61438</ele>
        <time>2020-07-16T03:50:46.470Z</time>
      </trkpt>
      <trkpt lat="64.90801" lon="11.73205">
        <ele>3.037099</ele>
        <time>2020-07-16T03:50:55.563Z</time>
      </trkpt>
      <trkpt lat="64.90808" lon="11.73142">
        <ele>2.773362</ele>
        <time>2020-07-16T03:50:59.667Z</time>
      </trkpt>
      <trkpt lat="64.90823" lon="11.73103">
        <ele>2.553829</ele>
        <time>2020-07-16T03:51:03.106Z</time>
      </trkpt>
      <trkpt lat="64.90882" lon="11.73031">
        <ele>1.995482</ele>
        <time>2020-07-16T03:51:13.164Z</time>
      </trkpt>
      <trkpt lat="64.90892" lon="11.72993">
        <ele>1.851918</ele>
        <time>2020-07-16T03:51:16.152Z</time>
      </trkpt>
      <trkpt lat="64.90897" lon="11.72946">
        <ele>1.696531</ele>
        <time>2020-07-16T03:51:19.413Z</time>
      </trkpt>
      <trkpt lat="64.90892" lon="11.72881">
        <ele>1.486011</ele>
        <time>2020-07-16T03:51:23.893Z</time>
      </trkpt>
      <trkpt lat="64.90849" lon="11.72678">
        <ele>0.85908</ele>
        <time>2020-07-16T03:51:39.696Z</time>
      </trkpt>
      <trkpt lat="64.90772" lon="11.72078">
        <ele>0.363483</ele>
        <time>2020-07-16T03:52:25.645Z</time>
      </trkpt>
      <trkpt lat="64.9077" lon="11.7195">
        <ele>0.32531</ele>
        <time>2020-07-16T03:52:35.444Z</time>
      </trkpt>
      <trkpt lat="64.90793" lon="11.71716">
        <ele>0.373366</ele>
        <time>2020-07-16T03:52:53.966Z</time>
      </trkpt>
      <trkpt lat="64.90788" lon="11.71508">
        <ele>0.441107</ele>
        <time>2020-07-16T03:53:10.090Z</time>
      </trkpt>
      <trkpt lat="64.90792" lon="11.71303">
        <ele>0.45021</ele>
        <time>2020-07-16T03:53:25.509Z</time>
      </trkpt>
      <trkpt lat="64.90777" lon="11.71179">
        <ele>0.451359</ele>
        <time>2020-07-16T03:53:35.045Z</time>
      </trkpt>
      <trkpt lat="64.90733" lon="11.7101">
        <ele>0.875449</ele>
        <time>2020-07-16T03:53:50.187Z</time>
      </trkpt>
      <trkpt lat="64.90719" lon="11.70937">
        <ele>1.277076</ele>
        <time>2020-07-16T03:53:56.738Z</time>
      </trkpt>
      <trkpt lat="64.90707" lon="11.70775">
        <ele>2.099546</ele>
        <time>2020-07-16T03:54:11.518Z</time>
      </trkpt>
      <trkpt lat="64.90714" lon="11.70522">
        <ele>5.437271</ele>
        <time>2020-07-16T03:54:40.535Z</time>
      </trkpt>
      <trkpt lat="64.90746" lon="11.70258">
        <ele>10.377422</ele>
        <time>2020-07-16T03:55:19.652Z</time>
      </trkpt>
      <trkpt lat="64.90772" lon="11.7015">
        <ele>12.93653</ele>
        <time>2020-07-16T03:55:40.473Z</time>
      </trkpt>
      <trkpt lat="64.90831" lon="11.69973">
        <ele>17.568824</ele>
        <time>2020-07-16T03:56:12.391Z</time>
      </trkpt>
      <trkpt lat="64.90841" lon="11.69955">
        <ele>18.1592</ele>
        <time>2020-07-16T03:56:16.849Z</time>
      </trkpt>
      <trkpt lat="64.90852" lon="11.69938">
        <ele>18.805571</ele>
        <time>2020-07-16T03:56:20.187Z</time>
      </trkpt>
      <trkpt lat="64.90878" lon="11.69917">
        <ele>19.230822</ele>
        <time>2020-07-16T03:56:27.745Z</time>
      </trkpt>
      <trkpt lat="64.90897" lon="11.69914">
        <ele>19.477291</ele>
        <time>2020-07-16T03:56:32.137Z</time>
      </trkpt>
      <trkpt lat="64.9094" lon="11.69933">
        <ele>20.013519</ele>
        <time>2020-07-16T03:56:42.506Z</time>
      </trkpt>
      <trkpt lat="64.90948" lon="11.69937">
        <ele>20.115815</ele>
        <time>2020-07-16T03:56:44.387Z</time>
      </trkpt>
      <trkpt lat="64.90961" lon="11.69941">
        <ele>20.286719</ele>
        <time>2020-07-16T03:56:46.731Z</time>
      </trkpt>
      <trkpt lat="64.90989" lon="11.69942">
        <ele>20.632073</ele>
        <time>2020-07-16T03:56:52.483Z</time>
      </trkpt>
      <trkpt lat="64.91007" lon="11.69937">
        <ele>20.85378</ele>
        <time>2020-07-16T03:56:55.320Z</time>
      </trkpt>
      <trkpt lat="64.9102" lon="11.69931">
        <ele>21.021251</ele>
        <time>2020-07-16T03:56:57.527Z</time>
      </trkpt>
      <trkpt lat="64.91023" lon="11.69933">
        <ele>21.061502</ele>
        <time>2020-07-16T03:56:58.042Z</time>
      </trkpt>
      <trkpt lat="64.91027" lon="11.69935">
        <ele>21.103546</ele>
        <time>2020-07-16T03:56:58.549Z</time>
      </trkpt>
      <trkpt lat="64.91032" lon="11.69942">
        <ele>21.142869</ele>
        <time>2020-07-16T03:56:59.514Z</time>
      </trkpt>
      <trkpt lat="64.91104" lon="11.70219">
        <ele>20.327968</ele>
        <time>2020-07-16T03:57:21.771Z</time>
      </trkpt>
      <trkpt lat="64.91197" lon="11.70493">
        <ele>19.203437</ele>
        <time>2020-07-16T03:57:46.101Z</time>
      </trkpt>
      <trkpt lat="64.91322" lon="11.70823">
        <ele>17.140297</ele>
        <time>2020-07-16T03:58:14.526Z</time>
      </trkpt>
      <trkpt lat="64.91503" lon="11.71201">
        <ele>13.970758</ele>
        <time>2020-07-16T03:58:50.620Z</time>
      </trkpt>
      <trkpt lat="64.91574" lon="11.71349">
        <ele>13.231642</ele>
        <time>2020-07-16T03:59:05.322Z</time>
      </trkpt>
      <trkpt lat="64.91596" lon="11.71394">
        <ele>13.010529</ele>
        <time>2020-07-16T03:59:09.913Z</time>
      </trkpt>
      <trkpt lat="64.91639" lon="11.71468">
        <ele>12.597997</ele>
        <time>2020-07-16T03:59:18.754Z</time>
      </trkpt>
      <trkpt lat="64.91694" lon="11.71506">
        <ele>12.757575</ele>
        <time>2020-07-16T03:59:28.863Z</time>
      </trkpt>
      <trkpt lat="64.91699" lon="11.71509">
        <ele>12.774561</ele>
        <time>2020-07-16T03:59:29.703Z</time>
      </trkpt>
      <trkpt lat="64.91711" lon="11.71522">
        <ele>12.822678</ele>
        <time>2020-07-16T03:59:32.204Z</time>
      </trkpt>
      <trkpt lat="64.9174" lon="11.71558">
        <ele>12.937854</ele>
        <time>2020-07-16T03:59:38.324Z</time>
      </trkpt>
      <trkpt lat="64.91788" lon="11.71625">
        <ele>13.1383</ele>
        <time>2020-07-16T03:59:49.370Z</time>
      </trkpt>
      <trkpt lat="64.91977" lon="11.71893">
        <ele>15.853739</ele>
        <time>2020-07-16T04:00:36.808Z</time>
      </trkpt>
      <trkpt lat="64.92016" lon="11.71977">
        <ele>17.29209</ele>
        <time>2020-07-16T04:00:49.740Z</time>
      </trkpt>
      <trkpt lat="64.92088" lon="11.72183">
        <ele>20.42359</ele>
        <time>2020-07-16T04:01:21.766Z</time>
      </trkpt>
      <trkpt lat="64.92112" lon="11.72236">
        <ele>21.626954</ele>
        <time>2020-07-16T04:01:31.916Z</time>
      </trkpt>
      <trkpt lat="64.92133" lon="11.7226">
        <ele>22.511545</ele>
        <time>2020-07-16T04:01:39.665Z</time>
      </trkpt>
      <trkpt lat="64.92192" lon="11.72301">
        <ele>24.762714</ele>
        <time>2020-07-16T04:01:58.605Z</time>
      </trkpt>
      <trkpt lat="64.92222" lon="11.72348">
        <ele>26.104331</ele>
        <time>2020-07-16T04:02:09.360Z</time>
      </trkpt>
      <trkpt lat="64.92256" lon="11.72453">
        <ele>27.212603</ele>
        <time>2020-07-16T04:02:24.987Z</time>
      </trkpt>
      <trkpt lat="64.92363" lon="11.72855">
        <ele>28.325395</ele>
        <time>2020-07-16T04:03:03.211Z</time>
      </trkpt>
      <trkpt lat="64.9237" lon="11.72888">
        <ele>28.213707</ele>
        <time>2020-07-16T04:03:05.422Z</time>
      </trkpt>
      <trkpt lat="64.92383" lon="11.72953">
        <ele>27.996131</ele>
        <time>2020-07-16T04:03:10.348Z</time>
      </trkpt>
      <trkpt lat="64.92409" lon="11.73098">
        <ele>27.515238</ele>
        <time>2020-07-16T04:03:20.485Z</time>
      </trkpt>
      <trkpt lat="64.92428" lon="11.73284">
        <ele>26.340635</ele>
        <time>2020-07-16T04:03:32.138Z</time>
      </trkpt>
      <trkpt lat="64.92433" lon="11.7331">
        <ele>26.150468</ele>
        <time>2020-07-16T04:03:34.070Z</time>
      </trkpt>
      <trkpt lat="64.92448" lon="11.73381">
        <ele>25.629998</ele>
        <time>2020-07-16T04:03:38.987Z</time>
      </trkpt>
      <trkpt lat="64.92531" lon="11.73737">
        <ele>23.705423</ele>
        <time>2020-07-16T04:04:04.374Z</time>
      </trkpt>
      <trkpt lat="64.92565" lon="11.73841">
        <ele>23.221788</ele>
        <time>2020-07-16T04:04:13.986Z</time>
      </trkpt>
      <trkpt lat="64.92588" lon="11.73889">
        <ele>23.044079</ele>
        <time>2020-07-16T04:04:19.897Z</time>
      </trkpt>
      <trkpt lat="64.926" lon="11.73914">
        <ele>22.994099</ele>
        <time>2020-07-16T04:04:23.222Z</time>
      </trkpt>
      <trkpt lat="64.92626" lon="11.73979">
        <ele>22.873938</ele>
        <time>2020-07-16T04:04:30.220Z</time>
      </trkpt>
      <trkpt lat="64.92646" lon="11.74066">
        <ele>22.740899</ele>
        <time>2020-07-16T04:04:37.496Z</time>
      </trkpt>
      <trkpt lat="64.9267" lon="11.742">
        <ele>22.546547</ele>
        <time>2020-07-16T04:04:47.492Z</time>
      </trkpt>
      <trkpt lat="64.92713" lon="11.74439">
        <ele>21.222697</ele>
        <time>2020-07-16T04:05:03.637Z</time>
      </trkpt>
      <trkpt lat="64.92724" lon="11.74498">
        <ele>20.875753</ele>
        <time>2020-07-16T04:05:07.756Z</time>
      </trkpt>
      <trkpt lat="64.92734" lon="11.74538">
        <ele>20.632356</ele>
        <time>2020-07-16T04:05:10.480Z</time>
      </trkpt>
      <trkpt lat="64.92738" lon="11.74556">
        <ele>20.520714</ele>
        <time>2020-07-16T04:05:11.920Z</time>
      </trkpt>
      <trkpt lat="64.92767" lon="11.74651">
        <ele>20.254624</ele>
        <time>2020-07-16T04:05:19.499Z</time>
      </trkpt>
      <trkpt lat="64.92827" lon="11.74814">
        <ele>20.195475</ele>
        <time>2020-07-16T04:05:36.266Z</time>
      </trkpt>
      <trkpt lat="64.92903" lon="11.7494">
        <ele>20.503699</ele>
        <time>2020-07-16T04:05:54.058Z</time>
      </trkpt>
      <trkpt lat="64.92925" lon="11.74984">
        <ele>20.797936</ele>
        <time>2020-07-16T04:05:59.698Z</time>
      </trkpt>
      <trkpt lat="64.92957" lon="11.75045">
        <ele>21.217162</ele>
        <time>2020-07-16T04:06:07.579Z</time>
      </trkpt>
      <trkpt lat="64.92989" lon="11.75109">
        <ele>21.648856</ele>
        <time>2020-07-16T04:06:16.424Z</time>
      </trkpt>
      <trkpt lat="64.9301" lon="11.75152">
        <ele>21.929007</ele>
        <time>2020-07-16T04:06:22.820Z</time>
      </trkpt>
      <trkpt lat="64.93027" lon="11.75189">
        <ele>22.579593</ele>
        <time>2020-07-16T04:06:29.206Z</time>
      </trkpt>
      <trkpt lat="64.93067" lon="11.75295">
        <ele>24.618372</ele>
        <time>2020-07-16T04:06:45.777Z</time>
      </trkpt>
      <trkpt lat="64.931" lon="11.75403">
        <ele>26.518293</ele>
        <time>2020-07-16T04:07:02.040Z</time>
      </trkpt>
      <trkpt lat="64.93107" lon="11.75428">
        <ele>26.950241</ele>
        <time>2020-07-16T04:07:06.798Z</time>
      </trkpt>
      <trkpt lat="64.9315" lon="11.75531">
        <ele>29.089133</ele>
        <time>2020-07-16T04:07:26.391Z</time>
      </trkpt>
      <trkpt lat="64.93275" lon="11.75769">
        <ele>34.701442</ele>
        <time>2020-07-16T04:08:14.001Z</time>
      </trkpt>
      <trkpt lat="64.93403" lon="11.76263">
        <ele>38.354985</ele>
        <time>2020-07-16T04:09:08.153Z</time>
      </trkpt>
      <trkpt lat="64.93426" lon="11.7633">
        <ele>38.723241</ele>
        <time>2020-07-16T04:09:15.391Z</time>
      </trkpt>
      <trkpt lat="64.93503" lon="11.76435">
        <ele>39.863547</ele>
        <time>2020-07-16T04:09:33.445Z</time>
      </trkpt>
      <trkpt lat="64.93546" lon="11.7657">
        <ele>41.436793</ele>
        <time>2020-07-16T04:09:49.327Z</time>
      </trkpt>
      <trkpt lat="64.93565" lon="11.76612">
        <ele>42.009177</ele>
        <time>2020-07-16T04:09:56.051Z</time>
      </trkpt>
      <trkpt lat="64.9359" lon="11.76636">
        <ele>42.592392</ele>
        <time>2020-07-16T04:10:03.515Z</time>
      </trkpt>
      <trkpt lat="64.93637" lon="11.76656">
        <ele>43.818501</ele>
        <time>2020-07-16T04:10:17.632Z</time>
      </trkpt>
      <trkpt lat="64.93672" lon="11.76669">
        <ele>45.105273</ele>
        <time>2020-07-16T04:10:28.408Z</time>
      </trkpt>
      <trkpt lat="64.93747" lon="11.76696">
        <ele>47.820482</ele>
        <time>2020-07-16T04:10:51.817Z</time>
      </trkpt>
      <trkpt lat="64.94007" lon="11.76792">
        <ele>55.470017</ele>
        <time>2020-07-16T04:12:04.261Z</time>
      </trkpt>
      <trkpt lat="64.94046" lon="11.76808">
        <ele>56.00912</ele>
        <time>2020-07-16T04:12:13.065Z</time>
      </trkpt>
      <trkpt lat="64.94069" lon="11.76815">
        <ele>56.314437</ele>
        <time>2020-07-16T04:12:17.889Z</time>
      </trkpt>
      <trkpt lat="64.94112" lon="11.76816">
        <ele>56.903727</ele>
        <time>2020-07-16T04:12:26.974Z</time>
      </trkpt>
      <trkpt lat="64.94235" lon="11.76741">
        <ele>58.103178</ele>
        <time>2020-07-16T04:12:51.922Z</time>
      </trkpt>
      <trkpt lat="64.94295" lon="11.76723">
        <ele>58.530639</ele>
        <time>2020-07-16T04:13:04.167Z</time>
      </trkpt>
      <trkpt lat="64.94326" lon="11.76729">
        <ele>58.746271</ele>
        <time>2020-07-16T04:13:10.412Z</time>
      </trkpt>
      <trkpt lat="64.94459" lon="11.76793">
        <ele>59.913069</ele>
        <time>2020-07-16T04:13:38.398Z</time>
      </trkpt>
      <trkpt lat="64.94549" lon="11.76794">
        <ele>60.907701</ele>
        <time>2020-07-16T04:13:57.198Z</time>
      </trkpt>
      <trkpt lat="64.94581" lon="11.76823">
        <ele>61.387918</ele>
        <time>2020-07-16T04:14:04.158Z</time>
      </trkpt>
      <trkpt lat="64.94611" lon="11.76884">
        <ele>61.955192</ele>
        <time>2020-07-16T04:14:13.343Z</time>
      </trkpt>
      <trkpt lat="64.94657" lon="11.77026">
        <ele>63.087612</ele>
        <time>2020-07-16T04:14:31.302Z</time>
      </trkpt>
      <trkpt lat="64.9467" lon="11.77107">
        <ele>63.877249</ele>
        <time>2020-07-16T04:14:40.220Z</time>
      </trkpt>
      <trkpt lat="64.94673" lon="11.77136">
        <ele>64.154243</ele>
        <time>2020-07-16T04:14:43.302Z</time>
      </trkpt>
      <trkpt lat="64.94675" lon="11.77157">
        <ele>64.344408</ele>
        <time>2020-07-16T04:14:45.377Z</time>
      </trkpt>
      <trkpt lat="64.94677" lon="11.77173">
        <ele>64.499039</ele>
        <time>2020-07-16T04:14:47.546Z</time>
      </trkpt>
      <trkpt lat="64.94688" lon="11.77227">
        <ele>65.045258</ele>
        <time>2020-07-16T04:14:53.536Z</time>
      </trkpt>
      <trkpt lat="64.94729" lon="11.77339">
        <ele>66.394458</ele>
        <time>2020-07-16T04:15:09.565Z</time>
      </trkpt>
      <trkpt lat="64.94797" lon="11.7756">
        <ele>68.78574</ele>
        <time>2020-07-16T04:15:38.392Z</time>
      </trkpt>
      <trkpt lat="64.94821" lon="11.77616">
        <ele>69.467161</ele>
        <time>2020-07-16T04:15:46.223Z</time>
      </trkpt>
      <trkpt lat="64.9487" lon="11.77697">
        <ele>70.665735</ele>
        <time>2020-07-16T04:16:00.527Z</time>
      </trkpt>
      <trkpt lat="64.94916" lon="11.77773">
        <ele>71.70776</ele>
        <time>2020-07-16T04:16:13.977Z</time>
      </trkpt>
      <trkpt lat="64.94942" lon="11.77815">
        <ele>72.284047</ele>
        <time>2020-07-16T04:16:21.321Z</time>
      </trkpt>
      <trkpt lat="64.94956" lon="11.77837">
        <ele>72.594187</ele>
        <time>2020-07-16T04:16:25.208Z</time>
      </trkpt>
      <trkpt lat="64.94973" lon="11.77862">
        <ele>72.964988</ele>
        <time>2020-07-16T04:16:30.017Z</time>
      </trkpt>
      <trkpt lat="64.95014" lon="11.77906">
        <ele>73.798432</ele>
        <time>2020-07-16T04:16:40.643Z</time>
      </trkpt>
      <trkpt lat="64.95122" lon="11.77967">
        <ele>75.616059</ele>
        <time>2020-07-16T04:17:07.053Z</time>
      </trkpt>
      <trkpt lat="64.9517" lon="11.78033">
        <ele>76.529941</ele>
        <time>2020-07-16T04:17:19.508Z</time>
      </trkpt>
      <trkpt lat="64.95186" lon="11.78061">
        <ele>76.817355</ele>
        <time>2020-07-16T04:17:24.066Z</time>
      </trkpt>
      <trkpt lat="64.95273" lon="11.78214">
        <ele>77.976783</ele>
        <time>2020-07-16T04:17:47.672Z</time>
      </trkpt>
      <trkpt lat="64.95324" lon="11.78295">
        <ele>78.628027</ele>
        <time>2020-07-16T04:18:00.205Z</time>
      </trkpt>
      <trkpt lat="64.95346" lon="11.78312">
        <ele>78.703223</ele>
        <time>2020-07-16T04:18:04.805Z</time>
      </trkpt>
      <trkpt lat="64.95372" lon="11.78312">
        <ele>78.750192</ele>
        <time>2020-07-16T04:18:09.754Z</time>
      </trkpt>
      <trkpt lat="64.95388" lon="11.78292">
        <ele>78.784242</ele>
        <time>2020-07-16T04:18:13.264Z</time>
      </trkpt>
      <trkpt lat="64.95402" lon="11.78245">
        <ele>78.829095</ele>
        <time>2020-07-16T04:18:17.835Z</time>
      </trkpt>
      <trkpt lat="64.95422" lon="11.78078">
        <ele>78.964099</ele>
        <time>2020-07-16T04:18:31.048Z</time>
      </trkpt>
      <trkpt lat="64.95439" lon="11.78029">
        <ele>78.928528</ele>
        <time>2020-07-16T04:18:35.684Z</time>
      </trkpt>
      <trkpt lat="64.95455" lon="11.78015">
        <ele>78.787032</ele>
        <time>2020-07-16T04:18:38.518Z</time>
      </trkpt>
      <trkpt lat="64.95472" lon="11.78014">
        <ele>78.645566</ele>
        <time>2020-07-16T04:18:41.299Z</time>
      </trkpt>
      <trkpt lat="64.95558" lon="11.78034">
        <ele>77.937387</ele>
        <time>2020-07-16T04:18:54.647Z</time>
      </trkpt>
      <trkpt lat="64.95586" lon="11.78051">
        <ele>77.695861</ele>
        <time>2020-07-16T04:18:59.091Z</time>
      </trkpt>
      <trkpt lat="64.95634" lon="11.78089">
        <ele>77.3278</ele>
        <time>2020-07-16T04:19:06.700Z</time>
      </trkpt>
      <trkpt lat="64.95763" lon="11.78189">
        <ele>76.457063</ele>
        <time>2020-07-16T04:19:28.215Z</time>
      </trkpt>
      <trkpt lat="64.95802" lon="11.78221">
        <ele>76.511569</ele>
        <time>2020-07-16T04:19:36.140Z</time>
      </trkpt>
      <trkpt lat="64.95837" lon="11.78258">
        <ele>76.741154</ele>
        <time>2020-07-16T04:19:43.898Z</time>
      </trkpt>
      <trkpt lat="64.95878" lon="11.78323">
        <ele>77.041964</ele>
        <time>2020-07-16T04:19:54.255Z</time>
      </trkpt>
      <trkpt lat="64.95946" lon="11.78445">
        <ele>77.326712</ele>
        <time>2020-07-16T04:20:11.789Z</time>
      </trkpt>
      <trkpt lat="64.95989" lon="11.78524">
        <ele>76.967342</ele>
        <time>2020-07-16T04:20:21.690Z</time>
      </trkpt>
      <trkpt lat="64.96019" lon="11.7856">
        <ele>76.748595</ele>
        <time>2020-07-16T04:20:27.166Z</time>
      </trkpt>
      <trkpt lat="64.9609" lon="11.78598">
        <ele>76.268007</ele>
        <time>2020-07-16T04:20:37.940Z</time>
      </trkpt>
      <trkpt lat="64.96135" lon="11.78647">
        <ele>75.171884</ele>
        <time>2020-07-16T04:20:44.647Z</time>
      </trkpt>
      <trkpt lat="64.96157" lon="11.7869">
        <ele>74.520221</ele>
        <time>2020-07-16T04:20:48.562Z</time>
      </trkpt>
      <trkpt lat="64.96258" lon="11.78934">
        <ele>72.05485</ele>
        <time>2020-07-16T04:21:08.449Z</time>
      </trkpt>
      <trkpt lat="64.96271" lon="11.78969">
        <ele>71.964133</ele>
        <time>2020-07-16T04:21:11.451Z</time>
      </trkpt>
      <trkpt lat="64.96279" lon="11.78992">
        <ele>71.909374</ele>
        <time>2020-07-16T04:21:13.496Z</time>
      </trkpt>
      <trkpt lat="64.96292" lon="11.79061">
        <ele>71.763388</ele>
        <time>2020-07-16T04:21:18.909Z</time>
      </trkpt>
      <trkpt lat="64.963" lon="11.79173">
        <ele>71.54681</ele>
        <time>2020-07-16T04:21:28.109Z</time>
      </trkpt>
      <trkpt lat="64.96311" lon="11.79234">
        <ele>71.482803</ele>
        <time>2020-07-16T04:21:34.097Z</time>
      </trkpt>
      <trkpt lat="64.96344" lon="11.79336">
        <ele>72.499279</ele>
        <time>2020-07-16T04:21:46.937Z</time>
      </trkpt>
      <trkpt lat="64.96379" lon="11.79479">
        <ele>73.803162</ele>
        <time>2020-07-16T04:22:04.305Z</time>
      </trkpt>
      <trkpt lat="64.9644" lon="11.7961">
        <ele>75.161576</ele>
        <time>2020-07-16T04:22:24.562Z</time>
      </trkpt>
      <trkpt lat="64.96518" lon="11.79825">
        <ele>76.605995</ele>
        <time>2020-07-16T04:22:50.703Z</time>
      </trkpt>
      <trkpt lat="64.96554" lon="11.80008">
        <ele>76.611242</ele>
        <time>2020-07-16T04:23:07.068Z</time>
      </trkpt>
      <trkpt lat="64.96597" lon="11.80183">
        <ele>76.048189</ele>
        <time>2020-07-16T04:23:20.470Z</time>
      </trkpt>
      <trkpt lat="64.96624" lon="11.80298">
        <ele>75.449815</ele>
        <time>2020-07-16T04:23:28.602Z</time>
      </trkpt>
      <trkpt lat="64.96633" lon="11.80335">
        <ele>75.071913</ele>
        <time>2020-07-16T04:23:31.112Z</time>
      </trkpt>
      <trkpt lat="64.96658" lon="11.80443">
        <ele>73.974433</ele>
        <time>2020-07-16T04:23:38.408Z</time>
      </trkpt>
      <trkpt lat="64.9677" lon="11.80908">
        <ele>69.773721</ele>
        <time>2020-07-16T04:24:09.625Z</time>
      </trkpt>
      <trkpt lat="64.96786" lon="11.80965">
        <ele>69.280328</ele>
        <time>2020-07-16T04:24:14.417Z</time>
      </trkpt>
      <trkpt lat="64.96803" lon="11.81001">
        <ele>69.02303</ele>
        <time>2020-07-16T04:24:18.282Z</time>
      </trkpt>
      <trkpt lat="64.96852" lon="11.81046">
        <ele>69.453814</ele>
        <time>2020-07-16T04:24:28.381Z</time>
      </trkpt>
      <trkpt lat="64.96868" lon="11.81055">
        <ele>69.594475</ele>
        <time>2020-07-16T04:24:32.184Z</time>
      </trkpt>
      <trkpt lat="64.96925" lon="11.81089">
        <ele>70.079008</ele>
        <time>2020-07-16T04:24:44.624Z</time>
      </trkpt>
      <trkpt lat="64.96961" lon="11.81095">
        <ele>70.368211</ele>
        <time>2020-07-16T04:24:52.415Z</time>
      </trkpt>
      <trkpt lat="64.96968" lon="11.81091">
        <ele>70.429145</ele>
        <time>2020-07-16T04:24:54.638Z</time>
      </trkpt>
      <trkpt lat="64.96974" lon="11.81083">
        <ele>70.517336</ele>
        <time>2020-07-16T04:24:55.979Z</time>
      </trkpt>
      <trkpt lat="64.96993" lon="11.81027">
        <ele>71.04843</ele>
        <time>2020-07-16T04:25:03.171Z</time>
      </trkpt>
      <trkpt lat="64.97006" lon="11.80843">
        <ele>72.429225</ele>
        <time>2020-07-16T04:25:20.604Z</time>
      </trkpt>
      <trkpt lat="64.97026" lon="11.80747">
        <ele>73.215805</ele>
        <time>2020-07-16T04:25:31.850Z</time>
      </trkpt>
      <trkpt lat="64.97052" lon="11.80686">
        <ele>73.831523</ele>
        <time>2020-07-16T04:25:40.952Z</time>
      </trkpt>
      <trkpt lat="64.97103" lon="11.80619">
        <ele>74.746305</ele>
        <time>2020-07-16T04:25:55.504Z</time>
      </trkpt>
      <trkpt lat="64.97113" lon="11.80611">
        <ele>74.920583</ele>
        <time>2020-07-16T04:25:58.562Z</time>
      </trkpt>
      <trkpt lat="64.9713" lon="11.80596">
        <ele>75.205866</ele>
        <time>2020-07-16T04:26:02.903Z</time>
      </trkpt>
      <trkpt lat="64.97178" lon="11.80561">
        <ele>76.00021</ele>
        <time>2020-07-16T04:26:14.707Z</time>
      </trkpt>
      <trkpt lat="64.97214" lon="11.80519">
        <ele>76.0539</ele>
        <time>2020-07-16T04:26:23.218Z</time>
      </trkpt>
      <trkpt lat="64.97306" lon="11.80314">
        <ele>71.83308</ele>
        <time>2020-07-16T04:26:40.970Z</time>
      </trkpt>
      <trkpt lat="64.97387" lon="11.80189">
        <ele>64.253787</ele>
        <time>2020-07-16T04:26:51.684Z</time>
      </trkpt>
      <trkpt lat="64.97404" lon="11.80122">
        <ele>60.453415</ele>
        <time>2020-07-16T04:26:55.296Z</time>
      </trkpt>
      <trkpt lat="64.97426" lon="11.79878">
        <ele>48.296336</ele>
        <time>2020-07-16T04:27:06.419Z</time>
      </trkpt>
      <trkpt lat="64.9744" lon="11.79831">
        <ele>45.154623</ele>
        <time>2020-07-16T04:27:08.950Z</time>
      </trkpt>
      <trkpt lat="64.97456" lon="11.7981">
        <ele>42.723524</ele>
        <time>2020-07-16T04:27:10.909Z</time>
      </trkpt>
      <trkpt lat="64.9758" lon="11.79777">
        <ele>26.676194</ele>
        <time>2020-07-16T04:27:24.046Z</time>
      </trkpt>
      <trkpt lat="64.9763" lon="11.79781">
        <ele>22.692035</ele>
        <time>2020-07-16T04:27:29.467Z</time>
      </trkpt>
      <trkpt lat="64.97681" lon="11.79814">
        <ele>18.449681</ele>
        <time>2020-07-16T04:27:35.374Z</time>
      </trkpt>
      <trkpt lat="64.9777" lon="11.79911">
        <ele>11.858102</ele>
        <time>2020-07-16T04:27:47.008Z</time>
      </trkpt>
      <trkpt lat="64.97812" lon="11.79947">
        <ele>10.806188</ele>
        <time>2020-07-16T04:27:52.936Z</time>
      </trkpt>
      <trkpt lat="64.9786" lon="11.79961">
        <ele>9.697258</ele>
        <time>2020-07-16T04:27:59.689Z</time>
      </trkpt>
      <trkpt lat="64.9798" lon="11.79956">
        <ele>8.401533</ele>
        <time>2020-07-16T04:28:19.767Z</time>
      </trkpt>
      <trkpt lat="64.9806" lon="11.80004">
        <ele>8.723016</ele>
        <time>2020-07-16T04:28:35.790Z</time>
      </trkpt>
      <trkpt lat="64.98082" lon="11.79998">
        <ele>8.809546</ele>
        <time>2020-07-16T04:28:40.641Z</time>
      </trkpt>
      <trkpt lat="64.98106" lon="11.79966">
        <ele>9.011685</ele>
        <time>2020-07-16T04:28:46.566Z</time>
      </trkpt>
      <trkpt lat="64.98166" lon="11.79788">
        <ele>10.644751</ele>
        <time>2020-07-16T04:29:07.921Z</time>
      </trkpt>
      <trkpt lat="64.98172" lon="11.79777">
        <ele>10.774441</ele>
        <time>2020-07-16T04:29:10.126Z</time>
      </trkpt>
      <trkpt lat="64.98176" lon="11.79769">
        <ele>10.873535</ele>
        <time>2020-07-16T04:29:11.322Z</time>
      </trkpt>
      <trkpt lat="64.98227" lon="11.79704">
        <ele>11.855105</ele>
        <time>2020-07-16T04:29:25.135Z</time>
      </trkpt>
      <trkpt lat="64.98247" lon="11.7966">
        <ele>12.529243</ele>
        <time>2020-07-16T04:29:32.191Z</time>
      </trkpt>
      <trkpt lat="64.98263" lon="11.79581">
        <ele>13.522135</ele>
        <time>2020-07-16T04:29:42.144Z</time>
      </trkpt>
      <trkpt lat="64.98263" lon="11.79488">
        <ele>14.575445</ele>
        <time>2020-07-16T04:29:53.034Z</time>
      </trkpt>
      <trkpt lat="64.98236" lon="11.79195">
        <ele>17.967841</ele>
        <time>2020-07-16T04:30:26.647Z</time>
      </trkpt>
      <trkpt lat="64.98196" lon="11.78997">
        <ele>20.420742</ele>
        <time>2020-07-16T04:30:50.107Z</time>
      </trkpt>
      <trkpt lat="64.98183" lon="11.78894">
        <ele>21.718402</ele>
        <time>2020-07-16T04:31:01.176Z</time>
      </trkpt>
      <trkpt lat="64.98179" lon="11.78517">
        <ele>29.787513</ele>
        <time>2020-07-16T04:31:52.917Z</time>
      </trkpt>
      <trkpt lat="64.98174" lon="11.78423">
        <ele>32.790255</ele>
        <time>2020-07-16T04:32:11.268Z</time>
      </trkpt>
      <trkpt lat="64.9811" lon="11.78112">
        <ele>46.328205</ele>
        <time>2020-07-16T04:33:27.604Z</time>
      </trkpt>
      <trkpt lat="64.98047" lon="11.77744">
        <ele>53.525218</ele>
        <time>2020-07-16T04:34:29.593Z</time>
      </trkpt>
      <trkpt lat="64.98012" lon="11.77457">
        <ele>44.920626</ele>
        <time>2020-07-16T04:34:44.218Z</time>
      </trkpt>
      <trkpt lat="64.97999" lon="11.77292">
        <ele>38.41941</ele>
        <time>2020-07-16T04:34:51.701Z</time>
      </trkpt>
      <trkpt lat="64.98002" lon="11.77201">
        <ele>33.388176</ele>
        <time>2020-07-16T04:34:55.704Z</time>
      </trkpt>
      <trkpt lat="64.98015" lon="11.77118">
        <ele>28.271429</ele>
        <time>2020-07-16T04:34:59.599Z</time>
      </trkpt>
      <trkpt lat="64.98098" lon="11.76856">
        <ele>11.511901</ele>
        <time>2020-07-16T04:35:14.290Z</time>
      </trkpt>
      <trkpt lat="64.98111" lon="11.76827">
        <ele>10.387551</ele>
        <time>2020-07-16T04:35:16.182Z</time>
      </trkpt>
      <trkpt lat="64.98113" lon="11.76823">
        <ele>10.21076</ele>
        <time>2020-07-16T04:35:16.490Z</time>
      </trkpt>
      <trkpt lat="64.98204" lon="11.7669">
        <ele>3.152245</ele>
        <time>2020-07-16T04:35:29.396Z</time>
      </trkpt>
      <trkpt lat="64.98226" lon="11.76648">
        <ele>1.660143</ele>
        <time>2020-07-16T04:35:33.272Z</time>
      </trkpt>
      <trkpt lat="64.98235" lon="11.76625">
        <ele>1.559421</ele>
        <time>2020-07-16T04:35:35.273Z</time>
      </trkpt>
      <trkpt lat="64.98241" lon="11.76609">
        <ele>1.488734</ele>
        <time>2020-07-16T04:35:36.816Z</time>
      </trkpt>
      <trkpt lat="64.98247" lon="11.76594">
        <ele>1.427437</ele>
        <time>2020-07-16T04:35:38.179Z</time>
      </trkpt>
      <trkpt lat="64.98253" lon="11.76573">
        <ele>1.340914</ele>
        <time>2020-07-16T04:35:40.145Z</time>
      </trkpt>
      <trkpt lat="64.98262" lon="11.76536">
        <ele>1.203926</ele>
        <time>2020-07-16T04:35:43.190Z</time>
      </trkpt>
      <trkpt lat="64.983" lon="11.76373">
        <ele>0.600959</ele>
        <time>2020-07-16T04:35:56.655Z</time>
      </trkpt>
      <trkpt lat="64.98316" lon="11.76307">
        <ele>0.358376</ele>
        <time>2020-07-16T04:36:02.066Z</time>
      </trkpt>
      <trkpt lat="64.98377" lon="11.76107">
        <ele>1.256734</ele>
        <time>2020-07-16T04:36:21.556Z</time>
      </trkpt>
      <trkpt lat="64.98404" lon="11.75921">
        <ele>2.248511</ele>
        <time>2020-07-16T04:36:39.859Z</time>
      </trkpt>
      <trkpt lat="64.98409" lon="11.75906">
        <ele>2.767605</ele>
        <time>2020-07-16T04:36:41.680Z</time>
      </trkpt>
      <trkpt lat="64.98412" lon="11.759">
        <ele>3.015059</ele>
        <time>2020-07-16T04:36:42.904Z</time>
      </trkpt>
      <trkpt lat="64.98433" lon="11.75874">
        <ele>4.539482</ele>
        <time>2020-07-16T04:36:48.566Z</time>
      </trkpt>
      <trkpt lat="64.98465" lon="11.75855">
        <ele>6.662433</ele>
        <time>2020-07-16T04:37:01.235Z</time>
      </trkpt>
      <trkpt lat="64.98543" lon="11.75861">
        <ele>11.621154</ele>
        <time>2020-07-16T04:37:33.236Z</time>
      </trkpt>
      <trkpt lat="64.98577" lon="11.75851">
        <ele>14.079871</ele>
        <time>2020-07-16T04:37:48.892Z</time>
      </trkpt>
      <trkpt lat="64.98594" lon="11.7585">
        <ele>16.27066</ele>
        <time>2020-07-16T04:37:58.041Z</time>
      </trkpt>
      <trkpt lat="64.98606" lon="11.75851">
        <ele>17.786513</ele>
        <time>2020-07-16T04:38:06.229Z</time>
      </trkpt>
      <trkpt lat="64.98627" lon="11.75867">
        <ele>20.581836</ele>
        <time>2020-07-16T04:38:17.924Z</time>
      </trkpt>
      <trkpt lat="64.98655" lon="11.75926">
        <ele>25.370442</ele>
        <time>2020-07-16T04:38:41.129Z</time>
      </trkpt>
      <trkpt lat="64.98666" lon="11.75965">
        <ele>27.858891</ele>
        <time>2020-07-16T04:38:53.654Z</time>
      </trkpt>
      <trkpt lat="64.98677" lon="11.76047">
        <ele>32.536677</ele>
        <time>2020-07-16T04:39:17.040Z</time>
      </trkpt>
      <trkpt lat="64.98681" lon="11.76103">
        <ele>35.584295</ele>
        <time>2020-07-16T04:39:33.741Z</time>
      </trkpt>
      <trkpt lat="64.98687" lon="11.762">
        <ele>40.074553</ele>
        <time>2020-07-16T04:39:57.168Z</time>
      </trkpt>
      <trkpt lat="64.987" lon="11.76351">
        <ele>46.924879</ele>
        <time>2020-07-16T04:40:32.491Z</time>
      </trkpt>
      <trkpt lat="64.98716" lon="11.76417">
        <ele>50.323094</ele>
        <time>2020-07-16T04:40:49.120Z</time>
      </trkpt>
      <trkpt lat="64.98738" lon="11.76453">
        <ele>53.126285</ele>
        <time>2020-07-16T04:41:01.216Z</time>
      </trkpt>
      <trkpt lat="64.98798" lon="11.76524">
        <ele>57.725172</ele>
        <time>2020-07-16T04:41:26.993Z</time>
      </trkpt>
      <trkpt lat="64.98815" lon="11.76563">
        <ele>59.02207</ele>
        <time>2020-07-16T04:41:35.590Z</time>
      </trkpt>
      <trkpt lat="64.98842" lon="11.76659">
        <ele>61.60452</ele>
        <time>2020-07-16T04:41:51.927Z</time>
      </trkpt>
      <trkpt lat="64.98859" lon="11.76732">
        <ele>63.502998</ele>
        <time>2020-07-16T04:42:03.208Z</time>
      </trkpt>
      <trkpt lat="64.98867" lon="11.76762">
        <ele>64.296135</ele>
        <time>2020-07-16T04:42:07.788Z</time>
      </trkpt>
      <trkpt lat="64.98925" lon="11.7701">
        <ele>68.636693</ele>
        <time>2020-07-16T04:42:43.276Z</time>
      </trkpt>
      <trkpt lat="64.98938" lon="11.77063">
        <ele>69.5279</ele>
        <time>2020-07-16T04:42:50.444Z</time>
      </trkpt>
      <trkpt lat="64.9895" lon="11.77119">
        <ele>70.435586</ele>
        <time>2020-07-16T04:42:57.644Z</time>
      </trkpt>
      <trkpt lat="64.98954" lon="11.77137">
        <ele>70.739839</ele>
        <time>2020-07-16T04:43:00.024Z</time>
      </trkpt>
      <trkpt lat="64.98956" lon="11.77148">
        <ele>70.917512</ele>
        <time>2020-07-16T04:43:01.380Z</time>
      </trkpt>
      <trkpt lat="64.98956" lon="11.77151">
        <ele>70.956541</ele>
        <time>2020-07-16T04:43:01.716Z</time>
      </trkpt>
      <trkpt lat="64.98958" lon="11.77164">
        <ele>71.141206</ele>
        <time>2020-07-16T04:43:03.420Z</time>
      </trkpt>
      <trkpt lat="64.99091" lon="11.7786">
        <ele>80.077927</ele>
        <time>2020-07-16T04:44:30.379Z</time>
      </trkpt>
      <trkpt lat="64.99106" lon="11.77972">
        <ele>81.006431</ele>
        <time>2020-07-16T04:44:43.252Z</time>
      </trkpt>
      <trkpt lat="64.99105" lon="11.78024">
        <ele>81.034337</ele>
        <time>2020-07-16T04:44:48.451Z</time>
      </trkpt>
      <trkpt lat="64.99084" lon="11.78185">
        <ele>81.126317</ele>
        <time>2020-07-16T04:45:03.479Z</time>
      </trkpt>
      <trkpt lat="64.99077" lon="11.78308">
        <ele>81.193688</ele>
        <time>2020-07-16T04:45:11.783Z</time>
      </trkpt>
      <trkpt lat="64.9905" lon="11.78468">
        <ele>78.112621</ele>
        <time>2020-07-16T04:45:21.312Z</time>
      </trkpt>
      <trkpt lat="64.99035" lon="11.78657">
        <ele>73.479878</ele>
        <time>2020-07-16T04:45:30.869Z</time>
      </trkpt>
      <trkpt lat="64.99036" lon="11.78727">
        <ele>71.781604</ele>
        <time>2020-07-16T04:45:34.236Z</time>
      </trkpt>
      <trkpt lat="64.99049" lon="11.78806">
        <ele>68.687223</ele>
        <time>2020-07-16T04:45:38.200Z</time>
      </trkpt>
      <trkpt lat="64.99069" lon="11.78869">
        <ele>65.05079</ele>
        <time>2020-07-16T04:45:41.908Z</time>
      </trkpt>
      <trkpt lat="64.9913" lon="11.78982">
        <ele>56.844576</ele>
        <time>2020-07-16T04:45:50.158Z</time>
      </trkpt>
      <trkpt lat="64.99172" lon="11.791">
        <ele>49.733978</ele>
        <time>2020-07-16T04:45:57.186Z</time>
      </trkpt>
      <trkpt lat="64.99222" lon="11.79205">
        <ele>42.454228</ele>
        <time>2020-07-16T04:46:04.257Z</time>
      </trkpt>
      <trkpt lat="64.99252" lon="11.79343">
        <ele>35.245189</ele>
        <time>2020-07-16T04:46:11.365Z</time>
      </trkpt>
      <trkpt lat="64.99267" lon="11.79388">
        <ele>32.588551</ele>
        <time>2020-07-16T04:46:14.020Z</time>
      </trkpt>
      <trkpt lat="64.9929" lon="11.79425">
        <ele>30.748857</ele>
        <time>2020-07-16T04:46:17.115Z</time>
      </trkpt>
      <trkpt lat="64.99347" lon="11.7947">
        <ele>27.426869</ele>
        <time>2020-07-16T04:46:24.048Z</time>
      </trkpt>
      <trkpt lat="64.99396" lon="11.79522">
        <ele>24.495637</ele>
        <time>2020-07-16T04:46:30.456Z</time>
      </trkpt>
      <trkpt lat="64.99524" lon="11.79729">
        <ele>21.340494</ele>
        <time>2020-07-16T04:46:53.405Z</time>
      </trkpt>
      <trkpt lat="64.99538" lon="11.7975">
        <ele>21.234536</ele>
        <time>2020-07-16T04:46:55.853Z</time>
      </trkpt>
      <trkpt lat="64.99545" lon="11.79761">
        <ele>21.17942</ele>
        <time>2020-07-16T04:46:58.669Z</time>
      </trkpt>
      <trkpt lat="64.99649" lon="11.7986">
        <ele>21.414835</ele>
        <time>2020-07-16T04:47:22.329Z</time>
      </trkpt>
      <trkpt lat="64.99733" lon="11.79892">
        <ele>22.07018</ele>
        <time>2020-07-16T04:47:40.107Z</time>
      </trkpt>
      <trkpt lat="64.99752" lon="11.79893">
        <ele>22.216414</ele>
        <time>2020-07-16T04:47:43.574Z</time>
      </trkpt>
      <trkpt lat="64.9978" lon="11.79895">
        <ele>22.218194</ele>
        <time>2020-07-16T04:47:48.728Z</time>
      </trkpt>
      <trkpt lat="64.99846" lon="11.79902">
        <ele>22.03656</ele>
        <time>2020-07-16T04:48:00.029Z</time>
      </trkpt>
      <trkpt lat="64.99891" lon="11.79894">
        <ele>21.912418</ele>
        <time>2020-07-16T04:48:07.118Z</time>
      </trkpt>
      <trkpt lat="64.99905" lon="11.79889">
        <ele>21.873458</ele>
        <time>2020-07-16T04:48:09.448Z</time>
      </trkpt>
      <trkpt lat="64.99925" lon="11.79878">
        <ele>21.819226</ele>
        <time>2020-07-16T04:48:12.512Z</time>
      </trkpt>
      <trkpt lat="65.00078" lon="11.79741">
        <ele>22.564531</ele>
        <time>2020-07-16T04:48:42.363Z</time>
      </trkpt>
      <trkpt lat="65.00111" lon="11.79721">
        <ele>22.943019</ele>
        <time>2020-07-16T04:48:49.734Z</time>
      </trkpt>
      <trkpt lat="65.00139" lon="11.79728">
        <ele>24.577159</ele>
        <time>2020-07-16T04:48:56.966Z</time>
      </trkpt>
      <trkpt lat="65.00207" lon="11.79827">
        <ele>29.082905</ele>
        <time>2020-07-16T04:49:23.015Z</time>
      </trkpt>
      <trkpt lat="65.0024" lon="11.79851">
        <ele>31.063539</ele>
        <time>2020-07-16T04:49:37.629Z</time>
      </trkpt>
      <trkpt lat="65.00258" lon="11.79844">
        <ele>32.078353</ele>
        <time>2020-07-16T04:49:45.790Z</time>
      </trkpt>
      <trkpt lat="65.00338" lon="11.7976">
        <ele>41.163425</ele>
        <time>2020-07-16T04:50:32.347Z</time>
      </trkpt>
      <trkpt lat="65.0039" lon="11.79733">
        <ele>47.19025</ele>
        <time>2020-07-16T04:51:05.389Z</time>
      </trkpt>
      <trkpt lat="65.00408" lon="11.7974">
        <ele>49.318701</ele>
        <time>2020-07-16T04:51:17.836Z</time>
      </trkpt>
      <trkpt lat="65.00543" lon="11.79928">
        <ele>58.230834</ele>
        <time>2020-07-16T04:52:31.590Z</time>
      </trkpt>
      <trkpt lat="65.00712" lon="11.80264">
        <ele>49.110842</ele>
        <time>2020-07-16T04:52:57.209Z</time>
      </trkpt>
      <trkpt lat="65.0075" lon="11.80329">
        <ele>45.033683</ele>
        <time>2020-07-16T04:53:02.276Z</time>
      </trkpt>
      <trkpt lat="65.00919" lon="11.80554">
        <ele>28.669869</ele>
        <time>2020-07-16T04:53:23.547Z</time>
      </trkpt>
      <trkpt lat="65.01006" lon="11.80629">
        <ele>24.380388</ele>
        <time>2020-07-16T04:53:35.147Z</time>
      </trkpt>
      <trkpt lat="65.01039" lon="11.8067">
        <ele>22.613029</ele>
        <time>2020-07-16T04:53:40.615Z</time>
      </trkpt>
      <trkpt lat="65.01047" lon="11.80688">
        <ele>22.289835</ele>
        <time>2020-07-16T04:53:42.257Z</time>
      </trkpt>
      <trkpt lat="65.01053" lon="11.80706">
        <ele>22.293903</ele>
        <time>2020-07-16T04:53:43.857Z</time>
      </trkpt>
      <trkpt lat="65.01105" lon="11.80964">
        <ele>22.345183</ele>
        <time>2020-07-16T04:54:05.608Z</time>
      </trkpt>
      <trkpt lat="65.0116" lon="11.81198">
        <ele>24.136288</ele>
        <time>2020-07-16T04:54:29.797Z</time>
      </trkpt>
      <trkpt lat="65.01238" lon="11.8143">
        <ele>27.775934</ele>
        <time>2020-07-16T04:55:05.143Z</time>
      </trkpt>
      <trkpt lat="65.01295" lon="11.81633">
        <ele>33.351951</ele>
        <time>2020-07-16T04:55:42.126Z</time>
      </trkpt>
      <trkpt lat="65.01318" lon="11.81691">
        <ele>35.189982</ele>
        <time>2020-07-16T04:55:55.126Z</time>
      </trkpt>
      <trkpt lat="65.0142" lon="11.81866">
        <ele>41.514528</ele>
        <time>2020-07-16T04:56:41.410Z</time>
      </trkpt>
      <trkpt lat="65.01497" lon="11.82167">
        <ele>46.141936</ele>
        <time>2020-07-16T04:57:26.348Z</time>
      </trkpt>
      <trkpt lat="65.01595" lon="11.82429">
        <ele>45.313332</ele>
        <time>2020-07-16T04:57:50.145Z</time>
      </trkpt>
      <trkpt lat="65.0165" lon="11.82652">
        <ele>39.484172</ele>
        <time>2020-07-16T04:58:03.168Z</time>
      </trkpt>
      <trkpt lat="65.01726" lon="11.82844">
        <ele>31.557222</ele>
        <time>2020-07-16T04:58:15.483Z</time>
      </trkpt>
      <trkpt lat="65.0174" lon="11.82941">
        <ele>28.052547</ele>
        <time>2020-07-16T04:58:20.274Z</time>
      </trkpt>
      <trkpt lat="65.01751" lon="11.83252">
        <ele>21.055042</ele>
        <time>2020-07-16T04:58:35.396Z</time>
      </trkpt>
      <trkpt lat="65.01768" lon="11.83376">
        <ele>19.566648</ele>
        <time>2020-07-16T04:58:42.873Z</time>
      </trkpt>
      <trkpt lat="65.01774" lon="11.83408">
        <ele>19.163156</ele>
        <time>2020-07-16T04:58:45.077Z</time>
      </trkpt>
      <trkpt lat="65.01783" lon="11.83446">
        <ele>18.671435</ele>
        <time>2020-07-16T04:58:48.231Z</time>
      </trkpt>
      <trkpt lat="65.01799" lon="11.83512">
        <ele>18.639753</ele>
        <time>2020-07-16T04:58:55.647Z</time>
      </trkpt>
      <trkpt lat="65.01864" lon="11.83711">
        <ele>26.43297</ele>
        <time>2020-07-16T04:59:38.467Z</time>
      </trkpt>
      <trkpt lat="65.01906" lon="11.83813">
        <ele>30.80987</ele>
        <time>2020-07-16T05:00:09.755Z</time>
      </trkpt>
      <trkpt lat="65.0194" lon="11.83894">
        <ele>34.067169</ele>
        <time>2020-07-16T05:00:35.257Z</time>
      </trkpt>
      <trkpt lat="65.02027" lon="11.84109">
        <ele>42.500707</ele>
        <time>2020-07-16T05:01:28.556Z</time>
      </trkpt>
      <trkpt lat="65.02207" lon="11.84382">
        <ele>36.101799</ele>
        <time>2020-07-16T05:01:55.933Z</time>
      </trkpt>
      <trkpt lat="65.02326" lon="11.84634">
        <ele>23.615849</ele>
        <time>2020-07-16T05:02:13.519Z</time>
      </trkpt>
      <trkpt lat="65.02381" lon="11.84739">
        <ele>22.022311</ele>
        <time>2020-07-16T05:02:21.860Z</time>
      </trkpt>
      <trkpt lat="65.02432" lon="11.84833">
        <ele>20.553156</ele>
        <time>2020-07-16T05:02:31.595Z</time>
      </trkpt>
      <trkpt lat="65.02462" lon="11.8489">
        <ele>19.685025</ele>
        <time>2020-07-16T05:02:40.823Z</time>
      </trkpt>
      <trkpt lat="65.02597" lon="11.85149">
        <ele>28.672835</ele>
        <time>2020-07-16T05:03:44.565Z</time>
      </trkpt>
      <trkpt lat="65.02732" lon="11.85405">
        <ele>38.313905</ele>
        <time>2020-07-16T05:04:48.287Z</time>
      </trkpt>
      <trkpt lat="65.02812" lon="11.85558">
        <ele>41.122185</ele>
        <time>2020-07-16T05:05:19.625Z</time>
      </trkpt>
      <trkpt lat="65.02854" lon="11.85643">
        <ele>42.329673</ele>
        <time>2020-07-16T05:05:32.814Z</time>
      </trkpt>
      <trkpt lat="65.02933" lon="11.85799">
        <ele>41.166913</ele>
        <time>2020-07-16T05:05:48.208Z</time>
      </trkpt>
      <trkpt lat="65.0307" lon="11.86068">
        <ele>35.360328</ele>
        <time>2020-07-16T05:06:10.354Z</time>
      </trkpt>
      <trkpt lat="65.0311" lon="11.86144">
        <ele>33.582118</ele>
        <time>2020-07-16T05:06:16.778Z</time>
      </trkpt>
      <trkpt lat="65.03183" lon="11.86287">
        <ele>31.001265</ele>
        <time>2020-07-16T05:06:29.663Z</time>
      </trkpt>
      <trkpt lat="65.03227" lon="11.86377">
        <ele>30.457158</ele>
        <time>2020-07-16T05:06:38.393Z</time>
      </trkpt>
      <trkpt lat="65.03251" lon="11.86423">
        <ele>30.171601</ele>
        <time>2020-07-16T05:06:43.591Z</time>
      </trkpt>
      <trkpt lat="65.03284" lon="11.86488">
        <ele>29.777096</ele>
        <time>2020-07-16T05:06:50.960Z</time>
      </trkpt>
      <trkpt lat="65.03298" lon="11.86516">
        <ele>29.600532</ele>
        <time>2020-07-16T05:06:54.651Z</time>
      </trkpt>
      <trkpt lat="65.0333" lon="11.86581">
        <ele>30.122235</ele>
        <time>2020-07-16T05:07:02.499Z</time>
      </trkpt>
      <trkpt lat="65.03342" lon="11.86605">
        <ele>30.322146</ele>
        <time>2020-07-16T05:07:05.518Z</time>
      </trkpt>
      <trkpt lat="65.03346" lon="11.86612">
        <ele>30.379744</ele>
        <time>2020-07-16T05:07:06.397Z</time>
      </trkpt>
      <trkpt lat="65.03352" lon="11.86625">
        <ele>30.489999</ele>
        <time>2020-07-16T05:07:08.603Z</time>
      </trkpt>
      <trkpt lat="65.03437" lon="11.86792">
        <ele>31.906975</ele>
        <time>2020-07-16T05:07:34.040Z</time>
      </trkpt>
      <trkpt lat="65.03484" lon="11.86905">
        <ele>33.673046</ele>
        <time>2020-07-16T05:07:51.331Z</time>
      </trkpt>
      <trkpt lat="65.03504" lon="11.86969">
        <ele>34.557148</ele>
        <time>2020-07-16T05:08:00.022Z</time>
      </trkpt>
      <trkpt lat="65.03566" lon="11.87226">
        <ele>37.735089</ele>
        <time>2020-07-16T05:08:34.865Z</time>
      </trkpt>
      <trkpt lat="65.03611" lon="11.87359">
        <ele>39.446353</ele>
        <time>2020-07-16T05:08:53.493Z</time>
      </trkpt>
      <trkpt lat="65.03626" lon="11.87396">
        <ele>39.954801</ele>
        <time>2020-07-16T05:08:59.148Z</time>
      </trkpt>
      <trkpt lat="65.03666" lon="11.87501">
        <ele>41.070477</ele>
        <time>2020-07-16T05:09:12.783Z</time>
      </trkpt>
      <trkpt lat="65.03885" lon="11.88066">
        <ele>43.79573</ele>
        <time>2020-07-16T05:10:16.616Z</time>
      </trkpt>
      <trkpt lat="65.0393" lon="11.88184">
        <ele>45.383184</ele>
        <time>2020-07-16T05:10:33.227Z</time>
      </trkpt>
      <trkpt lat="65.03936" lon="11.88197">
        <ele>45.601561</ele>
        <time>2020-07-16T05:10:34.995Z</time>
      </trkpt>
      <trkpt lat="65.03938" lon="11.88203">
        <ele>45.703154</ele>
        <time>2020-07-16T05:10:36.420Z</time>
      </trkpt>
      <trkpt lat="65.04059" lon="11.88523">
        <ele>50.000167</ele>
        <time>2020-07-16T05:11:28.203Z</time>
      </trkpt>
      <trkpt lat="65.04081" lon="11.88578">
        <ele>50.479794</ele>
        <time>2020-07-16T05:11:36.109Z</time>
      </trkpt>
      <trkpt lat="65.04092" lon="11.88607">
        <ele>50.738257</ele>
        <time>2020-07-16T05:11:40.286Z</time>
      </trkpt>
      <trkpt lat="65.04203" lon="11.88893">
        <ele>49.494157</ele>
        <time>2020-07-16T05:12:06.509Z</time>
      </trkpt>
      <trkpt lat="65.0432" lon="11.89104">
        <ele>45.166813</ele>
        <time>2020-07-16T05:12:24.834Z</time>
      </trkpt>
      <trkpt lat="65.04385" lon="11.89281">
        <ele>41.497719</ele>
        <time>2020-07-16T05:12:37.397Z</time>
      </trkpt>
      <trkpt lat="65.04411" lon="11.89321">
        <ele>40.563975</ele>
        <time>2020-07-16T05:12:41.671Z</time>
      </trkpt>
      <trkpt lat="65.04416" lon="11.89325">
        <ele>40.454786</ele>
        <time>2020-07-16T05:12:42.344Z</time>
      </trkpt>
      <trkpt lat="65.04425" lon="11.89331">
        <ele>40.261359</ele>
        <time>2020-07-16T05:12:43.748Z</time>
      </trkpt>
      <trkpt lat="65.04448" lon="11.89333">
        <ele>39.781863</ele>
        <time>2020-07-16T05:12:46.989Z</time>
      </trkpt>
      <trkpt lat="65.04536" lon="11.89296">
        <ele>37.962869</ele>
        <time>2020-07-16T05:12:59.914Z</time>
      </trkpt>
      <trkpt lat="65.04567" lon="11.89292">
        <ele>37.331428</ele>
        <time>2020-07-16T05:13:04.382Z</time>
      </trkpt>
      <trkpt lat="65.0461" lon="11.89311">
        <ele>36.227915</ele>
        <time>2020-07-16T05:13:10.542Z</time>
      </trkpt>
      <trkpt lat="65.04648" lon="11.89373">
        <ele>34.986499</ele>
        <time>2020-07-16T05:13:16.835Z</time>
      </trkpt>
      <trkpt lat="65.04745" lon="11.89655">
        <ele>31.727237</ele>
        <time>2020-07-16T05:13:37.060Z</time>
      </trkpt>
      <trkpt lat="65.04844" lon="11.89984">
        <ele>31.956327</ele>
        <time>2020-07-16T05:14:05.073Z</time>
      </trkpt>
      <trkpt lat="65.04995" lon="11.90567">
        <ele>46.524771</ele>
        <time>2020-07-16T05:15:46.284Z</time>
      </trkpt>
      <trkpt lat="65.05092" lon="11.90918">
        <ele>61.32055</ele>
        <time>2020-07-16T05:17:12.149Z</time>
      </trkpt>
      <trkpt lat="65.05363" lon="11.91476">
        <ele>86.649752</ele>
        <time>2020-07-16T05:19:36.020Z</time>
      </trkpt>
      <trkpt lat="65.05397" lon="11.91571">
        <ele>89.498699</ele>
        <time>2020-07-16T05:19:55.579Z</time>
      </trkpt>
      <trkpt lat="65.05437" lon="11.91737">
        <ele>92.686346</ele>
        <time>2020-07-16T05:20:23.801Z</time>
      </trkpt>
      <trkpt lat="65.05499" lon="11.91909">
        <ele>94.998815</ele>
        <time>2020-07-16T05:20:47.641Z</time>
      </trkpt>
      <trkpt lat="65.05546" lon="11.92026">
        <ele>92.802819</ele>
        <time>2020-07-16T05:20:57.718Z</time>
      </trkpt>
      <trkpt lat="65.05654" lon="11.92251">
        <ele>86.523824</ele>
        <time>2020-07-16T05:21:14.579Z</time>
      </trkpt>
      <trkpt lat="65.05665" lon="11.92303">
        <ele>84.977665</ele>
        <time>2020-07-16T05:21:17.305Z</time>
      </trkpt>
      <trkpt lat="65.05669" lon="11.92368">
        <ele>83.225867</ele>
        <time>2020-07-16T05:21:20.418Z</time>
      </trkpt>
      <trkpt lat="65.05646" lon="11.92589">
        <ele>77.920174</ele>
        <time>2020-07-16T05:21:31.693Z</time>
      </trkpt>
      <trkpt lat="65.05637" lon="11.92736">
        <ele>76.445415</ele>
        <time>2020-07-16T05:21:39.864Z</time>
      </trkpt>
      <trkpt lat="65.05639" lon="11.93004">
        <ele>73.511786</ele>
        <time>2020-07-16T05:21:58.760Z</time>
      </trkpt>
      <trkpt lat="65.05644" lon="11.93111">
        <ele>71.632655</ele>
        <time>2020-07-16T05:22:05.810Z</time>
      </trkpt>
      <trkpt lat="65.05663" lon="11.93228">
        <ele>69.437588</ele>
        <time>2020-07-16T05:22:13.026Z</time>
      </trkpt>
      <trkpt lat="65.05735" lon="11.93506">
        <ele>59.533438</ele>
        <time>2020-07-16T05:22:28.367Z</time>
      </trkpt>
      <trkpt lat="65.05772" lon="11.93589">
        <ele>54.391155</ele>
        <time>2020-07-16T05:22:33.811Z</time>
      </trkpt>
      <trkpt lat="65.05842" lon="11.93705">
        <ele>47.133187</ele>
        <time>2020-07-16T05:22:43.085Z</time>
      </trkpt>
      <trkpt lat="65.05867" lon="11.93772">
        <ele>45.070038</ele>
        <time>2020-07-16T05:22:47.295Z</time>
      </trkpt>
      <trkpt lat="65.05875" lon="11.93816">
        <ele>43.963122</ele>
        <time>2020-07-16T05:22:49.625Z</time>
      </trkpt>
      <trkpt lat="65.05916" lon="11.94452">
        <ele>34.742746</ele>
        <time>2020-07-16T05:23:27.325Z</time>
      </trkpt>
      <trkpt lat="65.05912" lon="11.94547">
        <ele>33.369412</ele>
        <time>2020-07-16T05:23:32.753Z</time>
      </trkpt>
      <trkpt lat="65.05884" lon="11.94758">
        <ele>30.134635</ele>
        <time>2020-07-16T05:23:44.908Z</time>
      </trkpt>
      <trkpt lat="65.05882" lon="11.94878">
        <ele>28.313213</ele>
        <time>2020-07-16T05:23:51.193Z</time>
      </trkpt>
      <trkpt lat="65.05893" lon="11.94984">
        <ele>25.596253</ele>
        <time>2020-07-16T05:23:56.848Z</time>
      </trkpt>
      <trkpt lat="65.05916" lon="11.95075">
        <ele>22.94408</ele>
        <time>2020-07-16T05:24:02.208Z</time>
      </trkpt>
      <trkpt lat="65.05956" lon="11.95167">
        <ele>19.67825</ele>
        <time>2020-07-16T05:24:08.648Z</time>
      </trkpt>
      <trkpt lat="65.06025" lon="11.95271">
        <ele>14.530753</ele>
        <time>2020-07-16T05:24:17.980Z</time>
      </trkpt>
      <trkpt lat="65.06095" lon="11.95339">
        <ele>9.616509</ele>
        <time>2020-07-16T05:24:26.612Z</time>
      </trkpt>
      <trkpt lat="65.06202" lon="11.95411">
        <ele>4.764889</ele>
        <time>2020-07-16T05:24:40.166Z</time>
      </trkpt>
      <trkpt lat="65.06286" lon="11.95441">
        <ele>2.745372</ele>
        <time>2020-07-16T05:24:52.445Z</time>
      </trkpt>
      <trkpt lat="65.06351" lon="11.95438">
        <ele>2.096492</ele>
        <time>2020-07-16T05:25:03.688Z</time>
      </trkpt>
      <trkpt lat="65.06418" lon="11.9541">
        <ele>2.64616</ele>
        <time>2020-07-16T05:25:17.858Z</time>
      </trkpt>
      <trkpt lat="65.06491" lon="11.95356">
        <ele>3.269044</ele>
        <time>2020-07-16T05:25:34.532Z</time>
      </trkpt>
      <trkpt lat="65.0656" lon="11.95299">
        <ele>4.714149</ele>
        <time>2020-07-16T05:25:51.340Z</time>
      </trkpt>
      <trkpt lat="65.06653" lon="11.95222">
        <ele>6.819334</ele>
        <time>2020-07-16T05:26:16.937Z</time>
      </trkpt>
      <trkpt lat="65.06665" lon="11.95211">
        <ele>7.08944</ele>
        <time>2020-07-16T05:26:19.878Z</time>
      </trkpt>
      <trkpt lat="65.06679" lon="11.95201">
        <ele>7.395255</ele>
        <time>2020-07-16T05:26:24.269Z</time>
      </trkpt>
      <trkpt lat="65.06872" lon="11.95052">
        <ele>11.601444</ele>
        <time>2020-07-16T05:27:13.697Z</time>
      </trkpt>
      <trkpt lat="65.06926" lon="11.95031">
        <ele>12.657637</ele>
        <time>2020-07-16T05:27:25.381Z</time>
      </trkpt>
      <trkpt lat="65.07034" lon="11.95019">
        <ele>15.062755</ele>
        <time>2020-07-16T05:27:51.991Z</time>
      </trkpt>
      <trkpt lat="65.07058" lon="11.95025">
        <ele>15.90041</ele>
        <time>2020-07-16T05:27:58.636Z</time>
      </trkpt>
      <trkpt lat="65.07089" lon="11.9505">
        <ele>17.065113</ele>
        <time>2020-07-16T05:28:08.583Z</time>
      </trkpt>
      <trkpt lat="65.07162" lon="11.95175">
        <ele>20.278183</ele>
        <time>2020-07-16T05:28:38.483Z</time>
      </trkpt>
      <trkpt lat="65.07197" lon="11.95217">
        <ele>20.961682</ele>
        <time>2020-07-16T05:28:48.317Z</time>
      </trkpt>
      <trkpt lat="65.07261" lon="11.95249">
        <ele>21.392831</ele>
        <time>2020-07-16T05:29:03.701Z</time>
      </trkpt>
      <trkpt lat="65.07301" lon="11.95267">
        <ele>21.658752</ele>
        <time>2020-07-16T05:29:10.101Z</time>
      </trkpt>
      <trkpt lat="65.07303" lon="11.95268">
        <ele>21.670845</ele>
        <time>2020-07-16T05:29:10.290Z</time>
      </trkpt>
      <trkpt lat="65.07394" lon="11.95325">
        <ele>22.566629</ele>
        <time>2020-07-16T05:29:25.776Z</time>
      </trkpt>
      <trkpt lat="65.07406" lon="11.95338">
        <ele>22.726576</ele>
        <time>2020-07-16T05:29:27.396Z</time>
      </trkpt>
      <trkpt lat="65.07418" lon="11.95351">
        <ele>22.887878</ele>
        <time>2020-07-16T05:29:29.695Z</time>
      </trkpt>
      <trkpt lat="65.07453" lon="11.95411">
        <ele>23.430447</ele>
        <time>2020-07-16T05:29:38.034Z</time>
      </trkpt>
      <trkpt lat="65.0747" lon="11.9546">
        <ele>23.763805</ele>
        <time>2020-07-16T05:29:44.360Z</time>
      </trkpt>
      <trkpt lat="65.07485" lon="11.95525">
        <ele>24.150346</ele>
        <time>2020-07-16T05:29:53.216Z</time>
      </trkpt>
      <trkpt lat="65.07493" lon="11.95606">
        <ele>26.050108</ele>
        <time>2020-07-16T05:30:07.348Z</time>
      </trkpt>
      <trkpt lat="65.07501" lon="11.95816">
        <ele>31.620074</ele>
        <time>2020-07-16T05:30:44.644Z</time>
      </trkpt>
      <trkpt lat="65.07509" lon="11.95904">
        <ele>34.023371</ele>
        <time>2020-07-16T05:30:59.735Z</time>
      </trkpt>
      <trkpt lat="65.0751" lon="11.95914">
        <ele>34.304272</ele>
        <time>2020-07-16T05:31:03.829Z</time>
      </trkpt>
      <trkpt lat="65.07518" lon="11.95956">
        <ele>35.499303</ele>
        <time>2020-07-16T05:31:09.063Z</time>
      </trkpt>
      <trkpt lat="65.07604" lon="11.96278">
        <ele>40.967256</ele>
        <time>2020-07-16T05:31:54.687Z</time>
      </trkpt>
      <trkpt lat="65.07617" lon="11.96322">
        <ele>41.730598</ele>
        <time>2020-07-16T05:31:58.397Z</time>
      </trkpt>
      <trkpt lat="65.07625" lon="11.9635">
        <ele>42.212859</ele>
        <time>2020-07-16T05:32:02.241Z</time>
      </trkpt>
      <trkpt lat="65.0769" lon="11.96535">
        <ele>45.612436</ele>
        <time>2020-07-16T05:32:28.356Z</time>
      </trkpt>
      <trkpt lat="65.07718" lon="11.96635">
        <ele>47.303242</ele>
        <time>2020-07-16T05:32:45.180Z</time>
      </trkpt>
      <trkpt lat="65.07793" lon="11.97">
        <ele>56.476535</ele>
        <time>2020-07-16T05:33:47.578Z</time>
      </trkpt>
      <trkpt lat="65.07816" lon="11.97109">
        <ele>58.603357</ele>
        <time>2020-07-16T05:34:04.761Z</time>
      </trkpt>
      <trkpt lat="65.07835" lon="11.97207">
        <ele>60.116218</ele>
        <time>2020-07-16T05:34:18.875Z</time>
      </trkpt>
      <trkpt lat="65.07937" lon="11.9771">
        <ele>66.148879</ele>
        <time>2020-07-16T05:35:18.443Z</time>
      </trkpt>
      <trkpt lat="65.07961" lon="11.9783">
        <ele>67.089881</ele>
        <time>2020-07-16T05:35:30.659Z</time>
      </trkpt>
      <trkpt lat="65.07966" lon="11.9785">
        <ele>67.118281</ele>
        <time>2020-07-16T05:35:32.681Z</time>
      </trkpt>
      <trkpt lat="65.07976" lon="11.97904">
        <ele>67.191667</ele>
        <time>2020-07-16T05:35:37.939Z</time>
      </trkpt>
      <trkpt lat="65.08005" lon="11.9804">
        <ele>67.382033</ele>
        <time>2020-07-16T05:35:50.248Z</time>
      </trkpt>
      <trkpt lat="65.08008" lon="11.98053">
        <ele>67.399782</ele>
        <time>2020-07-16T05:35:51.432Z</time>
      </trkpt>
      <trkpt lat="65.08011" lon="11.98065">
        <ele>67.417273</ele>
        <time>2020-07-16T05:35:52.659Z</time>
      </trkpt>
      <trkpt lat="65.08034" lon="11.98188">
        <ele>67.585153</ele>
        <time>2020-07-16T05:36:02.242Z</time>
      </trkpt>
      <trkpt lat="65.08041" lon="11.98219">
        <ele>67.427888</ele>
        <time>2020-07-16T05:36:04.939Z</time>
      </trkpt>
      <trkpt lat="65.08044" lon="11.98233">
        <ele>67.33849</ele>
        <time>2020-07-16T05:36:05.864Z</time>
      </trkpt>
      <trkpt lat="65.08116" lon="11.9859">
        <ele>64.937914</ele>
        <time>2020-07-16T05:36:30.470Z</time>
      </trkpt>
      <trkpt lat="65.0813" lon="11.98661">
        <ele>64.141491</ele>
        <time>2020-07-16T05:36:34.979Z</time>
      </trkpt>
      <trkpt lat="65.0814" lon="11.98713">
        <ele>63.56529</ele>
        <time>2020-07-16T05:36:38.189Z</time>
      </trkpt>
      <trkpt lat="65.0815" lon="11.98759">
        <ele>63.045342</ele>
        <time>2020-07-16T05:36:41.140Z</time>
      </trkpt>
      <trkpt lat="65.08154" lon="11.98776">
        <ele>62.846538</ele>
        <time>2020-07-16T05:36:42.216Z</time>
      </trkpt>
      <trkpt lat="65.08168" lon="11.98841">
        <ele>62.108192</ele>
        <time>2020-07-16T05:36:46.261Z</time>
      </trkpt>
      <trkpt lat="65.08218" lon="11.99091">
        <ele>60.445259</ele>
        <time>2020-07-16T05:37:02.624Z</time>
      </trkpt>
      <trkpt lat="65.08239" lon="11.99201">
        <ele>60.182264</ele>
        <time>2020-07-16T05:37:11.009Z</time>
      </trkpt>
      <trkpt lat="65.08254" lon="11.99277">
        <ele>59.9996</ele>
        <time>2020-07-16T05:37:17.867Z</time>
      </trkpt>
      <trkpt lat="65.08344" lon="11.99708">
        <ele>61.587236</ele>
        <time>2020-07-16T05:38:02.129Z</time>
      </trkpt>
      <trkpt lat="65.0836" lon="11.99789">
        <ele>61.598153</ele>
        <time>2020-07-16T05:38:09.177Z</time>
      </trkpt>
      <trkpt lat="65.08382" lon="11.99895">
        <ele>61.414186</ele>
        <time>2020-07-16T05:38:17.928Z</time>
      </trkpt>
      <trkpt lat="65.08402" lon="11.99993">
        <ele>61.244492</ele>
        <time>2020-07-16T05:38:25.616Z</time>
      </trkpt>
      <trkpt lat="65.08411" lon="12.00037">
        <ele>61.168214</ele>
        <time>2020-07-16T05:38:28.851Z</time>
      </trkpt>
      <trkpt lat="65.08468" lon="12.00322">
        <ele>59.159608</ele>
        <time>2020-07-16T05:38:48.756Z</time>
      </trkpt>
      <trkpt lat="65.08675" lon="12.01339">
        <ele>47.070437</ele>
        <time>2020-07-16T05:39:52.784Z</time>
      </trkpt>
      <trkpt lat="65.08683" lon="12.01379">
        <ele>46.679989</ele>
        <time>2020-07-16T05:39:55.176Z</time>
      </trkpt>
      <trkpt lat="65.08701" lon="12.01464">
        <ele>45.833224</ele>
        <time>2020-07-16T05:40:00.764Z</time>
      </trkpt>
      <trkpt lat="65.08703" lon="12.01478">
        <ele>45.697002</ele>
        <time>2020-07-16T05:40:01.735Z</time>
      </trkpt>
      <trkpt lat="65.08704" lon="12.01487">
        <ele>45.611693</ele>
        <time>2020-07-16T05:40:02.420Z</time>
      </trkpt>
      <trkpt lat="65.08713" lon="12.01552">
        <ele>45.00429</ele>
        <time>2020-07-16T05:40:06.398Z</time>
      </trkpt>
      <trkpt lat="65.08715" lon="12.01569">
        <ele>44.851493</ele>
        <time>2020-07-16T05:40:07.605Z</time>
      </trkpt>
      <trkpt lat="65.08717" lon="12.01583">
        <ele>44.721829</ele>
        <time>2020-07-16T05:40:08.460Z</time>
      </trkpt>
      <trkpt lat="65.08725" lon="12.01681">
        <ele>43.851302</ele>
        <time>2020-07-16T05:40:14.530Z</time>
      </trkpt>
      <trkpt lat="65.08727" lon="12.01709">
        <ele>43.629381</ele>
        <time>2020-07-16T05:40:16.267Z</time>
      </trkpt>
      <trkpt lat="65.08728" lon="12.01734">
        <ele>43.440861</ele>
        <time>2020-07-16T05:40:18.068Z</time>
      </trkpt>
      <trkpt lat="65.08727" lon="12.01919">
        <ele>42.019658</ele>
        <time>2020-07-16T05:40:30.147Z</time>
      </trkpt>
      <trkpt lat="65.08712" lon="12.02102">
        <ele>40.542205</ele>
        <time>2020-07-16T05:40:40.831Z</time>
      </trkpt>
      <trkpt lat="65.08707" lon="12.02136">
        <ele>40.128612</ele>
        <time>2020-07-16T05:40:42.707Z</time>
      </trkpt>
      <trkpt lat="65.087" lon="12.02184">
        <ele>39.521438</ele>
        <time>2020-07-16T05:40:45.636Z</time>
      </trkpt>
      <trkpt lat="65.08689" lon="12.02252">
        <ele>38.679843</ele>
        <time>2020-07-16T05:40:49.697Z</time>
      </trkpt>
      <trkpt lat="65.08678" lon="12.02331">
        <ele>37.695809</ele>
        <time>2020-07-16T05:40:54.465Z</time>
      </trkpt>
      <trkpt lat="65.08665" lon="12.02408">
        <ele>36.727223</ele>
        <time>2020-07-16T05:40:59.180Z</time>
      </trkpt>
      <trkpt lat="65.08655" lon="12.02472">
        <ele>35.945638</ele>
        <time>2020-07-16T05:41:02.932Z</time>
      </trkpt>
      <trkpt lat="65.08642" lon="12.02557">
        <ele>34.669839</ele>
        <time>2020-07-16T05:41:08.360Z</time>
      </trkpt>
      <trkpt lat="65.08591" lon="12.02889">
        <ele>29.474396</ele>
        <time>2020-07-16T05:41:27.606Z</time>
      </trkpt>
      <trkpt lat="65.08582" lon="12.02948">
        <ele>27.851337</ele>
        <time>2020-07-16T05:41:30.829Z</time>
      </trkpt>
      <trkpt lat="65.08576" lon="12.02987">
        <ele>26.731417</ele>
        <time>2020-07-16T05:41:32.835Z</time>
      </trkpt>
      <trkpt lat="65.08551" lon="12.03099">
        <ele>23.3269</ele>
        <time>2020-07-16T05:41:39.119Z</time>
      </trkpt>
      <trkpt lat="65.08529" lon="12.0316">
        <ele>21.174174</ele>
        <time>2020-07-16T05:41:42.961Z</time>
      </trkpt>
      <trkpt lat="65.0849" lon="12.03241">
        <ele>17.88688</ele>
        <time>2020-07-16T05:41:48.765Z</time>
      </trkpt>
      <trkpt lat="65.08449" lon="12.033">
        <ele>15.498416</ele>
        <time>2020-07-16T05:41:54.337Z</time>
      </trkpt>
      <trkpt lat="65.08374" lon="12.03363">
        <ele>11.482901</ele>
        <time>2020-07-16T05:42:03.964Z</time>
      </trkpt>
      <trkpt lat="65.08069" lon="12.03496">
        <ele>2.830805</ele>
        <time>2020-07-16T05:42:45.678Z</time>
      </trkpt>
      <trkpt lat="65.08029" lon="12.0352">
        <ele>2.254706</ele>
        <time>2020-07-16T05:42:52.004Z</time>
      </trkpt>
      <trkpt lat="65.07974" lon="12.03591">
        <ele>1.467141</ele>
        <time>2020-07-16T05:43:02.697Z</time>
      </trkpt>
      <trkpt lat="65.07936" lon="12.0367">
        <ele>2.313285</ele>
        <time>2020-07-16T05:43:12.381Z</time>
      </trkpt>
      <trkpt lat="65.079" lon="12.03768">
        <ele>3.248496</ele>
        <time>2020-07-16T05:43:24.417Z</time>
      </trkpt>
      <trkpt lat="65.07869" lon="12.03819">
        <ele>3.885644</ele>
        <time>2020-07-16T05:43:34.283Z</time>
      </trkpt>
      <trkpt lat="65.07834" lon="12.03855">
        <ele>4.592833</ele>
        <time>2020-07-16T05:43:45.120Z</time>
      </trkpt>
      <trkpt lat="65.07774" lon="12.03877">
        <ele>6.748135</ele>
        <time>2020-07-16T05:44:03.938Z</time>
      </trkpt>
      <trkpt lat="65.07751" lon="12.0388">
        <ele>7.56449</ele>
        <time>2020-07-16T05:44:11.575Z</time>
      </trkpt>
      <trkpt lat="65.07701" lon="12.03887">
        <ele>9.296421</ele>
        <time>2020-07-16T05:44:25.841Z</time>
      </trkpt>
      <trkpt lat="65.07655" lon="12.03897">
        <ele>10.800611</ele>
        <time>2020-07-16T05:44:38.629Z</time>
      </trkpt>
      <trkpt lat="65.07641" lon="12.03906">
        <ele>10.89077</ele>
        <time>2020-07-16T05:44:43.245Z</time>
      </trkpt>
      <trkpt lat="65.07633" lon="12.03912">
        <ele>10.940686</ele>
        <time>2020-07-16T05:44:44.903Z</time>
      </trkpt>
      <trkpt lat="65.07615" lon="12.03938">
        <ele>11.073204</ele>
        <time>2020-07-16T05:44:50.615Z</time>
      </trkpt>
      <trkpt lat="65.07598" lon="12.03981">
        <ele>11.226762</ele>
        <time>2020-07-16T05:44:56.022Z</time>
      </trkpt>
      <trkpt lat="65.07579" lon="12.04078">
        <ele>11.502404</ele>
        <time>2020-07-16T05:45:04.719Z</time>
      </trkpt>
      <trkpt lat="65.07553" lon="12.04311">
        <ele>11.355181</ele>
        <time>2020-07-16T05:45:19.727Z</time>
      </trkpt>
      <trkpt lat="65.07555" lon="12.04477">
        <ele>10.440873</ele>
        <time>2020-07-16T05:45:29.773Z</time>
      </trkpt>
      <trkpt lat="65.07563" lon="12.04679">
        <ele>9.621563</ele>
        <time>2020-07-16T05:45:43.036Z</time>
      </trkpt>
      <trkpt lat="65.07565" lon="12.04718">
        <ele>9.717889</ele>
        <time>2020-07-16T05:45:45.994Z</time>
      </trkpt>
      <trkpt lat="65.07566" lon="12.0474">
        <ele>9.771669</ele>
        <time>2020-07-16T05:45:47.542Z</time>
      </trkpt>
      <trkpt lat="65.07566" lon="12.04751">
        <ele>9.79697</ele>
        <time>2020-07-16T05:45:48.233Z</time>
      </trkpt>
      <trkpt lat="65.07566" lon="12.04765">
        <ele>9.833243</ele>
        <time>2020-07-16T05:45:49.328Z</time>
      </trkpt>
      <trkpt lat="65.07564" lon="12.04789">
        <ele>9.891051</ele>
        <time>2020-07-16T05:45:51.268Z</time>
      </trkpt>
      <trkpt lat="65.07562" lon="12.04797">
        <ele>9.916012</ele>
        <time>2020-07-16T05:45:52.049Z</time>
      </trkpt>
      <trkpt lat="65.07557" lon="12.04804">
        <ele>9.946334</ele>
        <time>2020-07-16T05:45:53.136Z</time>
      </trkpt>
      <trkpt lat="65.07542" lon="12.04819">
        <ele>10.04118</ele>
        <time>2020-07-16T05:45:55.985Z</time>
      </trkpt>
      <trkpt lat="65.07539" lon="12.04823">
        <ele>10.062098</ele>
        <time>2020-07-16T05:45:56.890Z</time>
      </trkpt>
      <trkpt lat="65.07542" lon="12.04832">
        <ele>10.086441</ele>
        <time>2020-07-16T05:45:57.674Z</time>
      </trkpt>
      <trkpt lat="65.07544" lon="12.04843">
        <ele>10.118776</ele>
        <time>2020-07-16T05:45:58.750Z</time>
      </trkpt>
      <trkpt lat="65.07549" lon="12.04861">
        <ele>10.171204</ele>
        <time>2020-07-16T05:46:00.609Z</time>
      </trkpt>
      <trkpt lat="65.07563" lon="12.04937">
        <ele>10.374272</ele>
        <time>2020-07-16T05:46:08.114Z</time>
      </trkpt>
      <trkpt lat="65.07566" lon="12.04954">
        <ele>10.417279</ele>
        <time>2020-07-16T05:46:09.589Z</time>
      </trkpt>
      <trkpt lat="65.07572" lon="12.05003">
        <ele>10.545563</ele>
        <time>2020-07-16T05:46:14.915Z</time>
      </trkpt>
      <trkpt lat="65.07584" lon="12.05212">
        <ele>12.769999</ele>
        <time>2020-07-16T05:46:37.282Z</time>
      </trkpt>
      <trkpt lat="65.07593" lon="12.05883">
        <ele>20.69827</ele>
        <time>2020-07-16T05:47:55.911Z</time>
      </trkpt>
      <trkpt lat="65.07621" lon="12.06168">
        <ele>22.186907</ele>
        <time>2020-07-16T05:48:24.740Z</time>
      </trkpt>
      <trkpt lat="65.07647" lon="12.06307">
        <ele>22.566693</ele>
        <time>2020-07-16T05:48:35.246Z</time>
      </trkpt>
      <trkpt lat="65.07663" lon="12.06358">
        <ele>22.169081</ele>
        <time>2020-07-16T05:48:39.811Z</time>
      </trkpt>
      <trkpt lat="65.07665" lon="12.06366">
        <ele>22.105388</ele>
        <time>2020-07-16T05:48:40.301Z</time>
      </trkpt>
      <trkpt lat="65.07698" lon="12.06476">
        <ele>21.23822</ele>
        <time>2020-07-16T05:48:49.053Z</time>
      </trkpt>
      <trkpt lat="65.07704" lon="12.06505">
        <ele>21.034581</ele>
        <time>2020-07-16T05:48:50.786Z</time>
      </trkpt>
      <trkpt lat="65.0771" lon="12.06539">
        <ele>20.794654</ele>
        <time>2020-07-16T05:48:53.125Z</time>
      </trkpt>
      <trkpt lat="65.07712" lon="12.06549">
        <ele>20.727874</ele>
        <time>2020-07-16T05:48:53.783Z</time>
      </trkpt>
      <trkpt lat="65.07718" lon="12.06582">
        <ele>20.502156</ele>
        <time>2020-07-16T05:48:55.754Z</time>
      </trkpt>
      <trkpt lat="65.07727" lon="12.06641">
        <ele>20.095959</ele>
        <time>2020-07-16T05:48:59.580Z</time>
      </trkpt>
      <trkpt lat="65.07732" lon="12.06669">
        <ele>19.964901</ele>
        <time>2020-07-16T05:49:01.182Z</time>
      </trkpt>
      <trkpt lat="65.07745" lon="12.06752">
        <ele>19.627906</ele>
        <time>2020-07-16T05:49:06.387Z</time>
      </trkpt>
      <trkpt lat="65.07759" lon="12.0684">
        <ele>19.270451</ele>
        <time>2020-07-16T05:49:12.072Z</time>
      </trkpt>
      <trkpt lat="65.07765" lon="12.06876">
        <ele>19.120889</ele>
        <time>2020-07-16T05:49:14.563Z</time>
      </trkpt>
      <trkpt lat="65.07773" lon="12.06932">
        <ele>18.894388</ele>
        <time>2020-07-16T05:49:19.319Z</time>
      </trkpt>
      <trkpt lat="65.07778" lon="12.06966">
        <ele>18.758071</ele>
        <time>2020-07-16T05:49:21.697Z</time>
      </trkpt>
      <trkpt lat="65.0778" lon="12.06982">
        <ele>18.693537</ele>
        <time>2020-07-16T05:49:22.983Z</time>
      </trkpt>
      <trkpt lat="65.07786" lon="12.07033">
        <ele>18.493595</ele>
        <time>2020-07-16T05:49:27.224Z</time>
      </trkpt>
      <trkpt lat="65.07787" lon="12.0705">
        <ele>18.431305</ele>
        <time>2020-07-16T05:49:28.404Z</time>
      </trkpt>
      <trkpt lat="65.07788" lon="12.07068">
        <ele>18.599896</ele>
        <time>2020-07-16T05:49:30.118Z</time>
      </trkpt>
      <trkpt lat="65.0779" lon="12.0712">
        <ele>19.074073</ele>
        <time>2020-07-16T05:49:35.193Z</time>
      </trkpt>
      <trkpt lat="65.0779" lon="12.07159">
        <ele>19.424711</ele>
        <time>2020-07-16T05:49:39.060Z</time>
      </trkpt>
      <trkpt lat="65.07789" lon="12.07176">
        <ele>19.581569</ele>
        <time>2020-07-16T05:49:41.134Z</time>
      </trkpt>
      <trkpt lat="65.07786" lon="12.0722">
        <ele>19.981487</ele>
        <time>2020-07-16T05:49:45.497Z</time>
      </trkpt>
      <trkpt lat="65.07785" lon="12.07234">
        <ele>20.107129</ele>
        <time>2020-07-16T05:49:46.953Z</time>
      </trkpt>
      <trkpt lat="65.07783" lon="12.07252">
        <ele>20.280463</ele>
        <time>2020-07-16T05:49:48.901Z</time>
      </trkpt>
      <trkpt lat="65.07782" lon="12.07262">
        <ele>20.370701</ele>
        <time>2020-07-16T05:49:50.479Z</time>
      </trkpt>
      <trkpt lat="65.07762" lon="12.07376">
        <ele>21.484063</ele>
        <time>2020-07-16T05:50:04.128Z</time>
      </trkpt>
      <trkpt lat="65.07748" lon="12.07437">
        <ele>22.115717</ele>
        <time>2020-07-16T05:50:12.268Z</time>
      </trkpt>
      <trkpt lat="65.07745" lon="12.07451">
        <ele>22.262518</ele>
        <time>2020-07-16T05:50:14.278Z</time>
      </trkpt>
      <trkpt lat="65.07683" lon="12.07718">
        <ele>24.832339</ele>
        <time>2020-07-16T05:50:47.249Z</time>
      </trkpt>
      <trkpt lat="65.07657" lon="12.07874">
        <ele>26.115498</ele>
        <time>2020-07-16T05:51:02.082Z</time>
      </trkpt>
      <trkpt lat="65.07635" lon="12.08128">
        <ele>27.464142</ele>
        <time>2020-07-16T05:51:23.285Z</time>
      </trkpt>
      <trkpt lat="65.07593" lon="12.08479">
        <ele>33.082879</ele>
        <time>2020-07-16T05:52:02.976Z</time>
      </trkpt>
      <trkpt lat="65.07587" lon="12.0857">
        <ele>35.000461</ele>
        <time>2020-07-16T05:52:17.747Z</time>
      </trkpt>
      <trkpt lat="65.0759" lon="12.08636">
        <ele>36.367741</ele>
        <time>2020-07-16T05:52:29.507Z</time>
      </trkpt>
      <trkpt lat="65.07604" lon="12.08731">
        <ele>40.66762</ele>
        <time>2020-07-16T05:52:49.370Z</time>
      </trkpt>
      <trkpt lat="65.0767" lon="12.08992">
        <ele>56.344618</ele>
        <time>2020-07-16T05:54:05.607Z</time>
      </trkpt>
      <trkpt lat="65.07713" lon="12.09142">
        <ele>65.456912</ele>
        <time>2020-07-16T05:54:55.563Z</time>
      </trkpt>
      <trkpt lat="65.07732" lon="12.09185">
        <ele>68.50807</ele>
        <time>2020-07-16T05:55:11.533Z</time>
      </trkpt>
      <trkpt lat="65.07769" lon="12.09236">
        <ele>73.627458</ele>
        <time>2020-07-16T05:55:36.856Z</time>
      </trkpt>
      <trkpt lat="65.07807" lon="12.09256">
        <ele>78.138481</ele>
        <time>2020-07-16T05:55:56.123Z</time>
      </trkpt>
      <trkpt lat="65.07841" lon="12.09255">
        <ele>80.560534</ele>
        <time>2020-07-16T05:56:10.564Z</time>
      </trkpt>
      <trkpt lat="65.07899" lon="12.09219">
        <ele>82.030022</ele>
        <time>2020-07-16T05:56:29.893Z</time>
      </trkpt>
      <trkpt lat="65.08036" lon="12.09099">
        <ele>85.170049</ele>
        <time>2020-07-16T05:56:53.735Z</time>
      </trkpt>
      <trkpt lat="65.08135" lon="12.08933">
        <ele>86.947829</ele>
        <time>2020-07-16T05:57:17.338Z</time>
      </trkpt>
      <trkpt lat="65.08163" lon="12.08898">
        <ele>88.577918</ele>
        <time>2020-07-16T05:57:28.412Z</time>
      </trkpt>
      <trkpt lat="65.08218" lon="12.08871">
        <ele>93.252743</ele>
        <time>2020-07-16T05:57:57.485Z</time>
      </trkpt>
      <trkpt lat="65.083" lon="12.08882">
        <ele>100.217261</ele>
        <time>2020-07-16T05:58:39.087Z</time>
      </trkpt>
      <trkpt lat="65.08333" lon="12.08885">
        <ele>102.539464</ele>
        <time>2020-07-16T05:58:52.521Z</time>
      </trkpt>
      <trkpt lat="65.08336" lon="12.08886">
        <ele>102.660408</ele>
        <time>2020-07-16T05:58:55.556Z</time>
      </trkpt>
      <trkpt lat="65.0837" lon="12.08879">
        <ele>103.695067</ele>
        <time>2020-07-16T05:59:07.943Z</time>
      </trkpt>
      <trkpt lat="65.08379" lon="12.08874">
        <ele>103.994554</ele>
        <time>2020-07-16T05:59:13.719Z</time>
      </trkpt>
      <trkpt lat="65.08387" lon="12.08869">
        <ele>104.258787</ele>
        <time>2020-07-16T05:59:14.745Z</time>
      </trkpt>
      <trkpt lat="65.08423" lon="12.08831">
        <ele>105.458952</ele>
        <time>2020-07-16T05:59:27.157Z</time>
      </trkpt>
      <trkpt lat="65.08493" lon="12.08729">
        <ele>107.765269</ele>
        <time>2020-07-16T05:59:42.021Z</time>
      </trkpt>
      <trkpt lat="65.08632" lon="12.08616">
        <ele>104.067988</ele>
        <time>2020-07-16T06:00:01.127Z</time>
      </trkpt>
      <trkpt lat="65.0866" lon="12.08565">
        <ele>103.418733</ele>
        <time>2020-07-16T06:00:05.976Z</time>
      </trkpt>
      <trkpt lat="65.08703" lon="12.08443">
        <ele>104.042031</ele>
        <time>2020-07-16T06:00:16.073Z</time>
      </trkpt>
      <trkpt lat="65.08728" lon="12.0839">
        <ele>104.352254</ele>
        <time>2020-07-16T06:00:22.256Z</time>
      </trkpt>
      <trkpt lat="65.08769" lon="12.08338">
        <ele>104.779094</ele>
        <time>2020-07-16T06:00:33.438Z</time>
      </trkpt>
      <trkpt lat="65.08812" lon="12.08311">
        <ele>107.190952</ele>
        <time>2020-07-16T06:00:47.636Z</time>
      </trkpt>
      <trkpt lat="65.08862" lon="12.08305">
        <ele>113.271732</ele>
        <time>2020-07-16T06:01:09.214Z</time>
      </trkpt>
      <trkpt lat="65.08917" lon="12.08331">
        <ele>120.085365</ele>
        <time>2020-07-16T06:01:41.762Z</time>
      </trkpt>
      <trkpt lat="65.08969" lon="12.08381">
        <ele>126.831446</ele>
        <time>2020-07-16T06:02:22.404Z</time>
      </trkpt>
      <trkpt lat="65.09108" lon="12.08556">
        <ele>160.242663</ele>
        <time>2020-07-16T06:04:44.866Z</time>
      </trkpt>
      <trkpt lat="65.09243" lon="12.08646">
        <ele>181.795939</ele>
        <time>2020-07-16T06:06:37.154Z</time>
      </trkpt>
      <trkpt lat="65.09263" lon="12.08654">
        <ele>184.707705</ele>
        <time>2020-07-16T06:06:50.014Z</time>
      </trkpt>
      <trkpt lat="65.09277" lon="12.08658">
        <ele>186.708189</ele>
        <time>2020-07-16T06:06:55.544Z</time>
      </trkpt>
      <trkpt lat="65.0948" lon="12.08698">
        <ele>190.111772</ele>
        <time>2020-07-16T06:07:31.648Z</time>
      </trkpt>
      <trkpt lat="65.09544" lon="12.08709">
        <ele>186.469006</ele>
        <time>2020-07-16T06:07:38.868Z</time>
      </trkpt>
      <trkpt lat="65.09649" lon="12.0873">
        <ele>180.123723</ele>
        <time>2020-07-16T06:07:50.970Z</time>
      </trkpt>
      <trkpt lat="65.09712" lon="12.08751">
        <ele>177.718005</ele>
        <time>2020-07-16T06:07:58.628Z</time>
      </trkpt>
      <trkpt lat="65.09747" lon="12.08783">
        <ele>176.513897</ele>
        <time>2020-07-16T06:08:03.711Z</time>
      </trkpt>
      <trkpt lat="65.09787" lon="12.08848">
        <ele>174.984643</ele>
        <time>2020-07-16T06:08:10.549Z</time>
      </trkpt>
      <trkpt lat="65.09846" lon="12.08987">
        <ele>172.313362</ele>
        <time>2020-07-16T06:08:22.623Z</time>
      </trkpt>
      <trkpt lat="65.0986" lon="12.09016">
        <ele>171.692736</ele>
        <time>2020-07-16T06:08:26.058Z</time>
      </trkpt>
      <trkpt lat="65.09872" lon="12.09037">
        <ele>171.208902</ele>
        <time>2020-07-16T06:08:27.949Z</time>
      </trkpt>
      <trkpt lat="65.09978" lon="12.09186">
        <ele>166.747803</ele>
        <time>2020-07-16T06:08:43.514Z</time>
      </trkpt>
      <trkpt lat="65.10022" lon="12.09224">
        <ele>163.858478</ele>
        <time>2020-07-16T06:08:48.917Z</time>
      </trkpt>
      <trkpt lat="65.10055" lon="12.0924">
        <ele>161.828433</ele>
        <time>2020-07-16T06:08:52.711Z</time>
      </trkpt>
      <trkpt lat="65.10071" lon="12.09244">
        <ele>160.826946</ele>
        <time>2020-07-16T06:08:54.597Z</time>
      </trkpt>
      <trkpt lat="65.10088" lon="12.09247">
        <ele>159.791225</ele>
        <time>2020-07-16T06:08:56.507Z</time>
      </trkpt>
      <trkpt lat="65.10326" lon="12.09271">
        <ele>144.914395</ele>
        <time>2020-07-16T06:09:24.971Z</time>
      </trkpt>
      <trkpt lat="65.10385" lon="12.09266">
        <ele>138.999093</ele>
        <time>2020-07-16T06:09:31.330Z</time>
      </trkpt>
      <trkpt lat="65.10403" lon="12.09258">
        <ele>137.217694</ele>
        <time>2020-07-16T06:09:33.395Z</time>
      </trkpt>
      <trkpt lat="65.10414" lon="12.09252">
        <ele>136.057892</ele>
        <time>2020-07-16T06:09:34.592Z</time>
      </trkpt>
      <trkpt lat="65.10458" lon="12.09202">
        <ele>131.181959</ele>
        <time>2020-07-16T06:09:39.865Z</time>
      </trkpt>
      <trkpt lat="65.10471" lon="12.09179">
        <ele>129.603344</ele>
        <time>2020-07-16T06:09:41.607Z</time>
      </trkpt>
      <trkpt lat="65.10482" lon="12.09155">
        <ele>128.06695</ele>
        <time>2020-07-16T06:09:43.208Z</time>
      </trkpt>
      <trkpt lat="65.10525" lon="12.09062">
        <ele>125.187859</ele>
        <time>2020-07-16T06:09:49.613Z</time>
      </trkpt>
      <trkpt lat="65.10556" lon="12.0902">
        <ele>123.520339</ele>
        <time>2020-07-16T06:09:53.610Z</time>
      </trkpt>
      <trkpt lat="65.10602" lon="12.09008">
        <ele>121.406205</ele>
        <time>2020-07-16T06:09:58.974Z</time>
      </trkpt>
      <trkpt lat="65.10633" lon="12.09033">
        <ele>119.862838</ele>
        <time>2020-07-16T06:10:07.224Z</time>
      </trkpt>
      <trkpt lat="65.10659" lon="12.09086">
        <ele>121.926866</ele>
        <time>2020-07-16T06:10:20.031Z</time>
      </trkpt>
      <trkpt lat="65.10676" lon="12.09144">
        <ele>125.147673</ele>
        <time>2020-07-16T06:10:33.569Z</time>
      </trkpt>
      <trkpt lat="65.10721" lon="12.09376">
        <ele>136.698615</ele>
        <time>2020-07-16T06:11:39.315Z</time>
      </trkpt>
      <trkpt lat="65.1074" lon="12.09503">
        <ele>142.880215</ele>
        <time>2020-07-16T06:12:14.061Z</time>
      </trkpt>
      <trkpt lat="65.10744" lon="12.09546">
        <ele>144.89712</ele>
        <time>2020-07-16T06:12:24.927Z</time>
      </trkpt>
      <trkpt lat="65.10746" lon="12.09563">
        <ele>145.748972</ele>
        <time>2020-07-16T06:12:30.118Z</time>
      </trkpt>
      <trkpt lat="65.10769" lon="12.09799">
        <ele>156.986185</ele>
        <time>2020-07-16T06:13:22.505Z</time>
      </trkpt>
      <trkpt lat="65.10787" lon="12.09887">
        <ele>159.529035</ele>
        <time>2020-07-16T06:13:41.313Z</time>
      </trkpt>
      <trkpt lat="65.10802" lon="12.09936">
        <ele>160.457808</ele>
        <time>2020-07-16T06:13:49.214Z</time>
      </trkpt>
      <trkpt lat="65.10835" lon="12.10009">
        <ele>162.06949</ele>
        <time>2020-07-16T06:14:03.065Z</time>
      </trkpt>
      <trkpt lat="65.10953" lon="12.10227">
        <ele>159.932256</ele>
        <time>2020-07-16T06:14:33.474Z</time>
      </trkpt>
      <trkpt lat="65.11043" lon="12.10367">
        <ele>151.780216</ele>
        <time>2020-07-16T06:14:45.191Z</time>
      </trkpt>
      <trkpt lat="65.11172" lon="12.10532">
        <ele>120.577523</ele>
        <time>2020-07-16T06:15:00.047Z</time>
      </trkpt>
      <trkpt lat="65.11181" lon="12.10545">
        <ele>118.204593</ele>
        <time>2020-07-16T06:15:01.179Z</time>
      </trkpt>
      <trkpt lat="65.11221" lon="12.10606">
        <ele>108.182071</ele>
        <time>2020-07-16T06:15:05.964Z</time>
      </trkpt>
      <trkpt lat="65.11296" lon="12.10752">
        <ele>88.273566</ele>
        <time>2020-07-16T06:15:15.786Z</time>
      </trkpt>
      <trkpt lat="65.11413" lon="12.11009">
        <ele>63.820022</ele>
        <time>2020-07-16T06:15:32.365Z</time>
      </trkpt>
      <trkpt lat="65.11455" lon="12.11123">
        <ele>56.080303</ele>
        <time>2020-07-16T06:15:39.390Z</time>
      </trkpt>
      <trkpt lat="65.11515" lon="12.11304">
        <ele>52.352219</ele>
        <time>2020-07-16T06:15:50.873Z</time>
      </trkpt>
      <trkpt lat="65.11552" lon="12.1144">
        <ele>51.123573</ele>
        <time>2020-07-16T06:16:01.609Z</time>
      </trkpt>
      <trkpt lat="65.11607" lon="12.11771">
        <ele>58.28855</ele>
        <time>2020-07-16T06:16:54.270Z</time>
      </trkpt>
      <trkpt lat="65.11622" lon="12.11838">
        <ele>60.442064</ele>
        <time>2020-07-16T06:17:08.506Z</time>
      </trkpt>
      <trkpt lat="65.11629" lon="12.11871">
        <ele>61.486263</ele>
        <time>2020-07-16T06:17:15.920Z</time>
      </trkpt>
      <trkpt lat="65.11646" lon="12.11969">
        <ele>66.09322</ele>
        <time>2020-07-16T06:17:38.067Z</time>
      </trkpt>
      <trkpt lat="65.11655" lon="12.12065">
        <ele>71.337103</ele>
        <time>2020-07-16T06:18:03.759Z</time>
      </trkpt>
      <trkpt lat="65.1166" lon="12.12184">
        <ele>77.658953</ele>
        <time>2020-07-16T06:18:35.763Z</time>
      </trkpt>
      <trkpt lat="65.11658" lon="12.1228">
        <ele>82.799043</ele>
        <time>2020-07-16T06:18:59.969Z</time>
      </trkpt>
      <trkpt lat="65.11655" lon="12.12329">
        <ele>85.392794</ele>
        <time>2020-07-16T06:19:13.314Z</time>
      </trkpt>
      <trkpt lat="65.11647" lon="12.12421">
        <ele>88.519828</ele>
        <time>2020-07-16T06:19:36.013Z</time>
      </trkpt>
      <trkpt lat="65.11644" lon="12.12548">
        <ele>92.709865</ele>
        <time>2020-07-16T06:20:03.305Z</time>
      </trkpt>
      <trkpt lat="65.1165" lon="12.12695">
        <ele>97.610865</ele>
        <time>2020-07-16T06:20:29.730Z</time>
      </trkpt>
      <trkpt lat="65.11665" lon="12.12815">
        <ele>97.256401</ele>
        <time>2020-07-16T06:20:39.020Z</time>
      </trkpt>
      <trkpt lat="65.11692" lon="12.12944">
        <ele>92.468817</ele>
        <time>2020-07-16T06:20:46.151Z</time>
      </trkpt>
      <trkpt lat="65.11727" lon="12.13058">
        <ele>87.752794</ele>
        <time>2020-07-16T06:20:52.602Z</time>
      </trkpt>
      <trkpt lat="65.1176" lon="12.13136">
        <ele>82.770848</ele>
        <time>2020-07-16T06:20:57.493Z</time>
      </trkpt>
      <trkpt lat="65.11796" lon="12.13201">
        <ele>75.663107</ele>
        <time>2020-07-16T06:21:02.100Z</time>
      </trkpt>
      <trkpt lat="65.11835" lon="12.13254">
        <ele>68.535519</ele>
        <time>2020-07-16T06:21:06.749Z</time>
      </trkpt>
      <trkpt lat="65.11882" lon="12.13296">
        <ele>60.666451</ele>
        <time>2020-07-16T06:21:11.911Z</time>
      </trkpt>
      <trkpt lat="65.11889" lon="12.13301">
        <ele>59.47057</ele>
        <time>2020-07-16T06:21:12.679Z</time>
      </trkpt>
      <trkpt lat="65.11938" lon="12.13345">
        <ele>53.248215</ele>
        <time>2020-07-16T06:21:18.203Z</time>
      </trkpt>
      <trkpt lat="65.11978" lon="12.13399">
        <ele>48.551219</ele>
        <time>2020-07-16T06:21:23.190Z</time>
      </trkpt>
      <trkpt lat="65.12014" lon="12.13468">
        <ele>43.915953</ele>
        <time>2020-07-16T06:21:28.169Z</time>
      </trkpt>
      <trkpt lat="65.12046" lon="12.13552">
        <ele>39.044671</ele>
        <time>2020-07-16T06:21:34.010Z</time>
      </trkpt>
      <trkpt lat="65.12166" lon="12.13996">
        <ele>23.684865</ele>
        <time>2020-07-16T06:21:59.511Z</time>
      </trkpt>
      <trkpt lat="65.12195" lon="12.14141">
        <ele>19.118071</ele>
        <time>2020-07-16T06:22:07.106Z</time>
      </trkpt>
      <trkpt lat="65.12205" lon="12.14238">
        <ele>16.267042</ele>
        <time>2020-07-16T06:22:11.979Z</time>
      </trkpt>
      <trkpt lat="65.12207" lon="12.14349">
        <ele>13.767897</ele>
        <time>2020-07-16T06:22:17.577Z</time>
      </trkpt>
      <trkpt lat="65.12201" lon="12.14453">
        <ele>12.904189</ele>
        <time>2020-07-16T06:22:23.126Z</time>
      </trkpt>
      <trkpt lat="65.12162" lon="12.14817">
        <ele>10.895118</ele>
        <time>2020-07-16T06:22:49.023Z</time>
      </trkpt>
      <trkpt lat="65.12164" lon="12.14899">
        <ele>11.253314</ele>
        <time>2020-07-16T06:22:56.390Z</time>
      </trkpt>
      <trkpt lat="65.12183" lon="12.15091">
        <ele>12.115604</ele>
        <time>2020-07-16T06:23:14.956Z</time>
      </trkpt>
      <trkpt lat="65.12187" lon="12.15202">
        <ele>12.985727</ele>
        <time>2020-07-16T06:23:25.842Z</time>
      </trkpt>
      <trkpt lat="65.12171" lon="12.15819">
        <ele>21.096788</ele>
        <time>2020-07-16T06:24:38.741Z</time>
      </trkpt>
      <trkpt lat="65.12173" lon="12.16213">
        <ele>26.420435</ele>
        <time>2020-07-16T06:25:28.942Z</time>
      </trkpt>
      <trkpt lat="65.12165" lon="12.16311">
        <ele>27.667096</ele>
        <time>2020-07-16T06:25:41.833Z</time>
      </trkpt>
      <trkpt lat="65.12151" lon="12.16399">
        <ele>28.837715</ele>
        <time>2020-07-16T06:25:52.071Z</time>
      </trkpt>
      <trkpt lat="65.12103" lon="12.16607">
        <ele>26.885759</ele>
        <time>2020-07-16T06:26:07.944Z</time>
      </trkpt>
      <trkpt lat="65.12097" lon="12.16635">
        <ele>26.549607</ele>
        <time>2020-07-16T06:26:10.431Z</time>
      </trkpt>
      <trkpt lat="65.1209" lon="12.1668">
        <ele>26.012891</ele>
        <time>2020-07-16T06:26:12.930Z</time>
      </trkpt>
      <trkpt lat="65.12084" lon="12.1674">
        <ele>25.350355</ele>
        <time>2020-07-16T06:26:16.237Z</time>
      </trkpt>
      <trkpt lat="65.12085" lon="12.168">
        <ele>24.697034</ele>
        <time>2020-07-16T06:26:19.146Z</time>
      </trkpt>
      <trkpt lat="65.12089" lon="12.16839">
        <ele>23.824292</ele>
        <time>2020-07-16T06:26:21.102Z</time>
      </trkpt>
      <trkpt lat="65.12105" lon="12.16899">
        <ele>21.747034</ele>
        <time>2020-07-16T06:26:24.492Z</time>
      </trkpt>
      <trkpt lat="65.12126" lon="12.16941">
        <ele>19.813053</ele>
        <time>2020-07-16T06:26:27.615Z</time>
      </trkpt>
      <trkpt lat="65.12146" lon="12.16961">
        <ele>18.322042</ele>
        <time>2020-07-16T06:26:29.956Z</time>
      </trkpt>
      <trkpt lat="65.12181" lon="12.16965">
        <ele>15.916177</ele>
        <time>2020-07-16T06:26:33.968Z</time>
      </trkpt>
      <trkpt lat="65.12183" lon="12.16964">
        <ele>15.760236</ele>
        <time>2020-07-16T06:26:34.202Z</time>
      </trkpt>
      <trkpt lat="65.12188" lon="12.16962">
        <ele>15.398835</ele>
        <time>2020-07-16T06:26:34.806Z</time>
      </trkpt>
      <trkpt lat="65.12224" lon="12.16917">
        <ele>12.553965</ele>
        <time>2020-07-16T06:26:39.616Z</time>
      </trkpt>
      <trkpt lat="65.1224" lon="12.16882">
        <ele>11.627115</ele>
        <time>2020-07-16T06:26:42.395Z</time>
      </trkpt>
      <trkpt lat="65.1225" lon="12.16861">
        <ele>11.279489</ele>
        <time>2020-07-16T06:26:43.849Z</time>
      </trkpt>
      <trkpt lat="65.12258" lon="12.16845">
        <ele>10.994822</ele>
        <time>2020-07-16T06:26:45.295Z</time>
      </trkpt>
      <trkpt lat="65.12293" lon="12.16769">
        <ele>9.729633</ele>
        <time>2020-07-16T06:26:51.490Z</time>
      </trkpt>
      <trkpt lat="65.12335" lon="12.16697">
        <ele>8.337515</ele>
        <time>2020-07-16T06:26:58.987Z</time>
      </trkpt>
      <trkpt lat="65.12367" lon="12.16664">
        <ele>7.406886</ele>
        <time>2020-07-16T06:27:04.896Z</time>
      </trkpt>
      <trkpt lat="65.1241" lon="12.16631">
        <ele>6.865859</ele>
        <time>2020-07-16T06:27:12.372Z</time>
      </trkpt>
      <trkpt lat="65.12429" lon="12.16615">
        <ele>6.697613</ele>
        <time>2020-07-16T06:27:15.532Z</time>
      </trkpt>
      <trkpt lat="65.1247" lon="12.16576">
        <ele>6.320681</ele>
        <time>2020-07-16T06:27:22.375Z</time>
      </trkpt>
      <trkpt lat="65.12491" lon="12.16541">
        <ele>6.099497</ele>
        <time>2020-07-16T06:27:26.250Z</time>
      </trkpt>
      <trkpt lat="65.12499" lon="12.16523">
        <ele>6.006423</ele>
        <time>2020-07-16T06:27:28.075Z</time>
      </trkpt>
      <trkpt lat="65.12506" lon="12.16503">
        <ele>5.914393</ele>
        <time>2020-07-16T06:27:29.603Z</time>
      </trkpt>
      <trkpt lat="65.12518" lon="12.16459">
        <ele>5.726333</ele>
        <time>2020-07-16T06:27:33.232Z</time>
      </trkpt>
      <trkpt lat="65.12523" lon="12.16436">
        <ele>5.670014</ele>
        <time>2020-07-16T06:27:34.746Z</time>
      </trkpt>
      <trkpt lat="65.12527" lon="12.16414">
        <ele>5.781074</ele>
        <time>2020-07-16T06:27:36.236Z</time>
      </trkpt>
      <trkpt lat="65.1253" lon="12.16388">
        <ele>5.902139</ele>
        <time>2020-07-16T06:27:38.603Z</time>
      </trkpt>
      <trkpt lat="65.12539" lon="12.16315">
        <ele>6.248157</ele>
        <time>2020-07-16T06:27:44.065Z</time>
      </trkpt>
      <trkpt lat="65.12541" lon="12.16298">
        <ele>6.326517</ele>
        <time>2020-07-16T06:27:45.626Z</time>
      </trkpt>
      <trkpt lat="65.12557" lon="12.16206">
        <ele>6.779533</ele>
        <time>2020-07-16T06:27:53.792Z</time>
      </trkpt>
      <trkpt lat="65.12588" lon="12.16112">
        <ele>7.320867</ele>
        <time>2020-07-16T06:28:05.760Z</time>
      </trkpt>
      <trkpt lat="65.12594" lon="12.16101">
        <ele>7.399962</ele>
        <time>2020-07-16T06:28:07.755Z</time>
      </trkpt>
      <trkpt lat="65.12614" lon="12.1607">
        <ele>7.736251</ele>
        <time>2020-07-16T06:28:15.316Z</time>
      </trkpt>
      <trkpt lat="65.12656" lon="12.16032">
        <ele>8.751332</ele>
        <time>2020-07-16T06:28:28.159Z</time>
      </trkpt>
      <trkpt lat="65.12677" lon="12.16021">
        <ele>9.236289</ele>
        <time>2020-07-16T06:28:34.854Z</time>
      </trkpt>
      <trkpt lat="65.12688" lon="12.16017">
        <ele>9.475269</ele>
        <time>2020-07-16T06:28:37.323Z</time>
      </trkpt>
      <trkpt lat="65.12707" lon="12.1601">
        <ele>9.905549</ele>
        <time>2020-07-16T06:28:42.765Z</time>
      </trkpt>
      <trkpt lat="65.12714" lon="12.16007">
        <ele>10.070807</ele>
        <time>2020-07-16T06:28:44.867Z</time>
      </trkpt>
      <trkpt lat="65.12732" lon="12.15996">
        <ele>10.480133</ele>
        <time>2020-07-16T06:28:48.952Z</time>
      </trkpt>
      <trkpt lat="65.12739" lon="12.15991">
        <ele>10.645024</ele>
        <time>2020-07-16T06:28:51.177Z</time>
      </trkpt>
      <trkpt lat="65.12755" lon="12.15973">
        <ele>11.051843</ele>
        <time>2020-07-16T06:28:55.306Z</time>
      </trkpt>
      <trkpt lat="65.12774" lon="12.15949">
        <ele>11.531849</ele>
        <time>2020-07-16T06:28:59.696Z</time>
      </trkpt>
      <trkpt lat="65.12797" lon="12.15899">
        <ele>11.045909</ele>
        <time>2020-07-16T06:29:05.157Z</time>
      </trkpt>
      <trkpt lat="65.12842" lon="12.15737">
        <ele>9.218528</ele>
        <time>2020-07-16T06:29:16.692Z</time>
      </trkpt>
      <trkpt lat="65.12853" lon="12.15662">
        <ele>8.481879</ele>
        <time>2020-07-16T06:29:20.866Z</time>
      </trkpt>
      <trkpt lat="65.12851" lon="12.15571">
        <ele>7.621549</ele>
        <time>2020-07-16T06:29:25.696Z</time>
      </trkpt>
      <trkpt lat="65.12835" lon="12.15465">
        <ele>6.500519</ele>
        <time>2020-07-16T06:29:31.766Z</time>
      </trkpt>
      <trkpt lat="65.12787" lon="12.15267">
        <ele>4.23429</ele>
        <time>2020-07-16T06:29:44.930Z</time>
      </trkpt>
      <trkpt lat="65.12763" lon="12.15146">
        <ele>3.416913</ele>
        <time>2020-07-16T06:29:53.846Z</time>
      </trkpt>
      <trkpt lat="65.12706" lon="12.14716">
        <ele>3.784761</ele>
        <time>2020-07-16T06:30:30.474Z</time>
      </trkpt>
      <trkpt lat="65.12622" lon="12.14322">
        <ele>4.711701</ele>
        <time>2020-07-16T06:31:06.180Z</time>
      </trkpt>
      <trkpt lat="65.12612" lon="12.14278">
        <ele>4.869359</ele>
        <time>2020-07-16T06:31:09.978Z</time>
      </trkpt>
      <trkpt lat="65.12595" lon="12.14196">
        <ele>5.159467</ele>
        <time>2020-07-16T06:31:17.918Z</time>
      </trkpt>
      <trkpt lat="65.12573" lon="12.14073">
        <ele>5.581723</ele>
        <time>2020-07-16T06:31:29.435Z</time>
      </trkpt>
      <trkpt lat="65.12567" lon="12.14016">
        <ele>5.767485</ele>
        <time>2020-07-16T06:31:35.015Z</time>
      </trkpt>
      <trkpt lat="65.12562" lon="12.13948">
        <ele>5.974163</ele>
        <time>2020-07-16T06:31:41.129Z</time>
      </trkpt>
      <trkpt lat="65.1255" lon="12.13791">
        <ele>6.439545</ele>
        <time>2020-07-16T06:31:55.221Z</time>
      </trkpt>
      <trkpt lat="65.12547" lon="12.13747">
        <ele>6.56961</ele>
        <time>2020-07-16T06:31:58.772Z</time>
      </trkpt>
      <trkpt lat="65.12544" lon="12.13696">
        <ele>6.722412</ele>
        <time>2020-07-16T06:32:03.153Z</time>
      </trkpt>
      <trkpt lat="65.12541" lon="12.13606">
        <ele>6.987594</ele>
        <time>2020-07-16T06:32:09.940Z</time>
      </trkpt>
      <trkpt lat="65.12539" lon="12.13522">
        <ele>7.189688</ele>
        <time>2020-07-16T06:32:16.674Z</time>
      </trkpt>
      <trkpt lat="65.12537" lon="12.13463">
        <ele>7.319519</ele>
        <time>2020-07-16T06:32:21.427Z</time>
      </trkpt>
      <trkpt lat="65.12535" lon="12.13413">
        <ele>7.432735</ele>
        <time>2020-07-16T06:32:25.540Z</time>
      </trkpt>
      <trkpt lat="65.12533" lon="12.13391">
        <ele>7.480919</ele>
        <time>2020-07-16T06:32:27.337Z</time>
      </trkpt>
      <trkpt lat="65.12532" lon="12.13375">
        <ele>7.516925</ele>
        <time>2020-07-16T06:32:28.853Z</time>
      </trkpt>
      <trkpt lat="65.12518" lon="12.1325">
        <ele>7.805841</ele>
        <time>2020-07-16T06:32:39.484Z</time>
      </trkpt>
      <trkpt lat="65.1248" lon="12.13018">
        <ele>8.682337</ele>
        <time>2020-07-16T06:33:00.883Z</time>
      </trkpt>
      <trkpt lat="65.12467" lon="12.1289">
        <ele>9.239864</ele>
        <time>2020-07-16T06:33:12.385Z</time>
      </trkpt>
      <trkpt lat="65.12454" lon="12.12315">
        <ele>13.020328</ele>
        <time>2020-07-16T06:34:06.401Z</time>
      </trkpt>
      <trkpt lat="65.12423" lon="12.12006">
        <ele>18.802266</ele>
        <time>2020-07-16T06:34:45.928Z</time>
      </trkpt>
      <trkpt lat="65.12424" lon="12.11949">
        <ele>19.843066</ele>
        <time>2020-07-16T06:34:55.994Z</time>
      </trkpt>
      <trkpt lat="65.12436" lon="12.11853">
        <ele>22.232889</ele>
        <time>2020-07-16T06:35:12.664Z</time>
      </trkpt>
      <trkpt lat="65.12439" lon="12.11839">
        <ele>22.672865</ele>
        <time>2020-07-16T06:35:16.028Z</time>
      </trkpt>
      <trkpt lat="65.12443" lon="12.11823">
        <ele>23.179286</ele>
        <time>2020-07-16T06:35:20.441Z</time>
      </trkpt>
      <trkpt lat="65.12463" lon="12.11763">
        <ele>25.27353</ele>
        <time>2020-07-16T06:35:33.083Z</time>
      </trkpt>
      <trkpt lat="65.12484" lon="12.11722">
        <ele>27.049563</ele>
        <time>2020-07-16T06:35:43.128Z</time>
      </trkpt>
      <trkpt lat="65.12495" lon="12.11706">
        <ele>27.891381</ele>
        <time>2020-07-16T06:35:50.182Z</time>
      </trkpt>
      <trkpt lat="65.12512" lon="12.1169">
        <ele>29.059997</ele>
        <time>2020-07-16T06:35:56.218Z</time>
      </trkpt>
      <trkpt lat="65.12552" lon="12.11679">
        <ele>31.740379</ele>
        <time>2020-07-16T06:36:12.555Z</time>
      </trkpt>
      <trkpt lat="65.12614" lon="12.11681">
        <ele>32.434527</ele>
        <time>2020-07-16T06:36:32.446Z</time>
      </trkpt>
      <trkpt lat="65.12681" lon="12.11659">
        <ele>32.616644</ele>
        <time>2020-07-16T06:36:44.240Z</time>
      </trkpt>
      <trkpt lat="65.1272" lon="12.11644">
        <ele>32.721594</ele>
        <time>2020-07-16T06:36:49.487Z</time>
      </trkpt>
      <trkpt lat="65.12727" lon="12.11641">
        <ele>32.740244</ele>
        <time>2020-07-16T06:36:50.250Z</time>
      </trkpt>
      <trkpt lat="65.12775" lon="12.11617">
        <ele>31.015579</ele>
        <time>2020-07-16T06:36:56.434Z</time>
      </trkpt>
      <trkpt lat="65.12814" lon="12.11617">
        <ele>29.130862</ele>
        <time>2020-07-16T06:37:01.164Z</time>
      </trkpt>
      <trkpt lat="65.12851" lon="12.11644">
        <ele>27.292989</ele>
        <time>2020-07-16T06:37:05.684Z</time>
      </trkpt>
      <trkpt lat="65.12936" lon="12.11742">
        <ele>23.309982</ele>
        <time>2020-07-16T06:37:17.217Z</time>
      </trkpt>
      <trkpt lat="65.12993" lon="12.1179">
        <ele>21.63564</ele>
        <time>2020-07-16T06:37:24.990Z</time>
      </trkpt>
      <trkpt lat="65.13072" lon="12.1182">
        <ele>19.3879</ele>
        <time>2020-07-16T06:37:36.338Z</time>
      </trkpt>
      <trkpt lat="65.13144" lon="12.11814">
        <ele>19.68992</ele>
        <time>2020-07-16T06:37:48.206Z</time>
      </trkpt>
      <trkpt lat="65.13271" lon="12.11783">
        <ele>21.136649</ele>
        <time>2020-07-16T06:38:17.742Z</time>
      </trkpt>
      <trkpt lat="65.13294" lon="12.11777">
        <ele>21.977298</ele>
        <time>2020-07-16T06:38:24.396Z</time>
      </trkpt>
      <trkpt lat="65.13673" lon="12.11681">
        <ele>32.8737</ele>
        <time>2020-07-16T06:40:20.456Z</time>
      </trkpt>
      <trkpt lat="65.13699" lon="12.11677">
        <ele>32.288132</ele>
        <time>2020-07-16T06:40:25.070Z</time>
      </trkpt>
      <trkpt lat="65.1371" lon="12.11676">
        <ele>32.044605</ele>
        <time>2020-07-16T06:40:26.297Z</time>
      </trkpt>
      <trkpt lat="65.13832" lon="12.1169">
        <ele>27.203201</ele>
        <time>2020-07-16T06:40:40.734Z</time>
      </trkpt>
      <trkpt lat="65.13857" lon="12.11699">
        <ele>24.972402</ele>
        <time>2020-07-16T06:40:43.566Z</time>
      </trkpt>
      <trkpt lat="65.13949" lon="12.11728">
        <ele>17.086496</ele>
        <time>2020-07-16T06:40:53.648Z</time>
      </trkpt>
      <trkpt lat="65.14024" lon="12.11754">
        <ele>12.319639</ele>
        <time>2020-07-16T06:41:02.129Z</time>
      </trkpt>
      <trkpt lat="65.14062" lon="12.11766">
        <ele>10.482219</ele>
        <time>2020-07-16T06:41:06.671Z</time>
      </trkpt>
      <trkpt lat="65.14129" lon="12.11788">
        <ele>7.234277</ele>
        <time>2020-07-16T06:41:15.466Z</time>
      </trkpt>
      <trkpt lat="65.14157" lon="12.11795">
        <ele>5.969573</ele>
        <time>2020-07-16T06:41:19.522Z</time>
      </trkpt>
      <trkpt lat="65.14177" lon="12.11798">
        <ele>6.424686</ele>
        <time>2020-07-16T06:41:22.456Z</time>
      </trkpt>
      <trkpt lat="65.14196" lon="12.118">
        <ele>6.871787</ele>
        <time>2020-07-16T06:41:25.853Z</time>
      </trkpt>
      <trkpt lat="65.14269" lon="12.11785">
        <ele>8.559388</ele>
        <time>2020-07-16T06:41:44.205Z</time>
      </trkpt>
      <trkpt lat="65.14354" lon="12.11727">
        <ele>11.132309</ele>
        <time>2020-07-16T06:42:13.442Z</time>
      </trkpt>
      <trkpt lat="65.14383" lon="12.11703">
        <ele>12.61024</ele>
        <time>2020-07-16T06:42:25.465Z</time>
      </trkpt>
      <trkpt lat="65.1443" lon="12.11665">
        <ele>14.97904</ele>
        <time>2020-07-16T06:42:43.319Z</time>
      </trkpt>
      <trkpt lat="65.14499" lon="12.11622">
        <ele>18.373776</ele>
        <time>2020-07-16T06:43:06.946Z</time>
      </trkpt>
      <trkpt lat="65.1452" lon="12.11615">
        <ele>18.647965</ele>
        <time>2020-07-16T06:43:13.771Z</time>
      </trkpt>
      <trkpt lat="65.14529" lon="12.11612">
        <ele>18.640361</ele>
        <time>2020-07-16T06:43:16.346Z</time>
      </trkpt>
      <trkpt lat="65.14899" lon="12.11553">
        <ele>15.49825</ele>
        <time>2020-07-16T06:44:12.540Z</time>
      </trkpt>
      <trkpt lat="65.14965" lon="12.11556">
        <ele>14.124043</ele>
        <time>2020-07-16T06:44:21.644Z</time>
      </trkpt>
      <trkpt lat="65.15004" lon="12.11569">
        <ele>13.292196</ele>
        <time>2020-07-16T06:44:27.198Z</time>
      </trkpt>
      <trkpt lat="65.15057" lon="12.11602">
        <ele>12.102398</ele>
        <time>2020-07-16T06:44:34.489Z</time>
      </trkpt>
      <trkpt lat="65.15161" lon="12.11714">
        <ele>9.291089</ele>
        <time>2020-07-16T06:44:49.813Z</time>
      </trkpt>
      <trkpt lat="65.15171" lon="12.11726">
        <ele>9.007054</ele>
        <time>2020-07-16T06:44:51.265Z</time>
      </trkpt>
      <trkpt lat="65.15209" lon="12.11772">
        <ele>8.049414</ele>
        <time>2020-07-16T06:44:57.284Z</time>
      </trkpt>
      <trkpt lat="65.15267" lon="12.1183">
        <ele>7.860137</ele>
        <time>2020-07-16T06:45:06.884Z</time>
      </trkpt>
      <trkpt lat="65.15354" lon="12.11897">
        <ele>7.586596</ele>
        <time>2020-07-16T06:45:24.062Z</time>
      </trkpt>
      <trkpt lat="65.1544" lon="12.12006">
        <ele>7.67013</ele>
        <time>2020-07-16T06:45:44.632Z</time>
      </trkpt>
      <trkpt lat="65.15475" lon="12.12033">
        <ele>7.741671</ele>
        <time>2020-07-16T06:45:51.902Z</time>
      </trkpt>
      <trkpt lat="65.15739" lon="12.12119">
        <ele>5.965958</ele>
        <time>2020-07-16T06:46:33.620Z</time>
      </trkpt>
      <trkpt lat="65.15799" lon="12.12112">
        <ele>5.267049</ele>
        <time>2020-07-16T06:46:42.499Z</time>
      </trkpt>
      <trkpt lat="65.15865" lon="12.12066">
        <ele>4.45406</ele>
        <time>2020-07-16T06:46:52.978Z</time>
      </trkpt>
      <trkpt lat="65.15869" lon="12.12061">
        <ele>4.407466</ele>
        <time>2020-07-16T06:46:53.573Z</time>
      </trkpt>
      <trkpt lat="65.1589" lon="12.12038">
        <ele>4.139696</ele>
        <time>2020-07-16T06:46:57.062Z</time>
      </trkpt>
      <trkpt lat="65.15988" lon="12.11921">
        <ele>3.859658</ele>
        <time>2020-07-16T06:47:14.715Z</time>
      </trkpt>
      <trkpt lat="65.16061" lon="12.11872">
        <ele>3.712747</ele>
        <time>2020-07-16T06:47:28.580Z</time>
      </trkpt>
      <trkpt lat="65.16332" lon="12.11839">
        <ele>7.461212</ele>
        <time>2020-07-16T06:48:29.818Z</time>
      </trkpt>
      <trkpt lat="65.16393" lon="12.11832">
        <ele>8.406141</ele>
        <time>2020-07-16T06:48:44.275Z</time>
      </trkpt>
      <trkpt lat="65.16397" lon="12.11832">
        <ele>8.456917</ele>
        <time>2020-07-16T06:48:45.015Z</time>
      </trkpt>
      <trkpt lat="65.16507" lon="12.11821">
        <ele>10.008842</ele>
        <time>2020-07-16T06:49:09.901Z</time>
      </trkpt>
      <trkpt lat="65.16523" lon="12.11818">
        <ele>10.219991</ele>
        <time>2020-07-16T06:49:13.380Z</time>
      </trkpt>
      <trkpt lat="65.16526" lon="12.11817">
        <ele>10.259733</ele>
        <time>2020-07-16T06:49:13.932Z</time>
      </trkpt>
      <trkpt lat="65.16588" lon="12.11787">
        <ele>11.133866</ele>
        <time>2020-07-16T06:49:27.549Z</time>
      </trkpt>
      <trkpt lat="65.16702" lon="12.1171">
        <ele>13.177946</ele>
        <time>2020-07-16T06:49:54.779Z</time>
      </trkpt>
      <trkpt lat="65.16742" lon="12.11701">
        <ele>13.878179</ele>
        <time>2020-07-16T06:50:04.857Z</time>
      </trkpt>
      <trkpt lat="65.16843" lon="12.11703">
        <ele>15.226506</ele>
        <time>2020-07-16T06:50:29.015Z</time>
      </trkpt>
      <trkpt lat="65.16884" lon="12.11688">
        <ele>15.709064</ele>
        <time>2020-07-16T06:50:37.776Z</time>
      </trkpt>
      <trkpt lat="65.16895" lon="12.11681">
        <ele>15.837696</ele>
        <time>2020-07-16T06:50:40.767Z</time>
      </trkpt>
      <trkpt lat="65.16925" lon="12.11655">
        <ele>16.21033</ele>
        <time>2020-07-16T06:50:46.563Z</time>
      </trkpt>
      <trkpt lat="65.16995" lon="12.11588">
        <ele>16.393148</ele>
        <time>2020-07-16T06:51:00.404Z</time>
      </trkpt>
      <trkpt lat="65.17057" lon="12.11574">
        <ele>16.271849</ele>
        <time>2020-07-16T06:51:10.340Z</time>
      </trkpt>
      <trkpt lat="65.17085" lon="12.11579">
        <ele>16.218549</ele>
        <time>2020-07-16T06:51:14.675Z</time>
      </trkpt>
      <trkpt lat="65.17091" lon="12.1158">
        <ele>16.205822</ele>
        <time>2020-07-16T06:51:16.088Z</time>
      </trkpt>
      <trkpt lat="65.17188" lon="12.11593">
        <ele>16.564224</ele>
        <time>2020-07-16T06:51:33.870Z</time>
      </trkpt>
      <trkpt lat="65.17306" lon="12.11553">
        <ele>17.334382</ele>
        <time>2020-07-16T06:51:59.037Z</time>
      </trkpt>
      <trkpt lat="65.17367" lon="12.1157">
        <ele>17.619103</ele>
        <time>2020-07-16T06:52:11.500Z</time>
      </trkpt>
      <trkpt lat="65.1744" lon="12.1164">
        <ele>17.988081</ele>
        <time>2020-07-16T06:52:26.808Z</time>
      </trkpt>
      <trkpt lat="65.17792" lon="12.1202">
        <ele>17.647489</ele>
        <time>2020-07-16T06:53:33.194Z</time>
      </trkpt>
      <trkpt lat="65.17827" lon="12.12057">
        <ele>17.837469</ele>
        <time>2020-07-16T06:53:40.768Z</time>
      </trkpt>
      <trkpt lat="65.17878" lon="12.12113">
        <ele>18.2161</ele>
        <time>2020-07-16T06:53:52.799Z</time>
      </trkpt>
      <trkpt lat="65.17946" lon="12.12186">
        <ele>18.715794</ele>
        <time>2020-07-16T06:54:08.181Z</time>
      </trkpt>
      <trkpt lat="65.17953" lon="12.12193">
        <ele>18.765253</ele>
        <time>2020-07-16T06:54:09.605Z</time>
      </trkpt>
      <trkpt lat="65.17959" lon="12.122">
        <ele>18.811793</ele>
        <time>2020-07-16T06:54:11.135Z</time>
      </trkpt>
      <trkpt lat="65.18016" lon="12.12261">
        <ele>18.683088</ele>
        <time>2020-07-16T06:54:22.496Z</time>
      </trkpt>
      <trkpt lat="65.18083" lon="12.12334">
        <ele>18.465614</ele>
        <time>2020-07-16T06:54:34.838Z</time>
      </trkpt>
      <trkpt lat="65.18115" lon="12.12368">
        <ele>18.360947</ele>
        <time>2020-07-16T06:54:40.557Z</time>
      </trkpt>
      <trkpt lat="65.18125" lon="12.12378">
        <ele>18.331229</ele>
        <time>2020-07-16T06:54:42.007Z</time>
      </trkpt>
      <trkpt lat="65.1814" lon="12.1239">
        <ele>18.216351</ele>
        <time>2020-07-16T06:54:44.458Z</time>
      </trkpt>
      <trkpt lat="65.18181" lon="12.12417">
        <ele>17.853586</ele>
        <time>2020-07-16T06:54:51.120Z</time>
      </trkpt>
      <trkpt lat="65.18232" lon="12.12434">
        <ele>17.410662</ele>
        <time>2020-07-16T06:54:59.279Z</time>
      </trkpt>
      <trkpt lat="65.18305" lon="12.12421">
        <ele>16.784498</ele>
        <time>2020-07-16T06:55:11.284Z</time>
      </trkpt>
      <trkpt lat="65.18312" lon="12.12418">
        <ele>16.646827</ele>
        <time>2020-07-16T06:55:12.396Z</time>
      </trkpt>
      <trkpt lat="65.18319" lon="12.12414">
        <ele>16.485618</ele>
        <time>2020-07-16T06:55:13.513Z</time>
      </trkpt>
      <trkpt lat="65.18334" lon="12.12405">
        <ele>16.162225</ele>
        <time>2020-07-16T06:55:15.933Z</time>
      </trkpt>
      <trkpt lat="65.18353" lon="12.12389">
        <ele>15.746163</ele>
        <time>2020-07-16T06:55:18.843Z</time>
      </trkpt>
      <trkpt lat="65.1837" lon="12.12369">
        <ele>15.340756</ele>
        <time>2020-07-16T06:55:21.763Z</time>
      </trkpt>
      <trkpt lat="65.18386" lon="12.12347">
        <ele>14.956384</ele>
        <time>2020-07-16T06:55:24.369Z</time>
      </trkpt>
      <trkpt lat="65.18402" lon="12.12317">
        <ele>14.532046</ele>
        <time>2020-07-16T06:55:27.269Z</time>
      </trkpt>
      <trkpt lat="65.18415" lon="12.12283">
        <ele>14.12433</ele>
        <time>2020-07-16T06:55:30.022Z</time>
      </trkpt>
      <trkpt lat="65.18423" lon="12.12257">
        <ele>13.830725</ele>
        <time>2020-07-16T06:55:32.009Z</time>
      </trkpt>
      <trkpt lat="65.1843" lon="12.12231">
        <ele>13.566368</ele>
        <time>2020-07-16T06:55:33.584Z</time>
      </trkpt>
      <trkpt lat="65.18443" lon="12.12157">
        <ele>12.701543</ele>
        <time>2020-07-16T06:55:37.858Z</time>
      </trkpt>
      <trkpt lat="65.18449" lon="12.12078">
        <ele>11.267867</ele>
        <time>2020-07-16T06:55:42.024Z</time>
      </trkpt>
      <trkpt lat="65.18447" lon="12.12002">
        <ele>9.900515</ele>
        <time>2020-07-16T06:55:45.963Z</time>
      </trkpt>
      <trkpt lat="65.1844" lon="12.11927">
        <ele>8.51562</ele>
        <time>2020-07-16T06:55:49.934Z</time>
      </trkpt>
      <trkpt lat="65.18435" lon="12.11894">
        <ele>7.896066</ele>
        <time>2020-07-16T06:55:51.625Z</time>
      </trkpt>
      <trkpt lat="65.18418" lon="12.11779">
        <ele>5.69737</ele>
        <time>2020-07-16T06:55:58.100Z</time>
      </trkpt>
      <trkpt lat="65.18404" lon="12.11692">
        <ele>4.532117</ele>
        <time>2020-07-16T06:56:03.080Z</time>
      </trkpt>
      <trkpt lat="65.18389" lon="12.11597">
        <ele>3.423571</ele>
        <time>2020-07-16T06:56:08.559Z</time>
      </trkpt>
      <trkpt lat="65.18386" lon="12.1158">
        <ele>3.220497</ele>
        <time>2020-07-16T06:56:09.542Z</time>
      </trkpt>
      <trkpt lat="65.18382" lon="12.1156">
        <ele>2.975893</ele>
        <time>2020-07-16T06:56:10.769Z</time>
      </trkpt>
      <trkpt lat="65.18378" lon="12.1154">
        <ele>2.738242</ele>
        <time>2020-07-16T06:56:11.980Z</time>
      </trkpt>
      <trkpt lat="65.18371" lon="12.11512">
        <ele>2.375245</ele>
        <time>2020-07-16T06:56:13.926Z</time>
      </trkpt>
      <trkpt lat="65.18347" lon="12.11437">
        <ele>1.339032</ele>
        <time>2020-07-16T06:56:19.665Z</time>
      </trkpt>
      <trkpt lat="65.18304" lon="12.11353">
        <ele>0.541891</ele>
        <time>2020-07-16T06:56:28.339Z</time>
      </trkpt>
      <trkpt lat="65.183" lon="12.11347">
        <ele>0.52787</ele>
        <time>2020-07-16T06:56:29.142Z</time>
      </trkpt>
      <trkpt lat="65.18295" lon="12.11342">
        <ele>0.51398</ele>
        <time>2020-07-16T06:56:29.937Z</time>
      </trkpt>
      <trkpt lat="65.18289" lon="12.11333">
        <ele>0.493701</ele>
        <time>2020-07-16T06:56:31.110Z</time>
      </trkpt>
      <trkpt lat="65.18278" lon="12.11324">
        <ele>0.458548</ele>
        <time>2020-07-16T06:56:33.132Z</time>
      </trkpt>
      <trkpt lat="65.18274" lon="12.11321">
        <ele>0.448065</ele>
        <time>2020-07-16T06:56:33.735Z</time>
      </trkpt>
      <trkpt lat="65.18267" lon="12.1132">
        <ele>0.425011</ele>
        <time>2020-07-16T06:56:35.110Z</time>
      </trkpt>
      <trkpt lat="65.18246" lon="12.11325">
        <ele>0.364139</ele>
        <time>2020-07-16T06:56:38.015Z</time>
      </trkpt>
      <trkpt lat="65.182" lon="12.11336">
        <ele>0.229331</ele>
        <time>2020-07-16T06:56:44.470Z</time>
      </trkpt>
      <trkpt lat="65.18139" lon="12.11303">
        <ele>0.098693</ele>
        <time>2020-07-16T06:56:53.106Z</time>
      </trkpt>
      <trkpt lat="65.1809" lon="12.11202">
        <ele>0.09384</ele>
        <time>2020-07-16T06:57:02.193Z</time>
      </trkpt>
      <trkpt lat="65.18044" lon="12.11079">
        <ele>0.088713</ele>
        <time>2020-07-16T06:57:11.810Z</time>
      </trkpt>
      <trkpt lat="65.18024" lon="12.10931">
        <ele>0.068575</ele>
        <time>2020-07-16T06:57:20.968Z</time>
      </trkpt>
      <trkpt lat="65.1802" lon="12.10795">
        <ele>0.041119</ele>
        <time>2020-07-16T06:57:28.933Z</time>
      </trkpt>
      <trkpt lat="65.18029" lon="12.10651">
        <ele>0.011629</ele>
        <time>2020-07-16T06:57:37.489Z</time>
      </trkpt>
      <trkpt lat="65.1806" lon="12.10427">
        <ele>6.2E-5</ele>
        <time>2020-07-16T06:57:51.268Z</time>
      </trkpt>
      <trkpt lat="65.18123" lon="12.10125">
        <time>2020-07-16T06:58:10.981Z</time>
      </trkpt>
      <trkpt lat="65.18228" lon="12.09799">
        <time>2020-07-16T06:58:35.086Z</time>
      </trkpt>
      <trkpt lat="65.20031" lon="12.06071">
        <time>2020-07-16T07:04:07.844Z</time>
      </trkpt>
      <trkpt lat="65.20798" lon="12.04728">
        <time>2020-07-16T07:06:20.547Z</time>
      </trkpt>
      <trkpt lat="65.20992" lon="12.04525">
        <ele>0.015428</ele>
        <time>2020-07-16T07:06:50.075Z</time>
      </trkpt>
      <trkpt lat="65.21343" lon="12.0419">
        <ele>0.213661</ele>
        <time>2020-07-16T07:07:42.799Z</time>
      </trkpt>
      <trkpt lat="65.21429" lon="12.04125">
        <ele>0.464453</ele>
        <time>2020-07-16T07:07:55.450Z</time>
      </trkpt>
      <trkpt lat="65.21507" lon="12.04093">
        <ele>0.682916</ele>
        <time>2020-07-16T07:08:06.474Z</time>
      </trkpt>
      <trkpt lat="65.21601" lon="12.04073">
        <ele>2.11073</ele>
        <time>2020-07-16T07:08:19.559Z</time>
      </trkpt>
      <trkpt lat="65.21613" lon="12.04071">
        <ele>2.317457</ele>
        <time>2020-07-16T07:08:22.610Z</time>
      </trkpt>
      <trkpt lat="65.21626" lon="12.04073">
        <ele>2.537444</ele>
        <time>2020-07-16T07:08:26.086Z</time>
      </trkpt>
      <trkpt lat="65.21632" lon="12.04099">
        <ele>2.739586</ele>
        <time>2020-07-16T07:08:28.847Z</time>
      </trkpt>
      <trkpt lat="65.21613" lon="12.04175">
        <ele>3.357852</ele>
        <time>2020-07-16T07:08:38.366Z</time>
      </trkpt>
      <trkpt lat="65.2161" lon="12.04191">
        <ele>3.480672</ele>
        <time>2020-07-16T07:08:40.282Z</time>
      </trkpt>
      <trkpt lat="65.21609" lon="12.04209">
        <ele>3.604657</ele>
        <time>2020-07-16T07:08:42.659Z</time>
      </trkpt>
      <trkpt lat="65.2161" lon="12.04251">
        <ele>4.086405</ele>
        <time>2020-07-16T07:08:47.277Z</time>
      </trkpt>
      <trkpt lat="65.2161" lon="12.04259">
        <ele>4.19965</ele>
        <time>2020-07-16T07:08:48.234Z</time>
      </trkpt>
      <trkpt lat="65.21612" lon="12.04289">
        <ele>4.608629</ele>
        <time>2020-07-16T07:08:52.087Z</time>
      </trkpt>
      <trkpt lat="65.21625" lon="12.04357">
        <ele>5.626546</ele>
        <time>2020-07-16T07:09:00.761Z</time>
      </trkpt>
      <trkpt lat="65.21632" lon="12.04379">
        <ele>5.989017</ele>
        <time>2020-07-16T07:09:04.370Z</time>
      </trkpt>
      <trkpt lat="65.21642" lon="12.04402">
        <ele>6.448284</ele>
        <time>2020-07-16T07:09:08.050Z</time>
      </trkpt>
      <trkpt lat="65.21653" lon="12.04422">
        <ele>6.894571</ele>
        <time>2020-07-16T07:09:12.272Z</time>
      </trkpt>
      <trkpt lat="65.2168" lon="12.04459">
        <ele>7.922455</ele>
        <time>2020-07-16T07:09:21.216Z</time>
      </trkpt>
      <trkpt lat="65.21719" lon="12.04507">
        <ele>9.327487</ele>
        <time>2020-07-16T07:09:34.176Z</time>
      </trkpt>
      <trkpt lat="65.21734" lon="12.04529">
        <ele>9.748967</ele>
        <time>2020-07-16T07:09:38.969Z</time>
      </trkpt>
      <trkpt lat="65.21748" lon="12.04551">
        <ele>10.066285</ele>
        <time>2020-07-16T07:09:43.496Z</time>
      </trkpt>
      <trkpt lat="65.21775" lon="12.04604">
        <ele>10.714691</ele>
        <time>2020-07-16T07:09:52.987Z</time>
      </trkpt>
      <trkpt lat="65.21796" lon="12.04668">
        <ele>11.348716</ele>
        <time>2020-07-16T07:10:01.419Z</time>
      </trkpt>
      <trkpt lat="65.21833" lon="12.04835">
        <ele>12.829888</ele>
        <time>2020-07-16T07:10:18.185Z</time>
      </trkpt>
      <trkpt lat="65.21837" lon="12.04851">
        <ele>12.862011</ele>
        <time>2020-07-16T07:10:19.686Z</time>
      </trkpt>
      <trkpt lat="65.21845" lon="12.04882">
        <ele>12.738623</ele>
        <time>2020-07-16T07:10:22.676Z</time>
      </trkpt>
      <trkpt lat="65.21874" lon="12.04972">
        <ele>12.35872</ele>
        <time>2020-07-16T07:10:30.810Z</time>
      </trkpt>
      <trkpt lat="65.21909" lon="12.05028">
        <ele>12.019776</ele>
        <time>2020-07-16T07:10:37.752Z</time>
      </trkpt>
      <trkpt lat="65.21959" lon="12.05077">
        <ele>11.587212</ele>
        <time>2020-07-16T07:10:45.818Z</time>
      </trkpt>
      <trkpt lat="65.22043" lon="12.05127">
        <ele>9.901077</ele>
        <time>2020-07-16T07:10:57.359Z</time>
      </trkpt>
      <trkpt lat="65.22064" lon="12.0516">
        <ele>9.346083</ele>
        <time>2020-07-16T07:11:00.889Z</time>
      </trkpt>
      <trkpt lat="65.22068" lon="12.05172">
        <ele>9.192414</ele>
        <time>2020-07-16T07:11:01.713Z</time>
      </trkpt>
      <trkpt lat="65.22073" lon="12.05188">
        <ele>8.999098</ele>
        <time>2020-07-16T07:11:03.055Z</time>
      </trkpt>
      <trkpt lat="65.22076" lon="12.052">
        <ele>8.878798</ele>
        <time>2020-07-16T07:11:03.795Z</time>
      </trkpt>
      <trkpt lat="65.22085" lon="12.05266">
        <ele>8.222673</ele>
        <time>2020-07-16T07:11:07.860Z</time>
      </trkpt>
      <trkpt lat="65.22088" lon="12.05296">
        <ele>7.936165</ele>
        <time>2020-07-16T07:11:09.713Z</time>
      </trkpt>
      <trkpt lat="65.22089" lon="12.05309">
        <ele>7.81424</ele>
        <time>2020-07-16T07:11:10.479Z</time>
      </trkpt>
      <trkpt lat="65.22105" lon="12.05546">
        <ele>6.582579</ele>
        <time>2020-07-16T07:11:24.943Z</time>
      </trkpt>
      <trkpt lat="65.22126" lon="12.05758">
        <ele>5.648041</ele>
        <time>2020-07-16T07:11:39.983Z</time>
      </trkpt>
      <trkpt lat="65.22141" lon="12.05898">
        <ele>6.380954</ele>
        <time>2020-07-16T07:11:51.041Z</time>
      </trkpt>
      <trkpt lat="65.22168" lon="12.06153">
        <ele>7.913842</ele>
        <time>2020-07-16T07:12:16.684Z</time>
      </trkpt>
      <trkpt lat="65.22171" lon="12.06166">
        <ele>7.997212</ele>
        <time>2020-07-16T07:12:18.255Z</time>
      </trkpt>
      <trkpt lat="65.22179" lon="12.06217">
        <ele>8.720804</ele>
        <time>2020-07-16T07:12:24.774Z</time>
      </trkpt>
      <trkpt lat="65.22213" lon="12.06353">
        <ele>11.41203</ele>
        <time>2020-07-16T07:12:44.080Z</time>
      </trkpt>
      <trkpt lat="65.22217" lon="12.06366">
        <ele>11.699103</ele>
        <time>2020-07-16T07:12:46.654Z</time>
      </trkpt>
      <trkpt lat="65.22231" lon="12.06405">
        <ele>12.547325</ele>
        <time>2020-07-16T07:12:53.175Z</time>
      </trkpt>
      <trkpt lat="65.22265" lon="12.06489">
        <ele>14.560316</ele>
        <time>2020-07-16T07:13:09.572Z</time>
      </trkpt>
      <trkpt lat="65.2228" lon="12.06508">
        <ele>15.259803</ele>
        <time>2020-07-16T07:13:15.473Z</time>
      </trkpt>
      <trkpt lat="65.22337" lon="12.0653">
        <ele>18.141422</ele>
        <time>2020-07-16T07:13:35.552Z</time>
      </trkpt>
      <trkpt lat="65.22409" lon="12.06545">
        <ele>21.853475</ele>
        <time>2020-07-16T07:14:00.342Z</time>
      </trkpt>
      <trkpt lat="65.22425" lon="12.06552">
        <ele>22.652878</ele>
        <time>2020-07-16T07:14:05.916Z</time>
      </trkpt>
      <trkpt lat="65.22441" lon="12.06562">
        <ele>23.539633</ele>
        <time>2020-07-16T07:14:11.857Z</time>
      </trkpt>
      <trkpt lat="65.22459" lon="12.0658">
        <ele>24.506036</ele>
        <time>2020-07-16T07:14:18.262Z</time>
      </trkpt>
      <trkpt lat="65.22472" lon="12.06597">
        <ele>25.102324</ele>
        <time>2020-07-16T07:14:23.366Z</time>
      </trkpt>
      <trkpt lat="65.22527" lon="12.06701">
        <ele>27.783135</ele>
        <time>2020-07-16T07:14:45.961Z</time>
      </trkpt>
      <trkpt lat="65.22549" lon="12.06743">
        <ele>28.867651</ele>
        <time>2020-07-16T07:14:54.768Z</time>
      </trkpt>
      <trkpt lat="65.22569" lon="12.06779">
        <ele>29.82368</ele>
        <time>2020-07-16T07:15:01.808Z</time>
      </trkpt>
      <trkpt lat="65.22718" lon="12.07106">
        <ele>35.007377</ele>
        <time>2020-07-16T07:15:53.584Z</time>
      </trkpt>
      <trkpt lat="65.22741" lon="12.07162">
        <ele>35.396617</ele>
        <time>2020-07-16T07:16:01.088Z</time>
      </trkpt>
      <trkpt lat="65.22798" lon="12.07302">
        <ele>34.91846</ele>
        <time>2020-07-16T07:16:17.630Z</time>
      </trkpt>
      <trkpt lat="65.22805" lon="12.07318">
        <ele>34.861256</ele>
        <time>2020-07-16T07:16:19.211Z</time>
      </trkpt>
      <trkpt lat="65.22863" lon="12.07483">
        <ele>33.721929</ele>
        <time>2020-07-16T07:16:31.888Z</time>
      </trkpt>
      <trkpt lat="65.22882" lon="12.07526">
        <ele>32.358803</ele>
        <time>2020-07-16T07:16:35.199Z</time>
      </trkpt>
      <trkpt lat="65.23014" lon="12.07634">
        <ele>25.222371</ele>
        <time>2020-07-16T07:16:51.534Z</time>
      </trkpt>
      <trkpt lat="65.23045" lon="12.07682">
        <ele>23.910395</ele>
        <time>2020-07-16T07:16:56.002Z</time>
      </trkpt>
      <trkpt lat="65.23062" lon="12.07734">
        <ele>22.957776</ele>
        <time>2020-07-16T07:16:59.337Z</time>
      </trkpt>
      <trkpt lat="65.23072" lon="12.0781">
        <ele>21.77644</ele>
        <time>2020-07-16T07:17:03.569Z</time>
      </trkpt>
      <trkpt lat="65.23091" lon="12.08082">
        <ele>19.280299</ele>
        <time>2020-07-16T07:17:19.897Z</time>
      </trkpt>
      <trkpt lat="65.23094" lon="12.08135">
        <ele>19.530954</ele>
        <time>2020-07-16T07:17:23.997Z</time>
      </trkpt>
      <trkpt lat="65.23113" lon="12.08415">
        <ele>20.859986</ele>
        <time>2020-07-16T07:17:52.446Z</time>
      </trkpt>
      <trkpt lat="65.23123" lon="12.08556">
        <ele>22.915861</ele>
        <time>2020-07-16T07:18:10.702Z</time>
      </trkpt>
      <trkpt lat="65.23134" lon="12.0864">
        <ele>24.271985</ele>
        <time>2020-07-16T07:18:22.056Z</time>
      </trkpt>
      <trkpt lat="65.23143" lon="12.08677">
        <ele>24.941042</ele>
        <time>2020-07-16T07:18:26.988Z</time>
      </trkpt>
      <trkpt lat="65.23147" lon="12.08692">
        <ele>25.214331</ele>
        <time>2020-07-16T07:18:29.879Z</time>
      </trkpt>
      <trkpt lat="65.23152" lon="12.08706">
        <ele>25.476728</ele>
        <time>2020-07-16T07:18:32.437Z</time>
      </trkpt>
      <trkpt lat="65.23176" lon="12.08785">
        <ele>26.997807</ele>
        <time>2020-07-16T07:18:45.522Z</time>
      </trkpt>
      <trkpt lat="65.23225" lon="12.08982">
        <ele>28.70607</ele>
        <time>2020-07-16T07:19:11.766Z</time>
      </trkpt>
      <trkpt lat="65.23251" lon="12.09057">
        <ele>29.296733</ele>
        <time>2020-07-16T07:19:20.179Z</time>
      </trkpt>
      <trkpt lat="65.23266" lon="12.09089">
        <ele>29.58862</ele>
        <time>2020-07-16T07:19:24.267Z</time>
      </trkpt>
      <trkpt lat="65.23286" lon="12.09128">
        <ele>29.969492</ele>
        <time>2020-07-16T07:19:28.464Z</time>
      </trkpt>
      <trkpt lat="65.23351" lon="12.09235">
        <ele>28.618725</ele>
        <time>2020-07-16T07:19:40.230Z</time>
      </trkpt>
      <trkpt lat="65.23416" lon="12.09319">
        <ele>26.939776</ele>
        <time>2020-07-16T07:19:50.146Z</time>
      </trkpt>
      <trkpt lat="65.23426" lon="12.09331">
        <ele>26.683014</ele>
        <time>2020-07-16T07:19:51.580Z</time>
      </trkpt>
      <trkpt lat="65.23439" lon="12.09352">
        <ele>26.335075</ele>
        <time>2020-07-16T07:19:53.633Z</time>
      </trkpt>
      <trkpt lat="65.23447" lon="12.09369">
        <ele>26.086113</ele>
        <time>2020-07-16T07:19:55.112Z</time>
      </trkpt>
      <trkpt lat="65.23455" lon="12.09388">
        <ele>25.663301</ele>
        <time>2020-07-16T07:19:56.551Z</time>
      </trkpt>
      <trkpt lat="65.23465" lon="12.0941">
        <ele>25.153703</ele>
        <time>2020-07-16T07:19:58.301Z</time>
      </trkpt>
      <trkpt lat="65.23492" lon="12.0949">
        <ele>23.505975</ele>
        <time>2020-07-16T07:20:03.886Z</time>
      </trkpt>
      <trkpt lat="65.23512" lon="12.09571">
        <ele>22.005069</ele>
        <time>2020-07-16T07:20:08.887Z</time>
      </trkpt>
      <trkpt lat="65.23569" lon="12.09947">
        <ele>15.447646</ele>
        <time>2020-07-16T07:20:29.663Z</time>
      </trkpt>
      <trkpt lat="65.23574" lon="12.10014">
        <ele>14.300012</ele>
        <time>2020-07-16T07:20:33.273Z</time>
      </trkpt>
      <trkpt lat="65.23581" lon="12.10123">
        <ele>12.458347</ele>
        <time>2020-07-16T07:20:39.264Z</time>
      </trkpt>
      <trkpt lat="65.23589" lon="12.10205">
        <ele>11.561551</ele>
        <time>2020-07-16T07:20:43.804Z</time>
      </trkpt>
      <trkpt lat="65.23596" lon="12.10236">
        <ele>11.278752</ele>
        <time>2020-07-16T07:20:45.768Z</time>
      </trkpt>
      <trkpt lat="65.23613" lon="12.10273">
        <ele>10.839568</ele>
        <time>2020-07-16T07:20:48.834Z</time>
      </trkpt>
      <trkpt lat="65.23644" lon="12.1031">
        <ele>10.188111</ele>
        <time>2020-07-16T07:20:53.581Z</time>
      </trkpt>
      <trkpt lat="65.23701" lon="12.10351">
        <ele>9.053186</ele>
        <time>2020-07-16T07:21:03.033Z</time>
      </trkpt>
      <trkpt lat="65.23711" lon="12.10357">
        <ele>8.859699</ele>
        <time>2020-07-16T07:21:04.548Z</time>
      </trkpt>
      <trkpt lat="65.23715" lon="12.10359">
        <ele>8.770065</ele>
        <time>2020-07-16T07:21:05.271Z</time>
      </trkpt>
      <trkpt lat="65.23754" lon="12.10401">
        <ele>8.599965</ele>
        <time>2020-07-16T07:21:12.257Z</time>
      </trkpt>
      <trkpt lat="65.23787" lon="12.10478">
        <ele>8.599917</ele>
        <time>2020-07-16T07:21:20.515Z</time>
      </trkpt>
      <trkpt lat="65.23811" lon="12.10573">
        <ele>8.599869</ele>
        <time>2020-07-16T07:21:28.847Z</time>
      </trkpt>
      <trkpt lat="65.23838" lon="12.10735">
        <ele>8.699219</ele>
        <time>2020-07-16T07:21:43.036Z</time>
      </trkpt>
      <trkpt lat="65.23849" lon="12.10829">
        <ele>8.908463</ele>
        <time>2020-07-16T07:21:50.994Z</time>
      </trkpt>
      <trkpt lat="65.23853" lon="12.10827">
        <ele>8.928447</ele>
        <time>2020-07-16T07:21:52.165Z</time>
      </trkpt>
      <trkpt lat="65.23857" lon="12.10825">
        <ele>8.952572</ele>
        <time>2020-07-16T07:21:53.588Z</time>
      </trkpt>
      <trkpt lat="65.23862" lon="12.10875">
        <ele>9.062848</ele>
        <time>2020-07-16T07:21:58.094Z</time>
      </trkpt>
      <trkpt lat="65.23878" lon="12.111">
        <ele>9.598211</ele>
        <time>2020-07-16T07:22:17.497Z</time>
      </trkpt>
      <trkpt lat="65.23881" lon="12.11177">
        <ele>9.999855</ele>
        <time>2020-07-16T07:22:23.985Z</time>
      </trkpt>
      <trkpt lat="65.23874" lon="12.11177">
        <ele>10.086119</ele>
        <time>2020-07-16T07:22:25.703Z</time>
      </trkpt>
      <trkpt lat="65.23874" lon="12.11191">
        <ele>10.163455</ele>
        <time>2020-07-16T07:22:27.363Z</time>
      </trkpt>
      <trkpt lat="65.23876" lon="12.11337">
        <ele>10.926339</ele>
        <time>2020-07-16T07:22:39.928Z</time>
      </trkpt>
      <trkpt lat="65.23876" lon="12.11349">
        <ele>10.987654</ele>
        <time>2020-07-16T07:22:41.027Z</time>
      </trkpt>
      <trkpt lat="65.23881" lon="12.11415">
        <ele>11.340619</ele>
        <time>2020-07-16T07:22:47.544Z</time>
      </trkpt>
      <trkpt lat="65.23891" lon="12.11466">
        <ele>11.630915</ele>
        <time>2020-07-16T07:22:53.340Z</time>
      </trkpt>
      <trkpt lat="65.23906" lon="12.1151">
        <ele>11.998101</ele>
        <time>2020-07-16T07:22:59.096Z</time>
      </trkpt>
      <trkpt lat="65.23907" lon="12.11513">
        <ele>12.029853</ele>
        <time>2020-07-16T07:22:59.874Z</time>
      </trkpt>
      <trkpt lat="65.23911" lon="12.1152">
        <ele>12.113278</ele>
        <time>2020-07-16T07:23:01.108Z</time>
      </trkpt>
      <trkpt lat="65.23921" lon="12.11539">
        <ele>12.342364</ele>
        <time>2020-07-16T07:23:04.172Z</time>
      </trkpt>
      <trkpt lat="65.23947" lon="12.11584">
        <ele>12.893159</ele>
        <time>2020-07-16T07:23:12.164Z</time>
      </trkpt>
      <trkpt lat="65.24054" lon="12.11772">
        <ele>14.891857</ele>
        <time>2020-07-16T07:23:43.449Z</time>
      </trkpt>
      <trkpt lat="65.24164" lon="12.11968">
        <ele>14.593005</ele>
        <time>2020-07-16T07:24:07.321Z</time>
      </trkpt>
      <trkpt lat="65.24232" lon="12.12075">
        <ele>13.045737</ele>
        <time>2020-07-16T07:24:18.847Z</time>
      </trkpt>
      <trkpt lat="65.24238" lon="12.12084">
        <ele>12.863865</ele>
        <time>2020-07-16T07:24:19.786Z</time>
      </trkpt>
      <trkpt lat="65.24242" lon="12.1209">
        <ele>12.727994</ele>
        <time>2020-07-16T07:24:20.515Z</time>
      </trkpt>
      <trkpt lat="65.24255" lon="12.12104">
        <ele>12.35158</ele>
        <time>2020-07-16T07:24:22.365Z</time>
      </trkpt>
      <trkpt lat="65.24333" lon="12.12195">
        <ele>10.062622</ele>
        <time>2020-07-16T07:24:33.679Z</time>
      </trkpt>
      <trkpt lat="65.24384" lon="12.12225">
        <ele>8.768088</ele>
        <time>2020-07-16T07:24:40.564Z</time>
      </trkpt>
      <trkpt lat="65.24402" lon="12.1223">
        <ele>8.34653</ele>
        <time>2020-07-16T07:24:42.875Z</time>
      </trkpt>
      <trkpt lat="65.2442" lon="12.12234">
        <ele>7.906291</ele>
        <time>2020-07-16T07:24:45.418Z</time>
      </trkpt>
      <trkpt lat="65.24565" lon="12.12254">
        <ele>5.275913</ele>
        <time>2020-07-16T07:25:05.853Z</time>
      </trkpt>
      <trkpt lat="65.24599" lon="12.1226">
        <ele>5.122987</ele>
        <time>2020-07-16T07:25:11.566Z</time>
      </trkpt>
      <trkpt lat="65.24743" lon="12.12283">
        <ele>4.904892</ele>
        <time>2020-07-16T07:25:38.307Z</time>
      </trkpt>
      <trkpt lat="65.24826" lon="12.12278">
        <ele>5.390525</ele>
        <time>2020-07-16T07:25:55.520Z</time>
      </trkpt>
      <trkpt lat="65.24844" lon="12.12272">
        <ele>5.499527</ele>
        <time>2020-07-16T07:25:59.355Z</time>
      </trkpt>
      <trkpt lat="65.24866" lon="12.12263">
        <ele>5.627659</ele>
        <time>2020-07-16T07:26:03.615Z</time>
      </trkpt>
      <trkpt lat="65.24943" lon="12.12225">
        <ele>5.607602</ele>
        <time>2020-07-16T07:26:18.600Z</time>
      </trkpt>
      <trkpt lat="65.24952" lon="12.12221">
        <ele>5.593078</ele>
        <time>2020-07-16T07:26:20.192Z</time>
      </trkpt>
      <trkpt lat="65.24981" lon="12.12206">
        <ele>5.543905</ele>
        <time>2020-07-16T07:26:25.227Z</time>
      </trkpt>
      <trkpt lat="65.25029" lon="12.12195">
        <ele>5.463639</ele>
        <time>2020-07-16T07:26:33.178Z</time>
      </trkpt>
      <trkpt lat="65.2508" lon="12.12218">
        <ele>5.227066</ele>
        <time>2020-07-16T07:26:41.482Z</time>
      </trkpt>
      <trkpt lat="65.25091" lon="12.12227">
        <ele>5.138515</ele>
        <time>2020-07-16T07:26:43.201Z</time>
      </trkpt>
      <trkpt lat="65.25111" lon="12.12242">
        <ele>4.965645</ele>
        <time>2020-07-16T07:26:46.538Z</time>
      </trkpt>
      <trkpt lat="65.25151" lon="12.12287">
        <ele>4.612502</ele>
        <time>2020-07-16T07:26:53.343Z</time>
      </trkpt>
      <trkpt lat="65.25277" lon="12.12468">
        <ele>3.909343</ele>
        <time>2020-07-16T07:27:17.058Z</time>
      </trkpt>
      <trkpt lat="65.25295" lon="12.12493">
        <ele>3.891689</ele>
        <time>2020-07-16T07:27:20.662Z</time>
      </trkpt>
      <trkpt lat="65.25313" lon="12.12515">
        <ele>3.874669</ele>
        <time>2020-07-16T07:27:24.219Z</time>
      </trkpt>
      <trkpt lat="65.25487" lon="12.12675">
        <ele>4.189922</ele>
        <time>2020-07-16T07:28:00.027Z</time>
      </trkpt>
      <trkpt lat="65.25507" lon="12.12713">
        <ele>4.273426</ele>
        <time>2020-07-16T07:28:04.786Z</time>
      </trkpt>
      <trkpt lat="65.25527" lon="12.12798">
        <ele>4.401776</ele>
        <time>2020-07-16T07:28:12.526Z</time>
      </trkpt>
      <trkpt lat="65.25529" lon="12.12815">
        <ele>4.377189</ele>
        <time>2020-07-16T07:28:14.103Z</time>
      </trkpt>
      <trkpt lat="65.25538" lon="12.12882">
        <ele>4.277709</ele>
        <time>2020-07-16T07:28:19.229Z</time>
      </trkpt>
      <trkpt lat="65.25613" lon="12.13532">
        <ele>3.195566</ele>
        <time>2020-07-16T07:29:05.849Z</time>
      </trkpt>
      <trkpt lat="65.25627" lon="12.13621">
        <ele>3.026729</ele>
        <time>2020-07-16T07:29:12.411Z</time>
      </trkpt>
      <trkpt lat="65.25658" lon="12.13722">
        <ele>3.309383</ele>
        <time>2020-07-16T07:29:21.795Z</time>
      </trkpt>
      <trkpt lat="65.25682" lon="12.13765">
        <ele>3.468808</ele>
        <time>2020-07-16T07:29:27.346Z</time>
      </trkpt>
      <trkpt lat="65.2571" lon="12.13795">
        <ele>3.637186</ele>
        <time>2020-07-16T07:29:33.436Z</time>
      </trkpt>
      <trkpt lat="65.25749" lon="12.13828">
        <ele>3.86075</ele>
        <time>2020-07-16T07:29:41.910Z</time>
      </trkpt>
      <trkpt lat="65.25775" lon="12.1385">
        <ele>4.032882</ele>
        <time>2020-07-16T07:29:47.858Z</time>
      </trkpt>
      <trkpt lat="65.25854" lon="12.13922">
        <ele>5.427855</ele>
        <time>2020-07-16T07:30:07.443Z</time>
      </trkpt>
      <trkpt lat="65.25913" lon="12.13982">
        <ele>6.487211</ele>
        <time>2020-07-16T07:30:22.899Z</time>
      </trkpt>
      <trkpt lat="65.25956" lon="12.14029">
        <ele>7.254886</ele>
        <time>2020-07-16T07:30:33.908Z</time>
      </trkpt>
      <trkpt lat="65.25982" lon="12.14063">
        <ele>7.736474</ele>
        <time>2020-07-16T07:30:40.874Z</time>
      </trkpt>
      <trkpt lat="65.26245" lon="12.14418">
        <ele>12.664916</ele>
        <time>2020-07-16T07:31:49.838Z</time>
      </trkpt>
      <trkpt lat="65.26256" lon="12.14429">
        <ele>12.850896</ele>
        <time>2020-07-16T07:31:52.692Z</time>
      </trkpt>
      <trkpt lat="65.26267" lon="12.14441">
        <ele>13.039855</ele>
        <time>2020-07-16T07:31:55.982Z</time>
      </trkpt>
      <trkpt lat="65.26335" lon="12.14494">
        <ele>14.103039</ele>
        <time>2020-07-16T07:32:13.099Z</time>
      </trkpt>
      <trkpt lat="65.26397" lon="12.14516">
        <ele>15.037746</ele>
        <time>2020-07-16T07:32:27.344Z</time>
      </trkpt>
      <trkpt lat="65.26417" lon="12.14519">
        <ele>15.330654</ele>
        <time>2020-07-16T07:32:31.769Z</time>
      </trkpt>
      <trkpt lat="65.26519" lon="12.14532">
        <ele>15.354794</ele>
        <time>2020-07-16T07:32:50.585Z</time>
      </trkpt>
      <trkpt lat="65.26562" lon="12.14537">
        <ele>15.284617</ele>
        <time>2020-07-16T07:32:57.733Z</time>
      </trkpt>
      <trkpt lat="65.26653" lon="12.14548">
        <ele>14.769575</ele>
        <time>2020-07-16T07:33:11.776Z</time>
      </trkpt>
      <trkpt lat="65.26723" lon="12.14557">
        <ele>14.086001</ele>
        <time>2020-07-16T07:33:22.555Z</time>
      </trkpt>
      <trkpt lat="65.26747" lon="12.1456">
        <ele>13.845743</ele>
        <time>2020-07-16T07:33:26.367Z</time>
      </trkpt>
      <trkpt lat="65.26862" lon="12.14573">
        <ele>13.020284</ele>
        <time>2020-07-16T07:33:44.414Z</time>
      </trkpt>
      <trkpt lat="65.26919" lon="12.14577">
        <ele>12.69217</ele>
        <time>2020-07-16T07:33:53.757Z</time>
      </trkpt>
      <trkpt lat="65.26923" lon="12.14577">
        <ele>12.664254</ele>
        <time>2020-07-16T07:33:54.500Z</time>
      </trkpt>
      <trkpt lat="65.26943" lon="12.14577">
        <ele>12.550272</ele>
        <time>2020-07-16T07:33:57.862Z</time>
      </trkpt>
      <trkpt lat="65.26954" lon="12.14575">
        <ele>12.487402</ele>
        <time>2020-07-16T07:33:59.724Z</time>
      </trkpt>
      <trkpt lat="65.26969" lon="12.14573">
        <ele>12.413384</ele>
        <time>2020-07-16T07:34:02.344Z</time>
      </trkpt>
      <trkpt lat="65.26988" lon="12.1457">
        <ele>12.44583</ele>
        <time>2020-07-16T07:34:05.560Z</time>
      </trkpt>
      <trkpt lat="65.26997" lon="12.14567">
        <ele>12.462536</ele>
        <time>2020-07-16T07:34:07.109Z</time>
      </trkpt>
      <trkpt lat="65.27003" lon="12.14566">
        <ele>12.47296</ele>
        <time>2020-07-16T07:34:08.140Z</time>
      </trkpt>
      <trkpt lat="65.27032" lon="12.14559">
        <ele>12.525951</ele>
        <time>2020-07-16T07:34:13.355Z</time>
      </trkpt>
      <trkpt lat="65.27196" lon="12.1451">
        <ele>13.074231</ele>
        <time>2020-07-16T07:34:44.882Z</time>
      </trkpt>
      <trkpt lat="65.27252" lon="12.14515">
        <ele>13.453379</ele>
        <time>2020-07-16T07:34:56.216Z</time>
      </trkpt>
      <trkpt lat="65.2726" lon="12.14518">
        <ele>13.505985</ele>
        <time>2020-07-16T07:34:57.847Z</time>
      </trkpt>
      <trkpt lat="65.27274" lon="12.14523">
        <ele>13.599612</ele>
        <time>2020-07-16T07:35:00.716Z</time>
      </trkpt>
      <trkpt lat="65.273" lon="12.14534">
        <ele>13.780529</ele>
        <time>2020-07-16T07:35:06.156Z</time>
      </trkpt>
      <trkpt lat="65.27352" lon="12.1456">
        <ele>14.195467</ele>
        <time>2020-07-16T07:35:17.100Z</time>
      </trkpt>
      <trkpt lat="65.27367" lon="12.14568">
        <ele>14.332625</ele>
        <time>2020-07-16T07:35:20.380Z</time>
      </trkpt>
      <trkpt lat="65.27371" lon="12.1457">
        <ele>14.363</ele>
        <time>2020-07-16T07:35:21.117Z</time>
      </trkpt>
      <trkpt lat="65.27383" lon="12.14576">
        <ele>14.474579</ele>
        <time>2020-07-16T07:35:23.790Z</time>
      </trkpt>
      <trkpt lat="65.27451" lon="12.14612">
        <ele>15.080213</ele>
        <time>2020-07-16T07:35:38.249Z</time>
      </trkpt>
      <trkpt lat="65.27514" lon="12.14645">
        <ele>15.594553</ele>
        <time>2020-07-16T07:35:51.531Z</time>
      </trkpt>
      <trkpt lat="65.27661" lon="12.14725">
        <ele>16.42568</ele>
        <time>2020-07-16T07:36:21.322Z</time>
      </trkpt>
      <trkpt lat="65.27817" lon="12.14809">
        <ele>16.428147</ele>
        <time>2020-07-16T07:36:49.945Z</time>
      </trkpt>
      <trkpt lat="65.27865" lon="12.14834">
        <ele>16.331588</ele>
        <time>2020-07-16T07:36:58.201Z</time>
      </trkpt>
      <trkpt lat="65.27901" lon="12.1485">
        <ele>16.142489</ele>
        <time>2020-07-16T07:37:04.160Z</time>
      </trkpt>
      <trkpt lat="65.27906" lon="12.14852">
        <ele>16.115809</ele>
        <time>2020-07-16T07:37:04.988Z</time>
      </trkpt>
      <trkpt lat="65.27965" lon="12.14872">
        <ele>15.803521</ele>
        <time>2020-07-16T07:37:14.691Z</time>
      </trkpt>
      <trkpt lat="65.28048" lon="12.14903">
        <ele>15.398014</ele>
        <time>2020-07-16T07:37:28.220Z</time>
      </trkpt>
      <trkpt lat="65.28107" lon="12.14925">
        <ele>15.183767</ele>
        <time>2020-07-16T07:37:38.161Z</time>
      </trkpt>
      <trkpt lat="65.28148" lon="12.14943">
        <ele>15.036284</ele>
        <time>2020-07-16T07:37:45.224Z</time>
      </trkpt>
      <trkpt lat="65.28159" lon="12.14949">
        <ele>14.998068</ele>
        <time>2020-07-16T07:37:47.071Z</time>
      </trkpt>
      <trkpt lat="65.28173" lon="12.14957">
        <ele>14.94835</ele>
        <time>2020-07-16T07:37:49.475Z</time>
      </trkpt>
      <trkpt lat="65.28244" lon="12.15007">
        <ele>14.897524</ele>
        <time>2020-07-16T07:38:02.573Z</time>
      </trkpt>
      <trkpt lat="65.2827" lon="12.15026">
        <ele>14.941962</ele>
        <time>2020-07-16T07:38:07.524Z</time>
      </trkpt>
      <trkpt lat="65.28355" lon="12.15089">
        <ele>15.089093</ele>
        <time>2020-07-16T07:38:24.309Z</time>
      </trkpt>
      <trkpt lat="65.28638" lon="12.15293">
        <ele>16.361425</ele>
        <time>2020-07-16T07:39:20.967Z</time>
      </trkpt>
      <trkpt lat="65.28737" lon="12.15366">
        <ele>16.900198</ele>
        <time>2020-07-16T07:39:41.360Z</time>
      </trkpt>
      <trkpt lat="65.28805" lon="12.15415">
        <ele>17.320229</ele>
        <time>2020-07-16T07:39:55.443Z</time>
      </trkpt>
      <trkpt lat="65.28877" lon="12.15468">
        <ele>17.768831</ele>
        <time>2020-07-16T07:40:10.312Z</time>
      </trkpt>
      <trkpt lat="65.28986" lon="12.15547">
        <ele>18.313985</ele>
        <time>2020-07-16T07:40:32.656Z</time>
      </trkpt>
      <trkpt lat="65.29085" lon="12.15621">
        <ele>18.727373</ele>
        <time>2020-07-16T07:40:52.272Z</time>
      </trkpt>
      <trkpt lat="65.29132" lon="12.15654">
        <ele>18.805792</ele>
        <time>2020-07-16T07:41:01.365Z</time>
      </trkpt>
      <trkpt lat="65.29228" lon="12.15726">
        <ele>18.96784</ele>
        <time>2020-07-16T07:41:19.834Z</time>
      </trkpt>
      <trkpt lat="65.29452" lon="12.1589">
        <ele>18.989655</ele>
        <time>2020-07-16T07:42:01.530Z</time>
      </trkpt>
      <trkpt lat="65.29459" lon="12.15895">
        <ele>18.987935</ele>
        <time>2020-07-16T07:42:02.869Z</time>
      </trkpt>
      <trkpt lat="65.29559" lon="12.15968">
        <ele>18.963925</ele>
        <time>2020-07-16T07:42:21.530Z</time>
      </trkpt>
      <trkpt lat="65.29582" lon="12.15986">
        <ele>18.955701</ele>
        <time>2020-07-16T07:42:25.808Z</time>
      </trkpt>
      <trkpt lat="65.29683" lon="12.16059">
        <ele>18.756818</ele>
        <time>2020-07-16T07:42:44.109Z</time>
      </trkpt>
      <trkpt lat="65.29691" lon="12.16065">
        <ele>18.740275</ele>
        <time>2020-07-16T07:42:45.610Z</time>
      </trkpt>
      <trkpt lat="65.29901" lon="12.16198">
        <ele>18.205654</ele>
        <time>2020-07-16T07:43:22.491Z</time>
      </trkpt>
      <trkpt lat="65.29935" lon="12.16217">
        <ele>18.112605</ele>
        <time>2020-07-16T07:43:28.533Z</time>
      </trkpt>
      <trkpt lat="65.30104" lon="12.16324">
        <ele>17.675004</ele>
        <time>2020-07-16T07:43:58.528Z</time>
      </trkpt>
      <trkpt lat="65.30191" lon="12.16378">
        <ele>17.3833</ele>
        <time>2020-07-16T07:44:13.747Z</time>
      </trkpt>
      <trkpt lat="65.30226" lon="12.164">
        <ele>17.268613</ele>
        <time>2020-07-16T07:44:19.728Z</time>
      </trkpt>
      <trkpt lat="65.30292" lon="12.16441">
        <ele>17.059377</ele>
        <time>2020-07-16T07:44:31.219Z</time>
      </trkpt>
      <trkpt lat="65.30337" lon="12.1647">
        <ele>16.940059</ele>
        <time>2020-07-16T07:44:39.299Z</time>
      </trkpt>
      <trkpt lat="65.30389" lon="12.16504">
        <ele>16.805028</ele>
        <time>2020-07-16T07:44:48.521Z</time>
      </trkpt>
      <trkpt lat="65.30509" lon="12.16579">
        <ele>16.544444</ele>
        <time>2020-07-16T07:45:09.666Z</time>
      </trkpt>
      <trkpt lat="65.30547" lon="12.16602">
        <ele>16.47919</ele>
        <time>2020-07-16T07:45:16.298Z</time>
      </trkpt>
      <trkpt lat="65.30558" lon="12.1661">
        <ele>16.458937</ele>
        <time>2020-07-16T07:45:18.376Z</time>
      </trkpt>
      <trkpt lat="65.30652" lon="12.16669">
        <ele>16.507088</ele>
        <time>2020-07-16T07:45:35.560Z</time>
      </trkpt>
      <trkpt lat="65.30688" lon="12.16691">
        <ele>16.708637</ele>
        <time>2020-07-16T07:45:42.585Z</time>
      </trkpt>
      <trkpt lat="65.30695" lon="12.16694">
        <ele>16.743509</ele>
        <time>2020-07-16T07:45:43.871Z</time>
      </trkpt>
      <trkpt lat="65.30722" lon="12.16708">
        <ele>16.893732</ele>
        <time>2020-07-16T07:45:49.167Z</time>
      </trkpt>
      <trkpt lat="65.3073" lon="12.16711">
        <ele>16.935771</ele>
        <time>2020-07-16T07:45:50.793Z</time>
      </trkpt>
      <trkpt lat="65.30745" lon="12.16716">
        <ele>17.0217</ele>
        <time>2020-07-16T07:45:54.027Z</time>
      </trkpt>
      <trkpt lat="65.30767" lon="12.16722">
        <ele>17.140255</ele>
        <time>2020-07-16T07:45:58.490Z</time>
      </trkpt>
      <trkpt lat="65.30767" lon="12.16729">
        <ele>17.156977</ele>
        <time>2020-07-16T07:45:59.133Z</time>
      </trkpt>
      <trkpt lat="65.30767" lon="12.16741">
        <ele>17.18231</ele>
        <time>2020-07-16T07:46:00.197Z</time>
      </trkpt>
      <trkpt lat="65.3077" lon="12.16741">
        <ele>17.199562</ele>
        <time>2020-07-16T07:46:01.045Z</time>
      </trkpt>
      <trkpt lat="65.30784" lon="12.16743">
        <ele>17.274011</ele>
        <time>2020-07-16T07:46:03.837Z</time>
      </trkpt>
      <trkpt lat="65.30786" lon="12.16743">
        <ele>17.288554</ele>
        <time>2020-07-16T07:46:04.472Z</time>
      </trkpt>
      <trkpt lat="65.30813" lon="12.16744">
        <ele>17.607002</ele>
        <time>2020-07-16T07:46:10.462Z</time>
      </trkpt>
      <trkpt lat="65.30824" lon="12.16744">
        <ele>17.753114</ele>
        <time>2020-07-16T07:46:12.846Z</time>
      </trkpt>
      <trkpt lat="65.30835" lon="12.16744">
        <ele>17.903212</ele>
        <time>2020-07-16T07:46:15.402Z</time>
      </trkpt>
      <trkpt lat="65.30863" lon="12.16746">
        <ele>18.268614</ele>
        <time>2020-07-16T07:46:21.646Z</time>
      </trkpt>
      <trkpt lat="65.3087" lon="12.16746">
        <ele>18.360326</ele>
        <time>2020-07-16T07:46:23.237Z</time>
      </trkpt>
      <trkpt lat="65.30872" lon="12.16745">
        <ele>18.392225</ele>
        <time>2020-07-16T07:46:23.853Z</time>
      </trkpt>
      <trkpt lat="65.30909" lon="12.16747">
        <ele>18.886402</ele>
        <time>2020-07-16T07:46:32.513Z</time>
      </trkpt>
      <trkpt lat="65.30912" lon="12.16747">
        <ele>18.918325</ele>
        <time>2020-07-16T07:46:33.267Z</time>
      </trkpt>
      <trkpt lat="65.30986" lon="12.16749">
        <ele>19.818566</ele>
        <time>2020-07-16T07:46:50.349Z</time>
      </trkpt>
      <trkpt lat="65.31022" lon="12.16749">
        <ele>20.101371</ele>
        <time>2020-07-16T07:46:58.541Z</time>
      </trkpt>
      <trkpt lat="65.31025" lon="12.16749">
        <ele>20.124048</ele>
        <time>2020-07-16T07:46:59.178Z</time>
      </trkpt>
      <trkpt lat="65.31054" lon="12.16751">
        <ele>20.349128</ele>
        <time>2020-07-16T07:47:05.275Z</time>
      </trkpt>
      <trkpt lat="65.31113" lon="12.16751">
        <ele>20.815526</ele>
        <time>2020-07-16T07:47:17.812Z</time>
      </trkpt>
      <trkpt lat="65.31142" lon="12.16753">
        <ele>21.042122</ele>
        <time>2020-07-16T07:47:23.533Z</time>
      </trkpt>
      <trkpt lat="65.31164" lon="12.16753">
        <ele>21.010815</ele>
        <time>2020-07-16T07:47:27.814Z</time>
      </trkpt>
      <trkpt lat="65.31168" lon="12.16753">
        <ele>20.987425</ele>
        <time>2020-07-16T07:47:28.421Z</time>
      </trkpt>
      <trkpt lat="65.31191" lon="12.16753">
        <ele>20.816518</ele>
        <time>2020-07-16T07:47:32.785Z</time>
      </trkpt>
      <trkpt lat="65.31245" lon="12.16754">
        <ele>20.422119</ele>
        <time>2020-07-16T07:47:41.825Z</time>
      </trkpt>
      <trkpt lat="65.31248" lon="12.16754">
        <ele>20.402399</ele>
        <time>2020-07-16T07:47:42.265Z</time>
      </trkpt>
      <trkpt lat="65.31254" lon="12.16753">
        <ele>20.357113</ele>
        <time>2020-07-16T07:47:43.326Z</time>
      </trkpt>
      <trkpt lat="65.31257" lon="12.16754">
        <ele>20.336642</ele>
        <time>2020-07-16T07:47:43.740Z</time>
      </trkpt>
      <trkpt lat="65.31265" lon="12.16754">
        <ele>20.273074</ele>
        <time>2020-07-16T07:47:45.103Z</time>
      </trkpt>
      <trkpt lat="65.31341" lon="12.16786">
        <ele>19.616217</ele>
        <time>2020-07-16T07:47:57.164Z</time>
      </trkpt>
      <trkpt lat="65.3135" lon="12.16792">
        <ele>19.471593</ele>
        <time>2020-07-16T07:47:58.605Z</time>
      </trkpt>
      <trkpt lat="65.31354" lon="12.16794">
        <ele>19.412561</ele>
        <time>2020-07-16T07:47:59.200Z</time>
      </trkpt>
      <trkpt lat="65.31359" lon="12.16796">
        <ele>19.3316</ele>
        <time>2020-07-16T07:48:00.058Z</time>
      </trkpt>
      <trkpt lat="65.31362" lon="12.16795">
        <ele>19.294398</ele>
        <time>2020-07-16T07:48:00.422Z</time>
      </trkpt>
      <trkpt lat="65.31363" lon="12.16794">
        <ele>19.265365</ele>
        <time>2020-07-16T07:48:00.672Z</time>
      </trkpt>
      <trkpt lat="65.31387" lon="12.16789">
        <ele>18.89796</ele>
        <time>2020-07-16T07:48:04.374Z</time>
      </trkpt>
      <trkpt lat="65.31403" lon="12.16796">
        <ele>18.64713</ele>
        <time>2020-07-16T07:48:06.821Z</time>
      </trkpt>
      <trkpt lat="65.31477" lon="12.16829">
        <ele>17.486814</ele>
        <time>2020-07-16T07:48:18.248Z</time>
      </trkpt>
      <trkpt lat="65.31553" lon="12.16872">
        <ele>16.458768</ele>
        <time>2020-07-16T07:48:30.382Z</time>
      </trkpt>
      <trkpt lat="65.31577" lon="12.16898">
        <ele>16.150367</ele>
        <time>2020-07-16T07:48:34.598Z</time>
      </trkpt>
      <trkpt lat="65.31583" lon="12.16904">
        <ele>16.07227</ele>
        <time>2020-07-16T07:48:35.622Z</time>
      </trkpt>
      <trkpt lat="65.31587" lon="12.16881">
        <ele>15.952874</ele>
        <time>2020-07-16T07:48:37.308Z</time>
      </trkpt>
      <trkpt lat="65.31588" lon="12.16875">
        <ele>15.923473</ele>
        <time>2020-07-16T07:48:37.709Z</time>
      </trkpt>
      <trkpt lat="65.31592" lon="12.16879">
        <ele>15.865014</ele>
        <time>2020-07-16T07:48:38.505Z</time>
      </trkpt>
      <trkpt lat="65.317" lon="12.1695">
        <ele>14.54405</ele>
        <time>2020-07-16T07:48:55.802Z</time>
      </trkpt>
      <trkpt lat="65.31707" lon="12.16954">
        <ele>14.458515</ele>
        <time>2020-07-16T07:48:56.836Z</time>
      </trkpt>
      <trkpt lat="65.31803" lon="12.17017">
        <ele>13.277426</ele>
        <time>2020-07-16T07:49:11.899Z</time>
      </trkpt>
      <trkpt lat="65.31935" lon="12.17104">
        <ele>11.856499</ele>
        <time>2020-07-16T07:49:32.502Z</time>
      </trkpt>
      <trkpt lat="65.32043" lon="12.17174">
        <ele>11.066355</ele>
        <time>2020-07-16T07:49:50.202Z</time>
      </trkpt>
      <trkpt lat="65.32213" lon="12.17289">
        <ele>11.708734</ele>
        <time>2020-07-16T07:50:23.023Z</time>
      </trkpt>
      <trkpt lat="65.3241" lon="12.17457">
        <ele>16.137039</ele>
        <time>2020-07-16T07:51:14.972Z</time>
      </trkpt>
      <trkpt lat="65.32644" lon="12.17659">
        <ele>22.407293</ele>
        <time>2020-07-16T07:52:25.918Z</time>
      </trkpt>
      <trkpt lat="65.32712" lon="12.17717">
        <ele>23.322219</ele>
        <time>2020-07-16T07:52:39.749Z</time>
      </trkpt>
      <trkpt lat="65.32817" lon="12.17809">
        <ele>20.850213</ele>
        <time>2020-07-16T07:52:55.056Z</time>
      </trkpt>
      <trkpt lat="65.32846" lon="12.17837">
        <ele>20.159994</ele>
        <time>2020-07-16T07:52:59.104Z</time>
      </trkpt>
      <trkpt lat="65.32874" lon="12.1787">
        <ele>19.399735</ele>
        <time>2020-07-16T07:53:03.176Z</time>
      </trkpt>
      <trkpt lat="65.32963" lon="12.18021">
        <ele>16.146544</ele>
        <time>2020-07-16T07:53:17.122Z</time>
      </trkpt>
      <trkpt lat="65.33024" lon="12.18126">
        <ele>14.093072</ele>
        <time>2020-07-16T07:53:27.462Z</time>
      </trkpt>
      <trkpt lat="65.33055" lon="12.1818">
        <ele>13.607243</ele>
        <time>2020-07-16T07:53:32.988Z</time>
      </trkpt>
      <trkpt lat="65.33211" lon="12.18448">
        <ele>11.838996</ele>
        <time>2020-07-16T07:54:03.173Z</time>
      </trkpt>
      <trkpt lat="65.33523" lon="12.18983">
        <ele>11.697487</ele>
        <time>2020-07-16T07:55:13.730Z</time>
      </trkpt>
      <trkpt lat="65.33585" lon="12.19061">
        <ele>11.562323</ele>
        <time>2020-07-16T07:55:25.390Z</time>
      </trkpt>
      <trkpt lat="65.337" lon="12.19171">
        <ele>10.704703</ele>
        <time>2020-07-16T07:55:44.958Z</time>
      </trkpt>
      <trkpt lat="65.33831" lon="12.19338">
        <ele>9.783951</ele>
        <time>2020-07-16T07:56:08.321Z</time>
      </trkpt>
      <trkpt lat="65.33849" lon="12.19361">
        <ele>9.700419</ele>
        <time>2020-07-16T07:56:11.718Z</time>
      </trkpt>
      <trkpt lat="65.3389" lon="12.19414">
        <ele>9.514834</ele>
        <time>2020-07-16T07:56:19.612Z</time>
      </trkpt>
      <trkpt lat="65.3397" lon="12.1952">
        <ele>9.522496</ele>
        <time>2020-07-16T07:56:36.196Z</time>
      </trkpt>
      <trkpt lat="65.33989" lon="12.19549">
        <ele>9.613669</ele>
        <time>2020-07-16T07:56:40.552Z</time>
      </trkpt>
      <trkpt lat="65.34005" lon="12.1957">
        <ele>9.686805</ele>
        <time>2020-07-16T07:56:44.123Z</time>
      </trkpt>
      <trkpt lat="65.34061" lon="12.19656">
        <ele>9.952159</ele>
        <time>2020-07-16T07:56:57.047Z</time>
      </trkpt>
      <trkpt lat="65.34075" lon="12.19681">
        <ele>10.018548</ele>
        <time>2020-07-16T07:57:00.434Z</time>
      </trkpt>
      <trkpt lat="65.34076" lon="12.19677">
        <ele>10.027494</ele>
        <time>2020-07-16T07:57:00.834Z</time>
      </trkpt>
      <trkpt lat="65.34099" lon="12.19538">
        <ele>10.533014</ele>
        <time>2020-07-16T07:57:13.362Z</time>
      </trkpt>
      <trkpt lat="65.34104" lon="12.1951">
        <ele>10.641642</ele>
        <time>2020-07-16T07:57:16.134Z</time>
      </trkpt>
      <trkpt lat="65.34127" lon="12.19361">
        <ele>11.211723</ele>
        <time>2020-07-16T07:57:30.041Z</time>
      </trkpt>
      <trkpt lat="65.34158" lon="12.19211">
        <ele>11.761365</ele>
        <time>2020-07-16T07:57:44.283Z</time>
      </trkpt>
      <trkpt lat="65.34161" lon="12.19205">
        <ele>11.787893</ele>
        <time>2020-07-16T07:57:45.245Z</time>
      </trkpt>
      <trkpt lat="65.3417" lon="12.19197">
        <ele>11.85058</ele>
        <time>2020-07-16T07:57:47.336Z</time>
      </trkpt>
      <trkpt lat="65.34258" lon="12.19183">
        <ele>12.442947</ele>
        <time>2020-07-16T07:58:05.038Z</time>
      </trkpt>
      <trkpt lat="65.34382" lon="12.19144">
        <ele>13.216666</ele>
        <time>2020-07-16T07:58:29.143Z</time>
      </trkpt>
      <trkpt lat="65.34393" lon="12.1914">
        <ele>13.282035</ele>
        <time>2020-07-16T07:58:31.112Z</time>
      </trkpt>
      <trkpt lat="65.34409" lon="12.19135">
        <ele>13.375423</ele>
        <time>2020-07-16T07:58:34.192Z</time>
      </trkpt>
      <trkpt lat="65.34438" lon="12.19127">
        <ele>13.542425</ele>
        <time>2020-07-16T07:58:39.527Z</time>
      </trkpt>
      <trkpt lat="65.34454" lon="12.19122">
        <ele>13.635052</ele>
        <time>2020-07-16T07:58:42.668Z</time>
      </trkpt>
      <trkpt lat="65.34488" lon="12.19118">
        <ele>13.833559</ele>
        <time>2020-07-16T07:58:49.897Z</time>
      </trkpt>
      <trkpt lat="65.34558" lon="12.19144">
        <ele>14.692118</ele>
        <time>2020-07-16T07:59:05.758Z</time>
      </trkpt>
      <trkpt lat="65.34592" lon="12.19132">
        <ele>15.107079</ele>
        <time>2020-07-16T07:59:13.733Z</time>
      </trkpt>
      <trkpt lat="65.34609" lon="12.19119">
        <ele>15.324174</ele>
        <time>2020-07-16T07:59:17.849Z</time>
      </trkpt>
      <trkpt lat="65.34632" lon="12.19098">
        <ele>15.625348</ele>
        <time>2020-07-16T07:59:23.546Z</time>
      </trkpt>
      <trkpt lat="65.34673" lon="12.19058">
        <ele>16.021738</ele>
        <time>2020-07-16T07:59:32.150Z</time>
      </trkpt>
      <trkpt lat="65.3468" lon="12.1905">
        <ele>16.018902</ele>
        <time>2020-07-16T07:59:33.971Z</time>
      </trkpt>
      <trkpt lat="65.347" lon="12.19019">
        <ele>16.010461</ele>
        <time>2020-07-16T07:59:38.422Z</time>
      </trkpt>
      <trkpt lat="65.34721" lon="12.18986">
        <ele>16.00122</ele>
        <time>2020-07-16T07:59:43.425Z</time>
      </trkpt>
      <trkpt lat="65.3476" lon="12.18949">
        <ele>15.986246</ele>
        <time>2020-07-16T07:59:50.829Z</time>
      </trkpt>
      <trkpt lat="65.34764" lon="12.18948">
        <ele>15.98487</ele>
        <time>2020-07-16T07:59:51.330Z</time>
      </trkpt>
      <trkpt lat="65.34777" lon="12.18934">
        <ele>15.979515</ele>
        <time>2020-07-16T07:59:53.854Z</time>
      </trkpt>
      <trkpt lat="65.34816" lon="12.18897">
        <ele>15.964402</ele>
        <time>2020-07-16T08:00:00.651Z</time>
      </trkpt>
      <trkpt lat="65.34852" lon="12.18843">
        <ele>15.966138</ele>
        <time>2020-07-16T08:00:07.220Z</time>
      </trkpt>
      <trkpt lat="65.3486" lon="12.18826">
        <ele>15.967826</ele>
        <time>2020-07-16T08:00:08.736Z</time>
      </trkpt>
      <trkpt lat="65.34864" lon="12.18818">
        <ele>15.968592</ele>
        <time>2020-07-16T08:00:09.477Z</time>
      </trkpt>
      <trkpt lat="65.35035" lon="12.18474">
        <ele>17.547893</ele>
        <time>2020-07-16T08:00:52.484Z</time>
      </trkpt>
      <trkpt lat="65.35061" lon="12.18402">
        <ele>18.230559</ele>
        <time>2020-07-16T08:01:02.320Z</time>
      </trkpt>
      <trkpt lat="65.35085" lon="12.18317">
        <ele>18.955137</ele>
        <time>2020-07-16T08:01:14.461Z</time>
      </trkpt>
      <trkpt lat="65.35094" lon="12.18289">
        <ele>19.419569</ele>
        <time>2020-07-16T08:01:19.136Z</time>
      </trkpt>
      <trkpt lat="65.35141" lon="12.18131">
        <ele>22.634667</ele>
        <time>2020-07-16T08:01:43.515Z</time>
      </trkpt>
      <trkpt lat="65.35156" lon="12.18081">
        <ele>23.674888</ele>
        <time>2020-07-16T08:01:52.282Z</time>
      </trkpt>
      <trkpt lat="65.35284" lon="12.17663">
        <ele>31.400848</ele>
        <time>2020-07-16T08:02:58.359Z</time>
      </trkpt>
      <trkpt lat="65.35567" lon="12.17338">
        <ele>34.748481</ele>
        <time>2020-07-16T08:04:06.630Z</time>
      </trkpt>
      <trkpt lat="65.35749" lon="12.1732">
        <ele>31.820976</ele>
        <time>2020-07-16T08:04:32.609Z</time>
      </trkpt>
      <trkpt lat="65.3593" lon="12.17402">
        <ele>25.960905</ele>
        <time>2020-07-16T08:04:55.887Z</time>
      </trkpt>
      <trkpt lat="65.36075" lon="12.17491">
        <ele>21.451986</ele>
        <time>2020-07-16T08:05:15.727Z</time>
      </trkpt>
      <trkpt lat="65.36173" lon="12.17523">
        <ele>18.870656</ele>
        <time>2020-07-16T08:05:29.630Z</time>
      </trkpt>
      <trkpt lat="65.36192" lon="12.17519">
        <ele>18.223307</ele>
        <time>2020-07-16T08:05:32.185Z</time>
      </trkpt>
      <trkpt lat="65.36204" lon="12.17505">
        <ele>17.747222</ele>
        <time>2020-07-16T08:05:34.035Z</time>
      </trkpt>
      <trkpt lat="65.36227" lon="12.17462">
        <ele>16.764487</ele>
        <time>2020-07-16T08:05:37.745Z</time>
      </trkpt>
      <trkpt lat="65.36247" lon="12.17406">
        <ele>15.695002</ele>
        <time>2020-07-16T08:05:41.849Z</time>
      </trkpt>
      <trkpt lat="65.36281" lon="12.1728">
        <ele>13.562025</ele>
        <time>2020-07-16T08:05:49.715Z</time>
      </trkpt>
      <trkpt lat="65.36289" lon="12.17249">
        <ele>13.030628</ele>
        <time>2020-07-16T08:05:51.615Z</time>
      </trkpt>
      <trkpt lat="65.36298" lon="12.17215">
        <ele>12.493702</ele>
        <time>2020-07-16T08:05:53.703Z</time>
      </trkpt>
      <trkpt lat="65.36303" lon="12.17195">
        <ele>12.190172</ele>
        <time>2020-07-16T08:05:54.986Z</time>
      </trkpt>
      <trkpt lat="65.36304" lon="12.17191">
        <ele>12.12366</ele>
        <time>2020-07-16T08:05:55.218Z</time>
      </trkpt>
      <trkpt lat="65.36332" lon="12.1712">
        <ele>10.873748</ele>
        <time>2020-07-16T08:06:00.271Z</time>
      </trkpt>
      <trkpt lat="65.3634" lon="12.17119">
        <ele>10.64506</ele>
        <time>2020-07-16T08:06:01.219Z</time>
      </trkpt>
      <trkpt lat="65.36341" lon="12.1712">
        <ele>10.591644</ele>
        <time>2020-07-16T08:06:01.400Z</time>
      </trkpt>
      <trkpt lat="65.36428" lon="12.17251">
        <ele>7.433008</ele>
        <time>2020-07-16T08:06:15.111Z</time>
      </trkpt>
      <trkpt lat="65.36441" lon="12.17278">
        <ele>7.265049</ele>
        <time>2020-07-16T08:06:17.408Z</time>
      </trkpt>
      <trkpt lat="65.36443" lon="12.17287">
        <ele>7.2881</ele>
        <time>2020-07-16T08:06:18.194Z</time>
      </trkpt>
      <trkpt lat="65.36446" lon="12.17301">
        <ele>7.320712</ele>
        <time>2020-07-16T08:06:19.306Z</time>
      </trkpt>
      <trkpt lat="65.36449" lon="12.17318">
        <ele>7.361983</ele>
        <time>2020-07-16T08:06:21.380Z</time>
      </trkpt>
      <trkpt lat="65.3647" lon="12.17505">
        <ele>7.786115</ele>
        <time>2020-07-16T08:06:37.477Z</time>
      </trkpt>
      <trkpt lat="65.3649" lon="12.17629">
        <ele>8.077815</ele>
        <time>2020-07-16T08:06:49.330Z</time>
      </trkpt>
      <trkpt lat="65.36496" lon="12.17658">
        <ele>8.148424</ele>
        <time>2020-07-16T08:06:53.426Z</time>
      </trkpt>
      <trkpt lat="65.36508" lon="12.17726">
        <ele>8.524623</ele>
        <time>2020-07-16T08:07:00.636Z</time>
      </trkpt>
      <trkpt lat="65.36537" lon="12.17863">
        <ele>9.3352</ele>
        <time>2020-07-16T08:07:15.212Z</time>
      </trkpt>
      <trkpt lat="65.36596" lon="12.18085">
        <ele>10.413716</ele>
        <time>2020-07-16T08:07:38.351Z</time>
      </trkpt>
      <trkpt lat="65.36648" lon="12.18291">
        <ele>10.333185</ele>
        <time>2020-07-16T08:07:56.076Z</time>
      </trkpt>
      <trkpt lat="65.36658" lon="12.18329">
        <ele>10.318579</ele>
        <time>2020-07-16T08:07:59.128Z</time>
      </trkpt>
      <trkpt lat="65.36691" lon="12.18466">
        <ele>9.931083</ele>
        <time>2020-07-16T08:08:09.864Z</time>
      </trkpt>
      <trkpt lat="65.36748" lon="12.18658">
        <ele>8.673802</ele>
        <time>2020-07-16T08:08:24.528Z</time>
      </trkpt>
      <trkpt lat="65.36761" lon="12.18742">
        <ele>8.205148</ele>
        <time>2020-07-16T08:08:29.973Z</time>
      </trkpt>
      <trkpt lat="65.36762" lon="12.1882">
        <ele>7.623364</ele>
        <time>2020-07-16T08:08:34.873Z</time>
      </trkpt>
      <trkpt lat="65.36763" lon="12.18878">
        <ele>7.081696</ele>
        <time>2020-07-16T08:08:38.422Z</time>
      </trkpt>
      <trkpt lat="65.36764" lon="12.18916">
        <ele>6.722214</ele>
        <time>2020-07-16T08:08:40.581Z</time>
      </trkpt>
      <trkpt lat="65.36764" lon="12.18927">
        <ele>6.61746</ele>
        <time>2020-07-16T08:08:41.201Z</time>
      </trkpt>
      <trkpt lat="65.36764" lon="12.18934">
        <ele>6.553307</ele>
        <time>2020-07-16T08:08:41.586Z</time>
      </trkpt>
      <trkpt lat="65.36764" lon="12.1899">
        <ele>6.019649</ele>
        <time>2020-07-16T08:08:44.777Z</time>
      </trkpt>
      <trkpt lat="65.36765" lon="12.19023">
        <ele>5.708925</ele>
        <time>2020-07-16T08:08:46.597Z</time>
      </trkpt>
      <trkpt lat="65.36759" lon="12.19166">
        <ele>4.360172</ele>
        <time>2020-07-16T08:08:54.613Z</time>
      </trkpt>
      <trkpt lat="65.36754" lon="12.19196">
        <ele>4.05028</ele>
        <time>2020-07-16T08:08:56.514Z</time>
      </trkpt>
      <trkpt lat="65.36749" lon="12.19223">
        <ele>3.848519</ele>
        <time>2020-07-16T08:08:58.211Z</time>
      </trkpt>
      <trkpt lat="65.36745" lon="12.19241">
        <ele>3.748536</ele>
        <time>2020-07-16T08:08:59.376Z</time>
      </trkpt>
      <trkpt lat="65.36742" lon="12.19254">
        <ele>3.670319</ele>
        <time>2020-07-16T08:09:00.231Z</time>
      </trkpt>
      <trkpt lat="65.36731" lon="12.19296">
        <ele>3.426635</ele>
        <time>2020-07-16T08:09:03.160Z</time>
      </trkpt>
      <trkpt lat="65.3673" lon="12.193">
        <ele>3.40235</ele>
        <time>2020-07-16T08:09:03.468Z</time>
      </trkpt>
      <trkpt lat="65.36733" lon="12.19305">
        <ele>3.36004</ele>
        <time>2020-07-16T08:09:03.969Z</time>
      </trkpt>
      <trkpt lat="65.36716" lon="12.19368">
        <ele>2.987125</ele>
        <time>2020-07-16T08:09:08.728Z</time>
      </trkpt>
      <trkpt lat="65.36698" lon="12.19433">
        <ele>2.599032</ele>
        <time>2020-07-16T08:09:13.943Z</time>
      </trkpt>
      <trkpt lat="65.36688" lon="12.19484">
        <ele>2.318105</ele>
        <time>2020-07-16T08:09:18.041Z</time>
      </trkpt>
      <trkpt lat="65.36689" lon="12.19526">
        <ele>2.110858</ele>
        <time>2020-07-16T08:09:20.752Z</time>
      </trkpt>
      <trkpt lat="65.36691" lon="12.19545">
        <ele>2.011994</ele>
        <time>2020-07-16T08:09:22.273Z</time>
      </trkpt>
      <trkpt lat="65.36693" lon="12.19561">
        <ele>1.929217</ele>
        <time>2020-07-16T08:09:23.492Z</time>
      </trkpt>
      <trkpt lat="65.36697" lon="12.19576">
        <ele>1.841418</ele>
        <time>2020-07-16T08:09:24.920Z</time>
      </trkpt>
      <trkpt lat="65.36703" lon="12.19599">
        <ele>1.81634</ele>
        <time>2020-07-16T08:09:26.660Z</time>
      </trkpt>
      <trkpt lat="65.36716" lon="12.19642">
        <ele>1.949497</ele>
        <time>2020-07-16T08:09:31.632Z</time>
      </trkpt>
      <trkpt lat="65.36723" lon="12.19662">
        <ele>2.01092</ele>
        <time>2020-07-16T08:09:33.557Z</time>
      </trkpt>
      <trkpt lat="65.36733" lon="12.19659">
        <ele>2.072616</ele>
        <time>2020-07-16T08:09:35.366Z</time>
      </trkpt>
      <trkpt lat="65.36734" lon="12.19665">
        <ele>2.089376</ele>
        <time>2020-07-16T08:09:36.359Z</time>
      </trkpt>
      <trkpt lat="65.3674" lon="12.197">
        <ele>2.182273</ele>
        <time>2020-07-16T08:09:40.218Z</time>
      </trkpt>
      <trkpt lat="65.36748" lon="12.19736">
        <ele>2.281799</ele>
        <time>2020-07-16T08:09:43.070Z</time>
      </trkpt>
      <trkpt lat="65.3675" lon="12.19744">
        <ele>2.306716</ele>
        <time>2020-07-16T08:09:44.528Z</time>
      </trkpt>
      <trkpt lat="65.36752" lon="12.19749">
        <ele>2.322517</ele>
        <time>2020-07-16T08:09:45.280Z</time>
      </trkpt>
      <trkpt lat="65.36761" lon="12.19759">
        <ele>2.38139</ele>
        <time>2020-07-16T08:09:47.547Z</time>
      </trkpt>
      <trkpt lat="65.36762" lon="12.19757">
        <ele>2.393246</ele>
        <time>2020-07-16T08:09:48.122Z</time>
      </trkpt>
      <trkpt lat="65.36765" lon="12.19753">
        <ele>2.41186</ele>
        <time>2020-07-16T08:09:48.588Z</time>
      </trkpt>
      <trkpt lat="65.36801" lon="12.19712">
        <ele>2.648713</ele>
        <time>2020-07-16T08:09:57.122Z</time>
      </trkpt>
      <trkpt lat="65.3681" lon="12.19704">
        <ele>2.703683</ele>
        <time>2020-07-16T08:09:58.695Z</time>
      </trkpt>
      <trkpt lat="65.36817" lon="12.19699">
        <ele>2.750052</ele>
        <time>2020-07-16T08:10:00.922Z</time>
      </trkpt>
      <trkpt lat="65.36846" lon="12.19695">
        <ele>2.809959</ele>
        <time>2020-07-16T08:10:06.362Z</time>
      </trkpt>
      <trkpt lat="65.36868" lon="12.19707">
        <ele>2.737876</ele>
        <time>2020-07-16T08:10:11.349Z</time>
      </trkpt>
      <trkpt lat="65.36916" lon="12.19743">
        <ele>2.577261</ele>
        <time>2020-07-16T08:10:20.048Z</time>
      </trkpt>
      <trkpt lat="65.36921" lon="12.19746">
        <ele>2.561206</ele>
        <time>2020-07-16T08:10:20.835Z</time>
      </trkpt>
      <trkpt lat="65.36975" lon="12.19787">
        <ele>2.380393</ele>
        <time>2020-07-16T08:10:30.446Z</time>
      </trkpt>
      <trkpt lat="65.36986" lon="12.19796">
        <ele>2.344152</ele>
        <time>2020-07-16T08:10:32.300Z</time>
      </trkpt>
      <trkpt lat="65.36997" lon="12.19806">
        <ele>2.307221</ele>
        <time>2020-07-16T08:10:34.173Z</time>
      </trkpt>
      <trkpt lat="65.37032" lon="12.1984">
        <ele>2.107639</ele>
        <time>2020-07-16T08:10:40.629Z</time>
      </trkpt>
      <trkpt lat="65.37043" lon="12.19832">
        <ele>2.043894</ele>
        <time>2020-07-16T08:10:42.540Z</time>
      </trkpt>
      <trkpt lat="65.37045" lon="12.19839">
        <ele>2.020445</ele>
        <time>2020-07-16T08:10:43.145Z</time>
      </trkpt>
      <trkpt lat="65.3705" lon="12.1985">
        <ele>1.983921</ele>
        <time>2020-07-16T08:10:44.158Z</time>
      </trkpt>
      <trkpt lat="65.37057" lon="12.19862">
        <ele>1.929039</ele>
        <time>2020-07-16T08:10:45.542Z</time>
      </trkpt>
      <trkpt lat="65.371" lon="12.19906">
        <ele>1.65623</ele>
        <time>2020-07-16T08:10:53.053Z</time>
      </trkpt>
      <trkpt lat="65.37124" lon="12.19932">
        <ele>1.500058</ele>
        <time>2020-07-16T08:10:57.295Z</time>
      </trkpt>
      <trkpt lat="65.37151" lon="12.19959">
        <ele>1.323663</ele>
        <time>2020-07-16T08:11:02.335Z</time>
      </trkpt>
      <trkpt lat="65.37167" lon="12.19975">
        <ele>1.226228</ele>
        <time>2020-07-16T08:11:05.145Z</time>
      </trkpt>
      <trkpt lat="65.37183" lon="12.19992">
        <ele>1.19096</ele>
        <time>2020-07-16T08:11:08.125Z</time>
      </trkpt>
      <trkpt lat="65.37188" lon="12.19998">
        <ele>1.182385</ele>
        <time>2020-07-16T08:11:09.218Z</time>
      </trkpt>
      <trkpt lat="65.37343" lon="12.20149">
        <ele>0.941192</ele>
        <time>2020-07-16T08:11:39.848Z</time>
      </trkpt>
      <trkpt lat="65.37349" lon="12.20134">
        <ele>0.919987</ele>
        <time>2020-07-16T08:11:41.370Z</time>
      </trkpt>
      <trkpt lat="65.37351" lon="12.20131">
        <ele>0.913569</ele>
        <time>2020-07-16T08:11:41.828Z</time>
      </trkpt>
      <trkpt lat="65.37361" lon="12.20143">
        <ele>0.886077</ele>
        <time>2020-07-16T08:11:43.820Z</time>
      </trkpt>
      <trkpt lat="65.37375" lon="12.20191">
        <ele>0.824326</ele>
        <time>2020-07-16T08:11:48.228Z</time>
      </trkpt>
      <trkpt lat="65.37396" lon="12.20211">
        <ele>0.76852</ele>
        <time>2020-07-16T08:11:52.208Z</time>
      </trkpt>
      <trkpt lat="65.37416" lon="12.20232">
        <ele>0.714664</ele>
        <time>2020-07-16T08:11:55.948Z</time>
      </trkpt>
      <trkpt lat="65.37438" lon="12.20255">
        <ele>0.652341</ele>
        <time>2020-07-16T08:12:00.355Z</time>
      </trkpt>
      <trkpt lat="65.37444" lon="12.20261">
        <ele>0.6375</ele>
        <time>2020-07-16T08:12:01.388Z</time>
      </trkpt>
      <trkpt lat="65.37466" lon="12.20284">
        <ele>0.575235</ele>
        <time>2020-07-16T08:12:05.821Z</time>
      </trkpt>
      <trkpt lat="65.3748" lon="12.20297">
        <ele>0.539495</ele>
        <time>2020-07-16T08:12:08.277Z</time>
      </trkpt>
      <trkpt lat="65.37493" lon="12.20306">
        <ele>0.508127</ele>
        <time>2020-07-16T08:12:10.739Z</time>
      </trkpt>
      <trkpt lat="65.37504" lon="12.20297">
        <ele>0.494192</ele>
        <time>2020-07-16T08:12:12.906Z</time>
      </trkpt>
      <trkpt lat="65.37506" lon="12.20298">
        <ele>0.492558</ele>
        <time>2020-07-16T08:12:13.120Z</time>
      </trkpt>
      <trkpt lat="65.37507" lon="12.203">
        <ele>0.490849</ele>
        <time>2020-07-16T08:12:13.381Z</time>
      </trkpt>
      <trkpt lat="65.37509" lon="12.20304">
        <ele>0.487963</ele>
        <time>2020-07-16T08:12:13.827Z</time>
      </trkpt>
      <trkpt lat="65.37509" lon="12.20307">
        <ele>0.486408</ele>
        <time>2020-07-16T08:12:14.063Z</time>
      </trkpt>
      <trkpt lat="65.3751" lon="12.20313">
        <ele>0.483645</ele>
        <time>2020-07-16T08:12:14.489Z</time>
      </trkpt>
      <trkpt lat="65.37509" lon="12.20317">
        <ele>0.481357</ele>
        <time>2020-07-16T08:12:14.846Z</time>
      </trkpt>
      <trkpt lat="65.37512" lon="12.20318">
        <ele>0.478222</ele>
        <time>2020-07-16T08:12:15.298Z</time>
      </trkpt>
      <trkpt lat="65.37545" lon="12.20329">
        <ele>0.439785</ele>
        <time>2020-07-16T08:12:21.224Z</time>
      </trkpt>
      <trkpt lat="65.37603" lon="12.20344">
        <ele>0.372549</ele>
        <time>2020-07-16T08:12:31.354Z</time>
      </trkpt>
      <trkpt lat="65.37655" lon="12.20362">
        <ele>0.312217</ele>
        <time>2020-07-16T08:12:41.086Z</time>
      </trkpt>
      <trkpt lat="65.37676" lon="12.20367">
        <ele>0.368989</ele>
        <time>2020-07-16T08:12:44.976Z</time>
      </trkpt>
      <trkpt lat="65.37706" lon="12.20373">
        <ele>0.515864</ele>
        <time>2020-07-16T08:12:50.643Z</time>
      </trkpt>
      <trkpt lat="65.37719" lon="12.20374">
        <ele>0.580542</ele>
        <time>2020-07-16T08:12:53.129Z</time>
      </trkpt>
      <trkpt lat="65.37727" lon="12.20374">
        <ele>0.622153</ele>
        <time>2020-07-16T08:12:54.815Z</time>
      </trkpt>
      <trkpt lat="65.37748" lon="12.20368">
        <ele>0.726672</ele>
        <time>2020-07-16T08:12:58.812Z</time>
      </trkpt>
      <trkpt lat="65.37763" lon="12.20361">
        <ele>0.798324</ele>
        <time>2020-07-16T08:13:01.680Z</time>
      </trkpt>
      <trkpt lat="65.3777" lon="12.20357">
        <ele>0.834889</ele>
        <time>2020-07-16T08:13:03.086Z</time>
      </trkpt>
      <trkpt lat="65.37774" lon="12.20354">
        <ele>0.854671</ele>
        <time>2020-07-16T08:13:03.866Z</time>
      </trkpt>
      <trkpt lat="65.3778" lon="12.20348">
        <ele>0.887417</ele>
        <time>2020-07-16T08:13:05.140Z</time>
      </trkpt>
      <trkpt lat="65.37829" lon="12.20255">
        <ele>1.205996</ele>
        <time>2020-07-16T08:13:17.499Z</time>
      </trkpt>
      <trkpt lat="65.3787" lon="12.20133">
        <ele>2.101612</ele>
        <time>2020-07-16T08:13:31.364Z</time>
      </trkpt>
      <trkpt lat="65.37902" lon="12.20026">
        <ele>2.855972</ele>
        <time>2020-07-16T08:13:43.527Z</time>
      </trkpt>
      <trkpt lat="65.37934" lon="12.19916">
        <ele>3.619043</ele>
        <time>2020-07-16T08:13:56.653Z</time>
      </trkpt>
      <trkpt lat="65.37972" lon="12.19789">
        <ele>5.175044</ele>
        <time>2020-07-16T08:14:12.975Z</time>
      </trkpt>
      <trkpt lat="65.38041" lon="12.19555">
        <ele>8.058759</ele>
        <time>2020-07-16T08:14:44.665Z</time>
      </trkpt>
      <trkpt lat="65.38057" lon="12.19502">
        <ele>8.570093</ele>
        <time>2020-07-16T08:14:51.704Z</time>
      </trkpt>
      <trkpt lat="65.38099" lon="12.1936">
        <ele>9.927497</ele>
        <time>2020-07-16T08:15:09.778Z</time>
      </trkpt>
      <trkpt lat="65.38113" lon="12.19311">
        <ele>10.39695</ele>
        <time>2020-07-16T08:15:15.786Z</time>
      </trkpt>
      <trkpt lat="65.38319" lon="12.18625">
        <ele>14.304902</ele>
        <time>2020-07-16T08:16:29.786Z</time>
      </trkpt>
      <trkpt lat="65.38382" lon="12.18472">
        <ele>15.004901</ele>
        <time>2020-07-16T08:16:48.004Z</time>
      </trkpt>
      <trkpt lat="65.38456" lon="12.18348">
        <ele>15.475474</ele>
        <time>2020-07-16T08:17:05.980Z</time>
      </trkpt>
      <trkpt lat="65.38466" lon="12.18332">
        <ele>15.536051</ele>
        <time>2020-07-16T08:17:08.246Z</time>
      </trkpt>
      <trkpt lat="65.38469" lon="12.18325">
        <ele>15.560925</ele>
        <time>2020-07-16T08:17:09.270Z</time>
      </trkpt>
      <trkpt lat="65.38499" lon="12.18274">
        <ele>15.753567</ele>
        <time>2020-07-16T08:17:16.080Z</time>
      </trkpt>
      <trkpt lat="65.38532" lon="12.18222">
        <ele>15.691986</ele>
        <time>2020-07-16T08:17:22.925Z</time>
      </trkpt>
      <trkpt lat="65.3863" lon="12.18062">
        <ele>15.333057</ele>
        <time>2020-07-16T08:17:43.011Z</time>
      </trkpt>
      <trkpt lat="65.38637" lon="12.18042">
        <ele>15.300541</ele>
        <time>2020-07-16T08:17:44.776Z</time>
      </trkpt>
      <trkpt lat="65.3864" lon="12.18037">
        <ele>15.290315</ele>
        <time>2020-07-16T08:17:45.228Z</time>
      </trkpt>
      <trkpt lat="65.38645" lon="12.18059">
        <ele>15.258054</ele>
        <time>2020-07-16T08:17:47.293Z</time>
      </trkpt>
      <trkpt lat="65.38688" lon="12.17994">
        <ele>15.168202</ele>
        <time>2020-07-16T08:17:55.526Z</time>
      </trkpt>
      <trkpt lat="65.38726" lon="12.17944">
        <ele>15.097413</ele>
        <time>2020-07-16T08:18:02.678Z</time>
      </trkpt>
      <trkpt lat="65.38753" lon="12.17907">
        <ele>15.045322</ele>
        <time>2020-07-16T08:18:08.157Z</time>
      </trkpt>
      <trkpt lat="65.38834" lon="12.17807">
        <ele>15.081353</ele>
        <time>2020-07-16T08:18:24.965Z</time>
      </trkpt>
      <trkpt lat="65.38863" lon="12.1777">
        <ele>15.216698</ele>
        <time>2020-07-16T08:18:31.152Z</time>
      </trkpt>
      <trkpt lat="65.39038" lon="12.17568">
        <ele>15.841245</ele>
        <time>2020-07-16T08:19:09.139Z</time>
      </trkpt>
      <trkpt lat="65.3904" lon="12.17566">
        <ele>15.845926</ele>
        <time>2020-07-16T08:19:09.881Z</time>
      </trkpt>
      <trkpt lat="65.3908" lon="12.17529">
        <ele>15.923588</ele>
        <time>2020-07-16T08:19:17.583Z</time>
      </trkpt>
      <trkpt lat="65.391" lon="12.17523">
        <ele>15.961948</ele>
        <time>2020-07-16T08:19:21.131Z</time>
      </trkpt>
      <trkpt lat="65.39151" lon="12.17543">
        <ele>15.913341</ele>
        <time>2020-07-16T08:19:30.141Z</time>
      </trkpt>
      <trkpt lat="65.39476" lon="12.17783">
        <ele>13.625961</ele>
        <time>2020-07-16T08:20:23.923Z</time>
      </trkpt>
      <trkpt lat="65.39534" lon="12.17826">
        <ele>13.426687</ele>
        <time>2020-07-16T08:20:35.169Z</time>
      </trkpt>
      <trkpt lat="65.3961" lon="12.1788">
        <ele>13.184455</ele>
        <time>2020-07-16T08:20:49.612Z</time>
      </trkpt>
      <trkpt lat="65.40116" lon="12.18256">
        <ele>8.254243</ele>
        <time>2020-07-16T08:22:10.801Z</time>
      </trkpt>
      <trkpt lat="65.4035" lon="12.18479">
        <ele>8.149749</ele>
        <time>2020-07-16T08:22:56.116Z</time>
      </trkpt>
      <trkpt lat="65.40447" lon="12.18546">
        <ele>8.970215</ele>
        <time>2020-07-16T08:23:16.508Z</time>
      </trkpt>
      <trkpt lat="65.4058" lon="12.18618">
        <ele>10.368373</ele>
        <time>2020-07-16T08:23:46.561Z</time>
      </trkpt>
      <trkpt lat="65.40688" lon="12.18711">
        <ele>11.655523</ele>
        <time>2020-07-16T08:24:11.745Z</time>
      </trkpt>
      <trkpt lat="65.41002" lon="12.19242">
        <ele>13.075587</ele>
        <time>2020-07-16T08:25:25.086Z</time>
      </trkpt>
      <trkpt lat="65.41028" lon="12.1932">
        <ele>12.921165</ele>
        <time>2020-07-16T08:25:32.117Z</time>
      </trkpt>
      <trkpt lat="65.41058" lon="12.19441">
        <ele>12.703926</ele>
        <time>2020-07-16T08:25:41.728Z</time>
      </trkpt>
      <trkpt lat="65.41102" lon="12.19647">
        <ele>12.2489</ele>
        <time>2020-07-16T08:25:56.926Z</time>
      </trkpt>
      <trkpt lat="65.41322" lon="12.20408">
        <ele>12.182883</ele>
        <time>2020-07-16T08:27:01.101Z</time>
      </trkpt>
      <trkpt lat="65.41331" lon="12.20437">
        <ele>12.46094</ele>
        <time>2020-07-16T08:27:04.814Z</time>
      </trkpt>
      <trkpt lat="65.41356" lon="12.20523">
        <ele>13.260872</ele>
        <time>2020-07-16T08:27:16.162Z</time>
      </trkpt>
      <trkpt lat="65.41411" lon="12.20704">
        <ele>16.990647</ele>
        <time>2020-07-16T08:27:46.161Z</time>
      </trkpt>
      <trkpt lat="65.41437" lon="12.20781">
        <ele>19.460472</ele>
        <time>2020-07-16T08:28:01.997Z</time>
      </trkpt>
      <trkpt lat="65.41456" lon="12.2082">
        <ele>20.925261</ele>
        <time>2020-07-16T08:28:11.497Z</time>
      </trkpt>
      <trkpt lat="65.41466" lon="12.20837">
        <ele>21.639024</ele>
        <time>2020-07-16T08:28:16.295Z</time>
      </trkpt>
      <trkpt lat="65.41473" lon="12.20849">
        <ele>22.163187</ele>
        <time>2020-07-16T08:28:20.422Z</time>
      </trkpt>
      <trkpt lat="65.41514" lon="12.2091">
        <ele>24.885077</ele>
        <time>2020-07-16T08:28:40.573Z</time>
      </trkpt>
      <trkpt lat="65.41606" lon="12.21036">
        <ele>28.775124</ele>
        <time>2020-07-16T08:29:17.629Z</time>
      </trkpt>
      <trkpt lat="65.41607" lon="12.21038">
        <ele>28.833455</ele>
        <time>2020-07-16T08:29:18.744Z</time>
      </trkpt>
      <trkpt lat="65.41656" lon="12.21103">
        <ele>30.876037</ele>
        <time>2020-07-16T08:29:30.733Z</time>
      </trkpt>
      <trkpt lat="65.41741" lon="12.21212">
        <ele>28.378842</ele>
        <time>2020-07-16T08:29:44.643Z</time>
      </trkpt>
      <trkpt lat="65.41789" lon="12.21295">
        <ele>26.317354</ele>
        <time>2020-07-16T08:29:51.787Z</time>
      </trkpt>
      <trkpt lat="65.41874" lon="12.21482">
        <ele>21.434382</ele>
        <time>2020-07-16T08:30:05.453Z</time>
      </trkpt>
      <trkpt lat="65.41904" lon="12.21532">
        <ele>19.758159</ele>
        <time>2020-07-16T08:30:09.990Z</time>
      </trkpt>
      <trkpt lat="65.41941" lon="12.21587">
        <ele>17.776969</ele>
        <time>2020-07-16T08:30:15.467Z</time>
      </trkpt>
      <trkpt lat="65.41984" lon="12.21648">
        <ele>16.033621</ele>
        <time>2020-07-16T08:30:22.007Z</time>
      </trkpt>
      <trkpt lat="65.4207" lon="12.21795">
        <ele>13.193753</ele>
        <time>2020-07-16T08:30:36.199Z</time>
      </trkpt>
      <trkpt lat="65.42368" lon="12.22375">
        <ele>5.166132</ele>
        <time>2020-07-16T08:31:29.888Z</time>
      </trkpt>
      <trkpt lat="65.42467" lon="12.22584">
        <ele>4.217868</ele>
        <time>2020-07-16T08:31:50.485Z</time>
      </trkpt>
      <trkpt lat="65.42646" lon="12.22957">
        <ele>4.613225</ele>
        <time>2020-07-16T08:32:35.716Z</time>
      </trkpt>
      <trkpt lat="65.42687" lon="12.23046">
        <ele>5.097979</ele>
        <time>2020-07-16T08:32:47.027Z</time>
      </trkpt>
      <trkpt lat="65.42692" lon="12.23059">
        <ele>5.170929</ele>
        <time>2020-07-16T08:32:48.519Z</time>
      </trkpt>
      <trkpt lat="65.42729" lon="12.2315">
        <ele>5.703513</ele>
        <time>2020-07-16T08:32:59.431Z</time>
      </trkpt>
      <trkpt lat="65.42792" lon="12.23379">
        <ele>7.171247</ele>
        <time>2020-07-16T08:33:24.370Z</time>
      </trkpt>
      <trkpt lat="65.42829" lon="12.23476">
        <ele>8.18157</ele>
        <time>2020-07-16T08:33:37.178Z</time>
      </trkpt>
      <trkpt lat="65.42873" lon="12.23619">
        <ele>9.549683</ele>
        <time>2020-07-16T08:33:55.740Z</time>
      </trkpt>
      <trkpt lat="65.42975" lon="12.24161">
        <ele>13.531026</ele>
        <time>2020-07-16T08:34:57.889Z</time>
      </trkpt>
      <trkpt lat="65.43017" lon="12.24329">
        <ele>13.179231</ele>
        <time>2020-07-16T08:35:10.615Z</time>
      </trkpt>
      <trkpt lat="65.43104" lon="12.24627">
        <ele>9.871681</ele>
        <time>2020-07-16T08:35:30.731Z</time>
      </trkpt>
      <trkpt lat="65.43135" lon="12.24809">
        <ele>7.526584</ele>
        <time>2020-07-16T08:35:41.386Z</time>
      </trkpt>
      <trkpt lat="65.43198" lon="12.25214">
        <ele>3.183377</ele>
        <time>2020-07-16T08:36:06.043Z</time>
      </trkpt>
      <trkpt lat="65.43229" lon="12.2541">
        <ele>2.142166</ele>
        <time>2020-07-16T08:36:18.889Z</time>
      </trkpt>
      <trkpt lat="65.43248" lon="12.25518">
        <ele>1.555756</ele>
        <time>2020-07-16T08:36:26.619Z</time>
      </trkpt>
      <trkpt lat="65.4328" lon="12.25682">
        <ele>1.334817</ele>
        <time>2020-07-16T08:36:39.369Z</time>
      </trkpt>
      <trkpt lat="65.43299" lon="12.25781">
        <ele>1.555164</ele>
        <time>2020-07-16T08:36:47.752Z</time>
      </trkpt>
      <trkpt lat="65.43324" lon="12.25907">
        <ele>1.837001</ele>
        <time>2020-07-16T08:36:59.158Z</time>
      </trkpt>
      <trkpt lat="65.4337" lon="12.26156">
        <ele>3.735647</ele>
        <time>2020-07-16T08:37:25.030Z</time>
      </trkpt>
      <trkpt lat="65.43395" lon="12.26294">
        <ele>5.123476</ele>
        <time>2020-07-16T08:37:40.967Z</time>
      </trkpt>
      <trkpt lat="65.43462" lon="12.26698">
        <ele>10.630557</ele>
        <time>2020-07-16T08:38:32.731Z</time>
      </trkpt>
      <trkpt lat="65.43481" lon="12.26805">
        <ele>12.172898</ele>
        <time>2020-07-16T08:38:46.677Z</time>
      </trkpt>
      <trkpt lat="65.43598" lon="12.27317">
        <ele>18.877029</ele>
        <time>2020-07-16T08:39:52.142Z</time>
      </trkpt>
      <trkpt lat="65.43635" lon="12.27486">
        <ele>20.787329</ele>
        <time>2020-07-16T08:40:12.043Z</time>
      </trkpt>
      <trkpt lat="65.43647" lon="12.27561">
        <ele>21.545394</ele>
        <time>2020-07-16T08:40:20.194Z</time>
      </trkpt>
      <trkpt lat="65.43741" lon="12.28293">
        <ele>25.484539</ele>
        <time>2020-07-16T08:41:32.799Z</time>
      </trkpt>
      <trkpt lat="65.43752" lon="12.28355">
        <ele>25.70094</ele>
        <time>2020-07-16T08:41:37.696Z</time>
      </trkpt>
      <trkpt lat="65.43925" lon="12.28983">
        <ele>17.882684</ele>
        <time>2020-07-16T08:42:19.946Z</time>
      </trkpt>
      <trkpt lat="65.43948" lon="12.29063">
        <ele>16.701864</ele>
        <time>2020-07-16T08:42:25.097Z</time>
      </trkpt>
      <trkpt lat="65.44053" lon="12.29446">
        <ele>10.4904</ele>
        <time>2020-07-16T08:42:49.788Z</time>
      </trkpt>
      <trkpt lat="65.44087" lon="12.29568">
        <ele>9.522964</ele>
        <time>2020-07-16T08:42:58.200Z</time>
      </trkpt>
      <trkpt lat="65.44116" lon="12.29674">
        <ele>8.740114</ele>
        <time>2020-07-16T08:43:05.869Z</time>
      </trkpt>
      <trkpt lat="65.44205" lon="12.29997">
        <ele>8.203995</ele>
        <time>2020-07-16T08:43:33.161Z</time>
      </trkpt>
      <trkpt lat="65.44234" lon="12.3011">
        <ele>8.511581</ele>
        <time>2020-07-16T08:43:44.644Z</time>
      </trkpt>
      <trkpt lat="65.44239" lon="12.30129">
        <ele>8.562206</ele>
        <time>2020-07-16T08:43:46.621Z</time>
      </trkpt>
      <trkpt lat="65.44286" lon="12.30314">
        <ele>10.298512</ele>
        <time>2020-07-16T08:44:09.072Z</time>
      </trkpt>
      <trkpt lat="65.44305" lon="12.30383">
        <ele>11.128824</ele>
        <time>2020-07-16T08:44:18.223Z</time>
      </trkpt>
      <trkpt lat="65.44316" lon="12.30422">
        <ele>11.601564</ele>
        <time>2020-07-16T08:44:23.146Z</time>
      </trkpt>
      <trkpt lat="65.44328" lon="12.30458">
        <ele>12.061444</ele>
        <time>2020-07-16T08:44:28.652Z</time>
      </trkpt>
      <trkpt lat="65.44367" lon="12.30552">
        <ele>13.231467</ele>
        <time>2020-07-16T08:44:43.302Z</time>
      </trkpt>
      <trkpt lat="65.44374" lon="12.3057">
        <ele>13.364825</ele>
        <time>2020-07-16T08:44:46.298Z</time>
      </trkpt>
      <trkpt lat="65.44466" lon="12.30776">
        <ele>14.98878</ele>
        <time>2020-07-16T08:45:14.650Z</time>
      </trkpt>
      <trkpt lat="65.44549" lon="12.30962">
        <ele>14.44139</ele>
        <time>2020-07-16T08:45:32.856Z</time>
      </trkpt>
      <trkpt lat="65.447" lon="12.31307">
        <ele>12.032836</ele>
        <time>2020-07-16T08:46:02.985Z</time>
      </trkpt>
      <trkpt lat="65.44843" lon="12.31853">
        <ele>10.895533</ele>
        <time>2020-07-16T08:46:47.744Z</time>
      </trkpt>
      <trkpt lat="65.44856" lon="12.31891">
        <ele>11.15989</ele>
        <time>2020-07-16T08:46:51.982Z</time>
      </trkpt>
      <trkpt lat="65.45" lon="12.32246">
        <ele>14.117985</ele>
        <time>2020-07-16T08:47:40.129Z</time>
      </trkpt>
      <trkpt lat="65.45065" lon="12.3241">
        <ele>15.786747</ele>
        <time>2020-07-16T08:48:02.819Z</time>
      </trkpt>
      <trkpt lat="65.45092" lon="12.32476">
        <ele>16.292381</ele>
        <time>2020-07-16T08:48:11.636Z</time>
      </trkpt>
      <trkpt lat="65.45142" lon="12.32574">
        <ele>16.877087</ele>
        <time>2020-07-16T08:48:26.005Z</time>
      </trkpt>
      <trkpt lat="65.45282" lon="12.32811">
        <ele>17.737828</ele>
        <time>2020-07-16T08:48:58.476Z</time>
      </trkpt>
      <trkpt lat="65.45324" lon="12.32883">
        <ele>17.743377</ele>
        <time>2020-07-16T08:49:07.363Z</time>
      </trkpt>
      <trkpt lat="65.45335" lon="12.32902">
        <ele>17.744852</ele>
        <time>2020-07-16T08:49:09.733Z</time>
      </trkpt>
      <trkpt lat="65.4549" lon="12.33217">
        <ele>16.940359</ele>
        <time>2020-07-16T08:49:43.928Z</time>
      </trkpt>
      <trkpt lat="65.45621" lon="12.33525">
        <ele>14.367995</ele>
        <time>2020-07-16T08:50:11.633Z</time>
      </trkpt>
      <trkpt lat="65.4586" lon="12.34073">
        <ele>5.148636</ele>
        <time>2020-07-16T08:50:54.872Z</time>
      </trkpt>
      <trkpt lat="65.45938" lon="12.34255">
        <ele>3.658979</ele>
        <time>2020-07-16T08:51:11.272Z</time>
      </trkpt>
      <trkpt lat="65.46038" lon="12.34471">
        <ele>2.969317</ele>
        <time>2020-07-16T08:51:35.204Z</time>
      </trkpt>
      <trkpt lat="65.46109" lon="12.34563">
        <ele>2.819153</ele>
        <time>2020-07-16T08:51:49.182Z</time>
      </trkpt>
      <trkpt lat="65.46114" lon="12.34569">
        <ele>2.808745</ele>
        <time>2020-07-16T08:51:50.076Z</time>
      </trkpt>
      <trkpt lat="65.4618" lon="12.34636">
        <ele>2.675601</ele>
        <time>2020-07-16T08:52:02.180Z</time>
      </trkpt>
      <trkpt lat="65.46277" lon="12.34743">
        <ele>2.37717</ele>
        <time>2020-07-16T08:52:20.158Z</time>
      </trkpt>
      <trkpt lat="65.46326" lon="12.34823">
        <ele>2.213234</ele>
        <time>2020-07-16T08:52:30.283Z</time>
      </trkpt>
      <trkpt lat="65.46361" lon="12.34889">
        <ele>2.240481</ele>
        <time>2020-07-16T08:52:38.145Z</time>
      </trkpt>
      <trkpt lat="65.46406" lon="12.34977">
        <ele>2.37774</ele>
        <time>2020-07-16T08:52:48.638Z</time>
      </trkpt>
      <trkpt lat="65.46482" lon="12.35112">
        <ele>2.615367</ele>
        <time>2020-07-16T08:53:06.544Z</time>
      </trkpt>
      <trkpt lat="65.46624" lon="12.35303">
        <ele>3.957817</ele>
        <time>2020-07-16T08:53:39.832Z</time>
      </trkpt>
      <trkpt lat="65.46685" lon="12.35427">
        <ele>4.577938</ele>
        <time>2020-07-16T08:53:57.419Z</time>
      </trkpt>
      <trkpt lat="65.46733" lon="12.35499">
        <ele>5.010216</ele>
        <time>2020-07-16T08:54:08.663Z</time>
      </trkpt>
      <trkpt lat="65.46742" lon="12.35506">
        <ele>5.083421</ele>
        <time>2020-07-16T08:54:10.926Z</time>
      </trkpt>
      <trkpt lat="65.46754" lon="12.35515">
        <ele>5.177386</ele>
        <time>2020-07-16T08:54:13.063Z</time>
      </trkpt>
      <trkpt lat="65.46763" lon="12.35518">
        <ele>5.245366</ele>
        <time>2020-07-16T08:54:14.638Z</time>
      </trkpt>
      <trkpt lat="65.46773" lon="12.35521">
        <ele>5.325126</ele>
        <time>2020-07-16T08:54:16.852Z</time>
      </trkpt>
      <trkpt lat="65.4679" lon="12.3552">
        <ele>5.455464</ele>
        <time>2020-07-16T08:54:19.907Z</time>
      </trkpt>
      <trkpt lat="65.46823" lon="12.35505">
        <ele>5.614261</ele>
        <time>2020-07-16T08:54:26.141Z</time>
      </trkpt>
      <trkpt lat="65.46924" lon="12.35445">
        <ele>6.113095</ele>
        <time>2020-07-16T08:54:45.092Z</time>
      </trkpt>
      <trkpt lat="65.47122" lon="12.35329">
        <ele>8.85446</ele>
        <time>2020-07-16T08:55:30.041Z</time>
      </trkpt>
      <trkpt lat="65.47139" lon="12.35318">
        <ele>9.127644</ele>
        <time>2020-07-16T08:55:34.783Z</time>
      </trkpt>
      <trkpt lat="65.47193" lon="12.35287">
        <ele>10.948908</ele>
        <time>2020-07-16T08:55:49.955Z</time>
      </trkpt>
      <trkpt lat="65.47234" lon="12.35262">
        <ele>12.379127</ele>
        <time>2020-07-16T08:56:02.337Z</time>
      </trkpt>
      <trkpt lat="65.47263" lon="12.35245">
        <ele>13.364021</ele>
        <time>2020-07-16T08:56:11.039Z</time>
      </trkpt>
      <trkpt lat="65.47336" lon="12.35202">
        <ele>16.103452</ele>
        <time>2020-07-16T08:56:33.621Z</time>
      </trkpt>
      <trkpt lat="65.47359" lon="12.35188">
        <ele>17.093002</ele>
        <time>2020-07-16T08:56:41.281Z</time>
      </trkpt>
      <trkpt lat="65.47385" lon="12.35173">
        <ele>18.211138</ele>
        <time>2020-07-16T08:56:49.414Z</time>
      </trkpt>
      <trkpt lat="65.47414" lon="12.35154">
        <ele>19.481478</ele>
        <time>2020-07-16T08:56:57.773Z</time>
      </trkpt>
      <trkpt lat="65.47435" lon="12.35134">
        <ele>20.422413</ele>
        <time>2020-07-16T08:57:04.728Z</time>
      </trkpt>
      <trkpt lat="65.4747" lon="12.35071">
        <ele>22.273203</ele>
        <time>2020-07-16T08:57:18.603Z</time>
      </trkpt>
      <trkpt lat="65.47476" lon="12.35056">
        <ele>22.623074</ele>
        <time>2020-07-16T08:57:21.609Z</time>
      </trkpt>
      <trkpt lat="65.47477" lon="12.35051">
        <ele>22.728025</ele>
        <time>2020-07-16T08:57:23.078Z</time>
      </trkpt>
      <trkpt lat="65.47505" lon="12.34958">
        <ele>25.907442</ele>
        <time>2020-07-16T08:57:39.841Z</time>
      </trkpt>
      <trkpt lat="65.47534" lon="12.34861">
        <ele>29.22027</ele>
        <time>2020-07-16T08:57:58.232Z</time>
      </trkpt>
      <trkpt lat="65.47588" lon="12.34684">
        <ele>35.2727</ele>
        <time>2020-07-16T08:58:37.351Z</time>
      </trkpt>
      <trkpt lat="65.4761" lon="12.34597">
        <ele>38.140792</ele>
        <time>2020-07-16T08:58:56.376Z</time>
      </trkpt>
      <trkpt lat="65.47623" lon="12.34489">
        <ele>41.290907</ele>
        <time>2020-07-16T08:59:16.434Z</time>
      </trkpt>
      <trkpt lat="65.47635" lon="12.34374">
        <ele>44.603267</ele>
        <time>2020-07-16T08:59:35.752Z</time>
      </trkpt>
      <trkpt lat="65.47652" lon="12.342">
        <ele>47.850736</ele>
        <time>2020-07-16T08:59:59.449Z</time>
      </trkpt>
      <trkpt lat="65.47679" lon="12.33956">
        <ele>50.384248</ele>
        <time>2020-07-16T09:00:24.179Z</time>
      </trkpt>
      <trkpt lat="65.47702" lon="12.33867">
        <ele>51.315747</ele>
        <time>2020-07-16T09:00:33.137Z</time>
      </trkpt>
      <trkpt lat="65.47713" lon="12.33844">
        <ele>51.472439</ele>
        <time>2020-07-16T09:00:35.189Z</time>
      </trkpt>
      <trkpt lat="65.47717" lon="12.33834">
        <ele>51.539093</ele>
        <time>2020-07-16T09:00:37.504Z</time>
      </trkpt>
      <trkpt lat="65.4775" lon="12.33782">
        <ele>51.9734</ele>
        <time>2020-07-16T09:00:47.644Z</time>
      </trkpt>
      <trkpt lat="65.47765" lon="12.33769">
        <ele>52.146592</ele>
        <time>2020-07-16T09:00:50.173Z</time>
      </trkpt>
      <trkpt lat="65.47835" lon="12.33739">
        <ele>52.921746</ele>
        <time>2020-07-16T09:01:06.065Z</time>
      </trkpt>
      <trkpt lat="65.47879" lon="12.33742">
        <ele>52.692826</ele>
        <time>2020-07-16T09:01:15.006Z</time>
      </trkpt>
      <trkpt lat="65.47892" lon="12.33746">
        <ele>52.359664</ele>
        <time>2020-07-16T09:01:18.429Z</time>
      </trkpt>
      <trkpt lat="65.47898" lon="12.33748">
        <ele>52.208583</ele>
        <time>2020-07-16T09:01:19.136Z</time>
      </trkpt>
      <trkpt lat="65.47951" lon="12.33777">
        <ele>50.825307</ele>
        <time>2020-07-16T09:01:26.875Z</time>
      </trkpt>
      <trkpt lat="65.47991" lon="12.338">
        <ele>49.77052</ele>
        <time>2020-07-16T09:01:32.346Z</time>
      </trkpt>
      <trkpt lat="65.48007" lon="12.33809">
        <ele>49.36417</ele>
        <time>2020-07-16T09:01:34.243Z</time>
      </trkpt>
      <trkpt lat="65.4802" lon="12.33817">
        <ele>49.014955</ele>
        <time>2020-07-16T09:01:35.956Z</time>
      </trkpt>
      <trkpt lat="65.48061" lon="12.33842">
        <ele>47.100172</ele>
        <time>2020-07-16T09:01:40.974Z</time>
      </trkpt>
      <trkpt lat="65.48084" lon="12.33856">
        <ele>45.760104</ele>
        <time>2020-07-16T09:01:43.711Z</time>
      </trkpt>
      <trkpt lat="65.48188" lon="12.3392">
        <ele>39.680908</ele>
        <time>2020-07-16T09:01:56.324Z</time>
      </trkpt>
      <trkpt lat="65.48238" lon="12.33958">
        <ele>37.193126</ele>
        <time>2020-07-16T09:02:02.632Z</time>
      </trkpt>
      <trkpt lat="65.4828" lon="12.33995">
        <ele>35.298018</ele>
        <time>2020-07-16T09:02:08.369Z</time>
      </trkpt>
      <trkpt lat="65.48327" lon="12.34038">
        <ele>33.197233</ele>
        <time>2020-07-16T09:02:14.722Z</time>
      </trkpt>
      <trkpt lat="65.48352" lon="12.34061">
        <ele>32.069992</ele>
        <time>2020-07-16T09:02:18.083Z</time>
      </trkpt>
      <trkpt lat="65.48395" lon="12.34108">
        <ele>29.830166</ele>
        <time>2020-07-16T09:02:24.222Z</time>
      </trkpt>
      <trkpt lat="65.48543" lon="12.34239">
        <ele>21.38881</ele>
        <time>2020-07-16T09:02:43.083Z</time>
      </trkpt>
      <trkpt lat="65.4857" lon="12.34262">
        <ele>19.598548</ele>
        <time>2020-07-16T09:02:46.294Z</time>
      </trkpt>
      <trkpt lat="65.48586" lon="12.3427">
        <ele>18.52736</ele>
        <time>2020-07-16T09:02:48.184Z</time>
      </trkpt>
      <trkpt lat="65.48599" lon="12.34276">
        <ele>17.697141</ele>
        <time>2020-07-16T09:02:49.700Z</time>
      </trkpt>
      <trkpt lat="65.48612" lon="12.3428">
        <ele>16.87251</ele>
        <time>2020-07-16T09:02:51.186Z</time>
      </trkpt>
      <trkpt lat="65.48624" lon="12.34277">
        <ele>16.064558</ele>
        <time>2020-07-16T09:02:52.607Z</time>
      </trkpt>
      <trkpt lat="65.4866" lon="12.34265">
        <ele>13.800692</ele>
        <time>2020-07-16T09:02:56.695Z</time>
      </trkpt>
      <trkpt lat="65.48698" lon="12.34244">
        <ele>11.256514</ele>
        <time>2020-07-16T09:03:01.353Z</time>
      </trkpt>
      <trkpt lat="65.48713" lon="12.34238">
        <ele>10.317008</ele>
        <time>2020-07-16T09:03:03.095Z</time>
      </trkpt>
      <trkpt lat="65.48741" lon="12.34239">
        <ele>9.249209</ele>
        <time>2020-07-16T09:03:06.501Z</time>
      </trkpt>
      <trkpt lat="65.48765" lon="12.34256">
        <ele>8.590565</ele>
        <time>2020-07-16T09:03:09.561Z</time>
      </trkpt>
      <trkpt lat="65.48851" lon="12.34388">
        <ele>5.951286</ele>
        <time>2020-07-16T09:03:23.580Z</time>
      </trkpt>
      <trkpt lat="65.48885" lon="12.34424">
        <ele>5.093238</ele>
        <time>2020-07-16T09:03:30.111Z</time>
      </trkpt>
      <trkpt lat="65.48901" lon="12.34434">
        <ele>5.207983</ele>
        <time>2020-07-16T09:03:33.422Z</time>
      </trkpt>
      <trkpt lat="65.48916" lon="12.34437">
        <ele>5.306439</ele>
        <time>2020-07-16T09:03:36.067Z</time>
      </trkpt>
      <trkpt lat="65.48931" lon="12.34434">
        <ele>5.408268</ele>
        <time>2020-07-16T09:03:39.044Z</time>
      </trkpt>
      <trkpt lat="65.48946" lon="12.3443">
        <ele>5.505695</ele>
        <time>2020-07-16T09:03:41.807Z</time>
      </trkpt>
      <trkpt lat="65.48978" lon="12.34419">
        <ele>5.724217</ele>
        <time>2020-07-16T09:03:48.260Z</time>
      </trkpt>
      <trkpt lat="65.48993" lon="12.34416">
        <ele>5.824191</ele>
        <time>2020-07-16T09:03:51.339Z</time>
      </trkpt>
      <trkpt lat="65.49006" lon="12.34415">
        <ele>5.90972</ele>
        <time>2020-07-16T09:03:54.174Z</time>
      </trkpt>
      <trkpt lat="65.49025" lon="12.34417">
        <ele>6.03813</ele>
        <time>2020-07-16T09:03:58.341Z</time>
      </trkpt>
      <trkpt lat="65.49042" lon="12.3442">
        <ele>6.149213</ele>
        <time>2020-07-16T09:04:02.194Z</time>
      </trkpt>
      <trkpt lat="65.49116" lon="12.3445">
        <ele>7.081006</ele>
        <time>2020-07-16T09:04:19.067Z</time>
      </trkpt>
      <trkpt lat="65.49138" lon="12.34466">
        <ele>7.397763</ele>
        <time>2020-07-16T09:04:24.121Z</time>
      </trkpt>
      <trkpt lat="65.49186" lon="12.34508">
        <ele>8.118159</ele>
        <time>2020-07-16T09:04:35.623Z</time>
      </trkpt>
      <trkpt lat="65.49272" lon="12.34587">
        <ele>9.49241</ele>
        <time>2020-07-16T09:04:56.069Z</time>
      </trkpt>
      <trkpt lat="65.49339" lon="12.34634">
        <ele>10.580217</ele>
        <time>2020-07-16T09:05:12.309Z</time>
      </trkpt>
      <trkpt lat="65.49364" lon="12.34649">
        <ele>10.978422</ele>
        <time>2020-07-16T09:05:18.124Z</time>
      </trkpt>
      <trkpt lat="65.49372" lon="12.34653">
        <ele>11.112864</ele>
        <time>2020-07-16T09:05:19.986Z</time>
      </trkpt>
      <trkpt lat="65.4938" lon="12.34658">
        <ele>11.241582</ele>
        <time>2020-07-16T09:05:21.797Z</time>
      </trkpt>
      <trkpt lat="65.49401" lon="12.34671">
        <ele>11.58858</ele>
        <time>2020-07-16T09:05:26.961Z</time>
      </trkpt>
      <trkpt lat="65.49443" lon="12.3469">
        <ele>12.312899</ele>
        <time>2020-07-16T09:05:36.498Z</time>
      </trkpt>
      <trkpt lat="65.49616" lon="12.34753">
        <ele>15.191824</ele>
        <time>2020-07-16T09:06:17.807Z</time>
      </trkpt>
      <trkpt lat="65.49644" lon="12.34769">
        <ele>15.579727</ele>
        <time>2020-07-16T09:06:24.448Z</time>
      </trkpt>
      <trkpt lat="65.49674" lon="12.34791">
        <ele>16.003949</ele>
        <time>2020-07-16T09:06:31.573Z</time>
      </trkpt>
      <trkpt lat="65.49709" lon="12.34808">
        <ele>16.474791</ele>
        <time>2020-07-16T09:06:39.258Z</time>
      </trkpt>
      <trkpt lat="65.49736" lon="12.34797">
        <ele>16.838897</ele>
        <time>2020-07-16T09:06:44.806Z</time>
      </trkpt>
      <trkpt lat="65.49743" lon="12.34784">
        <ele>16.952961</ele>
        <time>2020-07-16T09:06:46.932Z</time>
      </trkpt>
      <trkpt lat="65.49748" lon="12.34767">
        <ele>17.071393</ele>
        <time>2020-07-16T09:06:48.623Z</time>
      </trkpt>
      <trkpt lat="65.49754" lon="12.34667">
        <ele>17.33657</ele>
        <time>2020-07-16T09:06:57.434Z</time>
      </trkpt>
      <trkpt lat="65.49747" lon="12.34578">
        <ele>17.544815</ele>
        <time>2020-07-16T09:07:05.087Z</time>
      </trkpt>
      <trkpt lat="65.49724" lon="12.34453">
        <ele>17.859026</ele>
        <time>2020-07-16T09:07:16.255Z</time>
      </trkpt>
      <trkpt lat="65.49722" lon="12.3441">
        <ele>17.958748</ele>
        <time>2020-07-16T09:07:19.747Z</time>
      </trkpt>
      <trkpt lat="65.49726" lon="12.34375">
        <ele>18.042027</ele>
        <time>2020-07-16T09:07:22.318Z</time>
      </trkpt>
      <trkpt lat="65.4973" lon="12.34357">
        <ele>18.090289</ele>
        <time>2020-07-16T09:07:23.837Z</time>
      </trkpt>
      <trkpt lat="65.49735" lon="12.34342">
        <ele>18.115332</ele>
        <time>2020-07-16T09:07:25.520Z</time>
      </trkpt>
      <trkpt lat="65.49768" lon="12.34272">
        <ele>17.945647</ele>
        <time>2020-07-16T09:07:33.166Z</time>
      </trkpt>
      <trkpt lat="65.49798" lon="12.34174">
        <ele>17.748704</ele>
        <time>2020-07-16T09:07:41.733Z</time>
      </trkpt>
      <trkpt lat="65.49805" lon="12.34138">
        <ele>17.68404</ele>
        <time>2020-07-16T09:07:44.728Z</time>
      </trkpt>
      <trkpt lat="65.49818" lon="12.3407">
        <ele>17.561409</ele>
        <time>2020-07-16T09:07:49.948Z</time>
      </trkpt>
      <trkpt lat="65.49882" lon="12.33709">
        <ele>15.78166</ele>
        <time>2020-07-16T09:08:14.696Z</time>
      </trkpt>
      <trkpt lat="65.49908" lon="12.33597">
        <ele>15.093923</ele>
        <time>2020-07-16T09:08:22.421Z</time>
      </trkpt>
      <trkpt lat="65.4992" lon="12.33556">
        <ele>14.754868</ele>
        <time>2020-07-16T09:08:25.428Z</time>
      </trkpt>
      <trkpt lat="65.49941" lon="12.33494">
        <ele>14.216394</ele>
        <time>2020-07-16T09:08:30.242Z</time>
      </trkpt>
      <trkpt lat="65.49983" lon="12.33378">
        <ele>13.194894</ele>
        <time>2020-07-16T09:08:39.380Z</time>
      </trkpt>
      <trkpt lat="65.5003" lon="12.33244">
        <ele>12.112812</ele>
        <time>2020-07-16T09:08:49.983Z</time>
      </trkpt>
      <trkpt lat="65.50096" lon="12.33059">
        <ele>11.343516</ele>
        <time>2020-07-16T09:09:05.800Z</time>
      </trkpt>
      <trkpt lat="65.50137" lon="12.32941">
        <ele>10.859131</ele>
        <time>2020-07-16T09:09:16.552Z</time>
      </trkpt>
      <trkpt lat="65.50156" lon="12.32857">
        <ele>11.104801</ele>
        <time>2020-07-16T09:09:23.619Z</time>
      </trkpt>
      <trkpt lat="65.50167" lon="12.32781">
        <ele>11.363926</ele>
        <time>2020-07-16T09:09:30.188Z</time>
      </trkpt>
      <trkpt lat="65.50185" lon="12.32505">
        <ele>12.299827</ele>
        <time>2020-07-16T09:09:54.956Z</time>
      </trkpt>
      <trkpt lat="65.50188" lon="12.32466">
        <ele>12.559371</ele>
        <time>2020-07-16T09:09:58.676Z</time>
      </trkpt>
      <trkpt lat="65.50191" lon="12.32437">
        <ele>12.755406</ele>
        <time>2020-07-16T09:10:01.566Z</time>
      </trkpt>
      <trkpt lat="65.50418" lon="12.3165">
        <ele>18.325844</ele>
        <time>2020-07-16T09:11:34.014Z</time>
      </trkpt>
      <trkpt lat="65.50434" lon="12.31593">
        <ele>18.424363</ele>
        <time>2020-07-16T09:11:39.498Z</time>
      </trkpt>
      <trkpt lat="65.50492" lon="12.31398">
        <ele>18.426143</ele>
        <time>2020-07-16T09:11:55.341Z</time>
      </trkpt>
      <trkpt lat="65.50534" lon="12.31242">
        <ele>17.342566</ele>
        <time>2020-07-16T09:12:06.622Z</time>
      </trkpt>
      <trkpt lat="65.50541" lon="12.31206">
        <ele>17.111737</ele>
        <time>2020-07-16T09:12:08.899Z</time>
      </trkpt>
      <trkpt lat="65.50546" lon="12.31169">
        <ele>16.883338</ele>
        <time>2020-07-16T09:12:11.313Z</time>
      </trkpt>
      <trkpt lat="65.50552" lon="12.31073">
        <ele>16.322083</ele>
        <time>2020-07-16T09:12:17.190Z</time>
      </trkpt>
      <trkpt lat="65.50549" lon="12.30771">
        <ele>15.171412</ele>
        <time>2020-07-16T09:12:36.489Z</time>
      </trkpt>
      <trkpt lat="65.50544" lon="12.30366">
        <ele>13.665609</ele>
        <time>2020-07-16T09:13:04.499Z</time>
      </trkpt>
      <trkpt lat="65.50544" lon="12.30357">
        <ele>13.633723</ele>
        <time>2020-07-16T09:13:05.010Z</time>
      </trkpt>
      <trkpt lat="65.50541" lon="12.30288">
        <ele>13.37329</ele>
        <time>2020-07-16T09:13:09.448Z</time>
      </trkpt>
      <trkpt lat="65.50521" lon="12.30164">
        <ele>12.767655</ele>
        <time>2020-07-16T09:13:17.534Z</time>
      </trkpt>
      <trkpt lat="65.50412" lon="12.29735">
        <ele>9.370212</ele>
        <time>2020-07-16T09:13:47.021Z</time>
      </trkpt>
      <trkpt lat="65.50368" lon="12.29591">
        <ele>8.946761</ele>
        <time>2020-07-16T09:13:58.990Z</time>
      </trkpt>
      <trkpt lat="65.50291" lon="12.29404">
        <ele>9.042773</ele>
        <time>2020-07-16T09:14:20.002Z</time>
      </trkpt>
      <trkpt lat="65.50245" lon="12.29243">
        <ele>9.911224</ele>
        <time>2020-07-16T09:14:37.991Z</time>
      </trkpt>
      <trkpt lat="65.50211" lon="12.29195">
        <ele>10.335858</ele>
        <time>2020-07-16T09:14:46.728Z</time>
      </trkpt>
      <trkpt lat="65.50145" lon="12.29139">
        <ele>11.315279</ele>
        <time>2020-07-16T09:15:02.148Z</time>
      </trkpt>
      <trkpt lat="65.50086" lon="12.29046">
        <ele>12.351854</ele>
        <time>2020-07-16T09:15:17.918Z</time>
      </trkpt>
      <trkpt lat="65.50013" lon="12.28884">
        <ele>13.695111</ele>
        <time>2020-07-16T09:15:41.366Z</time>
      </trkpt>
      <trkpt lat="65.49863" lon="12.28617">
        <ele>14.605928</ele>
        <time>2020-07-16T09:16:20.907Z</time>
      </trkpt>
      <trkpt lat="65.4974" lon="12.28347">
        <ele>11.579329</ele>
        <time>2020-07-16T09:16:43.741Z</time>
      </trkpt>
      <trkpt lat="65.49656" lon="12.28197">
        <ele>8.026406</ele>
        <time>2020-07-16T09:16:56.918Z</time>
      </trkpt>
      <trkpt lat="65.49565" lon="12.27986">
        <ele>5.424034</ele>
        <time>2020-07-16T09:17:13.627Z</time>
      </trkpt>
      <trkpt lat="65.49536" lon="12.27902">
        <ele>4.752795</ele>
        <time>2020-07-16T09:17:20.455Z</time>
      </trkpt>
      <trkpt lat="65.49376" lon="12.27275">
        <ele>7.078675</ele>
        <time>2020-07-16T09:18:26.095Z</time>
      </trkpt>
      <trkpt lat="65.49282" lon="12.2683">
        <ele>9.273849</ele>
        <time>2020-07-16T09:19:13.137Z</time>
      </trkpt>
      <trkpt lat="65.49267" lon="12.26709">
        <ele>9.678413</ele>
        <time>2020-07-16T09:19:21.942Z</time>
      </trkpt>
      <trkpt lat="65.49266" lon="12.2667">
        <ele>9.801716</ele>
        <time>2020-07-16T09:19:24.847Z</time>
      </trkpt>
      <trkpt lat="65.49259" lon="12.2642">
        <ele>9.83194</ele>
        <time>2020-07-16T09:19:42.312Z</time>
      </trkpt>
      <trkpt lat="65.49262" lon="12.26328">
        <ele>9.828967</ele>
        <time>2020-07-16T09:19:49.131Z</time>
      </trkpt>
      <trkpt lat="65.4928" lon="12.26276">
        <ele>9.826781</ele>
        <time>2020-07-16T09:19:54.051Z</time>
      </trkpt>
      <trkpt lat="65.49343" lon="12.26277">
        <ele>10.501114</ele>
        <time>2020-07-16T09:20:07.399Z</time>
      </trkpt>
      <trkpt lat="65.49391" lon="12.26254">
        <ele>11.188961</ele>
        <time>2020-07-16T09:20:19.647Z</time>
      </trkpt>
      <trkpt lat="65.49433" lon="12.26256">
        <ele>11.768397</ele>
        <time>2020-07-16T09:20:29.432Z</time>
      </trkpt>
      <trkpt lat="65.49454" lon="12.26246">
        <ele>12.074099</ele>
        <time>2020-07-16T09:20:34.224Z</time>
      </trkpt>
      <trkpt lat="65.49493" lon="12.26204">
        <ele>12.368686</ele>
        <time>2020-07-16T09:20:43.597Z</time>
      </trkpt>
      <trkpt lat="65.49511" lon="12.26161">
        <ele>12.401692</ele>
        <time>2020-07-16T09:20:48.524Z</time>
      </trkpt>
      <trkpt lat="65.49518" lon="12.26125">
        <ele>12.423681</ele>
        <time>2020-07-16T09:20:52.051Z</time>
      </trkpt>
      <trkpt lat="65.4952" lon="12.26104">
        <ele>12.435275</ele>
        <time>2020-07-16T09:20:53.466Z</time>
      </trkpt>
      <trkpt lat="65.49522" lon="12.26073">
        <ele>12.452731</ele>
        <time>2020-07-16T09:20:56.003Z</time>
      </trkpt>
      <trkpt lat="65.49523" lon="12.26043">
        <ele>12.469516</ele>
        <time>2020-07-16T09:20:58.512Z</time>
      </trkpt>
      <trkpt lat="65.49523" lon="12.26002">
        <ele>12.491874</ele>
        <time>2020-07-16T09:21:01.207Z</time>
      </trkpt>
      <trkpt lat="65.4952" lon="12.25865">
        <ele>12.567413</ele>
        <time>2020-07-16T09:21:10.587Z</time>
      </trkpt>
      <trkpt lat="65.49517" lon="12.25759">
        <ele>12.266709</ele>
        <time>2020-07-16T09:21:17.200Z</time>
      </trkpt>
      <trkpt lat="65.49515" lon="12.25668">
        <ele>11.959113</ele>
        <time>2020-07-16T09:21:23.101Z</time>
      </trkpt>
      <trkpt lat="65.49514" lon="12.25491">
        <ele>11.36168</ele>
        <time>2020-07-16T09:21:34.826Z</time>
      </trkpt>
      <trkpt lat="65.4952" lon="12.25364">
        <ele>10.926318</ele>
        <time>2020-07-16T09:21:43.484Z</time>
      </trkpt>
      <trkpt lat="65.49522" lon="12.25352">
        <ele>10.884978</ele>
        <time>2020-07-16T09:21:44.278Z</time>
      </trkpt>
      <trkpt lat="65.49531" lon="12.25274">
        <ele>10.6046</ele>
        <time>2020-07-16T09:21:49.851Z</time>
      </trkpt>
      <trkpt lat="65.49537" lon="12.25227">
        <ele>10.436149</ele>
        <time>2020-07-16T09:21:53.112Z</time>
      </trkpt>
      <trkpt lat="65.49552" lon="12.25112">
        <ele>10.02421</ele>
        <time>2020-07-16T09:22:01.062Z</time>
      </trkpt>
      <trkpt lat="65.49562" lon="12.25009">
        <ele>9.663795</ele>
        <time>2020-07-16T09:22:07.622Z</time>
      </trkpt>
      <trkpt lat="65.49566" lon="12.24968">
        <ele>9.52738</ele>
        <time>2020-07-16T09:22:10.372Z</time>
      </trkpt>
      <trkpt lat="65.49568" lon="12.2493">
        <ele>9.407109</ele>
        <time>2020-07-16T09:22:12.800Z</time>
      </trkpt>
      <trkpt lat="65.49575" lon="12.24929">
        <ele>9.36072</ele>
        <time>2020-07-16T09:22:13.687Z</time>
      </trkpt>
      <trkpt lat="65.49581" lon="12.24873">
        <ele>9.176366</ele>
        <time>2020-07-16T09:22:17.660Z</time>
      </trkpt>
      <trkpt lat="65.49582" lon="12.24852">
        <ele>9.11146</ele>
        <time>2020-07-16T09:22:18.883Z</time>
      </trkpt>
      <trkpt lat="65.49583" lon="12.24795">
        <ele>8.93207</ele>
        <time>2020-07-16T09:22:22.780Z</time>
      </trkpt>
      <trkpt lat="65.49583" lon="12.24785">
        <ele>8.900701</ele>
        <time>2020-07-16T09:22:23.465Z</time>
      </trkpt>
      <trkpt lat="65.49585" lon="12.24779">
        <ele>8.876753</ele>
        <time>2020-07-16T09:22:23.914Z</time>
      </trkpt>
      <trkpt lat="65.49594" lon="12.24793">
        <ele>8.79101</ele>
        <time>2020-07-16T09:22:25.623Z</time>
      </trkpt>
      <trkpt lat="65.49603" lon="12.2481">
        <ele>8.706872</ele>
        <time>2020-07-16T09:22:27.557Z</time>
      </trkpt>
      <trkpt lat="65.49618" lon="12.24843">
        <ele>8.553863</ele>
        <time>2020-07-16T09:22:30.691Z</time>
      </trkpt>
      <trkpt lat="65.49666" lon="12.24925">
        <ele>8.309277</ele>
        <time>2020-07-16T09:22:40.718Z</time>
      </trkpt>
      <trkpt lat="65.49681" lon="12.24954">
        <ele>8.351011</ele>
        <time>2020-07-16T09:22:43.800Z</time>
      </trkpt>
      <trkpt lat="65.49681" lon="12.24954">
        <ele>8.351104</ele>
        <time>2020-07-16T09:22:43.807Z</time>
      </trkpt>
      <trkpt lat="65.49675" lon="12.2497">
        <ele>8.370616</ele>
        <time>2020-07-16T09:22:45.463Z</time>
      </trkpt>
      <trkpt lat="65.49722" lon="12.25069">
        <ele>8.509996</ele>
        <time>2020-07-16T09:22:56.946Z</time>
      </trkpt>
      <trkpt lat="65.49779" lon="12.25189">
        <ele>8.685588</ele>
        <time>2020-07-16T09:23:11.987Z</time>
      </trkpt>
      <trkpt lat="65.49794" lon="12.25222">
        <ele>8.749666</ele>
        <time>2020-07-16T09:23:16.046Z</time>
      </trkpt>
      <trkpt lat="65.49827" lon="12.25295">
        <ele>8.894457</ele>
        <time>2020-07-16T09:23:25.071Z</time>
      </trkpt>
      <trkpt lat="65.4992" lon="12.25481">
        <ele>9.243307</ele>
        <time>2020-07-16T09:23:47.251Z</time>
      </trkpt>
      <trkpt lat="65.49954" lon="12.25534">
        <ele>9.257845</ele>
        <time>2020-07-16T09:23:54.194Z</time>
      </trkpt>
      <trkpt lat="65.49979" lon="12.25567">
        <ele>9.268306</ele>
        <time>2020-07-16T09:23:59.239Z</time>
      </trkpt>
      <trkpt lat="65.50005" lon="12.25598">
        <ele>9.278869</ele>
        <time>2020-07-16T09:24:04.316Z</time>
      </trkpt>
      <trkpt lat="65.50029" lon="12.25627">
        <ele>9.288521</ele>
        <time>2020-07-16T09:24:09.011Z</time>
      </trkpt>
      <trkpt lat="65.50071" lon="12.25679">
        <ele>9.341285</ele>
        <time>2020-07-16T09:24:17.720Z</time>
      </trkpt>
      <trkpt lat="65.50127" lon="12.25749">
        <ele>9.890099</ele>
        <time>2020-07-16T09:24:29.575Z</time>
      </trkpt>
      <trkpt lat="65.50174" lon="12.25808">
        <ele>10.349934</ele>
        <time>2020-07-16T09:24:40.522Z</time>
      </trkpt>
      <trkpt lat="65.50213" lon="12.25858">
        <ele>10.734319</ele>
        <time>2020-07-16T09:24:50.305Z</time>
      </trkpt>
      <trkpt lat="65.50319" lon="12.25991">
        <ele>12.73225</ele>
        <time>2020-07-16T09:25:18.563Z</time>
      </trkpt>
      <trkpt lat="65.50353" lon="12.26037">
        <ele>13.429917</ele>
        <time>2020-07-16T09:25:27.995Z</time>
      </trkpt>
      <trkpt lat="65.50368" lon="12.26059">
        <ele>13.745199</ele>
        <time>2020-07-16T09:25:32.258Z</time>
      </trkpt>
      <trkpt lat="65.5038" lon="12.26077">
        <ele>13.986244</ele>
        <time>2020-07-16T09:25:35.483Z</time>
      </trkpt>
      <trkpt lat="65.50393" lon="12.26102">
        <ele>14.261239</ele>
        <time>2020-07-16T09:25:39.592Z</time>
      </trkpt>
      <trkpt lat="65.50409" lon="12.26132">
        <ele>14.557392</ele>
        <time>2020-07-16T09:25:44.343Z</time>
      </trkpt>
      <trkpt lat="65.50514" lon="12.26346">
        <ele>16.606284</ele>
        <time>2020-07-16T09:26:15.463Z</time>
      </trkpt>
      <trkpt lat="65.50548" lon="12.26403">
        <ele>16.944631</ele>
        <time>2020-07-16T09:26:24.067Z</time>
      </trkpt>
      <trkpt lat="65.50562" lon="12.26421">
        <ele>17.032138</ele>
        <time>2020-07-16T09:26:27.334Z</time>
      </trkpt>
      <trkpt lat="65.50575" lon="12.26435">
        <ele>17.111526</ele>
        <time>2020-07-16T09:26:30.088Z</time>
      </trkpt>
      <trkpt lat="65.50616" lon="12.26466">
        <ele>17.350078</ele>
        <time>2020-07-16T09:26:38.462Z</time>
      </trkpt>
      <trkpt lat="65.50739" lon="12.26519">
        <ele>17.868286</ele>
        <time>2020-07-16T09:27:01.590Z</time>
      </trkpt>
      <trkpt lat="65.50785" lon="12.26571">
        <ele>17.970953</ele>
        <time>2020-07-16T09:27:10.735Z</time>
      </trkpt>
      <trkpt lat="65.50848" lon="12.26663">
        <ele>18.119818</ele>
        <time>2020-07-16T09:27:24.559Z</time>
      </trkpt>
      <trkpt lat="65.50899" lon="12.26736">
        <ele>18.208209</ele>
        <time>2020-07-16T09:27:35.623Z</time>
      </trkpt>
      <trkpt lat="65.50964" lon="12.2683">
        <ele>18.317852</ele>
        <time>2020-07-16T09:27:49.931Z</time>
      </trkpt>
      <trkpt lat="65.51115" lon="12.27022">
        <ele>17.857717</ele>
        <time>2020-07-16T09:28:19.552Z</time>
      </trkpt>
      <trkpt lat="65.51282" lon="12.27136">
        <ele>16.631212</ele>
        <time>2020-07-16T09:28:46.477Z</time>
      </trkpt>
      <trkpt lat="65.51342" lon="12.27146">
        <ele>16.118685</ele>
        <time>2020-07-16T09:28:55.929Z</time>
      </trkpt>
      <trkpt lat="65.51523" lon="12.27089">
        <ele>15.410031</ele>
        <time>2020-07-16T09:29:26.554Z</time>
      </trkpt>
      <trkpt lat="65.51578" lon="12.27085">
        <ele>15.551611</ele>
        <time>2020-07-16T09:29:36.557Z</time>
      </trkpt>
      <trkpt lat="65.51649" lon="12.27125">
        <ele>15.772485</ele>
        <time>2020-07-16T09:29:50.334Z</time>
      </trkpt>
      <trkpt lat="65.51803" lon="12.27274">
        <ele>16.795078</ele>
        <time>2020-07-16T09:30:23.397Z</time>
      </trkpt>
      <trkpt lat="65.51835" lon="12.27304">
        <ele>17.061101</ele>
        <time>2020-07-16T09:30:31.286Z</time>
      </trkpt>
      <trkpt lat="65.51856" lon="12.27324">
        <ele>17.229539</ele>
        <time>2020-07-16T09:30:35.751Z</time>
      </trkpt>
      <trkpt lat="65.51868" lon="12.27337">
        <ele>17.329375</ele>
        <time>2020-07-16T09:30:38.762Z</time>
      </trkpt>
      <trkpt lat="65.51881" lon="12.27349">
        <ele>17.27094</ele>
        <time>2020-07-16T09:30:41.317Z</time>
      </trkpt>
      <trkpt lat="65.51896" lon="12.27368">
        <ele>17.196681</ele>
        <time>2020-07-16T09:30:44.788Z</time>
      </trkpt>
      <trkpt lat="65.51912" lon="12.27392">
        <ele>17.115704</ele>
        <time>2020-07-16T09:30:48.194Z</time>
      </trkpt>
      <trkpt lat="65.51943" lon="12.27444">
        <ele>16.952537</ele>
        <time>2020-07-16T09:30:54.777Z</time>
      </trkpt>
      <trkpt lat="65.51956" lon="12.2747">
        <ele>16.877372</ele>
        <time>2020-07-16T09:30:57.917Z</time>
      </trkpt>
      <trkpt lat="65.51974" lon="12.275">
        <ele>16.783898</ele>
        <time>2020-07-16T09:31:01.241Z</time>
      </trkpt>
      <trkpt lat="65.51999" lon="12.27527">
        <ele>16.663774</ele>
        <time>2020-07-16T09:31:05.638Z</time>
      </trkpt>
      <trkpt lat="65.52029" lon="12.2753">
        <ele>16.469358</ele>
        <time>2020-07-16T09:31:09.902Z</time>
      </trkpt>
      <trkpt lat="65.52152" lon="12.2742">
        <ele>13.414923</ele>
        <time>2020-07-16T09:31:27.742Z</time>
      </trkpt>
      <trkpt lat="65.52167" lon="12.27411">
        <ele>13.067374</ele>
        <time>2020-07-16T09:31:29.674Z</time>
      </trkpt>
      <trkpt lat="65.52183" lon="12.27403">
        <ele>12.680864</ele>
        <time>2020-07-16T09:31:32.087Z</time>
      </trkpt>
      <trkpt lat="65.52202" lon="12.27398">
        <ele>12.34109</ele>
        <time>2020-07-16T09:31:34.707Z</time>
      </trkpt>
      <trkpt lat="65.52246" lon="12.27393">
        <ele>12.092462</ele>
        <time>2020-07-16T09:31:41.177Z</time>
      </trkpt>
      <trkpt lat="65.52294" lon="12.27375">
        <ele>11.818496</ele>
        <time>2020-07-16T09:31:48.828Z</time>
      </trkpt>
      <trkpt lat="65.52346" lon="12.27305">
        <ele>11.478326</ele>
        <time>2020-07-16T09:31:59.845Z</time>
      </trkpt>
      <trkpt lat="65.52361" lon="12.27276">
        <ele>11.37298</ele>
        <time>2020-07-16T09:32:03.660Z</time>
      </trkpt>
      <trkpt lat="65.52371" lon="12.27253">
        <ele>11.436384</ele>
        <time>2020-07-16T09:32:06.833Z</time>
      </trkpt>
      <trkpt lat="65.52395" lon="12.27202">
        <ele>11.650549</ele>
        <time>2020-07-16T09:32:13.605Z</time>
      </trkpt>
      <trkpt lat="65.52433" lon="12.27144">
        <ele>11.956231</ele>
        <time>2020-07-16T09:32:23.076Z</time>
      </trkpt>
      <trkpt lat="65.52505" lon="12.27053">
        <ele>12.501172</ele>
        <time>2020-07-16T09:32:39.224Z</time>
      </trkpt>
      <trkpt lat="65.52527" lon="12.27026">
        <ele>12.469447</ele>
        <time>2020-07-16T09:32:43.735Z</time>
      </trkpt>
      <trkpt lat="65.5259" lon="12.26946">
        <ele>12.001132</ele>
        <time>2020-07-16T09:32:56.006Z</time>
      </trkpt>
      <trkpt lat="65.52651" lon="12.26886">
        <ele>11.56872</ele>
        <time>2020-07-16T09:33:06.120Z</time>
      </trkpt>
      <trkpt lat="65.527" lon="12.26869">
        <ele>10.975777</ele>
        <time>2020-07-16T09:33:13.368Z</time>
      </trkpt>
      <trkpt lat="65.53172" lon="12.26812">
        <ele>2.088549</ele>
        <time>2020-07-16T09:34:20.214Z</time>
      </trkpt>
      <trkpt lat="65.53281" lon="12.26825">
        <ele>0.903579</ele>
        <time>2020-07-16T09:34:36.962Z</time>
      </trkpt>
      <trkpt lat="65.53377" lon="12.26847">
        <ele>0.295754</ele>
        <time>2020-07-16T09:34:53.029Z</time>
      </trkpt>
      <trkpt lat="65.53438" lon="12.26861">
        <ele>0.154598</ele>
        <time>2020-07-16T09:35:03.753Z</time>
      </trkpt>
      <trkpt lat="65.53483" lon="12.26872">
        <ele>0.13671</ele>
        <time>2020-07-16T09:35:11.887Z</time>
      </trkpt>
      <trkpt lat="65.53521" lon="12.2688">
        <ele>0.121645</ele>
        <time>2020-07-16T09:35:18.765Z</time>
      </trkpt>
      <trkpt lat="65.53548" lon="12.26886">
        <ele>0.110917</ele>
        <time>2020-07-16T09:35:23.658Z</time>
      </trkpt>
      <trkpt lat="65.53583" lon="12.26895">
        <ele>0.101554</ele>
        <time>2020-07-16T09:35:29.861Z</time>
      </trkpt>
      <trkpt lat="65.53627" lon="12.26905">
        <ele>0.111375</ele>
        <time>2020-07-16T09:35:37.810Z</time>
      </trkpt>
      <trkpt lat="65.53668" lon="12.26914">
        <ele>0.120376</ele>
        <time>2020-07-16T09:35:45.092Z</time>
      </trkpt>
      <trkpt lat="65.53697" lon="12.2692">
        <ele>0.126677</ele>
        <time>2020-07-16T09:35:50.200Z</time>
      </trkpt>
      <trkpt lat="65.53736" lon="12.2693">
        <ele>0.135463</ele>
        <time>2020-07-16T09:35:57.260Z</time>
      </trkpt>
      <trkpt lat="65.53768" lon="12.2694">
        <ele>0.362718</ele>
        <time>2020-07-16T09:36:02.966Z</time>
      </trkpt>
      <trkpt lat="65.53807" lon="12.26952">
        <ele>0.998555</ele>
        <time>2020-07-16T09:36:10.085Z</time>
      </trkpt>
      <trkpt lat="65.53846" lon="12.26967">
        <ele>1.656171</ele>
        <time>2020-07-16T09:36:18.346Z</time>
      </trkpt>
      <trkpt lat="65.53934" lon="12.26996">
        <ele>3.12326</ele>
        <time>2020-07-16T09:36:39.784Z</time>
      </trkpt>
      <trkpt lat="65.54419" lon="12.27166">
        <ele>30.216637</ele>
        <time>2020-07-16T09:39:36.196Z</time>
      </trkpt>
      <trkpt lat="65.54456" lon="12.27188">
        <ele>32.445447</ele>
        <time>2020-07-16T09:39:51.366Z</time>
      </trkpt>
      <trkpt lat="65.545" lon="12.27213">
        <ele>34.071064</ele>
        <time>2020-07-16T09:40:08.019Z</time>
      </trkpt>
      <trkpt lat="65.54585" lon="12.27265">
        <ele>36.721074</ele>
        <time>2020-07-16T09:40:35.701Z</time>
      </trkpt>
      <trkpt lat="65.54652" lon="12.27304">
        <ele>38.010594</ele>
        <time>2020-07-16T09:40:48.075Z</time>
      </trkpt>
      <trkpt lat="65.54719" lon="12.27344">
        <ele>35.427144</ele>
        <time>2020-07-16T09:40:57.169Z</time>
      </trkpt>
      <trkpt lat="65.54833" lon="12.27415">
        <ele>30.997107</ele>
        <time>2020-07-16T09:41:11.319Z</time>
      </trkpt>
      <trkpt lat="65.54881" lon="12.27466">
        <ele>28.965241</ele>
        <time>2020-07-16T09:41:17.508Z</time>
      </trkpt>
      <trkpt lat="65.55017" lon="12.2771">
        <ele>25.248949</ele>
        <time>2020-07-16T09:41:40.123Z</time>
      </trkpt>
      <trkpt lat="65.55087" lon="12.27853">
        <ele>26.023728</ele>
        <time>2020-07-16T09:42:03.315Z</time>
      </trkpt>
      <trkpt lat="65.55106" lon="12.27899">
        <ele>26.248877</ele>
        <time>2020-07-16T09:42:11.390Z</time>
      </trkpt>
      <trkpt lat="65.55123" lon="12.27945">
        <ele>26.780202</ele>
        <time>2020-07-16T09:42:19.119Z</time>
      </trkpt>
      <trkpt lat="65.55136" lon="12.27983">
        <ele>27.206828</ele>
        <time>2020-07-16T09:42:24.536Z</time>
      </trkpt>
      <trkpt lat="65.55147" lon="12.28018">
        <ele>27.598191</ele>
        <time>2020-07-16T09:42:30.771Z</time>
      </trkpt>
      <trkpt lat="65.55164" lon="12.28075">
        <ele>28.210046</ele>
        <time>2020-07-16T09:42:39.011Z</time>
      </trkpt>
      <trkpt lat="65.55268" lon="12.2845">
        <ele>29.955726</ele>
        <time>2020-07-16T09:43:16.316Z</time>
      </trkpt>
      <trkpt lat="65.55294" lon="12.28578">
        <ele>29.893336</ele>
        <time>2020-07-16T09:43:25.250Z</time>
      </trkpt>
      <trkpt lat="65.55303" lon="12.28631">
        <ele>29.854735</ele>
        <time>2020-07-16T09:43:28.898Z</time>
      </trkpt>
      <trkpt lat="65.55329" lon="12.28777">
        <ele>29.35288</ele>
        <time>2020-07-16T09:43:39.277Z</time>
      </trkpt>
      <trkpt lat="65.55379" lon="12.2904">
        <ele>28.41247</ele>
        <time>2020-07-16T09:43:58.700Z</time>
      </trkpt>
      <trkpt lat="65.55411" lon="12.29136">
        <ele>27.81713</ele>
        <time>2020-07-16T09:44:06.844Z</time>
      </trkpt>
      <trkpt lat="65.55425" lon="12.29171">
        <ele>27.578726</ele>
        <time>2020-07-16T09:44:10.039Z</time>
      </trkpt>
      <trkpt lat="65.55495" lon="12.29328">
        <ele>26.469693</ele>
        <time>2020-07-16T09:44:24.324Z</time>
      </trkpt>
      <trkpt lat="65.55551" lon="12.29441">
        <ele>24.724913</ele>
        <time>2020-07-16T09:44:34.842Z</time>
      </trkpt>
      <trkpt lat="65.55712" lon="12.29703">
        <ele>18.756207</ele>
        <time>2020-07-16T09:45:00.551Z</time>
      </trkpt>
      <trkpt lat="65.5573" lon="12.29726">
        <ele>17.96178</ele>
        <time>2020-07-16T09:45:03.101Z</time>
      </trkpt>
      <trkpt lat="65.55746" lon="12.29743">
        <ele>17.283766</ele>
        <time>2020-07-16T09:45:05.235Z</time>
      </trkpt>
      <trkpt lat="65.55793" lon="12.29779">
        <ele>15.363818</ele>
        <time>2020-07-16T09:45:11.296Z</time>
      </trkpt>
      <trkpt lat="65.55821" lon="12.298">
        <ele>14.186132</ele>
        <time>2020-07-16T09:45:14.854Z</time>
      </trkpt>
      <trkpt lat="65.55838" lon="12.29812">
        <ele>13.466454</ele>
        <time>2020-07-16T09:45:16.920Z</time>
      </trkpt>
      <trkpt lat="65.55864" lon="12.29839">
        <ele>12.337991</ele>
        <time>2020-07-16T09:45:20.315Z</time>
      </trkpt>
      <trkpt lat="65.55911" lon="12.29917">
        <ele>10.016005</ele>
        <time>2020-07-16T09:45:27.447Z</time>
      </trkpt>
      <trkpt lat="65.55927" lon="12.29945">
        <ele>9.214978</ele>
        <time>2020-07-16T09:45:29.859Z</time>
      </trkpt>
      <trkpt lat="65.55998" lon="12.30076">
        <ele>7.151509</ele>
        <time>2020-07-16T09:45:42.129Z</time>
      </trkpt>
      <trkpt lat="65.56047" lon="12.30151">
        <ele>6.598212</ele>
        <time>2020-07-16T09:45:50.794Z</time>
      </trkpt>
      <trkpt lat="65.5613" lon="12.30217">
        <ele>6.10266</ele>
        <time>2020-07-16T09:46:07.843Z</time>
      </trkpt>
      <trkpt lat="65.56158" lon="12.30269">
        <ele>6.497906</ele>
        <time>2020-07-16T09:46:15.394Z</time>
      </trkpt>
      <trkpt lat="65.56213" lon="12.30392">
        <ele>7.341656</ele>
        <time>2020-07-16T09:46:32.099Z</time>
      </trkpt>
      <trkpt lat="65.56275" lon="12.30531">
        <ele>8.064324</ele>
        <time>2020-07-16T09:46:50.603Z</time>
      </trkpt>
      <trkpt lat="65.56302" lon="12.30586">
        <ele>8.204789</ele>
        <time>2020-07-16T09:46:57.816Z</time>
      </trkpt>
      <trkpt lat="65.56334" lon="12.30627">
        <ele>8.349661</ele>
        <time>2020-07-16T09:47:04.838Z</time>
      </trkpt>
      <trkpt lat="65.56342" lon="12.30635">
        <ele>8.383255</ele>
        <time>2020-07-16T09:47:06.641Z</time>
      </trkpt>
      <trkpt lat="65.56352" lon="12.30643">
        <ele>8.425685</ele>
        <time>2020-07-16T09:47:08.364Z</time>
      </trkpt>
      <trkpt lat="65.56415" lon="12.30664">
        <ele>8.624118</ele>
        <time>2020-07-16T09:47:19.483Z</time>
      </trkpt>
      <trkpt lat="65.56453" lon="12.3065">
        <ele>8.397415</ele>
        <time>2020-07-16T09:47:25.669Z</time>
      </trkpt>
      <trkpt lat="65.56678" lon="12.30441">
        <ele>7.443522</ele>
        <time>2020-07-16T09:48:04.470Z</time>
      </trkpt>
      <trkpt lat="65.56714" lon="12.30423">
        <ele>7.389733</ele>
        <time>2020-07-16T09:48:11.376Z</time>
      </trkpt>
      <trkpt lat="65.56739" lon="12.30424">
        <ele>7.352788</ele>
        <time>2020-07-16T09:48:16.311Z</time>
      </trkpt>
      <trkpt lat="65.56752" lon="12.30429">
        <ele>7.334077</ele>
        <time>2020-07-16T09:48:18.823Z</time>
      </trkpt>
      <trkpt lat="65.56768" lon="12.30438">
        <ele>7.502364</ele>
        <time>2020-07-16T09:48:22.318Z</time>
      </trkpt>
      <trkpt lat="65.56809" lon="12.3048">
        <ele>7.957605</ele>
        <time>2020-07-16T09:48:31.458Z</time>
      </trkpt>
      <trkpt lat="65.56849" lon="12.30541">
        <ele>8.44252</ele>
        <time>2020-07-16T09:48:41.651Z</time>
      </trkpt>
      <trkpt lat="65.56862" lon="12.30561">
        <ele>8.601798</ele>
        <time>2020-07-16T09:48:45.150Z</time>
      </trkpt>
      <trkpt lat="65.56929" lon="12.30666">
        <ele>9.426677</ele>
        <time>2020-07-16T09:49:02.600Z</time>
      </trkpt>
      <trkpt lat="65.56963" lon="12.30707">
        <ele>9.810757</ele>
        <time>2020-07-16T09:49:10.604Z</time>
      </trkpt>
      <trkpt lat="65.5701" lon="12.30732">
        <ele>10.308573</ele>
        <time>2020-07-16T09:49:20.721Z</time>
      </trkpt>
      <trkpt lat="65.5704" lon="12.30732">
        <ele>10.615888</ele>
        <time>2020-07-16T09:49:26.905Z</time>
      </trkpt>
      <trkpt lat="65.57084" lon="12.30706">
        <ele>11.07837</ele>
        <time>2020-07-16T09:49:36.376Z</time>
      </trkpt>
      <trkpt lat="65.57155" lon="12.30648">
        <ele>11.723075</ele>
        <time>2020-07-16T09:49:51.672Z</time>
      </trkpt>
      <trkpt lat="65.57186" lon="12.30621">
        <ele>12.015144</ele>
        <time>2020-07-16T09:49:58.615Z</time>
      </trkpt>
      <trkpt lat="65.57293" lon="12.30531">
        <ele>13.022304</ele>
        <time>2020-07-16T09:50:22.049Z</time>
      </trkpt>
      <trkpt lat="65.57592" lon="12.3028">
        <ele>15.92338</ele>
        <time>2020-07-16T09:51:28.070Z</time>
      </trkpt>
      <trkpt lat="65.57709" lon="12.30179">
        <ele>16.617112</ele>
        <time>2020-07-16T09:51:52.715Z</time>
      </trkpt>
      <trkpt lat="65.5774" lon="12.30153">
        <ele>16.801067</ele>
        <time>2020-07-16T09:51:58.975Z</time>
      </trkpt>
      <trkpt lat="65.57777" lon="12.30122">
        <ele>16.830422</ele>
        <time>2020-07-16T09:52:06.242Z</time>
      </trkpt>
      <trkpt lat="65.57801" lon="12.30101">
        <ele>16.729962</ele>
        <time>2020-07-16T09:52:10.942Z</time>
      </trkpt>
      <trkpt lat="65.57835" lon="12.30074">
        <ele>16.58837</ele>
        <time>2020-07-16T09:52:17.483Z</time>
      </trkpt>
      <trkpt lat="65.57868" lon="12.30047">
        <ele>16.451572</ele>
        <time>2020-07-16T09:52:23.481Z</time>
      </trkpt>
      <trkpt lat="65.57915" lon="12.30029">
        <ele>16.265618</ele>
        <time>2020-07-16T09:52:30.846Z</time>
      </trkpt>
      <trkpt lat="65.57952" lon="12.30031">
        <ele>15.506959</ele>
        <time>2020-07-16T09:52:36.375Z</time>
      </trkpt>
      <trkpt lat="65.57998" lon="12.30044">
        <ele>13.918548</ele>
        <time>2020-07-16T09:52:43.048Z</time>
      </trkpt>
      <trkpt lat="65.58056" lon="12.30061">
        <ele>11.892802</ele>
        <time>2020-07-16T09:52:50.465Z</time>
      </trkpt>
      <trkpt lat="65.58134" lon="12.30082">
        <ele>9.015424</ele>
        <time>2020-07-16T09:52:59.899Z</time>
      </trkpt>
      <trkpt lat="65.58157" lon="12.30087">
        <ele>8.048193</ele>
        <time>2020-07-16T09:53:02.711Z</time>
      </trkpt>
      <trkpt lat="65.58172" lon="12.301">
        <ele>7.386752</ele>
        <time>2020-07-16T09:53:04.541Z</time>
      </trkpt>
      <trkpt lat="65.58188" lon="12.30114">
        <ele>6.650774</ele>
        <time>2020-07-16T09:53:06.783Z</time>
      </trkpt>
      <trkpt lat="65.582" lon="12.30124">
        <ele>6.111772</ele>
        <time>2020-07-16T09:53:08.292Z</time>
      </trkpt>
      <trkpt lat="65.58208" lon="12.30128">
        <ele>5.758893</ele>
        <time>2020-07-16T09:53:09.309Z</time>
      </trkpt>
      <trkpt lat="65.58252" lon="12.30134">
        <ele>3.898362</ele>
        <time>2020-07-16T09:53:14.898Z</time>
      </trkpt>
      <trkpt lat="65.58288" lon="12.30138">
        <ele>2.403322</ele>
        <time>2020-07-16T09:53:19.458Z</time>
      </trkpt>
      <trkpt lat="65.58298" lon="12.30141">
        <ele>2.281748</ele>
        <time>2020-07-16T09:53:20.860Z</time>
      </trkpt>
      <trkpt lat="65.58302" lon="12.30144">
        <ele>2.231049</ele>
        <time>2020-07-16T09:53:21.387Z</time>
      </trkpt>
      <trkpt lat="65.58305" lon="12.3015">
        <ele>2.184141</ele>
        <time>2020-07-16T09:53:21.881Z</time>
      </trkpt>
      <trkpt lat="65.58314" lon="12.30187">
        <ele>1.982373</ele>
        <time>2020-07-16T09:53:24.379Z</time>
      </trkpt>
      <trkpt lat="65.58321" lon="12.3022">
        <ele>1.803817</ele>
        <time>2020-07-16T09:53:26.607Z</time>
      </trkpt>
      <trkpt lat="65.58338" lon="12.30297">
        <ele>1.389865</ele>
        <time>2020-07-16T09:53:31.620Z</time>
      </trkpt>
      <trkpt lat="65.58353" lon="12.30366">
        <ele>1.018062</ele>
        <time>2020-07-16T09:53:36.123Z</time>
      </trkpt>
      <trkpt lat="65.5842" lon="12.30547">
        <ele>0.289481</ele>
        <time>2020-07-16T09:53:50.083Z</time>
      </trkpt>
      <trkpt lat="65.58445" lon="12.3065">
        <ele>0.228249</ele>
        <time>2020-07-16T09:53:57.027Z</time>
      </trkpt>
      <trkpt lat="65.58473" lon="12.30852">
        <ele>0.120259</ele>
        <time>2020-07-16T09:54:09.279Z</time>
      </trkpt>
      <trkpt lat="65.58502" lon="12.31771">
        <ele>0.007855</ele>
        <time>2020-07-16T09:55:02.438Z</time>
      </trkpt>
      <trkpt lat="65.58455" lon="12.32471">
        <time>2020-07-16T09:55:43.353Z</time>
      </trkpt>
      <trkpt lat="65.57672" lon="12.37661">
        <time>2020-07-16T10:01:02.090Z</time>
      </trkpt>
      <trkpt lat="65.57562" lon="12.3866">
        <time>2020-07-16T10:02:01.701Z</time>
      </trkpt>
      <trkpt lat="65.57557" lon="12.3898">
        <time>2020-07-16T10:02:20.178Z</time>
      </trkpt>
      <trkpt lat="65.57571" lon="12.39205">
        <ele>0.035753</ele>
        <time>2020-07-16T10:02:33.273Z</time>
      </trkpt>
      <trkpt lat="65.57599" lon="12.39379">
        <ele>0.233634</ele>
        <time>2020-07-16T10:02:44.025Z</time>
      </trkpt>
      <trkpt lat="65.57642" lon="12.39481">
        <ele>0.389693</ele>
        <time>2020-07-16T10:02:52.491Z</time>
      </trkpt>
      <trkpt lat="65.5768" lon="12.39537">
        <ele>0.705546</ele>
        <time>2020-07-16T10:02:58.627Z</time>
      </trkpt>
      <trkpt lat="65.57736" lon="12.39554">
        <ele>1.58441</ele>
        <time>2020-07-16T10:03:06.571Z</time>
      </trkpt>
      <trkpt lat="65.57778" lon="12.3951">
        <ele>2.281166</ele>
        <time>2020-07-16T10:03:12.876Z</time>
      </trkpt>
      <trkpt lat="65.578" lon="12.39415">
        <ele>2.978002</ele>
        <time>2020-07-16T10:03:19.187Z</time>
      </trkpt>
      <trkpt lat="65.57816" lon="12.39194">
        <ele>4.268449</ele>
        <time>2020-07-16T10:03:32.153Z</time>
      </trkpt>
      <trkpt lat="65.5782" lon="12.39158">
        <ele>4.478084</ele>
        <time>2020-07-16T10:03:35.700Z</time>
      </trkpt>
      <trkpt lat="65.57822" lon="12.39124">
        <ele>4.671399</ele>
        <time>2020-07-16T10:03:39.185Z</time>
      </trkpt>
      <trkpt lat="65.57842" lon="12.38849">
        <ele>5.271324</ele>
        <time>2020-07-16T10:04:01.256Z</time>
      </trkpt>
      <trkpt lat="65.5787" lon="12.38608">
        <ele>4.265272</ele>
        <time>2020-07-16T10:04:16.411Z</time>
      </trkpt>
      <trkpt lat="65.5788" lon="12.38552">
        <ele>4.022991</ele>
        <time>2020-07-16T10:04:20.022Z</time>
      </trkpt>
      <trkpt lat="65.57882" lon="12.38541">
        <ele>3.973695</ele>
        <time>2020-07-16T10:04:20.793Z</time>
      </trkpt>
      <trkpt lat="65.57914" lon="12.38404">
        <ele>3.878717</ele>
        <time>2020-07-16T10:04:30.971Z</time>
      </trkpt>
      <trkpt lat="65.57933" lon="12.38356">
        <ele>3.856198</ele>
        <time>2020-07-16T10:04:35.958Z</time>
      </trkpt>
      <trkpt lat="65.57978" lon="12.38305">
        <ele>3.815129</ele>
        <time>2020-07-16T10:04:45.262Z</time>
      </trkpt>
      <trkpt lat="65.58035" lon="12.38281">
        <ele>3.771234</ele>
        <time>2020-07-16T10:04:57.143Z</time>
      </trkpt>
      <trkpt lat="65.58097" lon="12.38267">
        <ele>3.73437</ele>
        <time>2020-07-16T10:05:10.033Z</time>
      </trkpt>
      <trkpt lat="65.58107" lon="12.38262">
        <ele>3.728517</ele>
        <time>2020-07-16T10:05:11.470Z</time>
      </trkpt>
      <trkpt lat="65.58127" lon="12.38232">
        <ele>3.714349</ele>
        <time>2020-07-16T10:05:16.228Z</time>
      </trkpt>
      <trkpt lat="65.58138" lon="12.38191">
        <ele>3.702602</ele>
        <time>2020-07-16T10:05:19.341Z</time>
      </trkpt>
      <trkpt lat="65.5814" lon="12.38148">
        <ele>3.691984</ele>
        <time>2020-07-16T10:05:22.595Z</time>
      </trkpt>
      <trkpt lat="65.58129" lon="12.38047">
        <ele>3.500015</ele>
        <time>2020-07-16T10:05:29.105Z</time>
      </trkpt>
      <trkpt lat="65.58128" lon="12.37987">
        <ele>3.165062</ele>
        <time>2020-07-16T10:05:32.823Z</time>
      </trkpt>
      <trkpt lat="65.58137" lon="12.37884">
        <ele>2.573611</ele>
        <time>2020-07-16T10:05:38.909Z</time>
      </trkpt>
      <trkpt lat="65.58155" lon="12.37768">
        <ele>1.875603</ele>
        <time>2020-07-16T10:05:46.464Z</time>
      </trkpt>
      <trkpt lat="65.58178" lon="12.37659">
        <ele>1.228062</ele>
        <time>2020-07-16T10:05:54.220Z</time>
      </trkpt>
      <trkpt lat="65.58193" lon="12.37608">
        <ele>1.166188</ele>
        <time>2020-07-16T10:05:58.321Z</time>
      </trkpt>
      <trkpt lat="65.58217" lon="12.37554">
        <ele>1.087759</ele>
        <time>2020-07-16T10:06:03.704Z</time>
      </trkpt>
      <trkpt lat="65.58241" lon="12.37517">
        <ele>1.017943</ele>
        <time>2020-07-16T10:06:08.700Z</time>
      </trkpt>
      <trkpt lat="65.58283" lon="12.37499">
        <ele>0.917348</ele>
        <time>2020-07-16T10:06:16.278Z</time>
      </trkpt>
      <trkpt lat="65.58386" lon="12.37523">
        <ele>0.98878</ele>
        <time>2020-07-16T10:06:35.622Z</time>
      </trkpt>
      <trkpt lat="65.58421" lon="12.37517">
        <ele>1.101763</ele>
        <time>2020-07-16T10:06:42.016Z</time>
      </trkpt>
      <trkpt lat="65.58468" lon="12.37463">
        <ele>1.270712</ele>
        <time>2020-07-16T10:06:51.422Z</time>
      </trkpt>
      <trkpt lat="65.58581" lon="12.37277">
        <ele>3.113415</ele>
        <time>2020-07-16T10:07:19.511Z</time>
      </trkpt>
      <trkpt lat="65.5862" lon="12.37249">
        <ele>3.808358</ele>
        <time>2020-07-16T10:07:29.582Z</time>
      </trkpt>
      <trkpt lat="65.5867" lon="12.37233">
        <ele>4.811847</ele>
        <time>2020-07-16T10:07:43.373Z</time>
      </trkpt>
      <trkpt lat="65.58708" lon="12.37227">
        <ele>5.949546</ele>
        <time>2020-07-16T10:07:54.944Z</time>
      </trkpt>
      <trkpt lat="65.58732" lon="12.37235">
        <ele>6.643192</ele>
        <time>2020-07-16T10:08:02.912Z</time>
      </trkpt>
      <trkpt lat="65.58807" lon="12.37361">
        <ele>9.321505</ele>
        <time>2020-07-16T10:08:28.265Z</time>
      </trkpt>
      <trkpt lat="65.58843" lon="12.37385">
        <ele>9.495203</ele>
        <time>2020-07-16T10:08:36.885Z</time>
      </trkpt>
      <trkpt lat="65.58847" lon="12.37385">
        <ele>9.449456</ele>
        <time>2020-07-16T10:08:39.287Z</time>
      </trkpt>
      <trkpt lat="65.58862" lon="12.37379">
        <ele>9.279419</ele>
        <time>2020-07-16T10:08:41.363Z</time>
      </trkpt>
      <trkpt lat="65.59043" lon="12.3721">
        <ele>6.363931</ele>
        <time>2020-07-16T10:09:08.324Z</time>
      </trkpt>
      <trkpt lat="65.59084" lon="12.37196">
        <ele>5.364629</ele>
        <time>2020-07-16T10:09:13.736Z</time>
      </trkpt>
      <trkpt lat="65.59179" lon="12.37183">
        <ele>3.256806</ele>
        <time>2020-07-16T10:09:26.794Z</time>
      </trkpt>
      <trkpt lat="65.59466" lon="12.37006">
        <ele>1.022727</ele>
        <time>2020-07-16T10:10:13.984Z</time>
      </trkpt>
      <trkpt lat="65.59499" lon="12.36993">
        <ele>0.88262</ele>
        <time>2020-07-16T10:10:20.018Z</time>
      </trkpt>
      <trkpt lat="65.59605" lon="12.36982">
        <ele>1.423396</ele>
        <time>2020-07-16T10:10:40.887Z</time>
      </trkpt>
      <trkpt lat="65.59677" lon="12.36995">
        <ele>1.912787</ele>
        <time>2020-07-16T10:10:55.937Z</time>
      </trkpt>
      <trkpt lat="65.59708" lon="12.37025">
        <ele>2.11176</ele>
        <time>2020-07-16T10:11:03.048Z</time>
      </trkpt>
      <trkpt lat="65.59779" lon="12.37147">
        <ele>2.517767</ele>
        <time>2020-07-16T10:11:20.949Z</time>
      </trkpt>
      <trkpt lat="65.59805" lon="12.37164">
        <ele>2.643077</ele>
        <time>2020-07-16T10:11:26.074Z</time>
      </trkpt>
      <trkpt lat="65.59831" lon="12.37161">
        <ele>2.762406</ele>
        <time>2020-07-16T10:11:30.765Z</time>
      </trkpt>
      <trkpt lat="65.59883" lon="12.371">
        <ele>2.648797</ele>
        <time>2020-07-16T10:11:40.656Z</time>
      </trkpt>
      <trkpt lat="65.59981" lon="12.36942">
        <ele>1.823318</ele>
        <time>2020-07-16T10:11:59.056Z</time>
      </trkpt>
      <trkpt lat="65.60024" lon="12.36894">
        <ele>1.537352</ele>
        <time>2020-07-16T10:12:06.460Z</time>
      </trkpt>
      <trkpt lat="65.60073" lon="12.36858">
        <ele>1.319476</ele>
        <time>2020-07-16T10:12:14.554Z</time>
      </trkpt>
      <trkpt lat="65.60348" lon="12.36689">
        <ele>0.675597</ele>
        <time>2020-07-16T10:13:03.992Z</time>
      </trkpt>
      <trkpt lat="65.60469" lon="12.36614">
        <ele>0.916174</ele>
        <time>2020-07-16T10:13:26.793Z</time>
      </trkpt>
      <trkpt lat="65.60551" lon="12.36571">
        <ele>1.249535</ele>
        <time>2020-07-16T10:13:42.752Z</time>
      </trkpt>
      <trkpt lat="65.60596" lon="12.36566">
        <ele>1.670005</ele>
        <time>2020-07-16T10:13:51.697Z</time>
      </trkpt>
      <trkpt lat="65.60613" lon="12.36564">
        <ele>1.82733</ele>
        <time>2020-07-16T10:13:55.081Z</time>
      </trkpt>
      <trkpt lat="65.60646" lon="12.36562">
        <ele>2.128064</ele>
        <time>2020-07-16T10:14:01.677Z</time>
      </trkpt>
      <trkpt lat="65.60944" lon="12.36559">
        <ele>7.696043</ele>
        <time>2020-07-16T10:15:09.936Z</time>
      </trkpt>
      <trkpt lat="65.61008" lon="12.36578">
        <ele>10.100058</ele>
        <time>2020-07-16T10:15:28.788Z</time>
      </trkpt>
      <trkpt lat="65.61242" lon="12.36683">
        <ele>22.681299</ele>
        <time>2020-07-16T10:16:56.935Z</time>
      </trkpt>
      <trkpt lat="65.61289" lon="12.36705">
        <ele>24.141808</ele>
        <time>2020-07-16T10:17:13.746Z</time>
      </trkpt>
      <trkpt lat="65.61405" lon="12.36757">
        <ele>27.560125</ele>
        <time>2020-07-16T10:17:44.990Z</time>
      </trkpt>
      <trkpt lat="65.61569" lon="12.3683">
        <ele>27.415772</ele>
        <time>2020-07-16T10:18:11.204Z</time>
      </trkpt>
      <trkpt lat="65.61701" lon="12.36891">
        <ele>26.723268</ele>
        <time>2020-07-16T10:18:34.179Z</time>
      </trkpt>
      <trkpt lat="65.61746" lon="12.36912">
        <ele>26.471186</ele>
        <time>2020-07-16T10:18:42.189Z</time>
      </trkpt>
      <trkpt lat="65.61789" lon="12.3693">
        <ele>25.784656</ele>
        <time>2020-07-16T10:18:48.912Z</time>
      </trkpt>
      <trkpt lat="65.61865" lon="12.3694">
        <ele>23.01028</ele>
        <time>2020-07-16T10:18:59.366Z</time>
      </trkpt>
      <trkpt lat="65.61981" lon="12.36917">
        <ele>18.099969</ele>
        <time>2020-07-16T10:19:13.402Z</time>
      </trkpt>
      <trkpt lat="65.62027" lon="12.36881">
        <ele>15.223389</ele>
        <time>2020-07-16T10:19:18.898Z</time>
      </trkpt>
      <trkpt lat="65.6214" lon="12.36746">
        <ele>8.270675</ele>
        <time>2020-07-16T10:19:33.688Z</time>
      </trkpt>
      <trkpt lat="65.62189" lon="12.36718">
        <ele>6.753182</ele>
        <time>2020-07-16T10:19:39.983Z</time>
      </trkpt>
      <trkpt lat="65.62265" lon="12.36725">
        <ele>4.472401</ele>
        <time>2020-07-16T10:19:50.278Z</time>
      </trkpt>
      <trkpt lat="65.62541" lon="12.36807">
        <ele>4.344041</ele>
        <time>2020-07-16T10:20:41.805Z</time>
      </trkpt>
      <trkpt lat="65.62768" lon="12.36871">
        <ele>7.609485</ele>
        <time>2020-07-16T10:21:33.511Z</time>
      </trkpt>
      <trkpt lat="65.62794" lon="12.36878">
        <ele>8.089745</ele>
        <time>2020-07-16T10:21:40.313Z</time>
      </trkpt>
      <trkpt lat="65.62828" lon="12.3689">
        <ele>8.726106</ele>
        <time>2020-07-16T10:21:49.326Z</time>
      </trkpt>
      <trkpt lat="65.62867" lon="12.36905">
        <ele>9.311555</ele>
        <time>2020-07-16T10:21:59.786Z</time>
      </trkpt>
      <trkpt lat="65.6331" lon="12.37172">
        <ele>14.674603</ele>
        <time>2020-07-16T10:23:39.932Z</time>
      </trkpt>
      <trkpt lat="65.63339" lon="12.3719">
        <ele>14.826465</ele>
        <time>2020-07-16T10:23:44.509Z</time>
      </trkpt>
      <trkpt lat="65.63395" lon="12.37224">
        <ele>14.143797</ele>
        <time>2020-07-16T10:23:53.130Z</time>
      </trkpt>
      <trkpt lat="65.63765" lon="12.37457">
        <ele>6.826239</ele>
        <time>2020-07-16T10:24:46.048Z</time>
      </trkpt>
      <trkpt lat="65.64133" lon="12.37739">
        <ele>5.117381</ele>
        <time>2020-07-16T10:25:53.835Z</time>
      </trkpt>
      <trkpt lat="65.6434" lon="12.37798">
        <ele>3.303467</ele>
        <time>2020-07-16T10:26:25.644Z</time>
      </trkpt>
      <trkpt lat="65.64609" lon="12.37946">
        <ele>1.189431</ele>
        <time>2020-07-16T10:27:08.874Z</time>
      </trkpt>
      <trkpt lat="65.64651" lon="12.37968">
        <ele>1.328662</ele>
        <time>2020-07-16T10:27:16.422Z</time>
      </trkpt>
      <trkpt lat="65.64755" lon="12.38026">
        <ele>1.738247</ele>
        <time>2020-07-16T10:27:37.827Z</time>
      </trkpt>
      <trkpt lat="65.64773" lon="12.38036">
        <ele>2.254209</ele>
        <time>2020-07-16T10:27:42.182Z</time>
      </trkpt>
      <trkpt lat="65.64822" lon="12.38064">
        <ele>3.620783</ele>
        <time>2020-07-16T10:27:54.428Z</time>
      </trkpt>
      <trkpt lat="65.64905" lon="12.38111">
        <ele>5.919754</ele>
        <time>2020-07-16T10:28:18.055Z</time>
      </trkpt>
      <trkpt lat="65.64976" lon="12.3815">
        <ele>8.519085</ele>
        <time>2020-07-16T10:28:40.947Z</time>
      </trkpt>
      <trkpt lat="65.65063" lon="12.382">
        <ele>12.085513</ele>
        <time>2020-07-16T10:29:10.393Z</time>
      </trkpt>
      <trkpt lat="65.65121" lon="12.38223">
        <ele>13.784682</ele>
        <time>2020-07-16T10:29:26.992Z</time>
      </trkpt>
      <trkpt lat="65.65202" lon="12.38238">
        <ele>14.301881</ele>
        <time>2020-07-16T10:29:45.643Z</time>
      </trkpt>
      <trkpt lat="65.65251" lon="12.38247">
        <ele>14.612507</ele>
        <time>2020-07-16T10:29:53.559Z</time>
      </trkpt>
      <trkpt lat="65.65306" lon="12.38269">
        <ele>14.11315</ele>
        <time>2020-07-16T10:30:01.665Z</time>
      </trkpt>
      <trkpt lat="65.65351" lon="12.38304">
        <ele>12.759968</ele>
        <time>2020-07-16T10:30:07.940Z</time>
      </trkpt>
      <trkpt lat="65.65625" lon="12.3861">
        <ele>4.061139</ele>
        <time>2020-07-16T10:30:47.293Z</time>
      </trkpt>
      <trkpt lat="65.65888" lon="12.38902">
        <ele>1.322004</ele>
        <time>2020-07-16T10:31:32.802Z</time>
      </trkpt>
      <trkpt lat="65.65908" lon="12.38925">
        <ele>1.206288</ele>
        <time>2020-07-16T10:31:36.647Z</time>
      </trkpt>
      <trkpt lat="65.66062" lon="12.39129">
        <ele>1.571022</ele>
        <time>2020-07-16T10:32:09.250Z</time>
      </trkpt>
      <trkpt lat="65.66274" lon="12.39463">
        <ele>3.814965</ele>
        <time>2020-07-16T10:33:01.962Z</time>
      </trkpt>
      <trkpt lat="65.66353" lon="12.39588">
        <ele>4.951911</ele>
        <time>2020-07-16T10:33:22.580Z</time>
      </trkpt>
      <trkpt lat="65.66407" lon="12.39666">
        <ele>5.737574</ele>
        <time>2020-07-16T10:33:36.524Z</time>
      </trkpt>
      <trkpt lat="65.66463" lon="12.39745">
        <ele>6.654226</ele>
        <time>2020-07-16T10:33:50.860Z</time>
      </trkpt>
      <trkpt lat="65.66687" lon="12.4006">
        <ele>10.64083</ele>
        <time>2020-07-16T10:34:49.393Z</time>
      </trkpt>
      <trkpt lat="65.66842" lon="12.40279">
        <ele>14.336987</ele>
        <time>2020-07-16T10:35:34.102Z</time>
      </trkpt>
      <trkpt lat="65.66846" lon="12.40284">
        <ele>14.438748</ele>
        <time>2020-07-16T10:35:35.318Z</time>
      </trkpt>
      <trkpt lat="65.66994" lon="12.40494">
        <ele>17.367111</ele>
        <time>2020-07-16T10:36:16.803Z</time>
      </trkpt>
      <trkpt lat="65.6713" lon="12.40686">
        <ele>17.61825</ele>
        <time>2020-07-16T10:36:46.870Z</time>
      </trkpt>
      <trkpt lat="65.67212" lon="12.40799">
        <ele>16.376585</ele>
        <time>2020-07-16T10:37:00.520Z</time>
      </trkpt>
      <trkpt lat="65.67239" lon="12.40832">
        <ele>15.558953</ele>
        <time>2020-07-16T10:37:04.623Z</time>
      </trkpt>
      <trkpt lat="65.67311" lon="12.40882">
        <ele>13.520098</ele>
        <time>2020-07-16T10:37:14.552Z</time>
      </trkpt>
      <trkpt lat="65.67416" lon="12.409">
        <ele>10.225838</ele>
        <time>2020-07-16T10:37:27.915Z</time>
      </trkpt>
      <trkpt lat="65.67516" lon="12.40905">
        <ele>6.905175</ele>
        <time>2020-07-16T10:37:40.876Z</time>
      </trkpt>
      <trkpt lat="65.67646" lon="12.40887">
        <ele>3.893439</ele>
        <time>2020-07-16T10:37:58.688Z</time>
      </trkpt>
      <trkpt lat="65.67663" lon="12.4089">
        <ele>3.510262</ele>
        <time>2020-07-16T10:38:01.081Z</time>
      </trkpt>
      <trkpt lat="65.67673" lon="12.40891">
        <ele>3.293979</ele>
        <time>2020-07-16T10:38:02.545Z</time>
      </trkpt>
      <trkpt lat="65.67675" lon="12.40892">
        <ele>3.248561</ele>
        <time>2020-07-16T10:38:02.838Z</time>
      </trkpt>
      <trkpt lat="65.67726" lon="12.40923">
        <ele>2.436937</ele>
        <time>2020-07-16T10:38:10.755Z</time>
      </trkpt>
      <trkpt lat="65.67764" lon="12.40967">
        <ele>2.125567</ele>
        <time>2020-07-16T10:38:17.078Z</time>
      </trkpt>
      <trkpt lat="65.67788" lon="12.41002">
        <ele>1.914994</ele>
        <time>2020-07-16T10:38:21.561Z</time>
      </trkpt>
      <trkpt lat="65.67838" lon="12.4108">
        <ele>1.46355</ele>
        <time>2020-07-16T10:38:31.670Z</time>
      </trkpt>
      <trkpt lat="65.67863" lon="12.41117">
        <ele>1.262183</ele>
        <time>2020-07-16T10:38:36.752Z</time>
      </trkpt>
      <trkpt lat="65.67882" lon="12.41147">
        <ele>1.195265</ele>
        <time>2020-07-16T10:38:40.616Z</time>
      </trkpt>
      <trkpt lat="65.67925" lon="12.41212">
        <ele>1.043403</ele>
        <time>2020-07-16T10:38:49.271Z</time>
      </trkpt>
      <trkpt lat="65.67998" lon="12.41322">
        <ele>0.78778</ele>
        <time>2020-07-16T10:39:03.681Z</time>
      </trkpt>
      <trkpt lat="65.68139" lon="12.41533">
        <ele>0.332788</ele>
        <time>2020-07-16T10:39:31.701Z</time>
      </trkpt>
      <trkpt lat="65.68195" lon="12.41617">
        <ele>0.426135</ele>
        <time>2020-07-16T10:39:43.375Z</time>
      </trkpt>
      <trkpt lat="65.68213" lon="12.41644">
        <ele>0.534418</ele>
        <time>2020-07-16T10:39:47.233Z</time>
      </trkpt>
      <trkpt lat="65.68253" lon="12.41701">
        <ele>0.773479</ele>
        <time>2020-07-16T10:39:56.063Z</time>
      </trkpt>
      <trkpt lat="65.68274" lon="12.41725">
        <ele>0.888381</ele>
        <time>2020-07-16T10:40:00.351Z</time>
      </trkpt>
      <trkpt lat="65.68293" lon="12.41746">
        <ele>0.995838</ele>
        <time>2020-07-16T10:40:04.699Z</time>
      </trkpt>
      <trkpt lat="65.68417" lon="12.41858">
        <ele>2.892536</ele>
        <time>2020-07-16T10:40:34.183Z</time>
      </trkpt>
      <trkpt lat="65.68433" lon="12.41874">
        <ele>3.199075</ele>
        <time>2020-07-16T10:40:38.561Z</time>
      </trkpt>
      <trkpt lat="65.68439" lon="12.4188">
        <ele>3.318346</ele>
        <time>2020-07-16T10:40:40.185Z</time>
      </trkpt>
      <trkpt lat="65.68446" lon="12.41887">
        <ele>3.447623</ele>
        <time>2020-07-16T10:40:41.939Z</time>
      </trkpt>
      <trkpt lat="65.68471" lon="12.41919">
        <ele>3.941648</ele>
        <time>2020-07-16T10:40:48.938Z</time>
      </trkpt>
      <trkpt lat="65.68508" lon="12.41971">
        <ele>4.877582</ele>
        <time>2020-07-16T10:40:59.693Z</time>
      </trkpt>
      <trkpt lat="65.68655" lon="12.42192">
        <ele>9.380473</ele>
        <time>2020-07-16T10:41:45.511Z</time>
      </trkpt>
      <trkpt lat="65.68707" lon="12.42278">
        <ele>10.961152</ele>
        <time>2020-07-16T10:42:02.611Z</time>
      </trkpt>
      <trkpt lat="65.68729" lon="12.42318">
        <ele>11.639872</ele>
        <time>2020-07-16T10:42:09.872Z</time>
      </trkpt>
      <trkpt lat="65.68731" lon="12.42321">
        <ele>11.684191</ele>
        <time>2020-07-16T10:42:10.333Z</time>
      </trkpt>
      <trkpt lat="65.68803" lon="12.42459">
        <ele>13.631984</ele>
        <time>2020-07-16T10:42:33.143Z</time>
      </trkpt>
      <trkpt lat="65.68859" lon="12.42546">
        <ele>14.13392</ele>
        <time>2020-07-16T10:42:47.991Z</time>
      </trkpt>
      <trkpt lat="65.68918" lon="12.42619">
        <ele>14.639143</ele>
        <time>2020-07-16T10:43:01.177Z</time>
      </trkpt>
      <trkpt lat="65.68921" lon="12.42607">
        <ele>14.680623</ele>
        <time>2020-07-16T10:43:02.341Z</time>
      </trkpt>
      <trkpt lat="65.68926" lon="12.42614">
        <ele>14.724634</ele>
        <time>2020-07-16T10:43:03.444Z</time>
      </trkpt>
      <trkpt lat="65.68984" lon="12.42689">
        <ele>13.81963</ele>
        <time>2020-07-16T10:43:13.839Z</time>
      </trkpt>
      <trkpt lat="65.69021" lon="12.42754">
        <ele>12.860218</ele>
        <time>2020-07-16T10:43:20.870Z</time>
      </trkpt>
      <trkpt lat="65.69051" lon="12.42815">
        <ele>12.059585</ele>
        <time>2020-07-16T10:43:26.487Z</time>
      </trkpt>
      <trkpt lat="65.69054" lon="12.42821">
        <ele>11.973874</ele>
        <time>2020-07-16T10:43:26.979Z</time>
      </trkpt>
      <trkpt lat="65.69125" lon="12.42947">
        <ele>9.498533</ele>
        <time>2020-07-16T10:43:38.869Z</time>
      </trkpt>
      <trkpt lat="65.69182" lon="12.43002">
        <ele>7.352669</ele>
        <time>2020-07-16T10:43:46.975Z</time>
      </trkpt>
      <trkpt lat="65.69195" lon="12.43004">
        <ele>6.88375</ele>
        <time>2020-07-16T10:43:48.734Z</time>
      </trkpt>
      <trkpt lat="65.69196" lon="12.42996">
        <ele>6.771959</ele>
        <time>2020-07-16T10:43:49.212Z</time>
      </trkpt>
      <trkpt lat="65.692" lon="12.42999">
        <ele>6.638432</ele>
        <time>2020-07-16T10:43:49.693Z</time>
      </trkpt>
      <trkpt lat="65.69273" lon="12.4307">
        <ele>4.276028</ele>
        <time>2020-07-16T10:44:00.612Z</time>
      </trkpt>
      <trkpt lat="65.69284" lon="12.43078">
        <ele>4.036438</ele>
        <time>2020-07-16T10:44:02.201Z</time>
      </trkpt>
      <trkpt lat="65.69286" lon="12.4308">
        <ele>3.991376</ele>
        <time>2020-07-16T10:44:02.496Z</time>
      </trkpt>
      <trkpt lat="65.69289" lon="12.43085">
        <ele>3.908238</ele>
        <time>2020-07-16T10:44:03.051Z</time>
      </trkpt>
      <trkpt lat="65.6935" lon="12.43154">
        <ele>2.510283</ele>
        <time>2020-07-16T10:44:12.770Z</time>
      </trkpt>
      <trkpt lat="65.69372" lon="12.43176">
        <ele>2.023096</ele>
        <time>2020-07-16T10:44:16.660Z</time>
      </trkpt>
      <trkpt lat="65.6938" lon="12.43185">
        <ele>1.838783</ele>
        <time>2020-07-16T10:44:17.943Z</time>
      </trkpt>
      <trkpt lat="65.69386" lon="12.43193">
        <ele>1.702136</ele>
        <time>2020-07-16T10:44:19.007Z</time>
      </trkpt>
      <trkpt lat="65.69397" lon="12.43218">
        <ele>1.397293</ele>
        <time>2020-07-16T10:44:21.468Z</time>
      </trkpt>
      <trkpt lat="65.69397" lon="12.43229">
        <ele>1.298403</ele>
        <time>2020-07-16T10:44:22.267Z</time>
      </trkpt>
      <trkpt lat="65.694" lon="12.43232">
        <ele>1.229663</ele>
        <time>2020-07-16T10:44:22.722Z</time>
      </trkpt>
      <trkpt lat="65.69398" lon="12.43241">
        <ele>1.14627</ele>
        <time>2020-07-16T10:44:23.313Z</time>
      </trkpt>
      <trkpt lat="65.69394" lon="12.43261">
        <ele>1.06552</ele>
        <time>2020-07-16T10:44:24.776Z</time>
      </trkpt>
      <trkpt lat="65.69394" lon="12.43266">
        <ele>1.05504</ele>
        <time>2020-07-16T10:44:25.103Z</time>
      </trkpt>
      <trkpt lat="65.69395" lon="12.43271">
        <ele>1.043496</ele>
        <time>2020-07-16T10:44:25.427Z</time>
      </trkpt>
      <trkpt lat="65.69399" lon="12.4328">
        <ele>1.011118</ele>
        <time>2020-07-16T10:44:26.478Z</time>
      </trkpt>
      <trkpt lat="65.69424" lon="12.43305">
        <ele>0.864423</ele>
        <time>2020-07-16T10:44:31.060Z</time>
      </trkpt>
      <trkpt lat="65.69488" lon="12.43365">
        <ele>0.49697</ele>
        <time>2020-07-16T10:44:42.746Z</time>
      </trkpt>
      <trkpt lat="65.6951" lon="12.43389">
        <ele>0.365234</ele>
        <time>2020-07-16T10:44:47.034Z</time>
      </trkpt>
      <trkpt lat="65.69518" lon="12.43395">
        <ele>0.318568</ele>
        <time>2020-07-16T10:44:48.585Z</time>
      </trkpt>
      <trkpt lat="65.69594" lon="12.43462">
        <ele>0.098135</ele>
        <time>2020-07-16T10:45:03.025Z</time>
      </trkpt>
      <trkpt lat="65.69617" lon="12.43497">
        <ele>0.078013</ele>
        <time>2020-07-16T10:45:08.060Z</time>
      </trkpt>
      <trkpt lat="65.69632" lon="12.43523">
        <ele>0.064521</ele>
        <time>2020-07-16T10:45:11.453Z</time>
      </trkpt>
      <trkpt lat="65.69639" lon="12.43538">
        <ele>0.057487</ele>
        <time>2020-07-16T10:45:13.219Z</time>
      </trkpt>
      <trkpt lat="65.69681" lon="12.43571">
        <ele>0.025699</ele>
        <time>2020-07-16T10:45:21.306Z</time>
      </trkpt>
      <trkpt lat="65.69799" lon="12.43751">
        <ele>8.5</ele>
        <time>2020-07-16T10:45:47.325Z</time>
      </trkpt>
      <trkpt lat="65.69825" lon="12.43786">
        <ele>7.2</ele>
        <time>2020-07-16T10:45:52.819Z</time>
      </trkpt>
      <trkpt lat="65.69879" lon="12.43861">
        <ele>6.4</ele>
        <time>2020-07-16T10:46:04.404Z</time>
      </trkpt>
      <trkpt lat="65.69902" lon="12.43892">
        <ele>6.6</ele>
        <time>2020-07-16T10:46:09.180Z</time>
      </trkpt>
      <trkpt lat="65.6997" lon="12.44003">
        <ele>8.4</ele>
        <time>2020-07-16T10:46:24.495Z</time>
      </trkpt>
      <trkpt lat="65.69975" lon="12.44006">
        <ele>8.3</ele>
        <time>2020-07-16T10:46:25.395Z</time>
      </trkpt>
      <trkpt lat="65.69979" lon="12.44012">
        <ele>8.5</ele>
        <time>2020-07-16T10:46:26.253Z</time>
      </trkpt>
      <trkpt lat="65.70014" lon="12.44078">
        <ele>9.3</ele>
        <time>2020-07-16T10:46:34.438Z</time>
      </trkpt>
      <trkpt lat="65.70042" lon="12.44132">
        <ele>9.4</ele>
        <time>2020-07-16T10:46:41.142Z</time>
      </trkpt>
      <trkpt lat="65.70071" lon="12.44183">
        <ele>9.3</ele>
        <time>2020-07-16T10:46:47.862Z</time>
      </trkpt>
      <trkpt lat="65.7009" lon="12.44211">
        <ele>9.5</ele>
        <time>2020-07-16T10:46:51.881Z</time>
      </trkpt>
      <trkpt lat="65.70137" lon="12.4428">
        <ele>10.1</ele>
        <time>2020-07-16T10:47:02.077Z</time>
      </trkpt>
      <trkpt lat="65.70162" lon="12.44317">
        <ele>11.8</ele>
        <time>2020-07-16T10:47:07.658Z</time>
      </trkpt>
      <trkpt lat="65.70255" lon="12.44449">
        <ele>0.005289</ele>
        <time>2020-07-16T10:47:27.678Z</time>
      </trkpt>
      <trkpt lat="65.70298" lon="12.44518">
        <ele>0.00787</ele>
        <time>2020-07-16T10:47:37.242Z</time>
      </trkpt>
      <trkpt lat="65.70314" lon="12.44549">
        <ele>0.0089</ele>
        <time>2020-07-16T10:47:41.068Z</time>
      </trkpt>
      <trkpt lat="65.70351" lon="12.44616">
        <ele>0.066944</ele>
        <time>2020-07-16T10:47:49.745Z</time>
      </trkpt>
      <trkpt lat="65.70402" lon="12.44721">
        <ele>0.156577</ele>
        <time>2020-07-16T10:48:02.506Z</time>
      </trkpt>
      <trkpt lat="65.70471" lon="12.44867">
        <ele>0.343464</ele>
        <time>2020-07-16T10:48:19.880Z</time>
      </trkpt>
      <trkpt lat="65.70513" lon="12.44956">
        <ele>0.588695</ele>
        <time>2020-07-16T10:48:30.711Z</time>
      </trkpt>
      <trkpt lat="65.70553" lon="12.45039">
        <ele>0.822633</ele>
        <time>2020-07-16T10:48:41.133Z</time>
      </trkpt>
      <trkpt lat="65.70575" lon="12.45082">
        <ele>0.94642</ele>
        <time>2020-07-16T10:48:46.767Z</time>
      </trkpt>
      <trkpt lat="65.70591" lon="12.45114">
        <ele>1.039549</ele>
        <time>2020-07-16T10:48:50.993Z</time>
      </trkpt>
      <trkpt lat="65.70595" lon="12.4512">
        <ele>1.09928</ele>
        <time>2020-07-16T10:48:51.988Z</time>
      </trkpt>
      <trkpt lat="65.70614" lon="12.45154">
        <ele>1.486388</ele>
        <time>2020-07-16T10:48:56.969Z</time>
      </trkpt>
      <trkpt lat="65.70707" lon="12.45319">
        <ele>3.381494</ele>
        <time>2020-07-16T10:49:24.544Z</time>
      </trkpt>
      <trkpt lat="65.7075" lon="12.45395">
        <ele>4.321319</ele>
        <time>2020-07-16T10:49:38.480Z</time>
      </trkpt>
      <trkpt lat="65.70808" lon="12.45496">
        <ele>5.839488</ele>
        <time>2020-07-16T10:49:57.535Z</time>
      </trkpt>
      <trkpt lat="65.70883" lon="12.45606">
        <ele>7.720728</ele>
        <time>2020-07-16T10:50:20.331Z</time>
      </trkpt>
      <trkpt lat="65.70931" lon="12.45657">
        <ele>7.826873</ele>
        <time>2020-07-16T10:50:31.427Z</time>
      </trkpt>
      <trkpt lat="65.70982" lon="12.45694">
        <ele>7.825508</ele>
        <time>2020-07-16T10:50:41.239Z</time>
      </trkpt>
      <trkpt lat="65.71053" lon="12.45735">
        <ele>7.823675</ele>
        <time>2020-07-16T10:50:53.383Z</time>
      </trkpt>
      <trkpt lat="65.71053" lon="12.45726">
        <ele>7.823578</ele>
        <time>2020-07-16T10:50:53.955Z</time>
      </trkpt>
      <trkpt lat="65.71054" lon="12.45718">
        <ele>7.823503</ele>
        <time>2020-07-16T10:50:54.415Z</time>
      </trkpt>
      <trkpt lat="65.71082" lon="12.45734">
        <ele>7.823503</ele>
        <time>2020-07-16T10:50:58.939Z</time>
      </trkpt>
      <trkpt lat="65.71094" lon="12.45762">
        <ele>7.823503</ele>
        <time>2020-07-16T10:51:01.469Z</time>
      </trkpt>
      <trkpt lat="65.71225" lon="12.45914">
        <ele>7.823503</ele>
        <time>2020-07-16T10:51:23.219Z</time>
      </trkpt>
      <trkpt lat="65.71238" lon="12.45909">
        <ele>7.823503</ele>
        <time>2020-07-16T10:51:25.449Z</time>
      </trkpt>
      <trkpt lat="65.71248" lon="12.45898">
        <ele>7.823503</ele>
        <time>2020-07-16T10:51:27.024Z</time>
      </trkpt>
      <trkpt lat="65.71248" lon="12.45898">
        <ele>7.823503</ele>
        <time>2020-07-16T10:51:27.027Z</time>
      </trkpt>
    </trkseg>
  </trk>
</gpx>